<?xml version="1.0" encoding="UTF-8" standalone="no" ?>
<gpx xmlns="http://www.topografix.com/GPX/1/1" xmlns:xsi="http://www.w3.org/2001/XMLSchema-instance" xsi:schemaLocation="http://www.topografix.com/GPX/1/1 http://www.topografix.com/GPX/1/1/gpx.xsd" version="1.1" creator="VisuGPX - https://www.visugpx.com">
  <metadata>
    <name>Marche amienoise</name>
    <desc><![CDATA[24 pax]]></desc>
  </metadata>
  <trk>
    <name><![CDATA[Marche amienoise_1]]></name>
    <trkseg>
      <trkpt lat="49.87948" lon="2.30841">
        <ele>62.5</ele>
        <time>2024-01-12T12:14:41Z</time>
      </trkpt>
      <trkpt lat="49.87948" lon="2.3084">
        <ele>62.5</ele>
        <time>2024-01-12T12:14:42Z</time>
      </trkpt>
      <trkpt lat="49.87947" lon="2.30839">
        <ele>62.6</ele>
        <time>2024-01-12T12:14:43Z</time>
      </trkpt>
      <trkpt lat="49.87946" lon="2.30836">
        <ele>62.6</ele>
        <time>2024-01-12T12:14:44Z</time>
      </trkpt>
      <trkpt lat="49.87946" lon="2.30834">
        <ele>62.6</ele>
        <time>2024-01-12T12:14:46Z</time>
      </trkpt>
      <trkpt lat="49.87945" lon="2.30833">
        <ele>62.6</ele>
        <time>2024-01-12T12:14:47Z</time>
      </trkpt>
      <trkpt lat="49.87945" lon="2.30831">
        <ele>62.6</ele>
        <time>2024-01-12T12:14:48Z</time>
      </trkpt>
      <trkpt lat="49.87944" lon="2.3083">
        <ele>62.7</ele>
        <time>2024-01-12T12:14:49Z</time>
      </trkpt>
      <trkpt lat="49.87944" lon="2.30828">
        <ele>62.7</ele>
        <time>2024-01-12T12:14:50Z</time>
      </trkpt>
      <trkpt lat="49.87944" lon="2.30826">
        <ele>62.7</ele>
        <time>2024-01-12T12:14:52Z</time>
      </trkpt>
      <trkpt lat="49.87944" lon="2.30826">
        <ele>62.7</ele>
        <time>2024-01-12T12:14:53Z</time>
      </trkpt>
      <trkpt lat="49.87945" lon="2.30825">
        <ele>62.7</ele>
        <time>2024-01-12T12:14:54Z</time>
      </trkpt>
      <trkpt lat="49.87945" lon="2.30824">
        <ele>62.7</ele>
        <time>2024-01-12T12:14:55Z</time>
      </trkpt>
      <trkpt lat="49.87945" lon="2.30824">
        <ele>62.7</ele>
        <time>2024-01-12T12:14:56Z</time>
      </trkpt>
      <trkpt lat="49.87945" lon="2.30823">
        <ele>62.7</ele>
        <time>2024-01-12T12:14:57Z</time>
      </trkpt>
      <trkpt lat="49.87944" lon="2.30821">
        <ele>62.7</ele>
        <time>2024-01-12T12:14:58Z</time>
      </trkpt>
      <trkpt lat="49.87944" lon="2.3082">
        <ele>62.7</ele>
        <time>2024-01-12T12:14:59Z</time>
      </trkpt>
      <trkpt lat="49.87944" lon="2.30819">
        <ele>62.8</ele>
        <time>2024-01-12T12:15:00Z</time>
      </trkpt>
      <trkpt lat="49.87944" lon="2.30818">
        <ele>62.8</ele>
        <time>2024-01-12T12:15:01Z</time>
      </trkpt>
      <trkpt lat="49.87943" lon="2.30818">
        <ele>62.8</ele>
        <time>2024-01-12T12:15:02Z</time>
      </trkpt>
      <trkpt lat="49.87943" lon="2.30817">
        <ele>62.8</ele>
        <time>2024-01-12T12:15:03Z</time>
      </trkpt>
      <trkpt lat="49.87943" lon="2.30817">
        <ele>62.8</ele>
        <time>2024-01-12T12:15:04Z</time>
      </trkpt>
      <trkpt lat="49.87942" lon="2.30816">
        <ele>62.8</ele>
        <time>2024-01-12T12:15:05Z</time>
      </trkpt>
      <trkpt lat="49.87941" lon="2.30814">
        <ele>62.8</ele>
        <time>2024-01-12T12:15:06Z</time>
      </trkpt>
      <trkpt lat="49.87941" lon="2.30813">
        <ele>62.8</ele>
        <time>2024-01-12T12:15:07Z</time>
      </trkpt>
      <trkpt lat="49.87941" lon="2.30812">
        <ele>62.8</ele>
        <time>2024-01-12T12:15:08Z</time>
      </trkpt>
      <trkpt lat="49.87941" lon="2.3081">
        <ele>62.8</ele>
        <time>2024-01-12T12:15:09Z</time>
      </trkpt>
      <trkpt lat="49.8794" lon="2.30806">
        <ele>62.9</ele>
        <time>2024-01-12T12:15:10Z</time>
      </trkpt>
      <trkpt lat="49.8794" lon="2.30804">
        <ele>62.9</ele>
        <time>2024-01-12T12:15:11Z</time>
      </trkpt>
      <trkpt lat="49.8794" lon="2.30801">
        <ele>62.9</ele>
        <time>2024-01-12T12:15:12Z</time>
      </trkpt>
      <trkpt lat="49.8794" lon="2.30799">
        <ele>62.9</ele>
        <time>2024-01-12T12:15:13Z</time>
      </trkpt>
      <trkpt lat="49.8794" lon="2.30796">
        <ele>62.9</ele>
        <time>2024-01-12T12:15:14Z</time>
      </trkpt>
      <trkpt lat="49.8794" lon="2.30794">
        <ele>62.9</ele>
        <time>2024-01-12T12:15:15Z</time>
      </trkpt>
      <trkpt lat="49.8794" lon="2.30792">
        <ele>63</ele>
        <time>2024-01-12T12:15:16Z</time>
      </trkpt>
      <trkpt lat="49.8794" lon="2.30791">
        <ele>63</ele>
        <time>2024-01-12T12:15:17Z</time>
      </trkpt>
      <trkpt lat="49.8794" lon="2.30789">
        <ele>63</ele>
        <time>2024-01-12T12:15:18Z</time>
      </trkpt>
      <trkpt lat="49.8794" lon="2.30788">
        <ele>63</ele>
        <time>2024-01-12T12:15:19Z</time>
      </trkpt>
      <trkpt lat="49.87939" lon="2.30787">
        <ele>63</ele>
        <time>2024-01-12T12:15:20Z</time>
      </trkpt>
      <trkpt lat="49.87939" lon="2.30786">
        <ele>63</ele>
        <time>2024-01-12T12:15:21Z</time>
      </trkpt>
      <trkpt lat="49.87939" lon="2.30784">
        <ele>63</ele>
        <time>2024-01-12T12:15:22Z</time>
      </trkpt>
      <trkpt lat="49.87939" lon="2.30783">
        <ele>63</ele>
        <time>2024-01-12T12:15:23Z</time>
      </trkpt>
      <trkpt lat="49.87939" lon="2.30781">
        <ele>63</ele>
        <time>2024-01-12T12:15:24Z</time>
      </trkpt>
      <trkpt lat="49.87938" lon="2.30776">
        <ele>63.1</ele>
        <time>2024-01-12T12:15:26Z</time>
      </trkpt>
      <trkpt lat="49.87938" lon="2.30773">
        <ele>63.1</ele>
        <time>2024-01-12T12:15:27Z</time>
      </trkpt>
      <trkpt lat="49.87937" lon="2.30769">
        <ele>63.2</ele>
        <time>2024-01-12T12:15:28Z</time>
      </trkpt>
      <trkpt lat="49.87937" lon="2.30767">
        <ele>63.2</ele>
        <time>2024-01-12T12:15:29Z</time>
      </trkpt>
      <trkpt lat="49.87936" lon="2.30763">
        <ele>63.2</ele>
        <time>2024-01-12T12:15:30Z</time>
      </trkpt>
      <trkpt lat="49.87936" lon="2.30762">
        <ele>63.2</ele>
        <time>2024-01-12T12:15:31Z</time>
      </trkpt>
      <trkpt lat="49.87935" lon="2.30759">
        <ele>63.2</ele>
        <time>2024-01-12T12:15:32Z</time>
      </trkpt>
      <trkpt lat="49.87934" lon="2.30757">
        <ele>63.2</ele>
        <time>2024-01-12T12:15:33Z</time>
      </trkpt>
      <trkpt lat="49.87934" lon="2.30755">
        <ele>63.3</ele>
        <time>2024-01-12T12:15:34Z</time>
      </trkpt>
      <trkpt lat="49.87933" lon="2.30752">
        <ele>63.3</ele>
        <time>2024-01-12T12:15:35Z</time>
      </trkpt>
      <trkpt lat="49.87932" lon="2.3075">
        <ele>63.3</ele>
        <time>2024-01-12T12:15:36Z</time>
      </trkpt>
      <trkpt lat="49.87931" lon="2.30748">
        <ele>63.3</ele>
        <time>2024-01-12T12:15:37Z</time>
      </trkpt>
      <trkpt lat="49.8793" lon="2.30745">
        <ele>63.3</ele>
        <time>2024-01-12T12:15:38Z</time>
      </trkpt>
      <trkpt lat="49.87929" lon="2.30744">
        <ele>63.3</ele>
        <time>2024-01-12T12:15:39Z</time>
      </trkpt>
      <trkpt lat="49.87929" lon="2.30742">
        <ele>63.4</ele>
        <time>2024-01-12T12:15:40Z</time>
      </trkpt>
      <trkpt lat="49.87928" lon="2.3074">
        <ele>63.4</ele>
        <time>2024-01-12T12:15:41Z</time>
      </trkpt>
      <trkpt lat="49.87927" lon="2.30737">
        <ele>63.4</ele>
        <time>2024-01-12T12:15:42Z</time>
      </trkpt>
      <trkpt lat="49.87927" lon="2.30736">
        <ele>63.4</ele>
        <time>2024-01-12T12:15:43Z</time>
      </trkpt>
      <trkpt lat="49.87926" lon="2.30735">
        <ele>63.4</ele>
        <time>2024-01-12T12:15:44Z</time>
      </trkpt>
      <trkpt lat="49.87925" lon="2.30732">
        <ele>63.5</ele>
        <time>2024-01-12T12:15:45Z</time>
      </trkpt>
      <trkpt lat="49.87925" lon="2.30731">
        <ele>63.5</ele>
        <time>2024-01-12T12:15:46Z</time>
      </trkpt>
      <trkpt lat="49.87925" lon="2.3073">
        <ele>63.5</ele>
        <time>2024-01-12T12:15:47Z</time>
      </trkpt>
      <trkpt lat="49.87924" lon="2.30727">
        <ele>63.5</ele>
        <time>2024-01-12T12:15:48Z</time>
      </trkpt>
      <trkpt lat="49.87924" lon="2.30726">
        <ele>63.5</ele>
        <time>2024-01-12T12:15:49Z</time>
      </trkpt>
      <trkpt lat="49.87923" lon="2.30724">
        <ele>63.6</ele>
        <time>2024-01-12T12:15:50Z</time>
      </trkpt>
      <trkpt lat="49.87923" lon="2.30723">
        <ele>63.6</ele>
        <time>2024-01-12T12:15:51Z</time>
      </trkpt>
      <trkpt lat="49.87923" lon="2.30721">
        <ele>63.6</ele>
        <time>2024-01-12T12:15:52Z</time>
      </trkpt>
      <trkpt lat="49.87922" lon="2.30719">
        <ele>63.6</ele>
        <time>2024-01-12T12:15:53Z</time>
      </trkpt>
      <trkpt lat="49.87922" lon="2.30718">
        <ele>63.6</ele>
        <time>2024-01-12T12:15:54Z</time>
      </trkpt>
      <trkpt lat="49.87921" lon="2.30716">
        <ele>63.7</ele>
        <time>2024-01-12T12:15:55Z</time>
      </trkpt>
      <trkpt lat="49.87921" lon="2.30714">
        <ele>63.7</ele>
        <time>2024-01-12T12:15:56Z</time>
      </trkpt>
      <trkpt lat="49.8792" lon="2.30711">
        <ele>63.7</ele>
        <time>2024-01-12T12:15:57Z</time>
      </trkpt>
      <trkpt lat="49.8792" lon="2.3071">
        <ele>63.7</ele>
        <time>2024-01-12T12:15:58Z</time>
      </trkpt>
      <trkpt lat="49.8792" lon="2.30709">
        <ele>63.7</ele>
        <time>2024-01-12T12:15:59Z</time>
      </trkpt>
      <trkpt lat="49.87919" lon="2.30706">
        <ele>63.8</ele>
        <time>2024-01-12T12:16:00Z</time>
      </trkpt>
      <trkpt lat="49.87919" lon="2.30705">
        <ele>63.8</ele>
        <time>2024-01-12T12:16:01Z</time>
      </trkpt>
      <trkpt lat="49.87918" lon="2.30703">
        <ele>63.8</ele>
        <time>2024-01-12T12:16:02Z</time>
      </trkpt>
      <trkpt lat="49.87918" lon="2.30701">
        <ele>63.8</ele>
        <time>2024-01-12T12:16:03Z</time>
      </trkpt>
      <trkpt lat="49.87918" lon="2.30699">
        <ele>63.8</ele>
        <time>2024-01-12T12:16:04Z</time>
      </trkpt>
      <trkpt lat="49.87917" lon="2.30696">
        <ele>63.9</ele>
        <time>2024-01-12T12:16:05Z</time>
      </trkpt>
      <trkpt lat="49.87916" lon="2.30695">
        <ele>63.9</ele>
        <time>2024-01-12T12:16:06Z</time>
      </trkpt>
      <trkpt lat="49.87916" lon="2.30693">
        <ele>63.9</ele>
        <time>2024-01-12T12:16:07Z</time>
      </trkpt>
      <trkpt lat="49.87915" lon="2.3069">
        <ele>63.9</ele>
        <time>2024-01-12T12:16:08Z</time>
      </trkpt>
      <trkpt lat="49.87915" lon="2.30689">
        <ele>64</ele>
        <time>2024-01-12T12:16:09Z</time>
      </trkpt>
      <trkpt lat="49.87915" lon="2.30688">
        <ele>64</ele>
        <time>2024-01-12T12:16:10Z</time>
      </trkpt>
      <trkpt lat="49.87914" lon="2.30686">
        <ele>64</ele>
        <time>2024-01-12T12:16:11Z</time>
      </trkpt>
      <trkpt lat="49.87914" lon="2.30684">
        <ele>64</ele>
        <time>2024-01-12T12:16:12Z</time>
      </trkpt>
      <trkpt lat="49.87913" lon="2.30682">
        <ele>64</ele>
        <time>2024-01-12T12:16:13Z</time>
      </trkpt>
      <trkpt lat="49.87912" lon="2.3068">
        <ele>64.1</ele>
        <time>2024-01-12T12:16:14Z</time>
      </trkpt>
      <trkpt lat="49.87912" lon="2.30678">
        <ele>64.1</ele>
        <time>2024-01-12T12:16:15Z</time>
      </trkpt>
      <trkpt lat="49.87911" lon="2.30676">
        <ele>64.1</ele>
        <time>2024-01-12T12:16:16Z</time>
      </trkpt>
      <trkpt lat="49.87911" lon="2.30674">
        <ele>64.1</ele>
        <time>2024-01-12T12:16:17Z</time>
      </trkpt>
      <trkpt lat="49.8791" lon="2.30672">
        <ele>64.2</ele>
        <time>2024-01-12T12:16:18Z</time>
      </trkpt>
      <trkpt lat="49.8791" lon="2.30669">
        <ele>64.2</ele>
        <time>2024-01-12T12:16:19Z</time>
      </trkpt>
      <trkpt lat="49.87909" lon="2.30667">
        <ele>64.2</ele>
        <time>2024-01-12T12:16:20Z</time>
      </trkpt>
      <trkpt lat="49.87909" lon="2.30666">
        <ele>64.2</ele>
        <time>2024-01-12T12:16:21Z</time>
      </trkpt>
      <trkpt lat="49.87909" lon="2.30664">
        <ele>64.3</ele>
        <time>2024-01-12T12:16:22Z</time>
      </trkpt>
      <trkpt lat="49.87908" lon="2.30662">
        <ele>64.3</ele>
        <time>2024-01-12T12:16:23Z</time>
      </trkpt>
      <trkpt lat="49.87908" lon="2.30661">
        <ele>64.3</ele>
        <time>2024-01-12T12:16:24Z</time>
      </trkpt>
      <trkpt lat="49.87908" lon="2.30659">
        <ele>64.3</ele>
        <time>2024-01-12T12:16:25Z</time>
      </trkpt>
      <trkpt lat="49.87907" lon="2.30658">
        <ele>64.3</ele>
        <time>2024-01-12T12:16:26Z</time>
      </trkpt>
      <trkpt lat="49.87907" lon="2.30656">
        <ele>64.4</ele>
        <time>2024-01-12T12:16:27Z</time>
      </trkpt>
      <trkpt lat="49.87907" lon="2.30655">
        <ele>64.4</ele>
        <time>2024-01-12T12:16:28Z</time>
      </trkpt>
      <trkpt lat="49.87906" lon="2.30653">
        <ele>64.4</ele>
        <time>2024-01-12T12:16:29Z</time>
      </trkpt>
      <trkpt lat="49.87906" lon="2.30651">
        <ele>64.4</ele>
        <time>2024-01-12T12:16:30Z</time>
      </trkpt>
      <trkpt lat="49.87905" lon="2.3065">
        <ele>64.4</ele>
        <time>2024-01-12T12:16:31Z</time>
      </trkpt>
      <trkpt lat="49.87905" lon="2.30648">
        <ele>64.4</ele>
        <time>2024-01-12T12:16:32Z</time>
      </trkpt>
      <trkpt lat="49.87904" lon="2.30646">
        <ele>64.5</ele>
        <time>2024-01-12T12:16:33Z</time>
      </trkpt>
      <trkpt lat="49.87903" lon="2.30643">
        <ele>64.5</ele>
        <time>2024-01-12T12:16:34Z</time>
      </trkpt>
      <trkpt lat="49.87903" lon="2.30642">
        <ele>64.5</ele>
        <time>2024-01-12T12:16:35Z</time>
      </trkpt>
      <trkpt lat="49.87903" lon="2.30641">
        <ele>64.5</ele>
        <time>2024-01-12T12:16:36Z</time>
      </trkpt>
      <trkpt lat="49.87902" lon="2.30638">
        <ele>64.6</ele>
        <time>2024-01-12T12:16:37Z</time>
      </trkpt>
      <trkpt lat="49.87901" lon="2.30637">
        <ele>64.6</ele>
        <time>2024-01-12T12:16:38Z</time>
      </trkpt>
      <trkpt lat="49.87901" lon="2.30635">
        <ele>64.6</ele>
        <time>2024-01-12T12:16:39Z</time>
      </trkpt>
      <trkpt lat="49.879" lon="2.30632">
        <ele>64.6</ele>
        <time>2024-01-12T12:16:40Z</time>
      </trkpt>
      <trkpt lat="49.879" lon="2.30631">
        <ele>64.6</ele>
        <time>2024-01-12T12:16:41Z</time>
      </trkpt>
      <trkpt lat="49.879" lon="2.3063">
        <ele>64.6</ele>
        <time>2024-01-12T12:16:42Z</time>
      </trkpt>
      <trkpt lat="49.87899" lon="2.30626">
        <ele>64.7</ele>
        <time>2024-01-12T12:16:43Z</time>
      </trkpt>
      <trkpt lat="49.87899" lon="2.30625">
        <ele>64.7</ele>
        <time>2024-01-12T12:16:44Z</time>
      </trkpt>
      <trkpt lat="49.87899" lon="2.30624">
        <ele>64.7</ele>
        <time>2024-01-12T12:16:45Z</time>
      </trkpt>
      <trkpt lat="49.87898" lon="2.30621">
        <ele>64.7</ele>
        <time>2024-01-12T12:16:46Z</time>
      </trkpt>
      <trkpt lat="49.87898" lon="2.30619">
        <ele>64.7</ele>
        <time>2024-01-12T12:16:47Z</time>
      </trkpt>
      <trkpt lat="49.87898" lon="2.30618">
        <ele>64.8</ele>
        <time>2024-01-12T12:16:48Z</time>
      </trkpt>
      <trkpt lat="49.87897" lon="2.30615">
        <ele>64.8</ele>
        <time>2024-01-12T12:16:49Z</time>
      </trkpt>
      <trkpt lat="49.87897" lon="2.30614">
        <ele>64.8</ele>
        <time>2024-01-12T12:16:50Z</time>
      </trkpt>
      <trkpt lat="49.87897" lon="2.30612">
        <ele>64.8</ele>
        <time>2024-01-12T12:16:51Z</time>
      </trkpt>
      <trkpt lat="49.87896" lon="2.30609">
        <ele>64.9</ele>
        <time>2024-01-12T12:16:52Z</time>
      </trkpt>
      <trkpt lat="49.87896" lon="2.30608">
        <ele>64.9</ele>
        <time>2024-01-12T12:16:53Z</time>
      </trkpt>
      <trkpt lat="49.87895" lon="2.30607">
        <ele>64.9</ele>
        <time>2024-01-12T12:16:54Z</time>
      </trkpt>
      <trkpt lat="49.87895" lon="2.30605">
        <ele>64.9</ele>
        <time>2024-01-12T12:16:55Z</time>
      </trkpt>
      <trkpt lat="49.87895" lon="2.30603">
        <ele>64.9</ele>
        <time>2024-01-12T12:16:56Z</time>
      </trkpt>
      <trkpt lat="49.87894" lon="2.30602">
        <ele>65</ele>
        <time>2024-01-12T12:16:57Z</time>
      </trkpt>
      <trkpt lat="49.87894" lon="2.306">
        <ele>65</ele>
        <time>2024-01-12T12:16:58Z</time>
      </trkpt>
      <trkpt lat="49.87894" lon="2.30599">
        <ele>65</ele>
        <time>2024-01-12T12:16:59Z</time>
      </trkpt>
      <trkpt lat="49.87893" lon="2.30597">
        <ele>65</ele>
        <time>2024-01-12T12:17:00Z</time>
      </trkpt>
      <trkpt lat="49.87893" lon="2.30595">
        <ele>65</ele>
        <time>2024-01-12T12:17:01Z</time>
      </trkpt>
      <trkpt lat="49.87893" lon="2.30594">
        <ele>65.1</ele>
        <time>2024-01-12T12:17:02Z</time>
      </trkpt>
      <trkpt lat="49.87892" lon="2.30592">
        <ele>65.1</ele>
        <time>2024-01-12T12:17:03Z</time>
      </trkpt>
      <trkpt lat="49.87892" lon="2.30591">
        <ele>65.1</ele>
        <time>2024-01-12T12:17:04Z</time>
      </trkpt>
      <trkpt lat="49.87891" lon="2.30589">
        <ele>65.1</ele>
        <time>2024-01-12T12:17:05Z</time>
      </trkpt>
      <trkpt lat="49.87891" lon="2.30588">
        <ele>65.1</ele>
        <time>2024-01-12T12:17:06Z</time>
      </trkpt>
      <trkpt lat="49.8789" lon="2.30586">
        <ele>65.1</ele>
        <time>2024-01-12T12:17:07Z</time>
      </trkpt>
      <trkpt lat="49.8789" lon="2.30585">
        <ele>65.2</ele>
        <time>2024-01-12T12:17:08Z</time>
      </trkpt>
      <trkpt lat="49.87889" lon="2.30583">
        <ele>65.2</ele>
        <time>2024-01-12T12:17:09Z</time>
      </trkpt>
      <trkpt lat="49.87889" lon="2.3058">
        <ele>65.2</ele>
        <time>2024-01-12T12:17:10Z</time>
      </trkpt>
      <trkpt lat="49.87888" lon="2.30579">
        <ele>65.2</ele>
        <time>2024-01-12T12:17:11Z</time>
      </trkpt>
      <trkpt lat="49.87888" lon="2.30578">
        <ele>65.2</ele>
        <time>2024-01-12T12:17:12Z</time>
      </trkpt>
      <trkpt lat="49.87887" lon="2.30575">
        <ele>65.2</ele>
        <time>2024-01-12T12:17:13Z</time>
      </trkpt>
      <trkpt lat="49.87887" lon="2.30574">
        <ele>65.3</ele>
        <time>2024-01-12T12:17:14Z</time>
      </trkpt>
      <trkpt lat="49.87886" lon="2.30572">
        <ele>65.3</ele>
        <time>2024-01-12T12:17:15Z</time>
      </trkpt>
      <trkpt lat="49.87886" lon="2.30569">
        <ele>65.3</ele>
        <time>2024-01-12T12:17:16Z</time>
      </trkpt>
      <trkpt lat="49.87885" lon="2.30568">
        <ele>65.3</ele>
        <time>2024-01-12T12:17:17Z</time>
      </trkpt>
      <trkpt lat="49.87885" lon="2.30567">
        <ele>65.3</ele>
        <time>2024-01-12T12:17:18Z</time>
      </trkpt>
      <trkpt lat="49.87884" lon="2.30564">
        <ele>65.3</ele>
        <time>2024-01-12T12:17:19Z</time>
      </trkpt>
      <trkpt lat="49.87884" lon="2.30563">
        <ele>65.4</ele>
        <time>2024-01-12T12:17:20Z</time>
      </trkpt>
      <trkpt lat="49.87884" lon="2.30562">
        <ele>65.4</ele>
        <time>2024-01-12T12:17:21Z</time>
      </trkpt>
      <trkpt lat="49.87883" lon="2.30559">
        <ele>65.4</ele>
        <time>2024-01-12T12:17:22Z</time>
      </trkpt>
      <trkpt lat="49.87883" lon="2.30557">
        <ele>65.4</ele>
        <time>2024-01-12T12:17:23Z</time>
      </trkpt>
      <trkpt lat="49.87882" lon="2.30556">
        <ele>65.4</ele>
        <time>2024-01-12T12:17:24Z</time>
      </trkpt>
      <trkpt lat="49.87882" lon="2.30554">
        <ele>65.4</ele>
        <time>2024-01-12T12:17:25Z</time>
      </trkpt>
      <trkpt lat="49.87881" lon="2.30552">
        <ele>65.4</ele>
        <time>2024-01-12T12:17:26Z</time>
      </trkpt>
      <trkpt lat="49.8788" lon="2.30549">
        <ele>65.5</ele>
        <time>2024-01-12T12:17:27Z</time>
      </trkpt>
      <trkpt lat="49.8788" lon="2.30548">
        <ele>65.5</ele>
        <time>2024-01-12T12:17:28Z</time>
      </trkpt>
      <trkpt lat="49.8788" lon="2.30546">
        <ele>65.5</ele>
        <time>2024-01-12T12:17:29Z</time>
      </trkpt>
      <trkpt lat="49.87879" lon="2.30543">
        <ele>65.5</ele>
        <time>2024-01-12T12:17:30Z</time>
      </trkpt>
      <trkpt lat="49.87878" lon="2.30542">
        <ele>65.5</ele>
        <time>2024-01-12T12:17:31Z</time>
      </trkpt>
      <trkpt lat="49.87878" lon="2.30541">
        <ele>65.5</ele>
        <time>2024-01-12T12:17:32Z</time>
      </trkpt>
      <trkpt lat="49.87877" lon="2.30538">
        <ele>65.5</ele>
        <time>2024-01-12T12:17:33Z</time>
      </trkpt>
      <trkpt lat="49.87877" lon="2.30537">
        <ele>65.6</ele>
        <time>2024-01-12T12:17:34Z</time>
      </trkpt>
      <trkpt lat="49.87876" lon="2.30536">
        <ele>65.6</ele>
        <time>2024-01-12T12:17:35Z</time>
      </trkpt>
      <trkpt lat="49.87875" lon="2.30535">
        <ele>65.6</ele>
        <time>2024-01-12T12:17:36Z</time>
      </trkpt>
      <trkpt lat="49.87874" lon="2.30534">
        <ele>65.6</ele>
        <time>2024-01-12T12:17:37Z</time>
      </trkpt>
      <trkpt lat="49.87873" lon="2.30533">
        <ele>65.6</ele>
        <time>2024-01-12T12:17:38Z</time>
      </trkpt>
      <trkpt lat="49.87873" lon="2.30532">
        <ele>65.6</ele>
        <time>2024-01-12T12:17:39Z</time>
      </trkpt>
      <trkpt lat="49.87872" lon="2.30531">
        <ele>65.6</ele>
        <time>2024-01-12T12:17:40Z</time>
      </trkpt>
      <trkpt lat="49.87872" lon="2.3053">
        <ele>65.6</ele>
        <time>2024-01-12T12:17:41Z</time>
      </trkpt>
      <trkpt lat="49.87872" lon="2.30529">
        <ele>65.6</ele>
        <time>2024-01-12T12:17:42Z</time>
      </trkpt>
      <trkpt lat="49.87871" lon="2.30528">
        <ele>65.6</ele>
        <time>2024-01-12T12:17:43Z</time>
      </trkpt>
      <trkpt lat="49.87871" lon="2.30527">
        <ele>65.6</ele>
        <time>2024-01-12T12:17:44Z</time>
      </trkpt>
      <trkpt lat="49.8787" lon="2.30526">
        <ele>65.6</ele>
        <time>2024-01-12T12:17:45Z</time>
      </trkpt>
      <trkpt lat="49.87869" lon="2.30525">
        <ele>65.6</ele>
        <time>2024-01-12T12:17:46Z</time>
      </trkpt>
      <trkpt lat="49.87868" lon="2.30525">
        <ele>65.6</ele>
        <time>2024-01-12T12:17:47Z</time>
      </trkpt>
      <trkpt lat="49.87867" lon="2.30525">
        <ele>65.5</ele>
        <time>2024-01-12T12:17:48Z</time>
      </trkpt>
      <trkpt lat="49.87866" lon="2.30525">
        <ele>65.5</ele>
        <time>2024-01-12T12:17:49Z</time>
      </trkpt>
      <trkpt lat="49.87864" lon="2.30526">
        <ele>65.5</ele>
        <time>2024-01-12T12:17:50Z</time>
      </trkpt>
      <trkpt lat="49.87863" lon="2.30527">
        <ele>65.5</ele>
        <time>2024-01-12T12:17:51Z</time>
      </trkpt>
      <trkpt lat="49.8786" lon="2.3053">
        <ele>65.5</ele>
        <time>2024-01-12T12:17:52Z</time>
      </trkpt>
      <trkpt lat="49.87859" lon="2.30531">
        <ele>65.4</ele>
        <time>2024-01-12T12:17:53Z</time>
      </trkpt>
      <trkpt lat="49.87856" lon="2.30532">
        <ele>65.4</ele>
        <time>2024-01-12T12:17:54Z</time>
      </trkpt>
      <trkpt lat="49.87855" lon="2.30533">
        <ele>65.4</ele>
        <time>2024-01-12T12:17:55Z</time>
      </trkpt>
      <trkpt lat="49.87852" lon="2.30535">
        <ele>65.3</ele>
        <time>2024-01-12T12:17:56Z</time>
      </trkpt>
      <trkpt lat="49.87851" lon="2.30535">
        <ele>65.3</ele>
        <time>2024-01-12T12:17:57Z</time>
      </trkpt>
      <trkpt lat="49.87848" lon="2.30537">
        <ele>65.2</ele>
        <time>2024-01-12T12:17:58Z</time>
      </trkpt>
      <trkpt lat="49.87847" lon="2.30538">
        <ele>65.2</ele>
        <time>2024-01-12T12:17:59Z</time>
      </trkpt>
      <trkpt lat="49.87843" lon="2.30539">
        <ele>65.2</ele>
        <time>2024-01-12T12:18:00Z</time>
      </trkpt>
      <trkpt lat="49.87842" lon="2.3054">
        <ele>65.1</ele>
        <time>2024-01-12T12:18:01Z</time>
      </trkpt>
      <trkpt lat="49.87839" lon="2.30541">
        <ele>65.1</ele>
        <time>2024-01-12T12:18:02Z</time>
      </trkpt>
      <trkpt lat="49.87838" lon="2.30542">
        <ele>65.1</ele>
        <time>2024-01-12T12:18:03Z</time>
      </trkpt>
      <trkpt lat="49.87835" lon="2.30543">
        <ele>65</ele>
        <time>2024-01-12T12:18:04Z</time>
      </trkpt>
      <trkpt lat="49.87834" lon="2.30543">
        <ele>65</ele>
        <time>2024-01-12T12:18:05Z</time>
      </trkpt>
      <trkpt lat="49.87832" lon="2.30544">
        <ele>65</ele>
        <time>2024-01-12T12:18:06Z</time>
      </trkpt>
      <trkpt lat="49.8783" lon="2.30544">
        <ele>64.9</ele>
        <time>2024-01-12T12:18:07Z</time>
      </trkpt>
      <trkpt lat="49.87829" lon="2.30545">
        <ele>64.9</ele>
        <time>2024-01-12T12:18:08Z</time>
      </trkpt>
      <trkpt lat="49.87828" lon="2.30545">
        <ele>64.9</ele>
        <time>2024-01-12T12:18:09Z</time>
      </trkpt>
      <trkpt lat="49.87826" lon="2.30546">
        <ele>64.9</ele>
        <time>2024-01-12T12:18:10Z</time>
      </trkpt>
      <trkpt lat="49.87825" lon="2.30546">
        <ele>64.9</ele>
        <time>2024-01-12T12:18:11Z</time>
      </trkpt>
      <trkpt lat="49.87823" lon="2.30547">
        <ele>64.8</ele>
        <time>2024-01-12T12:18:12Z</time>
      </trkpt>
      <trkpt lat="49.87822" lon="2.30547">
        <ele>64.8</ele>
        <time>2024-01-12T12:18:13Z</time>
      </trkpt>
      <trkpt lat="49.87821" lon="2.30547">
        <ele>64.8</ele>
        <time>2024-01-12T12:18:14Z</time>
      </trkpt>
      <trkpt lat="49.87819" lon="2.30547">
        <ele>64.8</ele>
        <time>2024-01-12T12:18:15Z</time>
      </trkpt>
      <trkpt lat="49.87818" lon="2.30548">
        <ele>64.7</ele>
        <time>2024-01-12T12:18:16Z</time>
      </trkpt>
      <trkpt lat="49.87817" lon="2.30548">
        <ele>64.7</ele>
        <time>2024-01-12T12:18:17Z</time>
      </trkpt>
      <trkpt lat="49.87815" lon="2.30548">
        <ele>64.7</ele>
        <time>2024-01-12T12:18:18Z</time>
      </trkpt>
      <trkpt lat="49.87814" lon="2.30548">
        <ele>64.7</ele>
        <time>2024-01-12T12:18:19Z</time>
      </trkpt>
      <trkpt lat="49.87814" lon="2.30548">
        <ele>64.7</ele>
        <time>2024-01-12T12:18:20Z</time>
      </trkpt>
      <trkpt lat="49.87812" lon="2.30548">
        <ele>64.6</ele>
        <time>2024-01-12T12:18:21Z</time>
      </trkpt>
      <trkpt lat="49.87811" lon="2.30548">
        <ele>64.6</ele>
        <time>2024-01-12T12:18:22Z</time>
      </trkpt>
      <trkpt lat="49.8781" lon="2.30548">
        <ele>64.6</ele>
        <time>2024-01-12T12:18:23Z</time>
      </trkpt>
      <trkpt lat="49.87809" lon="2.30548">
        <ele>64.6</ele>
        <time>2024-01-12T12:18:24Z</time>
      </trkpt>
      <trkpt lat="49.87808" lon="2.30548">
        <ele>64.5</ele>
        <time>2024-01-12T12:18:25Z</time>
      </trkpt>
      <trkpt lat="49.87807" lon="2.30547">
        <ele>64.5</ele>
        <time>2024-01-12T12:18:26Z</time>
      </trkpt>
      <trkpt lat="49.87805" lon="2.30547">
        <ele>64.5</ele>
        <time>2024-01-12T12:18:27Z</time>
      </trkpt>
      <trkpt lat="49.87804" lon="2.30546">
        <ele>64.5</ele>
        <time>2024-01-12T12:18:28Z</time>
      </trkpt>
      <trkpt lat="49.87803" lon="2.30546">
        <ele>64.5</ele>
        <time>2024-01-12T12:18:29Z</time>
      </trkpt>
      <trkpt lat="49.87802" lon="2.30546">
        <ele>64.4</ele>
        <time>2024-01-12T12:18:30Z</time>
      </trkpt>
      <trkpt lat="49.87801" lon="2.30545">
        <ele>64.4</ele>
        <time>2024-01-12T12:18:31Z</time>
      </trkpt>
      <trkpt lat="49.878" lon="2.30545">
        <ele>64.4</ele>
        <time>2024-01-12T12:18:32Z</time>
      </trkpt>
      <trkpt lat="49.87799" lon="2.30545">
        <ele>64.4</ele>
        <time>2024-01-12T12:18:33Z</time>
      </trkpt>
      <trkpt lat="49.87798" lon="2.30545">
        <ele>64.3</ele>
        <time>2024-01-12T12:18:34Z</time>
      </trkpt>
      <trkpt lat="49.87797" lon="2.30545">
        <ele>64.3</ele>
        <time>2024-01-12T12:18:35Z</time>
      </trkpt>
      <trkpt lat="49.87796" lon="2.30545">
        <ele>64.3</ele>
        <time>2024-01-12T12:18:36Z</time>
      </trkpt>
      <trkpt lat="49.87795" lon="2.30545">
        <ele>64.3</ele>
        <time>2024-01-12T12:18:37Z</time>
      </trkpt>
      <trkpt lat="49.87794" lon="2.30545">
        <ele>64.2</ele>
        <time>2024-01-12T12:18:38Z</time>
      </trkpt>
      <trkpt lat="49.87793" lon="2.30545">
        <ele>64.2</ele>
        <time>2024-01-12T12:18:39Z</time>
      </trkpt>
      <trkpt lat="49.87792" lon="2.30546">
        <ele>64.2</ele>
        <time>2024-01-12T12:18:40Z</time>
      </trkpt>
      <trkpt lat="49.87791" lon="2.30546">
        <ele>64.1</ele>
        <time>2024-01-12T12:18:41Z</time>
      </trkpt>
      <trkpt lat="49.87789" lon="2.30546">
        <ele>64.1</ele>
        <time>2024-01-12T12:18:42Z</time>
      </trkpt>
      <trkpt lat="49.87788" lon="2.30546">
        <ele>64.1</ele>
        <time>2024-01-12T12:18:43Z</time>
      </trkpt>
      <trkpt lat="49.87787" lon="2.30547">
        <ele>64</ele>
        <time>2024-01-12T12:18:44Z</time>
      </trkpt>
      <trkpt lat="49.87785" lon="2.30548">
        <ele>64</ele>
        <time>2024-01-12T12:18:45Z</time>
      </trkpt>
      <trkpt lat="49.87784" lon="2.30548">
        <ele>64</ele>
        <time>2024-01-12T12:18:46Z</time>
      </trkpt>
      <trkpt lat="49.87783" lon="2.30548">
        <ele>63.9</ele>
        <time>2024-01-12T12:18:47Z</time>
      </trkpt>
      <trkpt lat="49.87782" lon="2.30549">
        <ele>63.9</ele>
        <time>2024-01-12T12:18:48Z</time>
      </trkpt>
      <trkpt lat="49.8778" lon="2.30549">
        <ele>63.9</ele>
        <time>2024-01-12T12:18:49Z</time>
      </trkpt>
      <trkpt lat="49.87779" lon="2.3055">
        <ele>63.8</ele>
        <time>2024-01-12T12:18:50Z</time>
      </trkpt>
      <trkpt lat="49.87777" lon="2.30551">
        <ele>63.8</ele>
        <time>2024-01-12T12:18:51Z</time>
      </trkpt>
      <trkpt lat="49.87776" lon="2.30552">
        <ele>63.7</ele>
        <time>2024-01-12T12:18:52Z</time>
      </trkpt>
      <trkpt lat="49.87774" lon="2.30553">
        <ele>63.7</ele>
        <time>2024-01-12T12:18:53Z</time>
      </trkpt>
      <trkpt lat="49.87773" lon="2.30554">
        <ele>63.6</ele>
        <time>2024-01-12T12:18:54Z</time>
      </trkpt>
      <trkpt lat="49.87771" lon="2.30555">
        <ele>63.6</ele>
        <time>2024-01-12T12:18:55Z</time>
      </trkpt>
      <trkpt lat="49.8777" lon="2.30556">
        <ele>63.6</ele>
        <time>2024-01-12T12:18:56Z</time>
      </trkpt>
      <trkpt lat="49.87768" lon="2.30557">
        <ele>63.5</ele>
        <time>2024-01-12T12:18:57Z</time>
      </trkpt>
      <trkpt lat="49.87766" lon="2.30559">
        <ele>63.5</ele>
        <time>2024-01-12T12:18:58Z</time>
      </trkpt>
      <trkpt lat="49.87765" lon="2.30559">
        <ele>63.4</ele>
        <time>2024-01-12T12:18:59Z</time>
      </trkpt>
      <trkpt lat="49.87763" lon="2.3056">
        <ele>63.4</ele>
        <time>2024-01-12T12:19:00Z</time>
      </trkpt>
      <trkpt lat="49.87762" lon="2.30561">
        <ele>63.4</ele>
        <time>2024-01-12T12:19:01Z</time>
      </trkpt>
      <trkpt lat="49.8776" lon="2.30562">
        <ele>63.3</ele>
        <time>2024-01-12T12:19:02Z</time>
      </trkpt>
      <trkpt lat="49.87759" lon="2.30563">
        <ele>63.3</ele>
        <time>2024-01-12T12:19:03Z</time>
      </trkpt>
      <trkpt lat="49.87757" lon="2.30563">
        <ele>63.2</ele>
        <time>2024-01-12T12:19:04Z</time>
      </trkpt>
      <trkpt lat="49.87756" lon="2.30563">
        <ele>63.2</ele>
        <time>2024-01-12T12:19:05Z</time>
      </trkpt>
      <trkpt lat="49.87755" lon="2.30563">
        <ele>63.2</ele>
        <time>2024-01-12T12:19:06Z</time>
      </trkpt>
      <trkpt lat="49.87754" lon="2.30564">
        <ele>63.1</ele>
        <time>2024-01-12T12:19:07Z</time>
      </trkpt>
      <trkpt lat="49.87753" lon="2.30564">
        <ele>63.1</ele>
        <time>2024-01-12T12:19:08Z</time>
      </trkpt>
      <trkpt lat="49.87752" lon="2.30563">
        <ele>63</ele>
        <time>2024-01-12T12:19:09Z</time>
      </trkpt>
      <trkpt lat="49.8775" lon="2.30563">
        <ele>63</ele>
        <time>2024-01-12T12:19:10Z</time>
      </trkpt>
      <trkpt lat="49.87749" lon="2.30563">
        <ele>63</ele>
        <time>2024-01-12T12:19:11Z</time>
      </trkpt>
      <trkpt lat="49.87748" lon="2.30564">
        <ele>63</ele>
        <time>2024-01-12T12:19:12Z</time>
      </trkpt>
      <trkpt lat="49.87747" lon="2.30564">
        <ele>62.9</ele>
        <time>2024-01-12T12:19:13Z</time>
      </trkpt>
      <trkpt lat="49.87746" lon="2.30564">
        <ele>62.9</ele>
        <time>2024-01-12T12:19:14Z</time>
      </trkpt>
      <trkpt lat="49.87745" lon="2.30565">
        <ele>62.9</ele>
        <time>2024-01-12T12:19:15Z</time>
      </trkpt>
      <trkpt lat="49.87744" lon="2.30565">
        <ele>62.8</ele>
        <time>2024-01-12T12:19:16Z</time>
      </trkpt>
      <trkpt lat="49.87743" lon="2.30565">
        <ele>62.8</ele>
        <time>2024-01-12T12:19:17Z</time>
      </trkpt>
      <trkpt lat="49.87742" lon="2.30565">
        <ele>62.8</ele>
        <time>2024-01-12T12:19:18Z</time>
      </trkpt>
      <trkpt lat="49.87741" lon="2.30565">
        <ele>62.7</ele>
        <time>2024-01-12T12:19:19Z</time>
      </trkpt>
      <trkpt lat="49.8774" lon="2.30565">
        <ele>62.7</ele>
        <time>2024-01-12T12:19:20Z</time>
      </trkpt>
      <trkpt lat="49.87739" lon="2.30565">
        <ele>62.7</ele>
        <time>2024-01-12T12:19:21Z</time>
      </trkpt>
      <trkpt lat="49.87737" lon="2.30565">
        <ele>62.7</ele>
        <time>2024-01-12T12:19:22Z</time>
      </trkpt>
      <trkpt lat="49.87736" lon="2.30565">
        <ele>62.6</ele>
        <time>2024-01-12T12:19:23Z</time>
      </trkpt>
      <trkpt lat="49.87735" lon="2.30565">
        <ele>62.6</ele>
        <time>2024-01-12T12:19:24Z</time>
      </trkpt>
      <trkpt lat="49.87734" lon="2.30566">
        <ele>62.6</ele>
        <time>2024-01-12T12:19:25Z</time>
      </trkpt>
      <trkpt lat="49.87733" lon="2.30566">
        <ele>62.6</ele>
        <time>2024-01-12T12:19:27Z</time>
      </trkpt>
      <trkpt lat="49.87733" lon="2.30567">
        <ele>62.5</ele>
        <time>2024-01-12T12:19:28Z</time>
      </trkpt>
      <trkpt lat="49.87732" lon="2.30567">
        <ele>62.5</ele>
        <time>2024-01-12T12:19:29Z</time>
      </trkpt>
      <trkpt lat="49.8773" lon="2.30568">
        <ele>62.5</ele>
        <time>2024-01-12T12:19:30Z</time>
      </trkpt>
      <trkpt lat="49.87728" lon="2.30568">
        <ele>62.4</ele>
        <time>2024-01-12T12:19:31Z</time>
      </trkpt>
      <trkpt lat="49.87727" lon="2.30569">
        <ele>62.4</ele>
        <time>2024-01-12T12:19:32Z</time>
      </trkpt>
      <trkpt lat="49.87726" lon="2.30569">
        <ele>62.4</ele>
        <time>2024-01-12T12:19:33Z</time>
      </trkpt>
      <trkpt lat="49.87725" lon="2.30569">
        <ele>62.3</ele>
        <time>2024-01-12T12:19:34Z</time>
      </trkpt>
      <trkpt lat="49.87723" lon="2.3057">
        <ele>62.3</ele>
        <time>2024-01-12T12:19:35Z</time>
      </trkpt>
      <trkpt lat="49.8772" lon="2.30571">
        <ele>62.2</ele>
        <time>2024-01-12T12:19:37Z</time>
      </trkpt>
      <trkpt lat="49.87719" lon="2.30571">
        <ele>62.2</ele>
        <time>2024-01-12T12:19:38Z</time>
      </trkpt>
      <trkpt lat="49.87717" lon="2.30572">
        <ele>62.2</ele>
        <time>2024-01-12T12:19:39Z</time>
      </trkpt>
      <trkpt lat="49.87716" lon="2.30572">
        <ele>62.2</ele>
        <time>2024-01-12T12:19:40Z</time>
      </trkpt>
      <trkpt lat="49.87715" lon="2.30573">
        <ele>62.1</ele>
        <time>2024-01-12T12:19:41Z</time>
      </trkpt>
      <trkpt lat="49.87714" lon="2.30574">
        <ele>62.1</ele>
        <time>2024-01-12T12:19:42Z</time>
      </trkpt>
      <trkpt lat="49.87713" lon="2.30574">
        <ele>62.1</ele>
        <time>2024-01-12T12:19:43Z</time>
      </trkpt>
      <trkpt lat="49.8771" lon="2.30575">
        <ele>62</ele>
        <time>2024-01-12T12:19:44Z</time>
      </trkpt>
      <trkpt lat="49.8771" lon="2.30576">
        <ele>62</ele>
        <time>2024-01-12T12:19:45Z</time>
      </trkpt>
      <trkpt lat="49.87709" lon="2.30577">
        <ele>62</ele>
        <time>2024-01-12T12:19:46Z</time>
      </trkpt>
      <trkpt lat="49.87707" lon="2.30577">
        <ele>62</ele>
        <time>2024-01-12T12:19:47Z</time>
      </trkpt>
      <trkpt lat="49.87706" lon="2.30578">
        <ele>61.9</ele>
        <time>2024-01-12T12:19:48Z</time>
      </trkpt>
      <trkpt lat="49.87704" lon="2.30578">
        <ele>61.9</ele>
        <time>2024-01-12T12:19:49Z</time>
      </trkpt>
      <trkpt lat="49.87703" lon="2.30579">
        <ele>61.9</ele>
        <time>2024-01-12T12:19:50Z</time>
      </trkpt>
      <trkpt lat="49.87702" lon="2.30579">
        <ele>61.8</ele>
        <time>2024-01-12T12:19:51Z</time>
      </trkpt>
      <trkpt lat="49.877" lon="2.3058">
        <ele>61.8</ele>
        <time>2024-01-12T12:19:52Z</time>
      </trkpt>
      <trkpt lat="49.87699" lon="2.3058">
        <ele>61.8</ele>
        <time>2024-01-12T12:19:53Z</time>
      </trkpt>
      <trkpt lat="49.87699" lon="2.3058">
        <ele>61.8</ele>
        <time>2024-01-12T12:19:54Z</time>
      </trkpt>
      <trkpt lat="49.87697" lon="2.30581">
        <ele>61.7</ele>
        <time>2024-01-12T12:19:55Z</time>
      </trkpt>
      <trkpt lat="49.87696" lon="2.30582">
        <ele>61.7</ele>
        <time>2024-01-12T12:19:56Z</time>
      </trkpt>
      <trkpt lat="49.87695" lon="2.30582">
        <ele>61.7</ele>
        <time>2024-01-12T12:19:57Z</time>
      </trkpt>
      <trkpt lat="49.87693" lon="2.30583">
        <ele>61.6</ele>
        <time>2024-01-12T12:19:58Z</time>
      </trkpt>
      <trkpt lat="49.87692" lon="2.30583">
        <ele>61.6</ele>
        <time>2024-01-12T12:19:59Z</time>
      </trkpt>
      <trkpt lat="49.87691" lon="2.30584">
        <ele>61.6</ele>
        <time>2024-01-12T12:20:00Z</time>
      </trkpt>
      <trkpt lat="49.8769" lon="2.30584">
        <ele>61.6</ele>
        <time>2024-01-12T12:20:01Z</time>
      </trkpt>
      <trkpt lat="49.87689" lon="2.30585">
        <ele>61.6</ele>
        <time>2024-01-12T12:20:02Z</time>
      </trkpt>
      <trkpt lat="49.87688" lon="2.30585">
        <ele>61.5</ele>
        <time>2024-01-12T12:20:03Z</time>
      </trkpt>
      <trkpt lat="49.87687" lon="2.30586">
        <ele>61.5</ele>
        <time>2024-01-12T12:20:04Z</time>
      </trkpt>
      <trkpt lat="49.87686" lon="2.30586">
        <ele>61.5</ele>
        <time>2024-01-12T12:20:05Z</time>
      </trkpt>
      <trkpt lat="49.87685" lon="2.30587">
        <ele>61.5</ele>
        <time>2024-01-12T12:20:06Z</time>
      </trkpt>
      <trkpt lat="49.87684" lon="2.30587">
        <ele>61.5</ele>
        <time>2024-01-12T12:20:07Z</time>
      </trkpt>
      <trkpt lat="49.87684" lon="2.30587">
        <ele>61.4</ele>
        <time>2024-01-12T12:20:08Z</time>
      </trkpt>
      <trkpt lat="49.87682" lon="2.30588">
        <ele>61.4</ele>
        <time>2024-01-12T12:20:09Z</time>
      </trkpt>
      <trkpt lat="49.87682" lon="2.30588">
        <ele>61.4</ele>
        <time>2024-01-12T12:20:10Z</time>
      </trkpt>
      <trkpt lat="49.87681" lon="2.30589">
        <ele>61.4</ele>
        <time>2024-01-12T12:20:11Z</time>
      </trkpt>
      <trkpt lat="49.8768" lon="2.30589">
        <ele>61.4</ele>
        <time>2024-01-12T12:20:12Z</time>
      </trkpt>
      <trkpt lat="49.87679" lon="2.30589">
        <ele>61.4</ele>
        <time>2024-01-12T12:20:13Z</time>
      </trkpt>
      <trkpt lat="49.87678" lon="2.3059">
        <ele>61.3</ele>
        <time>2024-01-12T12:20:14Z</time>
      </trkpt>
      <trkpt lat="49.87677" lon="2.3059">
        <ele>61.3</ele>
        <time>2024-01-12T12:20:15Z</time>
      </trkpt>
      <trkpt lat="49.87675" lon="2.3059">
        <ele>61.3</ele>
        <time>2024-01-12T12:20:16Z</time>
      </trkpt>
      <trkpt lat="49.87674" lon="2.3059">
        <ele>61.3</ele>
        <time>2024-01-12T12:20:17Z</time>
      </trkpt>
      <trkpt lat="49.87673" lon="2.30591">
        <ele>61.3</ele>
        <time>2024-01-12T12:20:18Z</time>
      </trkpt>
      <trkpt lat="49.87671" lon="2.30592">
        <ele>61.2</ele>
        <time>2024-01-12T12:20:19Z</time>
      </trkpt>
      <trkpt lat="49.8767" lon="2.30592">
        <ele>61.2</ele>
        <time>2024-01-12T12:20:20Z</time>
      </trkpt>
      <trkpt lat="49.87669" lon="2.30592">
        <ele>61.2</ele>
        <time>2024-01-12T12:20:21Z</time>
      </trkpt>
      <trkpt lat="49.87668" lon="2.30592">
        <ele>61.2</ele>
        <time>2024-01-12T12:20:22Z</time>
      </trkpt>
      <trkpt lat="49.87667" lon="2.30592">
        <ele>61.1</ele>
        <time>2024-01-12T12:20:23Z</time>
      </trkpt>
      <trkpt lat="49.87665" lon="2.30593">
        <ele>61.1</ele>
        <time>2024-01-12T12:20:24Z</time>
      </trkpt>
      <trkpt lat="49.87664" lon="2.30593">
        <ele>61.1</ele>
        <time>2024-01-12T12:20:25Z</time>
      </trkpt>
      <trkpt lat="49.87662" lon="2.30594">
        <ele>61.1</ele>
        <time>2024-01-12T12:20:26Z</time>
      </trkpt>
      <trkpt lat="49.87661" lon="2.30594">
        <ele>61.1</ele>
        <time>2024-01-12T12:20:27Z</time>
      </trkpt>
      <trkpt lat="49.8766" lon="2.30594">
        <ele>61</ele>
        <time>2024-01-12T12:20:28Z</time>
      </trkpt>
      <trkpt lat="49.87658" lon="2.30595">
        <ele>61</ele>
        <time>2024-01-12T12:20:29Z</time>
      </trkpt>
      <trkpt lat="49.87656" lon="2.30595">
        <ele>61</ele>
        <time>2024-01-12T12:20:30Z</time>
      </trkpt>
      <trkpt lat="49.87655" lon="2.30596">
        <ele>61</ele>
        <time>2024-01-12T12:20:31Z</time>
      </trkpt>
      <trkpt lat="49.87654" lon="2.30597">
        <ele>60.9</ele>
        <time>2024-01-12T12:20:32Z</time>
      </trkpt>
      <trkpt lat="49.87652" lon="2.30597">
        <ele>60.9</ele>
        <time>2024-01-12T12:20:33Z</time>
      </trkpt>
      <trkpt lat="49.8765" lon="2.30599">
        <ele>60.9</ele>
        <time>2024-01-12T12:20:34Z</time>
      </trkpt>
      <trkpt lat="49.8765" lon="2.306">
        <ele>60.9</ele>
        <time>2024-01-12T12:20:35Z</time>
      </trkpt>
      <trkpt lat="49.87649" lon="2.30601">
        <ele>60.9</ele>
        <time>2024-01-12T12:20:36Z</time>
      </trkpt>
      <trkpt lat="49.87648" lon="2.30602">
        <ele>60.9</ele>
        <time>2024-01-12T12:20:37Z</time>
      </trkpt>
      <trkpt lat="49.87647" lon="2.30603">
        <ele>60.8</ele>
        <time>2024-01-12T12:20:38Z</time>
      </trkpt>
      <trkpt lat="49.87646" lon="2.30603">
        <ele>60.8</ele>
        <time>2024-01-12T12:20:39Z</time>
      </trkpt>
      <trkpt lat="49.87645" lon="2.30604">
        <ele>60.8</ele>
        <time>2024-01-12T12:20:40Z</time>
      </trkpt>
      <trkpt lat="49.87644" lon="2.30604">
        <ele>60.8</ele>
        <time>2024-01-12T12:20:41Z</time>
      </trkpt>
      <trkpt lat="49.87643" lon="2.30605">
        <ele>60.8</ele>
        <time>2024-01-12T12:20:42Z</time>
      </trkpt>
      <trkpt lat="49.87642" lon="2.30605">
        <ele>60.8</ele>
        <time>2024-01-12T12:20:43Z</time>
      </trkpt>
      <trkpt lat="49.87641" lon="2.30606">
        <ele>60.8</ele>
        <time>2024-01-12T12:20:44Z</time>
      </trkpt>
      <trkpt lat="49.87639" lon="2.30606">
        <ele>60.8</ele>
        <time>2024-01-12T12:20:45Z</time>
      </trkpt>
      <trkpt lat="49.87638" lon="2.30606">
        <ele>60.7</ele>
        <time>2024-01-12T12:20:46Z</time>
      </trkpt>
      <trkpt lat="49.87637" lon="2.30606">
        <ele>60.7</ele>
        <time>2024-01-12T12:20:47Z</time>
      </trkpt>
      <trkpt lat="49.87636" lon="2.30606">
        <ele>60.7</ele>
        <time>2024-01-12T12:20:48Z</time>
      </trkpt>
      <trkpt lat="49.87634" lon="2.30606">
        <ele>60.7</ele>
        <time>2024-01-12T12:20:49Z</time>
      </trkpt>
      <trkpt lat="49.87633" lon="2.30607">
        <ele>60.7</ele>
        <time>2024-01-12T12:20:50Z</time>
      </trkpt>
      <trkpt lat="49.87632" lon="2.30607">
        <ele>60.7</ele>
        <time>2024-01-12T12:20:51Z</time>
      </trkpt>
      <trkpt lat="49.8763" lon="2.30607">
        <ele>60.7</ele>
        <time>2024-01-12T12:20:52Z</time>
      </trkpt>
      <trkpt lat="49.87629" lon="2.30607">
        <ele>60.7</ele>
        <time>2024-01-12T12:20:53Z</time>
      </trkpt>
      <trkpt lat="49.87628" lon="2.30608">
        <ele>60.6</ele>
        <time>2024-01-12T12:20:54Z</time>
      </trkpt>
      <trkpt lat="49.87626" lon="2.30608">
        <ele>60.6</ele>
        <time>2024-01-12T12:20:55Z</time>
      </trkpt>
      <trkpt lat="49.87625" lon="2.30608">
        <ele>60.6</ele>
        <time>2024-01-12T12:20:56Z</time>
      </trkpt>
      <trkpt lat="49.87625" lon="2.30608">
        <ele>60.6</ele>
        <time>2024-01-12T12:20:57Z</time>
      </trkpt>
      <trkpt lat="49.87623" lon="2.30608">
        <ele>60.6</ele>
        <time>2024-01-12T12:20:58Z</time>
      </trkpt>
      <trkpt lat="49.87622" lon="2.30608">
        <ele>60.6</ele>
        <time>2024-01-12T12:20:59Z</time>
      </trkpt>
      <trkpt lat="49.87621" lon="2.30608">
        <ele>60.6</ele>
        <time>2024-01-12T12:21:00Z</time>
      </trkpt>
      <trkpt lat="49.87619" lon="2.30607">
        <ele>60.6</ele>
        <time>2024-01-12T12:21:01Z</time>
      </trkpt>
      <trkpt lat="49.87618" lon="2.30607">
        <ele>60.5</ele>
        <time>2024-01-12T12:21:02Z</time>
      </trkpt>
      <trkpt lat="49.87617" lon="2.30607">
        <ele>60.5</ele>
        <time>2024-01-12T12:21:03Z</time>
      </trkpt>
      <trkpt lat="49.87616" lon="2.30607">
        <ele>60.5</ele>
        <time>2024-01-12T12:21:04Z</time>
      </trkpt>
      <trkpt lat="49.87615" lon="2.30607">
        <ele>60.5</ele>
        <time>2024-01-12T12:21:05Z</time>
      </trkpt>
      <trkpt lat="49.87614" lon="2.30607">
        <ele>60.5</ele>
        <time>2024-01-12T12:21:06Z</time>
      </trkpt>
      <trkpt lat="49.87612" lon="2.30608">
        <ele>60.5</ele>
        <time>2024-01-12T12:21:07Z</time>
      </trkpt>
      <trkpt lat="49.87611" lon="2.30608">
        <ele>60.5</ele>
        <time>2024-01-12T12:21:08Z</time>
      </trkpt>
      <trkpt lat="49.8761" lon="2.30608">
        <ele>60.5</ele>
        <time>2024-01-12T12:21:09Z</time>
      </trkpt>
      <trkpt lat="49.87609" lon="2.30608">
        <ele>60.5</ele>
        <time>2024-01-12T12:21:10Z</time>
      </trkpt>
      <trkpt lat="49.87608" lon="2.30608">
        <ele>60.4</ele>
        <time>2024-01-12T12:21:11Z</time>
      </trkpt>
      <trkpt lat="49.87607" lon="2.30608">
        <ele>60.4</ele>
        <time>2024-01-12T12:21:12Z</time>
      </trkpt>
      <trkpt lat="49.87606" lon="2.30609">
        <ele>60.4</ele>
        <time>2024-01-12T12:21:13Z</time>
      </trkpt>
      <trkpt lat="49.87605" lon="2.30609">
        <ele>60.4</ele>
        <time>2024-01-12T12:21:14Z</time>
      </trkpt>
      <trkpt lat="49.87604" lon="2.30609">
        <ele>60.4</ele>
        <time>2024-01-12T12:21:15Z</time>
      </trkpt>
      <trkpt lat="49.87603" lon="2.3061">
        <ele>60.4</ele>
        <time>2024-01-12T12:21:16Z</time>
      </trkpt>
      <trkpt lat="49.87602" lon="2.3061">
        <ele>60.4</ele>
        <time>2024-01-12T12:21:17Z</time>
      </trkpt>
      <trkpt lat="49.87601" lon="2.3061">
        <ele>60.4</ele>
        <time>2024-01-12T12:21:18Z</time>
      </trkpt>
      <trkpt lat="49.876" lon="2.30611">
        <ele>60.4</ele>
        <time>2024-01-12T12:21:19Z</time>
      </trkpt>
      <trkpt lat="49.87598" lon="2.30611">
        <ele>60.4</ele>
        <time>2024-01-12T12:21:20Z</time>
      </trkpt>
      <trkpt lat="49.87597" lon="2.30612">
        <ele>60.3</ele>
        <time>2024-01-12T12:21:21Z</time>
      </trkpt>
      <trkpt lat="49.87595" lon="2.30612">
        <ele>60.3</ele>
        <time>2024-01-12T12:21:22Z</time>
      </trkpt>
      <trkpt lat="49.87594" lon="2.30612">
        <ele>60.3</ele>
        <time>2024-01-12T12:21:23Z</time>
      </trkpt>
      <trkpt lat="49.87593" lon="2.30612">
        <ele>60.3</ele>
        <time>2024-01-12T12:21:24Z</time>
      </trkpt>
      <trkpt lat="49.87591" lon="2.30612">
        <ele>60.3</ele>
        <time>2024-01-12T12:21:25Z</time>
      </trkpt>
      <trkpt lat="49.8759" lon="2.30612">
        <ele>60.3</ele>
        <time>2024-01-12T12:21:26Z</time>
      </trkpt>
      <trkpt lat="49.87589" lon="2.30612">
        <ele>60.3</ele>
        <time>2024-01-12T12:21:27Z</time>
      </trkpt>
      <trkpt lat="49.87588" lon="2.30612">
        <ele>60.3</ele>
        <time>2024-01-12T12:21:28Z</time>
      </trkpt>
      <trkpt lat="49.87587" lon="2.30612">
        <ele>60.2</ele>
        <time>2024-01-12T12:21:29Z</time>
      </trkpt>
      <trkpt lat="49.87585" lon="2.30612">
        <ele>60.2</ele>
        <time>2024-01-12T12:21:30Z</time>
      </trkpt>
      <trkpt lat="49.87584" lon="2.30612">
        <ele>60.2</ele>
        <time>2024-01-12T12:21:31Z</time>
      </trkpt>
      <trkpt lat="49.87582" lon="2.30612">
        <ele>60.2</ele>
        <time>2024-01-12T12:21:32Z</time>
      </trkpt>
      <trkpt lat="49.87581" lon="2.30612">
        <ele>60.2</ele>
        <time>2024-01-12T12:21:33Z</time>
      </trkpt>
      <trkpt lat="49.8758" lon="2.30612">
        <ele>60.2</ele>
        <time>2024-01-12T12:21:34Z</time>
      </trkpt>
      <trkpt lat="49.87578" lon="2.30612">
        <ele>60.1</ele>
        <time>2024-01-12T12:21:35Z</time>
      </trkpt>
      <trkpt lat="49.87577" lon="2.30612">
        <ele>60.1</ele>
        <time>2024-01-12T12:21:36Z</time>
      </trkpt>
      <trkpt lat="49.87576" lon="2.30612">
        <ele>60.1</ele>
        <time>2024-01-12T12:21:37Z</time>
      </trkpt>
      <trkpt lat="49.87575" lon="2.30612">
        <ele>60.1</ele>
        <time>2024-01-12T12:21:38Z</time>
      </trkpt>
      <trkpt lat="49.87574" lon="2.30612">
        <ele>60.1</ele>
        <time>2024-01-12T12:21:39Z</time>
      </trkpt>
      <trkpt lat="49.87573" lon="2.30612">
        <ele>60.1</ele>
        <time>2024-01-12T12:21:40Z</time>
      </trkpt>
      <trkpt lat="49.87572" lon="2.30613">
        <ele>60.1</ele>
        <time>2024-01-12T12:21:41Z</time>
      </trkpt>
      <trkpt lat="49.87571" lon="2.30613">
        <ele>60.1</ele>
        <time>2024-01-12T12:21:42Z</time>
      </trkpt>
      <trkpt lat="49.87569" lon="2.30613">
        <ele>60.1</ele>
        <time>2024-01-12T12:21:43Z</time>
      </trkpt>
      <trkpt lat="49.87568" lon="2.30613">
        <ele>60</ele>
        <time>2024-01-12T12:21:44Z</time>
      </trkpt>
      <trkpt lat="49.87567" lon="2.30613">
        <ele>60</ele>
        <time>2024-01-12T12:21:45Z</time>
      </trkpt>
      <trkpt lat="49.87566" lon="2.30613">
        <ele>60</ele>
        <time>2024-01-12T12:21:46Z</time>
      </trkpt>
      <trkpt lat="49.87565" lon="2.30614">
        <ele>60</ele>
        <time>2024-01-12T12:21:47Z</time>
      </trkpt>
      <trkpt lat="49.87564" lon="2.30614">
        <ele>60</ele>
        <time>2024-01-12T12:21:48Z</time>
      </trkpt>
      <trkpt lat="49.87562" lon="2.30614">
        <ele>60</ele>
        <time>2024-01-12T12:21:49Z</time>
      </trkpt>
      <trkpt lat="49.8756" lon="2.30614">
        <ele>60</ele>
        <time>2024-01-12T12:21:50Z</time>
      </trkpt>
      <trkpt lat="49.8756" lon="2.30615">
        <ele>59.9</ele>
        <time>2024-01-12T12:21:51Z</time>
      </trkpt>
      <trkpt lat="49.87559" lon="2.30615">
        <ele>59.9</ele>
        <time>2024-01-12T12:21:52Z</time>
      </trkpt>
      <trkpt lat="49.87557" lon="2.30615">
        <ele>59.9</ele>
        <time>2024-01-12T12:21:53Z</time>
      </trkpt>
      <trkpt lat="49.87556" lon="2.30616">
        <ele>59.9</ele>
        <time>2024-01-12T12:21:54Z</time>
      </trkpt>
      <trkpt lat="49.87555" lon="2.30616">
        <ele>59.9</ele>
        <time>2024-01-12T12:21:55Z</time>
      </trkpt>
      <trkpt lat="49.87553" lon="2.30617">
        <ele>59.9</ele>
        <time>2024-01-12T12:21:56Z</time>
      </trkpt>
      <trkpt lat="49.87552" lon="2.30617">
        <ele>59.9</ele>
        <time>2024-01-12T12:21:57Z</time>
      </trkpt>
      <trkpt lat="49.87551" lon="2.30617">
        <ele>59.8</ele>
        <time>2024-01-12T12:21:58Z</time>
      </trkpt>
      <trkpt lat="49.8755" lon="2.30618">
        <ele>59.8</ele>
        <time>2024-01-12T12:21:59Z</time>
      </trkpt>
      <trkpt lat="49.87549" lon="2.30619">
        <ele>59.8</ele>
        <time>2024-01-12T12:22:00Z</time>
      </trkpt>
      <trkpt lat="49.87548" lon="2.3062">
        <ele>59.8</ele>
        <time>2024-01-12T12:22:01Z</time>
      </trkpt>
      <trkpt lat="49.87546" lon="2.30621">
        <ele>59.8</ele>
        <time>2024-01-12T12:22:02Z</time>
      </trkpt>
      <trkpt lat="49.87545" lon="2.30621">
        <ele>59.8</ele>
        <time>2024-01-12T12:22:03Z</time>
      </trkpt>
      <trkpt lat="49.87543" lon="2.30622">
        <ele>59.7</ele>
        <time>2024-01-12T12:22:04Z</time>
      </trkpt>
      <trkpt lat="49.87542" lon="2.30622">
        <ele>59.7</ele>
        <time>2024-01-12T12:22:05Z</time>
      </trkpt>
      <trkpt lat="49.87541" lon="2.30623">
        <ele>59.7</ele>
        <time>2024-01-12T12:22:06Z</time>
      </trkpt>
      <trkpt lat="49.87539" lon="2.30624">
        <ele>59.7</ele>
        <time>2024-01-12T12:22:07Z</time>
      </trkpt>
      <trkpt lat="49.87538" lon="2.30624">
        <ele>59.7</ele>
        <time>2024-01-12T12:22:08Z</time>
      </trkpt>
      <trkpt lat="49.87537" lon="2.30625">
        <ele>59.6</ele>
        <time>2024-01-12T12:22:09Z</time>
      </trkpt>
      <trkpt lat="49.87535" lon="2.30625">
        <ele>59.6</ele>
        <time>2024-01-12T12:22:10Z</time>
      </trkpt>
      <trkpt lat="49.87533" lon="2.30626">
        <ele>59.6</ele>
        <time>2024-01-12T12:22:11Z</time>
      </trkpt>
      <trkpt lat="49.87532" lon="2.30626">
        <ele>59.6</ele>
        <time>2024-01-12T12:22:12Z</time>
      </trkpt>
      <trkpt lat="49.87532" lon="2.30627">
        <ele>59.6</ele>
        <time>2024-01-12T12:22:13Z</time>
      </trkpt>
      <trkpt lat="49.87529" lon="2.30628">
        <ele>59.5</ele>
        <time>2024-01-12T12:22:14Z</time>
      </trkpt>
      <trkpt lat="49.87529" lon="2.30628">
        <ele>59.5</ele>
        <time>2024-01-12T12:22:15Z</time>
      </trkpt>
      <trkpt lat="49.87528" lon="2.30629">
        <ele>59.5</ele>
        <time>2024-01-12T12:22:16Z</time>
      </trkpt>
      <trkpt lat="49.87526" lon="2.30629">
        <ele>59.5</ele>
        <time>2024-01-12T12:22:17Z</time>
      </trkpt>
      <trkpt lat="49.87525" lon="2.3063">
        <ele>59.5</ele>
        <time>2024-01-12T12:22:18Z</time>
      </trkpt>
      <trkpt lat="49.87523" lon="2.3063">
        <ele>59.4</ele>
        <time>2024-01-12T12:22:19Z</time>
      </trkpt>
      <trkpt lat="49.87522" lon="2.30631">
        <ele>59.4</ele>
        <time>2024-01-12T12:22:20Z</time>
      </trkpt>
      <trkpt lat="49.87521" lon="2.30631">
        <ele>59.4</ele>
        <time>2024-01-12T12:22:21Z</time>
      </trkpt>
      <trkpt lat="49.87519" lon="2.30631">
        <ele>59.4</ele>
        <time>2024-01-12T12:22:22Z</time>
      </trkpt>
      <trkpt lat="49.87518" lon="2.30631">
        <ele>59.4</ele>
        <time>2024-01-12T12:22:23Z</time>
      </trkpt>
      <trkpt lat="49.87518" lon="2.30631">
        <ele>59.4</ele>
        <time>2024-01-12T12:22:24Z</time>
      </trkpt>
      <trkpt lat="49.87516" lon="2.30632">
        <ele>59.3</ele>
        <time>2024-01-12T12:22:25Z</time>
      </trkpt>
      <trkpt lat="49.87515" lon="2.30632">
        <ele>59.3</ele>
        <time>2024-01-12T12:22:26Z</time>
      </trkpt>
      <trkpt lat="49.87514" lon="2.30632">
        <ele>59.3</ele>
        <time>2024-01-12T12:22:27Z</time>
      </trkpt>
      <trkpt lat="49.87512" lon="2.30632">
        <ele>59.3</ele>
        <time>2024-01-12T12:22:28Z</time>
      </trkpt>
      <trkpt lat="49.87511" lon="2.30632">
        <ele>59.3</ele>
        <time>2024-01-12T12:22:29Z</time>
      </trkpt>
      <trkpt lat="49.8751" lon="2.30632">
        <ele>59.3</ele>
        <time>2024-01-12T12:22:30Z</time>
      </trkpt>
      <trkpt lat="49.87508" lon="2.30633">
        <ele>59.3</ele>
        <time>2024-01-12T12:22:31Z</time>
      </trkpt>
      <trkpt lat="49.87507" lon="2.30633">
        <ele>59.3</ele>
        <time>2024-01-12T12:22:32Z</time>
      </trkpt>
      <trkpt lat="49.87506" lon="2.30634">
        <ele>59.2</ele>
        <time>2024-01-12T12:22:33Z</time>
      </trkpt>
      <trkpt lat="49.87504" lon="2.30635">
        <ele>59.2</ele>
        <time>2024-01-12T12:22:34Z</time>
      </trkpt>
      <trkpt lat="49.87503" lon="2.30635">
        <ele>59.2</ele>
        <time>2024-01-12T12:22:35Z</time>
      </trkpt>
      <trkpt lat="49.87503" lon="2.30635">
        <ele>59.2</ele>
        <time>2024-01-12T12:22:36Z</time>
      </trkpt>
      <trkpt lat="49.87501" lon="2.30636">
        <ele>59.2</ele>
        <time>2024-01-12T12:22:37Z</time>
      </trkpt>
      <trkpt lat="49.875" lon="2.30636">
        <ele>59.2</ele>
        <time>2024-01-12T12:22:38Z</time>
      </trkpt>
      <trkpt lat="49.87498" lon="2.30637">
        <ele>59.2</ele>
        <time>2024-01-12T12:22:39Z</time>
      </trkpt>
      <trkpt lat="49.87497" lon="2.30638">
        <ele>59.1</ele>
        <time>2024-01-12T12:22:40Z</time>
      </trkpt>
      <trkpt lat="49.87496" lon="2.30638">
        <ele>59.1</ele>
        <time>2024-01-12T12:22:41Z</time>
      </trkpt>
      <trkpt lat="49.87494" lon="2.30639">
        <ele>59.1</ele>
        <time>2024-01-12T12:22:42Z</time>
      </trkpt>
      <trkpt lat="49.87493" lon="2.30639">
        <ele>59.1</ele>
        <time>2024-01-12T12:22:43Z</time>
      </trkpt>
      <trkpt lat="49.87492" lon="2.30639">
        <ele>59.1</ele>
        <time>2024-01-12T12:22:44Z</time>
      </trkpt>
      <trkpt lat="49.87492" lon="2.3064">
        <ele>59.1</ele>
        <time>2024-01-12T12:22:45Z</time>
      </trkpt>
      <trkpt lat="49.87491" lon="2.3064">
        <ele>59.1</ele>
        <time>2024-01-12T12:22:46Z</time>
      </trkpt>
      <trkpt lat="49.8749" lon="2.30641">
        <ele>59.1</ele>
        <time>2024-01-12T12:22:47Z</time>
      </trkpt>
      <trkpt lat="49.87489" lon="2.30641">
        <ele>59</ele>
        <time>2024-01-12T12:22:48Z</time>
      </trkpt>
      <trkpt lat="49.87487" lon="2.30642">
        <ele>59</ele>
        <time>2024-01-12T12:22:49Z</time>
      </trkpt>
      <trkpt lat="49.87486" lon="2.30642">
        <ele>59</ele>
        <time>2024-01-12T12:22:50Z</time>
      </trkpt>
      <trkpt lat="49.87485" lon="2.30642">
        <ele>59</ele>
        <time>2024-01-12T12:22:51Z</time>
      </trkpt>
      <trkpt lat="49.87484" lon="2.30642">
        <ele>59</ele>
        <time>2024-01-12T12:22:52Z</time>
      </trkpt>
      <trkpt lat="49.87482" lon="2.30643">
        <ele>59</ele>
        <time>2024-01-12T12:22:53Z</time>
      </trkpt>
      <trkpt lat="49.87481" lon="2.30643">
        <ele>59</ele>
        <time>2024-01-12T12:22:54Z</time>
      </trkpt>
      <trkpt lat="49.8748" lon="2.30643">
        <ele>59</ele>
        <time>2024-01-12T12:22:55Z</time>
      </trkpt>
      <trkpt lat="49.87478" lon="2.30643">
        <ele>59</ele>
        <time>2024-01-12T12:22:56Z</time>
      </trkpt>
      <trkpt lat="49.87477" lon="2.30643">
        <ele>58.9</ele>
        <time>2024-01-12T12:22:57Z</time>
      </trkpt>
      <trkpt lat="49.87477" lon="2.30643">
        <ele>58.9</ele>
        <time>2024-01-12T12:22:58Z</time>
      </trkpt>
      <trkpt lat="49.87474" lon="2.30643">
        <ele>58.9</ele>
        <time>2024-01-12T12:22:59Z</time>
      </trkpt>
      <trkpt lat="49.87474" lon="2.30643">
        <ele>58.9</ele>
        <time>2024-01-12T12:23:00Z</time>
      </trkpt>
      <trkpt lat="49.87473" lon="2.30643">
        <ele>58.9</ele>
        <time>2024-01-12T12:23:01Z</time>
      </trkpt>
      <trkpt lat="49.87471" lon="2.30644">
        <ele>58.9</ele>
        <time>2024-01-12T12:23:02Z</time>
      </trkpt>
      <trkpt lat="49.8747" lon="2.30644">
        <ele>58.9</ele>
        <time>2024-01-12T12:23:03Z</time>
      </trkpt>
      <trkpt lat="49.87469" lon="2.30644">
        <ele>58.9</ele>
        <time>2024-01-12T12:23:04Z</time>
      </trkpt>
      <trkpt lat="49.87467" lon="2.30644">
        <ele>58.9</ele>
        <time>2024-01-12T12:23:05Z</time>
      </trkpt>
      <trkpt lat="49.87466" lon="2.30644">
        <ele>58.9</ele>
        <time>2024-01-12T12:23:06Z</time>
      </trkpt>
      <trkpt lat="49.87465" lon="2.30644">
        <ele>58.9</ele>
        <time>2024-01-12T12:23:07Z</time>
      </trkpt>
      <trkpt lat="49.87463" lon="2.30643">
        <ele>58.9</ele>
        <time>2024-01-12T12:23:08Z</time>
      </trkpt>
      <trkpt lat="49.87462" lon="2.30643">
        <ele>58.9</ele>
        <time>2024-01-12T12:23:09Z</time>
      </trkpt>
      <trkpt lat="49.87462" lon="2.30643">
        <ele>58.9</ele>
        <time>2024-01-12T12:23:10Z</time>
      </trkpt>
      <trkpt lat="49.87459" lon="2.30644">
        <ele>58.8</ele>
        <time>2024-01-12T12:23:11Z</time>
      </trkpt>
      <trkpt lat="49.87458" lon="2.30644">
        <ele>58.8</ele>
        <time>2024-01-12T12:23:12Z</time>
      </trkpt>
      <trkpt lat="49.87458" lon="2.30644">
        <ele>58.8</ele>
        <time>2024-01-12T12:23:13Z</time>
      </trkpt>
      <trkpt lat="49.87456" lon="2.30645">
        <ele>58.8</ele>
        <time>2024-01-12T12:23:14Z</time>
      </trkpt>
      <trkpt lat="49.87455" lon="2.30646">
        <ele>58.8</ele>
        <time>2024-01-12T12:23:15Z</time>
      </trkpt>
      <trkpt lat="49.87453" lon="2.30646">
        <ele>58.8</ele>
        <time>2024-01-12T12:23:16Z</time>
      </trkpt>
      <trkpt lat="49.87452" lon="2.30647">
        <ele>58.8</ele>
        <time>2024-01-12T12:23:17Z</time>
      </trkpt>
      <trkpt lat="49.87449" lon="2.30649">
        <ele>58.8</ele>
        <time>2024-01-12T12:23:18Z</time>
      </trkpt>
      <trkpt lat="49.87448" lon="2.3065">
        <ele>58.8</ele>
        <time>2024-01-12T12:23:19Z</time>
      </trkpt>
      <trkpt lat="49.87446" lon="2.30651">
        <ele>58.8</ele>
        <time>2024-01-12T12:23:20Z</time>
      </trkpt>
      <trkpt lat="49.87445" lon="2.30652">
        <ele>58.8</ele>
        <time>2024-01-12T12:23:21Z</time>
      </trkpt>
      <trkpt lat="49.87443" lon="2.30653">
        <ele>58.8</ele>
        <time>2024-01-12T12:23:22Z</time>
      </trkpt>
      <trkpt lat="49.87442" lon="2.30654">
        <ele>58.8</ele>
        <time>2024-01-12T12:23:23Z</time>
      </trkpt>
      <trkpt lat="49.8744" lon="2.30655">
        <ele>58.7</ele>
        <time>2024-01-12T12:23:24Z</time>
      </trkpt>
      <trkpt lat="49.87439" lon="2.30656">
        <ele>58.7</ele>
        <time>2024-01-12T12:23:25Z</time>
      </trkpt>
      <trkpt lat="49.87437" lon="2.30657">
        <ele>58.7</ele>
        <time>2024-01-12T12:23:26Z</time>
      </trkpt>
      <trkpt lat="49.87436" lon="2.30657">
        <ele>58.7</ele>
        <time>2024-01-12T12:23:27Z</time>
      </trkpt>
      <trkpt lat="49.87434" lon="2.30658">
        <ele>58.7</ele>
        <time>2024-01-12T12:23:28Z</time>
      </trkpt>
      <trkpt lat="49.87433" lon="2.30659">
        <ele>58.7</ele>
        <time>2024-01-12T12:23:29Z</time>
      </trkpt>
      <trkpt lat="49.87432" lon="2.30659">
        <ele>58.7</ele>
        <time>2024-01-12T12:23:30Z</time>
      </trkpt>
      <trkpt lat="49.87431" lon="2.3066">
        <ele>58.7</ele>
        <time>2024-01-12T12:23:31Z</time>
      </trkpt>
      <trkpt lat="49.8743" lon="2.3066">
        <ele>58.7</ele>
        <time>2024-01-12T12:23:32Z</time>
      </trkpt>
      <trkpt lat="49.87429" lon="2.3066">
        <ele>58.7</ele>
        <time>2024-01-12T12:23:33Z</time>
      </trkpt>
      <trkpt lat="49.87428" lon="2.30661">
        <ele>58.7</ele>
        <time>2024-01-12T12:23:34Z</time>
      </trkpt>
      <trkpt lat="49.87427" lon="2.30661">
        <ele>58.8</ele>
        <time>2024-01-12T12:23:35Z</time>
      </trkpt>
      <trkpt lat="49.87427" lon="2.30662">
        <ele>58.8</ele>
        <time>2024-01-12T12:23:36Z</time>
      </trkpt>
      <trkpt lat="49.87426" lon="2.30662">
        <ele>58.8</ele>
        <time>2024-01-12T12:23:37Z</time>
      </trkpt>
      <trkpt lat="49.87425" lon="2.30662">
        <ele>58.8</ele>
        <time>2024-01-12T12:23:38Z</time>
      </trkpt>
      <trkpt lat="49.87424" lon="2.30663">
        <ele>58.8</ele>
        <time>2024-01-12T12:23:39Z</time>
      </trkpt>
      <trkpt lat="49.87424" lon="2.30663">
        <ele>58.8</ele>
        <time>2024-01-12T12:23:40Z</time>
      </trkpt>
      <trkpt lat="49.87423" lon="2.30663">
        <ele>58.8</ele>
        <time>2024-01-12T12:23:41Z</time>
      </trkpt>
      <trkpt lat="49.87422" lon="2.30663">
        <ele>58.8</ele>
        <time>2024-01-12T12:23:42Z</time>
      </trkpt>
      <trkpt lat="49.87422" lon="2.30663">
        <ele>58.8</ele>
        <time>2024-01-12T12:23:43Z</time>
      </trkpt>
      <trkpt lat="49.87421" lon="2.30663">
        <ele>58.8</ele>
        <time>2024-01-12T12:23:44Z</time>
      </trkpt>
      <trkpt lat="49.87421" lon="2.30663">
        <ele>58.8</ele>
        <time>2024-01-12T12:23:45Z</time>
      </trkpt>
      <trkpt lat="49.8742" lon="2.30663">
        <ele>58.8</ele>
        <time>2024-01-12T12:23:46Z</time>
      </trkpt>
      <trkpt lat="49.87419" lon="2.30663">
        <ele>58.8</ele>
        <time>2024-01-12T12:23:47Z</time>
      </trkpt>
      <trkpt lat="49.87419" lon="2.30663">
        <ele>58.8</ele>
        <time>2024-01-12T12:23:48Z</time>
      </trkpt>
      <trkpt lat="49.87418" lon="2.30663">
        <ele>58.8</ele>
        <time>2024-01-12T12:23:49Z</time>
      </trkpt>
      <trkpt lat="49.87417" lon="2.30663">
        <ele>58.8</ele>
        <time>2024-01-12T12:23:50Z</time>
      </trkpt>
      <trkpt lat="49.87415" lon="2.30664">
        <ele>58.8</ele>
        <time>2024-01-12T12:23:51Z</time>
      </trkpt>
      <trkpt lat="49.87414" lon="2.30664">
        <ele>58.8</ele>
        <time>2024-01-12T12:23:52Z</time>
      </trkpt>
      <trkpt lat="49.87414" lon="2.30664">
        <ele>58.8</ele>
        <time>2024-01-12T12:23:53Z</time>
      </trkpt>
      <trkpt lat="49.87412" lon="2.30665">
        <ele>58.8</ele>
        <time>2024-01-12T12:23:54Z</time>
      </trkpt>
      <trkpt lat="49.87411" lon="2.30665">
        <ele>58.8</ele>
        <time>2024-01-12T12:23:55Z</time>
      </trkpt>
      <trkpt lat="49.87409" lon="2.30666">
        <ele>58.8</ele>
        <time>2024-01-12T12:23:56Z</time>
      </trkpt>
      <trkpt lat="49.87408" lon="2.30666">
        <ele>58.8</ele>
        <time>2024-01-12T12:23:57Z</time>
      </trkpt>
      <trkpt lat="49.87406" lon="2.30666">
        <ele>58.8</ele>
        <time>2024-01-12T12:23:58Z</time>
      </trkpt>
      <trkpt lat="49.87405" lon="2.30667">
        <ele>58.8</ele>
        <time>2024-01-12T12:23:59Z</time>
      </trkpt>
      <trkpt lat="49.87404" lon="2.30667">
        <ele>58.8</ele>
        <time>2024-01-12T12:24:00Z</time>
      </trkpt>
      <trkpt lat="49.87402" lon="2.30667">
        <ele>58.8</ele>
        <time>2024-01-12T12:24:01Z</time>
      </trkpt>
      <trkpt lat="49.874" lon="2.30667">
        <ele>58.8</ele>
        <time>2024-01-12T12:24:02Z</time>
      </trkpt>
      <trkpt lat="49.87399" lon="2.30667">
        <ele>58.8</ele>
        <time>2024-01-12T12:24:03Z</time>
      </trkpt>
      <trkpt lat="49.87398" lon="2.30667">
        <ele>58.8</ele>
        <time>2024-01-12T12:24:04Z</time>
      </trkpt>
      <trkpt lat="49.87396" lon="2.30666">
        <ele>58.8</ele>
        <time>2024-01-12T12:24:05Z</time>
      </trkpt>
      <trkpt lat="49.87395" lon="2.30666">
        <ele>58.8</ele>
        <time>2024-01-12T12:24:06Z</time>
      </trkpt>
      <trkpt lat="49.87395" lon="2.30666">
        <ele>58.8</ele>
        <time>2024-01-12T12:24:07Z</time>
      </trkpt>
      <trkpt lat="49.87393" lon="2.30665">
        <ele>58.8</ele>
        <time>2024-01-12T12:24:08Z</time>
      </trkpt>
      <trkpt lat="49.87392" lon="2.30665">
        <ele>58.8</ele>
        <time>2024-01-12T12:24:09Z</time>
      </trkpt>
      <trkpt lat="49.87391" lon="2.30665">
        <ele>58.8</ele>
        <time>2024-01-12T12:24:10Z</time>
      </trkpt>
      <trkpt lat="49.87389" lon="2.30665">
        <ele>58.8</ele>
        <time>2024-01-12T12:24:11Z</time>
      </trkpt>
      <trkpt lat="49.87388" lon="2.30665">
        <ele>58.9</ele>
        <time>2024-01-12T12:24:12Z</time>
      </trkpt>
      <trkpt lat="49.87386" lon="2.30665">
        <ele>58.9</ele>
        <time>2024-01-12T12:24:13Z</time>
      </trkpt>
      <trkpt lat="49.87385" lon="2.30665">
        <ele>58.9</ele>
        <time>2024-01-12T12:24:14Z</time>
      </trkpt>
      <trkpt lat="49.87383" lon="2.30665">
        <ele>58.9</ele>
        <time>2024-01-12T12:24:15Z</time>
      </trkpt>
      <trkpt lat="49.87382" lon="2.30665">
        <ele>58.9</ele>
        <time>2024-01-12T12:24:16Z</time>
      </trkpt>
      <trkpt lat="49.8738" lon="2.30665">
        <ele>58.9</ele>
        <time>2024-01-12T12:24:17Z</time>
      </trkpt>
      <trkpt lat="49.87379" lon="2.30665">
        <ele>58.9</ele>
        <time>2024-01-12T12:24:18Z</time>
      </trkpt>
      <trkpt lat="49.87377" lon="2.30665">
        <ele>58.9</ele>
        <time>2024-01-12T12:24:19Z</time>
      </trkpt>
      <trkpt lat="49.87376" lon="2.30665">
        <ele>58.9</ele>
        <time>2024-01-12T12:24:20Z</time>
      </trkpt>
      <trkpt lat="49.87375" lon="2.30665">
        <ele>58.9</ele>
        <time>2024-01-12T12:24:21Z</time>
      </trkpt>
      <trkpt lat="49.87374" lon="2.30665">
        <ele>58.9</ele>
        <time>2024-01-12T12:24:22Z</time>
      </trkpt>
      <trkpt lat="49.87372" lon="2.30665">
        <ele>58.9</ele>
        <time>2024-01-12T12:24:23Z</time>
      </trkpt>
      <trkpt lat="49.87371" lon="2.30665">
        <ele>58.9</ele>
        <time>2024-01-12T12:24:24Z</time>
      </trkpt>
      <trkpt lat="49.8737" lon="2.30665">
        <ele>58.9</ele>
        <time>2024-01-12T12:24:25Z</time>
      </trkpt>
      <trkpt lat="49.87369" lon="2.30665">
        <ele>58.9</ele>
        <time>2024-01-12T12:24:26Z</time>
      </trkpt>
      <trkpt lat="49.87368" lon="2.30665">
        <ele>58.9</ele>
        <time>2024-01-12T12:24:27Z</time>
      </trkpt>
      <trkpt lat="49.87367" lon="2.30665">
        <ele>59</ele>
        <time>2024-01-12T12:24:28Z</time>
      </trkpt>
      <trkpt lat="49.87366" lon="2.30665">
        <ele>59</ele>
        <time>2024-01-12T12:24:29Z</time>
      </trkpt>
      <trkpt lat="49.87365" lon="2.30664">
        <ele>59</ele>
        <time>2024-01-12T12:24:30Z</time>
      </trkpt>
      <trkpt lat="49.87363" lon="2.30664">
        <ele>59</ele>
        <time>2024-01-12T12:24:31Z</time>
      </trkpt>
      <trkpt lat="49.87362" lon="2.30664">
        <ele>59</ele>
        <time>2024-01-12T12:24:32Z</time>
      </trkpt>
      <trkpt lat="49.87361" lon="2.30665">
        <ele>59</ele>
        <time>2024-01-12T12:24:33Z</time>
      </trkpt>
      <trkpt lat="49.8736" lon="2.30665">
        <ele>59</ele>
        <time>2024-01-12T12:24:34Z</time>
      </trkpt>
      <trkpt lat="49.87359" lon="2.30665">
        <ele>59</ele>
        <time>2024-01-12T12:24:35Z</time>
      </trkpt>
      <trkpt lat="49.87358" lon="2.30665">
        <ele>59</ele>
        <time>2024-01-12T12:24:36Z</time>
      </trkpt>
      <trkpt lat="49.87357" lon="2.30665">
        <ele>59</ele>
        <time>2024-01-12T12:24:37Z</time>
      </trkpt>
      <trkpt lat="49.87356" lon="2.30665">
        <ele>59</ele>
        <time>2024-01-12T12:24:38Z</time>
      </trkpt>
      <trkpt lat="49.87354" lon="2.30665">
        <ele>59</ele>
        <time>2024-01-12T12:24:39Z</time>
      </trkpt>
      <trkpt lat="49.87353" lon="2.30665">
        <ele>59</ele>
        <time>2024-01-12T12:24:40Z</time>
      </trkpt>
      <trkpt lat="49.87352" lon="2.30665">
        <ele>59</ele>
        <time>2024-01-12T12:24:41Z</time>
      </trkpt>
      <trkpt lat="49.87351" lon="2.30665">
        <ele>59</ele>
        <time>2024-01-12T12:24:42Z</time>
      </trkpt>
      <trkpt lat="49.8735" lon="2.30664">
        <ele>59</ele>
        <time>2024-01-12T12:24:43Z</time>
      </trkpt>
      <trkpt lat="49.87349" lon="2.30664">
        <ele>59</ele>
        <time>2024-01-12T12:24:44Z</time>
      </trkpt>
      <trkpt lat="49.87348" lon="2.30664">
        <ele>59</ele>
        <time>2024-01-12T12:24:45Z</time>
      </trkpt>
      <trkpt lat="49.87347" lon="2.30664">
        <ele>59</ele>
        <time>2024-01-12T12:24:46Z</time>
      </trkpt>
      <trkpt lat="49.87346" lon="2.30664">
        <ele>59</ele>
        <time>2024-01-12T12:24:47Z</time>
      </trkpt>
      <trkpt lat="49.87345" lon="2.30664">
        <ele>59</ele>
        <time>2024-01-12T12:24:48Z</time>
      </trkpt>
      <trkpt lat="49.87344" lon="2.30664">
        <ele>59</ele>
        <time>2024-01-12T12:24:49Z</time>
      </trkpt>
      <trkpt lat="49.87343" lon="2.30664">
        <ele>59.1</ele>
        <time>2024-01-12T12:24:50Z</time>
      </trkpt>
      <trkpt lat="49.87342" lon="2.30664">
        <ele>59.1</ele>
        <time>2024-01-12T12:24:51Z</time>
      </trkpt>
      <trkpt lat="49.87341" lon="2.30665">
        <ele>59.1</ele>
        <time>2024-01-12T12:24:52Z</time>
      </trkpt>
      <trkpt lat="49.8734" lon="2.30665">
        <ele>59.1</ele>
        <time>2024-01-12T12:24:53Z</time>
      </trkpt>
      <trkpt lat="49.87338" lon="2.30665">
        <ele>59.1</ele>
        <time>2024-01-12T12:24:54Z</time>
      </trkpt>
      <trkpt lat="49.87337" lon="2.30665">
        <ele>59.1</ele>
        <time>2024-01-12T12:24:55Z</time>
      </trkpt>
      <trkpt lat="49.87336" lon="2.30665">
        <ele>59.1</ele>
        <time>2024-01-12T12:24:56Z</time>
      </trkpt>
      <trkpt lat="49.87334" lon="2.30665">
        <ele>59.1</ele>
        <time>2024-01-12T12:24:57Z</time>
      </trkpt>
      <trkpt lat="49.87333" lon="2.30666">
        <ele>59.1</ele>
        <time>2024-01-12T12:24:58Z</time>
      </trkpt>
      <trkpt lat="49.87332" lon="2.30666">
        <ele>59.1</ele>
        <time>2024-01-12T12:24:59Z</time>
      </trkpt>
      <trkpt lat="49.8733" lon="2.30666">
        <ele>59.1</ele>
        <time>2024-01-12T12:25:00Z</time>
      </trkpt>
      <trkpt lat="49.87329" lon="2.30667">
        <ele>59.1</ele>
        <time>2024-01-12T12:25:01Z</time>
      </trkpt>
      <trkpt lat="49.87327" lon="2.30667">
        <ele>59.1</ele>
        <time>2024-01-12T12:25:02Z</time>
      </trkpt>
      <trkpt lat="49.87326" lon="2.30668">
        <ele>59.1</ele>
        <time>2024-01-12T12:25:03Z</time>
      </trkpt>
      <trkpt lat="49.87324" lon="2.30668">
        <ele>59.1</ele>
        <time>2024-01-12T12:25:04Z</time>
      </trkpt>
      <trkpt lat="49.87322" lon="2.30668">
        <ele>59.1</ele>
        <time>2024-01-12T12:25:05Z</time>
      </trkpt>
      <trkpt lat="49.87322" lon="2.30668">
        <ele>59.1</ele>
        <time>2024-01-12T12:25:06Z</time>
      </trkpt>
      <trkpt lat="49.87321" lon="2.30668">
        <ele>59.1</ele>
        <time>2024-01-12T12:25:07Z</time>
      </trkpt>
      <trkpt lat="49.87319" lon="2.30669">
        <ele>59.2</ele>
        <time>2024-01-12T12:25:08Z</time>
      </trkpt>
      <trkpt lat="49.87318" lon="2.30669">
        <ele>59.2</ele>
        <time>2024-01-12T12:25:09Z</time>
      </trkpt>
      <trkpt lat="49.87317" lon="2.30669">
        <ele>59.2</ele>
        <time>2024-01-12T12:25:10Z</time>
      </trkpt>
      <trkpt lat="49.87315" lon="2.3067">
        <ele>59.2</ele>
        <time>2024-01-12T12:25:11Z</time>
      </trkpt>
      <trkpt lat="49.87314" lon="2.3067">
        <ele>59.2</ele>
        <time>2024-01-12T12:25:12Z</time>
      </trkpt>
      <trkpt lat="49.87313" lon="2.3067">
        <ele>59.2</ele>
        <time>2024-01-12T12:25:13Z</time>
      </trkpt>
      <trkpt lat="49.87311" lon="2.3067">
        <ele>59.2</ele>
        <time>2024-01-12T12:25:14Z</time>
      </trkpt>
      <trkpt lat="49.8731" lon="2.30671">
        <ele>59.2</ele>
        <time>2024-01-12T12:25:15Z</time>
      </trkpt>
      <trkpt lat="49.87309" lon="2.30671">
        <ele>59.2</ele>
        <time>2024-01-12T12:25:16Z</time>
      </trkpt>
      <trkpt lat="49.87307" lon="2.30671">
        <ele>59.2</ele>
        <time>2024-01-12T12:25:17Z</time>
      </trkpt>
      <trkpt lat="49.87306" lon="2.30672">
        <ele>59.2</ele>
        <time>2024-01-12T12:25:18Z</time>
      </trkpt>
      <trkpt lat="49.87305" lon="2.30672">
        <ele>59.2</ele>
        <time>2024-01-12T12:25:19Z</time>
      </trkpt>
      <trkpt lat="49.87303" lon="2.30672">
        <ele>59.2</ele>
        <time>2024-01-12T12:25:20Z</time>
      </trkpt>
      <trkpt lat="49.87302" lon="2.30672">
        <ele>59.2</ele>
        <time>2024-01-12T12:25:21Z</time>
      </trkpt>
      <trkpt lat="49.87301" lon="2.30673">
        <ele>59.2</ele>
        <time>2024-01-12T12:25:22Z</time>
      </trkpt>
      <trkpt lat="49.873" lon="2.30673">
        <ele>59.2</ele>
        <time>2024-01-12T12:25:23Z</time>
      </trkpt>
      <trkpt lat="49.87299" lon="2.30673">
        <ele>59.2</ele>
        <time>2024-01-12T12:25:24Z</time>
      </trkpt>
      <trkpt lat="49.87298" lon="2.30673">
        <ele>59.2</ele>
        <time>2024-01-12T12:25:25Z</time>
      </trkpt>
      <trkpt lat="49.87297" lon="2.30673">
        <ele>59.3</ele>
        <time>2024-01-12T12:25:26Z</time>
      </trkpt>
      <trkpt lat="49.87296" lon="2.30673">
        <ele>59.3</ele>
        <time>2024-01-12T12:25:27Z</time>
      </trkpt>
      <trkpt lat="49.87295" lon="2.30674">
        <ele>59.3</ele>
        <time>2024-01-12T12:25:28Z</time>
      </trkpt>
      <trkpt lat="49.87294" lon="2.30674">
        <ele>59.3</ele>
        <time>2024-01-12T12:25:29Z</time>
      </trkpt>
      <trkpt lat="49.87292" lon="2.30674">
        <ele>59.3</ele>
        <time>2024-01-12T12:25:30Z</time>
      </trkpt>
      <trkpt lat="49.87291" lon="2.30674">
        <ele>59.3</ele>
        <time>2024-01-12T12:25:31Z</time>
      </trkpt>
      <trkpt lat="49.87289" lon="2.30674">
        <ele>59.3</ele>
        <time>2024-01-12T12:25:32Z</time>
      </trkpt>
      <trkpt lat="49.87288" lon="2.30674">
        <ele>59.3</ele>
        <time>2024-01-12T12:25:33Z</time>
      </trkpt>
      <trkpt lat="49.87287" lon="2.30673">
        <ele>59.3</ele>
        <time>2024-01-12T12:25:34Z</time>
      </trkpt>
      <trkpt lat="49.87286" lon="2.30674">
        <ele>59.3</ele>
        <time>2024-01-12T12:25:35Z</time>
      </trkpt>
      <trkpt lat="49.87285" lon="2.30674">
        <ele>59.3</ele>
        <time>2024-01-12T12:25:36Z</time>
      </trkpt>
      <trkpt lat="49.87283" lon="2.30674">
        <ele>59.3</ele>
        <time>2024-01-12T12:25:37Z</time>
      </trkpt>
      <trkpt lat="49.87282" lon="2.30674">
        <ele>59.3</ele>
        <time>2024-01-12T12:25:38Z</time>
      </trkpt>
      <trkpt lat="49.8728" lon="2.30674">
        <ele>59.3</ele>
        <time>2024-01-12T12:25:39Z</time>
      </trkpt>
      <trkpt lat="49.87279" lon="2.30674">
        <ele>59.3</ele>
        <time>2024-01-12T12:25:40Z</time>
      </trkpt>
      <trkpt lat="49.87278" lon="2.30675">
        <ele>59.4</ele>
        <time>2024-01-12T12:25:41Z</time>
      </trkpt>
      <trkpt lat="49.87276" lon="2.30675">
        <ele>59.4</ele>
        <time>2024-01-12T12:25:42Z</time>
      </trkpt>
      <trkpt lat="49.87275" lon="2.30675">
        <ele>59.4</ele>
        <time>2024-01-12T12:25:43Z</time>
      </trkpt>
      <trkpt lat="49.87273" lon="2.30676">
        <ele>59.4</ele>
        <time>2024-01-12T12:25:44Z</time>
      </trkpt>
      <trkpt lat="49.87272" lon="2.30676">
        <ele>59.4</ele>
        <time>2024-01-12T12:25:45Z</time>
      </trkpt>
      <trkpt lat="49.8727" lon="2.30676">
        <ele>59.4</ele>
        <time>2024-01-12T12:25:46Z</time>
      </trkpt>
      <trkpt lat="49.87268" lon="2.30676">
        <ele>59.4</ele>
        <time>2024-01-12T12:25:47Z</time>
      </trkpt>
      <trkpt lat="49.87267" lon="2.30676">
        <ele>59.4</ele>
        <time>2024-01-12T12:25:48Z</time>
      </trkpt>
      <trkpt lat="49.87266" lon="2.30676">
        <ele>59.4</ele>
        <time>2024-01-12T12:25:49Z</time>
      </trkpt>
      <trkpt lat="49.87265" lon="2.30676">
        <ele>59.4</ele>
        <time>2024-01-12T12:25:50Z</time>
      </trkpt>
      <trkpt lat="49.87264" lon="2.30676">
        <ele>59.4</ele>
        <time>2024-01-12T12:25:51Z</time>
      </trkpt>
      <trkpt lat="49.87263" lon="2.30676">
        <ele>59.4</ele>
        <time>2024-01-12T12:25:52Z</time>
      </trkpt>
      <trkpt lat="49.87261" lon="2.30676">
        <ele>59.5</ele>
        <time>2024-01-12T12:25:53Z</time>
      </trkpt>
      <trkpt lat="49.8726" lon="2.30676">
        <ele>59.5</ele>
        <time>2024-01-12T12:25:54Z</time>
      </trkpt>
      <trkpt lat="49.87259" lon="2.30677">
        <ele>59.5</ele>
        <time>2024-01-12T12:25:55Z</time>
      </trkpt>
      <trkpt lat="49.87257" lon="2.30677">
        <ele>59.5</ele>
        <time>2024-01-12T12:25:56Z</time>
      </trkpt>
      <trkpt lat="49.87256" lon="2.30677">
        <ele>59.5</ele>
        <time>2024-01-12T12:25:57Z</time>
      </trkpt>
      <trkpt lat="49.87255" lon="2.30677">
        <ele>59.5</ele>
        <time>2024-01-12T12:25:58Z</time>
      </trkpt>
      <trkpt lat="49.87253" lon="2.30678">
        <ele>59.5</ele>
        <time>2024-01-12T12:25:59Z</time>
      </trkpt>
      <trkpt lat="49.87252" lon="2.30678">
        <ele>59.5</ele>
        <time>2024-01-12T12:26:00Z</time>
      </trkpt>
      <trkpt lat="49.87251" lon="2.30678">
        <ele>59.6</ele>
        <time>2024-01-12T12:26:01Z</time>
      </trkpt>
      <trkpt lat="49.87249" lon="2.30679">
        <ele>59.6</ele>
        <time>2024-01-12T12:26:02Z</time>
      </trkpt>
      <trkpt lat="49.87248" lon="2.30679">
        <ele>59.6</ele>
        <time>2024-01-12T12:26:03Z</time>
      </trkpt>
      <trkpt lat="49.87248" lon="2.30679">
        <ele>59.6</ele>
        <time>2024-01-12T12:26:04Z</time>
      </trkpt>
      <trkpt lat="49.87245" lon="2.30679">
        <ele>59.6</ele>
        <time>2024-01-12T12:26:05Z</time>
      </trkpt>
      <trkpt lat="49.87245" lon="2.30679">
        <ele>59.6</ele>
        <time>2024-01-12T12:26:06Z</time>
      </trkpt>
      <trkpt lat="49.87244" lon="2.30679">
        <ele>59.7</ele>
        <time>2024-01-12T12:26:07Z</time>
      </trkpt>
      <trkpt lat="49.87242" lon="2.30678">
        <ele>59.7</ele>
        <time>2024-01-12T12:26:08Z</time>
      </trkpt>
      <trkpt lat="49.87241" lon="2.30678">
        <ele>59.7</ele>
        <time>2024-01-12T12:26:09Z</time>
      </trkpt>
      <trkpt lat="49.8724" lon="2.30678">
        <ele>59.7</ele>
        <time>2024-01-12T12:26:10Z</time>
      </trkpt>
      <trkpt lat="49.87239" lon="2.30678">
        <ele>59.7</ele>
        <time>2024-01-12T12:26:11Z</time>
      </trkpt>
      <trkpt lat="49.87238" lon="2.30678">
        <ele>59.7</ele>
        <time>2024-01-12T12:26:12Z</time>
      </trkpt>
      <trkpt lat="49.87237" lon="2.30678">
        <ele>59.8</ele>
        <time>2024-01-12T12:26:13Z</time>
      </trkpt>
      <trkpt lat="49.87236" lon="2.30678">
        <ele>59.8</ele>
        <time>2024-01-12T12:26:14Z</time>
      </trkpt>
      <trkpt lat="49.87235" lon="2.30679">
        <ele>59.8</ele>
        <time>2024-01-12T12:26:15Z</time>
      </trkpt>
      <trkpt lat="49.87234" lon="2.30679">
        <ele>59.8</ele>
        <time>2024-01-12T12:26:16Z</time>
      </trkpt>
      <trkpt lat="49.87233" lon="2.30679">
        <ele>59.8</ele>
        <time>2024-01-12T12:26:17Z</time>
      </trkpt>
      <trkpt lat="49.87232" lon="2.30679">
        <ele>59.8</ele>
        <time>2024-01-12T12:26:18Z</time>
      </trkpt>
      <trkpt lat="49.87231" lon="2.30679">
        <ele>59.8</ele>
        <time>2024-01-12T12:26:19Z</time>
      </trkpt>
      <trkpt lat="49.8723" lon="2.30679">
        <ele>59.9</ele>
        <time>2024-01-12T12:26:20Z</time>
      </trkpt>
      <trkpt lat="49.87229" lon="2.30679">
        <ele>59.9</ele>
        <time>2024-01-12T12:26:21Z</time>
      </trkpt>
      <trkpt lat="49.87228" lon="2.30679">
        <ele>59.9</ele>
        <time>2024-01-12T12:26:22Z</time>
      </trkpt>
      <trkpt lat="49.87227" lon="2.3068">
        <ele>59.9</ele>
        <time>2024-01-12T12:26:23Z</time>
      </trkpt>
      <trkpt lat="49.87226" lon="2.3068">
        <ele>59.9</ele>
        <time>2024-01-12T12:26:24Z</time>
      </trkpt>
      <trkpt lat="49.87225" lon="2.3068">
        <ele>59.9</ele>
        <time>2024-01-12T12:26:25Z</time>
      </trkpt>
      <trkpt lat="49.87225" lon="2.30681">
        <ele>59.9</ele>
        <time>2024-01-12T12:26:26Z</time>
      </trkpt>
      <trkpt lat="49.87224" lon="2.30681">
        <ele>60</ele>
        <time>2024-01-12T12:26:27Z</time>
      </trkpt>
      <trkpt lat="49.87223" lon="2.30681">
        <ele>60</ele>
        <time>2024-01-12T12:26:28Z</time>
      </trkpt>
      <trkpt lat="49.87222" lon="2.30682">
        <ele>60</ele>
        <time>2024-01-12T12:26:29Z</time>
      </trkpt>
      <trkpt lat="49.87221" lon="2.30682">
        <ele>60</ele>
        <time>2024-01-12T12:26:30Z</time>
      </trkpt>
      <trkpt lat="49.8722" lon="2.30682">
        <ele>60</ele>
        <time>2024-01-12T12:26:31Z</time>
      </trkpt>
      <trkpt lat="49.87219" lon="2.30682">
        <ele>60</ele>
        <time>2024-01-12T12:26:32Z</time>
      </trkpt>
      <trkpt lat="49.87217" lon="2.30683">
        <ele>60.1</ele>
        <time>2024-01-12T12:26:33Z</time>
      </trkpt>
      <trkpt lat="49.87216" lon="2.30683">
        <ele>60.1</ele>
        <time>2024-01-12T12:26:34Z</time>
      </trkpt>
      <trkpt lat="49.87216" lon="2.30683">
        <ele>60.1</ele>
        <time>2024-01-12T12:26:35Z</time>
      </trkpt>
      <trkpt lat="49.87214" lon="2.30683">
        <ele>60.1</ele>
        <time>2024-01-12T12:26:36Z</time>
      </trkpt>
      <trkpt lat="49.87213" lon="2.30683">
        <ele>60.1</ele>
        <time>2024-01-12T12:26:37Z</time>
      </trkpt>
      <trkpt lat="49.87212" lon="2.30683">
        <ele>60.1</ele>
        <time>2024-01-12T12:26:38Z</time>
      </trkpt>
      <trkpt lat="49.8721" lon="2.30684">
        <ele>60.2</ele>
        <time>2024-01-12T12:26:39Z</time>
      </trkpt>
      <trkpt lat="49.87209" lon="2.30684">
        <ele>60.2</ele>
        <time>2024-01-12T12:26:40Z</time>
      </trkpt>
      <trkpt lat="49.87208" lon="2.30684">
        <ele>60.2</ele>
        <time>2024-01-12T12:26:41Z</time>
      </trkpt>
      <trkpt lat="49.87207" lon="2.30684">
        <ele>60.2</ele>
        <time>2024-01-12T12:26:42Z</time>
      </trkpt>
      <trkpt lat="49.87205" lon="2.30684">
        <ele>60.3</ele>
        <time>2024-01-12T12:26:43Z</time>
      </trkpt>
      <trkpt lat="49.87204" lon="2.30684">
        <ele>60.3</ele>
        <time>2024-01-12T12:26:44Z</time>
      </trkpt>
      <trkpt lat="49.87202" lon="2.30684">
        <ele>60.3</ele>
        <time>2024-01-12T12:26:45Z</time>
      </trkpt>
      <trkpt lat="49.87201" lon="2.30684">
        <ele>60.3</ele>
        <time>2024-01-12T12:26:46Z</time>
      </trkpt>
      <trkpt lat="49.87199" lon="2.30684">
        <ele>60.4</ele>
        <time>2024-01-12T12:26:47Z</time>
      </trkpt>
      <trkpt lat="49.87197" lon="2.30684">
        <ele>60.4</ele>
        <time>2024-01-12T12:26:48Z</time>
      </trkpt>
      <trkpt lat="49.87196" lon="2.30684">
        <ele>60.4</ele>
        <time>2024-01-12T12:26:49Z</time>
      </trkpt>
      <trkpt lat="49.87194" lon="2.30684">
        <ele>60.5</ele>
        <time>2024-01-12T12:26:50Z</time>
      </trkpt>
      <trkpt lat="49.87193" lon="2.30685">
        <ele>60.5</ele>
        <time>2024-01-12T12:26:51Z</time>
      </trkpt>
      <trkpt lat="49.87192" lon="2.30685">
        <ele>60.5</ele>
        <time>2024-01-12T12:26:52Z</time>
      </trkpt>
      <trkpt lat="49.87191" lon="2.30685">
        <ele>60.5</ele>
        <time>2024-01-12T12:26:53Z</time>
      </trkpt>
      <trkpt lat="49.87189" lon="2.30685">
        <ele>60.5</ele>
        <time>2024-01-12T12:26:54Z</time>
      </trkpt>
      <trkpt lat="49.87188" lon="2.30685">
        <ele>60.5</ele>
        <time>2024-01-12T12:26:55Z</time>
      </trkpt>
      <trkpt lat="49.87187" lon="2.30685">
        <ele>60.6</ele>
        <time>2024-01-12T12:26:56Z</time>
      </trkpt>
      <trkpt lat="49.87185" lon="2.30686">
        <ele>60.6</ele>
        <time>2024-01-12T12:26:57Z</time>
      </trkpt>
      <trkpt lat="49.87184" lon="2.30686">
        <ele>60.6</ele>
        <time>2024-01-12T12:26:58Z</time>
      </trkpt>
      <trkpt lat="49.87183" lon="2.30686">
        <ele>60.6</ele>
        <time>2024-01-12T12:26:59Z</time>
      </trkpt>
      <trkpt lat="49.87181" lon="2.30687">
        <ele>60.6</ele>
        <time>2024-01-12T12:27:00Z</time>
      </trkpt>
      <trkpt lat="49.87179" lon="2.30688">
        <ele>60.7</ele>
        <time>2024-01-12T12:27:01Z</time>
      </trkpt>
      <trkpt lat="49.87179" lon="2.30688">
        <ele>60.7</ele>
        <time>2024-01-12T12:27:02Z</time>
      </trkpt>
      <trkpt lat="49.87178" lon="2.30688">
        <ele>60.7</ele>
        <time>2024-01-12T12:27:03Z</time>
      </trkpt>
      <trkpt lat="49.87177" lon="2.30689">
        <ele>60.7</ele>
        <time>2024-01-12T12:27:04Z</time>
      </trkpt>
      <trkpt lat="49.87176" lon="2.3069">
        <ele>60.7</ele>
        <time>2024-01-12T12:27:05Z</time>
      </trkpt>
      <trkpt lat="49.87175" lon="2.3069">
        <ele>60.8</ele>
        <time>2024-01-12T12:27:06Z</time>
      </trkpt>
      <trkpt lat="49.87174" lon="2.3069">
        <ele>60.8</ele>
        <time>2024-01-12T12:27:07Z</time>
      </trkpt>
      <trkpt lat="49.87173" lon="2.30691">
        <ele>60.8</ele>
        <time>2024-01-12T12:27:08Z</time>
      </trkpt>
      <trkpt lat="49.87171" lon="2.30691">
        <ele>60.8</ele>
        <time>2024-01-12T12:27:09Z</time>
      </trkpt>
      <trkpt lat="49.8717" lon="2.30692">
        <ele>60.8</ele>
        <time>2024-01-12T12:27:10Z</time>
      </trkpt>
      <trkpt lat="49.87169" lon="2.30692">
        <ele>60.8</ele>
        <time>2024-01-12T12:27:11Z</time>
      </trkpt>
      <trkpt lat="49.87168" lon="2.30692">
        <ele>60.9</ele>
        <time>2024-01-12T12:27:12Z</time>
      </trkpt>
      <trkpt lat="49.87166" lon="2.30693">
        <ele>60.9</ele>
        <time>2024-01-12T12:27:13Z</time>
      </trkpt>
      <trkpt lat="49.87165" lon="2.30693">
        <ele>60.9</ele>
        <time>2024-01-12T12:27:14Z</time>
      </trkpt>
      <trkpt lat="49.87164" lon="2.30693">
        <ele>60.9</ele>
        <time>2024-01-12T12:27:15Z</time>
      </trkpt>
      <trkpt lat="49.87162" lon="2.30694">
        <ele>61</ele>
        <time>2024-01-12T12:27:16Z</time>
      </trkpt>
      <trkpt lat="49.87161" lon="2.30694">
        <ele>61</ele>
        <time>2024-01-12T12:27:17Z</time>
      </trkpt>
      <trkpt lat="49.8716" lon="2.30694">
        <ele>61</ele>
        <time>2024-01-12T12:27:18Z</time>
      </trkpt>
      <trkpt lat="49.87159" lon="2.30695">
        <ele>61</ele>
        <time>2024-01-12T12:27:19Z</time>
      </trkpt>
      <trkpt lat="49.87158" lon="2.30695">
        <ele>61</ele>
        <time>2024-01-12T12:27:20Z</time>
      </trkpt>
      <trkpt lat="49.87157" lon="2.30696">
        <ele>61.1</ele>
        <time>2024-01-12T12:27:21Z</time>
      </trkpt>
      <trkpt lat="49.87155" lon="2.30697">
        <ele>61.1</ele>
        <time>2024-01-12T12:27:22Z</time>
      </trkpt>
      <trkpt lat="49.87154" lon="2.30697">
        <ele>61.1</ele>
        <time>2024-01-12T12:27:23Z</time>
      </trkpt>
      <trkpt lat="49.87153" lon="2.30697">
        <ele>61.1</ele>
        <time>2024-01-12T12:27:24Z</time>
      </trkpt>
      <trkpt lat="49.87151" lon="2.30698">
        <ele>61.2</ele>
        <time>2024-01-12T12:27:25Z</time>
      </trkpt>
      <trkpt lat="49.8715" lon="2.30698">
        <ele>61.2</ele>
        <time>2024-01-12T12:27:26Z</time>
      </trkpt>
      <trkpt lat="49.87149" lon="2.30698">
        <ele>61.2</ele>
        <time>2024-01-12T12:27:27Z</time>
      </trkpt>
      <trkpt lat="49.87148" lon="2.30699">
        <ele>61.2</ele>
        <time>2024-01-12T12:27:28Z</time>
      </trkpt>
      <trkpt lat="49.87147" lon="2.30699">
        <ele>61.2</ele>
        <time>2024-01-12T12:27:29Z</time>
      </trkpt>
      <trkpt lat="49.87146" lon="2.30699">
        <ele>61.3</ele>
        <time>2024-01-12T12:27:30Z</time>
      </trkpt>
      <trkpt lat="49.87145" lon="2.30699">
        <ele>61.3</ele>
        <time>2024-01-12T12:27:31Z</time>
      </trkpt>
      <trkpt lat="49.87144" lon="2.30699">
        <ele>61.3</ele>
        <time>2024-01-12T12:27:32Z</time>
      </trkpt>
      <trkpt lat="49.87143" lon="2.30699">
        <ele>61.3</ele>
        <time>2024-01-12T12:27:33Z</time>
      </trkpt>
      <trkpt lat="49.87141" lon="2.30699">
        <ele>61.3</ele>
        <time>2024-01-12T12:27:34Z</time>
      </trkpt>
      <trkpt lat="49.8714" lon="2.30699">
        <ele>61.4</ele>
        <time>2024-01-12T12:27:35Z</time>
      </trkpt>
      <trkpt lat="49.87139" lon="2.30698">
        <ele>61.4</ele>
        <time>2024-01-12T12:27:36Z</time>
      </trkpt>
      <trkpt lat="49.87137" lon="2.30698">
        <ele>61.4</ele>
        <time>2024-01-12T12:27:37Z</time>
      </trkpt>
      <trkpt lat="49.87136" lon="2.30698">
        <ele>61.4</ele>
        <time>2024-01-12T12:27:38Z</time>
      </trkpt>
      <trkpt lat="49.87135" lon="2.30698">
        <ele>61.4</ele>
        <time>2024-01-12T12:27:39Z</time>
      </trkpt>
      <trkpt lat="49.87134" lon="2.30698">
        <ele>61.4</ele>
        <time>2024-01-12T12:27:40Z</time>
      </trkpt>
      <trkpt lat="49.87133" lon="2.30698">
        <ele>61.5</ele>
        <time>2024-01-12T12:27:41Z</time>
      </trkpt>
      <trkpt lat="49.87132" lon="2.30697">
        <ele>61.5</ele>
        <time>2024-01-12T12:27:42Z</time>
      </trkpt>
      <trkpt lat="49.87131" lon="2.30697">
        <ele>61.5</ele>
        <time>2024-01-12T12:27:43Z</time>
      </trkpt>
      <trkpt lat="49.8713" lon="2.30697">
        <ele>61.5</ele>
        <time>2024-01-12T12:27:44Z</time>
      </trkpt>
      <trkpt lat="49.87129" lon="2.30697">
        <ele>61.5</ele>
        <time>2024-01-12T12:27:45Z</time>
      </trkpt>
      <trkpt lat="49.87128" lon="2.30697">
        <ele>61.5</ele>
        <time>2024-01-12T12:27:46Z</time>
      </trkpt>
      <trkpt lat="49.87127" lon="2.30697">
        <ele>61.6</ele>
        <time>2024-01-12T12:27:47Z</time>
      </trkpt>
      <trkpt lat="49.87126" lon="2.30697">
        <ele>61.6</ele>
        <time>2024-01-12T12:27:48Z</time>
      </trkpt>
      <trkpt lat="49.87124" lon="2.30697">
        <ele>61.6</ele>
        <time>2024-01-12T12:27:49Z</time>
      </trkpt>
      <trkpt lat="49.87123" lon="2.30697">
        <ele>61.6</ele>
        <time>2024-01-12T12:27:50Z</time>
      </trkpt>
      <trkpt lat="49.87122" lon="2.30698">
        <ele>61.7</ele>
        <time>2024-01-12T12:27:51Z</time>
      </trkpt>
      <trkpt lat="49.87121" lon="2.30698">
        <ele>61.7</ele>
        <time>2024-01-12T12:27:52Z</time>
      </trkpt>
      <trkpt lat="49.8712" lon="2.30698">
        <ele>61.7</ele>
        <time>2024-01-12T12:27:53Z</time>
      </trkpt>
      <trkpt lat="49.87119" lon="2.30698">
        <ele>61.7</ele>
        <time>2024-01-12T12:27:54Z</time>
      </trkpt>
      <trkpt lat="49.87118" lon="2.30698">
        <ele>61.7</ele>
        <time>2024-01-12T12:27:55Z</time>
      </trkpt>
      <trkpt lat="49.87117" lon="2.30699">
        <ele>61.8</ele>
        <time>2024-01-12T12:27:56Z</time>
      </trkpt>
      <trkpt lat="49.87115" lon="2.30699">
        <ele>61.8</ele>
        <time>2024-01-12T12:27:57Z</time>
      </trkpt>
      <trkpt lat="49.87113" lon="2.307">
        <ele>61.8</ele>
        <time>2024-01-12T12:27:58Z</time>
      </trkpt>
      <trkpt lat="49.87113" lon="2.307">
        <ele>61.8</ele>
        <time>2024-01-12T12:27:59Z</time>
      </trkpt>
      <trkpt lat="49.87112" lon="2.30701">
        <ele>61.8</ele>
        <time>2024-01-12T12:28:00Z</time>
      </trkpt>
      <trkpt lat="49.87111" lon="2.30701">
        <ele>61.9</ele>
        <time>2024-01-12T12:28:01Z</time>
      </trkpt>
      <trkpt lat="49.87109" lon="2.30702">
        <ele>61.9</ele>
        <time>2024-01-12T12:28:02Z</time>
      </trkpt>
      <trkpt lat="49.87108" lon="2.30702">
        <ele>61.9</ele>
        <time>2024-01-12T12:28:03Z</time>
      </trkpt>
      <trkpt lat="49.87107" lon="2.30703">
        <ele>61.9</ele>
        <time>2024-01-12T12:28:04Z</time>
      </trkpt>
      <trkpt lat="49.87107" lon="2.30704">
        <ele>61.9</ele>
        <time>2024-01-12T12:28:05Z</time>
      </trkpt>
      <trkpt lat="49.87107" lon="2.30705">
        <ele>61.9</ele>
        <time>2024-01-12T12:28:06Z</time>
      </trkpt>
      <trkpt lat="49.87106" lon="2.30708">
        <ele>62</ele>
        <time>2024-01-12T12:28:07Z</time>
      </trkpt>
      <trkpt lat="49.87106" lon="2.3071">
        <ele>62</ele>
        <time>2024-01-12T12:28:08Z</time>
      </trkpt>
      <trkpt lat="49.87106" lon="2.30711">
        <ele>62</ele>
        <time>2024-01-12T12:28:09Z</time>
      </trkpt>
      <trkpt lat="49.87106" lon="2.30713">
        <ele>62</ele>
        <time>2024-01-12T12:28:10Z</time>
      </trkpt>
      <trkpt lat="49.87106" lon="2.30715">
        <ele>62</ele>
        <time>2024-01-12T12:28:11Z</time>
      </trkpt>
      <trkpt lat="49.87106" lon="2.30718">
        <ele>62</ele>
        <time>2024-01-12T12:28:12Z</time>
      </trkpt>
      <trkpt lat="49.87105" lon="2.3072">
        <ele>62</ele>
        <time>2024-01-12T12:28:13Z</time>
      </trkpt>
      <trkpt lat="49.87105" lon="2.30721">
        <ele>62</ele>
        <time>2024-01-12T12:28:14Z</time>
      </trkpt>
      <trkpt lat="49.87104" lon="2.30724">
        <ele>62</ele>
        <time>2024-01-12T12:28:15Z</time>
      </trkpt>
      <trkpt lat="49.87104" lon="2.30725">
        <ele>62</ele>
        <time>2024-01-12T12:28:16Z</time>
      </trkpt>
      <trkpt lat="49.87103" lon="2.30726">
        <ele>62</ele>
        <time>2024-01-12T12:28:17Z</time>
      </trkpt>
      <trkpt lat="49.87102" lon="2.30727">
        <ele>62</ele>
        <time>2024-01-12T12:28:18Z</time>
      </trkpt>
      <trkpt lat="49.87102" lon="2.30728">
        <ele>62</ele>
        <time>2024-01-12T12:28:19Z</time>
      </trkpt>
      <trkpt lat="49.87101" lon="2.3073">
        <ele>62</ele>
        <time>2024-01-12T12:28:20Z</time>
      </trkpt>
      <trkpt lat="49.87101" lon="2.30731">
        <ele>62</ele>
        <time>2024-01-12T12:28:21Z</time>
      </trkpt>
      <trkpt lat="49.871" lon="2.30732">
        <ele>62</ele>
        <time>2024-01-12T12:28:22Z</time>
      </trkpt>
      <trkpt lat="49.871" lon="2.30733">
        <ele>62</ele>
        <time>2024-01-12T12:28:23Z</time>
      </trkpt>
      <trkpt lat="49.87099" lon="2.30734">
        <ele>62</ele>
        <time>2024-01-12T12:28:24Z</time>
      </trkpt>
      <trkpt lat="49.87099" lon="2.30735">
        <ele>62</ele>
        <time>2024-01-12T12:28:26Z</time>
      </trkpt>
      <trkpt lat="49.87098" lon="2.30737">
        <ele>62</ele>
        <time>2024-01-12T12:28:27Z</time>
      </trkpt>
      <trkpt lat="49.87097" lon="2.30738">
        <ele>62</ele>
        <time>2024-01-12T12:28:28Z</time>
      </trkpt>
      <trkpt lat="49.87096" lon="2.30739">
        <ele>62</ele>
        <time>2024-01-12T12:28:29Z</time>
      </trkpt>
      <trkpt lat="49.87096" lon="2.30739">
        <ele>62</ele>
        <time>2024-01-12T12:28:30Z</time>
      </trkpt>
      <trkpt lat="49.87096" lon="2.3074">
        <ele>62</ele>
        <time>2024-01-12T12:28:31Z</time>
      </trkpt>
      <trkpt lat="49.87095" lon="2.3074">
        <ele>62</ele>
        <time>2024-01-12T12:28:32Z</time>
      </trkpt>
      <trkpt lat="49.87095" lon="2.30741">
        <ele>62</ele>
        <time>2024-01-12T12:28:33Z</time>
      </trkpt>
      <trkpt lat="49.87094" lon="2.30741">
        <ele>62</ele>
        <time>2024-01-12T12:28:34Z</time>
      </trkpt>
      <trkpt lat="49.87093" lon="2.3074">
        <ele>62</ele>
        <time>2024-01-12T12:28:35Z</time>
      </trkpt>
      <trkpt lat="49.87092" lon="2.3074">
        <ele>62</ele>
        <time>2024-01-12T12:28:36Z</time>
      </trkpt>
      <trkpt lat="49.87091" lon="2.3074">
        <ele>61.9</ele>
        <time>2024-01-12T12:28:37Z</time>
      </trkpt>
      <trkpt lat="49.8709" lon="2.3074">
        <ele>61.9</ele>
        <time>2024-01-12T12:28:38Z</time>
      </trkpt>
      <trkpt lat="49.87089" lon="2.3074">
        <ele>61.9</ele>
        <time>2024-01-12T12:28:39Z</time>
      </trkpt>
      <trkpt lat="49.87088" lon="2.3074">
        <ele>62</ele>
        <time>2024-01-12T12:28:40Z</time>
      </trkpt>
      <trkpt lat="49.87087" lon="2.3074">
        <ele>62</ele>
        <time>2024-01-12T12:28:41Z</time>
      </trkpt>
      <trkpt lat="49.87086" lon="2.3074">
        <ele>62</ele>
        <time>2024-01-12T12:28:42Z</time>
      </trkpt>
      <trkpt lat="49.87084" lon="2.3074">
        <ele>62</ele>
        <time>2024-01-12T12:28:43Z</time>
      </trkpt>
      <trkpt lat="49.87083" lon="2.30741">
        <ele>62.1</ele>
        <time>2024-01-12T12:28:44Z</time>
      </trkpt>
      <trkpt lat="49.87082" lon="2.30741">
        <ele>62.1</ele>
        <time>2024-01-12T12:28:45Z</time>
      </trkpt>
      <trkpt lat="49.87081" lon="2.30743">
        <ele>62.1</ele>
        <time>2024-01-12T12:28:46Z</time>
      </trkpt>
      <trkpt lat="49.8708" lon="2.30744">
        <ele>62.1</ele>
        <time>2024-01-12T12:28:47Z</time>
      </trkpt>
      <trkpt lat="49.87079" lon="2.30745">
        <ele>62.1</ele>
        <time>2024-01-12T12:28:48Z</time>
      </trkpt>
      <trkpt lat="49.87078" lon="2.30748">
        <ele>62</ele>
        <time>2024-01-12T12:28:49Z</time>
      </trkpt>
      <trkpt lat="49.87078" lon="2.30749">
        <ele>62</ele>
        <time>2024-01-12T12:28:50Z</time>
      </trkpt>
      <trkpt lat="49.87078" lon="2.3075">
        <ele>62</ele>
        <time>2024-01-12T12:28:51Z</time>
      </trkpt>
      <trkpt lat="49.87078" lon="2.30751">
        <ele>62</ele>
        <time>2024-01-12T12:28:52Z</time>
      </trkpt>
      <trkpt lat="49.87078" lon="2.30753">
        <ele>62</ele>
        <time>2024-01-12T12:28:53Z</time>
      </trkpt>
      <trkpt lat="49.87078" lon="2.30753">
        <ele>62</ele>
        <time>2024-01-12T12:28:54Z</time>
      </trkpt>
      <trkpt lat="49.87079" lon="2.30754">
        <ele>62</ele>
        <time>2024-01-12T12:28:55Z</time>
      </trkpt>
      <trkpt lat="49.87079" lon="2.30754">
        <ele>62</ele>
        <time>2024-01-12T12:28:56Z</time>
      </trkpt>
      <trkpt lat="49.87079" lon="2.30755">
        <ele>62</ele>
        <time>2024-01-12T12:28:57Z</time>
      </trkpt>
      <trkpt lat="49.87079" lon="2.30755">
        <ele>62</ele>
        <time>2024-01-12T12:28:58Z</time>
      </trkpt>
      <trkpt lat="49.87079" lon="2.30756">
        <ele>62</ele>
        <time>2024-01-12T12:28:59Z</time>
      </trkpt>
      <trkpt lat="49.87079" lon="2.30757">
        <ele>62</ele>
        <time>2024-01-12T12:29:00Z</time>
      </trkpt>
      <trkpt lat="49.87079" lon="2.30758">
        <ele>62</ele>
        <time>2024-01-12T12:29:01Z</time>
      </trkpt>
      <trkpt lat="49.87079" lon="2.3076">
        <ele>62</ele>
        <time>2024-01-12T12:29:02Z</time>
      </trkpt>
      <trkpt lat="49.87078" lon="2.30761">
        <ele>61.9</ele>
        <time>2024-01-12T12:29:03Z</time>
      </trkpt>
      <trkpt lat="49.87078" lon="2.30763">
        <ele>61.9</ele>
        <time>2024-01-12T12:29:04Z</time>
      </trkpt>
      <trkpt lat="49.87078" lon="2.30766">
        <ele>61.9</ele>
        <time>2024-01-12T12:29:05Z</time>
      </trkpt>
      <trkpt lat="49.87078" lon="2.30768">
        <ele>61.9</ele>
        <time>2024-01-12T12:29:06Z</time>
      </trkpt>
      <trkpt lat="49.87078" lon="2.30769">
        <ele>61.9</ele>
        <time>2024-01-12T12:29:07Z</time>
      </trkpt>
      <trkpt lat="49.87078" lon="2.30771">
        <ele>61.9</ele>
        <time>2024-01-12T12:29:08Z</time>
      </trkpt>
      <trkpt lat="49.87077" lon="2.30773">
        <ele>61.9</ele>
        <time>2024-01-12T12:29:09Z</time>
      </trkpt>
      <trkpt lat="49.87077" lon="2.30776">
        <ele>61.9</ele>
        <time>2024-01-12T12:29:10Z</time>
      </trkpt>
      <trkpt lat="49.87077" lon="2.30778">
        <ele>61.9</ele>
        <time>2024-01-12T12:29:11Z</time>
      </trkpt>
      <trkpt lat="49.87077" lon="2.30782">
        <ele>61.9</ele>
        <time>2024-01-12T12:29:12Z</time>
      </trkpt>
      <trkpt lat="49.87077" lon="2.30783">
        <ele>61.8</ele>
        <time>2024-01-12T12:29:13Z</time>
      </trkpt>
      <trkpt lat="49.87077" lon="2.30784">
        <ele>61.8</ele>
        <time>2024-01-12T12:29:14Z</time>
      </trkpt>
      <trkpt lat="49.87077" lon="2.30787">
        <ele>61.8</ele>
        <time>2024-01-12T12:29:15Z</time>
      </trkpt>
      <trkpt lat="49.87077" lon="2.30788">
        <ele>61.8</ele>
        <time>2024-01-12T12:29:16Z</time>
      </trkpt>
      <trkpt lat="49.87077" lon="2.3079">
        <ele>61.8</ele>
        <time>2024-01-12T12:29:17Z</time>
      </trkpt>
      <trkpt lat="49.87077" lon="2.30793">
        <ele>61.8</ele>
        <time>2024-01-12T12:29:18Z</time>
      </trkpt>
      <trkpt lat="49.87077" lon="2.30794">
        <ele>61.8</ele>
        <time>2024-01-12T12:29:19Z</time>
      </trkpt>
      <trkpt lat="49.87077" lon="2.30796">
        <ele>61.8</ele>
        <time>2024-01-12T12:29:20Z</time>
      </trkpt>
      <trkpt lat="49.87077" lon="2.30799">
        <ele>61.8</ele>
        <time>2024-01-12T12:29:21Z</time>
      </trkpt>
      <trkpt lat="49.87077" lon="2.308">
        <ele>61.8</ele>
        <time>2024-01-12T12:29:22Z</time>
      </trkpt>
      <trkpt lat="49.87077" lon="2.30801">
        <ele>61.8</ele>
        <time>2024-01-12T12:29:23Z</time>
      </trkpt>
      <trkpt lat="49.87077" lon="2.30805">
        <ele>61.7</ele>
        <time>2024-01-12T12:29:24Z</time>
      </trkpt>
      <trkpt lat="49.87077" lon="2.30806">
        <ele>61.7</ele>
        <time>2024-01-12T12:29:25Z</time>
      </trkpt>
      <trkpt lat="49.87077" lon="2.30808">
        <ele>61.7</ele>
        <time>2024-01-12T12:29:26Z</time>
      </trkpt>
      <trkpt lat="49.87077" lon="2.30811">
        <ele>61.7</ele>
        <time>2024-01-12T12:29:27Z</time>
      </trkpt>
      <trkpt lat="49.87077" lon="2.30812">
        <ele>61.7</ele>
        <time>2024-01-12T12:29:28Z</time>
      </trkpt>
      <trkpt lat="49.87077" lon="2.30813">
        <ele>61.7</ele>
        <time>2024-01-12T12:29:29Z</time>
      </trkpt>
      <trkpt lat="49.87077" lon="2.30817">
        <ele>61.7</ele>
        <time>2024-01-12T12:29:30Z</time>
      </trkpt>
      <trkpt lat="49.87077" lon="2.30818">
        <ele>61.7</ele>
        <time>2024-01-12T12:29:31Z</time>
      </trkpt>
      <trkpt lat="49.87077" lon="2.3082">
        <ele>61.7</ele>
        <time>2024-01-12T12:29:32Z</time>
      </trkpt>
      <trkpt lat="49.87077" lon="2.30822">
        <ele>61.7</ele>
        <time>2024-01-12T12:29:33Z</time>
      </trkpt>
      <trkpt lat="49.87077" lon="2.30824">
        <ele>61.6</ele>
        <time>2024-01-12T12:29:34Z</time>
      </trkpt>
      <trkpt lat="49.87077" lon="2.30826">
        <ele>61.6</ele>
        <time>2024-01-12T12:29:35Z</time>
      </trkpt>
      <trkpt lat="49.87078" lon="2.30829">
        <ele>61.6</ele>
        <time>2024-01-12T12:29:36Z</time>
      </trkpt>
      <trkpt lat="49.87078" lon="2.30831">
        <ele>61.6</ele>
        <time>2024-01-12T12:29:37Z</time>
      </trkpt>
      <trkpt lat="49.87078" lon="2.30834">
        <ele>61.6</ele>
        <time>2024-01-12T12:29:38Z</time>
      </trkpt>
      <trkpt lat="49.87078" lon="2.30836">
        <ele>61.6</ele>
        <time>2024-01-12T12:29:39Z</time>
      </trkpt>
      <trkpt lat="49.87078" lon="2.30838">
        <ele>61.6</ele>
        <time>2024-01-12T12:29:40Z</time>
      </trkpt>
      <trkpt lat="49.87079" lon="2.3084">
        <ele>61.6</ele>
        <time>2024-01-12T12:29:41Z</time>
      </trkpt>
      <trkpt lat="49.87079" lon="2.30842">
        <ele>61.6</ele>
        <time>2024-01-12T12:29:42Z</time>
      </trkpt>
      <trkpt lat="49.87079" lon="2.30844">
        <ele>61.6</ele>
        <time>2024-01-12T12:29:43Z</time>
      </trkpt>
      <trkpt lat="49.87079" lon="2.30845">
        <ele>61.5</ele>
        <time>2024-01-12T12:29:44Z</time>
      </trkpt>
      <trkpt lat="49.8708" lon="2.30846">
        <ele>61.5</ele>
        <time>2024-01-12T12:29:45Z</time>
      </trkpt>
      <trkpt lat="49.8708" lon="2.30848">
        <ele>61.5</ele>
        <time>2024-01-12T12:29:46Z</time>
      </trkpt>
      <trkpt lat="49.8708" lon="2.30849">
        <ele>61.5</ele>
        <time>2024-01-12T12:29:47Z</time>
      </trkpt>
      <trkpt lat="49.8708" lon="2.30851">
        <ele>61.5</ele>
        <time>2024-01-12T12:29:48Z</time>
      </trkpt>
      <trkpt lat="49.8708" lon="2.30852">
        <ele>61.5</ele>
        <time>2024-01-12T12:29:49Z</time>
      </trkpt>
      <trkpt lat="49.87081" lon="2.30854">
        <ele>61.5</ele>
        <time>2024-01-12T12:29:50Z</time>
      </trkpt>
      <trkpt lat="49.87081" lon="2.30855">
        <ele>61.5</ele>
        <time>2024-01-12T12:29:51Z</time>
      </trkpt>
      <trkpt lat="49.87081" lon="2.30857">
        <ele>61.5</ele>
        <time>2024-01-12T12:29:52Z</time>
      </trkpt>
      <trkpt lat="49.87081" lon="2.30859">
        <ele>61.5</ele>
        <time>2024-01-12T12:29:53Z</time>
      </trkpt>
      <trkpt lat="49.8708" lon="2.30861">
        <ele>61.5</ele>
        <time>2024-01-12T12:29:54Z</time>
      </trkpt>
      <trkpt lat="49.8708" lon="2.30862">
        <ele>61.5</ele>
        <time>2024-01-12T12:29:55Z</time>
      </trkpt>
      <trkpt lat="49.8708" lon="2.30866">
        <ele>61.5</ele>
        <time>2024-01-12T12:29:56Z</time>
      </trkpt>
      <trkpt lat="49.8708" lon="2.30867">
        <ele>61.5</ele>
        <time>2024-01-12T12:29:57Z</time>
      </trkpt>
      <trkpt lat="49.8708" lon="2.30868">
        <ele>61.5</ele>
        <time>2024-01-12T12:29:58Z</time>
      </trkpt>
      <trkpt lat="49.8708" lon="2.30871">
        <ele>61.4</ele>
        <time>2024-01-12T12:29:59Z</time>
      </trkpt>
      <trkpt lat="49.8708" lon="2.30873">
        <ele>61.4</ele>
        <time>2024-01-12T12:30:00Z</time>
      </trkpt>
      <trkpt lat="49.8708" lon="2.30874">
        <ele>61.4</ele>
        <time>2024-01-12T12:30:01Z</time>
      </trkpt>
      <trkpt lat="49.8708" lon="2.30877">
        <ele>61.4</ele>
        <time>2024-01-12T12:30:02Z</time>
      </trkpt>
      <trkpt lat="49.8708" lon="2.30879">
        <ele>61.4</ele>
        <time>2024-01-12T12:30:03Z</time>
      </trkpt>
      <trkpt lat="49.8708" lon="2.3088">
        <ele>61.4</ele>
        <time>2024-01-12T12:30:04Z</time>
      </trkpt>
      <trkpt lat="49.8708" lon="2.30882">
        <ele>61.4</ele>
        <time>2024-01-12T12:30:05Z</time>
      </trkpt>
      <trkpt lat="49.87079" lon="2.30884">
        <ele>61.4</ele>
        <time>2024-01-12T12:30:06Z</time>
      </trkpt>
      <trkpt lat="49.87079" lon="2.30886">
        <ele>61.4</ele>
        <time>2024-01-12T12:30:07Z</time>
      </trkpt>
      <trkpt lat="49.87079" lon="2.30889">
        <ele>61.4</ele>
        <time>2024-01-12T12:30:08Z</time>
      </trkpt>
      <trkpt lat="49.87078" lon="2.30891">
        <ele>61.4</ele>
        <time>2024-01-12T12:30:09Z</time>
      </trkpt>
      <trkpt lat="49.87078" lon="2.30893">
        <ele>61.4</ele>
        <time>2024-01-12T12:30:10Z</time>
      </trkpt>
      <trkpt lat="49.87077" lon="2.30896">
        <ele>61.3</ele>
        <time>2024-01-12T12:30:11Z</time>
      </trkpt>
      <trkpt lat="49.87077" lon="2.30898">
        <ele>61.3</ele>
        <time>2024-01-12T12:30:13Z</time>
      </trkpt>
      <trkpt lat="49.87076" lon="2.309">
        <ele>61.3</ele>
        <time>2024-01-12T12:30:14Z</time>
      </trkpt>
      <trkpt lat="49.87076" lon="2.30902">
        <ele>61.3</ele>
        <time>2024-01-12T12:30:15Z</time>
      </trkpt>
      <trkpt lat="49.87076" lon="2.30903">
        <ele>61.3</ele>
        <time>2024-01-12T12:30:16Z</time>
      </trkpt>
      <trkpt lat="49.87076" lon="2.30905">
        <ele>61.3</ele>
        <time>2024-01-12T12:30:17Z</time>
      </trkpt>
      <trkpt lat="49.87075" lon="2.30907">
        <ele>61.3</ele>
        <time>2024-01-12T12:30:18Z</time>
      </trkpt>
      <trkpt lat="49.87075" lon="2.30909">
        <ele>61.3</ele>
        <time>2024-01-12T12:30:19Z</time>
      </trkpt>
      <trkpt lat="49.87075" lon="2.3091">
        <ele>61.2</ele>
        <time>2024-01-12T12:30:20Z</time>
      </trkpt>
      <trkpt lat="49.87075" lon="2.30912">
        <ele>61.2</ele>
        <time>2024-01-12T12:30:21Z</time>
      </trkpt>
      <trkpt lat="49.87074" lon="2.30914">
        <ele>61.2</ele>
        <time>2024-01-12T12:30:22Z</time>
      </trkpt>
      <trkpt lat="49.87074" lon="2.30916">
        <ele>61.2</ele>
        <time>2024-01-12T12:30:23Z</time>
      </trkpt>
      <trkpt lat="49.87074" lon="2.30918">
        <ele>61.2</ele>
        <time>2024-01-12T12:30:24Z</time>
      </trkpt>
      <trkpt lat="49.87074" lon="2.30919">
        <ele>61.2</ele>
        <time>2024-01-12T12:30:25Z</time>
      </trkpt>
      <trkpt lat="49.87074" lon="2.30921">
        <ele>61.2</ele>
        <time>2024-01-12T12:30:26Z</time>
      </trkpt>
      <trkpt lat="49.87073" lon="2.30924">
        <ele>61.2</ele>
        <time>2024-01-12T12:30:27Z</time>
      </trkpt>
      <trkpt lat="49.87073" lon="2.30926">
        <ele>61.1</ele>
        <time>2024-01-12T12:30:28Z</time>
      </trkpt>
      <trkpt lat="49.87073" lon="2.30927">
        <ele>61.1</ele>
        <time>2024-01-12T12:30:29Z</time>
      </trkpt>
      <trkpt lat="49.87073" lon="2.3093">
        <ele>61.1</ele>
        <time>2024-01-12T12:30:30Z</time>
      </trkpt>
      <trkpt lat="49.87073" lon="2.30932">
        <ele>61.1</ele>
        <time>2024-01-12T12:30:31Z</time>
      </trkpt>
      <trkpt lat="49.87073" lon="2.30933">
        <ele>61.1</ele>
        <time>2024-01-12T12:30:32Z</time>
      </trkpt>
      <trkpt lat="49.87073" lon="2.30936">
        <ele>61.1</ele>
        <time>2024-01-12T12:30:33Z</time>
      </trkpt>
      <trkpt lat="49.87073" lon="2.30938">
        <ele>61.1</ele>
        <time>2024-01-12T12:30:34Z</time>
      </trkpt>
      <trkpt lat="49.87073" lon="2.30939">
        <ele>61.1</ele>
        <time>2024-01-12T12:30:35Z</time>
      </trkpt>
      <trkpt lat="49.87073" lon="2.30941">
        <ele>61.1</ele>
        <time>2024-01-12T12:30:36Z</time>
      </trkpt>
      <trkpt lat="49.87073" lon="2.30942">
        <ele>61</ele>
        <time>2024-01-12T12:30:37Z</time>
      </trkpt>
      <trkpt lat="49.87073" lon="2.30944">
        <ele>61</ele>
        <time>2024-01-12T12:30:38Z</time>
      </trkpt>
      <trkpt lat="49.87073" lon="2.30945">
        <ele>61</ele>
        <time>2024-01-12T12:30:39Z</time>
      </trkpt>
      <trkpt lat="49.87073" lon="2.30947">
        <ele>61</ele>
        <time>2024-01-12T12:30:40Z</time>
      </trkpt>
      <trkpt lat="49.87073" lon="2.30948">
        <ele>61</ele>
        <time>2024-01-12T12:30:41Z</time>
      </trkpt>
      <trkpt lat="49.87073" lon="2.3095">
        <ele>61</ele>
        <time>2024-01-12T12:30:42Z</time>
      </trkpt>
      <trkpt lat="49.87073" lon="2.30951">
        <ele>61</ele>
        <time>2024-01-12T12:30:43Z</time>
      </trkpt>
      <trkpt lat="49.87074" lon="2.30953">
        <ele>61</ele>
        <time>2024-01-12T12:30:44Z</time>
      </trkpt>
      <trkpt lat="49.87074" lon="2.30954">
        <ele>60.9</ele>
        <time>2024-01-12T12:30:45Z</time>
      </trkpt>
      <trkpt lat="49.87074" lon="2.30956">
        <ele>60.9</ele>
        <time>2024-01-12T12:30:46Z</time>
      </trkpt>
      <trkpt lat="49.87074" lon="2.30958">
        <ele>60.9</ele>
        <time>2024-01-12T12:30:47Z</time>
      </trkpt>
      <trkpt lat="49.87074" lon="2.30959">
        <ele>60.9</ele>
        <time>2024-01-12T12:30:48Z</time>
      </trkpt>
      <trkpt lat="49.87074" lon="2.30961">
        <ele>60.9</ele>
        <time>2024-01-12T12:30:49Z</time>
      </trkpt>
      <trkpt lat="49.87074" lon="2.30963">
        <ele>60.9</ele>
        <time>2024-01-12T12:30:50Z</time>
      </trkpt>
      <trkpt lat="49.87074" lon="2.30966">
        <ele>60.9</ele>
        <time>2024-01-12T12:30:51Z</time>
      </trkpt>
      <trkpt lat="49.87074" lon="2.30967">
        <ele>60.8</ele>
        <time>2024-01-12T12:30:52Z</time>
      </trkpt>
      <trkpt lat="49.87074" lon="2.30969">
        <ele>60.8</ele>
        <time>2024-01-12T12:30:53Z</time>
      </trkpt>
      <trkpt lat="49.87074" lon="2.30972">
        <ele>60.8</ele>
        <time>2024-01-12T12:30:54Z</time>
      </trkpt>
      <trkpt lat="49.87074" lon="2.30973">
        <ele>60.8</ele>
        <time>2024-01-12T12:30:55Z</time>
      </trkpt>
      <trkpt lat="49.87074" lon="2.30975">
        <ele>60.8</ele>
        <time>2024-01-12T12:30:56Z</time>
      </trkpt>
      <trkpt lat="49.87074" lon="2.30978">
        <ele>60.8</ele>
        <time>2024-01-12T12:30:57Z</time>
      </trkpt>
      <trkpt lat="49.87074" lon="2.30979">
        <ele>60.8</ele>
        <time>2024-01-12T12:30:58Z</time>
      </trkpt>
      <trkpt lat="49.87074" lon="2.3098">
        <ele>60.8</ele>
        <time>2024-01-12T12:30:59Z</time>
      </trkpt>
      <trkpt lat="49.87074" lon="2.30982">
        <ele>60.7</ele>
        <time>2024-01-12T12:31:00Z</time>
      </trkpt>
      <trkpt lat="49.87074" lon="2.30984">
        <ele>60.7</ele>
        <time>2024-01-12T12:31:01Z</time>
      </trkpt>
      <trkpt lat="49.87074" lon="2.30985">
        <ele>60.7</ele>
        <time>2024-01-12T12:31:02Z</time>
      </trkpt>
      <trkpt lat="49.87074" lon="2.30989">
        <ele>60.7</ele>
        <time>2024-01-12T12:31:03Z</time>
      </trkpt>
      <trkpt lat="49.87074" lon="2.3099">
        <ele>60.7</ele>
        <time>2024-01-12T12:31:04Z</time>
      </trkpt>
      <trkpt lat="49.87074" lon="2.30991">
        <ele>60.7</ele>
        <time>2024-01-12T12:31:05Z</time>
      </trkpt>
      <trkpt lat="49.87074" lon="2.30993">
        <ele>60.7</ele>
        <time>2024-01-12T12:31:06Z</time>
      </trkpt>
      <trkpt lat="49.87074" lon="2.30995">
        <ele>60.6</ele>
        <time>2024-01-12T12:31:07Z</time>
      </trkpt>
      <trkpt lat="49.87073" lon="2.30998">
        <ele>60.6</ele>
        <time>2024-01-12T12:31:08Z</time>
      </trkpt>
      <trkpt lat="49.87073" lon="2.31">
        <ele>60.6</ele>
        <time>2024-01-12T12:31:09Z</time>
      </trkpt>
      <trkpt lat="49.87073" lon="2.31002">
        <ele>60.6</ele>
        <time>2024-01-12T12:31:10Z</time>
      </trkpt>
      <trkpt lat="49.87073" lon="2.31005">
        <ele>60.6</ele>
        <time>2024-01-12T12:31:11Z</time>
      </trkpt>
      <trkpt lat="49.87073" lon="2.31007">
        <ele>60.6</ele>
        <time>2024-01-12T12:31:12Z</time>
      </trkpt>
      <trkpt lat="49.87073" lon="2.31009">
        <ele>60.6</ele>
        <time>2024-01-12T12:31:13Z</time>
      </trkpt>
      <trkpt lat="49.87073" lon="2.31012">
        <ele>60.5</ele>
        <time>2024-01-12T12:31:14Z</time>
      </trkpt>
      <trkpt lat="49.87073" lon="2.31014">
        <ele>60.5</ele>
        <time>2024-01-12T12:31:15Z</time>
      </trkpt>
      <trkpt lat="49.87073" lon="2.31015">
        <ele>60.5</ele>
        <time>2024-01-12T12:31:16Z</time>
      </trkpt>
      <trkpt lat="49.87073" lon="2.31017">
        <ele>60.5</ele>
        <time>2024-01-12T12:31:17Z</time>
      </trkpt>
      <trkpt lat="49.87073" lon="2.31019">
        <ele>60.5</ele>
        <time>2024-01-12T12:31:18Z</time>
      </trkpt>
      <trkpt lat="49.87073" lon="2.3102">
        <ele>60.5</ele>
        <time>2024-01-12T12:31:19Z</time>
      </trkpt>
      <trkpt lat="49.87073" lon="2.31022">
        <ele>60.5</ele>
        <time>2024-01-12T12:31:20Z</time>
      </trkpt>
      <trkpt lat="49.87073" lon="2.31024">
        <ele>60.5</ele>
        <time>2024-01-12T12:31:21Z</time>
      </trkpt>
      <trkpt lat="49.87073" lon="2.31026">
        <ele>60.4</ele>
        <time>2024-01-12T12:31:22Z</time>
      </trkpt>
      <trkpt lat="49.87072" lon="2.31027">
        <ele>60.4</ele>
        <time>2024-01-12T12:31:23Z</time>
      </trkpt>
      <trkpt lat="49.87072" lon="2.31029">
        <ele>60.4</ele>
        <time>2024-01-12T12:31:24Z</time>
      </trkpt>
      <trkpt lat="49.87072" lon="2.31031">
        <ele>60.4</ele>
        <time>2024-01-12T12:31:25Z</time>
      </trkpt>
      <trkpt lat="49.87072" lon="2.31034">
        <ele>60.4</ele>
        <time>2024-01-12T12:31:26Z</time>
      </trkpt>
      <trkpt lat="49.87072" lon="2.31035">
        <ele>60.4</ele>
        <time>2024-01-12T12:31:27Z</time>
      </trkpt>
      <trkpt lat="49.87072" lon="2.31037">
        <ele>60.4</ele>
        <time>2024-01-12T12:31:28Z</time>
      </trkpt>
      <trkpt lat="49.87073" lon="2.3104">
        <ele>60.4</ele>
        <time>2024-01-12T12:31:29Z</time>
      </trkpt>
      <trkpt lat="49.87073" lon="2.31041">
        <ele>60.4</ele>
        <time>2024-01-12T12:31:30Z</time>
      </trkpt>
      <trkpt lat="49.87073" lon="2.31042">
        <ele>60.4</ele>
        <time>2024-01-12T12:31:31Z</time>
      </trkpt>
      <trkpt lat="49.87073" lon="2.31044">
        <ele>60.4</ele>
        <time>2024-01-12T12:31:32Z</time>
      </trkpt>
      <trkpt lat="49.87073" lon="2.31046">
        <ele>60.4</ele>
        <time>2024-01-12T12:31:33Z</time>
      </trkpt>
      <trkpt lat="49.87073" lon="2.31047">
        <ele>60.3</ele>
        <time>2024-01-12T12:31:34Z</time>
      </trkpt>
      <trkpt lat="49.87073" lon="2.31048">
        <ele>60.3</ele>
        <time>2024-01-12T12:31:35Z</time>
      </trkpt>
      <trkpt lat="49.87073" lon="2.3105">
        <ele>60.3</ele>
        <time>2024-01-12T12:31:36Z</time>
      </trkpt>
      <trkpt lat="49.87073" lon="2.31052">
        <ele>60.3</ele>
        <time>2024-01-12T12:31:37Z</time>
      </trkpt>
      <trkpt lat="49.87073" lon="2.31055">
        <ele>60.3</ele>
        <time>2024-01-12T12:31:38Z</time>
      </trkpt>
      <trkpt lat="49.87074" lon="2.31056">
        <ele>60.3</ele>
        <time>2024-01-12T12:31:39Z</time>
      </trkpt>
      <trkpt lat="49.87074" lon="2.31057">
        <ele>60.3</ele>
        <time>2024-01-12T12:31:40Z</time>
      </trkpt>
      <trkpt lat="49.87074" lon="2.3106">
        <ele>60.3</ele>
        <time>2024-01-12T12:31:41Z</time>
      </trkpt>
      <trkpt lat="49.87074" lon="2.31062">
        <ele>60.3</ele>
        <time>2024-01-12T12:31:42Z</time>
      </trkpt>
      <trkpt lat="49.87074" lon="2.31063">
        <ele>60.3</ele>
        <time>2024-01-12T12:31:43Z</time>
      </trkpt>
      <trkpt lat="49.87074" lon="2.31065">
        <ele>60.3</ele>
        <time>2024-01-12T12:31:44Z</time>
      </trkpt>
      <trkpt lat="49.87074" lon="2.31067">
        <ele>60.3</ele>
        <time>2024-01-12T12:31:45Z</time>
      </trkpt>
      <trkpt lat="49.87074" lon="2.31068">
        <ele>60.3</ele>
        <time>2024-01-12T12:31:46Z</time>
      </trkpt>
      <trkpt lat="49.87074" lon="2.3107">
        <ele>60.2</ele>
        <time>2024-01-12T12:31:47Z</time>
      </trkpt>
      <trkpt lat="49.87074" lon="2.31072">
        <ele>60.2</ele>
        <time>2024-01-12T12:31:48Z</time>
      </trkpt>
      <trkpt lat="49.87074" lon="2.31073">
        <ele>60.2</ele>
        <time>2024-01-12T12:31:49Z</time>
      </trkpt>
      <trkpt lat="49.87074" lon="2.31075">
        <ele>60.2</ele>
        <time>2024-01-12T12:31:50Z</time>
      </trkpt>
      <trkpt lat="49.87074" lon="2.31076">
        <ele>60.2</ele>
        <time>2024-01-12T12:31:51Z</time>
      </trkpt>
      <trkpt lat="49.87073" lon="2.31078">
        <ele>60.2</ele>
        <time>2024-01-12T12:31:52Z</time>
      </trkpt>
      <trkpt lat="49.87072" lon="2.31079">
        <ele>60.2</ele>
        <time>2024-01-12T12:31:53Z</time>
      </trkpt>
      <trkpt lat="49.87072" lon="2.3108">
        <ele>60.2</ele>
        <time>2024-01-12T12:31:54Z</time>
      </trkpt>
      <trkpt lat="49.87071" lon="2.31081">
        <ele>60.2</ele>
        <time>2024-01-12T12:31:55Z</time>
      </trkpt>
      <trkpt lat="49.8707" lon="2.31081">
        <ele>60.2</ele>
        <time>2024-01-12T12:31:56Z</time>
      </trkpt>
      <trkpt lat="49.87069" lon="2.31082">
        <ele>60.2</ele>
        <time>2024-01-12T12:31:57Z</time>
      </trkpt>
      <trkpt lat="49.87068" lon="2.31082">
        <ele>60.2</ele>
        <time>2024-01-12T12:31:58Z</time>
      </trkpt>
      <trkpt lat="49.87068" lon="2.31082">
        <ele>60.2</ele>
        <time>2024-01-12T12:31:59Z</time>
      </trkpt>
      <trkpt lat="49.87067" lon="2.31083">
        <ele>60.2</ele>
        <time>2024-01-12T12:32:00Z</time>
      </trkpt>
      <trkpt lat="49.87066" lon="2.31084">
        <ele>60.1</ele>
        <time>2024-01-12T12:32:01Z</time>
      </trkpt>
      <trkpt lat="49.87065" lon="2.31084">
        <ele>60.1</ele>
        <time>2024-01-12T12:32:02Z</time>
      </trkpt>
      <trkpt lat="49.87064" lon="2.31085">
        <ele>60.1</ele>
        <time>2024-01-12T12:32:03Z</time>
      </trkpt>
      <trkpt lat="49.87063" lon="2.31086">
        <ele>60.1</ele>
        <time>2024-01-12T12:32:04Z</time>
      </trkpt>
      <trkpt lat="49.87062" lon="2.31087">
        <ele>60.1</ele>
        <time>2024-01-12T12:32:05Z</time>
      </trkpt>
      <trkpt lat="49.87061" lon="2.31088">
        <ele>60.1</ele>
        <time>2024-01-12T12:32:06Z</time>
      </trkpt>
      <trkpt lat="49.8706" lon="2.31089">
        <ele>60.1</ele>
        <time>2024-01-12T12:32:07Z</time>
      </trkpt>
      <trkpt lat="49.87059" lon="2.31089">
        <ele>60.1</ele>
        <time>2024-01-12T12:32:08Z</time>
      </trkpt>
      <trkpt lat="49.87058" lon="2.3109">
        <ele>60.1</ele>
        <time>2024-01-12T12:32:09Z</time>
      </trkpt>
      <trkpt lat="49.87057" lon="2.3109">
        <ele>60.1</ele>
        <time>2024-01-12T12:32:10Z</time>
      </trkpt>
      <trkpt lat="49.87056" lon="2.31091">
        <ele>60.1</ele>
        <time>2024-01-12T12:32:11Z</time>
      </trkpt>
      <trkpt lat="49.87055" lon="2.3109">
        <ele>60.1</ele>
        <time>2024-01-12T12:32:12Z</time>
      </trkpt>
      <trkpt lat="49.87054" lon="2.3109">
        <ele>60.1</ele>
        <time>2024-01-12T12:32:13Z</time>
      </trkpt>
      <trkpt lat="49.87053" lon="2.3109">
        <ele>60.1</ele>
        <time>2024-01-12T12:32:14Z</time>
      </trkpt>
      <trkpt lat="49.87052" lon="2.3109">
        <ele>60</ele>
        <time>2024-01-12T12:32:15Z</time>
      </trkpt>
      <trkpt lat="49.87051" lon="2.31089">
        <ele>60</ele>
        <time>2024-01-12T12:32:16Z</time>
      </trkpt>
      <trkpt lat="49.8705" lon="2.31088">
        <ele>60</ele>
        <time>2024-01-12T12:32:17Z</time>
      </trkpt>
      <trkpt lat="49.8705" lon="2.31087">
        <ele>60</ele>
        <time>2024-01-12T12:32:18Z</time>
      </trkpt>
      <trkpt lat="49.87049" lon="2.31085">
        <ele>60</ele>
        <time>2024-01-12T12:32:19Z</time>
      </trkpt>
      <trkpt lat="49.87048" lon="2.31084">
        <ele>60.1</ele>
        <time>2024-01-12T12:32:20Z</time>
      </trkpt>
      <trkpt lat="49.87047" lon="2.31081">
        <ele>60.1</ele>
        <time>2024-01-12T12:32:21Z</time>
      </trkpt>
      <trkpt lat="49.87047" lon="2.3108">
        <ele>60.1</ele>
        <time>2024-01-12T12:32:22Z</time>
      </trkpt>
      <trkpt lat="49.87047" lon="2.31079">
        <ele>60.1</ele>
        <time>2024-01-12T12:32:23Z</time>
      </trkpt>
      <trkpt lat="49.87046" lon="2.31075">
        <ele>60.2</ele>
        <time>2024-01-12T12:32:24Z</time>
      </trkpt>
      <trkpt lat="49.87045" lon="2.31074">
        <ele>60.2</ele>
        <time>2024-01-12T12:32:25Z</time>
      </trkpt>
      <trkpt lat="49.87045" lon="2.31073">
        <ele>60.2</ele>
        <time>2024-01-12T12:32:26Z</time>
      </trkpt>
      <trkpt lat="49.87044" lon="2.31071">
        <ele>60.3</ele>
        <time>2024-01-12T12:32:27Z</time>
      </trkpt>
      <trkpt lat="49.87044" lon="2.31068">
        <ele>60.3</ele>
        <time>2024-01-12T12:32:28Z</time>
      </trkpt>
      <trkpt lat="49.87044" lon="2.31066">
        <ele>60.4</ele>
        <time>2024-01-12T12:32:29Z</time>
      </trkpt>
      <trkpt lat="49.87043" lon="2.31064">
        <ele>60.4</ele>
        <time>2024-01-12T12:32:30Z</time>
      </trkpt>
      <trkpt lat="49.87043" lon="2.31061">
        <ele>60.4</ele>
        <time>2024-01-12T12:32:31Z</time>
      </trkpt>
      <trkpt lat="49.87043" lon="2.31059">
        <ele>60.5</ele>
        <time>2024-01-12T12:32:32Z</time>
      </trkpt>
      <trkpt lat="49.87043" lon="2.31056">
        <ele>60.5</ele>
        <time>2024-01-12T12:32:33Z</time>
      </trkpt>
      <trkpt lat="49.87043" lon="2.31054">
        <ele>60.6</ele>
        <time>2024-01-12T12:32:34Z</time>
      </trkpt>
      <trkpt lat="49.87043" lon="2.31051">
        <ele>60.7</ele>
        <time>2024-01-12T12:32:35Z</time>
      </trkpt>
      <trkpt lat="49.87043" lon="2.31049">
        <ele>60.7</ele>
        <time>2024-01-12T12:32:36Z</time>
      </trkpt>
      <trkpt lat="49.87043" lon="2.31048">
        <ele>60.7</ele>
        <time>2024-01-12T12:32:37Z</time>
      </trkpt>
      <trkpt lat="49.87044" lon="2.31045">
        <ele>60.8</ele>
        <time>2024-01-12T12:32:38Z</time>
      </trkpt>
      <trkpt lat="49.87044" lon="2.31043">
        <ele>60.9</ele>
        <time>2024-01-12T12:32:39Z</time>
      </trkpt>
      <trkpt lat="49.87044" lon="2.31042">
        <ele>60.9</ele>
        <time>2024-01-12T12:32:40Z</time>
      </trkpt>
      <trkpt lat="49.87044" lon="2.31039">
        <ele>61</ele>
        <time>2024-01-12T12:32:41Z</time>
      </trkpt>
      <trkpt lat="49.87044" lon="2.31037">
        <ele>61</ele>
        <time>2024-01-12T12:32:42Z</time>
      </trkpt>
      <trkpt lat="49.87044" lon="2.31036">
        <ele>61</ele>
        <time>2024-01-12T12:32:43Z</time>
      </trkpt>
      <trkpt lat="49.87043" lon="2.31033">
        <ele>61</ele>
        <time>2024-01-12T12:32:44Z</time>
      </trkpt>
      <trkpt lat="49.87043" lon="2.31031">
        <ele>61</ele>
        <time>2024-01-12T12:32:45Z</time>
      </trkpt>
      <trkpt lat="49.87043" lon="2.3103">
        <ele>61</ele>
        <time>2024-01-12T12:32:46Z</time>
      </trkpt>
      <trkpt lat="49.87043" lon="2.31028">
        <ele>61</ele>
        <time>2024-01-12T12:32:47Z</time>
      </trkpt>
      <trkpt lat="49.87043" lon="2.31027">
        <ele>61</ele>
        <time>2024-01-12T12:32:48Z</time>
      </trkpt>
      <trkpt lat="49.87043" lon="2.31025">
        <ele>61</ele>
        <time>2024-01-12T12:32:49Z</time>
      </trkpt>
      <trkpt lat="49.87043" lon="2.31023">
        <ele>61.1</ele>
        <time>2024-01-12T12:32:50Z</time>
      </trkpt>
      <trkpt lat="49.87043" lon="2.31022">
        <ele>61.1</ele>
        <time>2024-01-12T12:32:51Z</time>
      </trkpt>
      <trkpt lat="49.87043" lon="2.3102">
        <ele>61.1</ele>
        <time>2024-01-12T12:32:52Z</time>
      </trkpt>
      <trkpt lat="49.87043" lon="2.31019">
        <ele>61.1</ele>
        <time>2024-01-12T12:32:53Z</time>
      </trkpt>
      <trkpt lat="49.87042" lon="2.31017">
        <ele>61.1</ele>
        <time>2024-01-12T12:32:54Z</time>
      </trkpt>
      <trkpt lat="49.87042" lon="2.31015">
        <ele>61.1</ele>
        <time>2024-01-12T12:32:55Z</time>
      </trkpt>
      <trkpt lat="49.87042" lon="2.31014">
        <ele>61.1</ele>
        <time>2024-01-12T12:32:56Z</time>
      </trkpt>
      <trkpt lat="49.87042" lon="2.31012">
        <ele>61.1</ele>
        <time>2024-01-12T12:32:57Z</time>
      </trkpt>
      <trkpt lat="49.87042" lon="2.3101">
        <ele>61.1</ele>
        <time>2024-01-12T12:32:58Z</time>
      </trkpt>
      <trkpt lat="49.87041" lon="2.31007">
        <ele>61.1</ele>
        <time>2024-01-12T12:32:59Z</time>
      </trkpt>
      <trkpt lat="49.87041" lon="2.31005">
        <ele>61.1</ele>
        <time>2024-01-12T12:33:00Z</time>
      </trkpt>
      <trkpt lat="49.87041" lon="2.31004">
        <ele>61.1</ele>
        <time>2024-01-12T12:33:01Z</time>
      </trkpt>
      <trkpt lat="49.87041" lon="2.31001">
        <ele>61.1</ele>
        <time>2024-01-12T12:33:02Z</time>
      </trkpt>
      <trkpt lat="49.8704" lon="2.30999">
        <ele>61.1</ele>
        <time>2024-01-12T12:33:03Z</time>
      </trkpt>
      <trkpt lat="49.8704" lon="2.30998">
        <ele>61.1</ele>
        <time>2024-01-12T12:33:04Z</time>
      </trkpt>
      <trkpt lat="49.8704" lon="2.30996">
        <ele>61.1</ele>
        <time>2024-01-12T12:33:05Z</time>
      </trkpt>
      <trkpt lat="49.8704" lon="2.30994">
        <ele>61.1</ele>
        <time>2024-01-12T12:33:06Z</time>
      </trkpt>
      <trkpt lat="49.87039" lon="2.30993">
        <ele>61.1</ele>
        <time>2024-01-12T12:33:07Z</time>
      </trkpt>
      <trkpt lat="49.87039" lon="2.30991">
        <ele>61.1</ele>
        <time>2024-01-12T12:33:08Z</time>
      </trkpt>
      <trkpt lat="49.87039" lon="2.30989">
        <ele>61.1</ele>
        <time>2024-01-12T12:33:09Z</time>
      </trkpt>
      <trkpt lat="49.87038" lon="2.30987">
        <ele>61.1</ele>
        <time>2024-01-12T12:33:10Z</time>
      </trkpt>
      <trkpt lat="49.87037" lon="2.30984">
        <ele>61.1</ele>
        <time>2024-01-12T12:33:11Z</time>
      </trkpt>
      <trkpt lat="49.87037" lon="2.30983">
        <ele>61.1</ele>
        <time>2024-01-12T12:33:12Z</time>
      </trkpt>
      <trkpt lat="49.87036" lon="2.30982">
        <ele>61.1</ele>
        <time>2024-01-12T12:33:13Z</time>
      </trkpt>
      <trkpt lat="49.87035" lon="2.3098">
        <ele>61.1</ele>
        <time>2024-01-12T12:33:14Z</time>
      </trkpt>
      <trkpt lat="49.87034" lon="2.30979">
        <ele>61.1</ele>
        <time>2024-01-12T12:33:15Z</time>
      </trkpt>
      <trkpt lat="49.87032" lon="2.30978">
        <ele>61.1</ele>
        <time>2024-01-12T12:33:16Z</time>
      </trkpt>
      <trkpt lat="49.87031" lon="2.30978">
        <ele>61.1</ele>
        <time>2024-01-12T12:33:17Z</time>
      </trkpt>
      <trkpt lat="49.8703" lon="2.30977">
        <ele>61.1</ele>
        <time>2024-01-12T12:33:18Z</time>
      </trkpt>
      <trkpt lat="49.8703" lon="2.30978">
        <ele>61.1</ele>
        <time>2024-01-12T12:33:19Z</time>
      </trkpt>
      <trkpt lat="49.87029" lon="2.30979">
        <ele>61.1</ele>
        <time>2024-01-12T12:33:20Z</time>
      </trkpt>
      <trkpt lat="49.87029" lon="2.30979">
        <ele>61.1</ele>
        <time>2024-01-12T12:33:21Z</time>
      </trkpt>
      <trkpt lat="49.87029" lon="2.30979">
        <ele>61.1</ele>
        <time>2024-01-12T12:33:22Z</time>
      </trkpt>
      <trkpt lat="49.87029" lon="2.3098">
        <ele>61.1</ele>
        <time>2024-01-12T12:33:23Z</time>
      </trkpt>
      <trkpt lat="49.87029" lon="2.3098">
        <ele>61.1</ele>
        <time>2024-01-12T12:33:24Z</time>
      </trkpt>
      <trkpt lat="49.87029" lon="2.3098">
        <ele>61.1</ele>
        <time>2024-01-12T12:33:25Z</time>
      </trkpt>
      <trkpt lat="49.87029" lon="2.3098">
        <ele>61.1</ele>
        <time>2024-01-12T12:33:26Z</time>
      </trkpt>
      <trkpt lat="49.87029" lon="2.3098">
        <ele>61.1</ele>
        <time>2024-01-12T12:33:27Z</time>
      </trkpt>
      <trkpt lat="49.87029" lon="2.3098">
        <ele>61.1</ele>
        <time>2024-01-12T12:33:28Z</time>
      </trkpt>
      <trkpt lat="49.87029" lon="2.3098">
        <ele>61.1</ele>
        <time>2024-01-12T12:33:29Z</time>
      </trkpt>
      <trkpt lat="49.87029" lon="2.3098">
        <ele>61.1</ele>
        <time>2024-01-12T12:33:30Z</time>
      </trkpt>
      <trkpt lat="49.87029" lon="2.3098">
        <ele>61.1</ele>
        <time>2024-01-12T12:33:31Z</time>
      </trkpt>
      <trkpt lat="49.87029" lon="2.3098">
        <ele>61.1</ele>
        <time>2024-01-12T12:33:32Z</time>
      </trkpt>
      <trkpt lat="49.87029" lon="2.3098">
        <ele>61.1</ele>
        <time>2024-01-12T12:33:33Z</time>
      </trkpt>
      <trkpt lat="49.87029" lon="2.3098">
        <ele>61.1</ele>
        <time>2024-01-12T12:33:34Z</time>
      </trkpt>
      <trkpt lat="49.87029" lon="2.3098">
        <ele>61.1</ele>
        <time>2024-01-12T12:33:35Z</time>
      </trkpt>
      <trkpt lat="49.87029" lon="2.3098">
        <ele>61.1</ele>
        <time>2024-01-12T12:33:36Z</time>
      </trkpt>
      <trkpt lat="49.87029" lon="2.3098">
        <ele>61.1</ele>
        <time>2024-01-12T12:33:37Z</time>
      </trkpt>
      <trkpt lat="49.87029" lon="2.3098">
        <ele>61.1</ele>
        <time>2024-01-12T12:33:38Z</time>
      </trkpt>
      <trkpt lat="49.87029" lon="2.3098">
        <ele>61.1</ele>
        <time>2024-01-12T12:33:39Z</time>
      </trkpt>
      <trkpt lat="49.87027" lon="2.30978">
        <ele>61.1</ele>
        <time>2024-01-12T12:33:54Z</time>
      </trkpt>
      <trkpt lat="49.87027" lon="2.30977">
        <ele>61.1</ele>
        <time>2024-01-12T12:33:55Z</time>
      </trkpt>
      <trkpt lat="49.87026" lon="2.30977">
        <ele>61.1</ele>
        <time>2024-01-12T12:33:56Z</time>
      </trkpt>
      <trkpt lat="49.87025" lon="2.30976">
        <ele>61.1</ele>
        <time>2024-01-12T12:33:57Z</time>
      </trkpt>
      <trkpt lat="49.87025" lon="2.30976">
        <ele>61.1</ele>
        <time>2024-01-12T12:33:58Z</time>
      </trkpt>
      <trkpt lat="49.87024" lon="2.30975">
        <ele>61.1</ele>
        <time>2024-01-12T12:33:59Z</time>
      </trkpt>
      <trkpt lat="49.87024" lon="2.30975">
        <ele>61.1</ele>
        <time>2024-01-12T12:34:00Z</time>
      </trkpt>
      <trkpt lat="49.87024" lon="2.30975">
        <ele>61.1</ele>
        <time>2024-01-12T12:34:01Z</time>
      </trkpt>
      <trkpt lat="49.87023" lon="2.30975">
        <ele>61.1</ele>
        <time>2024-01-12T12:34:02Z</time>
      </trkpt>
      <trkpt lat="49.87023" lon="2.30975">
        <ele>61.1</ele>
        <time>2024-01-12T12:34:03Z</time>
      </trkpt>
      <trkpt lat="49.87023" lon="2.30975">
        <ele>61.1</ele>
        <time>2024-01-12T12:34:04Z</time>
      </trkpt>
      <trkpt lat="49.87022" lon="2.30975">
        <ele>61.1</ele>
        <time>2024-01-12T12:34:05Z</time>
      </trkpt>
      <trkpt lat="49.87021" lon="2.30975">
        <ele>61.1</ele>
        <time>2024-01-12T12:34:06Z</time>
      </trkpt>
      <trkpt lat="49.8702" lon="2.30975">
        <ele>61.1</ele>
        <time>2024-01-12T12:34:07Z</time>
      </trkpt>
      <trkpt lat="49.87019" lon="2.30976">
        <ele>61.1</ele>
        <time>2024-01-12T12:34:08Z</time>
      </trkpt>
      <trkpt lat="49.87018" lon="2.30976">
        <ele>61.1</ele>
        <time>2024-01-12T12:34:09Z</time>
      </trkpt>
      <trkpt lat="49.87018" lon="2.30976">
        <ele>61.1</ele>
        <time>2024-01-12T12:34:10Z</time>
      </trkpt>
      <trkpt lat="49.87017" lon="2.30976">
        <ele>61.1</ele>
        <time>2024-01-12T12:34:11Z</time>
      </trkpt>
      <trkpt lat="49.87016" lon="2.30976">
        <ele>61.1</ele>
        <time>2024-01-12T12:34:12Z</time>
      </trkpt>
      <trkpt lat="49.87015" lon="2.30977">
        <ele>61.1</ele>
        <time>2024-01-12T12:34:13Z</time>
      </trkpt>
      <trkpt lat="49.87014" lon="2.30977">
        <ele>61.1</ele>
        <time>2024-01-12T12:34:14Z</time>
      </trkpt>
      <trkpt lat="49.87012" lon="2.30977">
        <ele>61.1</ele>
        <time>2024-01-12T12:34:15Z</time>
      </trkpt>
      <trkpt lat="49.87011" lon="2.30977">
        <ele>61.1</ele>
        <time>2024-01-12T12:34:16Z</time>
      </trkpt>
      <trkpt lat="49.8701" lon="2.30977">
        <ele>61.1</ele>
        <time>2024-01-12T12:34:17Z</time>
      </trkpt>
      <trkpt lat="49.87009" lon="2.30977">
        <ele>61.1</ele>
        <time>2024-01-12T12:34:18Z</time>
      </trkpt>
      <trkpt lat="49.87008" lon="2.30978">
        <ele>61.1</ele>
        <time>2024-01-12T12:34:19Z</time>
      </trkpt>
      <trkpt lat="49.87007" lon="2.30978">
        <ele>61.1</ele>
        <time>2024-01-12T12:34:20Z</time>
      </trkpt>
      <trkpt lat="49.87005" lon="2.30979">
        <ele>61.1</ele>
        <time>2024-01-12T12:34:21Z</time>
      </trkpt>
      <trkpt lat="49.87004" lon="2.30979">
        <ele>61.1</ele>
        <time>2024-01-12T12:34:22Z</time>
      </trkpt>
      <trkpt lat="49.87003" lon="2.30979">
        <ele>61.1</ele>
        <time>2024-01-12T12:34:23Z</time>
      </trkpt>
      <trkpt lat="49.87002" lon="2.30979">
        <ele>61</ele>
        <time>2024-01-12T12:34:24Z</time>
      </trkpt>
      <trkpt lat="49.87001" lon="2.30979">
        <ele>61</ele>
        <time>2024-01-12T12:34:25Z</time>
      </trkpt>
      <trkpt lat="49.87" lon="2.30979">
        <ele>61</ele>
        <time>2024-01-12T12:34:26Z</time>
      </trkpt>
      <trkpt lat="49.86999" lon="2.30979">
        <ele>61</ele>
        <time>2024-01-12T12:34:27Z</time>
      </trkpt>
      <trkpt lat="49.86998" lon="2.30979">
        <ele>61</ele>
        <time>2024-01-12T12:34:28Z</time>
      </trkpt>
      <trkpt lat="49.86997" lon="2.30979">
        <ele>61</ele>
        <time>2024-01-12T12:34:29Z</time>
      </trkpt>
      <trkpt lat="49.86996" lon="2.3098">
        <ele>61</ele>
        <time>2024-01-12T12:34:30Z</time>
      </trkpt>
      <trkpt lat="49.86995" lon="2.3098">
        <ele>61</ele>
        <time>2024-01-12T12:34:31Z</time>
      </trkpt>
      <trkpt lat="49.86994" lon="2.3098">
        <ele>61</ele>
        <time>2024-01-12T12:34:32Z</time>
      </trkpt>
      <trkpt lat="49.86993" lon="2.30981">
        <ele>61</ele>
        <time>2024-01-12T12:34:33Z</time>
      </trkpt>
      <trkpt lat="49.86992" lon="2.30981">
        <ele>61</ele>
        <time>2024-01-12T12:34:34Z</time>
      </trkpt>
      <trkpt lat="49.8699" lon="2.30981">
        <ele>61</ele>
        <time>2024-01-12T12:34:35Z</time>
      </trkpt>
      <trkpt lat="49.86989" lon="2.30981">
        <ele>61</ele>
        <time>2024-01-12T12:34:36Z</time>
      </trkpt>
      <trkpt lat="49.86988" lon="2.30981">
        <ele>61</ele>
        <time>2024-01-12T12:34:37Z</time>
      </trkpt>
      <trkpt lat="49.86987" lon="2.30981">
        <ele>61</ele>
        <time>2024-01-12T12:34:38Z</time>
      </trkpt>
      <trkpt lat="49.86986" lon="2.30981">
        <ele>61</ele>
        <time>2024-01-12T12:34:39Z</time>
      </trkpt>
      <trkpt lat="49.86985" lon="2.30982">
        <ele>61</ele>
        <time>2024-01-12T12:34:40Z</time>
      </trkpt>
      <trkpt lat="49.86983" lon="2.30982">
        <ele>61</ele>
        <time>2024-01-12T12:34:41Z</time>
      </trkpt>
      <trkpt lat="49.86982" lon="2.30982">
        <ele>60.9</ele>
        <time>2024-01-12T12:34:42Z</time>
      </trkpt>
      <trkpt lat="49.86982" lon="2.30982">
        <ele>60.9</ele>
        <time>2024-01-12T12:34:43Z</time>
      </trkpt>
      <trkpt lat="49.86981" lon="2.30982">
        <ele>60.9</ele>
        <time>2024-01-12T12:34:44Z</time>
      </trkpt>
      <trkpt lat="49.86979" lon="2.30982">
        <ele>60.9</ele>
        <time>2024-01-12T12:34:45Z</time>
      </trkpt>
      <trkpt lat="49.86978" lon="2.30983">
        <ele>60.9</ele>
        <time>2024-01-12T12:34:46Z</time>
      </trkpt>
      <trkpt lat="49.86976" lon="2.30983">
        <ele>60.9</ele>
        <time>2024-01-12T12:34:47Z</time>
      </trkpt>
      <trkpt lat="49.86975" lon="2.30983">
        <ele>60.9</ele>
        <time>2024-01-12T12:34:48Z</time>
      </trkpt>
      <trkpt lat="49.86975" lon="2.30983">
        <ele>60.9</ele>
        <time>2024-01-12T12:34:49Z</time>
      </trkpt>
      <trkpt lat="49.86973" lon="2.30984">
        <ele>60.9</ele>
        <time>2024-01-12T12:34:50Z</time>
      </trkpt>
      <trkpt lat="49.86972" lon="2.30984">
        <ele>60.9</ele>
        <time>2024-01-12T12:34:51Z</time>
      </trkpt>
      <trkpt lat="49.86971" lon="2.30984">
        <ele>60.9</ele>
        <time>2024-01-12T12:34:52Z</time>
      </trkpt>
      <trkpt lat="49.86969" lon="2.30985">
        <ele>60.9</ele>
        <time>2024-01-12T12:34:53Z</time>
      </trkpt>
      <trkpt lat="49.86968" lon="2.30985">
        <ele>60.9</ele>
        <time>2024-01-12T12:34:54Z</time>
      </trkpt>
      <trkpt lat="49.86967" lon="2.30985">
        <ele>60.9</ele>
        <time>2024-01-12T12:34:55Z</time>
      </trkpt>
      <trkpt lat="49.86966" lon="2.30985">
        <ele>60.9</ele>
        <time>2024-01-12T12:34:56Z</time>
      </trkpt>
      <trkpt lat="49.86965" lon="2.30985">
        <ele>60.9</ele>
        <time>2024-01-12T12:34:57Z</time>
      </trkpt>
      <trkpt lat="49.86964" lon="2.30985">
        <ele>60.9</ele>
        <time>2024-01-12T12:34:58Z</time>
      </trkpt>
      <trkpt lat="49.86962" lon="2.30985">
        <ele>60.8</ele>
        <time>2024-01-12T12:34:59Z</time>
      </trkpt>
      <trkpt lat="49.86962" lon="2.30985">
        <ele>60.8</ele>
        <time>2024-01-12T12:35:00Z</time>
      </trkpt>
      <trkpt lat="49.86961" lon="2.30985">
        <ele>60.8</ele>
        <time>2024-01-12T12:35:01Z</time>
      </trkpt>
      <trkpt lat="49.86959" lon="2.30985">
        <ele>60.8</ele>
        <time>2024-01-12T12:35:02Z</time>
      </trkpt>
      <trkpt lat="49.86959" lon="2.30986">
        <ele>60.8</ele>
        <time>2024-01-12T12:35:03Z</time>
      </trkpt>
      <trkpt lat="49.86958" lon="2.30986">
        <ele>60.8</ele>
        <time>2024-01-12T12:35:04Z</time>
      </trkpt>
      <trkpt lat="49.86957" lon="2.30986">
        <ele>60.8</ele>
        <time>2024-01-12T12:35:05Z</time>
      </trkpt>
      <trkpt lat="49.86956" lon="2.30987">
        <ele>60.8</ele>
        <time>2024-01-12T12:35:06Z</time>
      </trkpt>
      <trkpt lat="49.86955" lon="2.30987">
        <ele>60.8</ele>
        <time>2024-01-12T12:35:07Z</time>
      </trkpt>
      <trkpt lat="49.86954" lon="2.30988">
        <ele>60.8</ele>
        <time>2024-01-12T12:35:08Z</time>
      </trkpt>
      <trkpt lat="49.86953" lon="2.30988">
        <ele>60.8</ele>
        <time>2024-01-12T12:35:09Z</time>
      </trkpt>
      <trkpt lat="49.86952" lon="2.30988">
        <ele>60.8</ele>
        <time>2024-01-12T12:35:10Z</time>
      </trkpt>
      <trkpt lat="49.86951" lon="2.30989">
        <ele>60.8</ele>
        <time>2024-01-12T12:35:11Z</time>
      </trkpt>
      <trkpt lat="49.8695" lon="2.3099">
        <ele>60.8</ele>
        <time>2024-01-12T12:35:12Z</time>
      </trkpt>
      <trkpt lat="49.86949" lon="2.3099">
        <ele>60.7</ele>
        <time>2024-01-12T12:35:13Z</time>
      </trkpt>
      <trkpt lat="49.86948" lon="2.30991">
        <ele>60.7</ele>
        <time>2024-01-12T12:35:14Z</time>
      </trkpt>
      <trkpt lat="49.86947" lon="2.30992">
        <ele>60.7</ele>
        <time>2024-01-12T12:35:15Z</time>
      </trkpt>
      <trkpt lat="49.86946" lon="2.30993">
        <ele>60.7</ele>
        <time>2024-01-12T12:35:16Z</time>
      </trkpt>
      <trkpt lat="49.86945" lon="2.30994">
        <ele>60.7</ele>
        <time>2024-01-12T12:35:17Z</time>
      </trkpt>
      <trkpt lat="49.86944" lon="2.30995">
        <ele>60.7</ele>
        <time>2024-01-12T12:35:18Z</time>
      </trkpt>
      <trkpt lat="49.86944" lon="2.30996">
        <ele>60.7</ele>
        <time>2024-01-12T12:35:19Z</time>
      </trkpt>
      <trkpt lat="49.86943" lon="2.30997">
        <ele>60.7</ele>
        <time>2024-01-12T12:35:20Z</time>
      </trkpt>
      <trkpt lat="49.86942" lon="2.30998">
        <ele>60.7</ele>
        <time>2024-01-12T12:35:21Z</time>
      </trkpt>
      <trkpt lat="49.86941" lon="2.30999">
        <ele>60.7</ele>
        <time>2024-01-12T12:35:22Z</time>
      </trkpt>
      <trkpt lat="49.8694" lon="2.31">
        <ele>60.7</ele>
        <time>2024-01-12T12:35:23Z</time>
      </trkpt>
      <trkpt lat="49.86938" lon="2.31002">
        <ele>60.7</ele>
        <time>2024-01-12T12:35:24Z</time>
      </trkpt>
      <trkpt lat="49.86938" lon="2.31003">
        <ele>60.7</ele>
        <time>2024-01-12T12:35:25Z</time>
      </trkpt>
      <trkpt lat="49.86937" lon="2.31003">
        <ele>60.6</ele>
        <time>2024-01-12T12:35:26Z</time>
      </trkpt>
      <trkpt lat="49.86935" lon="2.31005">
        <ele>60.6</ele>
        <time>2024-01-12T12:35:27Z</time>
      </trkpt>
      <trkpt lat="49.86935" lon="2.31006">
        <ele>60.6</ele>
        <time>2024-01-12T12:35:28Z</time>
      </trkpt>
      <trkpt lat="49.86934" lon="2.31007">
        <ele>60.6</ele>
        <time>2024-01-12T12:35:29Z</time>
      </trkpt>
      <trkpt lat="49.86933" lon="2.31008">
        <ele>60.6</ele>
        <time>2024-01-12T12:35:30Z</time>
      </trkpt>
      <trkpt lat="49.86932" lon="2.31009">
        <ele>60.6</ele>
        <time>2024-01-12T12:35:31Z</time>
      </trkpt>
      <trkpt lat="49.86932" lon="2.3101">
        <ele>60.6</ele>
        <time>2024-01-12T12:35:32Z</time>
      </trkpt>
      <trkpt lat="49.86931" lon="2.31012">
        <ele>60.6</ele>
        <time>2024-01-12T12:35:33Z</time>
      </trkpt>
      <trkpt lat="49.86931" lon="2.31013">
        <ele>60.6</ele>
        <time>2024-01-12T12:35:34Z</time>
      </trkpt>
      <trkpt lat="49.8693" lon="2.31014">
        <ele>60.6</ele>
        <time>2024-01-12T12:35:35Z</time>
      </trkpt>
      <trkpt lat="49.86929" lon="2.31016">
        <ele>60.6</ele>
        <time>2024-01-12T12:35:36Z</time>
      </trkpt>
      <trkpt lat="49.86929" lon="2.31017">
        <ele>60.6</ele>
        <time>2024-01-12T12:35:37Z</time>
      </trkpt>
      <trkpt lat="49.86928" lon="2.31019">
        <ele>60.6</ele>
        <time>2024-01-12T12:35:38Z</time>
      </trkpt>
      <trkpt lat="49.86927" lon="2.3102">
        <ele>60.5</ele>
        <time>2024-01-12T12:35:39Z</time>
      </trkpt>
      <trkpt lat="49.86926" lon="2.31022">
        <ele>60.5</ele>
        <time>2024-01-12T12:35:40Z</time>
      </trkpt>
      <trkpt lat="49.86926" lon="2.31023">
        <ele>60.5</ele>
        <time>2024-01-12T12:35:41Z</time>
      </trkpt>
      <trkpt lat="49.86925" lon="2.31026">
        <ele>60.5</ele>
        <time>2024-01-12T12:35:42Z</time>
      </trkpt>
      <trkpt lat="49.86924" lon="2.31027">
        <ele>60.5</ele>
        <time>2024-01-12T12:35:43Z</time>
      </trkpt>
      <trkpt lat="49.86924" lon="2.31028">
        <ele>60.5</ele>
        <time>2024-01-12T12:35:44Z</time>
      </trkpt>
      <trkpt lat="49.86923" lon="2.3103">
        <ele>60.5</ele>
        <time>2024-01-12T12:35:45Z</time>
      </trkpt>
      <trkpt lat="49.86922" lon="2.31032">
        <ele>60.5</ele>
        <time>2024-01-12T12:35:46Z</time>
      </trkpt>
      <trkpt lat="49.86921" lon="2.31033">
        <ele>60.5</ele>
        <time>2024-01-12T12:35:47Z</time>
      </trkpt>
      <trkpt lat="49.8692" lon="2.31035">
        <ele>60.4</ele>
        <time>2024-01-12T12:35:48Z</time>
      </trkpt>
      <trkpt lat="49.86919" lon="2.31038">
        <ele>60.4</ele>
        <time>2024-01-12T12:35:49Z</time>
      </trkpt>
      <trkpt lat="49.86919" lon="2.3104">
        <ele>60.4</ele>
        <time>2024-01-12T12:35:50Z</time>
      </trkpt>
      <trkpt lat="49.86919" lon="2.31041">
        <ele>60.4</ele>
        <time>2024-01-12T12:35:51Z</time>
      </trkpt>
      <trkpt lat="49.86918" lon="2.31043">
        <ele>60.4</ele>
        <time>2024-01-12T12:35:52Z</time>
      </trkpt>
      <trkpt lat="49.86918" lon="2.31045">
        <ele>60.4</ele>
        <time>2024-01-12T12:35:53Z</time>
      </trkpt>
      <trkpt lat="49.86917" lon="2.31047">
        <ele>60.4</ele>
        <time>2024-01-12T12:35:54Z</time>
      </trkpt>
      <trkpt lat="49.86917" lon="2.31049">
        <ele>60.4</ele>
        <time>2024-01-12T12:35:55Z</time>
      </trkpt>
      <trkpt lat="49.86916" lon="2.31052">
        <ele>60.4</ele>
        <time>2024-01-12T12:35:56Z</time>
      </trkpt>
      <trkpt lat="49.86916" lon="2.31054">
        <ele>60.3</ele>
        <time>2024-01-12T12:35:57Z</time>
      </trkpt>
      <trkpt lat="49.86915" lon="2.31056">
        <ele>60.3</ele>
        <time>2024-01-12T12:35:58Z</time>
      </trkpt>
      <trkpt lat="49.86915" lon="2.31058">
        <ele>60.3</ele>
        <time>2024-01-12T12:35:59Z</time>
      </trkpt>
      <trkpt lat="49.86915" lon="2.31061">
        <ele>60.3</ele>
        <time>2024-01-12T12:36:00Z</time>
      </trkpt>
      <trkpt lat="49.86915" lon="2.31062">
        <ele>60.3</ele>
        <time>2024-01-12T12:36:01Z</time>
      </trkpt>
      <trkpt lat="49.86915" lon="2.31064">
        <ele>60.3</ele>
        <time>2024-01-12T12:36:02Z</time>
      </trkpt>
      <trkpt lat="49.86914" lon="2.31067">
        <ele>60.3</ele>
        <time>2024-01-12T12:36:03Z</time>
      </trkpt>
      <trkpt lat="49.86914" lon="2.31068">
        <ele>60.3</ele>
        <time>2024-01-12T12:36:04Z</time>
      </trkpt>
      <trkpt lat="49.86914" lon="2.3107">
        <ele>60.3</ele>
        <time>2024-01-12T12:36:05Z</time>
      </trkpt>
      <trkpt lat="49.86913" lon="2.31072">
        <ele>60.3</ele>
        <time>2024-01-12T12:36:06Z</time>
      </trkpt>
      <trkpt lat="49.86913" lon="2.31074">
        <ele>60.2</ele>
        <time>2024-01-12T12:36:07Z</time>
      </trkpt>
      <trkpt lat="49.86913" lon="2.31077">
        <ele>60.2</ele>
        <time>2024-01-12T12:36:08Z</time>
      </trkpt>
      <trkpt lat="49.86913" lon="2.31079">
        <ele>60.2</ele>
        <time>2024-01-12T12:36:09Z</time>
      </trkpt>
      <trkpt lat="49.86913" lon="2.3108">
        <ele>60.2</ele>
        <time>2024-01-12T12:36:10Z</time>
      </trkpt>
      <trkpt lat="49.86913" lon="2.31083">
        <ele>60.2</ele>
        <time>2024-01-12T12:36:11Z</time>
      </trkpt>
      <trkpt lat="49.86913" lon="2.31085">
        <ele>60.2</ele>
        <time>2024-01-12T12:36:12Z</time>
      </trkpt>
      <trkpt lat="49.86913" lon="2.31086">
        <ele>60.2</ele>
        <time>2024-01-12T12:36:13Z</time>
      </trkpt>
      <trkpt lat="49.86913" lon="2.31089">
        <ele>60.2</ele>
        <time>2024-01-12T12:36:14Z</time>
      </trkpt>
      <trkpt lat="49.86913" lon="2.31091">
        <ele>60.2</ele>
        <time>2024-01-12T12:36:15Z</time>
      </trkpt>
      <trkpt lat="49.86913" lon="2.31092">
        <ele>60.2</ele>
        <time>2024-01-12T12:36:16Z</time>
      </trkpt>
      <trkpt lat="49.86914" lon="2.31095">
        <ele>60.2</ele>
        <time>2024-01-12T12:36:17Z</time>
      </trkpt>
      <trkpt lat="49.86914" lon="2.31096">
        <ele>60.1</ele>
        <time>2024-01-12T12:36:18Z</time>
      </trkpt>
      <trkpt lat="49.86914" lon="2.31098">
        <ele>60.1</ele>
        <time>2024-01-12T12:36:19Z</time>
      </trkpt>
      <trkpt lat="49.86914" lon="2.311">
        <ele>60.1</ele>
        <time>2024-01-12T12:36:20Z</time>
      </trkpt>
      <trkpt lat="49.86914" lon="2.31101">
        <ele>60.1</ele>
        <time>2024-01-12T12:36:21Z</time>
      </trkpt>
      <trkpt lat="49.86915" lon="2.31103">
        <ele>60.1</ele>
        <time>2024-01-12T12:36:22Z</time>
      </trkpt>
      <trkpt lat="49.86915" lon="2.31105">
        <ele>60.1</ele>
        <time>2024-01-12T12:36:23Z</time>
      </trkpt>
      <trkpt lat="49.86915" lon="2.31106">
        <ele>60.1</ele>
        <time>2024-01-12T12:36:24Z</time>
      </trkpt>
      <trkpt lat="49.86915" lon="2.31108">
        <ele>60.1</ele>
        <time>2024-01-12T12:36:25Z</time>
      </trkpt>
      <trkpt lat="49.86916" lon="2.31111">
        <ele>60.1</ele>
        <time>2024-01-12T12:36:26Z</time>
      </trkpt>
      <trkpt lat="49.86917" lon="2.31112">
        <ele>60.1</ele>
        <time>2024-01-12T12:36:27Z</time>
      </trkpt>
      <trkpt lat="49.86917" lon="2.31114">
        <ele>60.1</ele>
        <time>2024-01-12T12:36:28Z</time>
      </trkpt>
      <trkpt lat="49.86917" lon="2.31116">
        <ele>60.1</ele>
        <time>2024-01-12T12:36:29Z</time>
      </trkpt>
      <trkpt lat="49.86918" lon="2.31118">
        <ele>60.1</ele>
        <time>2024-01-12T12:36:30Z</time>
      </trkpt>
      <trkpt lat="49.86918" lon="2.3112">
        <ele>60.1</ele>
        <time>2024-01-12T12:36:31Z</time>
      </trkpt>
      <trkpt lat="49.86919" lon="2.31122">
        <ele>60.1</ele>
        <time>2024-01-12T12:36:32Z</time>
      </trkpt>
      <trkpt lat="49.86919" lon="2.31124">
        <ele>60.1</ele>
        <time>2024-01-12T12:36:33Z</time>
      </trkpt>
      <trkpt lat="49.86919" lon="2.31126">
        <ele>60.1</ele>
        <time>2024-01-12T12:36:34Z</time>
      </trkpt>
      <trkpt lat="49.8692" lon="2.31129">
        <ele>60.1</ele>
        <time>2024-01-12T12:36:35Z</time>
      </trkpt>
      <trkpt lat="49.8692" lon="2.31131">
        <ele>60.1</ele>
        <time>2024-01-12T12:36:36Z</time>
      </trkpt>
      <trkpt lat="49.8692" lon="2.31132">
        <ele>60.1</ele>
        <time>2024-01-12T12:36:37Z</time>
      </trkpt>
      <trkpt lat="49.86921" lon="2.31135">
        <ele>60.1</ele>
        <time>2024-01-12T12:36:38Z</time>
      </trkpt>
      <trkpt lat="49.86921" lon="2.31136">
        <ele>60.1</ele>
        <time>2024-01-12T12:36:39Z</time>
      </trkpt>
      <trkpt lat="49.86921" lon="2.31137">
        <ele>60.1</ele>
        <time>2024-01-12T12:36:40Z</time>
      </trkpt>
      <trkpt lat="49.86922" lon="2.31139">
        <ele>60.1</ele>
        <time>2024-01-12T12:36:41Z</time>
      </trkpt>
      <trkpt lat="49.86922" lon="2.3114">
        <ele>60.1</ele>
        <time>2024-01-12T12:36:42Z</time>
      </trkpt>
      <trkpt lat="49.86922" lon="2.31142">
        <ele>60.1</ele>
        <time>2024-01-12T12:36:43Z</time>
      </trkpt>
      <trkpt lat="49.86922" lon="2.31144">
        <ele>60.1</ele>
        <time>2024-01-12T12:36:44Z</time>
      </trkpt>
      <trkpt lat="49.86923" lon="2.31145">
        <ele>60.1</ele>
        <time>2024-01-12T12:36:45Z</time>
      </trkpt>
      <trkpt lat="49.86923" lon="2.31147">
        <ele>60.1</ele>
        <time>2024-01-12T12:36:46Z</time>
      </trkpt>
      <trkpt lat="49.86923" lon="2.3115">
        <ele>60.1</ele>
        <time>2024-01-12T12:36:47Z</time>
      </trkpt>
      <trkpt lat="49.86924" lon="2.31151">
        <ele>60.1</ele>
        <time>2024-01-12T12:36:48Z</time>
      </trkpt>
      <trkpt lat="49.86924" lon="2.31153">
        <ele>60.1</ele>
        <time>2024-01-12T12:36:49Z</time>
      </trkpt>
      <trkpt lat="49.86925" lon="2.31156">
        <ele>60.1</ele>
        <time>2024-01-12T12:36:50Z</time>
      </trkpt>
      <trkpt lat="49.86925" lon="2.31157">
        <ele>60.1</ele>
        <time>2024-01-12T12:36:51Z</time>
      </trkpt>
      <trkpt lat="49.86925" lon="2.31158">
        <ele>60.1</ele>
        <time>2024-01-12T12:36:52Z</time>
      </trkpt>
      <trkpt lat="49.86926" lon="2.3116">
        <ele>60.2</ele>
        <time>2024-01-12T12:36:53Z</time>
      </trkpt>
      <trkpt lat="49.86926" lon="2.31161">
        <ele>60.2</ele>
        <time>2024-01-12T12:36:54Z</time>
      </trkpt>
      <trkpt lat="49.86926" lon="2.31163">
        <ele>60.2</ele>
        <time>2024-01-12T12:36:55Z</time>
      </trkpt>
      <trkpt lat="49.86927" lon="2.31164">
        <ele>60.2</ele>
        <time>2024-01-12T12:36:56Z</time>
      </trkpt>
      <trkpt lat="49.86927" lon="2.31166">
        <ele>60.2</ele>
        <time>2024-01-12T12:36:57Z</time>
      </trkpt>
      <trkpt lat="49.86927" lon="2.31167">
        <ele>60.2</ele>
        <time>2024-01-12T12:36:58Z</time>
      </trkpt>
      <trkpt lat="49.86927" lon="2.31168">
        <ele>60.2</ele>
        <time>2024-01-12T12:36:59Z</time>
      </trkpt>
      <trkpt lat="49.86928" lon="2.3117">
        <ele>60.2</ele>
        <time>2024-01-12T12:37:00Z</time>
      </trkpt>
      <trkpt lat="49.86928" lon="2.31171">
        <ele>60.2</ele>
        <time>2024-01-12T12:37:01Z</time>
      </trkpt>
      <trkpt lat="49.86928" lon="2.31172">
        <ele>60.2</ele>
        <time>2024-01-12T12:37:02Z</time>
      </trkpt>
      <trkpt lat="49.86928" lon="2.31173">
        <ele>60.2</ele>
        <time>2024-01-12T12:37:03Z</time>
      </trkpt>
      <trkpt lat="49.86928" lon="2.31175">
        <ele>60.2</ele>
        <time>2024-01-12T12:37:04Z</time>
      </trkpt>
      <trkpt lat="49.86928" lon="2.31176">
        <ele>60.2</ele>
        <time>2024-01-12T12:37:05Z</time>
      </trkpt>
      <trkpt lat="49.86928" lon="2.31177">
        <ele>60.3</ele>
        <time>2024-01-12T12:37:06Z</time>
      </trkpt>
      <trkpt lat="49.86928" lon="2.31179">
        <ele>60.3</ele>
        <time>2024-01-12T12:37:07Z</time>
      </trkpt>
      <trkpt lat="49.86928" lon="2.3118">
        <ele>60.3</ele>
        <time>2024-01-12T12:37:08Z</time>
      </trkpt>
      <trkpt lat="49.86927" lon="2.31181">
        <ele>60.3</ele>
        <time>2024-01-12T12:37:09Z</time>
      </trkpt>
      <trkpt lat="49.86927" lon="2.31182">
        <ele>60.3</ele>
        <time>2024-01-12T12:37:10Z</time>
      </trkpt>
      <trkpt lat="49.86926" lon="2.31184">
        <ele>60.4</ele>
        <time>2024-01-12T12:37:11Z</time>
      </trkpt>
      <trkpt lat="49.86926" lon="2.31185">
        <ele>60.4</ele>
        <time>2024-01-12T12:37:12Z</time>
      </trkpt>
      <trkpt lat="49.86925" lon="2.31186">
        <ele>60.4</ele>
        <time>2024-01-12T12:37:13Z</time>
      </trkpt>
      <trkpt lat="49.86925" lon="2.31187">
        <ele>60.4</ele>
        <time>2024-01-12T12:37:14Z</time>
      </trkpt>
      <trkpt lat="49.86924" lon="2.31188">
        <ele>60.4</ele>
        <time>2024-01-12T12:37:15Z</time>
      </trkpt>
      <trkpt lat="49.86924" lon="2.31188">
        <ele>60.4</ele>
        <time>2024-01-12T12:37:16Z</time>
      </trkpt>
      <trkpt lat="49.86923" lon="2.31189">
        <ele>60.5</ele>
        <time>2024-01-12T12:37:17Z</time>
      </trkpt>
      <trkpt lat="49.86922" lon="2.31189">
        <ele>60.5</ele>
        <time>2024-01-12T12:37:18Z</time>
      </trkpt>
      <trkpt lat="49.86921" lon="2.31189">
        <ele>60.5</ele>
        <time>2024-01-12T12:37:19Z</time>
      </trkpt>
      <trkpt lat="49.86921" lon="2.3119">
        <ele>60.5</ele>
        <time>2024-01-12T12:37:20Z</time>
      </trkpt>
      <trkpt lat="49.8692" lon="2.3119">
        <ele>60.5</ele>
        <time>2024-01-12T12:37:21Z</time>
      </trkpt>
      <trkpt lat="49.86919" lon="2.31191">
        <ele>60.5</ele>
        <time>2024-01-12T12:37:22Z</time>
      </trkpt>
      <trkpt lat="49.86919" lon="2.31191">
        <ele>60.5</ele>
        <time>2024-01-12T12:37:23Z</time>
      </trkpt>
      <trkpt lat="49.86918" lon="2.31192">
        <ele>60.5</ele>
        <time>2024-01-12T12:37:24Z</time>
      </trkpt>
      <trkpt lat="49.86917" lon="2.31193">
        <ele>60.6</ele>
        <time>2024-01-12T12:37:25Z</time>
      </trkpt>
      <trkpt lat="49.86916" lon="2.31194">
        <ele>60.6</ele>
        <time>2024-01-12T12:37:26Z</time>
      </trkpt>
      <trkpt lat="49.86915" lon="2.31194">
        <ele>60.6</ele>
        <time>2024-01-12T12:37:27Z</time>
      </trkpt>
      <trkpt lat="49.86914" lon="2.31194">
        <ele>60.6</ele>
        <time>2024-01-12T12:37:28Z</time>
      </trkpt>
      <trkpt lat="49.86913" lon="2.31195">
        <ele>60.6</ele>
        <time>2024-01-12T12:37:29Z</time>
      </trkpt>
      <trkpt lat="49.86912" lon="2.31195">
        <ele>60.7</ele>
        <time>2024-01-12T12:37:30Z</time>
      </trkpt>
      <trkpt lat="49.86911" lon="2.31196">
        <ele>60.7</ele>
        <time>2024-01-12T12:37:31Z</time>
      </trkpt>
      <trkpt lat="49.8691" lon="2.31197">
        <ele>60.7</ele>
        <time>2024-01-12T12:37:32Z</time>
      </trkpt>
      <trkpt lat="49.8691" lon="2.31197">
        <ele>60.7</ele>
        <time>2024-01-12T12:37:33Z</time>
      </trkpt>
      <trkpt lat="49.86909" lon="2.31198">
        <ele>60.7</ele>
        <time>2024-01-12T12:37:34Z</time>
      </trkpt>
      <trkpt lat="49.86908" lon="2.31199">
        <ele>60.7</ele>
        <time>2024-01-12T12:37:35Z</time>
      </trkpt>
      <trkpt lat="49.86907" lon="2.312">
        <ele>60.7</ele>
        <time>2024-01-12T12:37:36Z</time>
      </trkpt>
      <trkpt lat="49.86907" lon="2.31201">
        <ele>60.8</ele>
        <time>2024-01-12T12:37:37Z</time>
      </trkpt>
      <trkpt lat="49.86906" lon="2.31202">
        <ele>60.8</ele>
        <time>2024-01-12T12:37:38Z</time>
      </trkpt>
      <trkpt lat="49.86905" lon="2.31203">
        <ele>60.8</ele>
        <time>2024-01-12T12:37:39Z</time>
      </trkpt>
      <trkpt lat="49.86905" lon="2.31204">
        <ele>60.8</ele>
        <time>2024-01-12T12:37:40Z</time>
      </trkpt>
      <trkpt lat="49.86904" lon="2.31206">
        <ele>60.8</ele>
        <time>2024-01-12T12:37:41Z</time>
      </trkpt>
      <trkpt lat="49.86903" lon="2.31207">
        <ele>60.8</ele>
        <time>2024-01-12T12:37:42Z</time>
      </trkpt>
      <trkpt lat="49.86903" lon="2.31208">
        <ele>60.8</ele>
        <time>2024-01-12T12:37:43Z</time>
      </trkpt>
      <trkpt lat="49.86903" lon="2.31209">
        <ele>60.9</ele>
        <time>2024-01-12T12:37:44Z</time>
      </trkpt>
      <trkpt lat="49.86902" lon="2.3121">
        <ele>60.9</ele>
        <time>2024-01-12T12:37:45Z</time>
      </trkpt>
      <trkpt lat="49.86902" lon="2.31211">
        <ele>60.9</ele>
        <time>2024-01-12T12:37:46Z</time>
      </trkpt>
      <trkpt lat="49.86902" lon="2.31211">
        <ele>60.9</ele>
        <time>2024-01-12T12:37:47Z</time>
      </trkpt>
      <trkpt lat="49.86901" lon="2.31212">
        <ele>60.9</ele>
        <time>2024-01-12T12:37:48Z</time>
      </trkpt>
      <trkpt lat="49.86901" lon="2.31213">
        <ele>60.9</ele>
        <time>2024-01-12T12:37:49Z</time>
      </trkpt>
      <trkpt lat="49.869" lon="2.31214">
        <ele>60.9</ele>
        <time>2024-01-12T12:37:50Z</time>
      </trkpt>
      <trkpt lat="49.86899" lon="2.31215">
        <ele>60.9</ele>
        <time>2024-01-12T12:37:51Z</time>
      </trkpt>
      <trkpt lat="49.86898" lon="2.31216">
        <ele>61</ele>
        <time>2024-01-12T12:37:52Z</time>
      </trkpt>
      <trkpt lat="49.86897" lon="2.31216">
        <ele>61</ele>
        <time>2024-01-12T12:37:53Z</time>
      </trkpt>
      <trkpt lat="49.86896" lon="2.31217">
        <ele>61</ele>
        <time>2024-01-12T12:37:54Z</time>
      </trkpt>
      <trkpt lat="49.86896" lon="2.31218">
        <ele>61</ele>
        <time>2024-01-12T12:37:55Z</time>
      </trkpt>
      <trkpt lat="49.86895" lon="2.31219">
        <ele>61</ele>
        <time>2024-01-12T12:37:56Z</time>
      </trkpt>
      <trkpt lat="49.86895" lon="2.3122">
        <ele>61</ele>
        <time>2024-01-12T12:37:57Z</time>
      </trkpt>
      <trkpt lat="49.86894" lon="2.31221">
        <ele>61</ele>
        <time>2024-01-12T12:37:58Z</time>
      </trkpt>
      <trkpt lat="49.86894" lon="2.31223">
        <ele>61</ele>
        <time>2024-01-12T12:37:59Z</time>
      </trkpt>
      <trkpt lat="49.86894" lon="2.31223">
        <ele>61.1</ele>
        <time>2024-01-12T12:38:00Z</time>
      </trkpt>
      <trkpt lat="49.86894" lon="2.31224">
        <ele>61.1</ele>
        <time>2024-01-12T12:38:01Z</time>
      </trkpt>
      <trkpt lat="49.86893" lon="2.31225">
        <ele>61.1</ele>
        <time>2024-01-12T12:38:02Z</time>
      </trkpt>
      <trkpt lat="49.86893" lon="2.31226">
        <ele>61.1</ele>
        <time>2024-01-12T12:38:03Z</time>
      </trkpt>
      <trkpt lat="49.86893" lon="2.31227">
        <ele>61.1</ele>
        <time>2024-01-12T12:38:04Z</time>
      </trkpt>
      <trkpt lat="49.86892" lon="2.31227">
        <ele>61.1</ele>
        <time>2024-01-12T12:38:05Z</time>
      </trkpt>
      <trkpt lat="49.86892" lon="2.31227">
        <ele>61.1</ele>
        <time>2024-01-12T12:38:06Z</time>
      </trkpt>
      <trkpt lat="49.86892" lon="2.31228">
        <ele>61.1</ele>
        <time>2024-01-12T12:38:07Z</time>
      </trkpt>
      <trkpt lat="49.86892" lon="2.31228">
        <ele>61.1</ele>
        <time>2024-01-12T12:38:08Z</time>
      </trkpt>
      <trkpt lat="49.86892" lon="2.31229">
        <ele>61.1</ele>
        <time>2024-01-12T12:38:09Z</time>
      </trkpt>
      <trkpt lat="49.86891" lon="2.3123">
        <ele>61.1</ele>
        <time>2024-01-12T12:38:10Z</time>
      </trkpt>
      <trkpt lat="49.86891" lon="2.31231">
        <ele>61.1</ele>
        <time>2024-01-12T12:38:11Z</time>
      </trkpt>
      <trkpt lat="49.86891" lon="2.31232">
        <ele>61.2</ele>
        <time>2024-01-12T12:38:12Z</time>
      </trkpt>
      <trkpt lat="49.8689" lon="2.31234">
        <ele>61.2</ele>
        <time>2024-01-12T12:38:13Z</time>
      </trkpt>
      <trkpt lat="49.86889" lon="2.31236">
        <ele>61.2</ele>
        <time>2024-01-12T12:38:14Z</time>
      </trkpt>
      <trkpt lat="49.86889" lon="2.31239">
        <ele>61.2</ele>
        <time>2024-01-12T12:38:15Z</time>
      </trkpt>
      <trkpt lat="49.86888" lon="2.31242">
        <ele>61.3</ele>
        <time>2024-01-12T12:38:16Z</time>
      </trkpt>
      <trkpt lat="49.86888" lon="2.31243">
        <ele>61.3</ele>
        <time>2024-01-12T12:38:17Z</time>
      </trkpt>
      <trkpt lat="49.86887" lon="2.31244">
        <ele>61.3</ele>
        <time>2024-01-12T12:38:18Z</time>
      </trkpt>
      <trkpt lat="49.86887" lon="2.31245">
        <ele>61.3</ele>
        <time>2024-01-12T12:38:19Z</time>
      </trkpt>
      <trkpt lat="49.86886" lon="2.31247">
        <ele>61.3</ele>
        <time>2024-01-12T12:38:20Z</time>
      </trkpt>
      <trkpt lat="49.86886" lon="2.31248">
        <ele>61.3</ele>
        <time>2024-01-12T12:38:21Z</time>
      </trkpt>
      <trkpt lat="49.86885" lon="2.31249">
        <ele>61.3</ele>
        <time>2024-01-12T12:38:22Z</time>
      </trkpt>
      <trkpt lat="49.86885" lon="2.3125">
        <ele>61.4</ele>
        <time>2024-01-12T12:38:23Z</time>
      </trkpt>
      <trkpt lat="49.86884" lon="2.31251">
        <ele>61.4</ele>
        <time>2024-01-12T12:38:24Z</time>
      </trkpt>
      <trkpt lat="49.86884" lon="2.31252">
        <ele>61.4</ele>
        <time>2024-01-12T12:38:25Z</time>
      </trkpt>
      <trkpt lat="49.86884" lon="2.31253">
        <ele>61.4</ele>
        <time>2024-01-12T12:38:26Z</time>
      </trkpt>
      <trkpt lat="49.86884" lon="2.31253">
        <ele>61.4</ele>
        <time>2024-01-12T12:38:27Z</time>
      </trkpt>
      <trkpt lat="49.86883" lon="2.31253">
        <ele>61.4</ele>
        <time>2024-01-12T12:38:28Z</time>
      </trkpt>
      <trkpt lat="49.86883" lon="2.31253">
        <ele>61.4</ele>
        <time>2024-01-12T12:38:29Z</time>
      </trkpt>
      <trkpt lat="49.86884" lon="2.31253">
        <ele>61.4</ele>
        <time>2024-01-12T12:38:30Z</time>
      </trkpt>
      <trkpt lat="49.86884" lon="2.31253">
        <ele>61.4</ele>
        <time>2024-01-12T12:38:31Z</time>
      </trkpt>
      <trkpt lat="49.86884" lon="2.31253">
        <ele>61.4</ele>
        <time>2024-01-12T12:38:32Z</time>
      </trkpt>
      <trkpt lat="49.86884" lon="2.31253">
        <ele>61.4</ele>
        <time>2024-01-12T12:38:33Z</time>
      </trkpt>
      <trkpt lat="49.86884" lon="2.31253">
        <ele>61.4</ele>
        <time>2024-01-12T12:38:34Z</time>
      </trkpt>
      <trkpt lat="49.86884" lon="2.31252">
        <ele>61.4</ele>
        <time>2024-01-12T12:38:35Z</time>
      </trkpt>
      <trkpt lat="49.86884" lon="2.31252">
        <ele>61.4</ele>
        <time>2024-01-12T12:38:36Z</time>
      </trkpt>
      <trkpt lat="49.86884" lon="2.31252">
        <ele>61.4</ele>
        <time>2024-01-12T12:38:37Z</time>
      </trkpt>
      <trkpt lat="49.86884" lon="2.31252">
        <ele>61.4</ele>
        <time>2024-01-12T12:38:38Z</time>
      </trkpt>
      <trkpt lat="49.86884" lon="2.31252">
        <ele>61.4</ele>
        <time>2024-01-12T12:38:39Z</time>
      </trkpt>
      <trkpt lat="49.86884" lon="2.31252">
        <ele>61.4</ele>
        <time>2024-01-12T12:38:40Z</time>
      </trkpt>
      <trkpt lat="49.86884" lon="2.31252">
        <ele>61.4</ele>
        <time>2024-01-12T12:38:41Z</time>
      </trkpt>
      <trkpt lat="49.86884" lon="2.31252">
        <ele>61.4</ele>
        <time>2024-01-12T12:38:42Z</time>
      </trkpt>
      <trkpt lat="49.86884" lon="2.31252">
        <ele>61.4</ele>
        <time>2024-01-12T12:38:43Z</time>
      </trkpt>
      <trkpt lat="49.86884" lon="2.31252">
        <ele>61.4</ele>
        <time>2024-01-12T12:38:44Z</time>
      </trkpt>
      <trkpt lat="49.86887" lon="2.31252">
        <ele>61.5</ele>
        <time>2024-01-12T13:01:17Z</time>
      </trkpt>
      <trkpt lat="49.86887" lon="2.31253">
        <ele>61.5</ele>
        <time>2024-01-12T13:01:18Z</time>
      </trkpt>
      <trkpt lat="49.86887" lon="2.31254">
        <ele>61.5</ele>
        <time>2024-01-12T13:01:19Z</time>
      </trkpt>
      <trkpt lat="49.86886" lon="2.31255">
        <ele>61.5</ele>
        <time>2024-01-12T13:01:20Z</time>
      </trkpt>
      <trkpt lat="49.86886" lon="2.31256">
        <ele>61.5</ele>
        <time>2024-01-12T13:01:21Z</time>
      </trkpt>
      <trkpt lat="49.86885" lon="2.31257">
        <ele>61.5</ele>
        <time>2024-01-12T13:01:22Z</time>
      </trkpt>
      <trkpt lat="49.86885" lon="2.31257">
        <ele>61.5</ele>
        <time>2024-01-12T13:01:23Z</time>
      </trkpt>
      <trkpt lat="49.86885" lon="2.31258">
        <ele>61.5</ele>
        <time>2024-01-12T13:01:24Z</time>
      </trkpt>
      <trkpt lat="49.86885" lon="2.31259">
        <ele>61.5</ele>
        <time>2024-01-12T13:01:25Z</time>
      </trkpt>
      <trkpt lat="49.86884" lon="2.3126">
        <ele>61.5</ele>
        <time>2024-01-12T13:01:26Z</time>
      </trkpt>
      <trkpt lat="49.86884" lon="2.31261">
        <ele>61.6</ele>
        <time>2024-01-12T13:01:27Z</time>
      </trkpt>
      <trkpt lat="49.86884" lon="2.31262">
        <ele>61.6</ele>
        <time>2024-01-12T13:01:28Z</time>
      </trkpt>
      <trkpt lat="49.86884" lon="2.31263">
        <ele>61.6</ele>
        <time>2024-01-12T13:01:29Z</time>
      </trkpt>
      <trkpt lat="49.86884" lon="2.31263">
        <ele>61.6</ele>
        <time>2024-01-12T13:01:30Z</time>
      </trkpt>
      <trkpt lat="49.86883" lon="2.31264">
        <ele>61.6</ele>
        <time>2024-01-12T13:01:31Z</time>
      </trkpt>
      <trkpt lat="49.86882" lon="2.31267">
        <ele>61.6</ele>
        <time>2024-01-12T13:01:32Z</time>
      </trkpt>
      <trkpt lat="49.86882" lon="2.31268">
        <ele>61.6</ele>
        <time>2024-01-12T13:01:33Z</time>
      </trkpt>
      <trkpt lat="49.86881" lon="2.3127">
        <ele>61.7</ele>
        <time>2024-01-12T13:01:34Z</time>
      </trkpt>
      <trkpt lat="49.8688" lon="2.31272">
        <ele>61.7</ele>
        <time>2024-01-12T13:01:35Z</time>
      </trkpt>
      <trkpt lat="49.8688" lon="2.31274">
        <ele>61.7</ele>
        <time>2024-01-12T13:01:36Z</time>
      </trkpt>
      <trkpt lat="49.86879" lon="2.31276">
        <ele>61.7</ele>
        <time>2024-01-12T13:01:37Z</time>
      </trkpt>
      <trkpt lat="49.86878" lon="2.31278">
        <ele>61.8</ele>
        <time>2024-01-12T13:01:38Z</time>
      </trkpt>
      <trkpt lat="49.86878" lon="2.31279">
        <ele>61.8</ele>
        <time>2024-01-12T13:01:39Z</time>
      </trkpt>
      <trkpt lat="49.86877" lon="2.31281">
        <ele>61.8</ele>
        <time>2024-01-12T13:01:40Z</time>
      </trkpt>
      <trkpt lat="49.86877" lon="2.31282">
        <ele>61.8</ele>
        <time>2024-01-12T13:01:41Z</time>
      </trkpt>
      <trkpt lat="49.86876" lon="2.31284">
        <ele>61.8</ele>
        <time>2024-01-12T13:01:42Z</time>
      </trkpt>
      <trkpt lat="49.86876" lon="2.31285">
        <ele>61.8</ele>
        <time>2024-01-12T13:01:43Z</time>
      </trkpt>
      <trkpt lat="49.86875" lon="2.31287">
        <ele>61.9</ele>
        <time>2024-01-12T13:01:44Z</time>
      </trkpt>
      <trkpt lat="49.86875" lon="2.31288">
        <ele>61.9</ele>
        <time>2024-01-12T13:01:45Z</time>
      </trkpt>
      <trkpt lat="49.86875" lon="2.3129">
        <ele>61.9</ele>
        <time>2024-01-12T13:01:46Z</time>
      </trkpt>
      <trkpt lat="49.86874" lon="2.31291">
        <ele>61.9</ele>
        <time>2024-01-12T13:01:47Z</time>
      </trkpt>
      <trkpt lat="49.86874" lon="2.31292">
        <ele>61.9</ele>
        <time>2024-01-12T13:01:48Z</time>
      </trkpt>
      <trkpt lat="49.86874" lon="2.31293">
        <ele>61.9</ele>
        <time>2024-01-12T13:01:49Z</time>
      </trkpt>
      <trkpt lat="49.86874" lon="2.31294">
        <ele>61.9</ele>
        <time>2024-01-12T13:01:50Z</time>
      </trkpt>
      <trkpt lat="49.86873" lon="2.31295">
        <ele>62</ele>
        <time>2024-01-12T13:01:51Z</time>
      </trkpt>
      <trkpt lat="49.86873" lon="2.31297">
        <ele>62</ele>
        <time>2024-01-12T13:01:52Z</time>
      </trkpt>
      <trkpt lat="49.86872" lon="2.31299">
        <ele>62</ele>
        <time>2024-01-12T13:01:53Z</time>
      </trkpt>
      <trkpt lat="49.86871" lon="2.31302">
        <ele>62</ele>
        <time>2024-01-12T13:01:54Z</time>
      </trkpt>
      <trkpt lat="49.86871" lon="2.31304">
        <ele>62</ele>
        <time>2024-01-12T13:01:55Z</time>
      </trkpt>
      <trkpt lat="49.8687" lon="2.31307">
        <ele>62.1</ele>
        <time>2024-01-12T13:01:56Z</time>
      </trkpt>
      <trkpt lat="49.8687" lon="2.31309">
        <ele>62.1</ele>
        <time>2024-01-12T13:01:57Z</time>
      </trkpt>
      <trkpt lat="49.86868" lon="2.31312">
        <ele>62.1</ele>
        <time>2024-01-12T13:01:58Z</time>
      </trkpt>
      <trkpt lat="49.86868" lon="2.31313">
        <ele>62.1</ele>
        <time>2024-01-12T13:01:59Z</time>
      </trkpt>
      <trkpt lat="49.86868" lon="2.31314">
        <ele>62.1</ele>
        <time>2024-01-12T13:02:00Z</time>
      </trkpt>
      <trkpt lat="49.86867" lon="2.31315">
        <ele>62.2</ele>
        <time>2024-01-12T13:02:01Z</time>
      </trkpt>
      <trkpt lat="49.86867" lon="2.31317">
        <ele>62.2</ele>
        <time>2024-01-12T13:02:02Z</time>
      </trkpt>
      <trkpt lat="49.86866" lon="2.31319">
        <ele>62.2</ele>
        <time>2024-01-12T13:02:03Z</time>
      </trkpt>
      <trkpt lat="49.86865" lon="2.31322">
        <ele>62.2</ele>
        <time>2024-01-12T13:02:04Z</time>
      </trkpt>
      <trkpt lat="49.86865" lon="2.31323">
        <ele>62.2</ele>
        <time>2024-01-12T13:02:05Z</time>
      </trkpt>
      <trkpt lat="49.86865" lon="2.31325">
        <ele>62.2</ele>
        <time>2024-01-12T13:02:06Z</time>
      </trkpt>
      <trkpt lat="49.86864" lon="2.31328">
        <ele>62.2</ele>
        <time>2024-01-12T13:02:07Z</time>
      </trkpt>
      <trkpt lat="49.86864" lon="2.31329">
        <ele>62.2</ele>
        <time>2024-01-12T13:02:08Z</time>
      </trkpt>
      <trkpt lat="49.86863" lon="2.31331">
        <ele>62.2</ele>
        <time>2024-01-12T13:02:09Z</time>
      </trkpt>
      <trkpt lat="49.86863" lon="2.31332">
        <ele>62.2</ele>
        <time>2024-01-12T13:02:10Z</time>
      </trkpt>
      <trkpt lat="49.86863" lon="2.31334">
        <ele>62.2</ele>
        <time>2024-01-12T13:02:11Z</time>
      </trkpt>
      <trkpt lat="49.86862" lon="2.31335">
        <ele>62.2</ele>
        <time>2024-01-12T13:02:12Z</time>
      </trkpt>
      <trkpt lat="49.86862" lon="2.31336">
        <ele>62.2</ele>
        <time>2024-01-12T13:02:13Z</time>
      </trkpt>
      <trkpt lat="49.86861" lon="2.31338">
        <ele>62.2</ele>
        <time>2024-01-12T13:02:14Z</time>
      </trkpt>
      <trkpt lat="49.86861" lon="2.3134">
        <ele>62.2</ele>
        <time>2024-01-12T13:02:15Z</time>
      </trkpt>
      <trkpt lat="49.8686" lon="2.31342">
        <ele>62.2</ele>
        <time>2024-01-12T13:02:16Z</time>
      </trkpt>
      <trkpt lat="49.86859" lon="2.31344">
        <ele>62.2</ele>
        <time>2024-01-12T13:02:17Z</time>
      </trkpt>
      <trkpt lat="49.86858" lon="2.31345">
        <ele>62.3</ele>
        <time>2024-01-12T13:02:18Z</time>
      </trkpt>
      <trkpt lat="49.86858" lon="2.31347">
        <ele>62.3</ele>
        <time>2024-01-12T13:02:19Z</time>
      </trkpt>
      <trkpt lat="49.86857" lon="2.31348">
        <ele>62.3</ele>
        <time>2024-01-12T13:02:20Z</time>
      </trkpt>
      <trkpt lat="49.86856" lon="2.31349">
        <ele>62.3</ele>
        <time>2024-01-12T13:02:21Z</time>
      </trkpt>
      <trkpt lat="49.86856" lon="2.3135">
        <ele>62.3</ele>
        <time>2024-01-12T13:02:22Z</time>
      </trkpt>
      <trkpt lat="49.86855" lon="2.31351">
        <ele>62.3</ele>
        <time>2024-01-12T13:02:23Z</time>
      </trkpt>
      <trkpt lat="49.86854" lon="2.31353">
        <ele>62.3</ele>
        <time>2024-01-12T13:02:24Z</time>
      </trkpt>
      <trkpt lat="49.86854" lon="2.31353">
        <ele>62.3</ele>
        <time>2024-01-12T13:02:25Z</time>
      </trkpt>
      <trkpt lat="49.86853" lon="2.31354">
        <ele>62.3</ele>
        <time>2024-01-12T13:02:26Z</time>
      </trkpt>
      <trkpt lat="49.86853" lon="2.31355">
        <ele>62.3</ele>
        <time>2024-01-12T13:02:27Z</time>
      </trkpt>
      <trkpt lat="49.86852" lon="2.31358">
        <ele>62.3</ele>
        <time>2024-01-12T13:02:28Z</time>
      </trkpt>
      <trkpt lat="49.86851" lon="2.31359">
        <ele>62.3</ele>
        <time>2024-01-12T13:02:29Z</time>
      </trkpt>
      <trkpt lat="49.86851" lon="2.3136">
        <ele>62.3</ele>
        <time>2024-01-12T13:02:30Z</time>
      </trkpt>
      <trkpt lat="49.8685" lon="2.31362">
        <ele>62.3</ele>
        <time>2024-01-12T13:02:31Z</time>
      </trkpt>
      <trkpt lat="49.8685" lon="2.31363">
        <ele>62.3</ele>
        <time>2024-01-12T13:02:32Z</time>
      </trkpt>
      <trkpt lat="49.8685" lon="2.31365">
        <ele>62.3</ele>
        <time>2024-01-12T13:02:33Z</time>
      </trkpt>
      <trkpt lat="49.86849" lon="2.31366">
        <ele>62.3</ele>
        <time>2024-01-12T13:02:34Z</time>
      </trkpt>
      <trkpt lat="49.86849" lon="2.31368">
        <ele>62.3</ele>
        <time>2024-01-12T13:02:35Z</time>
      </trkpt>
      <trkpt lat="49.86848" lon="2.31369">
        <ele>62.2</ele>
        <time>2024-01-12T13:02:36Z</time>
      </trkpt>
      <trkpt lat="49.86848" lon="2.31371">
        <ele>62.2</ele>
        <time>2024-01-12T13:02:37Z</time>
      </trkpt>
      <trkpt lat="49.86847" lon="2.31372">
        <ele>62.2</ele>
        <time>2024-01-12T13:02:38Z</time>
      </trkpt>
      <trkpt lat="49.86847" lon="2.31374">
        <ele>62.2</ele>
        <time>2024-01-12T13:02:39Z</time>
      </trkpt>
      <trkpt lat="49.86847" lon="2.31375">
        <ele>62.2</ele>
        <time>2024-01-12T13:02:40Z</time>
      </trkpt>
      <trkpt lat="49.86846" lon="2.31377">
        <ele>62.2</ele>
        <time>2024-01-12T13:02:41Z</time>
      </trkpt>
      <trkpt lat="49.86845" lon="2.31379">
        <ele>62.2</ele>
        <time>2024-01-12T13:02:42Z</time>
      </trkpt>
      <trkpt lat="49.86844" lon="2.31381">
        <ele>62.2</ele>
        <time>2024-01-12T13:02:43Z</time>
      </trkpt>
      <trkpt lat="49.86844" lon="2.31383">
        <ele>62.2</ele>
        <time>2024-01-12T13:02:44Z</time>
      </trkpt>
      <trkpt lat="49.86844" lon="2.31384">
        <ele>62.2</ele>
        <time>2024-01-12T13:02:45Z</time>
      </trkpt>
      <trkpt lat="49.86843" lon="2.31385">
        <ele>62.2</ele>
        <time>2024-01-12T13:02:46Z</time>
      </trkpt>
      <trkpt lat="49.86843" lon="2.31387">
        <ele>62.2</ele>
        <time>2024-01-12T13:02:47Z</time>
      </trkpt>
      <trkpt lat="49.86842" lon="2.31388">
        <ele>62.2</ele>
        <time>2024-01-12T13:02:48Z</time>
      </trkpt>
      <trkpt lat="49.86841" lon="2.31391">
        <ele>62.2</ele>
        <time>2024-01-12T13:02:49Z</time>
      </trkpt>
      <trkpt lat="49.86841" lon="2.31392">
        <ele>62.2</ele>
        <time>2024-01-12T13:02:50Z</time>
      </trkpt>
      <trkpt lat="49.86841" lon="2.31392">
        <ele>62.2</ele>
        <time>2024-01-12T13:02:51Z</time>
      </trkpt>
      <trkpt lat="49.8684" lon="2.31393">
        <ele>62.2</ele>
        <time>2024-01-12T13:02:52Z</time>
      </trkpt>
      <trkpt lat="49.8684" lon="2.31395">
        <ele>62.2</ele>
        <time>2024-01-12T13:02:53Z</time>
      </trkpt>
      <trkpt lat="49.86839" lon="2.31396">
        <ele>62.2</ele>
        <time>2024-01-12T13:02:54Z</time>
      </trkpt>
      <trkpt lat="49.86839" lon="2.31397">
        <ele>62.2</ele>
        <time>2024-01-12T13:02:55Z</time>
      </trkpt>
      <trkpt lat="49.86838" lon="2.31399">
        <ele>62.2</ele>
        <time>2024-01-12T13:02:56Z</time>
      </trkpt>
      <trkpt lat="49.86838" lon="2.314">
        <ele>62.2</ele>
        <time>2024-01-12T13:02:57Z</time>
      </trkpt>
      <trkpt lat="49.86837" lon="2.31401">
        <ele>62.2</ele>
        <time>2024-01-12T13:02:58Z</time>
      </trkpt>
      <trkpt lat="49.86837" lon="2.31403">
        <ele>62.2</ele>
        <time>2024-01-12T13:02:59Z</time>
      </trkpt>
      <trkpt lat="49.86836" lon="2.31404">
        <ele>62.2</ele>
        <time>2024-01-12T13:03:00Z</time>
      </trkpt>
      <trkpt lat="49.86836" lon="2.31405">
        <ele>62.2</ele>
        <time>2024-01-12T13:03:01Z</time>
      </trkpt>
      <trkpt lat="49.86836" lon="2.31407">
        <ele>62.2</ele>
        <time>2024-01-12T13:03:02Z</time>
      </trkpt>
      <trkpt lat="49.86835" lon="2.31408">
        <ele>62.2</ele>
        <time>2024-01-12T13:03:03Z</time>
      </trkpt>
      <trkpt lat="49.86835" lon="2.31409">
        <ele>62.2</ele>
        <time>2024-01-12T13:03:04Z</time>
      </trkpt>
      <trkpt lat="49.86834" lon="2.31411">
        <ele>62.2</ele>
        <time>2024-01-12T13:03:05Z</time>
      </trkpt>
      <trkpt lat="49.86834" lon="2.31412">
        <ele>62.2</ele>
        <time>2024-01-12T13:03:06Z</time>
      </trkpt>
      <trkpt lat="49.86833" lon="2.31414">
        <ele>62.2</ele>
        <time>2024-01-12T13:03:07Z</time>
      </trkpt>
      <trkpt lat="49.86833" lon="2.31415">
        <ele>62.2</ele>
        <time>2024-01-12T13:03:08Z</time>
      </trkpt>
      <trkpt lat="49.86832" lon="2.31416">
        <ele>62.2</ele>
        <time>2024-01-12T13:03:09Z</time>
      </trkpt>
      <trkpt lat="49.86832" lon="2.31418">
        <ele>62.2</ele>
        <time>2024-01-12T13:03:10Z</time>
      </trkpt>
      <trkpt lat="49.86831" lon="2.31419">
        <ele>62.2</ele>
        <time>2024-01-12T13:03:11Z</time>
      </trkpt>
      <trkpt lat="49.86831" lon="2.31421">
        <ele>62.2</ele>
        <time>2024-01-12T13:03:12Z</time>
      </trkpt>
      <trkpt lat="49.8683" lon="2.31423">
        <ele>62.2</ele>
        <time>2024-01-12T13:03:13Z</time>
      </trkpt>
      <trkpt lat="49.8683" lon="2.31424">
        <ele>62.2</ele>
        <time>2024-01-12T13:03:14Z</time>
      </trkpt>
      <trkpt lat="49.86829" lon="2.31426">
        <ele>62.2</ele>
        <time>2024-01-12T13:03:15Z</time>
      </trkpt>
      <trkpt lat="49.86829" lon="2.31428">
        <ele>62.1</ele>
        <time>2024-01-12T13:03:16Z</time>
      </trkpt>
      <trkpt lat="49.86828" lon="2.31429">
        <ele>62.1</ele>
        <time>2024-01-12T13:03:17Z</time>
      </trkpt>
      <trkpt lat="49.86828" lon="2.3143">
        <ele>62.1</ele>
        <time>2024-01-12T13:03:18Z</time>
      </trkpt>
      <trkpt lat="49.86827" lon="2.31432">
        <ele>62.1</ele>
        <time>2024-01-12T13:03:19Z</time>
      </trkpt>
      <trkpt lat="49.86827" lon="2.31433">
        <ele>62.1</ele>
        <time>2024-01-12T13:03:20Z</time>
      </trkpt>
      <trkpt lat="49.86826" lon="2.31435">
        <ele>62.1</ele>
        <time>2024-01-12T13:03:21Z</time>
      </trkpt>
      <trkpt lat="49.86826" lon="2.31436">
        <ele>62.1</ele>
        <time>2024-01-12T13:03:22Z</time>
      </trkpt>
      <trkpt lat="49.86825" lon="2.31438">
        <ele>62.1</ele>
        <time>2024-01-12T13:03:23Z</time>
      </trkpt>
      <trkpt lat="49.86825" lon="2.31439">
        <ele>62.1</ele>
        <time>2024-01-12T13:03:24Z</time>
      </trkpt>
      <trkpt lat="49.86824" lon="2.31441">
        <ele>62.1</ele>
        <time>2024-01-12T13:03:25Z</time>
      </trkpt>
      <trkpt lat="49.86823" lon="2.31442">
        <ele>62.1</ele>
        <time>2024-01-12T13:03:26Z</time>
      </trkpt>
      <trkpt lat="49.86823" lon="2.31444">
        <ele>62.1</ele>
        <time>2024-01-12T13:03:27Z</time>
      </trkpt>
      <trkpt lat="49.86822" lon="2.31446">
        <ele>62.1</ele>
        <time>2024-01-12T13:03:28Z</time>
      </trkpt>
      <trkpt lat="49.86822" lon="2.31447">
        <ele>62.1</ele>
        <time>2024-01-12T13:03:29Z</time>
      </trkpt>
      <trkpt lat="49.86822" lon="2.31449">
        <ele>62.1</ele>
        <time>2024-01-12T13:03:30Z</time>
      </trkpt>
      <trkpt lat="49.86821" lon="2.31451">
        <ele>62.1</ele>
        <time>2024-01-12T13:03:31Z</time>
      </trkpt>
      <trkpt lat="49.86821" lon="2.31452">
        <ele>62.1</ele>
        <time>2024-01-12T13:03:32Z</time>
      </trkpt>
      <trkpt lat="49.8682" lon="2.31454">
        <ele>62.1</ele>
        <time>2024-01-12T13:03:33Z</time>
      </trkpt>
      <trkpt lat="49.86819" lon="2.31454">
        <ele>62.1</ele>
        <time>2024-01-12T13:03:34Z</time>
      </trkpt>
      <trkpt lat="49.86818" lon="2.31454">
        <ele>62.1</ele>
        <time>2024-01-12T13:03:35Z</time>
      </trkpt>
      <trkpt lat="49.86818" lon="2.31455">
        <ele>62.1</ele>
        <time>2024-01-12T13:03:36Z</time>
      </trkpt>
      <trkpt lat="49.86817" lon="2.31456">
        <ele>62.1</ele>
        <time>2024-01-12T13:03:37Z</time>
      </trkpt>
      <trkpt lat="49.86817" lon="2.31458">
        <ele>62.1</ele>
        <time>2024-01-12T13:03:38Z</time>
      </trkpt>
      <trkpt lat="49.86816" lon="2.31459">
        <ele>62.1</ele>
        <time>2024-01-12T13:03:39Z</time>
      </trkpt>
      <trkpt lat="49.86816" lon="2.31461">
        <ele>62.1</ele>
        <time>2024-01-12T13:03:40Z</time>
      </trkpt>
      <trkpt lat="49.86815" lon="2.31463">
        <ele>62.1</ele>
        <time>2024-01-12T13:03:41Z</time>
      </trkpt>
      <trkpt lat="49.86815" lon="2.31466">
        <ele>62.1</ele>
        <time>2024-01-12T13:03:42Z</time>
      </trkpt>
      <trkpt lat="49.86815" lon="2.31467">
        <ele>62.1</ele>
        <time>2024-01-12T13:03:43Z</time>
      </trkpt>
      <trkpt lat="49.86814" lon="2.31469">
        <ele>62.1</ele>
        <time>2024-01-12T13:03:44Z</time>
      </trkpt>
      <trkpt lat="49.86814" lon="2.31471">
        <ele>62.1</ele>
        <time>2024-01-12T13:03:45Z</time>
      </trkpt>
      <trkpt lat="49.86814" lon="2.31473">
        <ele>62.1</ele>
        <time>2024-01-12T13:03:46Z</time>
      </trkpt>
      <trkpt lat="49.86813" lon="2.31476">
        <ele>62.1</ele>
        <time>2024-01-12T13:03:47Z</time>
      </trkpt>
      <trkpt lat="49.86813" lon="2.31477">
        <ele>62.1</ele>
        <time>2024-01-12T13:03:48Z</time>
      </trkpt>
      <trkpt lat="49.86813" lon="2.31479">
        <ele>62.1</ele>
        <time>2024-01-12T13:03:49Z</time>
      </trkpt>
      <trkpt lat="49.86812" lon="2.3148">
        <ele>62.1</ele>
        <time>2024-01-12T13:03:50Z</time>
      </trkpt>
      <trkpt lat="49.86812" lon="2.31482">
        <ele>62.1</ele>
        <time>2024-01-12T13:03:51Z</time>
      </trkpt>
      <trkpt lat="49.86812" lon="2.31483">
        <ele>62.1</ele>
        <time>2024-01-12T13:03:52Z</time>
      </trkpt>
      <trkpt lat="49.86811" lon="2.31485">
        <ele>62.1</ele>
        <time>2024-01-12T13:03:53Z</time>
      </trkpt>
      <trkpt lat="49.86811" lon="2.31487">
        <ele>62.1</ele>
        <time>2024-01-12T13:03:54Z</time>
      </trkpt>
      <trkpt lat="49.86811" lon="2.31488">
        <ele>62.1</ele>
        <time>2024-01-12T13:03:55Z</time>
      </trkpt>
      <trkpt lat="49.8681" lon="2.3149">
        <ele>62.1</ele>
        <time>2024-01-12T13:03:56Z</time>
      </trkpt>
      <trkpt lat="49.8681" lon="2.31492">
        <ele>62.1</ele>
        <time>2024-01-12T13:03:57Z</time>
      </trkpt>
      <trkpt lat="49.8681" lon="2.31494">
        <ele>62.1</ele>
        <time>2024-01-12T13:03:58Z</time>
      </trkpt>
      <trkpt lat="49.8681" lon="2.31495">
        <ele>62.1</ele>
        <time>2024-01-12T13:03:59Z</time>
      </trkpt>
      <trkpt lat="49.8681" lon="2.31497">
        <ele>62.1</ele>
        <time>2024-01-12T13:04:00Z</time>
      </trkpt>
      <trkpt lat="49.86811" lon="2.31499">
        <ele>62.1</ele>
        <time>2024-01-12T13:04:01Z</time>
      </trkpt>
      <trkpt lat="49.86811" lon="2.315">
        <ele>62.1</ele>
        <time>2024-01-12T13:04:02Z</time>
      </trkpt>
      <trkpt lat="49.86811" lon="2.31501">
        <ele>62.1</ele>
        <time>2024-01-12T13:04:03Z</time>
      </trkpt>
      <trkpt lat="49.86812" lon="2.31502">
        <ele>62.1</ele>
        <time>2024-01-12T13:04:04Z</time>
      </trkpt>
      <trkpt lat="49.86812" lon="2.31503">
        <ele>62.1</ele>
        <time>2024-01-12T13:04:05Z</time>
      </trkpt>
      <trkpt lat="49.86813" lon="2.31504">
        <ele>62.1</ele>
        <time>2024-01-12T13:04:06Z</time>
      </trkpt>
      <trkpt lat="49.86813" lon="2.31504">
        <ele>62.1</ele>
        <time>2024-01-12T13:04:07Z</time>
      </trkpt>
      <trkpt lat="49.86813" lon="2.31505">
        <ele>62.1</ele>
        <time>2024-01-12T13:04:08Z</time>
      </trkpt>
      <trkpt lat="49.86813" lon="2.31505">
        <ele>62.1</ele>
        <time>2024-01-12T13:04:09Z</time>
      </trkpt>
      <trkpt lat="49.86813" lon="2.31505">
        <ele>62.1</ele>
        <time>2024-01-12T13:04:10Z</time>
      </trkpt>
      <trkpt lat="49.86813" lon="2.31505">
        <ele>62.1</ele>
        <time>2024-01-12T13:04:11Z</time>
      </trkpt>
      <trkpt lat="49.86813" lon="2.31505">
        <ele>62.1</ele>
        <time>2024-01-12T13:04:12Z</time>
      </trkpt>
      <trkpt lat="49.86813" lon="2.31505">
        <ele>62.1</ele>
        <time>2024-01-12T13:04:13Z</time>
      </trkpt>
      <trkpt lat="49.86813" lon="2.31505">
        <ele>62.1</ele>
        <time>2024-01-12T13:04:14Z</time>
      </trkpt>
      <trkpt lat="49.86813" lon="2.31505">
        <ele>62.1</ele>
        <time>2024-01-12T13:04:15Z</time>
      </trkpt>
      <trkpt lat="49.86813" lon="2.31503">
        <ele>62.1</ele>
        <time>2024-01-12T13:04:16Z</time>
      </trkpt>
      <trkpt lat="49.86813" lon="2.31503">
        <ele>62.1</ele>
        <time>2024-01-12T13:04:17Z</time>
      </trkpt>
      <trkpt lat="49.86812" lon="2.31502">
        <ele>62.1</ele>
        <time>2024-01-12T13:04:18Z</time>
      </trkpt>
      <trkpt lat="49.86812" lon="2.31502">
        <ele>62.1</ele>
        <time>2024-01-12T13:04:19Z</time>
      </trkpt>
      <trkpt lat="49.86811" lon="2.31502">
        <ele>62.1</ele>
        <time>2024-01-12T13:04:20Z</time>
      </trkpt>
      <trkpt lat="49.8681" lon="2.31502">
        <ele>62.2</ele>
        <time>2024-01-12T13:04:21Z</time>
      </trkpt>
      <trkpt lat="49.86809" lon="2.31502">
        <ele>62.2</ele>
        <time>2024-01-12T13:04:22Z</time>
      </trkpt>
      <trkpt lat="49.86808" lon="2.31503">
        <ele>62.2</ele>
        <time>2024-01-12T13:04:23Z</time>
      </trkpt>
      <trkpt lat="49.86807" lon="2.31504">
        <ele>62.2</ele>
        <time>2024-01-12T13:04:24Z</time>
      </trkpt>
      <trkpt lat="49.86806" lon="2.31504">
        <ele>62.2</ele>
        <time>2024-01-12T13:04:25Z</time>
      </trkpt>
      <trkpt lat="49.86806" lon="2.31505">
        <ele>62.2</ele>
        <time>2024-01-12T13:04:26Z</time>
      </trkpt>
      <trkpt lat="49.86805" lon="2.31506">
        <ele>62.2</ele>
        <time>2024-01-12T13:04:27Z</time>
      </trkpt>
      <trkpt lat="49.86805" lon="2.31507">
        <ele>62.2</ele>
        <time>2024-01-12T13:04:28Z</time>
      </trkpt>
      <trkpt lat="49.86805" lon="2.31509">
        <ele>62.2</ele>
        <time>2024-01-12T13:04:29Z</time>
      </trkpt>
      <trkpt lat="49.86805" lon="2.31511">
        <ele>62.2</ele>
        <time>2024-01-12T13:04:30Z</time>
      </trkpt>
      <trkpt lat="49.86804" lon="2.31512">
        <ele>62.2</ele>
        <time>2024-01-12T13:04:31Z</time>
      </trkpt>
      <trkpt lat="49.86804" lon="2.31514">
        <ele>62.2</ele>
        <time>2024-01-12T13:04:32Z</time>
      </trkpt>
      <trkpt lat="49.86803" lon="2.31517">
        <ele>62.2</ele>
        <time>2024-01-12T13:04:33Z</time>
      </trkpt>
      <trkpt lat="49.86803" lon="2.31518">
        <ele>62.2</ele>
        <time>2024-01-12T13:04:34Z</time>
      </trkpt>
      <trkpt lat="49.86802" lon="2.31519">
        <ele>62.2</ele>
        <time>2024-01-12T13:04:35Z</time>
      </trkpt>
      <trkpt lat="49.86801" lon="2.31522">
        <ele>62.2</ele>
        <time>2024-01-12T13:04:36Z</time>
      </trkpt>
      <trkpt lat="49.868" lon="2.31524">
        <ele>62.2</ele>
        <time>2024-01-12T13:04:37Z</time>
      </trkpt>
      <trkpt lat="49.86799" lon="2.31526">
        <ele>62.2</ele>
        <time>2024-01-12T13:04:38Z</time>
      </trkpt>
      <trkpt lat="49.86799" lon="2.31527">
        <ele>62.2</ele>
        <time>2024-01-12T13:04:39Z</time>
      </trkpt>
      <trkpt lat="49.86799" lon="2.31528">
        <ele>62.2</ele>
        <time>2024-01-12T13:04:40Z</time>
      </trkpt>
      <trkpt lat="49.86798" lon="2.31529">
        <ele>62.2</ele>
        <time>2024-01-12T13:04:41Z</time>
      </trkpt>
      <trkpt lat="49.86798" lon="2.3153">
        <ele>62.2</ele>
        <time>2024-01-12T13:04:42Z</time>
      </trkpt>
      <trkpt lat="49.86798" lon="2.3153">
        <ele>62.2</ele>
        <time>2024-01-12T13:04:43Z</time>
      </trkpt>
      <trkpt lat="49.86797" lon="2.31532">
        <ele>62.2</ele>
        <time>2024-01-12T13:04:44Z</time>
      </trkpt>
      <trkpt lat="49.86797" lon="2.31534">
        <ele>62.2</ele>
        <time>2024-01-12T13:04:45Z</time>
      </trkpt>
      <trkpt lat="49.86796" lon="2.31537">
        <ele>62.2</ele>
        <time>2024-01-12T13:04:46Z</time>
      </trkpt>
      <trkpt lat="49.86796" lon="2.31539">
        <ele>62.2</ele>
        <time>2024-01-12T13:04:47Z</time>
      </trkpt>
      <trkpt lat="49.86795" lon="2.31541">
        <ele>62.2</ele>
        <time>2024-01-12T13:04:48Z</time>
      </trkpt>
      <trkpt lat="49.86794" lon="2.31545">
        <ele>62.2</ele>
        <time>2024-01-12T13:04:49Z</time>
      </trkpt>
      <trkpt lat="49.86793" lon="2.31546">
        <ele>62.2</ele>
        <time>2024-01-12T13:04:50Z</time>
      </trkpt>
      <trkpt lat="49.86792" lon="2.31549">
        <ele>62.2</ele>
        <time>2024-01-12T13:04:51Z</time>
      </trkpt>
      <trkpt lat="49.86792" lon="2.31551">
        <ele>62.2</ele>
        <time>2024-01-12T13:04:52Z</time>
      </trkpt>
      <trkpt lat="49.86791" lon="2.31554">
        <ele>62.2</ele>
        <time>2024-01-12T13:04:53Z</time>
      </trkpt>
      <trkpt lat="49.8679" lon="2.31556">
        <ele>62.2</ele>
        <time>2024-01-12T13:04:54Z</time>
      </trkpt>
      <trkpt lat="49.86789" lon="2.31558">
        <ele>62.2</ele>
        <time>2024-01-12T13:04:55Z</time>
      </trkpt>
      <trkpt lat="49.86789" lon="2.3156">
        <ele>62.2</ele>
        <time>2024-01-12T13:04:56Z</time>
      </trkpt>
      <trkpt lat="49.86788" lon="2.31562">
        <ele>62.2</ele>
        <time>2024-01-12T13:04:57Z</time>
      </trkpt>
      <trkpt lat="49.86787" lon="2.31564">
        <ele>62.2</ele>
        <time>2024-01-12T13:04:58Z</time>
      </trkpt>
      <trkpt lat="49.86786" lon="2.31567">
        <ele>62.2</ele>
        <time>2024-01-12T13:04:59Z</time>
      </trkpt>
      <trkpt lat="49.86786" lon="2.31568">
        <ele>62.2</ele>
        <time>2024-01-12T13:05:00Z</time>
      </trkpt>
      <trkpt lat="49.86786" lon="2.31569">
        <ele>62.2</ele>
        <time>2024-01-12T13:05:01Z</time>
      </trkpt>
      <trkpt lat="49.86785" lon="2.31571">
        <ele>62.2</ele>
        <time>2024-01-12T13:05:02Z</time>
      </trkpt>
      <trkpt lat="49.86784" lon="2.31572">
        <ele>62.2</ele>
        <time>2024-01-12T13:05:03Z</time>
      </trkpt>
      <trkpt lat="49.86784" lon="2.31574">
        <ele>62.2</ele>
        <time>2024-01-12T13:05:04Z</time>
      </trkpt>
      <trkpt lat="49.86783" lon="2.31577">
        <ele>62.2</ele>
        <time>2024-01-12T13:05:05Z</time>
      </trkpt>
      <trkpt lat="49.86783" lon="2.31578">
        <ele>62.2</ele>
        <time>2024-01-12T13:05:06Z</time>
      </trkpt>
      <trkpt lat="49.86782" lon="2.31579">
        <ele>62.2</ele>
        <time>2024-01-12T13:05:07Z</time>
      </trkpt>
      <trkpt lat="49.86781" lon="2.31582">
        <ele>62.2</ele>
        <time>2024-01-12T13:05:08Z</time>
      </trkpt>
      <trkpt lat="49.8678" lon="2.31583">
        <ele>62.2</ele>
        <time>2024-01-12T13:05:09Z</time>
      </trkpt>
      <trkpt lat="49.8678" lon="2.31584">
        <ele>62.2</ele>
        <time>2024-01-12T13:05:10Z</time>
      </trkpt>
      <trkpt lat="49.86778" lon="2.31586">
        <ele>62.2</ele>
        <time>2024-01-12T13:05:11Z</time>
      </trkpt>
      <trkpt lat="49.86778" lon="2.31587">
        <ele>62.2</ele>
        <time>2024-01-12T13:05:12Z</time>
      </trkpt>
      <trkpt lat="49.86777" lon="2.31588">
        <ele>62.2</ele>
        <time>2024-01-12T13:05:13Z</time>
      </trkpt>
      <trkpt lat="49.86777" lon="2.3159">
        <ele>62.2</ele>
        <time>2024-01-12T13:05:14Z</time>
      </trkpt>
      <trkpt lat="49.86776" lon="2.31591">
        <ele>62.2</ele>
        <time>2024-01-12T13:05:15Z</time>
      </trkpt>
      <trkpt lat="49.86776" lon="2.31593">
        <ele>62.2</ele>
        <time>2024-01-12T13:05:16Z</time>
      </trkpt>
      <trkpt lat="49.86776" lon="2.31594">
        <ele>62.2</ele>
        <time>2024-01-12T13:05:17Z</time>
      </trkpt>
      <trkpt lat="49.86775" lon="2.31595">
        <ele>62.2</ele>
        <time>2024-01-12T13:05:18Z</time>
      </trkpt>
      <trkpt lat="49.86775" lon="2.31596">
        <ele>62.2</ele>
        <time>2024-01-12T13:05:19Z</time>
      </trkpt>
      <trkpt lat="49.86774" lon="2.31596">
        <ele>62.2</ele>
        <time>2024-01-12T13:05:20Z</time>
      </trkpt>
      <trkpt lat="49.86774" lon="2.31597">
        <ele>62.2</ele>
        <time>2024-01-12T13:05:21Z</time>
      </trkpt>
      <trkpt lat="49.86774" lon="2.31598">
        <ele>62.2</ele>
        <time>2024-01-12T13:05:22Z</time>
      </trkpt>
      <trkpt lat="49.86773" lon="2.31599">
        <ele>62.2</ele>
        <time>2024-01-12T13:05:23Z</time>
      </trkpt>
      <trkpt lat="49.86773" lon="2.31601">
        <ele>62.2</ele>
        <time>2024-01-12T13:05:24Z</time>
      </trkpt>
      <trkpt lat="49.86773" lon="2.31602">
        <ele>62.2</ele>
        <time>2024-01-12T13:05:25Z</time>
      </trkpt>
      <trkpt lat="49.86773" lon="2.31604">
        <ele>62.2</ele>
        <time>2024-01-12T13:05:26Z</time>
      </trkpt>
      <trkpt lat="49.86773" lon="2.31606">
        <ele>62.2</ele>
        <time>2024-01-12T13:05:27Z</time>
      </trkpt>
      <trkpt lat="49.86773" lon="2.31609">
        <ele>62.2</ele>
        <time>2024-01-12T13:05:28Z</time>
      </trkpt>
      <trkpt lat="49.86772" lon="2.3161">
        <ele>62.2</ele>
        <time>2024-01-12T13:05:29Z</time>
      </trkpt>
      <trkpt lat="49.86772" lon="2.31612">
        <ele>62.2</ele>
        <time>2024-01-12T13:05:30Z</time>
      </trkpt>
      <trkpt lat="49.86772" lon="2.31613">
        <ele>62.2</ele>
        <time>2024-01-12T13:05:31Z</time>
      </trkpt>
      <trkpt lat="49.86772" lon="2.31615">
        <ele>62.2</ele>
        <time>2024-01-12T13:05:32Z</time>
      </trkpt>
      <trkpt lat="49.86771" lon="2.31617">
        <ele>62.2</ele>
        <time>2024-01-12T13:05:33Z</time>
      </trkpt>
      <trkpt lat="49.86771" lon="2.31618">
        <ele>62.2</ele>
        <time>2024-01-12T13:05:34Z</time>
      </trkpt>
      <trkpt lat="49.86771" lon="2.3162">
        <ele>62.2</ele>
        <time>2024-01-12T13:05:35Z</time>
      </trkpt>
      <trkpt lat="49.8677" lon="2.31622">
        <ele>62.2</ele>
        <time>2024-01-12T13:05:36Z</time>
      </trkpt>
      <trkpt lat="49.8677" lon="2.31623">
        <ele>62.2</ele>
        <time>2024-01-12T13:05:37Z</time>
      </trkpt>
      <trkpt lat="49.86769" lon="2.31625">
        <ele>62.2</ele>
        <time>2024-01-12T13:05:38Z</time>
      </trkpt>
      <trkpt lat="49.86769" lon="2.31626">
        <ele>62.2</ele>
        <time>2024-01-12T13:05:39Z</time>
      </trkpt>
      <trkpt lat="49.86769" lon="2.31628">
        <ele>62.2</ele>
        <time>2024-01-12T13:05:40Z</time>
      </trkpt>
      <trkpt lat="49.86769" lon="2.3163">
        <ele>62.2</ele>
        <time>2024-01-12T13:05:41Z</time>
      </trkpt>
      <trkpt lat="49.86768" lon="2.31631">
        <ele>62.2</ele>
        <time>2024-01-12T13:05:42Z</time>
      </trkpt>
      <trkpt lat="49.86768" lon="2.31633">
        <ele>62.2</ele>
        <time>2024-01-12T13:05:43Z</time>
      </trkpt>
      <trkpt lat="49.86768" lon="2.31635">
        <ele>62.2</ele>
        <time>2024-01-12T13:05:44Z</time>
      </trkpt>
      <trkpt lat="49.86767" lon="2.31636">
        <ele>62.2</ele>
        <time>2024-01-12T13:05:45Z</time>
      </trkpt>
      <trkpt lat="49.86767" lon="2.31638">
        <ele>62.2</ele>
        <time>2024-01-12T13:05:46Z</time>
      </trkpt>
      <trkpt lat="49.86767" lon="2.3164">
        <ele>62.2</ele>
        <time>2024-01-12T13:05:47Z</time>
      </trkpt>
      <trkpt lat="49.86766" lon="2.31641">
        <ele>62.2</ele>
        <time>2024-01-12T13:05:48Z</time>
      </trkpt>
      <trkpt lat="49.86766" lon="2.31643">
        <ele>62.2</ele>
        <time>2024-01-12T13:05:49Z</time>
      </trkpt>
      <trkpt lat="49.86766" lon="2.31644">
        <ele>62.2</ele>
        <time>2024-01-12T13:05:50Z</time>
      </trkpt>
      <trkpt lat="49.86765" lon="2.31645">
        <ele>62.2</ele>
        <time>2024-01-12T13:05:51Z</time>
      </trkpt>
      <trkpt lat="49.86765" lon="2.31647">
        <ele>62.2</ele>
        <time>2024-01-12T13:05:52Z</time>
      </trkpt>
      <trkpt lat="49.86764" lon="2.31648">
        <ele>62.2</ele>
        <time>2024-01-12T13:05:53Z</time>
      </trkpt>
      <trkpt lat="49.86764" lon="2.31649">
        <ele>62.2</ele>
        <time>2024-01-12T13:05:54Z</time>
      </trkpt>
      <trkpt lat="49.86763" lon="2.31651">
        <ele>62.2</ele>
        <time>2024-01-12T13:05:55Z</time>
      </trkpt>
      <trkpt lat="49.86763" lon="2.31652">
        <ele>62.2</ele>
        <time>2024-01-12T13:05:56Z</time>
      </trkpt>
      <trkpt lat="49.86762" lon="2.31654">
        <ele>62.2</ele>
        <time>2024-01-12T13:05:57Z</time>
      </trkpt>
      <trkpt lat="49.86761" lon="2.31655">
        <ele>62.2</ele>
        <time>2024-01-12T13:05:58Z</time>
      </trkpt>
      <trkpt lat="49.86761" lon="2.31657">
        <ele>62.3</ele>
        <time>2024-01-12T13:05:59Z</time>
      </trkpt>
      <trkpt lat="49.8676" lon="2.31658">
        <ele>62.3</ele>
        <time>2024-01-12T13:06:00Z</time>
      </trkpt>
      <trkpt lat="49.8676" lon="2.3166">
        <ele>62.3</ele>
        <time>2024-01-12T13:06:01Z</time>
      </trkpt>
      <trkpt lat="49.86759" lon="2.31661">
        <ele>62.3</ele>
        <time>2024-01-12T13:06:02Z</time>
      </trkpt>
      <trkpt lat="49.86759" lon="2.31663">
        <ele>62.3</ele>
        <time>2024-01-12T13:06:03Z</time>
      </trkpt>
      <trkpt lat="49.86758" lon="2.31664">
        <ele>62.3</ele>
        <time>2024-01-12T13:06:04Z</time>
      </trkpt>
      <trkpt lat="49.86758" lon="2.31666">
        <ele>62.3</ele>
        <time>2024-01-12T13:06:05Z</time>
      </trkpt>
      <trkpt lat="49.86757" lon="2.31667">
        <ele>62.3</ele>
        <time>2024-01-12T13:06:06Z</time>
      </trkpt>
      <trkpt lat="49.86757" lon="2.31669">
        <ele>62.3</ele>
        <time>2024-01-12T13:06:07Z</time>
      </trkpt>
      <trkpt lat="49.86757" lon="2.31671">
        <ele>62.3</ele>
        <time>2024-01-12T13:06:08Z</time>
      </trkpt>
      <trkpt lat="49.86756" lon="2.31672">
        <ele>62.3</ele>
        <time>2024-01-12T13:06:09Z</time>
      </trkpt>
      <trkpt lat="49.86756" lon="2.31674">
        <ele>62.3</ele>
        <time>2024-01-12T13:06:10Z</time>
      </trkpt>
      <trkpt lat="49.86755" lon="2.31675">
        <ele>62.3</ele>
        <time>2024-01-12T13:06:11Z</time>
      </trkpt>
      <trkpt lat="49.86755" lon="2.31677">
        <ele>62.3</ele>
        <time>2024-01-12T13:06:12Z</time>
      </trkpt>
      <trkpt lat="49.86754" lon="2.31678">
        <ele>62.3</ele>
        <time>2024-01-12T13:06:13Z</time>
      </trkpt>
      <trkpt lat="49.86754" lon="2.31679">
        <ele>62.3</ele>
        <time>2024-01-12T13:06:14Z</time>
      </trkpt>
      <trkpt lat="49.86754" lon="2.3168">
        <ele>62.3</ele>
        <time>2024-01-12T13:06:15Z</time>
      </trkpt>
      <trkpt lat="49.86754" lon="2.31681">
        <ele>62.3</ele>
        <time>2024-01-12T13:06:16Z</time>
      </trkpt>
      <trkpt lat="49.86753" lon="2.31682">
        <ele>62.4</ele>
        <time>2024-01-12T13:06:17Z</time>
      </trkpt>
      <trkpt lat="49.86753" lon="2.31684">
        <ele>62.4</ele>
        <time>2024-01-12T13:06:18Z</time>
      </trkpt>
      <trkpt lat="49.86753" lon="2.31685">
        <ele>62.4</ele>
        <time>2024-01-12T13:06:19Z</time>
      </trkpt>
      <trkpt lat="49.86752" lon="2.31687">
        <ele>62.4</ele>
        <time>2024-01-12T13:06:20Z</time>
      </trkpt>
      <trkpt lat="49.86752" lon="2.31689">
        <ele>62.4</ele>
        <time>2024-01-12T13:06:21Z</time>
      </trkpt>
      <trkpt lat="49.86752" lon="2.31691">
        <ele>62.4</ele>
        <time>2024-01-12T13:06:22Z</time>
      </trkpt>
      <trkpt lat="49.86751" lon="2.31694">
        <ele>62.4</ele>
        <time>2024-01-12T13:06:23Z</time>
      </trkpt>
      <trkpt lat="49.86751" lon="2.31695">
        <ele>62.4</ele>
        <time>2024-01-12T13:06:24Z</time>
      </trkpt>
      <trkpt lat="49.86751" lon="2.31696">
        <ele>62.4</ele>
        <time>2024-01-12T13:06:25Z</time>
      </trkpt>
      <trkpt lat="49.8675" lon="2.31699">
        <ele>62.4</ele>
        <time>2024-01-12T13:06:26Z</time>
      </trkpt>
      <trkpt lat="49.8675" lon="2.317">
        <ele>62.4</ele>
        <time>2024-01-12T13:06:27Z</time>
      </trkpt>
      <trkpt lat="49.86749" lon="2.31701">
        <ele>62.4</ele>
        <time>2024-01-12T13:06:28Z</time>
      </trkpt>
      <trkpt lat="49.86749" lon="2.31703">
        <ele>62.4</ele>
        <time>2024-01-12T13:06:29Z</time>
      </trkpt>
      <trkpt lat="49.86749" lon="2.31705">
        <ele>62.4</ele>
        <time>2024-01-12T13:06:30Z</time>
      </trkpt>
      <trkpt lat="49.86748" lon="2.31706">
        <ele>62.4</ele>
        <time>2024-01-12T13:06:31Z</time>
      </trkpt>
      <trkpt lat="49.86747" lon="2.31709">
        <ele>62.4</ele>
        <time>2024-01-12T13:06:32Z</time>
      </trkpt>
      <trkpt lat="49.86747" lon="2.31711">
        <ele>62.4</ele>
        <time>2024-01-12T13:06:33Z</time>
      </trkpt>
      <trkpt lat="49.86747" lon="2.31712">
        <ele>62.4</ele>
        <time>2024-01-12T13:06:34Z</time>
      </trkpt>
      <trkpt lat="49.86746" lon="2.31715">
        <ele>62.4</ele>
        <time>2024-01-12T13:06:35Z</time>
      </trkpt>
      <trkpt lat="49.86746" lon="2.31716">
        <ele>62.4</ele>
        <time>2024-01-12T13:06:36Z</time>
      </trkpt>
      <trkpt lat="49.86745" lon="2.31717">
        <ele>62.4</ele>
        <time>2024-01-12T13:06:37Z</time>
      </trkpt>
      <trkpt lat="49.86745" lon="2.31718">
        <ele>62.4</ele>
        <time>2024-01-12T13:06:38Z</time>
      </trkpt>
      <trkpt lat="49.86744" lon="2.3172">
        <ele>62.4</ele>
        <time>2024-01-12T13:06:39Z</time>
      </trkpt>
      <trkpt lat="49.86744" lon="2.31722">
        <ele>62.4</ele>
        <time>2024-01-12T13:06:40Z</time>
      </trkpt>
      <trkpt lat="49.86743" lon="2.31723">
        <ele>62.4</ele>
        <time>2024-01-12T13:06:41Z</time>
      </trkpt>
      <trkpt lat="49.86743" lon="2.31724">
        <ele>62.4</ele>
        <time>2024-01-12T13:06:42Z</time>
      </trkpt>
      <trkpt lat="49.86742" lon="2.31726">
        <ele>62.4</ele>
        <time>2024-01-12T13:06:43Z</time>
      </trkpt>
      <trkpt lat="49.86742" lon="2.31727">
        <ele>62.5</ele>
        <time>2024-01-12T13:06:44Z</time>
      </trkpt>
      <trkpt lat="49.86741" lon="2.31729">
        <ele>62.5</ele>
        <time>2024-01-12T13:06:45Z</time>
      </trkpt>
      <trkpt lat="49.8674" lon="2.3173">
        <ele>62.5</ele>
        <time>2024-01-12T13:06:46Z</time>
      </trkpt>
      <trkpt lat="49.86739" lon="2.31733">
        <ele>62.5</ele>
        <time>2024-01-12T13:06:47Z</time>
      </trkpt>
      <trkpt lat="49.86739" lon="2.31734">
        <ele>62.5</ele>
        <time>2024-01-12T13:06:48Z</time>
      </trkpt>
      <trkpt lat="49.86739" lon="2.31735">
        <ele>62.5</ele>
        <time>2024-01-12T13:06:49Z</time>
      </trkpt>
      <trkpt lat="49.86738" lon="2.31736">
        <ele>62.5</ele>
        <time>2024-01-12T13:06:50Z</time>
      </trkpt>
      <trkpt lat="49.86737" lon="2.31738">
        <ele>62.5</ele>
        <time>2024-01-12T13:06:51Z</time>
      </trkpt>
      <trkpt lat="49.86737" lon="2.3174">
        <ele>62.5</ele>
        <time>2024-01-12T13:06:52Z</time>
      </trkpt>
      <trkpt lat="49.86736" lon="2.31741">
        <ele>62.5</ele>
        <time>2024-01-12T13:06:53Z</time>
      </trkpt>
      <trkpt lat="49.86736" lon="2.31743">
        <ele>62.5</ele>
        <time>2024-01-12T13:06:54Z</time>
      </trkpt>
      <trkpt lat="49.86735" lon="2.31744">
        <ele>62.5</ele>
        <time>2024-01-12T13:06:55Z</time>
      </trkpt>
      <trkpt lat="49.86735" lon="2.31745">
        <ele>62.5</ele>
        <time>2024-01-12T13:06:56Z</time>
      </trkpt>
      <trkpt lat="49.86734" lon="2.31746">
        <ele>62.5</ele>
        <time>2024-01-12T13:06:57Z</time>
      </trkpt>
      <trkpt lat="49.86734" lon="2.31748">
        <ele>62.5</ele>
        <time>2024-01-12T13:06:58Z</time>
      </trkpt>
      <trkpt lat="49.86733" lon="2.31749">
        <ele>62.5</ele>
        <time>2024-01-12T13:06:59Z</time>
      </trkpt>
      <trkpt lat="49.86733" lon="2.31751">
        <ele>62.6</ele>
        <time>2024-01-12T13:07:00Z</time>
      </trkpt>
      <trkpt lat="49.86732" lon="2.31752">
        <ele>62.6</ele>
        <time>2024-01-12T13:07:01Z</time>
      </trkpt>
      <trkpt lat="49.86732" lon="2.31754">
        <ele>62.6</ele>
        <time>2024-01-12T13:07:02Z</time>
      </trkpt>
      <trkpt lat="49.86731" lon="2.31755">
        <ele>62.6</ele>
        <time>2024-01-12T13:07:03Z</time>
      </trkpt>
      <trkpt lat="49.86731" lon="2.31757">
        <ele>62.6</ele>
        <time>2024-01-12T13:07:04Z</time>
      </trkpt>
      <trkpt lat="49.8673" lon="2.31758">
        <ele>62.6</ele>
        <time>2024-01-12T13:07:05Z</time>
      </trkpt>
      <trkpt lat="49.8673" lon="2.31759">
        <ele>62.6</ele>
        <time>2024-01-12T13:07:06Z</time>
      </trkpt>
      <trkpt lat="49.86729" lon="2.31761">
        <ele>62.6</ele>
        <time>2024-01-12T13:07:07Z</time>
      </trkpt>
      <trkpt lat="49.86729" lon="2.31762">
        <ele>62.6</ele>
        <time>2024-01-12T13:07:08Z</time>
      </trkpt>
      <trkpt lat="49.86728" lon="2.31764">
        <ele>62.7</ele>
        <time>2024-01-12T13:07:09Z</time>
      </trkpt>
      <trkpt lat="49.86728" lon="2.31765">
        <ele>62.7</ele>
        <time>2024-01-12T13:07:10Z</time>
      </trkpt>
      <trkpt lat="49.86727" lon="2.31766">
        <ele>62.7</ele>
        <time>2024-01-12T13:07:11Z</time>
      </trkpt>
      <trkpt lat="49.86727" lon="2.31768">
        <ele>62.7</ele>
        <time>2024-01-12T13:07:12Z</time>
      </trkpt>
      <trkpt lat="49.86726" lon="2.31769">
        <ele>62.7</ele>
        <time>2024-01-12T13:07:13Z</time>
      </trkpt>
      <trkpt lat="49.86726" lon="2.31772">
        <ele>62.7</ele>
        <time>2024-01-12T13:07:14Z</time>
      </trkpt>
      <trkpt lat="49.86725" lon="2.31773">
        <ele>62.7</ele>
        <time>2024-01-12T13:07:15Z</time>
      </trkpt>
      <trkpt lat="49.86725" lon="2.31775">
        <ele>62.8</ele>
        <time>2024-01-12T13:07:16Z</time>
      </trkpt>
      <trkpt lat="49.86724" lon="2.31778">
        <ele>62.8</ele>
        <time>2024-01-12T13:07:17Z</time>
      </trkpt>
      <trkpt lat="49.86724" lon="2.31779">
        <ele>62.8</ele>
        <time>2024-01-12T13:07:18Z</time>
      </trkpt>
      <trkpt lat="49.86723" lon="2.3178">
        <ele>62.8</ele>
        <time>2024-01-12T13:07:19Z</time>
      </trkpt>
      <trkpt lat="49.86723" lon="2.31782">
        <ele>62.8</ele>
        <time>2024-01-12T13:07:20Z</time>
      </trkpt>
      <trkpt lat="49.86722" lon="2.31783">
        <ele>62.9</ele>
        <time>2024-01-12T13:07:21Z</time>
      </trkpt>
      <trkpt lat="49.86722" lon="2.31785">
        <ele>62.9</ele>
        <time>2024-01-12T13:07:22Z</time>
      </trkpt>
      <trkpt lat="49.86722" lon="2.31786">
        <ele>62.9</ele>
        <time>2024-01-12T13:07:23Z</time>
      </trkpt>
      <trkpt lat="49.86721" lon="2.31788">
        <ele>62.9</ele>
        <time>2024-01-12T13:07:24Z</time>
      </trkpt>
      <trkpt lat="49.86721" lon="2.31789">
        <ele>62.9</ele>
        <time>2024-01-12T13:07:25Z</time>
      </trkpt>
      <trkpt lat="49.8672" lon="2.31791">
        <ele>62.9</ele>
        <time>2024-01-12T13:07:26Z</time>
      </trkpt>
      <trkpt lat="49.8672" lon="2.31793">
        <ele>63</ele>
        <time>2024-01-12T13:07:27Z</time>
      </trkpt>
      <trkpt lat="49.86719" lon="2.31794">
        <ele>63</ele>
        <time>2024-01-12T13:07:28Z</time>
      </trkpt>
      <trkpt lat="49.86718" lon="2.31797">
        <ele>63</ele>
        <time>2024-01-12T13:07:29Z</time>
      </trkpt>
      <trkpt lat="49.86718" lon="2.31798">
        <ele>63</ele>
        <time>2024-01-12T13:07:30Z</time>
      </trkpt>
      <trkpt lat="49.86717" lon="2.31799">
        <ele>63.1</ele>
        <time>2024-01-12T13:07:31Z</time>
      </trkpt>
      <trkpt lat="49.86717" lon="2.31801">
        <ele>63.1</ele>
        <time>2024-01-12T13:07:32Z</time>
      </trkpt>
      <trkpt lat="49.86716" lon="2.31803">
        <ele>63.1</ele>
        <time>2024-01-12T13:07:33Z</time>
      </trkpt>
      <trkpt lat="49.86716" lon="2.31804">
        <ele>63.1</ele>
        <time>2024-01-12T13:07:34Z</time>
      </trkpt>
      <trkpt lat="49.86716" lon="2.31806">
        <ele>63.2</ele>
        <time>2024-01-12T13:07:35Z</time>
      </trkpt>
      <trkpt lat="49.86715" lon="2.31807">
        <ele>63.2</ele>
        <time>2024-01-12T13:07:36Z</time>
      </trkpt>
      <trkpt lat="49.86714" lon="2.31809">
        <ele>63.2</ele>
        <time>2024-01-12T13:07:37Z</time>
      </trkpt>
      <trkpt lat="49.86714" lon="2.31812">
        <ele>63.3</ele>
        <time>2024-01-12T13:07:38Z</time>
      </trkpt>
      <trkpt lat="49.86713" lon="2.31813">
        <ele>63.3</ele>
        <time>2024-01-12T13:07:39Z</time>
      </trkpt>
      <trkpt lat="49.86713" lon="2.31814">
        <ele>63.3</ele>
        <time>2024-01-12T13:07:40Z</time>
      </trkpt>
      <trkpt lat="49.86712" lon="2.31816">
        <ele>63.3</ele>
        <time>2024-01-12T13:07:41Z</time>
      </trkpt>
      <trkpt lat="49.86711" lon="2.31818">
        <ele>63.4</ele>
        <time>2024-01-12T13:07:42Z</time>
      </trkpt>
      <trkpt lat="49.86711" lon="2.31819">
        <ele>63.4</ele>
        <time>2024-01-12T13:07:43Z</time>
      </trkpt>
      <trkpt lat="49.8671" lon="2.3182">
        <ele>63.4</ele>
        <time>2024-01-12T13:07:44Z</time>
      </trkpt>
      <trkpt lat="49.8671" lon="2.31822">
        <ele>63.4</ele>
        <time>2024-01-12T13:07:45Z</time>
      </trkpt>
      <trkpt lat="49.86709" lon="2.31823">
        <ele>63.4</ele>
        <time>2024-01-12T13:07:46Z</time>
      </trkpt>
      <trkpt lat="49.86709" lon="2.31824">
        <ele>63.5</ele>
        <time>2024-01-12T13:07:47Z</time>
      </trkpt>
      <trkpt lat="49.86708" lon="2.31825">
        <ele>63.5</ele>
        <time>2024-01-12T13:07:48Z</time>
      </trkpt>
      <trkpt lat="49.86707" lon="2.31827">
        <ele>63.5</ele>
        <time>2024-01-12T13:07:49Z</time>
      </trkpt>
      <trkpt lat="49.86707" lon="2.31828">
        <ele>63.5</ele>
        <time>2024-01-12T13:07:50Z</time>
      </trkpt>
      <trkpt lat="49.86706" lon="2.3183">
        <ele>63.6</ele>
        <time>2024-01-12T13:07:51Z</time>
      </trkpt>
      <trkpt lat="49.86706" lon="2.31831">
        <ele>63.6</ele>
        <time>2024-01-12T13:07:52Z</time>
      </trkpt>
      <trkpt lat="49.86705" lon="2.31833">
        <ele>63.6</ele>
        <time>2024-01-12T13:07:53Z</time>
      </trkpt>
      <trkpt lat="49.86704" lon="2.31834">
        <ele>63.7</ele>
        <time>2024-01-12T13:07:54Z</time>
      </trkpt>
      <trkpt lat="49.86704" lon="2.31836">
        <ele>63.7</ele>
        <time>2024-01-12T13:07:55Z</time>
      </trkpt>
      <trkpt lat="49.86703" lon="2.31838">
        <ele>63.7</ele>
        <time>2024-01-12T13:07:56Z</time>
      </trkpt>
      <trkpt lat="49.86703" lon="2.31839">
        <ele>63.7</ele>
        <time>2024-01-12T13:07:57Z</time>
      </trkpt>
      <trkpt lat="49.86702" lon="2.31841">
        <ele>63.8</ele>
        <time>2024-01-12T13:07:58Z</time>
      </trkpt>
      <trkpt lat="49.86702" lon="2.31842">
        <ele>63.8</ele>
        <time>2024-01-12T13:07:59Z</time>
      </trkpt>
      <trkpt lat="49.86701" lon="2.31843">
        <ele>63.8</ele>
        <time>2024-01-12T13:08:00Z</time>
      </trkpt>
      <trkpt lat="49.86701" lon="2.31845">
        <ele>63.8</ele>
        <time>2024-01-12T13:08:01Z</time>
      </trkpt>
      <trkpt lat="49.867" lon="2.31846">
        <ele>63.9</ele>
        <time>2024-01-12T13:08:02Z</time>
      </trkpt>
      <trkpt lat="49.867" lon="2.31848">
        <ele>63.9</ele>
        <time>2024-01-12T13:08:03Z</time>
      </trkpt>
      <trkpt lat="49.86699" lon="2.31849">
        <ele>63.9</ele>
        <time>2024-01-12T13:08:04Z</time>
      </trkpt>
      <trkpt lat="49.86698" lon="2.31851">
        <ele>63.9</ele>
        <time>2024-01-12T13:08:05Z</time>
      </trkpt>
      <trkpt lat="49.86698" lon="2.31852">
        <ele>64</ele>
        <time>2024-01-12T13:08:06Z</time>
      </trkpt>
      <trkpt lat="49.86697" lon="2.31854">
        <ele>64</ele>
        <time>2024-01-12T13:08:07Z</time>
      </trkpt>
      <trkpt lat="49.86696" lon="2.31857">
        <ele>64.1</ele>
        <time>2024-01-12T13:08:08Z</time>
      </trkpt>
      <trkpt lat="49.86696" lon="2.31858">
        <ele>64.1</ele>
        <time>2024-01-12T13:08:09Z</time>
      </trkpt>
      <trkpt lat="49.86695" lon="2.31859">
        <ele>64.1</ele>
        <time>2024-01-12T13:08:10Z</time>
      </trkpt>
      <trkpt lat="49.86694" lon="2.31861">
        <ele>64.1</ele>
        <time>2024-01-12T13:08:11Z</time>
      </trkpt>
      <trkpt lat="49.86694" lon="2.31862">
        <ele>64.2</ele>
        <time>2024-01-12T13:08:12Z</time>
      </trkpt>
      <trkpt lat="49.86693" lon="2.31863">
        <ele>64.2</ele>
        <time>2024-01-12T13:08:13Z</time>
      </trkpt>
      <trkpt lat="49.86693" lon="2.31865">
        <ele>64.2</ele>
        <time>2024-01-12T13:08:14Z</time>
      </trkpt>
      <trkpt lat="49.86692" lon="2.31866">
        <ele>64.2</ele>
        <time>2024-01-12T13:08:15Z</time>
      </trkpt>
      <trkpt lat="49.86691" lon="2.31868">
        <ele>64.3</ele>
        <time>2024-01-12T13:08:16Z</time>
      </trkpt>
      <trkpt lat="49.86691" lon="2.31869">
        <ele>64.3</ele>
        <time>2024-01-12T13:08:17Z</time>
      </trkpt>
      <trkpt lat="49.8669" lon="2.31871">
        <ele>64.3</ele>
        <time>2024-01-12T13:08:18Z</time>
      </trkpt>
      <trkpt lat="49.8669" lon="2.31873">
        <ele>64.4</ele>
        <time>2024-01-12T13:08:19Z</time>
      </trkpt>
      <trkpt lat="49.86689" lon="2.31874">
        <ele>64.4</ele>
        <time>2024-01-12T13:08:20Z</time>
      </trkpt>
      <trkpt lat="49.86689" lon="2.31876">
        <ele>64.4</ele>
        <time>2024-01-12T13:08:21Z</time>
      </trkpt>
      <trkpt lat="49.86688" lon="2.31877">
        <ele>64.5</ele>
        <time>2024-01-12T13:08:22Z</time>
      </trkpt>
      <trkpt lat="49.86688" lon="2.31879">
        <ele>64.5</ele>
        <time>2024-01-12T13:08:23Z</time>
      </trkpt>
      <trkpt lat="49.86688" lon="2.3188">
        <ele>64.5</ele>
        <time>2024-01-12T13:08:24Z</time>
      </trkpt>
      <trkpt lat="49.86687" lon="2.31881">
        <ele>64.6</ele>
        <time>2024-01-12T13:08:25Z</time>
      </trkpt>
      <trkpt lat="49.86687" lon="2.31883">
        <ele>64.6</ele>
        <time>2024-01-12T13:08:26Z</time>
      </trkpt>
      <trkpt lat="49.86686" lon="2.31884">
        <ele>64.6</ele>
        <time>2024-01-12T13:08:27Z</time>
      </trkpt>
      <trkpt lat="49.86685" lon="2.31886">
        <ele>64.7</ele>
        <time>2024-01-12T13:08:28Z</time>
      </trkpt>
      <trkpt lat="49.86685" lon="2.31887">
        <ele>64.7</ele>
        <time>2024-01-12T13:08:29Z</time>
      </trkpt>
      <trkpt lat="49.86684" lon="2.31889">
        <ele>64.7</ele>
        <time>2024-01-12T13:08:30Z</time>
      </trkpt>
      <trkpt lat="49.86684" lon="2.31891">
        <ele>64.7</ele>
        <time>2024-01-12T13:08:31Z</time>
      </trkpt>
      <trkpt lat="49.86683" lon="2.31893">
        <ele>64.8</ele>
        <time>2024-01-12T13:08:32Z</time>
      </trkpt>
      <trkpt lat="49.86682" lon="2.31895">
        <ele>64.8</ele>
        <time>2024-01-12T13:08:33Z</time>
      </trkpt>
      <trkpt lat="49.86682" lon="2.31896">
        <ele>64.9</ele>
        <time>2024-01-12T13:08:34Z</time>
      </trkpt>
      <trkpt lat="49.86681" lon="2.31897">
        <ele>64.9</ele>
        <time>2024-01-12T13:08:35Z</time>
      </trkpt>
      <trkpt lat="49.86681" lon="2.31899">
        <ele>64.9</ele>
        <time>2024-01-12T13:08:36Z</time>
      </trkpt>
      <trkpt lat="49.8668" lon="2.319">
        <ele>65</ele>
        <time>2024-01-12T13:08:37Z</time>
      </trkpt>
      <trkpt lat="49.86679" lon="2.31903">
        <ele>65</ele>
        <time>2024-01-12T13:08:38Z</time>
      </trkpt>
      <trkpt lat="49.86679" lon="2.31904">
        <ele>65</ele>
        <time>2024-01-12T13:08:39Z</time>
      </trkpt>
      <trkpt lat="49.86678" lon="2.31906">
        <ele>65.1</ele>
        <time>2024-01-12T13:08:40Z</time>
      </trkpt>
      <trkpt lat="49.86677" lon="2.31908">
        <ele>65.1</ele>
        <time>2024-01-12T13:08:41Z</time>
      </trkpt>
      <trkpt lat="49.86677" lon="2.3191">
        <ele>65.2</ele>
        <time>2024-01-12T13:08:42Z</time>
      </trkpt>
      <trkpt lat="49.86676" lon="2.31911">
        <ele>65.2</ele>
        <time>2024-01-12T13:08:43Z</time>
      </trkpt>
      <trkpt lat="49.86675" lon="2.31914">
        <ele>65.3</ele>
        <time>2024-01-12T13:08:44Z</time>
      </trkpt>
      <trkpt lat="49.86675" lon="2.31915">
        <ele>65.3</ele>
        <time>2024-01-12T13:08:45Z</time>
      </trkpt>
      <trkpt lat="49.86674" lon="2.31916">
        <ele>65.3</ele>
        <time>2024-01-12T13:08:46Z</time>
      </trkpt>
      <trkpt lat="49.86674" lon="2.31917">
        <ele>65.4</ele>
        <time>2024-01-12T13:08:47Z</time>
      </trkpt>
      <trkpt lat="49.86673" lon="2.31919">
        <ele>65.4</ele>
        <time>2024-01-12T13:08:48Z</time>
      </trkpt>
      <trkpt lat="49.86673" lon="2.31921">
        <ele>65.4</ele>
        <time>2024-01-12T13:08:49Z</time>
      </trkpt>
      <trkpt lat="49.86672" lon="2.31923">
        <ele>65.5</ele>
        <time>2024-01-12T13:08:50Z</time>
      </trkpt>
      <trkpt lat="49.86671" lon="2.31924">
        <ele>65.5</ele>
        <time>2024-01-12T13:08:51Z</time>
      </trkpt>
      <trkpt lat="49.86671" lon="2.31926">
        <ele>65.5</ele>
        <time>2024-01-12T13:08:52Z</time>
      </trkpt>
      <trkpt lat="49.8667" lon="2.31927">
        <ele>65.6</ele>
        <time>2024-01-12T13:08:53Z</time>
      </trkpt>
      <trkpt lat="49.8667" lon="2.31929">
        <ele>65.6</ele>
        <time>2024-01-12T13:08:54Z</time>
      </trkpt>
      <trkpt lat="49.8667" lon="2.31931">
        <ele>65.7</ele>
        <time>2024-01-12T13:08:55Z</time>
      </trkpt>
      <trkpt lat="49.86669" lon="2.31932">
        <ele>65.7</ele>
        <time>2024-01-12T13:08:56Z</time>
      </trkpt>
      <trkpt lat="49.86669" lon="2.31934">
        <ele>65.7</ele>
        <time>2024-01-12T13:08:57Z</time>
      </trkpt>
      <trkpt lat="49.86668" lon="2.31935">
        <ele>65.8</ele>
        <time>2024-01-12T13:08:58Z</time>
      </trkpt>
      <trkpt lat="49.86668" lon="2.31937">
        <ele>65.8</ele>
        <time>2024-01-12T13:08:59Z</time>
      </trkpt>
      <trkpt lat="49.86668" lon="2.31938">
        <ele>65.8</ele>
        <time>2024-01-12T13:09:00Z</time>
      </trkpt>
      <trkpt lat="49.86667" lon="2.31939">
        <ele>65.8</ele>
        <time>2024-01-12T13:09:01Z</time>
      </trkpt>
      <trkpt lat="49.86667" lon="2.31941">
        <ele>65.9</ele>
        <time>2024-01-12T13:09:02Z</time>
      </trkpt>
      <trkpt lat="49.86666" lon="2.31942">
        <ele>65.9</ele>
        <time>2024-01-12T13:09:03Z</time>
      </trkpt>
      <trkpt lat="49.86666" lon="2.31944">
        <ele>65.9</ele>
        <time>2024-01-12T13:09:04Z</time>
      </trkpt>
      <trkpt lat="49.86665" lon="2.31945">
        <ele>66</ele>
        <time>2024-01-12T13:09:05Z</time>
      </trkpt>
      <trkpt lat="49.86665" lon="2.31947">
        <ele>66</ele>
        <time>2024-01-12T13:09:06Z</time>
      </trkpt>
      <trkpt lat="49.86664" lon="2.31948">
        <ele>66</ele>
        <time>2024-01-12T13:09:07Z</time>
      </trkpt>
      <trkpt lat="49.86664" lon="2.31949">
        <ele>66</ele>
        <time>2024-01-12T13:09:08Z</time>
      </trkpt>
      <trkpt lat="49.86663" lon="2.3195">
        <ele>66.1</ele>
        <time>2024-01-12T13:09:09Z</time>
      </trkpt>
      <trkpt lat="49.86663" lon="2.31952">
        <ele>66.1</ele>
        <time>2024-01-12T13:09:10Z</time>
      </trkpt>
      <trkpt lat="49.86662" lon="2.31953">
        <ele>66.1</ele>
        <time>2024-01-12T13:09:11Z</time>
      </trkpt>
      <trkpt lat="49.86662" lon="2.31954">
        <ele>66.1</ele>
        <time>2024-01-12T13:09:12Z</time>
      </trkpt>
      <trkpt lat="49.86662" lon="2.31956">
        <ele>66.2</ele>
        <time>2024-01-12T13:09:13Z</time>
      </trkpt>
      <trkpt lat="49.86661" lon="2.31957">
        <ele>66.2</ele>
        <time>2024-01-12T13:09:14Z</time>
      </trkpt>
      <trkpt lat="49.86661" lon="2.31959">
        <ele>66.2</ele>
        <time>2024-01-12T13:09:15Z</time>
      </trkpt>
      <trkpt lat="49.86661" lon="2.3196">
        <ele>66.2</ele>
        <time>2024-01-12T13:09:16Z</time>
      </trkpt>
      <trkpt lat="49.8666" lon="2.31961">
        <ele>66.3</ele>
        <time>2024-01-12T13:09:17Z</time>
      </trkpt>
      <trkpt lat="49.8666" lon="2.31963">
        <ele>66.3</ele>
        <time>2024-01-12T13:09:18Z</time>
      </trkpt>
      <trkpt lat="49.8666" lon="2.31964">
        <ele>66.3</ele>
        <time>2024-01-12T13:09:19Z</time>
      </trkpt>
      <trkpt lat="49.86659" lon="2.31965">
        <ele>66.3</ele>
        <time>2024-01-12T13:09:20Z</time>
      </trkpt>
      <trkpt lat="49.86659" lon="2.31966">
        <ele>66.4</ele>
        <time>2024-01-12T13:09:21Z</time>
      </trkpt>
      <trkpt lat="49.86659" lon="2.31967">
        <ele>66.4</ele>
        <time>2024-01-12T13:09:22Z</time>
      </trkpt>
      <trkpt lat="49.86658" lon="2.31968">
        <ele>66.4</ele>
        <time>2024-01-12T13:09:23Z</time>
      </trkpt>
      <trkpt lat="49.86658" lon="2.3197">
        <ele>66.4</ele>
        <time>2024-01-12T13:09:24Z</time>
      </trkpt>
      <trkpt lat="49.86657" lon="2.31972">
        <ele>66.5</ele>
        <time>2024-01-12T13:09:25Z</time>
      </trkpt>
      <trkpt lat="49.86657" lon="2.31973">
        <ele>66.5</ele>
        <time>2024-01-12T13:09:26Z</time>
      </trkpt>
      <trkpt lat="49.86656" lon="2.31975">
        <ele>66.5</ele>
        <time>2024-01-12T13:09:27Z</time>
      </trkpt>
      <trkpt lat="49.86656" lon="2.31976">
        <ele>66.5</ele>
        <time>2024-01-12T13:09:28Z</time>
      </trkpt>
      <trkpt lat="49.86655" lon="2.31978">
        <ele>66.6</ele>
        <time>2024-01-12T13:09:29Z</time>
      </trkpt>
      <trkpt lat="49.86655" lon="2.31979">
        <ele>66.6</ele>
        <time>2024-01-12T13:09:30Z</time>
      </trkpt>
      <trkpt lat="49.86654" lon="2.31981">
        <ele>66.6</ele>
        <time>2024-01-12T13:09:31Z</time>
      </trkpt>
      <trkpt lat="49.86654" lon="2.31982">
        <ele>66.6</ele>
        <time>2024-01-12T13:09:32Z</time>
      </trkpt>
      <trkpt lat="49.86653" lon="2.31984">
        <ele>66.7</ele>
        <time>2024-01-12T13:09:33Z</time>
      </trkpt>
      <trkpt lat="49.86653" lon="2.31985">
        <ele>66.7</ele>
        <time>2024-01-12T13:09:34Z</time>
      </trkpt>
      <trkpt lat="49.86652" lon="2.31987">
        <ele>66.7</ele>
        <time>2024-01-12T13:09:35Z</time>
      </trkpt>
      <trkpt lat="49.86651" lon="2.3199">
        <ele>66.8</ele>
        <time>2024-01-12T13:09:36Z</time>
      </trkpt>
      <trkpt lat="49.86651" lon="2.31991">
        <ele>66.8</ele>
        <time>2024-01-12T13:09:37Z</time>
      </trkpt>
      <trkpt lat="49.86651" lon="2.31992">
        <ele>66.8</ele>
        <time>2024-01-12T13:09:38Z</time>
      </trkpt>
      <trkpt lat="49.8665" lon="2.31994">
        <ele>66.8</ele>
        <time>2024-01-12T13:09:39Z</time>
      </trkpt>
      <trkpt lat="49.8665" lon="2.31995">
        <ele>66.9</ele>
        <time>2024-01-12T13:09:40Z</time>
      </trkpt>
      <trkpt lat="49.8665" lon="2.31997">
        <ele>66.9</ele>
        <time>2024-01-12T13:09:41Z</time>
      </trkpt>
      <trkpt lat="49.86649" lon="2.31998">
        <ele>66.9</ele>
        <time>2024-01-12T13:09:42Z</time>
      </trkpt>
      <trkpt lat="49.86649" lon="2.32">
        <ele>67</ele>
        <time>2024-01-12T13:09:43Z</time>
      </trkpt>
      <trkpt lat="49.86648" lon="2.32002">
        <ele>67</ele>
        <time>2024-01-12T13:09:44Z</time>
      </trkpt>
      <trkpt lat="49.86648" lon="2.32003">
        <ele>67</ele>
        <time>2024-01-12T13:09:45Z</time>
      </trkpt>
      <trkpt lat="49.86647" lon="2.32005">
        <ele>67</ele>
        <time>2024-01-12T13:09:46Z</time>
      </trkpt>
      <trkpt lat="49.86647" lon="2.32007">
        <ele>67.1</ele>
        <time>2024-01-12T13:09:47Z</time>
      </trkpt>
      <trkpt lat="49.86647" lon="2.32008">
        <ele>67.1</ele>
        <time>2024-01-12T13:09:48Z</time>
      </trkpt>
      <trkpt lat="49.86646" lon="2.3201">
        <ele>67.1</ele>
        <time>2024-01-12T13:09:49Z</time>
      </trkpt>
      <trkpt lat="49.86646" lon="2.32011">
        <ele>67.1</ele>
        <time>2024-01-12T13:09:50Z</time>
      </trkpt>
      <trkpt lat="49.86646" lon="2.32013">
        <ele>67.1</ele>
        <time>2024-01-12T13:09:51Z</time>
      </trkpt>
      <trkpt lat="49.86645" lon="2.32014">
        <ele>67.2</ele>
        <time>2024-01-12T13:09:52Z</time>
      </trkpt>
      <trkpt lat="49.86645" lon="2.32016">
        <ele>67.2</ele>
        <time>2024-01-12T13:09:53Z</time>
      </trkpt>
      <trkpt lat="49.86645" lon="2.32017">
        <ele>67.2</ele>
        <time>2024-01-12T13:09:54Z</time>
      </trkpt>
      <trkpt lat="49.86644" lon="2.32019">
        <ele>67.2</ele>
        <time>2024-01-12T13:09:55Z</time>
      </trkpt>
      <trkpt lat="49.86644" lon="2.3202">
        <ele>67.3</ele>
        <time>2024-01-12T13:09:56Z</time>
      </trkpt>
      <trkpt lat="49.86643" lon="2.32022">
        <ele>67.3</ele>
        <time>2024-01-12T13:09:57Z</time>
      </trkpt>
      <trkpt lat="49.86643" lon="2.32023">
        <ele>67.3</ele>
        <time>2024-01-12T13:09:58Z</time>
      </trkpt>
      <trkpt lat="49.86643" lon="2.32024">
        <ele>67.3</ele>
        <time>2024-01-12T13:09:59Z</time>
      </trkpt>
      <trkpt lat="49.86642" lon="2.32026">
        <ele>67.3</ele>
        <time>2024-01-12T13:10:00Z</time>
      </trkpt>
      <trkpt lat="49.86642" lon="2.32027">
        <ele>67.4</ele>
        <time>2024-01-12T13:10:01Z</time>
      </trkpt>
      <trkpt lat="49.86642" lon="2.32028">
        <ele>67.4</ele>
        <time>2024-01-12T13:10:02Z</time>
      </trkpt>
      <trkpt lat="49.86641" lon="2.32029">
        <ele>67.4</ele>
        <time>2024-01-12T13:10:03Z</time>
      </trkpt>
      <trkpt lat="49.86641" lon="2.32031">
        <ele>67.4</ele>
        <time>2024-01-12T13:10:04Z</time>
      </trkpt>
      <trkpt lat="49.8664" lon="2.32032">
        <ele>67.4</ele>
        <time>2024-01-12T13:10:05Z</time>
      </trkpt>
      <trkpt lat="49.8664" lon="2.32034">
        <ele>67.5</ele>
        <time>2024-01-12T13:10:06Z</time>
      </trkpt>
      <trkpt lat="49.8664" lon="2.32035">
        <ele>67.5</ele>
        <time>2024-01-12T13:10:07Z</time>
      </trkpt>
      <trkpt lat="49.86639" lon="2.32036">
        <ele>67.5</ele>
        <time>2024-01-12T13:10:08Z</time>
      </trkpt>
      <trkpt lat="49.86639" lon="2.32038">
        <ele>67.5</ele>
        <time>2024-01-12T13:10:09Z</time>
      </trkpt>
      <trkpt lat="49.86638" lon="2.32039">
        <ele>67.5</ele>
        <time>2024-01-12T13:10:10Z</time>
      </trkpt>
      <trkpt lat="49.86637" lon="2.32041">
        <ele>67.6</ele>
        <time>2024-01-12T13:10:11Z</time>
      </trkpt>
      <trkpt lat="49.86637" lon="2.32042">
        <ele>67.6</ele>
        <time>2024-01-12T13:10:12Z</time>
      </trkpt>
      <trkpt lat="49.86636" lon="2.32045">
        <ele>67.6</ele>
        <time>2024-01-12T13:10:13Z</time>
      </trkpt>
      <trkpt lat="49.86635" lon="2.32046">
        <ele>67.6</ele>
        <time>2024-01-12T13:10:14Z</time>
      </trkpt>
      <trkpt lat="49.86635" lon="2.32047">
        <ele>67.7</ele>
        <time>2024-01-12T13:10:15Z</time>
      </trkpt>
      <trkpt lat="49.86633" lon="2.32049">
        <ele>67.7</ele>
        <time>2024-01-12T13:10:16Z</time>
      </trkpt>
      <trkpt lat="49.86633" lon="2.3205">
        <ele>67.7</ele>
        <time>2024-01-12T13:10:17Z</time>
      </trkpt>
      <trkpt lat="49.86632" lon="2.32051">
        <ele>67.7</ele>
        <time>2024-01-12T13:10:18Z</time>
      </trkpt>
      <trkpt lat="49.86631" lon="2.32052">
        <ele>67.8</ele>
        <time>2024-01-12T13:10:19Z</time>
      </trkpt>
      <trkpt lat="49.86631" lon="2.32054">
        <ele>67.8</ele>
        <time>2024-01-12T13:10:20Z</time>
      </trkpt>
      <trkpt lat="49.8663" lon="2.32055">
        <ele>67.8</ele>
        <time>2024-01-12T13:10:21Z</time>
      </trkpt>
      <trkpt lat="49.8663" lon="2.32057">
        <ele>67.8</ele>
        <time>2024-01-12T13:10:22Z</time>
      </trkpt>
      <trkpt lat="49.86629" lon="2.32058">
        <ele>67.9</ele>
        <time>2024-01-12T13:10:23Z</time>
      </trkpt>
      <trkpt lat="49.86628" lon="2.3206">
        <ele>67.9</ele>
        <time>2024-01-12T13:10:24Z</time>
      </trkpt>
      <trkpt lat="49.86627" lon="2.32062">
        <ele>67.9</ele>
        <time>2024-01-12T13:10:25Z</time>
      </trkpt>
      <trkpt lat="49.86626" lon="2.32063">
        <ele>67.9</ele>
        <time>2024-01-12T13:10:26Z</time>
      </trkpt>
      <trkpt lat="49.86626" lon="2.32064">
        <ele>67.9</ele>
        <time>2024-01-12T13:10:27Z</time>
      </trkpt>
      <trkpt lat="49.86625" lon="2.32066">
        <ele>68</ele>
        <time>2024-01-12T13:10:28Z</time>
      </trkpt>
      <trkpt lat="49.86624" lon="2.32067">
        <ele>68</ele>
        <time>2024-01-12T13:10:29Z</time>
      </trkpt>
      <trkpt lat="49.86624" lon="2.32068">
        <ele>68</ele>
        <time>2024-01-12T13:10:30Z</time>
      </trkpt>
      <trkpt lat="49.86623" lon="2.3207">
        <ele>68</ele>
        <time>2024-01-12T13:10:31Z</time>
      </trkpt>
      <trkpt lat="49.86623" lon="2.32071">
        <ele>68</ele>
        <time>2024-01-12T13:10:32Z</time>
      </trkpt>
      <trkpt lat="49.86622" lon="2.32073">
        <ele>68</ele>
        <time>2024-01-12T13:10:33Z</time>
      </trkpt>
      <trkpt lat="49.86621" lon="2.32074">
        <ele>68.1</ele>
        <time>2024-01-12T13:10:34Z</time>
      </trkpt>
      <trkpt lat="49.86621" lon="2.32075">
        <ele>68.1</ele>
        <time>2024-01-12T13:10:35Z</time>
      </trkpt>
      <trkpt lat="49.8662" lon="2.32077">
        <ele>68.1</ele>
        <time>2024-01-12T13:10:36Z</time>
      </trkpt>
      <trkpt lat="49.86619" lon="2.32078">
        <ele>68.1</ele>
        <time>2024-01-12T13:10:37Z</time>
      </trkpt>
      <trkpt lat="49.86618" lon="2.3208">
        <ele>68.1</ele>
        <time>2024-01-12T13:10:38Z</time>
      </trkpt>
      <trkpt lat="49.86618" lon="2.32081">
        <ele>68.1</ele>
        <time>2024-01-12T13:10:39Z</time>
      </trkpt>
      <trkpt lat="49.86617" lon="2.32082">
        <ele>68.1</ele>
        <time>2024-01-12T13:10:40Z</time>
      </trkpt>
      <trkpt lat="49.86616" lon="2.32083">
        <ele>68.1</ele>
        <time>2024-01-12T13:10:41Z</time>
      </trkpt>
      <trkpt lat="49.86616" lon="2.32084">
        <ele>68.1</ele>
        <time>2024-01-12T13:10:42Z</time>
      </trkpt>
      <trkpt lat="49.86615" lon="2.32085">
        <ele>68.1</ele>
        <time>2024-01-12T13:10:43Z</time>
      </trkpt>
      <trkpt lat="49.86614" lon="2.32087">
        <ele>68.1</ele>
        <time>2024-01-12T13:10:44Z</time>
      </trkpt>
      <trkpt lat="49.86613" lon="2.32088">
        <ele>68.2</ele>
        <time>2024-01-12T13:10:45Z</time>
      </trkpt>
      <trkpt lat="49.86613" lon="2.32089">
        <ele>68.2</ele>
        <time>2024-01-12T13:10:46Z</time>
      </trkpt>
      <trkpt lat="49.86612" lon="2.3209">
        <ele>68.2</ele>
        <time>2024-01-12T13:10:47Z</time>
      </trkpt>
      <trkpt lat="49.86611" lon="2.32092">
        <ele>68.2</ele>
        <time>2024-01-12T13:10:48Z</time>
      </trkpt>
      <trkpt lat="49.8661" lon="2.32093">
        <ele>68.2</ele>
        <time>2024-01-12T13:10:49Z</time>
      </trkpt>
      <trkpt lat="49.86609" lon="2.32094">
        <ele>68.2</ele>
        <time>2024-01-12T13:10:50Z</time>
      </trkpt>
      <trkpt lat="49.86609" lon="2.32095">
        <ele>68.2</ele>
        <time>2024-01-12T13:10:51Z</time>
      </trkpt>
      <trkpt lat="49.86608" lon="2.32096">
        <ele>68.2</ele>
        <time>2024-01-12T13:10:52Z</time>
      </trkpt>
      <trkpt lat="49.86607" lon="2.32097">
        <ele>68.2</ele>
        <time>2024-01-12T13:10:53Z</time>
      </trkpt>
      <trkpt lat="49.86607" lon="2.32099">
        <ele>68.2</ele>
        <time>2024-01-12T13:10:54Z</time>
      </trkpt>
      <trkpt lat="49.86606" lon="2.321">
        <ele>68.2</ele>
        <time>2024-01-12T13:10:55Z</time>
      </trkpt>
      <trkpt lat="49.86605" lon="2.32101">
        <ele>68.2</ele>
        <time>2024-01-12T13:10:56Z</time>
      </trkpt>
      <trkpt lat="49.86605" lon="2.32102">
        <ele>68.2</ele>
        <time>2024-01-12T13:10:57Z</time>
      </trkpt>
      <trkpt lat="49.86604" lon="2.32104">
        <ele>68.2</ele>
        <time>2024-01-12T13:10:58Z</time>
      </trkpt>
      <trkpt lat="49.86604" lon="2.32105">
        <ele>68.2</ele>
        <time>2024-01-12T13:10:59Z</time>
      </trkpt>
      <trkpt lat="49.86603" lon="2.32107">
        <ele>68.2</ele>
        <time>2024-01-12T13:11:00Z</time>
      </trkpt>
      <trkpt lat="49.86603" lon="2.32108">
        <ele>68.2</ele>
        <time>2024-01-12T13:11:01Z</time>
      </trkpt>
      <trkpt lat="49.86602" lon="2.3211">
        <ele>68.2</ele>
        <time>2024-01-12T13:11:02Z</time>
      </trkpt>
      <trkpt lat="49.86602" lon="2.32111">
        <ele>68.2</ele>
        <time>2024-01-12T13:11:03Z</time>
      </trkpt>
      <trkpt lat="49.86601" lon="2.32112">
        <ele>68.2</ele>
        <time>2024-01-12T13:11:05Z</time>
      </trkpt>
      <trkpt lat="49.86601" lon="2.32113">
        <ele>68.2</ele>
        <time>2024-01-12T13:11:06Z</time>
      </trkpt>
      <trkpt lat="49.86601" lon="2.32114">
        <ele>68.3</ele>
        <time>2024-01-12T13:11:07Z</time>
      </trkpt>
      <trkpt lat="49.866" lon="2.32115">
        <ele>68.3</ele>
        <time>2024-01-12T13:11:08Z</time>
      </trkpt>
      <trkpt lat="49.86599" lon="2.32117">
        <ele>68.3</ele>
        <time>2024-01-12T13:11:09Z</time>
      </trkpt>
      <trkpt lat="49.86598" lon="2.32118">
        <ele>68.3</ele>
        <time>2024-01-12T13:11:10Z</time>
      </trkpt>
      <trkpt lat="49.86598" lon="2.32119">
        <ele>68.3</ele>
        <time>2024-01-12T13:11:11Z</time>
      </trkpt>
      <trkpt lat="49.86595" lon="2.32123">
        <ele>68.3</ele>
        <time>2024-01-12T13:11:13Z</time>
      </trkpt>
      <trkpt lat="49.86594" lon="2.32124">
        <ele>68.3</ele>
        <time>2024-01-12T13:11:14Z</time>
      </trkpt>
      <trkpt lat="49.86593" lon="2.32126">
        <ele>68.3</ele>
        <time>2024-01-12T13:11:15Z</time>
      </trkpt>
      <trkpt lat="49.86592" lon="2.32127">
        <ele>68.3</ele>
        <time>2024-01-12T13:11:16Z</time>
      </trkpt>
      <trkpt lat="49.86591" lon="2.32129">
        <ele>68.3</ele>
        <time>2024-01-12T13:11:17Z</time>
      </trkpt>
      <trkpt lat="49.8659" lon="2.32131">
        <ele>68.3</ele>
        <time>2024-01-12T13:11:18Z</time>
      </trkpt>
      <trkpt lat="49.86587" lon="2.32134">
        <ele>68.3</ele>
        <time>2024-01-12T13:11:20Z</time>
      </trkpt>
      <trkpt lat="49.86587" lon="2.32134">
        <ele>68.3</ele>
        <time>2024-01-12T13:11:21Z</time>
      </trkpt>
      <trkpt lat="49.86586" lon="2.32137">
        <ele>68.3</ele>
        <time>2024-01-12T13:11:22Z</time>
      </trkpt>
      <trkpt lat="49.86585" lon="2.32138">
        <ele>68.3</ele>
        <time>2024-01-12T13:11:23Z</time>
      </trkpt>
      <trkpt lat="49.86584" lon="2.32139">
        <ele>68.3</ele>
        <time>2024-01-12T13:11:24Z</time>
      </trkpt>
      <trkpt lat="49.86584" lon="2.3214">
        <ele>68.3</ele>
        <time>2024-01-12T13:11:25Z</time>
      </trkpt>
      <trkpt lat="49.86583" lon="2.32141">
        <ele>68.3</ele>
        <time>2024-01-12T13:11:26Z</time>
      </trkpt>
      <trkpt lat="49.86582" lon="2.32142">
        <ele>68.3</ele>
        <time>2024-01-12T13:11:27Z</time>
      </trkpt>
      <trkpt lat="49.86581" lon="2.32143">
        <ele>68.3</ele>
        <time>2024-01-12T13:11:29Z</time>
      </trkpt>
      <trkpt lat="49.86581" lon="2.32143">
        <ele>68.3</ele>
        <time>2024-01-12T13:11:30Z</time>
      </trkpt>
      <trkpt lat="49.8658" lon="2.32144">
        <ele>68.3</ele>
        <time>2024-01-12T13:11:31Z</time>
      </trkpt>
      <trkpt lat="49.86579" lon="2.32145">
        <ele>68.3</ele>
        <time>2024-01-12T13:11:32Z</time>
      </trkpt>
      <trkpt lat="49.86578" lon="2.32146">
        <ele>68.2</ele>
        <time>2024-01-12T13:11:33Z</time>
      </trkpt>
      <trkpt lat="49.86577" lon="2.32147">
        <ele>68.2</ele>
        <time>2024-01-12T13:11:34Z</time>
      </trkpt>
      <trkpt lat="49.86575" lon="2.3215">
        <ele>68.2</ele>
        <time>2024-01-12T13:11:35Z</time>
      </trkpt>
      <trkpt lat="49.86574" lon="2.32151">
        <ele>68.2</ele>
        <time>2024-01-12T13:11:36Z</time>
      </trkpt>
      <trkpt lat="49.86573" lon="2.32153">
        <ele>68.2</ele>
        <time>2024-01-12T13:11:37Z</time>
      </trkpt>
      <trkpt lat="49.86572" lon="2.32155">
        <ele>68.2</ele>
        <time>2024-01-12T13:11:39Z</time>
      </trkpt>
      <trkpt lat="49.86571" lon="2.32157">
        <ele>68.2</ele>
        <time>2024-01-12T13:11:40Z</time>
      </trkpt>
      <trkpt lat="49.8657" lon="2.32159">
        <ele>68.2</ele>
        <time>2024-01-12T13:11:41Z</time>
      </trkpt>
      <trkpt lat="49.86568" lon="2.32161">
        <ele>68.2</ele>
        <time>2024-01-12T13:11:42Z</time>
      </trkpt>
      <trkpt lat="49.86567" lon="2.32162">
        <ele>68.1</ele>
        <time>2024-01-12T13:11:43Z</time>
      </trkpt>
      <trkpt lat="49.86566" lon="2.32164">
        <ele>68.1</ele>
        <time>2024-01-12T13:11:45Z</time>
      </trkpt>
      <trkpt lat="49.86565" lon="2.32165">
        <ele>68.1</ele>
        <time>2024-01-12T13:11:46Z</time>
      </trkpt>
      <trkpt lat="49.86563" lon="2.32167">
        <ele>68.1</ele>
        <time>2024-01-12T13:11:47Z</time>
      </trkpt>
      <trkpt lat="49.86562" lon="2.32168">
        <ele>68</ele>
        <time>2024-01-12T13:11:48Z</time>
      </trkpt>
      <trkpt lat="49.86562" lon="2.32169">
        <ele>68</ele>
        <time>2024-01-12T13:11:49Z</time>
      </trkpt>
      <trkpt lat="49.8656" lon="2.32171">
        <ele>68</ele>
        <time>2024-01-12T13:11:50Z</time>
      </trkpt>
      <trkpt lat="49.86559" lon="2.32172">
        <ele>68</ele>
        <time>2024-01-12T13:11:52Z</time>
      </trkpt>
      <trkpt lat="49.86559" lon="2.32173">
        <ele>68</ele>
        <time>2024-01-12T13:11:53Z</time>
      </trkpt>
      <trkpt lat="49.86558" lon="2.32174">
        <ele>68</ele>
        <time>2024-01-12T13:11:54Z</time>
      </trkpt>
      <trkpt lat="49.86557" lon="2.32175">
        <ele>67.9</ele>
        <time>2024-01-12T13:11:55Z</time>
      </trkpt>
      <trkpt lat="49.86556" lon="2.32177">
        <ele>67.9</ele>
        <time>2024-01-12T13:11:56Z</time>
      </trkpt>
      <trkpt lat="49.86555" lon="2.32178">
        <ele>67.9</ele>
        <time>2024-01-12T13:11:57Z</time>
      </trkpt>
      <trkpt lat="49.86554" lon="2.3218">
        <ele>67.9</ele>
        <time>2024-01-12T13:11:59Z</time>
      </trkpt>
      <trkpt lat="49.86553" lon="2.32181">
        <ele>67.9</ele>
        <time>2024-01-12T13:12:00Z</time>
      </trkpt>
      <trkpt lat="49.86552" lon="2.32182">
        <ele>67.8</ele>
        <time>2024-01-12T13:12:01Z</time>
      </trkpt>
      <trkpt lat="49.86551" lon="2.32184">
        <ele>67.8</ele>
        <time>2024-01-12T13:12:03Z</time>
      </trkpt>
      <trkpt lat="49.8655" lon="2.32187">
        <ele>67.8</ele>
        <time>2024-01-12T13:12:04Z</time>
      </trkpt>
      <trkpt lat="49.86549" lon="2.32188">
        <ele>67.8</ele>
        <time>2024-01-12T13:12:05Z</time>
      </trkpt>
      <trkpt lat="49.86549" lon="2.32189">
        <ele>67.7</ele>
        <time>2024-01-12T13:12:06Z</time>
      </trkpt>
      <trkpt lat="49.86547" lon="2.32191">
        <ele>67.7</ele>
        <time>2024-01-12T13:12:07Z</time>
      </trkpt>
      <trkpt lat="49.86547" lon="2.32192">
        <ele>67.7</ele>
        <time>2024-01-12T13:12:08Z</time>
      </trkpt>
      <trkpt lat="49.86546" lon="2.32193">
        <ele>67.7</ele>
        <time>2024-01-12T13:12:09Z</time>
      </trkpt>
      <trkpt lat="49.86545" lon="2.32195">
        <ele>67.7</ele>
        <time>2024-01-12T13:12:11Z</time>
      </trkpt>
      <trkpt lat="49.86544" lon="2.32196">
        <ele>67.6</ele>
        <time>2024-01-12T13:12:12Z</time>
      </trkpt>
      <trkpt lat="49.86543" lon="2.32199">
        <ele>67.6</ele>
        <time>2024-01-12T13:12:13Z</time>
      </trkpt>
      <trkpt lat="49.86542" lon="2.322">
        <ele>67.6</ele>
        <time>2024-01-12T13:12:14Z</time>
      </trkpt>
      <trkpt lat="49.86542" lon="2.32201">
        <ele>67.6</ele>
        <time>2024-01-12T13:12:15Z</time>
      </trkpt>
      <trkpt lat="49.8654" lon="2.32203">
        <ele>67.5</ele>
        <time>2024-01-12T13:12:16Z</time>
      </trkpt>
      <trkpt lat="49.8654" lon="2.32204">
        <ele>67.5</ele>
        <time>2024-01-12T13:12:18Z</time>
      </trkpt>
      <trkpt lat="49.86539" lon="2.32205">
        <ele>67.5</ele>
        <time>2024-01-12T13:12:19Z</time>
      </trkpt>
      <trkpt lat="49.86538" lon="2.32208">
        <ele>67.4</ele>
        <time>2024-01-12T13:12:20Z</time>
      </trkpt>
      <trkpt lat="49.86538" lon="2.32209">
        <ele>67.4</ele>
        <time>2024-01-12T13:12:21Z</time>
      </trkpt>
      <trkpt lat="49.86537" lon="2.3221">
        <ele>67.4</ele>
        <time>2024-01-12T13:12:22Z</time>
      </trkpt>
      <trkpt lat="49.86536" lon="2.32213">
        <ele>67.4</ele>
        <time>2024-01-12T13:12:23Z</time>
      </trkpt>
      <trkpt lat="49.86535" lon="2.32214">
        <ele>67.3</ele>
        <time>2024-01-12T13:12:24Z</time>
      </trkpt>
      <trkpt lat="49.86535" lon="2.32215">
        <ele>67.3</ele>
        <time>2024-01-12T13:12:25Z</time>
      </trkpt>
      <trkpt lat="49.86533" lon="2.32217">
        <ele>67.3</ele>
        <time>2024-01-12T13:12:26Z</time>
      </trkpt>
      <trkpt lat="49.86532" lon="2.32218">
        <ele>67.3</ele>
        <time>2024-01-12T13:12:27Z</time>
      </trkpt>
      <trkpt lat="49.86532" lon="2.32219">
        <ele>67.2</ele>
        <time>2024-01-12T13:12:29Z</time>
      </trkpt>
      <trkpt lat="49.86531" lon="2.3222">
        <ele>67.2</ele>
        <time>2024-01-12T13:12:30Z</time>
      </trkpt>
      <trkpt lat="49.8653" lon="2.32221">
        <ele>67.2</ele>
        <time>2024-01-12T13:12:31Z</time>
      </trkpt>
      <trkpt lat="49.86529" lon="2.32222">
        <ele>67.2</ele>
        <time>2024-01-12T13:12:32Z</time>
      </trkpt>
      <trkpt lat="49.86528" lon="2.32224">
        <ele>67.1</ele>
        <time>2024-01-12T13:12:33Z</time>
      </trkpt>
      <trkpt lat="49.86527" lon="2.32225">
        <ele>67.1</ele>
        <time>2024-01-12T13:12:34Z</time>
      </trkpt>
      <trkpt lat="49.86526" lon="2.32226">
        <ele>67.1</ele>
        <time>2024-01-12T13:12:35Z</time>
      </trkpt>
      <trkpt lat="49.86525" lon="2.32228">
        <ele>67</ele>
        <time>2024-01-12T13:12:37Z</time>
      </trkpt>
      <trkpt lat="49.86524" lon="2.3223">
        <ele>67</ele>
        <time>2024-01-12T13:12:38Z</time>
      </trkpt>
      <trkpt lat="49.86523" lon="2.32231">
        <ele>67</ele>
        <time>2024-01-12T13:12:39Z</time>
      </trkpt>
      <trkpt lat="49.86523" lon="2.32232">
        <ele>66.9</ele>
        <time>2024-01-12T13:12:40Z</time>
      </trkpt>
      <trkpt lat="49.86522" lon="2.32234">
        <ele>66.9</ele>
        <time>2024-01-12T13:12:41Z</time>
      </trkpt>
      <trkpt lat="49.86521" lon="2.32235">
        <ele>66.9</ele>
        <time>2024-01-12T13:12:42Z</time>
      </trkpt>
      <trkpt lat="49.86521" lon="2.32236">
        <ele>66.8</ele>
        <time>2024-01-12T13:12:43Z</time>
      </trkpt>
      <trkpt lat="49.8652" lon="2.32236">
        <ele>66.8</ele>
        <time>2024-01-12T13:12:45Z</time>
      </trkpt>
      <trkpt lat="49.86519" lon="2.32236">
        <ele>66.8</ele>
        <time>2024-01-12T13:12:46Z</time>
      </trkpt>
      <trkpt lat="49.86518" lon="2.32237">
        <ele>66.8</ele>
        <time>2024-01-12T13:12:47Z</time>
      </trkpt>
      <trkpt lat="49.86516" lon="2.32239">
        <ele>66.7</ele>
        <time>2024-01-12T13:12:48Z</time>
      </trkpt>
      <trkpt lat="49.86516" lon="2.3224">
        <ele>66.7</ele>
        <time>2024-01-12T13:12:49Z</time>
      </trkpt>
      <trkpt lat="49.86515" lon="2.32241">
        <ele>66.6</ele>
        <time>2024-01-12T13:12:50Z</time>
      </trkpt>
      <trkpt lat="49.86513" lon="2.32244">
        <ele>66.5</ele>
        <time>2024-01-12T13:12:52Z</time>
      </trkpt>
      <trkpt lat="49.86512" lon="2.32245">
        <ele>66.5</ele>
        <time>2024-01-12T13:12:53Z</time>
      </trkpt>
      <trkpt lat="49.86511" lon="2.32247">
        <ele>66.5</ele>
        <time>2024-01-12T13:12:54Z</time>
      </trkpt>
      <trkpt lat="49.8651" lon="2.32249">
        <ele>66.4</ele>
        <time>2024-01-12T13:12:55Z</time>
      </trkpt>
      <trkpt lat="49.86509" lon="2.32251">
        <ele>66.3</ele>
        <time>2024-01-12T13:12:56Z</time>
      </trkpt>
      <trkpt lat="49.86508" lon="2.32252">
        <ele>66.3</ele>
        <time>2024-01-12T13:12:57Z</time>
      </trkpt>
      <trkpt lat="49.86508" lon="2.32253">
        <ele>66.3</ele>
        <time>2024-01-12T13:12:58Z</time>
      </trkpt>
      <trkpt lat="49.86506" lon="2.32255">
        <ele>66.2</ele>
        <time>2024-01-12T13:13:00Z</time>
      </trkpt>
      <trkpt lat="49.86506" lon="2.32257">
        <ele>66.2</ele>
        <time>2024-01-12T13:13:01Z</time>
      </trkpt>
      <trkpt lat="49.86505" lon="2.32258">
        <ele>66.1</ele>
        <time>2024-01-12T13:13:02Z</time>
      </trkpt>
      <trkpt lat="49.86504" lon="2.3226">
        <ele>66.1</ele>
        <time>2024-01-12T13:13:03Z</time>
      </trkpt>
      <trkpt lat="49.86503" lon="2.32262">
        <ele>66</ele>
        <time>2024-01-12T13:13:04Z</time>
      </trkpt>
      <trkpt lat="49.86502" lon="2.32264">
        <ele>66</ele>
        <time>2024-01-12T13:13:05Z</time>
      </trkpt>
      <trkpt lat="49.865" lon="2.32266">
        <ele>65.9</ele>
        <time>2024-01-12T13:13:06Z</time>
      </trkpt>
      <trkpt lat="49.86499" lon="2.32268">
        <ele>65.9</ele>
        <time>2024-01-12T13:13:08Z</time>
      </trkpt>
      <trkpt lat="49.86499" lon="2.32269">
        <ele>65.8</ele>
        <time>2024-01-12T13:13:09Z</time>
      </trkpt>
      <trkpt lat="49.86498" lon="2.3227">
        <ele>65.8</ele>
        <time>2024-01-12T13:13:10Z</time>
      </trkpt>
      <trkpt lat="49.86497" lon="2.32271">
        <ele>65.8</ele>
        <time>2024-01-12T13:13:11Z</time>
      </trkpt>
      <trkpt lat="49.86496" lon="2.32273">
        <ele>65.7</ele>
        <time>2024-01-12T13:13:12Z</time>
      </trkpt>
      <trkpt lat="49.86496" lon="2.32274">
        <ele>65.7</ele>
        <time>2024-01-12T13:13:13Z</time>
      </trkpt>
      <trkpt lat="49.86495" lon="2.32275">
        <ele>65.7</ele>
        <time>2024-01-12T13:13:14Z</time>
      </trkpt>
      <trkpt lat="49.86494" lon="2.32277">
        <ele>65.6</ele>
        <time>2024-01-12T13:13:16Z</time>
      </trkpt>
      <trkpt lat="49.86494" lon="2.32278">
        <ele>65.6</ele>
        <time>2024-01-12T13:13:17Z</time>
      </trkpt>
      <trkpt lat="49.86493" lon="2.32279">
        <ele>65.6</ele>
        <time>2024-01-12T13:13:18Z</time>
      </trkpt>
      <trkpt lat="49.86492" lon="2.32281">
        <ele>65.5</ele>
        <time>2024-01-12T13:13:19Z</time>
      </trkpt>
      <trkpt lat="49.86491" lon="2.32282">
        <ele>65.5</ele>
        <time>2024-01-12T13:13:20Z</time>
      </trkpt>
      <trkpt lat="49.86491" lon="2.32283">
        <ele>65.5</ele>
        <time>2024-01-12T13:13:21Z</time>
      </trkpt>
      <trkpt lat="49.8649" lon="2.32284">
        <ele>65.4</ele>
        <time>2024-01-12T13:13:22Z</time>
      </trkpt>
      <trkpt lat="49.8649" lon="2.32285">
        <ele>65.4</ele>
        <time>2024-01-12T13:13:23Z</time>
      </trkpt>
      <trkpt lat="49.86489" lon="2.32287">
        <ele>65.4</ele>
        <time>2024-01-12T13:13:24Z</time>
      </trkpt>
      <trkpt lat="49.86488" lon="2.32288">
        <ele>65.3</ele>
        <time>2024-01-12T13:13:25Z</time>
      </trkpt>
      <trkpt lat="49.86487" lon="2.32289">
        <ele>65.3</ele>
        <time>2024-01-12T13:13:26Z</time>
      </trkpt>
      <trkpt lat="49.86487" lon="2.3229">
        <ele>65.3</ele>
        <time>2024-01-12T13:13:27Z</time>
      </trkpt>
      <trkpt lat="49.86486" lon="2.32291">
        <ele>65.2</ele>
        <time>2024-01-12T13:13:28Z</time>
      </trkpt>
      <trkpt lat="49.86485" lon="2.32293">
        <ele>65.2</ele>
        <time>2024-01-12T13:13:29Z</time>
      </trkpt>
      <trkpt lat="49.86484" lon="2.32294">
        <ele>65.1</ele>
        <time>2024-01-12T13:13:30Z</time>
      </trkpt>
      <trkpt lat="49.86483" lon="2.32295">
        <ele>65.1</ele>
        <time>2024-01-12T13:13:31Z</time>
      </trkpt>
      <trkpt lat="49.86483" lon="2.32296">
        <ele>65.1</ele>
        <time>2024-01-12T13:13:32Z</time>
      </trkpt>
      <trkpt lat="49.86482" lon="2.32297">
        <ele>65</ele>
        <time>2024-01-12T13:13:34Z</time>
      </trkpt>
      <trkpt lat="49.86481" lon="2.32297">
        <ele>65</ele>
        <time>2024-01-12T13:13:35Z</time>
      </trkpt>
      <trkpt lat="49.8648" lon="2.32298">
        <ele>65</ele>
        <time>2024-01-12T13:13:36Z</time>
      </trkpt>
      <trkpt lat="49.86479" lon="2.32298">
        <ele>64.9</ele>
        <time>2024-01-12T13:13:37Z</time>
      </trkpt>
      <trkpt lat="49.86477" lon="2.32301">
        <ele>64.8</ele>
        <time>2024-01-12T13:13:38Z</time>
      </trkpt>
      <trkpt lat="49.86476" lon="2.32303">
        <ele>64.7</ele>
        <time>2024-01-12T13:13:39Z</time>
      </trkpt>
      <trkpt lat="49.86475" lon="2.32305">
        <ele>64.7</ele>
        <time>2024-01-12T13:13:40Z</time>
      </trkpt>
      <trkpt lat="49.86474" lon="2.32307">
        <ele>64.6</ele>
        <time>2024-01-12T13:13:41Z</time>
      </trkpt>
      <trkpt lat="49.86473" lon="2.32308">
        <ele>64.5</ele>
        <time>2024-01-12T13:13:42Z</time>
      </trkpt>
      <trkpt lat="49.86472" lon="2.3231">
        <ele>64.5</ele>
        <time>2024-01-12T13:13:43Z</time>
      </trkpt>
      <trkpt lat="49.8647" lon="2.32312">
        <ele>64.4</ele>
        <time>2024-01-12T13:13:44Z</time>
      </trkpt>
      <trkpt lat="49.8647" lon="2.32313">
        <ele>64.4</ele>
        <time>2024-01-12T13:13:45Z</time>
      </trkpt>
      <trkpt lat="49.86469" lon="2.32314">
        <ele>64.3</ele>
        <time>2024-01-12T13:13:46Z</time>
      </trkpt>
      <trkpt lat="49.86468" lon="2.32316">
        <ele>64.2</ele>
        <time>2024-01-12T13:13:47Z</time>
      </trkpt>
      <trkpt lat="49.86467" lon="2.32317">
        <ele>64.2</ele>
        <time>2024-01-12T13:13:48Z</time>
      </trkpt>
      <trkpt lat="49.86467" lon="2.32318">
        <ele>64.2</ele>
        <time>2024-01-12T13:13:49Z</time>
      </trkpt>
      <trkpt lat="49.86466" lon="2.32319">
        <ele>64.1</ele>
        <time>2024-01-12T13:13:50Z</time>
      </trkpt>
      <trkpt lat="49.86465" lon="2.3232">
        <ele>64.1</ele>
        <time>2024-01-12T13:13:51Z</time>
      </trkpt>
      <trkpt lat="49.86464" lon="2.32321">
        <ele>64.1</ele>
        <time>2024-01-12T13:13:53Z</time>
      </trkpt>
      <trkpt lat="49.86463" lon="2.32322">
        <ele>64</ele>
        <time>2024-01-12T13:13:54Z</time>
      </trkpt>
      <trkpt lat="49.86462" lon="2.32323">
        <ele>64</ele>
        <time>2024-01-12T13:13:55Z</time>
      </trkpt>
      <trkpt lat="49.86461" lon="2.32323">
        <ele>63.9</ele>
        <time>2024-01-12T13:13:56Z</time>
      </trkpt>
      <trkpt lat="49.8646" lon="2.32324">
        <ele>63.9</ele>
        <time>2024-01-12T13:13:57Z</time>
      </trkpt>
      <trkpt lat="49.86459" lon="2.32326">
        <ele>63.8</ele>
        <time>2024-01-12T13:13:59Z</time>
      </trkpt>
      <trkpt lat="49.86458" lon="2.32327">
        <ele>63.8</ele>
        <time>2024-01-12T13:14:00Z</time>
      </trkpt>
      <trkpt lat="49.86456" lon="2.32329">
        <ele>63.7</ele>
        <time>2024-01-12T13:14:01Z</time>
      </trkpt>
      <trkpt lat="49.86455" lon="2.3233">
        <ele>63.6</ele>
        <time>2024-01-12T13:14:02Z</time>
      </trkpt>
      <trkpt lat="49.86454" lon="2.32332">
        <ele>63.6</ele>
        <time>2024-01-12T13:14:03Z</time>
      </trkpt>
      <trkpt lat="49.86453" lon="2.32333">
        <ele>63.5</ele>
        <time>2024-01-12T13:14:04Z</time>
      </trkpt>
      <trkpt lat="49.86452" lon="2.32335">
        <ele>63.5</ele>
        <time>2024-01-12T13:14:05Z</time>
      </trkpt>
      <trkpt lat="49.86451" lon="2.32336">
        <ele>63.4</ele>
        <time>2024-01-12T13:14:06Z</time>
      </trkpt>
      <trkpt lat="49.86451" lon="2.32337">
        <ele>63.4</ele>
        <time>2024-01-12T13:14:07Z</time>
      </trkpt>
      <trkpt lat="49.8645" lon="2.32338">
        <ele>63.4</ele>
        <time>2024-01-12T13:14:08Z</time>
      </trkpt>
      <trkpt lat="49.8645" lon="2.32338">
        <ele>63.3</ele>
        <time>2024-01-12T13:14:09Z</time>
      </trkpt>
      <trkpt lat="49.86449" lon="2.32339">
        <ele>63.3</ele>
        <time>2024-01-12T13:14:10Z</time>
      </trkpt>
      <trkpt lat="49.86448" lon="2.3234">
        <ele>63.3</ele>
        <time>2024-01-12T13:14:11Z</time>
      </trkpt>
      <trkpt lat="49.86448" lon="2.32341">
        <ele>63.2</ele>
        <time>2024-01-12T13:14:12Z</time>
      </trkpt>
      <trkpt lat="49.86447" lon="2.32342">
        <ele>63.2</ele>
        <time>2024-01-12T13:14:13Z</time>
      </trkpt>
      <trkpt lat="49.86446" lon="2.32343">
        <ele>63.1</ele>
        <time>2024-01-12T13:14:14Z</time>
      </trkpt>
      <trkpt lat="49.86445" lon="2.32344">
        <ele>63.1</ele>
        <time>2024-01-12T13:14:15Z</time>
      </trkpt>
      <trkpt lat="49.86445" lon="2.32346">
        <ele>63.1</ele>
        <time>2024-01-12T13:14:16Z</time>
      </trkpt>
      <trkpt lat="49.86444" lon="2.32347">
        <ele>63</ele>
        <time>2024-01-12T13:14:17Z</time>
      </trkpt>
      <trkpt lat="49.86443" lon="2.32348">
        <ele>63</ele>
        <time>2024-01-12T13:14:18Z</time>
      </trkpt>
      <trkpt lat="49.86442" lon="2.32349">
        <ele>62.9</ele>
        <time>2024-01-12T13:14:19Z</time>
      </trkpt>
      <trkpt lat="49.86442" lon="2.3235">
        <ele>62.9</ele>
        <time>2024-01-12T13:14:20Z</time>
      </trkpt>
      <trkpt lat="49.86441" lon="2.32351">
        <ele>62.9</ele>
        <time>2024-01-12T13:14:21Z</time>
      </trkpt>
      <trkpt lat="49.8644" lon="2.32352">
        <ele>62.8</ele>
        <time>2024-01-12T13:14:23Z</time>
      </trkpt>
      <trkpt lat="49.8644" lon="2.32352">
        <ele>62.8</ele>
        <time>2024-01-12T13:14:24Z</time>
      </trkpt>
      <trkpt lat="49.86439" lon="2.32353">
        <ele>62.8</ele>
        <time>2024-01-12T13:14:25Z</time>
      </trkpt>
      <trkpt lat="49.86438" lon="2.32354">
        <ele>62.7</ele>
        <time>2024-01-12T13:14:26Z</time>
      </trkpt>
      <trkpt lat="49.86437" lon="2.32354">
        <ele>62.7</ele>
        <time>2024-01-12T13:14:27Z</time>
      </trkpt>
      <trkpt lat="49.86436" lon="2.32356">
        <ele>62.6</ele>
        <time>2024-01-12T13:14:28Z</time>
      </trkpt>
      <trkpt lat="49.86435" lon="2.32357">
        <ele>62.5</ele>
        <time>2024-01-12T13:14:29Z</time>
      </trkpt>
      <trkpt lat="49.86433" lon="2.32359">
        <ele>62.5</ele>
        <time>2024-01-12T13:14:30Z</time>
      </trkpt>
      <trkpt lat="49.86432" lon="2.3236">
        <ele>62.4</ele>
        <time>2024-01-12T13:14:31Z</time>
      </trkpt>
      <trkpt lat="49.86431" lon="2.32362">
        <ele>62.3</ele>
        <time>2024-01-12T13:14:32Z</time>
      </trkpt>
      <trkpt lat="49.8643" lon="2.32364">
        <ele>62.3</ele>
        <time>2024-01-12T13:14:34Z</time>
      </trkpt>
      <trkpt lat="49.86429" lon="2.32369">
        <ele>62.1</ele>
        <time>2024-01-12T13:14:35Z</time>
      </trkpt>
      <trkpt lat="49.86427" lon="2.32372">
        <ele>62</ele>
        <time>2024-01-12T13:14:36Z</time>
      </trkpt>
      <trkpt lat="49.86426" lon="2.32372">
        <ele>61.9</ele>
        <time>2024-01-12T13:14:37Z</time>
      </trkpt>
      <trkpt lat="49.86426" lon="2.32373">
        <ele>61.9</ele>
        <time>2024-01-12T13:14:38Z</time>
      </trkpt>
      <trkpt lat="49.86425" lon="2.32375">
        <ele>61.8</ele>
        <time>2024-01-12T13:14:39Z</time>
      </trkpt>
      <trkpt lat="49.86424" lon="2.32376">
        <ele>61.8</ele>
        <time>2024-01-12T13:14:40Z</time>
      </trkpt>
      <trkpt lat="49.86423" lon="2.32377">
        <ele>61.7</ele>
        <time>2024-01-12T13:14:41Z</time>
      </trkpt>
      <trkpt lat="49.86423" lon="2.32379">
        <ele>61.7</ele>
        <time>2024-01-12T13:14:42Z</time>
      </trkpt>
      <trkpt lat="49.86422" lon="2.3238">
        <ele>61.6</ele>
        <time>2024-01-12T13:14:43Z</time>
      </trkpt>
      <trkpt lat="49.86421" lon="2.32381">
        <ele>61.6</ele>
        <time>2024-01-12T13:14:44Z</time>
      </trkpt>
      <trkpt lat="49.86421" lon="2.32382">
        <ele>61.5</ele>
        <time>2024-01-12T13:14:45Z</time>
      </trkpt>
      <trkpt lat="49.8642" lon="2.32384">
        <ele>61.5</ele>
        <time>2024-01-12T13:14:46Z</time>
      </trkpt>
      <trkpt lat="49.86419" lon="2.32385">
        <ele>61.4</ele>
        <time>2024-01-12T13:14:47Z</time>
      </trkpt>
      <trkpt lat="49.86418" lon="2.32386">
        <ele>61.4</ele>
        <time>2024-01-12T13:14:48Z</time>
      </trkpt>
      <trkpt lat="49.86418" lon="2.32388">
        <ele>61.3</ele>
        <time>2024-01-12T13:14:49Z</time>
      </trkpt>
      <trkpt lat="49.86417" lon="2.32389">
        <ele>61.3</ele>
        <time>2024-01-12T13:14:50Z</time>
      </trkpt>
      <trkpt lat="49.86416" lon="2.3239">
        <ele>61.2</ele>
        <time>2024-01-12T13:14:51Z</time>
      </trkpt>
      <trkpt lat="49.86415" lon="2.32391">
        <ele>61.2</ele>
        <time>2024-01-12T13:14:52Z</time>
      </trkpt>
      <trkpt lat="49.86415" lon="2.32392">
        <ele>61.1</ele>
        <time>2024-01-12T13:14:53Z</time>
      </trkpt>
      <trkpt lat="49.86414" lon="2.32393">
        <ele>61.1</ele>
        <time>2024-01-12T13:14:54Z</time>
      </trkpt>
      <trkpt lat="49.86413" lon="2.32394">
        <ele>61</ele>
        <time>2024-01-12T13:14:55Z</time>
      </trkpt>
      <trkpt lat="49.86413" lon="2.32395">
        <ele>61</ele>
        <time>2024-01-12T13:14:56Z</time>
      </trkpt>
      <trkpt lat="49.86412" lon="2.32396">
        <ele>61</ele>
        <time>2024-01-12T13:14:57Z</time>
      </trkpt>
      <trkpt lat="49.86411" lon="2.32397">
        <ele>60.9</ele>
        <time>2024-01-12T13:14:58Z</time>
      </trkpt>
      <trkpt lat="49.8641" lon="2.32398">
        <ele>60.9</ele>
        <time>2024-01-12T13:14:59Z</time>
      </trkpt>
      <trkpt lat="49.8641" lon="2.324">
        <ele>60.8</ele>
        <time>2024-01-12T13:15:00Z</time>
      </trkpt>
      <trkpt lat="49.86409" lon="2.32401">
        <ele>60.8</ele>
        <time>2024-01-12T13:15:01Z</time>
      </trkpt>
      <trkpt lat="49.86409" lon="2.32402">
        <ele>60.7</ele>
        <time>2024-01-12T13:15:02Z</time>
      </trkpt>
      <trkpt lat="49.86408" lon="2.32403">
        <ele>60.7</ele>
        <time>2024-01-12T13:15:03Z</time>
      </trkpt>
      <trkpt lat="49.86407" lon="2.32404">
        <ele>60.7</ele>
        <time>2024-01-12T13:15:04Z</time>
      </trkpt>
      <trkpt lat="49.86407" lon="2.32405">
        <ele>60.6</ele>
        <time>2024-01-12T13:15:05Z</time>
      </trkpt>
      <trkpt lat="49.86406" lon="2.32406">
        <ele>60.6</ele>
        <time>2024-01-12T13:15:06Z</time>
      </trkpt>
      <trkpt lat="49.86406" lon="2.32408">
        <ele>60.6</ele>
        <time>2024-01-12T13:15:07Z</time>
      </trkpt>
      <trkpt lat="49.86406" lon="2.32409">
        <ele>60.5</ele>
        <time>2024-01-12T13:15:08Z</time>
      </trkpt>
      <trkpt lat="49.86405" lon="2.3241">
        <ele>60.5</ele>
        <time>2024-01-12T13:15:09Z</time>
      </trkpt>
      <trkpt lat="49.86405" lon="2.32411">
        <ele>60.4</ele>
        <time>2024-01-12T13:15:10Z</time>
      </trkpt>
      <trkpt lat="49.86405" lon="2.32413">
        <ele>60.4</ele>
        <time>2024-01-12T13:15:11Z</time>
      </trkpt>
      <trkpt lat="49.86405" lon="2.32414">
        <ele>60.4</ele>
        <time>2024-01-12T13:15:12Z</time>
      </trkpt>
      <trkpt lat="49.86405" lon="2.32415">
        <ele>60.4</ele>
        <time>2024-01-12T13:15:13Z</time>
      </trkpt>
      <trkpt lat="49.86404" lon="2.32415">
        <ele>60.3</ele>
        <time>2024-01-12T13:15:14Z</time>
      </trkpt>
      <trkpt lat="49.86404" lon="2.32416">
        <ele>60.3</ele>
        <time>2024-01-12T13:15:15Z</time>
      </trkpt>
      <trkpt lat="49.86403" lon="2.32417">
        <ele>60.3</ele>
        <time>2024-01-12T13:15:16Z</time>
      </trkpt>
      <trkpt lat="49.86403" lon="2.32417">
        <ele>60.3</ele>
        <time>2024-01-12T13:15:17Z</time>
      </trkpt>
      <trkpt lat="49.86403" lon="2.32417">
        <ele>60.3</ele>
        <time>2024-01-12T13:15:18Z</time>
      </trkpt>
      <trkpt lat="49.86403" lon="2.32417">
        <ele>60.3</ele>
        <time>2024-01-12T13:15:19Z</time>
      </trkpt>
      <trkpt lat="49.86403" lon="2.32417">
        <ele>60.2</ele>
        <time>2024-01-12T13:15:20Z</time>
      </trkpt>
      <trkpt lat="49.86403" lon="2.32416">
        <ele>60.2</ele>
        <time>2024-01-12T13:15:21Z</time>
      </trkpt>
      <trkpt lat="49.86403" lon="2.32416">
        <ele>60.2</ele>
        <time>2024-01-12T13:15:22Z</time>
      </trkpt>
      <trkpt lat="49.86403" lon="2.32416">
        <ele>60.2</ele>
        <time>2024-01-12T13:15:23Z</time>
      </trkpt>
      <trkpt lat="49.86403" lon="2.32416">
        <ele>60.2</ele>
        <time>2024-01-12T13:15:24Z</time>
      </trkpt>
      <trkpt lat="49.86403" lon="2.32416">
        <ele>60.2</ele>
        <time>2024-01-12T13:15:25Z</time>
      </trkpt>
      <trkpt lat="49.86403" lon="2.32416">
        <ele>60.2</ele>
        <time>2024-01-12T13:15:26Z</time>
      </trkpt>
      <trkpt lat="49.86403" lon="2.32416">
        <ele>60.2</ele>
        <time>2024-01-12T13:15:27Z</time>
      </trkpt>
      <trkpt lat="49.86403" lon="2.32416">
        <ele>60.2</ele>
        <time>2024-01-12T13:15:28Z</time>
      </trkpt>
      <trkpt lat="49.86403" lon="2.32416">
        <ele>60.2</ele>
        <time>2024-01-12T13:15:30Z</time>
      </trkpt>
      <trkpt lat="49.86402" lon="2.32416">
        <ele>60.2</ele>
        <time>2024-01-12T13:16:43Z</time>
      </trkpt>
      <trkpt lat="49.86401" lon="2.32417">
        <ele>60.1</ele>
        <time>2024-01-12T13:16:44Z</time>
      </trkpt>
      <trkpt lat="49.864" lon="2.32418">
        <ele>60.1</ele>
        <time>2024-01-12T13:16:45Z</time>
      </trkpt>
      <trkpt lat="49.864" lon="2.32419">
        <ele>60.1</ele>
        <time>2024-01-12T13:16:46Z</time>
      </trkpt>
      <trkpt lat="49.86398" lon="2.32421">
        <ele>60</ele>
        <time>2024-01-12T13:16:47Z</time>
      </trkpt>
      <trkpt lat="49.86398" lon="2.32421">
        <ele>59.9</ele>
        <time>2024-01-12T13:16:48Z</time>
      </trkpt>
      <trkpt lat="49.86397" lon="2.32421">
        <ele>59.9</ele>
        <time>2024-01-12T13:16:49Z</time>
      </trkpt>
      <trkpt lat="49.86396" lon="2.32422">
        <ele>59.9</ele>
        <time>2024-01-12T13:16:50Z</time>
      </trkpt>
      <trkpt lat="49.86395" lon="2.32422">
        <ele>59.8</ele>
        <time>2024-01-12T13:16:51Z</time>
      </trkpt>
      <trkpt lat="49.86394" lon="2.32423">
        <ele>59.8</ele>
        <time>2024-01-12T13:16:52Z</time>
      </trkpt>
      <trkpt lat="49.86393" lon="2.32423">
        <ele>59.7</ele>
        <time>2024-01-12T13:16:53Z</time>
      </trkpt>
      <trkpt lat="49.86392" lon="2.32423">
        <ele>59.7</ele>
        <time>2024-01-12T13:16:54Z</time>
      </trkpt>
      <trkpt lat="49.86391" lon="2.32424">
        <ele>59.6</ele>
        <time>2024-01-12T13:16:55Z</time>
      </trkpt>
      <trkpt lat="49.8639" lon="2.32424">
        <ele>59.6</ele>
        <time>2024-01-12T13:16:56Z</time>
      </trkpt>
      <trkpt lat="49.86389" lon="2.32425">
        <ele>59.5</ele>
        <time>2024-01-12T13:16:57Z</time>
      </trkpt>
      <trkpt lat="49.86388" lon="2.32425">
        <ele>59.4</ele>
        <time>2024-01-12T13:16:58Z</time>
      </trkpt>
      <trkpt lat="49.86387" lon="2.32425">
        <ele>59.4</ele>
        <time>2024-01-12T13:16:59Z</time>
      </trkpt>
      <trkpt lat="49.86386" lon="2.32426">
        <ele>59.3</ele>
        <time>2024-01-12T13:17:00Z</time>
      </trkpt>
      <trkpt lat="49.86385" lon="2.32426">
        <ele>59.3</ele>
        <time>2024-01-12T13:17:01Z</time>
      </trkpt>
      <trkpt lat="49.86384" lon="2.32426">
        <ele>59.2</ele>
        <time>2024-01-12T13:17:02Z</time>
      </trkpt>
      <trkpt lat="49.86383" lon="2.32427">
        <ele>59.2</ele>
        <time>2024-01-12T13:17:03Z</time>
      </trkpt>
      <trkpt lat="49.86382" lon="2.32427">
        <ele>59.1</ele>
        <time>2024-01-12T13:17:04Z</time>
      </trkpt>
      <trkpt lat="49.86381" lon="2.32427">
        <ele>59</ele>
        <time>2024-01-12T13:17:05Z</time>
      </trkpt>
      <trkpt lat="49.8638" lon="2.32428">
        <ele>59</ele>
        <time>2024-01-12T13:17:06Z</time>
      </trkpt>
      <trkpt lat="49.86379" lon="2.32428">
        <ele>58.9</ele>
        <time>2024-01-12T13:17:07Z</time>
      </trkpt>
      <trkpt lat="49.86378" lon="2.32428">
        <ele>58.9</ele>
        <time>2024-01-12T13:17:08Z</time>
      </trkpt>
      <trkpt lat="49.86377" lon="2.32428">
        <ele>58.8</ele>
        <time>2024-01-12T13:17:09Z</time>
      </trkpt>
      <trkpt lat="49.86376" lon="2.32429">
        <ele>58.8</ele>
        <time>2024-01-12T13:17:10Z</time>
      </trkpt>
      <trkpt lat="49.86375" lon="2.32429">
        <ele>58.7</ele>
        <time>2024-01-12T13:17:11Z</time>
      </trkpt>
      <trkpt lat="49.86374" lon="2.3243">
        <ele>58.6</ele>
        <time>2024-01-12T13:17:12Z</time>
      </trkpt>
      <trkpt lat="49.86373" lon="2.3243">
        <ele>58.6</ele>
        <time>2024-01-12T13:17:13Z</time>
      </trkpt>
      <trkpt lat="49.86372" lon="2.3243">
        <ele>58.5</ele>
        <time>2024-01-12T13:17:14Z</time>
      </trkpt>
      <trkpt lat="49.86371" lon="2.32431">
        <ele>58.5</ele>
        <time>2024-01-12T13:17:15Z</time>
      </trkpt>
      <trkpt lat="49.8637" lon="2.32431">
        <ele>58.4</ele>
        <time>2024-01-12T13:17:16Z</time>
      </trkpt>
      <trkpt lat="49.86369" lon="2.32431">
        <ele>58.4</ele>
        <time>2024-01-12T13:17:17Z</time>
      </trkpt>
      <trkpt lat="49.86368" lon="2.32432">
        <ele>58.3</ele>
        <time>2024-01-12T13:17:18Z</time>
      </trkpt>
      <trkpt lat="49.86367" lon="2.32432">
        <ele>58.2</ele>
        <time>2024-01-12T13:17:19Z</time>
      </trkpt>
      <trkpt lat="49.86366" lon="2.32433">
        <ele>58.2</ele>
        <time>2024-01-12T13:17:20Z</time>
      </trkpt>
      <trkpt lat="49.86365" lon="2.32433">
        <ele>58.1</ele>
        <time>2024-01-12T13:17:21Z</time>
      </trkpt>
      <trkpt lat="49.86364" lon="2.32434">
        <ele>58</ele>
        <time>2024-01-12T13:17:22Z</time>
      </trkpt>
      <trkpt lat="49.86363" lon="2.32435">
        <ele>58</ele>
        <time>2024-01-12T13:17:23Z</time>
      </trkpt>
      <trkpt lat="49.86361" lon="2.32435">
        <ele>57.9</ele>
        <time>2024-01-12T13:17:24Z</time>
      </trkpt>
      <trkpt lat="49.8636" lon="2.32436">
        <ele>57.9</ele>
        <time>2024-01-12T13:17:25Z</time>
      </trkpt>
      <trkpt lat="49.86359" lon="2.32436">
        <ele>57.8</ele>
        <time>2024-01-12T13:17:26Z</time>
      </trkpt>
      <trkpt lat="49.86357" lon="2.32437">
        <ele>57.7</ele>
        <time>2024-01-12T13:17:27Z</time>
      </trkpt>
      <trkpt lat="49.86356" lon="2.32438">
        <ele>57.7</ele>
        <time>2024-01-12T13:17:28Z</time>
      </trkpt>
      <trkpt lat="49.86356" lon="2.32438">
        <ele>57.6</ele>
        <time>2024-01-12T13:17:29Z</time>
      </trkpt>
      <trkpt lat="49.86354" lon="2.32439">
        <ele>57.5</ele>
        <time>2024-01-12T13:17:30Z</time>
      </trkpt>
      <trkpt lat="49.86353" lon="2.3244">
        <ele>57.5</ele>
        <time>2024-01-12T13:17:31Z</time>
      </trkpt>
      <trkpt lat="49.86352" lon="2.3244">
        <ele>57.4</ele>
        <time>2024-01-12T13:17:32Z</time>
      </trkpt>
      <trkpt lat="49.86351" lon="2.32441">
        <ele>57.4</ele>
        <time>2024-01-12T13:17:33Z</time>
      </trkpt>
      <trkpt lat="49.8635" lon="2.32441">
        <ele>57.3</ele>
        <time>2024-01-12T13:17:34Z</time>
      </trkpt>
      <trkpt lat="49.86349" lon="2.32442">
        <ele>57.3</ele>
        <time>2024-01-12T13:17:35Z</time>
      </trkpt>
      <trkpt lat="49.86348" lon="2.32442">
        <ele>57.2</ele>
        <time>2024-01-12T13:17:36Z</time>
      </trkpt>
      <trkpt lat="49.86348" lon="2.32444">
        <ele>57.2</ele>
        <time>2024-01-12T13:17:37Z</time>
      </trkpt>
      <trkpt lat="49.86347" lon="2.32445">
        <ele>57.1</ele>
        <time>2024-01-12T13:17:38Z</time>
      </trkpt>
      <trkpt lat="49.86346" lon="2.32446">
        <ele>57.1</ele>
        <time>2024-01-12T13:17:39Z</time>
      </trkpt>
      <trkpt lat="49.86345" lon="2.32447">
        <ele>57</ele>
        <time>2024-01-12T13:17:40Z</time>
      </trkpt>
      <trkpt lat="49.86344" lon="2.32447">
        <ele>57</ele>
        <time>2024-01-12T13:17:41Z</time>
      </trkpt>
      <trkpt lat="49.86342" lon="2.32448">
        <ele>56.9</ele>
        <time>2024-01-12T13:17:42Z</time>
      </trkpt>
      <trkpt lat="49.86341" lon="2.32448">
        <ele>56.8</ele>
        <time>2024-01-12T13:17:43Z</time>
      </trkpt>
      <trkpt lat="49.8634" lon="2.32449">
        <ele>56.8</ele>
        <time>2024-01-12T13:17:44Z</time>
      </trkpt>
      <trkpt lat="49.86339" lon="2.32449">
        <ele>56.7</ele>
        <time>2024-01-12T13:17:45Z</time>
      </trkpt>
      <trkpt lat="49.86338" lon="2.3245">
        <ele>56.7</ele>
        <time>2024-01-12T13:17:46Z</time>
      </trkpt>
      <trkpt lat="49.86337" lon="2.3245">
        <ele>56.6</ele>
        <time>2024-01-12T13:17:47Z</time>
      </trkpt>
      <trkpt lat="49.86336" lon="2.32451">
        <ele>56.6</ele>
        <time>2024-01-12T13:17:48Z</time>
      </trkpt>
      <trkpt lat="49.86335" lon="2.32451">
        <ele>56.5</ele>
        <time>2024-01-12T13:17:49Z</time>
      </trkpt>
      <trkpt lat="49.86334" lon="2.32451">
        <ele>56.5</ele>
        <time>2024-01-12T13:17:50Z</time>
      </trkpt>
      <trkpt lat="49.86333" lon="2.32452">
        <ele>56.4</ele>
        <time>2024-01-12T13:17:51Z</time>
      </trkpt>
      <trkpt lat="49.86332" lon="2.32452">
        <ele>56.4</ele>
        <time>2024-01-12T13:17:52Z</time>
      </trkpt>
      <trkpt lat="49.86331" lon="2.32453">
        <ele>56.3</ele>
        <time>2024-01-12T13:17:53Z</time>
      </trkpt>
      <trkpt lat="49.8633" lon="2.32453">
        <ele>56.3</ele>
        <time>2024-01-12T13:17:54Z</time>
      </trkpt>
      <trkpt lat="49.86328" lon="2.32454">
        <ele>56.2</ele>
        <time>2024-01-12T13:17:55Z</time>
      </trkpt>
      <trkpt lat="49.86327" lon="2.32454">
        <ele>56.1</ele>
        <time>2024-01-12T13:17:56Z</time>
      </trkpt>
      <trkpt lat="49.86326" lon="2.32454">
        <ele>56.1</ele>
        <time>2024-01-12T13:17:57Z</time>
      </trkpt>
      <trkpt lat="49.86325" lon="2.32455">
        <ele>56</ele>
        <time>2024-01-12T13:17:58Z</time>
      </trkpt>
      <trkpt lat="49.86324" lon="2.32455">
        <ele>56</ele>
        <time>2024-01-12T13:17:59Z</time>
      </trkpt>
      <trkpt lat="49.86323" lon="2.32456">
        <ele>55.9</ele>
        <time>2024-01-12T13:18:00Z</time>
      </trkpt>
      <trkpt lat="49.86323" lon="2.32456">
        <ele>55.9</ele>
        <time>2024-01-12T13:18:01Z</time>
      </trkpt>
      <trkpt lat="49.86322" lon="2.32456">
        <ele>55.8</ele>
        <time>2024-01-12T13:18:02Z</time>
      </trkpt>
      <trkpt lat="49.86321" lon="2.32456">
        <ele>55.8</ele>
        <time>2024-01-12T13:18:03Z</time>
      </trkpt>
      <trkpt lat="49.8632" lon="2.32457">
        <ele>55.7</ele>
        <time>2024-01-12T13:18:04Z</time>
      </trkpt>
      <trkpt lat="49.86319" lon="2.32457">
        <ele>55.7</ele>
        <time>2024-01-12T13:18:05Z</time>
      </trkpt>
      <trkpt lat="49.86318" lon="2.32457">
        <ele>55.6</ele>
        <time>2024-01-12T13:18:06Z</time>
      </trkpt>
      <trkpt lat="49.86317" lon="2.32458">
        <ele>55.5</ele>
        <time>2024-01-12T13:18:07Z</time>
      </trkpt>
      <trkpt lat="49.86316" lon="2.32458">
        <ele>55.5</ele>
        <time>2024-01-12T13:18:08Z</time>
      </trkpt>
      <trkpt lat="49.86315" lon="2.32458">
        <ele>55.4</ele>
        <time>2024-01-12T13:18:09Z</time>
      </trkpt>
      <trkpt lat="49.86314" lon="2.32459">
        <ele>55.4</ele>
        <time>2024-01-12T13:18:10Z</time>
      </trkpt>
      <trkpt lat="49.86313" lon="2.32459">
        <ele>55.3</ele>
        <time>2024-01-12T13:18:11Z</time>
      </trkpt>
      <trkpt lat="49.86312" lon="2.32459">
        <ele>55.3</ele>
        <time>2024-01-12T13:18:12Z</time>
      </trkpt>
      <trkpt lat="49.86311" lon="2.3246">
        <ele>55.2</ele>
        <time>2024-01-12T13:18:13Z</time>
      </trkpt>
      <trkpt lat="49.8631" lon="2.3246">
        <ele>55.2</ele>
        <time>2024-01-12T13:18:14Z</time>
      </trkpt>
      <trkpt lat="49.86309" lon="2.3246">
        <ele>55.1</ele>
        <time>2024-01-12T13:18:15Z</time>
      </trkpt>
      <trkpt lat="49.86308" lon="2.32461">
        <ele>55.1</ele>
        <time>2024-01-12T13:18:16Z</time>
      </trkpt>
      <trkpt lat="49.86307" lon="2.32461">
        <ele>55</ele>
        <time>2024-01-12T13:18:17Z</time>
      </trkpt>
      <trkpt lat="49.86306" lon="2.32462">
        <ele>54.9</ele>
        <time>2024-01-12T13:18:18Z</time>
      </trkpt>
      <trkpt lat="49.86305" lon="2.32463">
        <ele>54.9</ele>
        <time>2024-01-12T13:18:19Z</time>
      </trkpt>
      <trkpt lat="49.86303" lon="2.32463">
        <ele>54.8</ele>
        <time>2024-01-12T13:18:20Z</time>
      </trkpt>
      <trkpt lat="49.86302" lon="2.32464">
        <ele>54.7</ele>
        <time>2024-01-12T13:18:21Z</time>
      </trkpt>
      <trkpt lat="49.86301" lon="2.32464">
        <ele>54.7</ele>
        <time>2024-01-12T13:18:22Z</time>
      </trkpt>
      <trkpt lat="49.863" lon="2.32465">
        <ele>54.6</ele>
        <time>2024-01-12T13:18:23Z</time>
      </trkpt>
      <trkpt lat="49.86299" lon="2.32465">
        <ele>54.6</ele>
        <time>2024-01-12T13:18:24Z</time>
      </trkpt>
      <trkpt lat="49.86298" lon="2.32466">
        <ele>54.5</ele>
        <time>2024-01-12T13:18:25Z</time>
      </trkpt>
      <trkpt lat="49.86297" lon="2.32467">
        <ele>54.4</ele>
        <time>2024-01-12T13:18:26Z</time>
      </trkpt>
      <trkpt lat="49.86296" lon="2.32467">
        <ele>54.4</ele>
        <time>2024-01-12T13:18:27Z</time>
      </trkpt>
      <trkpt lat="49.86295" lon="2.32468">
        <ele>54.3</ele>
        <time>2024-01-12T13:18:28Z</time>
      </trkpt>
      <trkpt lat="49.86294" lon="2.32469">
        <ele>54.2</ele>
        <time>2024-01-12T13:18:29Z</time>
      </trkpt>
      <trkpt lat="49.86293" lon="2.32469">
        <ele>54.2</ele>
        <time>2024-01-12T13:18:30Z</time>
      </trkpt>
      <trkpt lat="49.86291" lon="2.3247">
        <ele>54.1</ele>
        <time>2024-01-12T13:18:31Z</time>
      </trkpt>
      <trkpt lat="49.8629" lon="2.3247">
        <ele>54.1</ele>
        <time>2024-01-12T13:18:32Z</time>
      </trkpt>
      <trkpt lat="49.86289" lon="2.32471">
        <ele>54</ele>
        <time>2024-01-12T13:18:33Z</time>
      </trkpt>
      <trkpt lat="49.86288" lon="2.32471">
        <ele>53.9</ele>
        <time>2024-01-12T13:18:34Z</time>
      </trkpt>
      <trkpt lat="49.86287" lon="2.32472">
        <ele>53.9</ele>
        <time>2024-01-12T13:18:35Z</time>
      </trkpt>
      <trkpt lat="49.86286" lon="2.32472">
        <ele>53.8</ele>
        <time>2024-01-12T13:18:36Z</time>
      </trkpt>
      <trkpt lat="49.86285" lon="2.32473">
        <ele>53.7</ele>
        <time>2024-01-12T13:18:37Z</time>
      </trkpt>
      <trkpt lat="49.86284" lon="2.32473">
        <ele>53.7</ele>
        <time>2024-01-12T13:18:38Z</time>
      </trkpt>
      <trkpt lat="49.86283" lon="2.32474">
        <ele>53.6</ele>
        <time>2024-01-12T13:18:39Z</time>
      </trkpt>
      <trkpt lat="49.86282" lon="2.32474">
        <ele>53.6</ele>
        <time>2024-01-12T13:18:40Z</time>
      </trkpt>
      <trkpt lat="49.86281" lon="2.32474">
        <ele>53.5</ele>
        <time>2024-01-12T13:18:41Z</time>
      </trkpt>
      <trkpt lat="49.8628" lon="2.32475">
        <ele>53.4</ele>
        <time>2024-01-12T13:18:42Z</time>
      </trkpt>
      <trkpt lat="49.86279" lon="2.32475">
        <ele>53.4</ele>
        <time>2024-01-12T13:18:43Z</time>
      </trkpt>
      <trkpt lat="49.86277" lon="2.32476">
        <ele>53.3</ele>
        <time>2024-01-12T13:18:44Z</time>
      </trkpt>
      <trkpt lat="49.86277" lon="2.32476">
        <ele>53.3</ele>
        <time>2024-01-12T13:18:45Z</time>
      </trkpt>
      <trkpt lat="49.86276" lon="2.32477">
        <ele>53.2</ele>
        <time>2024-01-12T13:18:46Z</time>
      </trkpt>
      <trkpt lat="49.86275" lon="2.32477">
        <ele>53.1</ele>
        <time>2024-01-12T13:18:47Z</time>
      </trkpt>
      <trkpt lat="49.86274" lon="2.32477">
        <ele>53.1</ele>
        <time>2024-01-12T13:18:48Z</time>
      </trkpt>
      <trkpt lat="49.86273" lon="2.32478">
        <ele>53</ele>
        <time>2024-01-12T13:18:49Z</time>
      </trkpt>
      <trkpt lat="49.86272" lon="2.32478">
        <ele>53</ele>
        <time>2024-01-12T13:18:50Z</time>
      </trkpt>
      <trkpt lat="49.86271" lon="2.32478">
        <ele>52.9</ele>
        <time>2024-01-12T13:18:51Z</time>
      </trkpt>
      <trkpt lat="49.8627" lon="2.32479">
        <ele>52.9</ele>
        <time>2024-01-12T13:18:52Z</time>
      </trkpt>
      <trkpt lat="49.8627" lon="2.32479">
        <ele>52.8</ele>
        <time>2024-01-12T13:18:53Z</time>
      </trkpt>
      <trkpt lat="49.86269" lon="2.32479">
        <ele>52.8</ele>
        <time>2024-01-12T13:18:54Z</time>
      </trkpt>
      <trkpt lat="49.86268" lon="2.32479">
        <ele>52.7</ele>
        <time>2024-01-12T13:18:55Z</time>
      </trkpt>
      <trkpt lat="49.86267" lon="2.3248">
        <ele>52.7</ele>
        <time>2024-01-12T13:18:56Z</time>
      </trkpt>
      <trkpt lat="49.86266" lon="2.3248">
        <ele>52.6</ele>
        <time>2024-01-12T13:18:57Z</time>
      </trkpt>
      <trkpt lat="49.86265" lon="2.32481">
        <ele>52.6</ele>
        <time>2024-01-12T13:18:58Z</time>
      </trkpt>
      <trkpt lat="49.86264" lon="2.32481">
        <ele>52.5</ele>
        <time>2024-01-12T13:18:59Z</time>
      </trkpt>
      <trkpt lat="49.86263" lon="2.32481">
        <ele>52.5</ele>
        <time>2024-01-12T13:19:00Z</time>
      </trkpt>
      <trkpt lat="49.86262" lon="2.32482">
        <ele>52.4</ele>
        <time>2024-01-12T13:19:01Z</time>
      </trkpt>
      <trkpt lat="49.86261" lon="2.32482">
        <ele>52.3</ele>
        <time>2024-01-12T13:19:02Z</time>
      </trkpt>
      <trkpt lat="49.8626" lon="2.32483">
        <ele>52.3</ele>
        <time>2024-01-12T13:19:03Z</time>
      </trkpt>
      <trkpt lat="49.86259" lon="2.32483">
        <ele>52.2</ele>
        <time>2024-01-12T13:19:04Z</time>
      </trkpt>
      <trkpt lat="49.86258" lon="2.32484">
        <ele>52.1</ele>
        <time>2024-01-12T13:19:05Z</time>
      </trkpt>
      <trkpt lat="49.86257" lon="2.32484">
        <ele>52.1</ele>
        <time>2024-01-12T13:19:06Z</time>
      </trkpt>
      <trkpt lat="49.86256" lon="2.32484">
        <ele>52</ele>
        <time>2024-01-12T13:19:07Z</time>
      </trkpt>
      <trkpt lat="49.86255" lon="2.32485">
        <ele>52</ele>
        <time>2024-01-12T13:19:08Z</time>
      </trkpt>
      <trkpt lat="49.86254" lon="2.32485">
        <ele>51.9</ele>
        <time>2024-01-12T13:19:09Z</time>
      </trkpt>
      <trkpt lat="49.86253" lon="2.32486">
        <ele>51.9</ele>
        <time>2024-01-12T13:19:10Z</time>
      </trkpt>
      <trkpt lat="49.86252" lon="2.32486">
        <ele>51.8</ele>
        <time>2024-01-12T13:19:11Z</time>
      </trkpt>
      <trkpt lat="49.86251" lon="2.32486">
        <ele>51.7</ele>
        <time>2024-01-12T13:19:12Z</time>
      </trkpt>
      <trkpt lat="49.8625" lon="2.32487">
        <ele>51.7</ele>
        <time>2024-01-12T13:19:13Z</time>
      </trkpt>
      <trkpt lat="49.86249" lon="2.32487">
        <ele>51.6</ele>
        <time>2024-01-12T13:19:14Z</time>
      </trkpt>
      <trkpt lat="49.86248" lon="2.32488">
        <ele>51.5</ele>
        <time>2024-01-12T13:19:15Z</time>
      </trkpt>
      <trkpt lat="49.86247" lon="2.32488">
        <ele>51.5</ele>
        <time>2024-01-12T13:19:16Z</time>
      </trkpt>
      <trkpt lat="49.86246" lon="2.32488">
        <ele>51.4</ele>
        <time>2024-01-12T13:19:17Z</time>
      </trkpt>
      <trkpt lat="49.86245" lon="2.32489">
        <ele>51.4</ele>
        <time>2024-01-12T13:19:18Z</time>
      </trkpt>
      <trkpt lat="49.86244" lon="2.32489">
        <ele>51.3</ele>
        <time>2024-01-12T13:19:19Z</time>
      </trkpt>
      <trkpt lat="49.86243" lon="2.3249">
        <ele>51.2</ele>
        <time>2024-01-12T13:19:20Z</time>
      </trkpt>
      <trkpt lat="49.86242" lon="2.3249">
        <ele>51.2</ele>
        <time>2024-01-12T13:19:21Z</time>
      </trkpt>
      <trkpt lat="49.86241" lon="2.32491">
        <ele>51.1</ele>
        <time>2024-01-12T13:19:22Z</time>
      </trkpt>
      <trkpt lat="49.8624" lon="2.32491">
        <ele>51.1</ele>
        <time>2024-01-12T13:19:23Z</time>
      </trkpt>
      <trkpt lat="49.86239" lon="2.32492">
        <ele>51</ele>
        <time>2024-01-12T13:19:24Z</time>
      </trkpt>
      <trkpt lat="49.86238" lon="2.32492">
        <ele>50.9</ele>
        <time>2024-01-12T13:19:25Z</time>
      </trkpt>
      <trkpt lat="49.86237" lon="2.32493">
        <ele>50.9</ele>
        <time>2024-01-12T13:19:26Z</time>
      </trkpt>
      <trkpt lat="49.86236" lon="2.32493">
        <ele>50.8</ele>
        <time>2024-01-12T13:19:27Z</time>
      </trkpt>
      <trkpt lat="49.86235" lon="2.32494">
        <ele>50.7</ele>
        <time>2024-01-12T13:19:28Z</time>
      </trkpt>
      <trkpt lat="49.86234" lon="2.32495">
        <ele>50.6</ele>
        <time>2024-01-12T13:19:29Z</time>
      </trkpt>
      <trkpt lat="49.86233" lon="2.32495">
        <ele>50.6</ele>
        <time>2024-01-12T13:19:30Z</time>
      </trkpt>
      <trkpt lat="49.86232" lon="2.32496">
        <ele>50.5</ele>
        <time>2024-01-12T13:19:31Z</time>
      </trkpt>
      <trkpt lat="49.86231" lon="2.32496">
        <ele>50.5</ele>
        <time>2024-01-12T13:19:32Z</time>
      </trkpt>
      <trkpt lat="49.8623" lon="2.32496">
        <ele>50.4</ele>
        <time>2024-01-12T13:19:33Z</time>
      </trkpt>
      <trkpt lat="49.86229" lon="2.32497">
        <ele>50.3</ele>
        <time>2024-01-12T13:19:34Z</time>
      </trkpt>
      <trkpt lat="49.86227" lon="2.32497">
        <ele>50.2</ele>
        <time>2024-01-12T13:19:35Z</time>
      </trkpt>
      <trkpt lat="49.86226" lon="2.32498">
        <ele>50.2</ele>
        <time>2024-01-12T13:19:36Z</time>
      </trkpt>
      <trkpt lat="49.86224" lon="2.32498">
        <ele>50</ele>
        <time>2024-01-12T13:19:37Z</time>
      </trkpt>
      <trkpt lat="49.86223" lon="2.32499">
        <ele>50</ele>
        <time>2024-01-12T13:19:38Z</time>
      </trkpt>
      <trkpt lat="49.86223" lon="2.32499">
        <ele>49.9</ele>
        <time>2024-01-12T13:19:39Z</time>
      </trkpt>
      <trkpt lat="49.86221" lon="2.325">
        <ele>49.8</ele>
        <time>2024-01-12T13:19:40Z</time>
      </trkpt>
      <trkpt lat="49.8622" lon="2.325">
        <ele>49.7</ele>
        <time>2024-01-12T13:19:41Z</time>
      </trkpt>
      <trkpt lat="49.86219" lon="2.325">
        <ele>49.7</ele>
        <time>2024-01-12T13:19:42Z</time>
      </trkpt>
      <trkpt lat="49.86218" lon="2.32501">
        <ele>49.6</ele>
        <time>2024-01-12T13:19:43Z</time>
      </trkpt>
      <trkpt lat="49.86217" lon="2.32501">
        <ele>49.6</ele>
        <time>2024-01-12T13:19:44Z</time>
      </trkpt>
      <trkpt lat="49.86216" lon="2.32501">
        <ele>49.5</ele>
        <time>2024-01-12T13:19:45Z</time>
      </trkpt>
      <trkpt lat="49.86214" lon="2.32501">
        <ele>49.4</ele>
        <time>2024-01-12T13:19:46Z</time>
      </trkpt>
      <trkpt lat="49.86213" lon="2.32502">
        <ele>49.4</ele>
        <time>2024-01-12T13:19:47Z</time>
      </trkpt>
      <trkpt lat="49.86212" lon="2.32502">
        <ele>49.3</ele>
        <time>2024-01-12T13:19:48Z</time>
      </trkpt>
      <trkpt lat="49.8621" lon="2.32502">
        <ele>49.2</ele>
        <time>2024-01-12T13:19:49Z</time>
      </trkpt>
      <trkpt lat="49.86209" lon="2.32503">
        <ele>49.1</ele>
        <time>2024-01-12T13:19:50Z</time>
      </trkpt>
      <trkpt lat="49.86208" lon="2.32503">
        <ele>49.1</ele>
        <time>2024-01-12T13:19:51Z</time>
      </trkpt>
      <trkpt lat="49.86207" lon="2.32503">
        <ele>49</ele>
        <time>2024-01-12T13:19:52Z</time>
      </trkpt>
      <trkpt lat="49.86206" lon="2.32503">
        <ele>49</ele>
        <time>2024-01-12T13:19:53Z</time>
      </trkpt>
      <trkpt lat="49.86205" lon="2.32503">
        <ele>48.9</ele>
        <time>2024-01-12T13:19:54Z</time>
      </trkpt>
      <trkpt lat="49.86204" lon="2.32504">
        <ele>48.8</ele>
        <time>2024-01-12T13:19:55Z</time>
      </trkpt>
      <trkpt lat="49.86203" lon="2.32504">
        <ele>48.8</ele>
        <time>2024-01-12T13:19:56Z</time>
      </trkpt>
      <trkpt lat="49.86202" lon="2.32504">
        <ele>48.7</ele>
        <time>2024-01-12T13:19:57Z</time>
      </trkpt>
      <trkpt lat="49.86201" lon="2.32504">
        <ele>48.7</ele>
        <time>2024-01-12T13:19:58Z</time>
      </trkpt>
      <trkpt lat="49.86199" lon="2.32504">
        <ele>48.6</ele>
        <time>2024-01-12T13:19:59Z</time>
      </trkpt>
      <trkpt lat="49.86198" lon="2.32505">
        <ele>48.5</ele>
        <time>2024-01-12T13:20:00Z</time>
      </trkpt>
      <trkpt lat="49.86196" lon="2.32505">
        <ele>48.4</ele>
        <time>2024-01-12T13:20:01Z</time>
      </trkpt>
      <trkpt lat="49.86195" lon="2.32505">
        <ele>48.4</ele>
        <time>2024-01-12T13:20:02Z</time>
      </trkpt>
      <trkpt lat="49.86195" lon="2.32506">
        <ele>48.3</ele>
        <time>2024-01-12T13:20:03Z</time>
      </trkpt>
      <trkpt lat="49.86193" lon="2.32506">
        <ele>48.2</ele>
        <time>2024-01-12T13:20:04Z</time>
      </trkpt>
      <trkpt lat="49.86192" lon="2.32506">
        <ele>48.2</ele>
        <time>2024-01-12T13:20:05Z</time>
      </trkpt>
      <trkpt lat="49.86191" lon="2.32506">
        <ele>48.1</ele>
        <time>2024-01-12T13:20:06Z</time>
      </trkpt>
      <trkpt lat="49.8619" lon="2.32507">
        <ele>48.1</ele>
        <time>2024-01-12T13:20:07Z</time>
      </trkpt>
      <trkpt lat="49.86189" lon="2.32507">
        <ele>48</ele>
        <time>2024-01-12T13:20:08Z</time>
      </trkpt>
      <trkpt lat="49.86187" lon="2.32507">
        <ele>47.9</ele>
        <time>2024-01-12T13:20:09Z</time>
      </trkpt>
      <trkpt lat="49.86186" lon="2.32507">
        <ele>47.9</ele>
        <time>2024-01-12T13:20:10Z</time>
      </trkpt>
      <trkpt lat="49.86185" lon="2.32508">
        <ele>47.8</ele>
        <time>2024-01-12T13:20:11Z</time>
      </trkpt>
      <trkpt lat="49.86184" lon="2.32508">
        <ele>47.8</ele>
        <time>2024-01-12T13:20:12Z</time>
      </trkpt>
      <trkpt lat="49.86183" lon="2.32508">
        <ele>47.7</ele>
        <time>2024-01-12T13:20:13Z</time>
      </trkpt>
      <trkpt lat="49.86182" lon="2.32509">
        <ele>47.6</ele>
        <time>2024-01-12T13:20:14Z</time>
      </trkpt>
      <trkpt lat="49.86181" lon="2.32509">
        <ele>47.6</ele>
        <time>2024-01-12T13:20:15Z</time>
      </trkpt>
      <trkpt lat="49.86179" lon="2.3251">
        <ele>47.5</ele>
        <time>2024-01-12T13:20:16Z</time>
      </trkpt>
      <trkpt lat="49.86178" lon="2.3251">
        <ele>47.4</ele>
        <time>2024-01-12T13:20:17Z</time>
      </trkpt>
      <trkpt lat="49.86177" lon="2.32511">
        <ele>47.4</ele>
        <time>2024-01-12T13:20:18Z</time>
      </trkpt>
      <trkpt lat="49.86175" lon="2.32512">
        <ele>47.3</ele>
        <time>2024-01-12T13:20:19Z</time>
      </trkpt>
      <trkpt lat="49.86175" lon="2.32512">
        <ele>47.2</ele>
        <time>2024-01-12T13:20:20Z</time>
      </trkpt>
      <trkpt lat="49.86174" lon="2.32512">
        <ele>47.2</ele>
        <time>2024-01-12T13:20:21Z</time>
      </trkpt>
      <trkpt lat="49.86173" lon="2.32513">
        <ele>47.1</ele>
        <time>2024-01-12T13:20:22Z</time>
      </trkpt>
      <trkpt lat="49.86171" lon="2.32513">
        <ele>47</ele>
        <time>2024-01-12T13:20:23Z</time>
      </trkpt>
      <trkpt lat="49.8617" lon="2.32514">
        <ele>47</ele>
        <time>2024-01-12T13:20:24Z</time>
      </trkpt>
      <trkpt lat="49.8617" lon="2.32514">
        <ele>46.9</ele>
        <time>2024-01-12T13:20:25Z</time>
      </trkpt>
      <trkpt lat="49.86169" lon="2.32515">
        <ele>46.8</ele>
        <time>2024-01-12T13:20:26Z</time>
      </trkpt>
      <trkpt lat="49.86168" lon="2.32515">
        <ele>46.8</ele>
        <time>2024-01-12T13:20:27Z</time>
      </trkpt>
      <trkpt lat="49.86167" lon="2.32516">
        <ele>46.7</ele>
        <time>2024-01-12T13:20:28Z</time>
      </trkpt>
      <trkpt lat="49.86166" lon="2.32516">
        <ele>46.7</ele>
        <time>2024-01-12T13:20:29Z</time>
      </trkpt>
      <trkpt lat="49.86165" lon="2.32517">
        <ele>46.6</ele>
        <time>2024-01-12T13:20:30Z</time>
      </trkpt>
      <trkpt lat="49.86164" lon="2.32517">
        <ele>46.5</ele>
        <time>2024-01-12T13:20:31Z</time>
      </trkpt>
      <trkpt lat="49.86163" lon="2.32518">
        <ele>46.5</ele>
        <time>2024-01-12T13:20:32Z</time>
      </trkpt>
      <trkpt lat="49.86162" lon="2.32518">
        <ele>46.4</ele>
        <time>2024-01-12T13:20:33Z</time>
      </trkpt>
      <trkpt lat="49.86161" lon="2.32519">
        <ele>46.4</ele>
        <time>2024-01-12T13:20:34Z</time>
      </trkpt>
      <trkpt lat="49.8616" lon="2.32519">
        <ele>46.3</ele>
        <time>2024-01-12T13:20:35Z</time>
      </trkpt>
      <trkpt lat="49.86159" lon="2.3252">
        <ele>46.2</ele>
        <time>2024-01-12T13:20:36Z</time>
      </trkpt>
      <trkpt lat="49.86158" lon="2.3252">
        <ele>46.2</ele>
        <time>2024-01-12T13:20:37Z</time>
      </trkpt>
      <trkpt lat="49.86157" lon="2.32521">
        <ele>46.1</ele>
        <time>2024-01-12T13:20:38Z</time>
      </trkpt>
      <trkpt lat="49.86156" lon="2.32521">
        <ele>46.1</ele>
        <time>2024-01-12T13:20:39Z</time>
      </trkpt>
      <trkpt lat="49.86155" lon="2.32521">
        <ele>46</ele>
        <time>2024-01-12T13:20:40Z</time>
      </trkpt>
      <trkpt lat="49.86154" lon="2.32522">
        <ele>45.9</ele>
        <time>2024-01-12T13:20:41Z</time>
      </trkpt>
      <trkpt lat="49.86153" lon="2.32522">
        <ele>45.9</ele>
        <time>2024-01-12T13:20:42Z</time>
      </trkpt>
      <trkpt lat="49.86152" lon="2.32523">
        <ele>45.8</ele>
        <time>2024-01-12T13:20:43Z</time>
      </trkpt>
      <trkpt lat="49.86151" lon="2.32523">
        <ele>45.7</ele>
        <time>2024-01-12T13:20:44Z</time>
      </trkpt>
      <trkpt lat="49.8615" lon="2.32524">
        <ele>45.7</ele>
        <time>2024-01-12T13:20:45Z</time>
      </trkpt>
      <trkpt lat="49.86149" lon="2.32524">
        <ele>45.6</ele>
        <time>2024-01-12T13:20:46Z</time>
      </trkpt>
      <trkpt lat="49.86148" lon="2.32525">
        <ele>45.5</ele>
        <time>2024-01-12T13:20:47Z</time>
      </trkpt>
      <trkpt lat="49.86146" lon="2.32525">
        <ele>45.4</ele>
        <time>2024-01-12T13:20:48Z</time>
      </trkpt>
      <trkpt lat="49.86144" lon="2.32526">
        <ele>45.3</ele>
        <time>2024-01-12T13:20:49Z</time>
      </trkpt>
      <trkpt lat="49.86144" lon="2.32526">
        <ele>45.3</ele>
        <time>2024-01-12T13:20:50Z</time>
      </trkpt>
      <trkpt lat="49.86143" lon="2.32526">
        <ele>45.2</ele>
        <time>2024-01-12T13:20:51Z</time>
      </trkpt>
      <trkpt lat="49.86142" lon="2.32527">
        <ele>45.1</ele>
        <time>2024-01-12T13:20:52Z</time>
      </trkpt>
      <trkpt lat="49.86141" lon="2.32527">
        <ele>45.1</ele>
        <time>2024-01-12T13:20:53Z</time>
      </trkpt>
      <trkpt lat="49.8614" lon="2.32528">
        <ele>45</ele>
        <time>2024-01-12T13:20:54Z</time>
      </trkpt>
      <trkpt lat="49.86139" lon="2.32528">
        <ele>44.9</ele>
        <time>2024-01-12T13:20:55Z</time>
      </trkpt>
      <trkpt lat="49.86138" lon="2.32528">
        <ele>44.8</ele>
        <time>2024-01-12T13:20:56Z</time>
      </trkpt>
      <trkpt lat="49.86137" lon="2.32529">
        <ele>44.8</ele>
        <time>2024-01-12T13:20:57Z</time>
      </trkpt>
      <trkpt lat="49.86135" lon="2.32529">
        <ele>44.7</ele>
        <time>2024-01-12T13:20:58Z</time>
      </trkpt>
      <trkpt lat="49.86134" lon="2.32529">
        <ele>44.6</ele>
        <time>2024-01-12T13:20:59Z</time>
      </trkpt>
      <trkpt lat="49.86133" lon="2.3253">
        <ele>44.5</ele>
        <time>2024-01-12T13:21:00Z</time>
      </trkpt>
      <trkpt lat="49.86132" lon="2.3253">
        <ele>44.5</ele>
        <time>2024-01-12T13:21:01Z</time>
      </trkpt>
      <trkpt lat="49.86131" lon="2.32531">
        <ele>44.4</ele>
        <time>2024-01-12T13:21:02Z</time>
      </trkpt>
      <trkpt lat="49.8613" lon="2.32531">
        <ele>44.3</ele>
        <time>2024-01-12T13:21:03Z</time>
      </trkpt>
      <trkpt lat="49.86129" lon="2.32532">
        <ele>44.2</ele>
        <time>2024-01-12T13:21:04Z</time>
      </trkpt>
      <trkpt lat="49.86128" lon="2.32532">
        <ele>44.2</ele>
        <time>2024-01-12T13:21:05Z</time>
      </trkpt>
      <trkpt lat="49.86127" lon="2.32532">
        <ele>44.1</ele>
        <time>2024-01-12T13:21:06Z</time>
      </trkpt>
      <trkpt lat="49.86126" lon="2.32533">
        <ele>44</ele>
        <time>2024-01-12T13:21:07Z</time>
      </trkpt>
      <trkpt lat="49.86124" lon="2.32533">
        <ele>43.9</ele>
        <time>2024-01-12T13:21:08Z</time>
      </trkpt>
      <trkpt lat="49.86123" lon="2.32533">
        <ele>43.8</ele>
        <time>2024-01-12T13:21:09Z</time>
      </trkpt>
      <trkpt lat="49.86121" lon="2.32534">
        <ele>43.7</ele>
        <time>2024-01-12T13:21:10Z</time>
      </trkpt>
      <trkpt lat="49.8612" lon="2.32534">
        <ele>43.6</ele>
        <time>2024-01-12T13:21:11Z</time>
      </trkpt>
      <trkpt lat="49.8612" lon="2.32534">
        <ele>43.6</ele>
        <time>2024-01-12T13:21:12Z</time>
      </trkpt>
      <trkpt lat="49.86118" lon="2.32535">
        <ele>43.4</ele>
        <time>2024-01-12T13:21:13Z</time>
      </trkpt>
      <trkpt lat="49.86117" lon="2.32535">
        <ele>43.4</ele>
        <time>2024-01-12T13:21:14Z</time>
      </trkpt>
      <trkpt lat="49.86116" lon="2.32535">
        <ele>43.3</ele>
        <time>2024-01-12T13:21:15Z</time>
      </trkpt>
      <trkpt lat="49.86115" lon="2.32536">
        <ele>43.2</ele>
        <time>2024-01-12T13:21:16Z</time>
      </trkpt>
      <trkpt lat="49.86114" lon="2.32536">
        <ele>43.2</ele>
        <time>2024-01-12T13:21:17Z</time>
      </trkpt>
      <trkpt lat="49.86113" lon="2.32537">
        <ele>43.1</ele>
        <time>2024-01-12T13:21:18Z</time>
      </trkpt>
      <trkpt lat="49.86112" lon="2.32537">
        <ele>43</ele>
        <time>2024-01-12T13:21:19Z</time>
      </trkpt>
      <trkpt lat="49.86111" lon="2.32537">
        <ele>42.9</ele>
        <time>2024-01-12T13:21:20Z</time>
      </trkpt>
      <trkpt lat="49.8611" lon="2.32538">
        <ele>42.9</ele>
        <time>2024-01-12T13:21:21Z</time>
      </trkpt>
      <trkpt lat="49.86109" lon="2.32539">
        <ele>42.8</ele>
        <time>2024-01-12T13:21:22Z</time>
      </trkpt>
      <trkpt lat="49.86108" lon="2.32539">
        <ele>42.7</ele>
        <time>2024-01-12T13:21:23Z</time>
      </trkpt>
      <trkpt lat="49.86107" lon="2.3254">
        <ele>42.6</ele>
        <time>2024-01-12T13:21:24Z</time>
      </trkpt>
      <trkpt lat="49.86106" lon="2.3254">
        <ele>42.5</ele>
        <time>2024-01-12T13:21:25Z</time>
      </trkpt>
      <trkpt lat="49.86105" lon="2.32541">
        <ele>42.5</ele>
        <time>2024-01-12T13:21:26Z</time>
      </trkpt>
      <trkpt lat="49.86104" lon="2.32541">
        <ele>42.4</ele>
        <time>2024-01-12T13:21:27Z</time>
      </trkpt>
      <trkpt lat="49.86103" lon="2.32542">
        <ele>42.3</ele>
        <time>2024-01-12T13:21:28Z</time>
      </trkpt>
      <trkpt lat="49.86102" lon="2.32542">
        <ele>42.2</ele>
        <time>2024-01-12T13:21:29Z</time>
      </trkpt>
      <trkpt lat="49.86101" lon="2.32543">
        <ele>42.2</ele>
        <time>2024-01-12T13:21:30Z</time>
      </trkpt>
      <trkpt lat="49.861" lon="2.32543">
        <ele>42.1</ele>
        <time>2024-01-12T13:21:31Z</time>
      </trkpt>
      <trkpt lat="49.86099" lon="2.32543">
        <ele>42</ele>
        <time>2024-01-12T13:21:32Z</time>
      </trkpt>
      <trkpt lat="49.86098" lon="2.32543">
        <ele>42</ele>
        <time>2024-01-12T13:21:33Z</time>
      </trkpt>
      <trkpt lat="49.86097" lon="2.32544">
        <ele>41.9</ele>
        <time>2024-01-12T13:21:34Z</time>
      </trkpt>
      <trkpt lat="49.86096" lon="2.32544">
        <ele>41.8</ele>
        <time>2024-01-12T13:21:35Z</time>
      </trkpt>
      <trkpt lat="49.86095" lon="2.32545">
        <ele>41.8</ele>
        <time>2024-01-12T13:21:36Z</time>
      </trkpt>
      <trkpt lat="49.86094" lon="2.32545">
        <ele>41.7</ele>
        <time>2024-01-12T13:21:37Z</time>
      </trkpt>
      <trkpt lat="49.86093" lon="2.32545">
        <ele>41.6</ele>
        <time>2024-01-12T13:21:38Z</time>
      </trkpt>
      <trkpt lat="49.86092" lon="2.32546">
        <ele>41.5</ele>
        <time>2024-01-12T13:21:39Z</time>
      </trkpt>
      <trkpt lat="49.86091" lon="2.32546">
        <ele>41.4</ele>
        <time>2024-01-12T13:21:40Z</time>
      </trkpt>
      <trkpt lat="49.8609" lon="2.32547">
        <ele>41.4</ele>
        <time>2024-01-12T13:21:41Z</time>
      </trkpt>
      <trkpt lat="49.86089" lon="2.32548">
        <ele>41.3</ele>
        <time>2024-01-12T13:21:42Z</time>
      </trkpt>
      <trkpt lat="49.86088" lon="2.32548">
        <ele>41.2</ele>
        <time>2024-01-12T13:21:43Z</time>
      </trkpt>
      <trkpt lat="49.86087" lon="2.32549">
        <ele>41.2</ele>
        <time>2024-01-12T13:21:44Z</time>
      </trkpt>
      <trkpt lat="49.86086" lon="2.3255">
        <ele>41.1</ele>
        <time>2024-01-12T13:21:45Z</time>
      </trkpt>
      <trkpt lat="49.86086" lon="2.3255">
        <ele>41</ele>
        <time>2024-01-12T13:21:46Z</time>
      </trkpt>
      <trkpt lat="49.86085" lon="2.32551">
        <ele>41</ele>
        <time>2024-01-12T13:21:47Z</time>
      </trkpt>
      <trkpt lat="49.86084" lon="2.32551">
        <ele>40.9</ele>
        <time>2024-01-12T13:21:48Z</time>
      </trkpt>
      <trkpt lat="49.86083" lon="2.32552">
        <ele>40.8</ele>
        <time>2024-01-12T13:21:49Z</time>
      </trkpt>
      <trkpt lat="49.86082" lon="2.32552">
        <ele>40.8</ele>
        <time>2024-01-12T13:21:50Z</time>
      </trkpt>
      <trkpt lat="49.8608" lon="2.32553">
        <ele>40.7</ele>
        <time>2024-01-12T13:21:51Z</time>
      </trkpt>
      <trkpt lat="49.86079" lon="2.32553">
        <ele>40.6</ele>
        <time>2024-01-12T13:21:52Z</time>
      </trkpt>
      <trkpt lat="49.86078" lon="2.32554">
        <ele>40.5</ele>
        <time>2024-01-12T13:21:53Z</time>
      </trkpt>
      <trkpt lat="49.86077" lon="2.32554">
        <ele>40.5</ele>
        <time>2024-01-12T13:21:54Z</time>
      </trkpt>
      <trkpt lat="49.86076" lon="2.32555">
        <ele>40.4</ele>
        <time>2024-01-12T13:21:55Z</time>
      </trkpt>
      <trkpt lat="49.86075" lon="2.32556">
        <ele>40.3</ele>
        <time>2024-01-12T13:21:56Z</time>
      </trkpt>
      <trkpt lat="49.86074" lon="2.32556">
        <ele>40.3</ele>
        <time>2024-01-12T13:21:57Z</time>
      </trkpt>
      <trkpt lat="49.86074" lon="2.32557">
        <ele>40.2</ele>
        <time>2024-01-12T13:21:58Z</time>
      </trkpt>
      <trkpt lat="49.86073" lon="2.32557">
        <ele>40.1</ele>
        <time>2024-01-12T13:21:59Z</time>
      </trkpt>
      <trkpt lat="49.86072" lon="2.32558">
        <ele>40.1</ele>
        <time>2024-01-12T13:22:00Z</time>
      </trkpt>
      <trkpt lat="49.86071" lon="2.32558">
        <ele>40</ele>
        <time>2024-01-12T13:22:01Z</time>
      </trkpt>
      <trkpt lat="49.8607" lon="2.32558">
        <ele>39.9</ele>
        <time>2024-01-12T13:22:02Z</time>
      </trkpt>
      <trkpt lat="49.86069" lon="2.32559">
        <ele>39.9</ele>
        <time>2024-01-12T13:22:03Z</time>
      </trkpt>
      <trkpt lat="49.86068" lon="2.32559">
        <ele>39.8</ele>
        <time>2024-01-12T13:22:04Z</time>
      </trkpt>
      <trkpt lat="49.86066" lon="2.3256">
        <ele>39.7</ele>
        <time>2024-01-12T13:22:05Z</time>
      </trkpt>
      <trkpt lat="49.86065" lon="2.3256">
        <ele>39.6</ele>
        <time>2024-01-12T13:22:06Z</time>
      </trkpt>
      <trkpt lat="49.86064" lon="2.3256">
        <ele>39.6</ele>
        <time>2024-01-12T13:22:07Z</time>
      </trkpt>
      <trkpt lat="49.86063" lon="2.3256">
        <ele>39.5</ele>
        <time>2024-01-12T13:22:08Z</time>
      </trkpt>
      <trkpt lat="49.86062" lon="2.32561">
        <ele>39.4</ele>
        <time>2024-01-12T13:22:09Z</time>
      </trkpt>
      <trkpt lat="49.86062" lon="2.32561">
        <ele>39.4</ele>
        <time>2024-01-12T13:22:10Z</time>
      </trkpt>
      <trkpt lat="49.8606" lon="2.32561">
        <ele>39.3</ele>
        <time>2024-01-12T13:22:11Z</time>
      </trkpt>
      <trkpt lat="49.86059" lon="2.32562">
        <ele>39.2</ele>
        <time>2024-01-12T13:22:12Z</time>
      </trkpt>
      <trkpt lat="49.86058" lon="2.32562">
        <ele>39.2</ele>
        <time>2024-01-12T13:22:13Z</time>
      </trkpt>
      <trkpt lat="49.86057" lon="2.32563">
        <ele>39.1</ele>
        <time>2024-01-12T13:22:14Z</time>
      </trkpt>
      <trkpt lat="49.86056" lon="2.32563">
        <ele>39</ele>
        <time>2024-01-12T13:22:15Z</time>
      </trkpt>
      <trkpt lat="49.86055" lon="2.32563">
        <ele>38.9</ele>
        <time>2024-01-12T13:22:16Z</time>
      </trkpt>
      <trkpt lat="49.86054" lon="2.32564">
        <ele>38.9</ele>
        <time>2024-01-12T13:22:17Z</time>
      </trkpt>
      <trkpt lat="49.86053" lon="2.32564">
        <ele>38.8</ele>
        <time>2024-01-12T13:22:18Z</time>
      </trkpt>
      <trkpt lat="49.86052" lon="2.32565">
        <ele>38.7</ele>
        <time>2024-01-12T13:22:19Z</time>
      </trkpt>
      <trkpt lat="49.86051" lon="2.32565">
        <ele>38.6</ele>
        <time>2024-01-12T13:22:20Z</time>
      </trkpt>
      <trkpt lat="49.8605" lon="2.32565">
        <ele>38.6</ele>
        <time>2024-01-12T13:22:21Z</time>
      </trkpt>
      <trkpt lat="49.86048" lon="2.32566">
        <ele>38.5</ele>
        <time>2024-01-12T13:22:22Z</time>
      </trkpt>
      <trkpt lat="49.86047" lon="2.32566">
        <ele>38.4</ele>
        <time>2024-01-12T13:22:23Z</time>
      </trkpt>
      <trkpt lat="49.86046" lon="2.32567">
        <ele>38.4</ele>
        <time>2024-01-12T13:22:24Z</time>
      </trkpt>
      <trkpt lat="49.86044" lon="2.32568">
        <ele>38.2</ele>
        <time>2024-01-12T13:22:25Z</time>
      </trkpt>
      <trkpt lat="49.86043" lon="2.32568">
        <ele>38.2</ele>
        <time>2024-01-12T13:22:26Z</time>
      </trkpt>
      <trkpt lat="49.86042" lon="2.32568">
        <ele>38.1</ele>
        <time>2024-01-12T13:22:27Z</time>
      </trkpt>
      <trkpt lat="49.8604" lon="2.32569">
        <ele>38</ele>
        <time>2024-01-12T13:22:28Z</time>
      </trkpt>
      <trkpt lat="49.86039" lon="2.32569">
        <ele>37.9</ele>
        <time>2024-01-12T13:22:29Z</time>
      </trkpt>
      <trkpt lat="49.86039" lon="2.3257">
        <ele>37.9</ele>
        <time>2024-01-12T13:22:30Z</time>
      </trkpt>
      <trkpt lat="49.86037" lon="2.32571">
        <ele>37.8</ele>
        <time>2024-01-12T13:22:31Z</time>
      </trkpt>
      <trkpt lat="49.86036" lon="2.32571">
        <ele>37.7</ele>
        <time>2024-01-12T13:22:32Z</time>
      </trkpt>
      <trkpt lat="49.86035" lon="2.32571">
        <ele>37.7</ele>
        <time>2024-01-12T13:22:33Z</time>
      </trkpt>
      <trkpt lat="49.86034" lon="2.32572">
        <ele>37.6</ele>
        <time>2024-01-12T13:22:34Z</time>
      </trkpt>
      <trkpt lat="49.86033" lon="2.32573">
        <ele>37.5</ele>
        <time>2024-01-12T13:22:35Z</time>
      </trkpt>
      <trkpt lat="49.86032" lon="2.32573">
        <ele>37.5</ele>
        <time>2024-01-12T13:22:36Z</time>
      </trkpt>
      <trkpt lat="49.86031" lon="2.32574">
        <ele>37.4</ele>
        <time>2024-01-12T13:22:37Z</time>
      </trkpt>
      <trkpt lat="49.8603" lon="2.32574">
        <ele>37.4</ele>
        <time>2024-01-12T13:22:38Z</time>
      </trkpt>
      <trkpt lat="49.86029" lon="2.32575">
        <ele>37.3</ele>
        <time>2024-01-12T13:22:39Z</time>
      </trkpt>
      <trkpt lat="49.86028" lon="2.32575">
        <ele>37.2</ele>
        <time>2024-01-12T13:22:40Z</time>
      </trkpt>
      <trkpt lat="49.86027" lon="2.32576">
        <ele>37.2</ele>
        <time>2024-01-12T13:22:41Z</time>
      </trkpt>
      <trkpt lat="49.86026" lon="2.32576">
        <ele>37.1</ele>
        <time>2024-01-12T13:22:42Z</time>
      </trkpt>
      <trkpt lat="49.86025" lon="2.32577">
        <ele>37</ele>
        <time>2024-01-12T13:22:43Z</time>
      </trkpt>
      <trkpt lat="49.86024" lon="2.32577">
        <ele>37</ele>
        <time>2024-01-12T13:22:44Z</time>
      </trkpt>
      <trkpt lat="49.86023" lon="2.32578">
        <ele>36.9</ele>
        <time>2024-01-12T13:22:45Z</time>
      </trkpt>
      <trkpt lat="49.86022" lon="2.32578">
        <ele>36.9</ele>
        <time>2024-01-12T13:22:46Z</time>
      </trkpt>
      <trkpt lat="49.86022" lon="2.32579">
        <ele>36.9</ele>
        <time>2024-01-12T13:22:47Z</time>
      </trkpt>
      <trkpt lat="49.86021" lon="2.32579">
        <ele>36.8</ele>
        <time>2024-01-12T13:22:48Z</time>
      </trkpt>
      <trkpt lat="49.8602" lon="2.3258">
        <ele>36.8</ele>
        <time>2024-01-12T13:22:49Z</time>
      </trkpt>
      <trkpt lat="49.86019" lon="2.3258">
        <ele>36.7</ele>
        <time>2024-01-12T13:22:50Z</time>
      </trkpt>
      <trkpt lat="49.86018" lon="2.32581">
        <ele>36.7</ele>
        <time>2024-01-12T13:22:51Z</time>
      </trkpt>
      <trkpt lat="49.86017" lon="2.32581">
        <ele>36.6</ele>
        <time>2024-01-12T13:22:52Z</time>
      </trkpt>
      <trkpt lat="49.86016" lon="2.32582">
        <ele>36.6</ele>
        <time>2024-01-12T13:22:53Z</time>
      </trkpt>
      <trkpt lat="49.86015" lon="2.32582">
        <ele>36.5</ele>
        <time>2024-01-12T13:22:54Z</time>
      </trkpt>
      <trkpt lat="49.86014" lon="2.32583">
        <ele>36.5</ele>
        <time>2024-01-12T13:22:55Z</time>
      </trkpt>
      <trkpt lat="49.86013" lon="2.32583">
        <ele>36.5</ele>
        <time>2024-01-12T13:22:56Z</time>
      </trkpt>
      <trkpt lat="49.86012" lon="2.32583">
        <ele>36.4</ele>
        <time>2024-01-12T13:22:57Z</time>
      </trkpt>
      <trkpt lat="49.86011" lon="2.32584">
        <ele>36.4</ele>
        <time>2024-01-12T13:22:58Z</time>
      </trkpt>
      <trkpt lat="49.8601" lon="2.32584">
        <ele>36.3</ele>
        <time>2024-01-12T13:22:59Z</time>
      </trkpt>
      <trkpt lat="49.86009" lon="2.32585">
        <ele>36.3</ele>
        <time>2024-01-12T13:23:00Z</time>
      </trkpt>
      <trkpt lat="49.86009" lon="2.32586">
        <ele>36.2</ele>
        <time>2024-01-12T13:23:01Z</time>
      </trkpt>
      <trkpt lat="49.86008" lon="2.32586">
        <ele>36.2</ele>
        <time>2024-01-12T13:23:02Z</time>
      </trkpt>
      <trkpt lat="49.86007" lon="2.32587">
        <ele>36.2</ele>
        <time>2024-01-12T13:23:03Z</time>
      </trkpt>
      <trkpt lat="49.86006" lon="2.32587">
        <ele>36.1</ele>
        <time>2024-01-12T13:23:04Z</time>
      </trkpt>
      <trkpt lat="49.86005" lon="2.32588">
        <ele>36.1</ele>
        <time>2024-01-12T13:23:05Z</time>
      </trkpt>
      <trkpt lat="49.86004" lon="2.32589">
        <ele>36</ele>
        <time>2024-01-12T13:23:06Z</time>
      </trkpt>
      <trkpt lat="49.86003" lon="2.32589">
        <ele>36</ele>
        <time>2024-01-12T13:23:07Z</time>
      </trkpt>
      <trkpt lat="49.86002" lon="2.3259">
        <ele>36</ele>
        <time>2024-01-12T13:23:08Z</time>
      </trkpt>
      <trkpt lat="49.86001" lon="2.3259">
        <ele>35.9</ele>
        <time>2024-01-12T13:23:09Z</time>
      </trkpt>
      <trkpt lat="49.86" lon="2.32591">
        <ele>35.9</ele>
        <time>2024-01-12T13:23:10Z</time>
      </trkpt>
      <trkpt lat="49.85999" lon="2.32591">
        <ele>35.8</ele>
        <time>2024-01-12T13:23:11Z</time>
      </trkpt>
      <trkpt lat="49.85998" lon="2.32592">
        <ele>35.8</ele>
        <time>2024-01-12T13:23:12Z</time>
      </trkpt>
      <trkpt lat="49.85997" lon="2.32592">
        <ele>35.7</ele>
        <time>2024-01-12T13:23:13Z</time>
      </trkpt>
      <trkpt lat="49.85996" lon="2.32593">
        <ele>35.7</ele>
        <time>2024-01-12T13:23:14Z</time>
      </trkpt>
      <trkpt lat="49.85995" lon="2.32593">
        <ele>35.6</ele>
        <time>2024-01-12T13:23:15Z</time>
      </trkpt>
      <trkpt lat="49.85993" lon="2.32594">
        <ele>35.6</ele>
        <time>2024-01-12T13:23:16Z</time>
      </trkpt>
      <trkpt lat="49.85992" lon="2.32594">
        <ele>35.5</ele>
        <time>2024-01-12T13:23:17Z</time>
      </trkpt>
      <trkpt lat="49.85992" lon="2.32595">
        <ele>35.5</ele>
        <time>2024-01-12T13:23:18Z</time>
      </trkpt>
      <trkpt lat="49.85991" lon="2.32596">
        <ele>35.5</ele>
        <time>2024-01-12T13:23:19Z</time>
      </trkpt>
      <trkpt lat="49.8599" lon="2.32597">
        <ele>35.4</ele>
        <time>2024-01-12T13:23:20Z</time>
      </trkpt>
      <trkpt lat="49.85989" lon="2.32598">
        <ele>35.4</ele>
        <time>2024-01-12T13:23:21Z</time>
      </trkpt>
      <trkpt lat="49.85988" lon="2.32599">
        <ele>35.3</ele>
        <time>2024-01-12T13:23:22Z</time>
      </trkpt>
      <trkpt lat="49.85987" lon="2.326">
        <ele>35.3</ele>
        <time>2024-01-12T13:23:23Z</time>
      </trkpt>
      <trkpt lat="49.85986" lon="2.32601">
        <ele>35.3</ele>
        <time>2024-01-12T13:23:24Z</time>
      </trkpt>
      <trkpt lat="49.85985" lon="2.32602">
        <ele>35.2</ele>
        <time>2024-01-12T13:23:25Z</time>
      </trkpt>
      <trkpt lat="49.85985" lon="2.32603">
        <ele>35.2</ele>
        <time>2024-01-12T13:23:26Z</time>
      </trkpt>
      <trkpt lat="49.85984" lon="2.32604">
        <ele>35.1</ele>
        <time>2024-01-12T13:23:27Z</time>
      </trkpt>
      <trkpt lat="49.85983" lon="2.32604">
        <ele>35.1</ele>
        <time>2024-01-12T13:23:28Z</time>
      </trkpt>
      <trkpt lat="49.85982" lon="2.32605">
        <ele>35.1</ele>
        <time>2024-01-12T13:23:29Z</time>
      </trkpt>
      <trkpt lat="49.85982" lon="2.32606">
        <ele>35.1</ele>
        <time>2024-01-12T13:23:30Z</time>
      </trkpt>
      <trkpt lat="49.85981" lon="2.32607">
        <ele>35</ele>
        <time>2024-01-12T13:23:31Z</time>
      </trkpt>
      <trkpt lat="49.85982" lon="2.32607">
        <ele>35</ele>
        <time>2024-01-12T13:23:32Z</time>
      </trkpt>
      <trkpt lat="49.85982" lon="2.32608">
        <ele>35</ele>
        <time>2024-01-12T13:23:33Z</time>
      </trkpt>
      <trkpt lat="49.85983" lon="2.32607">
        <ele>35</ele>
        <time>2024-01-12T13:23:34Z</time>
      </trkpt>
      <trkpt lat="49.85983" lon="2.32607">
        <ele>35</ele>
        <time>2024-01-12T13:23:35Z</time>
      </trkpt>
      <trkpt lat="49.85984" lon="2.32607">
        <ele>34.9</ele>
        <time>2024-01-12T13:23:36Z</time>
      </trkpt>
      <trkpt lat="49.85984" lon="2.32607">
        <ele>34.9</ele>
        <time>2024-01-12T13:23:37Z</time>
      </trkpt>
      <trkpt lat="49.85984" lon="2.32607">
        <ele>34.9</ele>
        <time>2024-01-12T13:23:38Z</time>
      </trkpt>
      <trkpt lat="49.85985" lon="2.32607">
        <ele>34.9</ele>
        <time>2024-01-12T13:23:39Z</time>
      </trkpt>
      <trkpt lat="49.85985" lon="2.32607">
        <ele>34.9</ele>
        <time>2024-01-12T13:23:40Z</time>
      </trkpt>
      <trkpt lat="49.85985" lon="2.32607">
        <ele>34.9</ele>
        <time>2024-01-12T13:23:41Z</time>
      </trkpt>
      <trkpt lat="49.85985" lon="2.32607">
        <ele>34.9</ele>
        <time>2024-01-12T13:23:42Z</time>
      </trkpt>
      <trkpt lat="49.85985" lon="2.32607">
        <ele>34.9</ele>
        <time>2024-01-12T13:23:43Z</time>
      </trkpt>
      <trkpt lat="49.85985" lon="2.32607">
        <ele>34.9</ele>
        <time>2024-01-12T13:23:44Z</time>
      </trkpt>
      <trkpt lat="49.85985" lon="2.32607">
        <ele>34.9</ele>
        <time>2024-01-12T13:23:45Z</time>
      </trkpt>
      <trkpt lat="49.85985" lon="2.32607">
        <ele>34.9</ele>
        <time>2024-01-12T13:23:46Z</time>
      </trkpt>
      <trkpt lat="49.85985" lon="2.32607">
        <ele>34.9</ele>
        <time>2024-01-12T13:23:47Z</time>
      </trkpt>
      <trkpt lat="49.85985" lon="2.32607">
        <ele>34.9</ele>
        <time>2024-01-12T13:23:48Z</time>
      </trkpt>
      <trkpt lat="49.85985" lon="2.32607">
        <ele>34.9</ele>
        <time>2024-01-12T13:23:49Z</time>
      </trkpt>
      <trkpt lat="49.85981" lon="2.32608">
        <ele>34.8</ele>
        <time>2024-01-12T13:25:21Z</time>
      </trkpt>
      <trkpt lat="49.8598" lon="2.3261">
        <ele>34.8</ele>
        <time>2024-01-12T13:25:22Z</time>
      </trkpt>
      <trkpt lat="49.8598" lon="2.32611">
        <ele>34.8</ele>
        <time>2024-01-12T13:25:23Z</time>
      </trkpt>
      <trkpt lat="49.85981" lon="2.32612">
        <ele>34.7</ele>
        <time>2024-01-12T13:25:24Z</time>
      </trkpt>
      <trkpt lat="49.8598" lon="2.32613">
        <ele>34.7</ele>
        <time>2024-01-12T13:25:25Z</time>
      </trkpt>
      <trkpt lat="49.8598" lon="2.32613">
        <ele>34.7</ele>
        <time>2024-01-12T13:25:26Z</time>
      </trkpt>
      <trkpt lat="49.8598" lon="2.32613">
        <ele>34.7</ele>
        <time>2024-01-12T13:25:27Z</time>
      </trkpt>
      <trkpt lat="49.85979" lon="2.32613">
        <ele>34.7</ele>
        <time>2024-01-12T13:25:28Z</time>
      </trkpt>
      <trkpt lat="49.85979" lon="2.32614">
        <ele>34.7</ele>
        <time>2024-01-12T13:25:29Z</time>
      </trkpt>
      <trkpt lat="49.85978" lon="2.32614">
        <ele>34.7</ele>
        <time>2024-01-12T13:25:30Z</time>
      </trkpt>
      <trkpt lat="49.85978" lon="2.32615">
        <ele>34.6</ele>
        <time>2024-01-12T13:25:31Z</time>
      </trkpt>
      <trkpt lat="49.85978" lon="2.32615">
        <ele>34.6</ele>
        <time>2024-01-12T13:25:32Z</time>
      </trkpt>
      <trkpt lat="49.85977" lon="2.32616">
        <ele>34.6</ele>
        <time>2024-01-12T13:25:33Z</time>
      </trkpt>
      <trkpt lat="49.85977" lon="2.32616">
        <ele>34.6</ele>
        <time>2024-01-12T13:25:34Z</time>
      </trkpt>
      <trkpt lat="49.85975" lon="2.32617">
        <ele>34.6</ele>
        <time>2024-01-12T13:25:35Z</time>
      </trkpt>
      <trkpt lat="49.85974" lon="2.32617">
        <ele>34.5</ele>
        <time>2024-01-12T13:25:36Z</time>
      </trkpt>
      <trkpt lat="49.85972" lon="2.32617">
        <ele>34.5</ele>
        <time>2024-01-12T13:25:37Z</time>
      </trkpt>
      <trkpt lat="49.85971" lon="2.32618">
        <ele>34.5</ele>
        <time>2024-01-12T13:25:38Z</time>
      </trkpt>
      <trkpt lat="49.85969" lon="2.32618">
        <ele>34.4</ele>
        <time>2024-01-12T13:25:39Z</time>
      </trkpt>
      <trkpt lat="49.85968" lon="2.32618">
        <ele>34.4</ele>
        <time>2024-01-12T13:25:40Z</time>
      </trkpt>
      <trkpt lat="49.85966" lon="2.32619">
        <ele>34.4</ele>
        <time>2024-01-12T13:25:41Z</time>
      </trkpt>
      <trkpt lat="49.85965" lon="2.32619">
        <ele>34.4</ele>
        <time>2024-01-12T13:25:42Z</time>
      </trkpt>
      <trkpt lat="49.85963" lon="2.32619">
        <ele>34.4</ele>
        <time>2024-01-12T13:25:43Z</time>
      </trkpt>
      <trkpt lat="49.85962" lon="2.3262">
        <ele>34.3</ele>
        <time>2024-01-12T13:25:44Z</time>
      </trkpt>
      <trkpt lat="49.85961" lon="2.3262">
        <ele>34.3</ele>
        <time>2024-01-12T13:25:45Z</time>
      </trkpt>
      <trkpt lat="49.8596" lon="2.3262">
        <ele>34.3</ele>
        <time>2024-01-12T13:25:46Z</time>
      </trkpt>
      <trkpt lat="49.85958" lon="2.3262">
        <ele>34.3</ele>
        <time>2024-01-12T13:25:47Z</time>
      </trkpt>
      <trkpt lat="49.85957" lon="2.32621">
        <ele>34.3</ele>
        <time>2024-01-12T13:25:48Z</time>
      </trkpt>
      <trkpt lat="49.85956" lon="2.32621">
        <ele>34.3</ele>
        <time>2024-01-12T13:25:49Z</time>
      </trkpt>
      <trkpt lat="49.85955" lon="2.32621">
        <ele>34.3</ele>
        <time>2024-01-12T13:25:50Z</time>
      </trkpt>
      <trkpt lat="49.85954" lon="2.32621">
        <ele>34.3</ele>
        <time>2024-01-12T13:25:51Z</time>
      </trkpt>
      <trkpt lat="49.85953" lon="2.32621">
        <ele>34.3</ele>
        <time>2024-01-12T13:25:52Z</time>
      </trkpt>
      <trkpt lat="49.85952" lon="2.32622">
        <ele>34.3</ele>
        <time>2024-01-12T13:25:53Z</time>
      </trkpt>
      <trkpt lat="49.85951" lon="2.32622">
        <ele>34.3</ele>
        <time>2024-01-12T13:25:54Z</time>
      </trkpt>
      <trkpt lat="49.8595" lon="2.32622">
        <ele>34.3</ele>
        <time>2024-01-12T13:25:55Z</time>
      </trkpt>
      <trkpt lat="49.85949" lon="2.32623">
        <ele>34.2</ele>
        <time>2024-01-12T13:25:56Z</time>
      </trkpt>
      <trkpt lat="49.85948" lon="2.32623">
        <ele>34.2</ele>
        <time>2024-01-12T13:25:57Z</time>
      </trkpt>
      <trkpt lat="49.85947" lon="2.32624">
        <ele>34.2</ele>
        <time>2024-01-12T13:25:58Z</time>
      </trkpt>
      <trkpt lat="49.85946" lon="2.32624">
        <ele>34.2</ele>
        <time>2024-01-12T13:25:59Z</time>
      </trkpt>
      <trkpt lat="49.85945" lon="2.32625">
        <ele>34.2</ele>
        <time>2024-01-12T13:26:00Z</time>
      </trkpt>
      <trkpt lat="49.85944" lon="2.32625">
        <ele>34.2</ele>
        <time>2024-01-12T13:26:01Z</time>
      </trkpt>
      <trkpt lat="49.85943" lon="2.32626">
        <ele>34.2</ele>
        <time>2024-01-12T13:26:02Z</time>
      </trkpt>
      <trkpt lat="49.85942" lon="2.32626">
        <ele>34.2</ele>
        <time>2024-01-12T13:26:03Z</time>
      </trkpt>
      <trkpt lat="49.85941" lon="2.32627">
        <ele>34.2</ele>
        <time>2024-01-12T13:26:04Z</time>
      </trkpt>
      <trkpt lat="49.8594" lon="2.32628">
        <ele>34.2</ele>
        <time>2024-01-12T13:26:05Z</time>
      </trkpt>
      <trkpt lat="49.85939" lon="2.32628">
        <ele>34.2</ele>
        <time>2024-01-12T13:26:06Z</time>
      </trkpt>
      <trkpt lat="49.85938" lon="2.32629">
        <ele>34.2</ele>
        <time>2024-01-12T13:26:07Z</time>
      </trkpt>
      <trkpt lat="49.85938" lon="2.3263">
        <ele>34.2</ele>
        <time>2024-01-12T13:26:08Z</time>
      </trkpt>
      <trkpt lat="49.85937" lon="2.3263">
        <ele>34.2</ele>
        <time>2024-01-12T13:26:09Z</time>
      </trkpt>
      <trkpt lat="49.85936" lon="2.3263">
        <ele>34.2</ele>
        <time>2024-01-12T13:26:10Z</time>
      </trkpt>
      <trkpt lat="49.85935" lon="2.32631">
        <ele>34.2</ele>
        <time>2024-01-12T13:26:11Z</time>
      </trkpt>
      <trkpt lat="49.85934" lon="2.32631">
        <ele>34.2</ele>
        <time>2024-01-12T13:26:12Z</time>
      </trkpt>
      <trkpt lat="49.85933" lon="2.32631">
        <ele>34.2</ele>
        <time>2024-01-12T13:26:13Z</time>
      </trkpt>
      <trkpt lat="49.85932" lon="2.32631">
        <ele>34.2</ele>
        <time>2024-01-12T13:26:14Z</time>
      </trkpt>
      <trkpt lat="49.85931" lon="2.32631">
        <ele>34.2</ele>
        <time>2024-01-12T13:26:15Z</time>
      </trkpt>
      <trkpt lat="49.85931" lon="2.32632">
        <ele>34.2</ele>
        <time>2024-01-12T13:26:16Z</time>
      </trkpt>
      <trkpt lat="49.8593" lon="2.32632">
        <ele>34.2</ele>
        <time>2024-01-12T13:26:17Z</time>
      </trkpt>
      <trkpt lat="49.85929" lon="2.32632">
        <ele>34.2</ele>
        <time>2024-01-12T13:26:18Z</time>
      </trkpt>
      <trkpt lat="49.85928" lon="2.32632">
        <ele>34.2</ele>
        <time>2024-01-12T13:26:19Z</time>
      </trkpt>
      <trkpt lat="49.85928" lon="2.32632">
        <ele>34.2</ele>
        <time>2024-01-12T13:26:20Z</time>
      </trkpt>
      <trkpt lat="49.85927" lon="2.32632">
        <ele>34.2</ele>
        <time>2024-01-12T13:26:21Z</time>
      </trkpt>
      <trkpt lat="49.85926" lon="2.32632">
        <ele>34.2</ele>
        <time>2024-01-12T13:26:22Z</time>
      </trkpt>
      <trkpt lat="49.85925" lon="2.32632">
        <ele>34.2</ele>
        <time>2024-01-12T13:26:23Z</time>
      </trkpt>
      <trkpt lat="49.85924" lon="2.32632">
        <ele>34.2</ele>
        <time>2024-01-12T13:26:24Z</time>
      </trkpt>
      <trkpt lat="49.85922" lon="2.32633">
        <ele>34.2</ele>
        <time>2024-01-12T13:26:25Z</time>
      </trkpt>
      <trkpt lat="49.85921" lon="2.32633">
        <ele>34.3</ele>
        <time>2024-01-12T13:26:26Z</time>
      </trkpt>
      <trkpt lat="49.8592" lon="2.32634">
        <ele>34.3</ele>
        <time>2024-01-12T13:26:27Z</time>
      </trkpt>
      <trkpt lat="49.85918" lon="2.32634">
        <ele>34.3</ele>
        <time>2024-01-12T13:26:28Z</time>
      </trkpt>
      <trkpt lat="49.85917" lon="2.32635">
        <ele>34.3</ele>
        <time>2024-01-12T13:26:29Z</time>
      </trkpt>
      <trkpt lat="49.85916" lon="2.32635">
        <ele>34.3</ele>
        <time>2024-01-12T13:26:30Z</time>
      </trkpt>
      <trkpt lat="49.85915" lon="2.32635">
        <ele>34.3</ele>
        <time>2024-01-12T13:26:31Z</time>
      </trkpt>
      <trkpt lat="49.85914" lon="2.32635">
        <ele>34.3</ele>
        <time>2024-01-12T13:26:32Z</time>
      </trkpt>
      <trkpt lat="49.85913" lon="2.32635">
        <ele>34.3</ele>
        <time>2024-01-12T13:26:33Z</time>
      </trkpt>
      <trkpt lat="49.85912" lon="2.32636">
        <ele>34.3</ele>
        <time>2024-01-12T13:26:34Z</time>
      </trkpt>
      <trkpt lat="49.85911" lon="2.32636">
        <ele>34.3</ele>
        <time>2024-01-12T13:26:35Z</time>
      </trkpt>
      <trkpt lat="49.8591" lon="2.32636">
        <ele>34.4</ele>
        <time>2024-01-12T13:26:36Z</time>
      </trkpt>
      <trkpt lat="49.85909" lon="2.32637">
        <ele>34.4</ele>
        <time>2024-01-12T13:26:37Z</time>
      </trkpt>
      <trkpt lat="49.85908" lon="2.32637">
        <ele>34.4</ele>
        <time>2024-01-12T13:26:38Z</time>
      </trkpt>
      <trkpt lat="49.85907" lon="2.32637">
        <ele>34.4</ele>
        <time>2024-01-12T13:26:39Z</time>
      </trkpt>
      <trkpt lat="49.85906" lon="2.32637">
        <ele>34.4</ele>
        <time>2024-01-12T13:26:40Z</time>
      </trkpt>
      <trkpt lat="49.85905" lon="2.32638">
        <ele>34.4</ele>
        <time>2024-01-12T13:26:41Z</time>
      </trkpt>
      <trkpt lat="49.85904" lon="2.32638">
        <ele>34.5</ele>
        <time>2024-01-12T13:26:42Z</time>
      </trkpt>
      <trkpt lat="49.85902" lon="2.32638">
        <ele>34.5</ele>
        <time>2024-01-12T13:26:43Z</time>
      </trkpt>
      <trkpt lat="49.85901" lon="2.32639">
        <ele>34.5</ele>
        <time>2024-01-12T13:26:44Z</time>
      </trkpt>
      <trkpt lat="49.859" lon="2.32639">
        <ele>34.5</ele>
        <time>2024-01-12T13:26:45Z</time>
      </trkpt>
      <trkpt lat="49.85899" lon="2.32639">
        <ele>34.6</ele>
        <time>2024-01-12T13:26:46Z</time>
      </trkpt>
      <trkpt lat="49.85898" lon="2.32639">
        <ele>34.6</ele>
        <time>2024-01-12T13:26:47Z</time>
      </trkpt>
      <trkpt lat="49.85897" lon="2.32639">
        <ele>34.6</ele>
        <time>2024-01-12T13:26:48Z</time>
      </trkpt>
      <trkpt lat="49.85896" lon="2.32639">
        <ele>34.6</ele>
        <time>2024-01-12T13:26:49Z</time>
      </trkpt>
      <trkpt lat="49.85895" lon="2.32639">
        <ele>34.7</ele>
        <time>2024-01-12T13:26:50Z</time>
      </trkpt>
      <trkpt lat="49.85893" lon="2.32639">
        <ele>34.7</ele>
        <time>2024-01-12T13:26:51Z</time>
      </trkpt>
      <trkpt lat="49.85892" lon="2.32639">
        <ele>34.7</ele>
        <time>2024-01-12T13:26:52Z</time>
      </trkpt>
      <trkpt lat="49.85891" lon="2.32639">
        <ele>34.8</ele>
        <time>2024-01-12T13:26:53Z</time>
      </trkpt>
      <trkpt lat="49.8589" lon="2.32639">
        <ele>34.8</ele>
        <time>2024-01-12T13:26:54Z</time>
      </trkpt>
      <trkpt lat="49.85889" lon="2.32639">
        <ele>34.8</ele>
        <time>2024-01-12T13:26:55Z</time>
      </trkpt>
      <trkpt lat="49.85888" lon="2.32639">
        <ele>34.9</ele>
        <time>2024-01-12T13:26:56Z</time>
      </trkpt>
      <trkpt lat="49.85887" lon="2.32639">
        <ele>34.9</ele>
        <time>2024-01-12T13:26:57Z</time>
      </trkpt>
      <trkpt lat="49.85885" lon="2.32639">
        <ele>34.9</ele>
        <time>2024-01-12T13:26:58Z</time>
      </trkpt>
      <trkpt lat="49.85884" lon="2.32639">
        <ele>35</ele>
        <time>2024-01-12T13:26:59Z</time>
      </trkpt>
      <trkpt lat="49.85883" lon="2.32639">
        <ele>35</ele>
        <time>2024-01-12T13:27:00Z</time>
      </trkpt>
      <trkpt lat="49.85882" lon="2.32639">
        <ele>35.1</ele>
        <time>2024-01-12T13:27:01Z</time>
      </trkpt>
      <trkpt lat="49.85881" lon="2.32639">
        <ele>35.1</ele>
        <time>2024-01-12T13:27:02Z</time>
      </trkpt>
      <trkpt lat="49.8588" lon="2.32639">
        <ele>35.2</ele>
        <time>2024-01-12T13:27:03Z</time>
      </trkpt>
      <trkpt lat="49.85879" lon="2.3264">
        <ele>35.2</ele>
        <time>2024-01-12T13:27:04Z</time>
      </trkpt>
      <trkpt lat="49.85878" lon="2.3264">
        <ele>35.3</ele>
        <time>2024-01-12T13:27:05Z</time>
      </trkpt>
      <trkpt lat="49.85877" lon="2.3264">
        <ele>35.3</ele>
        <time>2024-01-12T13:27:06Z</time>
      </trkpt>
      <trkpt lat="49.85876" lon="2.3264">
        <ele>35.3</ele>
        <time>2024-01-12T13:27:07Z</time>
      </trkpt>
      <trkpt lat="49.85875" lon="2.32641">
        <ele>35.4</ele>
        <time>2024-01-12T13:27:08Z</time>
      </trkpt>
      <trkpt lat="49.85874" lon="2.32641">
        <ele>35.4</ele>
        <time>2024-01-12T13:27:09Z</time>
      </trkpt>
      <trkpt lat="49.85873" lon="2.32641">
        <ele>35.5</ele>
        <time>2024-01-12T13:27:10Z</time>
      </trkpt>
      <trkpt lat="49.85872" lon="2.32641">
        <ele>35.5</ele>
        <time>2024-01-12T13:27:11Z</time>
      </trkpt>
      <trkpt lat="49.85871" lon="2.32642">
        <ele>35.6</ele>
        <time>2024-01-12T13:27:12Z</time>
      </trkpt>
      <trkpt lat="49.8587" lon="2.32642">
        <ele>35.6</ele>
        <time>2024-01-12T13:27:13Z</time>
      </trkpt>
      <trkpt lat="49.85869" lon="2.32642">
        <ele>35.7</ele>
        <time>2024-01-12T13:27:14Z</time>
      </trkpt>
      <trkpt lat="49.85868" lon="2.32642">
        <ele>35.7</ele>
        <time>2024-01-12T13:27:15Z</time>
      </trkpt>
      <trkpt lat="49.85868" lon="2.32642">
        <ele>35.8</ele>
        <time>2024-01-12T13:27:16Z</time>
      </trkpt>
      <trkpt lat="49.85867" lon="2.32642">
        <ele>35.8</ele>
        <time>2024-01-12T13:27:17Z</time>
      </trkpt>
      <trkpt lat="49.85866" lon="2.32642">
        <ele>35.9</ele>
        <time>2024-01-12T13:27:18Z</time>
      </trkpt>
      <trkpt lat="49.85865" lon="2.32642">
        <ele>35.9</ele>
        <time>2024-01-12T13:27:19Z</time>
      </trkpt>
      <trkpt lat="49.85865" lon="2.32642">
        <ele>36</ele>
        <time>2024-01-12T13:27:20Z</time>
      </trkpt>
      <trkpt lat="49.85864" lon="2.32642">
        <ele>36</ele>
        <time>2024-01-12T13:27:21Z</time>
      </trkpt>
      <trkpt lat="49.85864" lon="2.32642">
        <ele>36</ele>
        <time>2024-01-12T13:27:22Z</time>
      </trkpt>
      <trkpt lat="49.85863" lon="2.32641">
        <ele>36.1</ele>
        <time>2024-01-12T13:27:23Z</time>
      </trkpt>
      <trkpt lat="49.85862" lon="2.32641">
        <ele>36.1</ele>
        <time>2024-01-12T13:27:24Z</time>
      </trkpt>
      <trkpt lat="49.85861" lon="2.32641">
        <ele>36.2</ele>
        <time>2024-01-12T13:27:25Z</time>
      </trkpt>
      <trkpt lat="49.8586" lon="2.32641">
        <ele>36.2</ele>
        <time>2024-01-12T13:27:26Z</time>
      </trkpt>
      <trkpt lat="49.85859" lon="2.32641">
        <ele>36.3</ele>
        <time>2024-01-12T13:27:27Z</time>
      </trkpt>
      <trkpt lat="49.85859" lon="2.32642">
        <ele>36.3</ele>
        <time>2024-01-12T13:27:28Z</time>
      </trkpt>
      <trkpt lat="49.85858" lon="2.32642">
        <ele>36.4</ele>
        <time>2024-01-12T13:27:29Z</time>
      </trkpt>
      <trkpt lat="49.85857" lon="2.32642">
        <ele>36.4</ele>
        <time>2024-01-12T13:27:30Z</time>
      </trkpt>
      <trkpt lat="49.85856" lon="2.32642">
        <ele>36.5</ele>
        <time>2024-01-12T13:27:31Z</time>
      </trkpt>
      <trkpt lat="49.85855" lon="2.32642">
        <ele>36.6</ele>
        <time>2024-01-12T13:27:32Z</time>
      </trkpt>
      <trkpt lat="49.85854" lon="2.32641">
        <ele>36.6</ele>
        <time>2024-01-12T13:27:33Z</time>
      </trkpt>
      <trkpt lat="49.85852" lon="2.32641">
        <ele>36.8</ele>
        <time>2024-01-12T13:27:34Z</time>
      </trkpt>
      <trkpt lat="49.85851" lon="2.32641">
        <ele>36.9</ele>
        <time>2024-01-12T13:27:35Z</time>
      </trkpt>
      <trkpt lat="49.85849" lon="2.3264">
        <ele>37</ele>
        <time>2024-01-12T13:27:36Z</time>
      </trkpt>
      <trkpt lat="49.85847" lon="2.3264">
        <ele>37.1</ele>
        <time>2024-01-12T13:27:37Z</time>
      </trkpt>
      <trkpt lat="49.85846" lon="2.3264">
        <ele>37.2</ele>
        <time>2024-01-12T13:27:38Z</time>
      </trkpt>
      <trkpt lat="49.85846" lon="2.3264">
        <ele>37.2</ele>
        <time>2024-01-12T13:27:39Z</time>
      </trkpt>
      <trkpt lat="49.85844" lon="2.32639">
        <ele>37.3</ele>
        <time>2024-01-12T13:27:40Z</time>
      </trkpt>
      <trkpt lat="49.85843" lon="2.32639">
        <ele>37.4</ele>
        <time>2024-01-12T13:27:41Z</time>
      </trkpt>
      <trkpt lat="49.85842" lon="2.32639">
        <ele>37.5</ele>
        <time>2024-01-12T13:27:42Z</time>
      </trkpt>
      <trkpt lat="49.85841" lon="2.32639">
        <ele>37.6</ele>
        <time>2024-01-12T13:27:43Z</time>
      </trkpt>
      <trkpt lat="49.8584" lon="2.32639">
        <ele>37.7</ele>
        <time>2024-01-12T13:27:44Z</time>
      </trkpt>
      <trkpt lat="49.85839" lon="2.32639">
        <ele>37.7</ele>
        <time>2024-01-12T13:27:45Z</time>
      </trkpt>
      <trkpt lat="49.85839" lon="2.32638">
        <ele>37.8</ele>
        <time>2024-01-12T13:27:46Z</time>
      </trkpt>
      <trkpt lat="49.85838" lon="2.32638">
        <ele>37.8</ele>
        <time>2024-01-12T13:27:47Z</time>
      </trkpt>
      <trkpt lat="49.85837" lon="2.32638">
        <ele>37.9</ele>
        <time>2024-01-12T13:27:48Z</time>
      </trkpt>
      <trkpt lat="49.85837" lon="2.32638">
        <ele>37.9</ele>
        <time>2024-01-12T13:27:49Z</time>
      </trkpt>
      <trkpt lat="49.85836" lon="2.32638">
        <ele>38</ele>
        <time>2024-01-12T13:27:50Z</time>
      </trkpt>
      <trkpt lat="49.85835" lon="2.32637">
        <ele>38.1</ele>
        <time>2024-01-12T13:27:51Z</time>
      </trkpt>
      <trkpt lat="49.85835" lon="2.32637">
        <ele>38.1</ele>
        <time>2024-01-12T13:27:52Z</time>
      </trkpt>
      <trkpt lat="49.85834" lon="2.32636">
        <ele>38.2</ele>
        <time>2024-01-12T13:27:53Z</time>
      </trkpt>
      <trkpt lat="49.85833" lon="2.32636">
        <ele>38.3</ele>
        <time>2024-01-12T13:27:54Z</time>
      </trkpt>
      <trkpt lat="49.85832" lon="2.32635">
        <ele>38.4</ele>
        <time>2024-01-12T13:27:55Z</time>
      </trkpt>
      <trkpt lat="49.85831" lon="2.32635">
        <ele>38.4</ele>
        <time>2024-01-12T13:27:56Z</time>
      </trkpt>
      <trkpt lat="49.85831" lon="2.32635">
        <ele>38.5</ele>
        <time>2024-01-12T13:27:57Z</time>
      </trkpt>
      <trkpt lat="49.8583" lon="2.32635">
        <ele>38.5</ele>
        <time>2024-01-12T13:27:58Z</time>
      </trkpt>
      <trkpt lat="49.85829" lon="2.32634">
        <ele>38.6</ele>
        <time>2024-01-12T13:27:59Z</time>
      </trkpt>
      <trkpt lat="49.85828" lon="2.32634">
        <ele>38.6</ele>
        <time>2024-01-12T13:28:00Z</time>
      </trkpt>
      <trkpt lat="49.85828" lon="2.32634">
        <ele>38.7</ele>
        <time>2024-01-12T13:28:01Z</time>
      </trkpt>
      <trkpt lat="49.85828" lon="2.32634">
        <ele>38.7</ele>
        <time>2024-01-12T13:28:02Z</time>
      </trkpt>
      <trkpt lat="49.85827" lon="2.32633">
        <ele>38.8</ele>
        <time>2024-01-12T13:28:03Z</time>
      </trkpt>
      <trkpt lat="49.85826" lon="2.32633">
        <ele>38.8</ele>
        <time>2024-01-12T13:28:04Z</time>
      </trkpt>
      <trkpt lat="49.85826" lon="2.32633">
        <ele>38.9</ele>
        <time>2024-01-12T13:28:05Z</time>
      </trkpt>
      <trkpt lat="49.85825" lon="2.32632">
        <ele>39</ele>
        <time>2024-01-12T13:28:06Z</time>
      </trkpt>
      <trkpt lat="49.85824" lon="2.32632">
        <ele>39</ele>
        <time>2024-01-12T13:28:07Z</time>
      </trkpt>
      <trkpt lat="49.85824" lon="2.32632">
        <ele>39.1</ele>
        <time>2024-01-12T13:28:08Z</time>
      </trkpt>
      <trkpt lat="49.85822" lon="2.32632">
        <ele>39.2</ele>
        <time>2024-01-12T13:28:09Z</time>
      </trkpt>
      <trkpt lat="49.85821" lon="2.32632">
        <ele>39.2</ele>
        <time>2024-01-12T13:28:10Z</time>
      </trkpt>
      <trkpt lat="49.8582" lon="2.32632">
        <ele>39.3</ele>
        <time>2024-01-12T13:28:11Z</time>
      </trkpt>
      <trkpt lat="49.85819" lon="2.32631">
        <ele>39.4</ele>
        <time>2024-01-12T13:28:12Z</time>
      </trkpt>
      <trkpt lat="49.85818" lon="2.32631">
        <ele>39.5</ele>
        <time>2024-01-12T13:28:13Z</time>
      </trkpt>
      <trkpt lat="49.85817" lon="2.32631">
        <ele>39.5</ele>
        <time>2024-01-12T13:28:14Z</time>
      </trkpt>
      <trkpt lat="49.85816" lon="2.32631">
        <ele>39.6</ele>
        <time>2024-01-12T13:28:15Z</time>
      </trkpt>
      <trkpt lat="49.85814" lon="2.32631">
        <ele>39.8</ele>
        <time>2024-01-12T13:28:16Z</time>
      </trkpt>
      <trkpt lat="49.85812" lon="2.3263">
        <ele>39.9</ele>
        <time>2024-01-12T13:28:17Z</time>
      </trkpt>
      <trkpt lat="49.85812" lon="2.3263">
        <ele>40</ele>
        <time>2024-01-12T13:28:18Z</time>
      </trkpt>
      <trkpt lat="49.85811" lon="2.3263">
        <ele>40.1</ele>
        <time>2024-01-12T13:28:19Z</time>
      </trkpt>
      <trkpt lat="49.85809" lon="2.3263">
        <ele>40.2</ele>
        <time>2024-01-12T13:28:20Z</time>
      </trkpt>
      <trkpt lat="49.85808" lon="2.32629">
        <ele>40.3</ele>
        <time>2024-01-12T13:28:21Z</time>
      </trkpt>
      <trkpt lat="49.85806" lon="2.32629">
        <ele>40.4</ele>
        <time>2024-01-12T13:28:22Z</time>
      </trkpt>
      <trkpt lat="49.85804" lon="2.32629">
        <ele>40.5</ele>
        <time>2024-01-12T13:28:23Z</time>
      </trkpt>
      <trkpt lat="49.85803" lon="2.32628">
        <ele>40.6</ele>
        <time>2024-01-12T13:28:24Z</time>
      </trkpt>
      <trkpt lat="49.85801" lon="2.32628">
        <ele>40.7</ele>
        <time>2024-01-12T13:28:25Z</time>
      </trkpt>
      <trkpt lat="49.858" lon="2.32628">
        <ele>40.8</ele>
        <time>2024-01-12T13:28:26Z</time>
      </trkpt>
      <trkpt lat="49.85798" lon="2.32627">
        <ele>41</ele>
        <time>2024-01-12T13:28:27Z</time>
      </trkpt>
      <trkpt lat="49.85796" lon="2.32627">
        <ele>41.1</ele>
        <time>2024-01-12T13:28:28Z</time>
      </trkpt>
      <trkpt lat="49.85795" lon="2.32627">
        <ele>41.2</ele>
        <time>2024-01-12T13:28:29Z</time>
      </trkpt>
      <trkpt lat="49.85793" lon="2.32626">
        <ele>41.3</ele>
        <time>2024-01-12T13:28:30Z</time>
      </trkpt>
      <trkpt lat="49.85792" lon="2.32626">
        <ele>41.4</ele>
        <time>2024-01-12T13:28:31Z</time>
      </trkpt>
      <trkpt lat="49.85791" lon="2.32626">
        <ele>41.5</ele>
        <time>2024-01-12T13:28:32Z</time>
      </trkpt>
      <trkpt lat="49.8579" lon="2.32626">
        <ele>41.6</ele>
        <time>2024-01-12T13:28:33Z</time>
      </trkpt>
      <trkpt lat="49.85788" lon="2.32625">
        <ele>41.7</ele>
        <time>2024-01-12T13:28:34Z</time>
      </trkpt>
      <trkpt lat="49.85786" lon="2.32625">
        <ele>41.8</ele>
        <time>2024-01-12T13:28:35Z</time>
      </trkpt>
      <trkpt lat="49.85785" lon="2.32625">
        <ele>41.9</ele>
        <time>2024-01-12T13:28:36Z</time>
      </trkpt>
      <trkpt lat="49.85784" lon="2.32625">
        <ele>42</ele>
        <time>2024-01-12T13:28:37Z</time>
      </trkpt>
      <trkpt lat="49.85783" lon="2.32625">
        <ele>42</ele>
        <time>2024-01-12T13:28:38Z</time>
      </trkpt>
      <trkpt lat="49.85782" lon="2.32625">
        <ele>42.1</ele>
        <time>2024-01-12T13:28:39Z</time>
      </trkpt>
      <trkpt lat="49.85781" lon="2.32625">
        <ele>42.2</ele>
        <time>2024-01-12T13:28:40Z</time>
      </trkpt>
      <trkpt lat="49.8578" lon="2.32625">
        <ele>42.3</ele>
        <time>2024-01-12T13:28:41Z</time>
      </trkpt>
      <trkpt lat="49.85779" lon="2.32624">
        <ele>42.4</ele>
        <time>2024-01-12T13:28:42Z</time>
      </trkpt>
      <trkpt lat="49.85778" lon="2.32624">
        <ele>42.4</ele>
        <time>2024-01-12T13:28:43Z</time>
      </trkpt>
      <trkpt lat="49.85777" lon="2.32624">
        <ele>42.5</ele>
        <time>2024-01-12T13:28:44Z</time>
      </trkpt>
      <trkpt lat="49.85776" lon="2.32623">
        <ele>42.6</ele>
        <time>2024-01-12T13:28:45Z</time>
      </trkpt>
      <trkpt lat="49.85775" lon="2.32623">
        <ele>42.7</ele>
        <time>2024-01-12T13:28:46Z</time>
      </trkpt>
      <trkpt lat="49.85774" lon="2.32622">
        <ele>42.8</ele>
        <time>2024-01-12T13:28:47Z</time>
      </trkpt>
      <trkpt lat="49.85773" lon="2.32622">
        <ele>42.8</ele>
        <time>2024-01-12T13:28:48Z</time>
      </trkpt>
      <trkpt lat="49.85772" lon="2.32621">
        <ele>42.9</ele>
        <time>2024-01-12T13:28:49Z</time>
      </trkpt>
      <trkpt lat="49.85771" lon="2.32621">
        <ele>43</ele>
        <time>2024-01-12T13:28:50Z</time>
      </trkpt>
      <trkpt lat="49.8577" lon="2.3262">
        <ele>43.1</ele>
        <time>2024-01-12T13:28:51Z</time>
      </trkpt>
      <trkpt lat="49.85769" lon="2.32619">
        <ele>43.1</ele>
        <time>2024-01-12T13:28:52Z</time>
      </trkpt>
      <trkpt lat="49.85768" lon="2.32618">
        <ele>43.2</ele>
        <time>2024-01-12T13:28:53Z</time>
      </trkpt>
      <trkpt lat="49.85767" lon="2.32618">
        <ele>43.2</ele>
        <time>2024-01-12T13:28:54Z</time>
      </trkpt>
      <trkpt lat="49.85767" lon="2.32617">
        <ele>43.2</ele>
        <time>2024-01-12T13:28:55Z</time>
      </trkpt>
      <trkpt lat="49.85766" lon="2.32616">
        <ele>43.2</ele>
        <time>2024-01-12T13:28:56Z</time>
      </trkpt>
      <trkpt lat="49.85765" lon="2.32615">
        <ele>43.3</ele>
        <time>2024-01-12T13:28:57Z</time>
      </trkpt>
      <trkpt lat="49.85764" lon="2.32614">
        <ele>43.3</ele>
        <time>2024-01-12T13:28:58Z</time>
      </trkpt>
      <trkpt lat="49.85763" lon="2.32612">
        <ele>43.3</ele>
        <time>2024-01-12T13:28:59Z</time>
      </trkpt>
      <trkpt lat="49.85763" lon="2.32611">
        <ele>43.3</ele>
        <time>2024-01-12T13:29:00Z</time>
      </trkpt>
      <trkpt lat="49.85762" lon="2.3261">
        <ele>43.3</ele>
        <time>2024-01-12T13:29:01Z</time>
      </trkpt>
      <trkpt lat="49.85761" lon="2.32609">
        <ele>43.3</ele>
        <time>2024-01-12T13:29:02Z</time>
      </trkpt>
      <trkpt lat="49.85761" lon="2.32608">
        <ele>43.3</ele>
        <time>2024-01-12T13:29:03Z</time>
      </trkpt>
      <trkpt lat="49.8576" lon="2.32607">
        <ele>43.3</ele>
        <time>2024-01-12T13:29:04Z</time>
      </trkpt>
      <trkpt lat="49.8576" lon="2.32606">
        <ele>43.3</ele>
        <time>2024-01-12T13:29:05Z</time>
      </trkpt>
      <trkpt lat="49.85759" lon="2.32604">
        <ele>43.4</ele>
        <time>2024-01-12T13:29:06Z</time>
      </trkpt>
      <trkpt lat="49.85759" lon="2.32603">
        <ele>43.4</ele>
        <time>2024-01-12T13:29:07Z</time>
      </trkpt>
      <trkpt lat="49.85758" lon="2.32602">
        <ele>43.4</ele>
        <time>2024-01-12T13:29:08Z</time>
      </trkpt>
      <trkpt lat="49.85758" lon="2.32601">
        <ele>43.4</ele>
        <time>2024-01-12T13:29:09Z</time>
      </trkpt>
      <trkpt lat="49.85757" lon="2.32599">
        <ele>43.4</ele>
        <time>2024-01-12T13:29:10Z</time>
      </trkpt>
      <trkpt lat="49.85756" lon="2.32598">
        <ele>43.4</ele>
        <time>2024-01-12T13:29:11Z</time>
      </trkpt>
      <trkpt lat="49.85755" lon="2.32598">
        <ele>43.4</ele>
        <time>2024-01-12T13:29:12Z</time>
      </trkpt>
      <trkpt lat="49.85755" lon="2.32597">
        <ele>43.4</ele>
        <time>2024-01-12T13:29:13Z</time>
      </trkpt>
      <trkpt lat="49.85754" lon="2.32597">
        <ele>43.5</ele>
        <time>2024-01-12T13:29:14Z</time>
      </trkpt>
      <trkpt lat="49.85753" lon="2.32597">
        <ele>43.5</ele>
        <time>2024-01-12T13:29:15Z</time>
      </trkpt>
      <trkpt lat="49.85752" lon="2.32596">
        <ele>43.5</ele>
        <time>2024-01-12T13:29:16Z</time>
      </trkpt>
      <trkpt lat="49.85751" lon="2.32596">
        <ele>43.5</ele>
        <time>2024-01-12T13:29:17Z</time>
      </trkpt>
      <trkpt lat="49.8575" lon="2.32595">
        <ele>43.5</ele>
        <time>2024-01-12T13:29:18Z</time>
      </trkpt>
      <trkpt lat="49.85749" lon="2.32595">
        <ele>43.5</ele>
        <time>2024-01-12T13:29:19Z</time>
      </trkpt>
      <trkpt lat="49.85749" lon="2.32595">
        <ele>43.5</ele>
        <time>2024-01-12T13:29:20Z</time>
      </trkpt>
      <trkpt lat="49.85748" lon="2.32596">
        <ele>43.6</ele>
        <time>2024-01-12T13:29:21Z</time>
      </trkpt>
      <trkpt lat="49.85748" lon="2.32595">
        <ele>43.6</ele>
        <time>2024-01-12T13:29:22Z</time>
      </trkpt>
      <trkpt lat="49.85748" lon="2.32595">
        <ele>43.6</ele>
        <time>2024-01-12T13:29:23Z</time>
      </trkpt>
      <trkpt lat="49.85748" lon="2.32594">
        <ele>43.6</ele>
        <time>2024-01-12T13:29:24Z</time>
      </trkpt>
      <trkpt lat="49.85749" lon="2.32593">
        <ele>43.6</ele>
        <time>2024-01-12T13:29:25Z</time>
      </trkpt>
      <trkpt lat="49.85749" lon="2.32592">
        <ele>43.6</ele>
        <time>2024-01-12T13:29:26Z</time>
      </trkpt>
      <trkpt lat="49.8575" lon="2.32591">
        <ele>43.6</ele>
        <time>2024-01-12T13:29:27Z</time>
      </trkpt>
      <trkpt lat="49.8575" lon="2.3259">
        <ele>43.6</ele>
        <time>2024-01-12T13:29:28Z</time>
      </trkpt>
      <trkpt lat="49.8575" lon="2.32589">
        <ele>43.7</ele>
        <time>2024-01-12T13:29:29Z</time>
      </trkpt>
      <trkpt lat="49.85751" lon="2.32588">
        <ele>43.7</ele>
        <time>2024-01-12T13:29:30Z</time>
      </trkpt>
      <trkpt lat="49.85751" lon="2.32587">
        <ele>43.7</ele>
        <time>2024-01-12T13:29:31Z</time>
      </trkpt>
      <trkpt lat="49.8575" lon="2.32586">
        <ele>43.7</ele>
        <time>2024-01-12T13:29:32Z</time>
      </trkpt>
      <trkpt lat="49.8575" lon="2.32585">
        <ele>43.7</ele>
        <time>2024-01-12T13:29:33Z</time>
      </trkpt>
      <trkpt lat="49.85749" lon="2.32584">
        <ele>43.7</ele>
        <time>2024-01-12T13:29:34Z</time>
      </trkpt>
      <trkpt lat="49.85749" lon="2.32583">
        <ele>43.8</ele>
        <time>2024-01-12T13:29:35Z</time>
      </trkpt>
      <trkpt lat="49.85748" lon="2.32582">
        <ele>43.8</ele>
        <time>2024-01-12T13:29:36Z</time>
      </trkpt>
      <trkpt lat="49.85748" lon="2.32581">
        <ele>43.8</ele>
        <time>2024-01-12T13:29:37Z</time>
      </trkpt>
      <trkpt lat="49.85747" lon="2.3258">
        <ele>43.8</ele>
        <time>2024-01-12T13:29:38Z</time>
      </trkpt>
      <trkpt lat="49.85746" lon="2.3258">
        <ele>43.8</ele>
        <time>2024-01-12T13:29:39Z</time>
      </trkpt>
      <trkpt lat="49.85745" lon="2.32579">
        <ele>43.9</ele>
        <time>2024-01-12T13:29:40Z</time>
      </trkpt>
      <trkpt lat="49.85744" lon="2.32578">
        <ele>43.9</ele>
        <time>2024-01-12T13:29:41Z</time>
      </trkpt>
      <trkpt lat="49.85744" lon="2.32577">
        <ele>43.9</ele>
        <time>2024-01-12T13:29:42Z</time>
      </trkpt>
      <trkpt lat="49.85743" lon="2.32576">
        <ele>43.9</ele>
        <time>2024-01-12T13:29:43Z</time>
      </trkpt>
      <trkpt lat="49.85742" lon="2.32576">
        <ele>43.9</ele>
        <time>2024-01-12T13:29:44Z</time>
      </trkpt>
      <trkpt lat="49.85741" lon="2.32575">
        <ele>44</ele>
        <time>2024-01-12T13:29:45Z</time>
      </trkpt>
      <trkpt lat="49.85739" lon="2.32574">
        <ele>44</ele>
        <time>2024-01-12T13:29:46Z</time>
      </trkpt>
      <trkpt lat="49.85738" lon="2.32574">
        <ele>44</ele>
        <time>2024-01-12T13:29:47Z</time>
      </trkpt>
      <trkpt lat="49.85737" lon="2.32574">
        <ele>44.1</ele>
        <time>2024-01-12T13:29:48Z</time>
      </trkpt>
      <trkpt lat="49.85735" lon="2.32573">
        <ele>44.1</ele>
        <time>2024-01-12T13:29:49Z</time>
      </trkpt>
      <trkpt lat="49.85734" lon="2.32572">
        <ele>44.2</ele>
        <time>2024-01-12T13:29:50Z</time>
      </trkpt>
      <trkpt lat="49.85734" lon="2.32572">
        <ele>44.2</ele>
        <time>2024-01-12T13:29:51Z</time>
      </trkpt>
      <trkpt lat="49.85733" lon="2.32571">
        <ele>44.2</ele>
        <time>2024-01-12T13:29:52Z</time>
      </trkpt>
      <trkpt lat="49.85732" lon="2.32571">
        <ele>44.2</ele>
        <time>2024-01-12T13:29:53Z</time>
      </trkpt>
      <trkpt lat="49.85731" lon="2.32571">
        <ele>44.3</ele>
        <time>2024-01-12T13:29:54Z</time>
      </trkpt>
      <trkpt lat="49.8573" lon="2.3257">
        <ele>44.3</ele>
        <time>2024-01-12T13:29:55Z</time>
      </trkpt>
      <trkpt lat="49.85729" lon="2.3257">
        <ele>44.4</ele>
        <time>2024-01-12T13:29:56Z</time>
      </trkpt>
      <trkpt lat="49.85727" lon="2.32569">
        <ele>44.4</ele>
        <time>2024-01-12T13:29:57Z</time>
      </trkpt>
      <trkpt lat="49.85725" lon="2.32569">
        <ele>44.5</ele>
        <time>2024-01-12T13:29:58Z</time>
      </trkpt>
      <trkpt lat="49.85725" lon="2.32568">
        <ele>44.5</ele>
        <time>2024-01-12T13:29:59Z</time>
      </trkpt>
      <trkpt lat="49.85724" lon="2.32568">
        <ele>44.5</ele>
        <time>2024-01-12T13:30:00Z</time>
      </trkpt>
      <trkpt lat="49.85723" lon="2.32568">
        <ele>44.6</ele>
        <time>2024-01-12T13:30:01Z</time>
      </trkpt>
      <trkpt lat="49.85722" lon="2.32567">
        <ele>44.6</ele>
        <time>2024-01-12T13:30:02Z</time>
      </trkpt>
      <trkpt lat="49.85721" lon="2.32567">
        <ele>44.6</ele>
        <time>2024-01-12T13:30:03Z</time>
      </trkpt>
      <trkpt lat="49.8572" lon="2.32567">
        <ele>44.7</ele>
        <time>2024-01-12T13:30:04Z</time>
      </trkpt>
      <trkpt lat="49.85719" lon="2.32566">
        <ele>44.7</ele>
        <time>2024-01-12T13:30:05Z</time>
      </trkpt>
      <trkpt lat="49.85717" lon="2.32566">
        <ele>44.8</ele>
        <time>2024-01-12T13:30:06Z</time>
      </trkpt>
      <trkpt lat="49.85716" lon="2.32566">
        <ele>44.8</ele>
        <time>2024-01-12T13:30:07Z</time>
      </trkpt>
      <trkpt lat="49.85715" lon="2.32565">
        <ele>44.8</ele>
        <time>2024-01-12T13:30:08Z</time>
      </trkpt>
      <trkpt lat="49.85714" lon="2.32565">
        <ele>44.9</ele>
        <time>2024-01-12T13:30:09Z</time>
      </trkpt>
      <trkpt lat="49.85713" lon="2.32565">
        <ele>44.9</ele>
        <time>2024-01-12T13:30:10Z</time>
      </trkpt>
      <trkpt lat="49.85712" lon="2.32564">
        <ele>44.9</ele>
        <time>2024-01-12T13:30:11Z</time>
      </trkpt>
      <trkpt lat="49.85711" lon="2.32564">
        <ele>45</ele>
        <time>2024-01-12T13:30:12Z</time>
      </trkpt>
      <trkpt lat="49.8571" lon="2.32563">
        <ele>45</ele>
        <time>2024-01-12T13:30:13Z</time>
      </trkpt>
      <trkpt lat="49.85709" lon="2.32563">
        <ele>45.1</ele>
        <time>2024-01-12T13:30:14Z</time>
      </trkpt>
      <trkpt lat="49.85708" lon="2.32563">
        <ele>45.1</ele>
        <time>2024-01-12T13:30:15Z</time>
      </trkpt>
      <trkpt lat="49.85707" lon="2.32562">
        <ele>45.1</ele>
        <time>2024-01-12T13:30:16Z</time>
      </trkpt>
      <trkpt lat="49.85706" lon="2.32562">
        <ele>45.2</ele>
        <time>2024-01-12T13:30:17Z</time>
      </trkpt>
      <trkpt lat="49.85705" lon="2.32562">
        <ele>45.2</ele>
        <time>2024-01-12T13:30:18Z</time>
      </trkpt>
      <trkpt lat="49.85704" lon="2.32562">
        <ele>45.2</ele>
        <time>2024-01-12T13:30:19Z</time>
      </trkpt>
      <trkpt lat="49.85703" lon="2.32561">
        <ele>45.3</ele>
        <time>2024-01-12T13:30:20Z</time>
      </trkpt>
      <trkpt lat="49.85702" lon="2.32561">
        <ele>45.3</ele>
        <time>2024-01-12T13:30:21Z</time>
      </trkpt>
      <trkpt lat="49.85701" lon="2.32561">
        <ele>45.3</ele>
        <time>2024-01-12T13:30:22Z</time>
      </trkpt>
      <trkpt lat="49.857" lon="2.32561">
        <ele>45.4</ele>
        <time>2024-01-12T13:30:23Z</time>
      </trkpt>
      <trkpt lat="49.85699" lon="2.32561">
        <ele>45.4</ele>
        <time>2024-01-12T13:30:24Z</time>
      </trkpt>
      <trkpt lat="49.85698" lon="2.32561">
        <ele>45.4</ele>
        <time>2024-01-12T13:30:25Z</time>
      </trkpt>
      <trkpt lat="49.85697" lon="2.32561">
        <ele>45.5</ele>
        <time>2024-01-12T13:30:26Z</time>
      </trkpt>
      <trkpt lat="49.85696" lon="2.32561">
        <ele>45.5</ele>
        <time>2024-01-12T13:30:27Z</time>
      </trkpt>
      <trkpt lat="49.85695" lon="2.32561">
        <ele>45.5</ele>
        <time>2024-01-12T13:30:28Z</time>
      </trkpt>
      <trkpt lat="49.85694" lon="2.32561">
        <ele>45.5</ele>
        <time>2024-01-12T13:30:29Z</time>
      </trkpt>
      <trkpt lat="49.85693" lon="2.32561">
        <ele>45.6</ele>
        <time>2024-01-12T13:30:30Z</time>
      </trkpt>
      <trkpt lat="49.85692" lon="2.32561">
        <ele>45.6</ele>
        <time>2024-01-12T13:30:31Z</time>
      </trkpt>
      <trkpt lat="49.85691" lon="2.32561">
        <ele>45.6</ele>
        <time>2024-01-12T13:30:32Z</time>
      </trkpt>
      <trkpt lat="49.8569" lon="2.32561">
        <ele>45.7</ele>
        <time>2024-01-12T13:30:33Z</time>
      </trkpt>
      <trkpt lat="49.85689" lon="2.32561">
        <ele>45.7</ele>
        <time>2024-01-12T13:30:34Z</time>
      </trkpt>
      <trkpt lat="49.85688" lon="2.3256">
        <ele>45.8</ele>
        <time>2024-01-12T13:30:35Z</time>
      </trkpt>
      <trkpt lat="49.85687" lon="2.3256">
        <ele>45.8</ele>
        <time>2024-01-12T13:30:36Z</time>
      </trkpt>
      <trkpt lat="49.85686" lon="2.3256">
        <ele>45.8</ele>
        <time>2024-01-12T13:30:37Z</time>
      </trkpt>
      <trkpt lat="49.85685" lon="2.3256">
        <ele>45.9</ele>
        <time>2024-01-12T13:30:38Z</time>
      </trkpt>
      <trkpt lat="49.85684" lon="2.3256">
        <ele>45.9</ele>
        <time>2024-01-12T13:30:39Z</time>
      </trkpt>
      <trkpt lat="49.85683" lon="2.3256">
        <ele>45.9</ele>
        <time>2024-01-12T13:30:40Z</time>
      </trkpt>
      <trkpt lat="49.85682" lon="2.3256">
        <ele>46</ele>
        <time>2024-01-12T13:30:41Z</time>
      </trkpt>
      <trkpt lat="49.85681" lon="2.3256">
        <ele>46</ele>
        <time>2024-01-12T13:30:42Z</time>
      </trkpt>
      <trkpt lat="49.8568" lon="2.3256">
        <ele>46</ele>
        <time>2024-01-12T13:30:43Z</time>
      </trkpt>
      <trkpt lat="49.85679" lon="2.3256">
        <ele>46.1</ele>
        <time>2024-01-12T13:30:44Z</time>
      </trkpt>
      <trkpt lat="49.85678" lon="2.3256">
        <ele>46.1</ele>
        <time>2024-01-12T13:30:45Z</time>
      </trkpt>
      <trkpt lat="49.85677" lon="2.3256">
        <ele>46.1</ele>
        <time>2024-01-12T13:30:46Z</time>
      </trkpt>
      <trkpt lat="49.85676" lon="2.3256">
        <ele>46.2</ele>
        <time>2024-01-12T13:30:47Z</time>
      </trkpt>
      <trkpt lat="49.85675" lon="2.3256">
        <ele>46.2</ele>
        <time>2024-01-12T13:30:48Z</time>
      </trkpt>
      <trkpt lat="49.85674" lon="2.3256">
        <ele>46.2</ele>
        <time>2024-01-12T13:30:49Z</time>
      </trkpt>
      <trkpt lat="49.85673" lon="2.3256">
        <ele>46.3</ele>
        <time>2024-01-12T13:30:50Z</time>
      </trkpt>
      <trkpt lat="49.85672" lon="2.32559">
        <ele>46.3</ele>
        <time>2024-01-12T13:30:51Z</time>
      </trkpt>
      <trkpt lat="49.85671" lon="2.32559">
        <ele>46.3</ele>
        <time>2024-01-12T13:30:52Z</time>
      </trkpt>
      <trkpt lat="49.8567" lon="2.32559">
        <ele>46.4</ele>
        <time>2024-01-12T13:30:53Z</time>
      </trkpt>
      <trkpt lat="49.85669" lon="2.32559">
        <ele>46.4</ele>
        <time>2024-01-12T13:30:54Z</time>
      </trkpt>
      <trkpt lat="49.85668" lon="2.32558">
        <ele>46.4</ele>
        <time>2024-01-12T13:30:55Z</time>
      </trkpt>
      <trkpt lat="49.85666" lon="2.32558">
        <ele>46.5</ele>
        <time>2024-01-12T13:30:56Z</time>
      </trkpt>
      <trkpt lat="49.85665" lon="2.32558">
        <ele>46.5</ele>
        <time>2024-01-12T13:30:57Z</time>
      </trkpt>
      <trkpt lat="49.85664" lon="2.32558">
        <ele>46.5</ele>
        <time>2024-01-12T13:30:58Z</time>
      </trkpt>
      <trkpt lat="49.85663" lon="2.32558">
        <ele>46.6</ele>
        <time>2024-01-12T13:30:59Z</time>
      </trkpt>
      <trkpt lat="49.85662" lon="2.32557">
        <ele>46.6</ele>
        <time>2024-01-12T13:31:00Z</time>
      </trkpt>
      <trkpt lat="49.85661" lon="2.32557">
        <ele>46.6</ele>
        <time>2024-01-12T13:31:01Z</time>
      </trkpt>
      <trkpt lat="49.8566" lon="2.32557">
        <ele>46.7</ele>
        <time>2024-01-12T13:31:02Z</time>
      </trkpt>
      <trkpt lat="49.85659" lon="2.32557">
        <ele>46.7</ele>
        <time>2024-01-12T13:31:03Z</time>
      </trkpt>
      <trkpt lat="49.85657" lon="2.32556">
        <ele>46.7</ele>
        <time>2024-01-12T13:31:04Z</time>
      </trkpt>
      <trkpt lat="49.85656" lon="2.32556">
        <ele>46.7</ele>
        <time>2024-01-12T13:31:05Z</time>
      </trkpt>
      <trkpt lat="49.85655" lon="2.32556">
        <ele>46.8</ele>
        <time>2024-01-12T13:31:06Z</time>
      </trkpt>
      <trkpt lat="49.85653" lon="2.32556">
        <ele>46.8</ele>
        <time>2024-01-12T13:31:07Z</time>
      </trkpt>
      <trkpt lat="49.85653" lon="2.32556">
        <ele>46.8</ele>
        <time>2024-01-12T13:31:08Z</time>
      </trkpt>
      <trkpt lat="49.85652" lon="2.32556">
        <ele>46.9</ele>
        <time>2024-01-12T13:31:09Z</time>
      </trkpt>
      <trkpt lat="49.85651" lon="2.32555">
        <ele>46.9</ele>
        <time>2024-01-12T13:31:10Z</time>
      </trkpt>
      <trkpt lat="49.8565" lon="2.32555">
        <ele>46.9</ele>
        <time>2024-01-12T13:31:11Z</time>
      </trkpt>
      <trkpt lat="49.85648" lon="2.32555">
        <ele>46.9</ele>
        <time>2024-01-12T13:31:12Z</time>
      </trkpt>
      <trkpt lat="49.85647" lon="2.32555">
        <ele>47</ele>
        <time>2024-01-12T13:31:13Z</time>
      </trkpt>
      <trkpt lat="49.85646" lon="2.32555">
        <ele>47</ele>
        <time>2024-01-12T13:31:14Z</time>
      </trkpt>
      <trkpt lat="49.85645" lon="2.32554">
        <ele>47</ele>
        <time>2024-01-12T13:31:15Z</time>
      </trkpt>
      <trkpt lat="49.85644" lon="2.32554">
        <ele>47</ele>
        <time>2024-01-12T13:31:16Z</time>
      </trkpt>
      <trkpt lat="49.85643" lon="2.32554">
        <ele>47</ele>
        <time>2024-01-12T13:31:17Z</time>
      </trkpt>
      <trkpt lat="49.85642" lon="2.32553">
        <ele>47.1</ele>
        <time>2024-01-12T13:31:18Z</time>
      </trkpt>
      <trkpt lat="49.85641" lon="2.32553">
        <ele>47.1</ele>
        <time>2024-01-12T13:31:19Z</time>
      </trkpt>
      <trkpt lat="49.8564" lon="2.32553">
        <ele>47.1</ele>
        <time>2024-01-12T13:31:20Z</time>
      </trkpt>
      <trkpt lat="49.85639" lon="2.32553">
        <ele>47.1</ele>
        <time>2024-01-12T13:31:21Z</time>
      </trkpt>
      <trkpt lat="49.85638" lon="2.32552">
        <ele>47.1</ele>
        <time>2024-01-12T13:31:22Z</time>
      </trkpt>
      <trkpt lat="49.85637" lon="2.32552">
        <ele>47.1</ele>
        <time>2024-01-12T13:31:23Z</time>
      </trkpt>
      <trkpt lat="49.85636" lon="2.32552">
        <ele>47.2</ele>
        <time>2024-01-12T13:31:24Z</time>
      </trkpt>
      <trkpt lat="49.85635" lon="2.32551">
        <ele>47.2</ele>
        <time>2024-01-12T13:31:25Z</time>
      </trkpt>
      <trkpt lat="49.85634" lon="2.32551">
        <ele>47.2</ele>
        <time>2024-01-12T13:31:26Z</time>
      </trkpt>
      <trkpt lat="49.85633" lon="2.32551">
        <ele>47.2</ele>
        <time>2024-01-12T13:31:27Z</time>
      </trkpt>
      <trkpt lat="49.85632" lon="2.3255">
        <ele>47.2</ele>
        <time>2024-01-12T13:31:28Z</time>
      </trkpt>
      <trkpt lat="49.85631" lon="2.3255">
        <ele>47.2</ele>
        <time>2024-01-12T13:31:29Z</time>
      </trkpt>
      <trkpt lat="49.8563" lon="2.3255">
        <ele>47.2</ele>
        <time>2024-01-12T13:31:30Z</time>
      </trkpt>
      <trkpt lat="49.85628" lon="2.3255">
        <ele>47.2</ele>
        <time>2024-01-12T13:31:31Z</time>
      </trkpt>
      <trkpt lat="49.85627" lon="2.32549">
        <ele>47.3</ele>
        <time>2024-01-12T13:31:32Z</time>
      </trkpt>
      <trkpt lat="49.85626" lon="2.32549">
        <ele>47.3</ele>
        <time>2024-01-12T13:31:33Z</time>
      </trkpt>
      <trkpt lat="49.85625" lon="2.32549">
        <ele>47.3</ele>
        <time>2024-01-12T13:31:34Z</time>
      </trkpt>
      <trkpt lat="49.85624" lon="2.32549">
        <ele>47.3</ele>
        <time>2024-01-12T13:31:35Z</time>
      </trkpt>
      <trkpt lat="49.85623" lon="2.32548">
        <ele>47.3</ele>
        <time>2024-01-12T13:31:36Z</time>
      </trkpt>
      <trkpt lat="49.85622" lon="2.32548">
        <ele>47.3</ele>
        <time>2024-01-12T13:31:37Z</time>
      </trkpt>
      <trkpt lat="49.85621" lon="2.32548">
        <ele>47.3</ele>
        <time>2024-01-12T13:31:38Z</time>
      </trkpt>
      <trkpt lat="49.8562" lon="2.32547">
        <ele>47.3</ele>
        <time>2024-01-12T13:31:39Z</time>
      </trkpt>
      <trkpt lat="49.85619" lon="2.32546">
        <ele>47.3</ele>
        <time>2024-01-12T13:31:40Z</time>
      </trkpt>
      <trkpt lat="49.85618" lon="2.32546">
        <ele>47.3</ele>
        <time>2024-01-12T13:31:41Z</time>
      </trkpt>
      <trkpt lat="49.85617" lon="2.32545">
        <ele>47.3</ele>
        <time>2024-01-12T13:31:42Z</time>
      </trkpt>
      <trkpt lat="49.85615" lon="2.32545">
        <ele>47.4</ele>
        <time>2024-01-12T13:31:43Z</time>
      </trkpt>
      <trkpt lat="49.85614" lon="2.32545">
        <ele>47.4</ele>
        <time>2024-01-12T13:31:44Z</time>
      </trkpt>
      <trkpt lat="49.85613" lon="2.32544">
        <ele>47.4</ele>
        <time>2024-01-12T13:31:45Z</time>
      </trkpt>
      <trkpt lat="49.85612" lon="2.32544">
        <ele>47.4</ele>
        <time>2024-01-12T13:31:46Z</time>
      </trkpt>
      <trkpt lat="49.85611" lon="2.32544">
        <ele>47.4</ele>
        <time>2024-01-12T13:31:47Z</time>
      </trkpt>
      <trkpt lat="49.8561" lon="2.32544">
        <ele>47.4</ele>
        <time>2024-01-12T13:31:48Z</time>
      </trkpt>
      <trkpt lat="49.85609" lon="2.32543">
        <ele>47.4</ele>
        <time>2024-01-12T13:31:49Z</time>
      </trkpt>
      <trkpt lat="49.85608" lon="2.32543">
        <ele>47.4</ele>
        <time>2024-01-12T13:31:50Z</time>
      </trkpt>
      <trkpt lat="49.85607" lon="2.32543">
        <ele>47.4</ele>
        <time>2024-01-12T13:31:51Z</time>
      </trkpt>
      <trkpt lat="49.85606" lon="2.32543">
        <ele>47.4</ele>
        <time>2024-01-12T13:31:52Z</time>
      </trkpt>
      <trkpt lat="49.85604" lon="2.32542">
        <ele>47.4</ele>
        <time>2024-01-12T13:31:53Z</time>
      </trkpt>
      <trkpt lat="49.85603" lon="2.32542">
        <ele>47.4</ele>
        <time>2024-01-12T13:31:54Z</time>
      </trkpt>
      <trkpt lat="49.85601" lon="2.32542">
        <ele>47.4</ele>
        <time>2024-01-12T13:31:55Z</time>
      </trkpt>
      <trkpt lat="49.856" lon="2.32542">
        <ele>47.4</ele>
        <time>2024-01-12T13:31:56Z</time>
      </trkpt>
      <trkpt lat="49.85599" lon="2.32542">
        <ele>47.4</ele>
        <time>2024-01-12T13:31:57Z</time>
      </trkpt>
      <trkpt lat="49.85598" lon="2.32541">
        <ele>47.4</ele>
        <time>2024-01-12T13:31:58Z</time>
      </trkpt>
      <trkpt lat="49.85597" lon="2.32541">
        <ele>47.4</ele>
        <time>2024-01-12T13:31:59Z</time>
      </trkpt>
      <trkpt lat="49.85596" lon="2.32541">
        <ele>47.4</ele>
        <time>2024-01-12T13:32:00Z</time>
      </trkpt>
      <trkpt lat="49.85595" lon="2.32541">
        <ele>47.5</ele>
        <time>2024-01-12T13:32:01Z</time>
      </trkpt>
      <trkpt lat="49.85594" lon="2.32541">
        <ele>47.5</ele>
        <time>2024-01-12T13:32:02Z</time>
      </trkpt>
      <trkpt lat="49.85593" lon="2.3254">
        <ele>47.5</ele>
        <time>2024-01-12T13:32:03Z</time>
      </trkpt>
      <trkpt lat="49.85592" lon="2.3254">
        <ele>47.5</ele>
        <time>2024-01-12T13:32:04Z</time>
      </trkpt>
      <trkpt lat="49.85591" lon="2.3254">
        <ele>47.5</ele>
        <time>2024-01-12T13:32:05Z</time>
      </trkpt>
      <trkpt lat="49.8559" lon="2.3254">
        <ele>47.5</ele>
        <time>2024-01-12T13:32:06Z</time>
      </trkpt>
      <trkpt lat="49.85589" lon="2.3254">
        <ele>47.5</ele>
        <time>2024-01-12T13:32:07Z</time>
      </trkpt>
      <trkpt lat="49.85587" lon="2.3254">
        <ele>47.5</ele>
        <time>2024-01-12T13:32:08Z</time>
      </trkpt>
      <trkpt lat="49.85586" lon="2.3254">
        <ele>47.5</ele>
        <time>2024-01-12T13:32:09Z</time>
      </trkpt>
      <trkpt lat="49.85585" lon="2.3254">
        <ele>47.5</ele>
        <time>2024-01-12T13:32:10Z</time>
      </trkpt>
      <trkpt lat="49.85585" lon="2.3254">
        <ele>47.5</ele>
        <time>2024-01-12T13:32:11Z</time>
      </trkpt>
      <trkpt lat="49.85584" lon="2.32539">
        <ele>47.5</ele>
        <time>2024-01-12T13:32:12Z</time>
      </trkpt>
      <trkpt lat="49.85583" lon="2.32539">
        <ele>47.6</ele>
        <time>2024-01-12T13:32:13Z</time>
      </trkpt>
      <trkpt lat="49.85582" lon="2.32538">
        <ele>47.6</ele>
        <time>2024-01-12T13:32:14Z</time>
      </trkpt>
      <trkpt lat="49.85581" lon="2.32538">
        <ele>47.6</ele>
        <time>2024-01-12T13:32:15Z</time>
      </trkpt>
      <trkpt lat="49.8558" lon="2.32537">
        <ele>47.6</ele>
        <time>2024-01-12T13:32:16Z</time>
      </trkpt>
      <trkpt lat="49.85579" lon="2.32537">
        <ele>47.6</ele>
        <time>2024-01-12T13:32:17Z</time>
      </trkpt>
      <trkpt lat="49.85577" lon="2.32536">
        <ele>47.6</ele>
        <time>2024-01-12T13:32:18Z</time>
      </trkpt>
      <trkpt lat="49.85576" lon="2.32536">
        <ele>47.6</ele>
        <time>2024-01-12T13:32:19Z</time>
      </trkpt>
      <trkpt lat="49.85575" lon="2.32536">
        <ele>47.6</ele>
        <time>2024-01-12T13:32:20Z</time>
      </trkpt>
      <trkpt lat="49.85574" lon="2.32535">
        <ele>47.6</ele>
        <time>2024-01-12T13:32:21Z</time>
      </trkpt>
      <trkpt lat="49.85573" lon="2.32535">
        <ele>47.6</ele>
        <time>2024-01-12T13:32:22Z</time>
      </trkpt>
      <trkpt lat="49.85572" lon="2.32534">
        <ele>47.6</ele>
        <time>2024-01-12T13:32:23Z</time>
      </trkpt>
      <trkpt lat="49.85571" lon="2.32534">
        <ele>47.6</ele>
        <time>2024-01-12T13:32:24Z</time>
      </trkpt>
      <trkpt lat="49.8557" lon="2.32533">
        <ele>47.7</ele>
        <time>2024-01-12T13:32:25Z</time>
      </trkpt>
      <trkpt lat="49.85569" lon="2.32533">
        <ele>47.7</ele>
        <time>2024-01-12T13:32:26Z</time>
      </trkpt>
      <trkpt lat="49.85568" lon="2.32532">
        <ele>47.7</ele>
        <time>2024-01-12T13:32:27Z</time>
      </trkpt>
      <trkpt lat="49.85567" lon="2.32532">
        <ele>47.7</ele>
        <time>2024-01-12T13:32:28Z</time>
      </trkpt>
      <trkpt lat="49.85566" lon="2.32532">
        <ele>47.7</ele>
        <time>2024-01-12T13:32:29Z</time>
      </trkpt>
      <trkpt lat="49.85565" lon="2.32531">
        <ele>47.7</ele>
        <time>2024-01-12T13:32:30Z</time>
      </trkpt>
      <trkpt lat="49.85563" lon="2.32531">
        <ele>47.7</ele>
        <time>2024-01-12T13:32:31Z</time>
      </trkpt>
      <trkpt lat="49.85562" lon="2.3253">
        <ele>47.7</ele>
        <time>2024-01-12T13:32:32Z</time>
      </trkpt>
      <trkpt lat="49.85561" lon="2.3253">
        <ele>47.7</ele>
        <time>2024-01-12T13:32:33Z</time>
      </trkpt>
      <trkpt lat="49.85559" lon="2.32529">
        <ele>47.7</ele>
        <time>2024-01-12T13:32:34Z</time>
      </trkpt>
      <trkpt lat="49.85559" lon="2.32529">
        <ele>47.7</ele>
        <time>2024-01-12T13:32:35Z</time>
      </trkpt>
      <trkpt lat="49.85558" lon="2.32529">
        <ele>47.7</ele>
        <time>2024-01-12T13:32:36Z</time>
      </trkpt>
      <trkpt lat="49.85557" lon="2.32528">
        <ele>47.7</ele>
        <time>2024-01-12T13:32:37Z</time>
      </trkpt>
      <trkpt lat="49.85556" lon="2.32528">
        <ele>47.8</ele>
        <time>2024-01-12T13:32:38Z</time>
      </trkpt>
      <trkpt lat="49.85555" lon="2.32527">
        <ele>47.8</ele>
        <time>2024-01-12T13:32:39Z</time>
      </trkpt>
      <trkpt lat="49.85554" lon="2.32527">
        <ele>47.8</ele>
        <time>2024-01-12T13:32:40Z</time>
      </trkpt>
      <trkpt lat="49.85552" lon="2.32526">
        <ele>47.8</ele>
        <time>2024-01-12T13:32:41Z</time>
      </trkpt>
      <trkpt lat="49.85551" lon="2.32526">
        <ele>47.8</ele>
        <time>2024-01-12T13:32:42Z</time>
      </trkpt>
      <trkpt lat="49.8555" lon="2.32525">
        <ele>47.8</ele>
        <time>2024-01-12T13:32:43Z</time>
      </trkpt>
      <trkpt lat="49.85549" lon="2.32525">
        <ele>47.8</ele>
        <time>2024-01-12T13:32:44Z</time>
      </trkpt>
      <trkpt lat="49.85548" lon="2.32524">
        <ele>47.8</ele>
        <time>2024-01-12T13:32:45Z</time>
      </trkpt>
      <trkpt lat="49.85547" lon="2.32524">
        <ele>47.8</ele>
        <time>2024-01-12T13:32:46Z</time>
      </trkpt>
      <trkpt lat="49.85546" lon="2.32524">
        <ele>47.8</ele>
        <time>2024-01-12T13:32:47Z</time>
      </trkpt>
      <trkpt lat="49.85545" lon="2.32523">
        <ele>47.8</ele>
        <time>2024-01-12T13:32:48Z</time>
      </trkpt>
      <trkpt lat="49.85543" lon="2.32523">
        <ele>47.8</ele>
        <time>2024-01-12T13:32:49Z</time>
      </trkpt>
      <trkpt lat="49.85542" lon="2.32522">
        <ele>47.8</ele>
        <time>2024-01-12T13:32:50Z</time>
      </trkpt>
      <trkpt lat="49.85541" lon="2.32522">
        <ele>47.8</ele>
        <time>2024-01-12T13:32:51Z</time>
      </trkpt>
      <trkpt lat="49.8554" lon="2.32521">
        <ele>47.8</ele>
        <time>2024-01-12T13:32:52Z</time>
      </trkpt>
      <trkpt lat="49.85539" lon="2.32521">
        <ele>47.8</ele>
        <time>2024-01-12T13:32:53Z</time>
      </trkpt>
      <trkpt lat="49.85538" lon="2.3252">
        <ele>47.8</ele>
        <time>2024-01-12T13:32:54Z</time>
      </trkpt>
      <trkpt lat="49.85537" lon="2.3252">
        <ele>47.8</ele>
        <time>2024-01-12T13:32:55Z</time>
      </trkpt>
      <trkpt lat="49.85536" lon="2.32519">
        <ele>47.8</ele>
        <time>2024-01-12T13:32:56Z</time>
      </trkpt>
      <trkpt lat="49.85535" lon="2.32519">
        <ele>47.8</ele>
        <time>2024-01-12T13:32:57Z</time>
      </trkpt>
      <trkpt lat="49.85533" lon="2.32518">
        <ele>47.8</ele>
        <time>2024-01-12T13:32:58Z</time>
      </trkpt>
      <trkpt lat="49.85532" lon="2.32518">
        <ele>47.8</ele>
        <time>2024-01-12T13:32:59Z</time>
      </trkpt>
      <trkpt lat="49.85531" lon="2.32517">
        <ele>47.8</ele>
        <time>2024-01-12T13:33:00Z</time>
      </trkpt>
      <trkpt lat="49.8553" lon="2.32517">
        <ele>47.8</ele>
        <time>2024-01-12T13:33:01Z</time>
      </trkpt>
      <trkpt lat="49.85529" lon="2.32516">
        <ele>47.8</ele>
        <time>2024-01-12T13:33:02Z</time>
      </trkpt>
      <trkpt lat="49.85528" lon="2.32515">
        <ele>47.8</ele>
        <time>2024-01-12T13:33:03Z</time>
      </trkpt>
      <trkpt lat="49.85527" lon="2.32514">
        <ele>47.8</ele>
        <time>2024-01-12T13:33:04Z</time>
      </trkpt>
      <trkpt lat="49.85526" lon="2.32514">
        <ele>47.8</ele>
        <time>2024-01-12T13:33:05Z</time>
      </trkpt>
      <trkpt lat="49.85525" lon="2.32513">
        <ele>47.8</ele>
        <time>2024-01-12T13:33:06Z</time>
      </trkpt>
      <trkpt lat="49.85524" lon="2.32512">
        <ele>47.8</ele>
        <time>2024-01-12T13:33:07Z</time>
      </trkpt>
      <trkpt lat="49.85523" lon="2.32512">
        <ele>47.8</ele>
        <time>2024-01-12T13:33:08Z</time>
      </trkpt>
      <trkpt lat="49.85522" lon="2.32511">
        <ele>47.8</ele>
        <time>2024-01-12T13:33:09Z</time>
      </trkpt>
      <trkpt lat="49.85521" lon="2.3251">
        <ele>47.7</ele>
        <time>2024-01-12T13:33:10Z</time>
      </trkpt>
      <trkpt lat="49.8552" lon="2.3251">
        <ele>47.7</ele>
        <time>2024-01-12T13:33:11Z</time>
      </trkpt>
      <trkpt lat="49.85519" lon="2.32509">
        <ele>47.7</ele>
        <time>2024-01-12T13:33:12Z</time>
      </trkpt>
      <trkpt lat="49.85517" lon="2.32507">
        <ele>47.7</ele>
        <time>2024-01-12T13:33:13Z</time>
      </trkpt>
      <trkpt lat="49.85516" lon="2.32507">
        <ele>47.7</ele>
        <time>2024-01-12T13:33:14Z</time>
      </trkpt>
      <trkpt lat="49.85515" lon="2.32506">
        <ele>47.7</ele>
        <time>2024-01-12T13:33:15Z</time>
      </trkpt>
      <trkpt lat="49.85514" lon="2.32504">
        <ele>47.7</ele>
        <time>2024-01-12T13:33:16Z</time>
      </trkpt>
      <trkpt lat="49.85513" lon="2.32504">
        <ele>47.7</ele>
        <time>2024-01-12T13:33:17Z</time>
      </trkpt>
      <trkpt lat="49.85512" lon="2.32503">
        <ele>47.7</ele>
        <time>2024-01-12T13:33:18Z</time>
      </trkpt>
      <trkpt lat="49.85511" lon="2.32502">
        <ele>47.7</ele>
        <time>2024-01-12T13:33:19Z</time>
      </trkpt>
      <trkpt lat="49.8551" lon="2.32502">
        <ele>47.7</ele>
        <time>2024-01-12T13:33:20Z</time>
      </trkpt>
      <trkpt lat="49.85509" lon="2.32501">
        <ele>47.7</ele>
        <time>2024-01-12T13:33:21Z</time>
      </trkpt>
      <trkpt lat="49.85509" lon="2.325">
        <ele>47.7</ele>
        <time>2024-01-12T13:33:22Z</time>
      </trkpt>
      <trkpt lat="49.85508" lon="2.32499">
        <ele>47.7</ele>
        <time>2024-01-12T13:33:23Z</time>
      </trkpt>
      <trkpt lat="49.85507" lon="2.32498">
        <ele>47.6</ele>
        <time>2024-01-12T13:33:24Z</time>
      </trkpt>
      <trkpt lat="49.85506" lon="2.32497">
        <ele>47.6</ele>
        <time>2024-01-12T13:33:25Z</time>
      </trkpt>
      <trkpt lat="49.85505" lon="2.32497">
        <ele>47.6</ele>
        <time>2024-01-12T13:33:26Z</time>
      </trkpt>
      <trkpt lat="49.85504" lon="2.32496">
        <ele>47.6</ele>
        <time>2024-01-12T13:33:27Z</time>
      </trkpt>
      <trkpt lat="49.85503" lon="2.32495">
        <ele>47.6</ele>
        <time>2024-01-12T13:33:28Z</time>
      </trkpt>
      <trkpt lat="49.85501" lon="2.32494">
        <ele>47.6</ele>
        <time>2024-01-12T13:33:29Z</time>
      </trkpt>
      <trkpt lat="49.855" lon="2.32493">
        <ele>47.6</ele>
        <time>2024-01-12T13:33:30Z</time>
      </trkpt>
      <trkpt lat="49.85499" lon="2.32492">
        <ele>47.6</ele>
        <time>2024-01-12T13:33:31Z</time>
      </trkpt>
      <trkpt lat="49.85499" lon="2.32491">
        <ele>47.6</ele>
        <time>2024-01-12T13:33:32Z</time>
      </trkpt>
      <trkpt lat="49.85498" lon="2.32491">
        <ele>47.6</ele>
        <time>2024-01-12T13:33:33Z</time>
      </trkpt>
      <trkpt lat="49.85496" lon="2.32489">
        <ele>47.6</ele>
        <time>2024-01-12T13:33:34Z</time>
      </trkpt>
      <trkpt lat="49.85496" lon="2.32489">
        <ele>47.6</ele>
        <time>2024-01-12T13:33:35Z</time>
      </trkpt>
      <trkpt lat="49.85495" lon="2.32488">
        <ele>47.6</ele>
        <time>2024-01-12T13:33:36Z</time>
      </trkpt>
      <trkpt lat="49.85495" lon="2.32488">
        <ele>47.6</ele>
        <time>2024-01-12T13:33:37Z</time>
      </trkpt>
      <trkpt lat="49.85494" lon="2.32487">
        <ele>47.5</ele>
        <time>2024-01-12T13:33:38Z</time>
      </trkpt>
      <trkpt lat="49.85493" lon="2.32486">
        <ele>47.5</ele>
        <time>2024-01-12T13:33:39Z</time>
      </trkpt>
      <trkpt lat="49.85492" lon="2.32485">
        <ele>47.5</ele>
        <time>2024-01-12T13:33:40Z</time>
      </trkpt>
      <trkpt lat="49.85491" lon="2.32484">
        <ele>47.5</ele>
        <time>2024-01-12T13:33:41Z</time>
      </trkpt>
      <trkpt lat="49.8549" lon="2.32484">
        <ele>47.5</ele>
        <time>2024-01-12T13:33:42Z</time>
      </trkpt>
      <trkpt lat="49.85489" lon="2.32483">
        <ele>47.5</ele>
        <time>2024-01-12T13:33:43Z</time>
      </trkpt>
      <trkpt lat="49.85488" lon="2.32482">
        <ele>47.5</ele>
        <time>2024-01-12T13:33:44Z</time>
      </trkpt>
      <trkpt lat="49.85487" lon="2.32481">
        <ele>47.4</ele>
        <time>2024-01-12T13:33:45Z</time>
      </trkpt>
      <trkpt lat="49.85486" lon="2.3248">
        <ele>47.4</ele>
        <time>2024-01-12T13:33:46Z</time>
      </trkpt>
      <trkpt lat="49.85485" lon="2.32479">
        <ele>47.4</ele>
        <time>2024-01-12T13:33:47Z</time>
      </trkpt>
      <trkpt lat="49.85484" lon="2.32478">
        <ele>47.4</ele>
        <time>2024-01-12T13:33:48Z</time>
      </trkpt>
      <trkpt lat="49.85483" lon="2.32478">
        <ele>47.3</ele>
        <time>2024-01-12T13:33:49Z</time>
      </trkpt>
      <trkpt lat="49.85482" lon="2.32477">
        <ele>47.3</ele>
        <time>2024-01-12T13:33:50Z</time>
      </trkpt>
      <trkpt lat="49.85481" lon="2.32476">
        <ele>47.3</ele>
        <time>2024-01-12T13:33:51Z</time>
      </trkpt>
      <trkpt lat="49.8548" lon="2.32476">
        <ele>47.2</ele>
        <time>2024-01-12T13:33:52Z</time>
      </trkpt>
      <trkpt lat="49.85479" lon="2.32475">
        <ele>47.2</ele>
        <time>2024-01-12T13:33:53Z</time>
      </trkpt>
      <trkpt lat="49.85478" lon="2.32473">
        <ele>47.2</ele>
        <time>2024-01-12T13:33:54Z</time>
      </trkpt>
      <trkpt lat="49.85477" lon="2.32472">
        <ele>47.1</ele>
        <time>2024-01-12T13:33:55Z</time>
      </trkpt>
      <trkpt lat="49.85476" lon="2.32471">
        <ele>47.1</ele>
        <time>2024-01-12T13:33:56Z</time>
      </trkpt>
      <trkpt lat="49.85475" lon="2.3247">
        <ele>47.1</ele>
        <time>2024-01-12T13:33:57Z</time>
      </trkpt>
      <trkpt lat="49.85474" lon="2.32469">
        <ele>47</ele>
        <time>2024-01-12T13:33:58Z</time>
      </trkpt>
      <trkpt lat="49.85473" lon="2.32467">
        <ele>47</ele>
        <time>2024-01-12T13:33:59Z</time>
      </trkpt>
      <trkpt lat="49.85472" lon="2.32467">
        <ele>46.9</ele>
        <time>2024-01-12T13:34:00Z</time>
      </trkpt>
      <trkpt lat="49.85471" lon="2.32466">
        <ele>46.9</ele>
        <time>2024-01-12T13:34:01Z</time>
      </trkpt>
      <trkpt lat="49.8547" lon="2.32465">
        <ele>46.9</ele>
        <time>2024-01-12T13:34:02Z</time>
      </trkpt>
      <trkpt lat="49.85469" lon="2.32464">
        <ele>46.9</ele>
        <time>2024-01-12T13:34:03Z</time>
      </trkpt>
      <trkpt lat="49.85468" lon="2.32463">
        <ele>46.8</ele>
        <time>2024-01-12T13:34:04Z</time>
      </trkpt>
      <trkpt lat="49.85467" lon="2.32462">
        <ele>46.8</ele>
        <time>2024-01-12T13:34:05Z</time>
      </trkpt>
      <trkpt lat="49.85466" lon="2.32461">
        <ele>46.8</ele>
        <time>2024-01-12T13:34:06Z</time>
      </trkpt>
      <trkpt lat="49.85465" lon="2.3246">
        <ele>46.7</ele>
        <time>2024-01-12T13:34:07Z</time>
      </trkpt>
      <trkpt lat="49.85464" lon="2.32458">
        <ele>46.6</ele>
        <time>2024-01-12T13:34:08Z</time>
      </trkpt>
      <trkpt lat="49.85463" lon="2.32457">
        <ele>46.6</ele>
        <time>2024-01-12T13:34:09Z</time>
      </trkpt>
      <trkpt lat="49.85462" lon="2.32457">
        <ele>46.6</ele>
        <time>2024-01-12T13:34:10Z</time>
      </trkpt>
      <trkpt lat="49.85461" lon="2.32455">
        <ele>46.5</ele>
        <time>2024-01-12T13:34:11Z</time>
      </trkpt>
      <trkpt lat="49.8546" lon="2.32454">
        <ele>46.5</ele>
        <time>2024-01-12T13:34:12Z</time>
      </trkpt>
      <trkpt lat="49.85459" lon="2.32454">
        <ele>46.4</ele>
        <time>2024-01-12T13:34:13Z</time>
      </trkpt>
      <trkpt lat="49.85457" lon="2.32452">
        <ele>46.4</ele>
        <time>2024-01-12T13:34:14Z</time>
      </trkpt>
      <trkpt lat="49.85457" lon="2.32452">
        <ele>46.3</ele>
        <time>2024-01-12T13:34:15Z</time>
      </trkpt>
      <trkpt lat="49.85456" lon="2.32451">
        <ele>46.3</ele>
        <time>2024-01-12T13:34:16Z</time>
      </trkpt>
      <trkpt lat="49.85455" lon="2.3245">
        <ele>46.3</ele>
        <time>2024-01-12T13:34:17Z</time>
      </trkpt>
      <trkpt lat="49.85454" lon="2.32449">
        <ele>46.2</ele>
        <time>2024-01-12T13:34:18Z</time>
      </trkpt>
      <trkpt lat="49.85453" lon="2.32448">
        <ele>46.2</ele>
        <time>2024-01-12T13:34:19Z</time>
      </trkpt>
      <trkpt lat="49.85452" lon="2.32448">
        <ele>46.1</ele>
        <time>2024-01-12T13:34:20Z</time>
      </trkpt>
      <trkpt lat="49.85451" lon="2.32447">
        <ele>46.1</ele>
        <time>2024-01-12T13:34:21Z</time>
      </trkpt>
      <trkpt lat="49.8545" lon="2.32446">
        <ele>46.1</ele>
        <time>2024-01-12T13:34:22Z</time>
      </trkpt>
      <trkpt lat="49.85449" lon="2.32445">
        <ele>46</ele>
        <time>2024-01-12T13:34:23Z</time>
      </trkpt>
      <trkpt lat="49.85448" lon="2.32444">
        <ele>46</ele>
        <time>2024-01-12T13:34:24Z</time>
      </trkpt>
      <trkpt lat="49.85447" lon="2.32443">
        <ele>45.9</ele>
        <time>2024-01-12T13:34:25Z</time>
      </trkpt>
      <trkpt lat="49.85446" lon="2.32442">
        <ele>45.9</ele>
        <time>2024-01-12T13:34:26Z</time>
      </trkpt>
      <trkpt lat="49.85445" lon="2.32441">
        <ele>45.9</ele>
        <time>2024-01-12T13:34:27Z</time>
      </trkpt>
      <trkpt lat="49.85444" lon="2.3244">
        <ele>45.9</ele>
        <time>2024-01-12T13:34:28Z</time>
      </trkpt>
      <trkpt lat="49.85443" lon="2.32439">
        <ele>45.8</ele>
        <time>2024-01-12T13:34:29Z</time>
      </trkpt>
      <trkpt lat="49.85443" lon="2.32438">
        <ele>45.8</ele>
        <time>2024-01-12T13:34:30Z</time>
      </trkpt>
      <trkpt lat="49.85442" lon="2.32437">
        <ele>45.8</ele>
        <time>2024-01-12T13:34:31Z</time>
      </trkpt>
      <trkpt lat="49.85441" lon="2.32436">
        <ele>45.7</ele>
        <time>2024-01-12T13:34:32Z</time>
      </trkpt>
      <trkpt lat="49.8544" lon="2.32435">
        <ele>45.7</ele>
        <time>2024-01-12T13:34:33Z</time>
      </trkpt>
      <trkpt lat="49.85439" lon="2.32434">
        <ele>45.7</ele>
        <time>2024-01-12T13:34:34Z</time>
      </trkpt>
      <trkpt lat="49.85438" lon="2.32434">
        <ele>45.7</ele>
        <time>2024-01-12T13:34:35Z</time>
      </trkpt>
      <trkpt lat="49.85437" lon="2.32433">
        <ele>45.7</ele>
        <time>2024-01-12T13:34:36Z</time>
      </trkpt>
      <trkpt lat="49.85437" lon="2.32432">
        <ele>45.7</ele>
        <time>2024-01-12T13:34:37Z</time>
      </trkpt>
      <trkpt lat="49.85436" lon="2.32431">
        <ele>45.6</ele>
        <time>2024-01-12T13:34:38Z</time>
      </trkpt>
      <trkpt lat="49.85435" lon="2.3243">
        <ele>45.6</ele>
        <time>2024-01-12T13:34:39Z</time>
      </trkpt>
      <trkpt lat="49.85434" lon="2.32429">
        <ele>45.6</ele>
        <time>2024-01-12T13:34:40Z</time>
      </trkpt>
      <trkpt lat="49.85433" lon="2.32428">
        <ele>45.6</ele>
        <time>2024-01-12T13:34:41Z</time>
      </trkpt>
      <trkpt lat="49.85433" lon="2.32427">
        <ele>45.6</ele>
        <time>2024-01-12T13:34:42Z</time>
      </trkpt>
      <trkpt lat="49.85432" lon="2.32426">
        <ele>45.6</ele>
        <time>2024-01-12T13:34:43Z</time>
      </trkpt>
      <trkpt lat="49.85431" lon="2.32425">
        <ele>45.6</ele>
        <time>2024-01-12T13:34:44Z</time>
      </trkpt>
      <trkpt lat="49.8543" lon="2.32424">
        <ele>45.6</ele>
        <time>2024-01-12T13:34:45Z</time>
      </trkpt>
      <trkpt lat="49.85429" lon="2.32423">
        <ele>45.6</ele>
        <time>2024-01-12T13:34:46Z</time>
      </trkpt>
      <trkpt lat="49.85428" lon="2.32422">
        <ele>45.6</ele>
        <time>2024-01-12T13:34:47Z</time>
      </trkpt>
      <trkpt lat="49.85427" lon="2.32421">
        <ele>45.6</ele>
        <time>2024-01-12T13:34:48Z</time>
      </trkpt>
      <trkpt lat="49.85426" lon="2.3242">
        <ele>45.5</ele>
        <time>2024-01-12T13:34:49Z</time>
      </trkpt>
      <trkpt lat="49.85425" lon="2.32419">
        <ele>45.5</ele>
        <time>2024-01-12T13:34:50Z</time>
      </trkpt>
      <trkpt lat="49.85424" lon="2.32418">
        <ele>45.5</ele>
        <time>2024-01-12T13:34:51Z</time>
      </trkpt>
      <trkpt lat="49.85423" lon="2.32417">
        <ele>45.5</ele>
        <time>2024-01-12T13:34:52Z</time>
      </trkpt>
      <trkpt lat="49.85422" lon="2.32416">
        <ele>45.5</ele>
        <time>2024-01-12T13:34:53Z</time>
      </trkpt>
      <trkpt lat="49.85421" lon="2.32415">
        <ele>45.5</ele>
        <time>2024-01-12T13:34:54Z</time>
      </trkpt>
      <trkpt lat="49.85421" lon="2.32414">
        <ele>45.5</ele>
        <time>2024-01-12T13:34:55Z</time>
      </trkpt>
      <trkpt lat="49.8542" lon="2.32413">
        <ele>45.5</ele>
        <time>2024-01-12T13:34:56Z</time>
      </trkpt>
      <trkpt lat="49.85419" lon="2.32411">
        <ele>45.4</ele>
        <time>2024-01-12T13:34:57Z</time>
      </trkpt>
      <trkpt lat="49.85418" lon="2.3241">
        <ele>45.4</ele>
        <time>2024-01-12T13:34:58Z</time>
      </trkpt>
      <trkpt lat="49.85416" lon="2.32409">
        <ele>45.4</ele>
        <time>2024-01-12T13:34:59Z</time>
      </trkpt>
      <trkpt lat="49.85415" lon="2.32408">
        <ele>45.4</ele>
        <time>2024-01-12T13:35:00Z</time>
      </trkpt>
      <trkpt lat="49.85415" lon="2.32407">
        <ele>45.4</ele>
        <time>2024-01-12T13:35:01Z</time>
      </trkpt>
      <trkpt lat="49.85414" lon="2.32406">
        <ele>45.4</ele>
        <time>2024-01-12T13:35:02Z</time>
      </trkpt>
      <trkpt lat="49.85413" lon="2.32405">
        <ele>45.4</ele>
        <time>2024-01-12T13:35:03Z</time>
      </trkpt>
      <trkpt lat="49.85412" lon="2.32404">
        <ele>45.4</ele>
        <time>2024-01-12T13:35:04Z</time>
      </trkpt>
      <trkpt lat="49.8541" lon="2.32402">
        <ele>45.3</ele>
        <time>2024-01-12T13:35:05Z</time>
      </trkpt>
      <trkpt lat="49.85409" lon="2.32401">
        <ele>45.3</ele>
        <time>2024-01-12T13:35:06Z</time>
      </trkpt>
      <trkpt lat="49.85408" lon="2.32401">
        <ele>45.3</ele>
        <time>2024-01-12T13:35:07Z</time>
      </trkpt>
      <trkpt lat="49.85407" lon="2.324">
        <ele>45.3</ele>
        <time>2024-01-12T13:35:08Z</time>
      </trkpt>
      <trkpt lat="49.85405" lon="2.32399">
        <ele>45.3</ele>
        <time>2024-01-12T13:35:09Z</time>
      </trkpt>
      <trkpt lat="49.85404" lon="2.32398">
        <ele>45.2</ele>
        <time>2024-01-12T13:35:10Z</time>
      </trkpt>
      <trkpt lat="49.85402" lon="2.32397">
        <ele>45.2</ele>
        <time>2024-01-12T13:35:11Z</time>
      </trkpt>
      <trkpt lat="49.85399" lon="2.32395">
        <ele>45.2</ele>
        <time>2024-01-12T13:35:12Z</time>
      </trkpt>
      <trkpt lat="49.85398" lon="2.32394">
        <ele>45.2</ele>
        <time>2024-01-12T13:35:13Z</time>
      </trkpt>
      <trkpt lat="49.85395" lon="2.32393">
        <ele>45.1</ele>
        <time>2024-01-12T13:35:14Z</time>
      </trkpt>
      <trkpt lat="49.85394" lon="2.32392">
        <ele>45.1</ele>
        <time>2024-01-12T13:35:15Z</time>
      </trkpt>
      <trkpt lat="49.85393" lon="2.32391">
        <ele>45</ele>
        <time>2024-01-12T13:35:16Z</time>
      </trkpt>
      <trkpt lat="49.85391" lon="2.3239">
        <ele>45</ele>
        <time>2024-01-12T13:35:17Z</time>
      </trkpt>
      <trkpt lat="49.85389" lon="2.32388">
        <ele>45</ele>
        <time>2024-01-12T13:35:18Z</time>
      </trkpt>
      <trkpt lat="49.85389" lon="2.32387">
        <ele>44.9</ele>
        <time>2024-01-12T13:35:19Z</time>
      </trkpt>
      <trkpt lat="49.85388" lon="2.32387">
        <ele>44.9</ele>
        <time>2024-01-12T13:35:20Z</time>
      </trkpt>
      <trkpt lat="49.85387" lon="2.32386">
        <ele>44.9</ele>
        <time>2024-01-12T13:35:21Z</time>
      </trkpt>
      <trkpt lat="49.85387" lon="2.32385">
        <ele>44.9</ele>
        <time>2024-01-12T13:35:22Z</time>
      </trkpt>
      <trkpt lat="49.85387" lon="2.32385">
        <ele>44.9</ele>
        <time>2024-01-12T13:35:23Z</time>
      </trkpt>
      <trkpt lat="49.85386" lon="2.32384">
        <ele>44.9</ele>
        <time>2024-01-12T13:35:24Z</time>
      </trkpt>
      <trkpt lat="49.85386" lon="2.32383">
        <ele>44.8</ele>
        <time>2024-01-12T13:35:25Z</time>
      </trkpt>
      <trkpt lat="49.85386" lon="2.32383">
        <ele>44.8</ele>
        <time>2024-01-12T13:35:26Z</time>
      </trkpt>
      <trkpt lat="49.85385" lon="2.32382">
        <ele>44.8</ele>
        <time>2024-01-12T13:35:27Z</time>
      </trkpt>
      <trkpt lat="49.85386" lon="2.32382">
        <ele>44.8</ele>
        <time>2024-01-12T13:35:28Z</time>
      </trkpt>
      <trkpt lat="49.85386" lon="2.32382">
        <ele>44.8</ele>
        <time>2024-01-12T13:35:29Z</time>
      </trkpt>
      <trkpt lat="49.85386" lon="2.32381">
        <ele>44.8</ele>
        <time>2024-01-12T13:35:30Z</time>
      </trkpt>
      <trkpt lat="49.85386" lon="2.32381">
        <ele>44.8</ele>
        <time>2024-01-12T13:35:31Z</time>
      </trkpt>
      <trkpt lat="49.85386" lon="2.32381">
        <ele>44.8</ele>
        <time>2024-01-12T13:35:32Z</time>
      </trkpt>
      <trkpt lat="49.85386" lon="2.32381">
        <ele>44.8</ele>
        <time>2024-01-12T13:35:33Z</time>
      </trkpt>
      <trkpt lat="49.85386" lon="2.32381">
        <ele>44.8</ele>
        <time>2024-01-12T13:35:34Z</time>
      </trkpt>
      <trkpt lat="49.85387" lon="2.32381">
        <ele>44.8</ele>
        <time>2024-01-12T13:35:35Z</time>
      </trkpt>
      <trkpt lat="49.85387" lon="2.32381">
        <ele>44.8</ele>
        <time>2024-01-12T13:35:36Z</time>
      </trkpt>
      <trkpt lat="49.85387" lon="2.32381">
        <ele>44.8</ele>
        <time>2024-01-12T13:35:37Z</time>
      </trkpt>
      <trkpt lat="49.85387" lon="2.32381">
        <ele>44.7</ele>
        <time>2024-01-12T13:35:38Z</time>
      </trkpt>
      <trkpt lat="49.85387" lon="2.32381">
        <ele>44.7</ele>
        <time>2024-01-12T13:35:39Z</time>
      </trkpt>
      <trkpt lat="49.85387" lon="2.32381">
        <ele>44.7</ele>
        <time>2024-01-12T13:35:40Z</time>
      </trkpt>
      <trkpt lat="49.85387" lon="2.3238">
        <ele>44.7</ele>
        <time>2024-01-12T13:35:41Z</time>
      </trkpt>
      <trkpt lat="49.85387" lon="2.3238">
        <ele>44.7</ele>
        <time>2024-01-12T13:35:42Z</time>
      </trkpt>
      <trkpt lat="49.85387" lon="2.3238">
        <ele>44.7</ele>
        <time>2024-01-12T13:35:43Z</time>
      </trkpt>
      <trkpt lat="49.85387" lon="2.32379">
        <ele>44.7</ele>
        <time>2024-01-12T13:35:44Z</time>
      </trkpt>
      <trkpt lat="49.85387" lon="2.32379">
        <ele>44.7</ele>
        <time>2024-01-12T13:35:45Z</time>
      </trkpt>
      <trkpt lat="49.85387" lon="2.32378">
        <ele>44.7</ele>
        <time>2024-01-12T13:35:46Z</time>
      </trkpt>
      <trkpt lat="49.85386" lon="2.32377">
        <ele>44.7</ele>
        <time>2024-01-12T13:35:47Z</time>
      </trkpt>
      <trkpt lat="49.85386" lon="2.32376">
        <ele>44.7</ele>
        <time>2024-01-12T13:35:48Z</time>
      </trkpt>
      <trkpt lat="49.85386" lon="2.32375">
        <ele>44.6</ele>
        <time>2024-01-12T13:35:49Z</time>
      </trkpt>
      <trkpt lat="49.85386" lon="2.32374">
        <ele>44.6</ele>
        <time>2024-01-12T13:35:50Z</time>
      </trkpt>
      <trkpt lat="49.85386" lon="2.32373">
        <ele>44.6</ele>
        <time>2024-01-12T13:35:51Z</time>
      </trkpt>
      <trkpt lat="49.85386" lon="2.32372">
        <ele>44.6</ele>
        <time>2024-01-12T13:35:52Z</time>
      </trkpt>
      <trkpt lat="49.85386" lon="2.3237">
        <ele>44.5</ele>
        <time>2024-01-12T13:35:53Z</time>
      </trkpt>
      <trkpt lat="49.85385" lon="2.32369">
        <ele>44.5</ele>
        <time>2024-01-12T13:35:54Z</time>
      </trkpt>
      <trkpt lat="49.85385" lon="2.32367">
        <ele>44.5</ele>
        <time>2024-01-12T13:35:55Z</time>
      </trkpt>
      <trkpt lat="49.85385" lon="2.32366">
        <ele>44.5</ele>
        <time>2024-01-12T13:35:56Z</time>
      </trkpt>
      <trkpt lat="49.85385" lon="2.32365">
        <ele>44.4</ele>
        <time>2024-01-12T13:35:57Z</time>
      </trkpt>
      <trkpt lat="49.85384" lon="2.32364">
        <ele>44.4</ele>
        <time>2024-01-12T13:35:58Z</time>
      </trkpt>
      <trkpt lat="49.85384" lon="2.32363">
        <ele>44.4</ele>
        <time>2024-01-12T13:35:59Z</time>
      </trkpt>
      <trkpt lat="49.85383" lon="2.32361">
        <ele>44.3</ele>
        <time>2024-01-12T13:36:00Z</time>
      </trkpt>
      <trkpt lat="49.85383" lon="2.3236">
        <ele>44.3</ele>
        <time>2024-01-12T13:36:01Z</time>
      </trkpt>
      <trkpt lat="49.85382" lon="2.32358">
        <ele>44.2</ele>
        <time>2024-01-12T13:36:02Z</time>
      </trkpt>
      <trkpt lat="49.85381" lon="2.32357">
        <ele>44.2</ele>
        <time>2024-01-12T13:36:03Z</time>
      </trkpt>
      <trkpt lat="49.85381" lon="2.32356">
        <ele>44.1</ele>
        <time>2024-01-12T13:36:04Z</time>
      </trkpt>
      <trkpt lat="49.8538" lon="2.32354">
        <ele>44.1</ele>
        <time>2024-01-12T13:36:05Z</time>
      </trkpt>
      <trkpt lat="49.8538" lon="2.32353">
        <ele>44.1</ele>
        <time>2024-01-12T13:36:06Z</time>
      </trkpt>
      <trkpt lat="49.85379" lon="2.32352">
        <ele>44</ele>
        <time>2024-01-12T13:36:07Z</time>
      </trkpt>
      <trkpt lat="49.85379" lon="2.32351">
        <ele>44</ele>
        <time>2024-01-12T13:36:08Z</time>
      </trkpt>
      <trkpt lat="49.85378" lon="2.3235">
        <ele>43.9</ele>
        <time>2024-01-12T13:36:09Z</time>
      </trkpt>
      <trkpt lat="49.85378" lon="2.32348">
        <ele>43.9</ele>
        <time>2024-01-12T13:36:10Z</time>
      </trkpt>
      <trkpt lat="49.85377" lon="2.32347">
        <ele>43.9</ele>
        <time>2024-01-12T13:36:11Z</time>
      </trkpt>
      <trkpt lat="49.85377" lon="2.32346">
        <ele>43.8</ele>
        <time>2024-01-12T13:36:12Z</time>
      </trkpt>
      <trkpt lat="49.85377" lon="2.32345">
        <ele>43.8</ele>
        <time>2024-01-12T13:36:13Z</time>
      </trkpt>
      <trkpt lat="49.85376" lon="2.32344">
        <ele>43.8</ele>
        <time>2024-01-12T13:36:14Z</time>
      </trkpt>
      <trkpt lat="49.85376" lon="2.32342">
        <ele>43.7</ele>
        <time>2024-01-12T13:36:15Z</time>
      </trkpt>
      <trkpt lat="49.85375" lon="2.32341">
        <ele>43.7</ele>
        <time>2024-01-12T13:36:16Z</time>
      </trkpt>
      <trkpt lat="49.85375" lon="2.32339">
        <ele>43.6</ele>
        <time>2024-01-12T13:36:17Z</time>
      </trkpt>
      <trkpt lat="49.85374" lon="2.32338">
        <ele>43.6</ele>
        <time>2024-01-12T13:36:18Z</time>
      </trkpt>
      <trkpt lat="49.85374" lon="2.32336">
        <ele>43.6</ele>
        <time>2024-01-12T13:36:19Z</time>
      </trkpt>
      <trkpt lat="49.85373" lon="2.32335">
        <ele>43.5</ele>
        <time>2024-01-12T13:36:20Z</time>
      </trkpt>
      <trkpt lat="49.85373" lon="2.32334">
        <ele>43.5</ele>
        <time>2024-01-12T13:36:21Z</time>
      </trkpt>
      <trkpt lat="49.85372" lon="2.32332">
        <ele>43.5</ele>
        <time>2024-01-12T13:36:22Z</time>
      </trkpt>
      <trkpt lat="49.85372" lon="2.32331">
        <ele>43.4</ele>
        <time>2024-01-12T13:36:23Z</time>
      </trkpt>
      <trkpt lat="49.85371" lon="2.3233">
        <ele>43.4</ele>
        <time>2024-01-12T13:36:24Z</time>
      </trkpt>
      <trkpt lat="49.8537" lon="2.32328">
        <ele>43.4</ele>
        <time>2024-01-12T13:36:25Z</time>
      </trkpt>
      <trkpt lat="49.8537" lon="2.32327">
        <ele>43.3</ele>
        <time>2024-01-12T13:36:26Z</time>
      </trkpt>
      <trkpt lat="49.85369" lon="2.32326">
        <ele>43.3</ele>
        <time>2024-01-12T13:36:27Z</time>
      </trkpt>
      <trkpt lat="49.85368" lon="2.32324">
        <ele>43.3</ele>
        <time>2024-01-12T13:36:28Z</time>
      </trkpt>
      <trkpt lat="49.85368" lon="2.32323">
        <ele>43.3</ele>
        <time>2024-01-12T13:36:29Z</time>
      </trkpt>
      <trkpt lat="49.85367" lon="2.32321">
        <ele>43.2</ele>
        <time>2024-01-12T13:36:30Z</time>
      </trkpt>
      <trkpt lat="49.85366" lon="2.3232">
        <ele>43.2</ele>
        <time>2024-01-12T13:36:31Z</time>
      </trkpt>
      <trkpt lat="49.85366" lon="2.32319">
        <ele>43.2</ele>
        <time>2024-01-12T13:36:32Z</time>
      </trkpt>
      <trkpt lat="49.85365" lon="2.32318">
        <ele>43.1</ele>
        <time>2024-01-12T13:36:33Z</time>
      </trkpt>
      <trkpt lat="49.85365" lon="2.32316">
        <ele>43.1</ele>
        <time>2024-01-12T13:36:34Z</time>
      </trkpt>
      <trkpt lat="49.85364" lon="2.32315">
        <ele>43.1</ele>
        <time>2024-01-12T13:36:35Z</time>
      </trkpt>
      <trkpt lat="49.85363" lon="2.32314">
        <ele>43.1</ele>
        <time>2024-01-12T13:36:36Z</time>
      </trkpt>
      <trkpt lat="49.85362" lon="2.32313">
        <ele>43</ele>
        <time>2024-01-12T13:36:37Z</time>
      </trkpt>
      <trkpt lat="49.85361" lon="2.32312">
        <ele>43</ele>
        <time>2024-01-12T13:36:38Z</time>
      </trkpt>
      <trkpt lat="49.85361" lon="2.32311">
        <ele>43</ele>
        <time>2024-01-12T13:36:39Z</time>
      </trkpt>
      <trkpt lat="49.8536" lon="2.3231">
        <ele>42.9</ele>
        <time>2024-01-12T13:36:40Z</time>
      </trkpt>
      <trkpt lat="49.85359" lon="2.32309">
        <ele>42.9</ele>
        <time>2024-01-12T13:36:41Z</time>
      </trkpt>
      <trkpt lat="49.85359" lon="2.32308">
        <ele>42.9</ele>
        <time>2024-01-12T13:36:42Z</time>
      </trkpt>
      <trkpt lat="49.85358" lon="2.32307">
        <ele>42.9</ele>
        <time>2024-01-12T13:36:43Z</time>
      </trkpt>
      <trkpt lat="49.85358" lon="2.32306">
        <ele>42.8</ele>
        <time>2024-01-12T13:36:44Z</time>
      </trkpt>
      <trkpt lat="49.85357" lon="2.32304">
        <ele>42.8</ele>
        <time>2024-01-12T13:36:45Z</time>
      </trkpt>
      <trkpt lat="49.85356" lon="2.32303">
        <ele>42.8</ele>
        <time>2024-01-12T13:36:46Z</time>
      </trkpt>
      <trkpt lat="49.85356" lon="2.32302">
        <ele>42.7</ele>
        <time>2024-01-12T13:36:47Z</time>
      </trkpt>
      <trkpt lat="49.85355" lon="2.32301">
        <ele>42.7</ele>
        <time>2024-01-12T13:36:48Z</time>
      </trkpt>
      <trkpt lat="49.85354" lon="2.323">
        <ele>42.7</ele>
        <time>2024-01-12T13:36:49Z</time>
      </trkpt>
      <trkpt lat="49.85354" lon="2.32299">
        <ele>42.7</ele>
        <time>2024-01-12T13:36:50Z</time>
      </trkpt>
      <trkpt lat="49.85353" lon="2.32298">
        <ele>42.6</ele>
        <time>2024-01-12T13:36:51Z</time>
      </trkpt>
      <trkpt lat="49.85353" lon="2.32297">
        <ele>42.6</ele>
        <time>2024-01-12T13:36:52Z</time>
      </trkpt>
      <trkpt lat="49.85353" lon="2.32296">
        <ele>42.6</ele>
        <time>2024-01-12T13:36:53Z</time>
      </trkpt>
      <trkpt lat="49.85352" lon="2.32294">
        <ele>42.6</ele>
        <time>2024-01-12T13:36:54Z</time>
      </trkpt>
      <trkpt lat="49.85352" lon="2.32293">
        <ele>42.6</ele>
        <time>2024-01-12T13:36:55Z</time>
      </trkpt>
      <trkpt lat="49.85352" lon="2.32292">
        <ele>42.5</ele>
        <time>2024-01-12T13:36:56Z</time>
      </trkpt>
      <trkpt lat="49.85352" lon="2.3229">
        <ele>42.5</ele>
        <time>2024-01-12T13:36:57Z</time>
      </trkpt>
      <trkpt lat="49.85352" lon="2.32289">
        <ele>42.5</ele>
        <time>2024-01-12T13:36:58Z</time>
      </trkpt>
      <trkpt lat="49.85351" lon="2.32287">
        <ele>42.5</ele>
        <time>2024-01-12T13:36:59Z</time>
      </trkpt>
      <trkpt lat="49.85351" lon="2.32286">
        <ele>42.4</ele>
        <time>2024-01-12T13:37:00Z</time>
      </trkpt>
      <trkpt lat="49.85351" lon="2.32284">
        <ele>42.4</ele>
        <time>2024-01-12T13:37:01Z</time>
      </trkpt>
      <trkpt lat="49.85351" lon="2.32283">
        <ele>42.4</ele>
        <time>2024-01-12T13:37:02Z</time>
      </trkpt>
      <trkpt lat="49.85351" lon="2.32281">
        <ele>42.4</ele>
        <time>2024-01-12T13:37:03Z</time>
      </trkpt>
      <trkpt lat="49.85351" lon="2.3228">
        <ele>42.4</ele>
        <time>2024-01-12T13:37:04Z</time>
      </trkpt>
      <trkpt lat="49.85351" lon="2.32278">
        <ele>42.3</ele>
        <time>2024-01-12T13:37:05Z</time>
      </trkpt>
      <trkpt lat="49.85351" lon="2.32276">
        <ele>42.3</ele>
        <time>2024-01-12T13:37:06Z</time>
      </trkpt>
      <trkpt lat="49.85351" lon="2.32275">
        <ele>42.3</ele>
        <time>2024-01-12T13:37:07Z</time>
      </trkpt>
      <trkpt lat="49.85351" lon="2.32273">
        <ele>42.3</ele>
        <time>2024-01-12T13:37:08Z</time>
      </trkpt>
      <trkpt lat="49.85352" lon="2.32271">
        <ele>42.2</ele>
        <time>2024-01-12T13:37:09Z</time>
      </trkpt>
      <trkpt lat="49.85352" lon="2.3227">
        <ele>42.2</ele>
        <time>2024-01-12T13:37:10Z</time>
      </trkpt>
      <trkpt lat="49.85352" lon="2.32268">
        <ele>42.2</ele>
        <time>2024-01-12T13:37:11Z</time>
      </trkpt>
      <trkpt lat="49.85352" lon="2.32267">
        <ele>42.2</ele>
        <time>2024-01-12T13:37:12Z</time>
      </trkpt>
      <trkpt lat="49.85352" lon="2.32265">
        <ele>42.2</ele>
        <time>2024-01-12T13:37:13Z</time>
      </trkpt>
      <trkpt lat="49.85352" lon="2.32264">
        <ele>42.2</ele>
        <time>2024-01-12T13:37:14Z</time>
      </trkpt>
      <trkpt lat="49.85353" lon="2.32262">
        <ele>42.1</ele>
        <time>2024-01-12T13:37:15Z</time>
      </trkpt>
      <trkpt lat="49.85353" lon="2.32261">
        <ele>42.1</ele>
        <time>2024-01-12T13:37:16Z</time>
      </trkpt>
      <trkpt lat="49.85354" lon="2.3226">
        <ele>42.1</ele>
        <time>2024-01-12T13:37:17Z</time>
      </trkpt>
      <trkpt lat="49.85354" lon="2.32259">
        <ele>42.1</ele>
        <time>2024-01-12T13:37:18Z</time>
      </trkpt>
      <trkpt lat="49.85354" lon="2.32257">
        <ele>42.1</ele>
        <time>2024-01-12T13:37:19Z</time>
      </trkpt>
      <trkpt lat="49.85354" lon="2.32256">
        <ele>42</ele>
        <time>2024-01-12T13:37:20Z</time>
      </trkpt>
      <trkpt lat="49.85354" lon="2.32255">
        <ele>42</ele>
        <time>2024-01-12T13:37:21Z</time>
      </trkpt>
      <trkpt lat="49.85354" lon="2.32253">
        <ele>42</ele>
        <time>2024-01-12T13:37:22Z</time>
      </trkpt>
      <trkpt lat="49.85354" lon="2.32252">
        <ele>42</ele>
        <time>2024-01-12T13:37:23Z</time>
      </trkpt>
      <trkpt lat="49.85354" lon="2.32251">
        <ele>42</ele>
        <time>2024-01-12T13:37:24Z</time>
      </trkpt>
      <trkpt lat="49.85353" lon="2.3225">
        <ele>42</ele>
        <time>2024-01-12T13:37:25Z</time>
      </trkpt>
      <trkpt lat="49.85353" lon="2.32249">
        <ele>42</ele>
        <time>2024-01-12T13:37:26Z</time>
      </trkpt>
      <trkpt lat="49.85353" lon="2.32248">
        <ele>41.9</ele>
        <time>2024-01-12T13:37:27Z</time>
      </trkpt>
      <trkpt lat="49.85352" lon="2.32248">
        <ele>41.9</ele>
        <time>2024-01-12T13:37:28Z</time>
      </trkpt>
      <trkpt lat="49.85352" lon="2.32247">
        <ele>41.9</ele>
        <time>2024-01-12T13:37:29Z</time>
      </trkpt>
      <trkpt lat="49.85352" lon="2.32247">
        <ele>41.9</ele>
        <time>2024-01-12T13:37:30Z</time>
      </trkpt>
      <trkpt lat="49.85352" lon="2.32246">
        <ele>41.9</ele>
        <time>2024-01-12T13:37:31Z</time>
      </trkpt>
      <trkpt lat="49.85352" lon="2.32246">
        <ele>41.9</ele>
        <time>2024-01-12T13:37:32Z</time>
      </trkpt>
      <trkpt lat="49.85352" lon="2.32247">
        <ele>41.9</ele>
        <time>2024-01-12T13:37:33Z</time>
      </trkpt>
      <trkpt lat="49.85352" lon="2.32247">
        <ele>41.9</ele>
        <time>2024-01-12T13:37:34Z</time>
      </trkpt>
      <trkpt lat="49.85352" lon="2.32247">
        <ele>41.9</ele>
        <time>2024-01-12T13:37:35Z</time>
      </trkpt>
      <trkpt lat="49.85352" lon="2.32248">
        <ele>41.9</ele>
        <time>2024-01-12T13:37:36Z</time>
      </trkpt>
      <trkpt lat="49.85352" lon="2.32248">
        <ele>41.9</ele>
        <time>2024-01-12T13:37:37Z</time>
      </trkpt>
      <trkpt lat="49.85352" lon="2.32248">
        <ele>41.9</ele>
        <time>2024-01-12T13:37:38Z</time>
      </trkpt>
      <trkpt lat="49.85352" lon="2.32248">
        <ele>41.9</ele>
        <time>2024-01-12T13:37:39Z</time>
      </trkpt>
      <trkpt lat="49.85352" lon="2.32248">
        <ele>41.9</ele>
        <time>2024-01-12T13:37:40Z</time>
      </trkpt>
      <trkpt lat="49.85352" lon="2.32248">
        <ele>41.9</ele>
        <time>2024-01-12T13:37:41Z</time>
      </trkpt>
      <trkpt lat="49.85352" lon="2.32248">
        <ele>41.9</ele>
        <time>2024-01-12T13:37:42Z</time>
      </trkpt>
      <trkpt lat="49.85352" lon="2.32248">
        <ele>41.9</ele>
        <time>2024-01-12T13:37:43Z</time>
      </trkpt>
      <trkpt lat="49.85351" lon="2.3225">
        <ele>41.8</ele>
        <time>2024-01-12T13:37:55Z</time>
      </trkpt>
      <trkpt lat="49.8535" lon="2.32251">
        <ele>41.8</ele>
        <time>2024-01-12T13:37:56Z</time>
      </trkpt>
      <trkpt lat="49.85349" lon="2.32251">
        <ele>41.8</ele>
        <time>2024-01-12T13:37:57Z</time>
      </trkpt>
      <trkpt lat="49.85348" lon="2.32252">
        <ele>41.8</ele>
        <time>2024-01-12T13:37:58Z</time>
      </trkpt>
      <trkpt lat="49.85347" lon="2.32252">
        <ele>41.7</ele>
        <time>2024-01-12T13:37:59Z</time>
      </trkpt>
      <trkpt lat="49.85346" lon="2.32253">
        <ele>41.7</ele>
        <time>2024-01-12T13:38:00Z</time>
      </trkpt>
      <trkpt lat="49.85345" lon="2.32253">
        <ele>41.7</ele>
        <time>2024-01-12T13:38:01Z</time>
      </trkpt>
      <trkpt lat="49.85345" lon="2.32253">
        <ele>41.7</ele>
        <time>2024-01-12T13:38:02Z</time>
      </trkpt>
      <trkpt lat="49.85344" lon="2.32253">
        <ele>41.7</ele>
        <time>2024-01-12T13:38:03Z</time>
      </trkpt>
      <trkpt lat="49.85344" lon="2.32253">
        <ele>41.7</ele>
        <time>2024-01-12T13:38:04Z</time>
      </trkpt>
      <trkpt lat="49.85343" lon="2.32252">
        <ele>41.7</ele>
        <time>2024-01-12T13:38:05Z</time>
      </trkpt>
      <trkpt lat="49.85343" lon="2.32252">
        <ele>41.7</ele>
        <time>2024-01-12T13:38:06Z</time>
      </trkpt>
      <trkpt lat="49.85343" lon="2.32253">
        <ele>41.7</ele>
        <time>2024-01-12T13:38:07Z</time>
      </trkpt>
      <trkpt lat="49.85342" lon="2.32253">
        <ele>41.7</ele>
        <time>2024-01-12T13:38:08Z</time>
      </trkpt>
      <trkpt lat="49.85342" lon="2.32252">
        <ele>41.7</ele>
        <time>2024-01-12T13:38:09Z</time>
      </trkpt>
      <trkpt lat="49.85341" lon="2.32251">
        <ele>41.6</ele>
        <time>2024-01-12T13:38:10Z</time>
      </trkpt>
      <trkpt lat="49.85341" lon="2.32251">
        <ele>41.6</ele>
        <time>2024-01-12T13:38:11Z</time>
      </trkpt>
      <trkpt lat="49.8534" lon="2.32251">
        <ele>41.6</ele>
        <time>2024-01-12T13:38:12Z</time>
      </trkpt>
      <trkpt lat="49.8534" lon="2.32251">
        <ele>41.6</ele>
        <time>2024-01-12T13:38:13Z</time>
      </trkpt>
      <trkpt lat="49.8534" lon="2.32251">
        <ele>41.6</ele>
        <time>2024-01-12T13:38:14Z</time>
      </trkpt>
      <trkpt lat="49.8534" lon="2.32251">
        <ele>41.6</ele>
        <time>2024-01-12T13:38:15Z</time>
      </trkpt>
      <trkpt lat="49.85339" lon="2.32251">
        <ele>41.6</ele>
        <time>2024-01-12T13:38:16Z</time>
      </trkpt>
      <trkpt lat="49.85339" lon="2.32251">
        <ele>41.6</ele>
        <time>2024-01-12T13:38:17Z</time>
      </trkpt>
      <trkpt lat="49.85338" lon="2.32251">
        <ele>41.6</ele>
        <time>2024-01-12T13:38:18Z</time>
      </trkpt>
      <trkpt lat="49.85338" lon="2.32251">
        <ele>41.6</ele>
        <time>2024-01-12T13:38:19Z</time>
      </trkpt>
      <trkpt lat="49.85337" lon="2.32251">
        <ele>41.6</ele>
        <time>2024-01-12T13:38:20Z</time>
      </trkpt>
      <trkpt lat="49.85337" lon="2.32251">
        <ele>41.6</ele>
        <time>2024-01-12T13:38:21Z</time>
      </trkpt>
      <trkpt lat="49.85336" lon="2.32251">
        <ele>41.6</ele>
        <time>2024-01-12T13:38:22Z</time>
      </trkpt>
      <trkpt lat="49.85335" lon="2.32251">
        <ele>41.6</ele>
        <time>2024-01-12T13:38:23Z</time>
      </trkpt>
      <trkpt lat="49.85335" lon="2.32251">
        <ele>41.6</ele>
        <time>2024-01-12T13:38:24Z</time>
      </trkpt>
      <trkpt lat="49.85334" lon="2.32252">
        <ele>41.6</ele>
        <time>2024-01-12T13:38:25Z</time>
      </trkpt>
      <trkpt lat="49.85333" lon="2.32252">
        <ele>41.6</ele>
        <time>2024-01-12T13:38:26Z</time>
      </trkpt>
      <trkpt lat="49.85333" lon="2.32252">
        <ele>41.6</ele>
        <time>2024-01-12T13:38:27Z</time>
      </trkpt>
      <trkpt lat="49.85332" lon="2.32252">
        <ele>41.6</ele>
        <time>2024-01-12T13:38:28Z</time>
      </trkpt>
      <trkpt lat="49.85332" lon="2.32252">
        <ele>41.6</ele>
        <time>2024-01-12T13:38:29Z</time>
      </trkpt>
      <trkpt lat="49.85331" lon="2.32253">
        <ele>41.6</ele>
        <time>2024-01-12T13:38:30Z</time>
      </trkpt>
      <trkpt lat="49.85331" lon="2.32253">
        <ele>41.6</ele>
        <time>2024-01-12T13:38:31Z</time>
      </trkpt>
      <trkpt lat="49.85331" lon="2.32253">
        <ele>41.6</ele>
        <time>2024-01-12T13:38:32Z</time>
      </trkpt>
      <trkpt lat="49.8533" lon="2.32253">
        <ele>41.6</ele>
        <time>2024-01-12T13:38:33Z</time>
      </trkpt>
      <trkpt lat="49.8533" lon="2.32253">
        <ele>41.6</ele>
        <time>2024-01-12T13:38:34Z</time>
      </trkpt>
      <trkpt lat="49.8533" lon="2.32253">
        <ele>41.6</ele>
        <time>2024-01-12T13:38:35Z</time>
      </trkpt>
      <trkpt lat="49.8533" lon="2.32253">
        <ele>41.6</ele>
        <time>2024-01-12T13:38:36Z</time>
      </trkpt>
      <trkpt lat="49.85329" lon="2.32253">
        <ele>41.6</ele>
        <time>2024-01-12T13:38:37Z</time>
      </trkpt>
      <trkpt lat="49.85329" lon="2.32253">
        <ele>41.6</ele>
        <time>2024-01-12T13:38:38Z</time>
      </trkpt>
      <trkpt lat="49.85328" lon="2.32252">
        <ele>41.6</ele>
        <time>2024-01-12T13:38:39Z</time>
      </trkpt>
      <trkpt lat="49.85328" lon="2.32252">
        <ele>41.6</ele>
        <time>2024-01-12T13:38:40Z</time>
      </trkpt>
      <trkpt lat="49.85328" lon="2.32251">
        <ele>41.6</ele>
        <time>2024-01-12T13:38:41Z</time>
      </trkpt>
      <trkpt lat="49.85328" lon="2.32251">
        <ele>41.6</ele>
        <time>2024-01-12T13:38:42Z</time>
      </trkpt>
      <trkpt lat="49.85328" lon="2.32251">
        <ele>41.6</ele>
        <time>2024-01-12T13:38:43Z</time>
      </trkpt>
      <trkpt lat="49.85327" lon="2.3225">
        <ele>41.6</ele>
        <time>2024-01-12T13:38:44Z</time>
      </trkpt>
      <trkpt lat="49.85326" lon="2.3225">
        <ele>41.6</ele>
        <time>2024-01-12T13:38:45Z</time>
      </trkpt>
      <trkpt lat="49.85326" lon="2.3225">
        <ele>41.6</ele>
        <time>2024-01-12T13:38:46Z</time>
      </trkpt>
      <trkpt lat="49.85325" lon="2.3225">
        <ele>41.6</ele>
        <time>2024-01-12T13:38:47Z</time>
      </trkpt>
      <trkpt lat="49.85325" lon="2.32251">
        <ele>41.6</ele>
        <time>2024-01-12T13:38:48Z</time>
      </trkpt>
      <trkpt lat="49.85324" lon="2.32251">
        <ele>41.6</ele>
        <time>2024-01-12T13:38:49Z</time>
      </trkpt>
      <trkpt lat="49.85323" lon="2.32251">
        <ele>41.6</ele>
        <time>2024-01-12T13:38:50Z</time>
      </trkpt>
      <trkpt lat="49.85322" lon="2.32251">
        <ele>41.7</ele>
        <time>2024-01-12T13:38:51Z</time>
      </trkpt>
      <trkpt lat="49.85322" lon="2.32251">
        <ele>41.7</ele>
        <time>2024-01-12T13:38:52Z</time>
      </trkpt>
      <trkpt lat="49.85321" lon="2.32251">
        <ele>41.7</ele>
        <time>2024-01-12T13:38:53Z</time>
      </trkpt>
      <trkpt lat="49.8532" lon="2.32251">
        <ele>41.7</ele>
        <time>2024-01-12T13:38:54Z</time>
      </trkpt>
      <trkpt lat="49.8532" lon="2.32251">
        <ele>41.7</ele>
        <time>2024-01-12T13:38:55Z</time>
      </trkpt>
      <trkpt lat="49.85319" lon="2.32252">
        <ele>41.7</ele>
        <time>2024-01-12T13:38:56Z</time>
      </trkpt>
      <trkpt lat="49.85319" lon="2.32252">
        <ele>41.7</ele>
        <time>2024-01-12T13:38:57Z</time>
      </trkpt>
      <trkpt lat="49.85318" lon="2.32252">
        <ele>41.7</ele>
        <time>2024-01-12T13:38:58Z</time>
      </trkpt>
      <trkpt lat="49.85318" lon="2.32252">
        <ele>41.7</ele>
        <time>2024-01-12T13:38:59Z</time>
      </trkpt>
      <trkpt lat="49.85317" lon="2.32252">
        <ele>41.7</ele>
        <time>2024-01-12T13:39:00Z</time>
      </trkpt>
      <trkpt lat="49.85316" lon="2.32252">
        <ele>41.7</ele>
        <time>2024-01-12T13:39:01Z</time>
      </trkpt>
      <trkpt lat="49.85315" lon="2.32252">
        <ele>41.7</ele>
        <time>2024-01-12T13:39:02Z</time>
      </trkpt>
      <trkpt lat="49.85315" lon="2.32251">
        <ele>41.7</ele>
        <time>2024-01-12T13:39:03Z</time>
      </trkpt>
      <trkpt lat="49.85314" lon="2.32251">
        <ele>41.7</ele>
        <time>2024-01-12T13:39:04Z</time>
      </trkpt>
      <trkpt lat="49.85313" lon="2.32251">
        <ele>41.7</ele>
        <time>2024-01-12T13:39:05Z</time>
      </trkpt>
      <trkpt lat="49.85312" lon="2.3225">
        <ele>41.7</ele>
        <time>2024-01-12T13:39:06Z</time>
      </trkpt>
      <trkpt lat="49.85311" lon="2.3225">
        <ele>41.7</ele>
        <time>2024-01-12T13:39:07Z</time>
      </trkpt>
      <trkpt lat="49.85309" lon="2.3225">
        <ele>41.7</ele>
        <time>2024-01-12T13:39:08Z</time>
      </trkpt>
      <trkpt lat="49.85307" lon="2.32249">
        <ele>41.7</ele>
        <time>2024-01-12T13:39:09Z</time>
      </trkpt>
      <trkpt lat="49.85307" lon="2.32249">
        <ele>41.7</ele>
        <time>2024-01-12T13:39:10Z</time>
      </trkpt>
      <trkpt lat="49.85306" lon="2.32249">
        <ele>41.7</ele>
        <time>2024-01-12T13:39:11Z</time>
      </trkpt>
      <trkpt lat="49.85305" lon="2.32248">
        <ele>41.7</ele>
        <time>2024-01-12T13:39:12Z</time>
      </trkpt>
      <trkpt lat="49.85304" lon="2.32248">
        <ele>41.7</ele>
        <time>2024-01-12T13:39:13Z</time>
      </trkpt>
      <trkpt lat="49.85303" lon="2.32248">
        <ele>41.7</ele>
        <time>2024-01-12T13:39:14Z</time>
      </trkpt>
      <trkpt lat="49.85302" lon="2.32247">
        <ele>41.7</ele>
        <time>2024-01-12T13:39:15Z</time>
      </trkpt>
      <trkpt lat="49.85302" lon="2.32247">
        <ele>41.7</ele>
        <time>2024-01-12T13:39:16Z</time>
      </trkpt>
      <trkpt lat="49.85301" lon="2.32248">
        <ele>41.7</ele>
        <time>2024-01-12T13:39:17Z</time>
      </trkpt>
      <trkpt lat="49.853" lon="2.32248">
        <ele>41.7</ele>
        <time>2024-01-12T13:39:18Z</time>
      </trkpt>
      <trkpt lat="49.85299" lon="2.32249">
        <ele>41.7</ele>
        <time>2024-01-12T13:39:19Z</time>
      </trkpt>
      <trkpt lat="49.85299" lon="2.32249">
        <ele>41.7</ele>
        <time>2024-01-12T13:39:20Z</time>
      </trkpt>
      <trkpt lat="49.85298" lon="2.32249">
        <ele>41.7</ele>
        <time>2024-01-12T13:39:21Z</time>
      </trkpt>
      <trkpt lat="49.85297" lon="2.3225">
        <ele>41.7</ele>
        <time>2024-01-12T13:39:22Z</time>
      </trkpt>
      <trkpt lat="49.85296" lon="2.3225">
        <ele>41.7</ele>
        <time>2024-01-12T13:39:23Z</time>
      </trkpt>
      <trkpt lat="49.85295" lon="2.3225">
        <ele>41.7</ele>
        <time>2024-01-12T13:39:24Z</time>
      </trkpt>
      <trkpt lat="49.85294" lon="2.3225">
        <ele>41.7</ele>
        <time>2024-01-12T13:39:25Z</time>
      </trkpt>
      <trkpt lat="49.85294" lon="2.32251">
        <ele>41.7</ele>
        <time>2024-01-12T13:39:26Z</time>
      </trkpt>
      <trkpt lat="49.85293" lon="2.32251">
        <ele>41.7</ele>
        <time>2024-01-12T13:39:27Z</time>
      </trkpt>
      <trkpt lat="49.85292" lon="2.32252">
        <ele>41.7</ele>
        <time>2024-01-12T13:39:28Z</time>
      </trkpt>
      <trkpt lat="49.85291" lon="2.32252">
        <ele>41.7</ele>
        <time>2024-01-12T13:39:29Z</time>
      </trkpt>
      <trkpt lat="49.85291" lon="2.32252">
        <ele>41.7</ele>
        <time>2024-01-12T13:39:30Z</time>
      </trkpt>
      <trkpt lat="49.8529" lon="2.32252">
        <ele>41.7</ele>
        <time>2024-01-12T13:39:31Z</time>
      </trkpt>
      <trkpt lat="49.85289" lon="2.32252">
        <ele>41.7</ele>
        <time>2024-01-12T13:39:32Z</time>
      </trkpt>
      <trkpt lat="49.85289" lon="2.32251">
        <ele>41.7</ele>
        <time>2024-01-12T13:39:33Z</time>
      </trkpt>
      <trkpt lat="49.85288" lon="2.32251">
        <ele>41.7</ele>
        <time>2024-01-12T13:39:34Z</time>
      </trkpt>
      <trkpt lat="49.85287" lon="2.32251">
        <ele>41.7</ele>
        <time>2024-01-12T13:39:35Z</time>
      </trkpt>
      <trkpt lat="49.85287" lon="2.32252">
        <ele>41.7</ele>
        <time>2024-01-12T13:39:36Z</time>
      </trkpt>
      <trkpt lat="49.85286" lon="2.32253">
        <ele>41.7</ele>
        <time>2024-01-12T13:39:37Z</time>
      </trkpt>
      <trkpt lat="49.85286" lon="2.32253">
        <ele>41.7</ele>
        <time>2024-01-12T13:39:38Z</time>
      </trkpt>
      <trkpt lat="49.85285" lon="2.32254">
        <ele>41.7</ele>
        <time>2024-01-12T13:39:39Z</time>
      </trkpt>
      <trkpt lat="49.85284" lon="2.32254">
        <ele>41.7</ele>
        <time>2024-01-12T13:39:40Z</time>
      </trkpt>
      <trkpt lat="49.85284" lon="2.32254">
        <ele>41.7</ele>
        <time>2024-01-12T13:39:41Z</time>
      </trkpt>
      <trkpt lat="49.85283" lon="2.32254">
        <ele>41.7</ele>
        <time>2024-01-12T13:39:42Z</time>
      </trkpt>
      <trkpt lat="49.85283" lon="2.32254">
        <ele>41.7</ele>
        <time>2024-01-12T13:39:43Z</time>
      </trkpt>
      <trkpt lat="49.85282" lon="2.32254">
        <ele>41.7</ele>
        <time>2024-01-12T13:39:44Z</time>
      </trkpt>
      <trkpt lat="49.85281" lon="2.32254">
        <ele>41.7</ele>
        <time>2024-01-12T13:39:45Z</time>
      </trkpt>
      <trkpt lat="49.8528" lon="2.32254">
        <ele>41.7</ele>
        <time>2024-01-12T13:39:46Z</time>
      </trkpt>
      <trkpt lat="49.85279" lon="2.32254">
        <ele>41.7</ele>
        <time>2024-01-12T13:39:47Z</time>
      </trkpt>
      <trkpt lat="49.85278" lon="2.32254">
        <ele>41.7</ele>
        <time>2024-01-12T13:39:48Z</time>
      </trkpt>
      <trkpt lat="49.85277" lon="2.32254">
        <ele>41.7</ele>
        <time>2024-01-12T13:39:49Z</time>
      </trkpt>
      <trkpt lat="49.85276" lon="2.32255">
        <ele>41.7</ele>
        <time>2024-01-12T13:39:50Z</time>
      </trkpt>
      <trkpt lat="49.85275" lon="2.32255">
        <ele>41.7</ele>
        <time>2024-01-12T13:39:51Z</time>
      </trkpt>
      <trkpt lat="49.85275" lon="2.32255">
        <ele>41.7</ele>
        <time>2024-01-12T13:39:52Z</time>
      </trkpt>
      <trkpt lat="49.85274" lon="2.32255">
        <ele>41.7</ele>
        <time>2024-01-12T13:39:53Z</time>
      </trkpt>
      <trkpt lat="49.85273" lon="2.32255">
        <ele>41.7</ele>
        <time>2024-01-12T13:39:54Z</time>
      </trkpt>
      <trkpt lat="49.85273" lon="2.32255">
        <ele>41.7</ele>
        <time>2024-01-12T13:39:55Z</time>
      </trkpt>
      <trkpt lat="49.85272" lon="2.32254">
        <ele>41.7</ele>
        <time>2024-01-12T13:39:56Z</time>
      </trkpt>
      <trkpt lat="49.85272" lon="2.32254">
        <ele>41.7</ele>
        <time>2024-01-12T13:39:57Z</time>
      </trkpt>
      <trkpt lat="49.85271" lon="2.32254">
        <ele>41.7</ele>
        <time>2024-01-12T13:39:58Z</time>
      </trkpt>
      <trkpt lat="49.8527" lon="2.32254">
        <ele>41.7</ele>
        <time>2024-01-12T13:39:59Z</time>
      </trkpt>
      <trkpt lat="49.8527" lon="2.32253">
        <ele>41.7</ele>
        <time>2024-01-12T13:40:00Z</time>
      </trkpt>
      <trkpt lat="49.85269" lon="2.32253">
        <ele>41.7</ele>
        <time>2024-01-12T13:40:01Z</time>
      </trkpt>
      <trkpt lat="49.85269" lon="2.32253">
        <ele>41.7</ele>
        <time>2024-01-12T13:40:02Z</time>
      </trkpt>
      <trkpt lat="49.85268" lon="2.32253">
        <ele>41.7</ele>
        <time>2024-01-12T13:40:03Z</time>
      </trkpt>
      <trkpt lat="49.85268" lon="2.32253">
        <ele>41.7</ele>
        <time>2024-01-12T13:40:04Z</time>
      </trkpt>
      <trkpt lat="49.85267" lon="2.32253">
        <ele>41.7</ele>
        <time>2024-01-12T13:40:05Z</time>
      </trkpt>
      <trkpt lat="49.85267" lon="2.32253">
        <ele>41.7</ele>
        <time>2024-01-12T13:40:06Z</time>
      </trkpt>
      <trkpt lat="49.85267" lon="2.32253">
        <ele>41.7</ele>
        <time>2024-01-12T13:40:07Z</time>
      </trkpt>
      <trkpt lat="49.85267" lon="2.32253">
        <ele>41.7</ele>
        <time>2024-01-12T13:40:08Z</time>
      </trkpt>
      <trkpt lat="49.85267" lon="2.32253">
        <ele>41.7</ele>
        <time>2024-01-12T13:40:09Z</time>
      </trkpt>
      <trkpt lat="49.85266" lon="2.32253">
        <ele>41.7</ele>
        <time>2024-01-12T13:40:10Z</time>
      </trkpt>
      <trkpt lat="49.85266" lon="2.32253">
        <ele>41.7</ele>
        <time>2024-01-12T13:40:11Z</time>
      </trkpt>
      <trkpt lat="49.85266" lon="2.32253">
        <ele>41.7</ele>
        <time>2024-01-12T13:40:12Z</time>
      </trkpt>
      <trkpt lat="49.85265" lon="2.32252">
        <ele>41.7</ele>
        <time>2024-01-12T13:40:13Z</time>
      </trkpt>
      <trkpt lat="49.85265" lon="2.32251">
        <ele>41.7</ele>
        <time>2024-01-12T13:40:14Z</time>
      </trkpt>
      <trkpt lat="49.85264" lon="2.32251">
        <ele>41.7</ele>
        <time>2024-01-12T13:40:15Z</time>
      </trkpt>
      <trkpt lat="49.85264" lon="2.3225">
        <ele>41.7</ele>
        <time>2024-01-12T13:40:16Z</time>
      </trkpt>
      <trkpt lat="49.85263" lon="2.3225">
        <ele>41.7</ele>
        <time>2024-01-12T13:40:17Z</time>
      </trkpt>
      <trkpt lat="49.85262" lon="2.32249">
        <ele>41.7</ele>
        <time>2024-01-12T13:40:18Z</time>
      </trkpt>
      <trkpt lat="49.85261" lon="2.32248">
        <ele>41.7</ele>
        <time>2024-01-12T13:40:19Z</time>
      </trkpt>
      <trkpt lat="49.8526" lon="2.32248">
        <ele>41.7</ele>
        <time>2024-01-12T13:40:20Z</time>
      </trkpt>
      <trkpt lat="49.85259" lon="2.32248">
        <ele>41.7</ele>
        <time>2024-01-12T13:40:21Z</time>
      </trkpt>
      <trkpt lat="49.85258" lon="2.32248">
        <ele>41.7</ele>
        <time>2024-01-12T13:40:22Z</time>
      </trkpt>
      <trkpt lat="49.85257" lon="2.32247">
        <ele>41.7</ele>
        <time>2024-01-12T13:40:23Z</time>
      </trkpt>
      <trkpt lat="49.85256" lon="2.32247">
        <ele>41.7</ele>
        <time>2024-01-12T13:40:24Z</time>
      </trkpt>
      <trkpt lat="49.85255" lon="2.32247">
        <ele>41.7</ele>
        <time>2024-01-12T13:40:25Z</time>
      </trkpt>
      <trkpt lat="49.85255" lon="2.32247">
        <ele>41.7</ele>
        <time>2024-01-12T13:40:26Z</time>
      </trkpt>
      <trkpt lat="49.85254" lon="2.32247">
        <ele>41.7</ele>
        <time>2024-01-12T13:40:27Z</time>
      </trkpt>
      <trkpt lat="49.85253" lon="2.32247">
        <ele>41.7</ele>
        <time>2024-01-12T13:40:28Z</time>
      </trkpt>
      <trkpt lat="49.85253" lon="2.32247">
        <ele>41.7</ele>
        <time>2024-01-12T13:40:29Z</time>
      </trkpt>
      <trkpt lat="49.85252" lon="2.32247">
        <ele>41.7</ele>
        <time>2024-01-12T13:40:30Z</time>
      </trkpt>
      <trkpt lat="49.85252" lon="2.32247">
        <ele>41.7</ele>
        <time>2024-01-12T13:40:31Z</time>
      </trkpt>
      <trkpt lat="49.85251" lon="2.32248">
        <ele>41.7</ele>
        <time>2024-01-12T13:40:32Z</time>
      </trkpt>
      <trkpt lat="49.85251" lon="2.32248">
        <ele>41.7</ele>
        <time>2024-01-12T13:40:33Z</time>
      </trkpt>
      <trkpt lat="49.85251" lon="2.32249">
        <ele>41.7</ele>
        <time>2024-01-12T13:40:34Z</time>
      </trkpt>
      <trkpt lat="49.8525" lon="2.32249">
        <ele>41.7</ele>
        <time>2024-01-12T13:40:35Z</time>
      </trkpt>
      <trkpt lat="49.8525" lon="2.32249">
        <ele>41.7</ele>
        <time>2024-01-12T13:40:36Z</time>
      </trkpt>
      <trkpt lat="49.85249" lon="2.3225">
        <ele>41.7</ele>
        <time>2024-01-12T13:40:37Z</time>
      </trkpt>
      <trkpt lat="49.85249" lon="2.3225">
        <ele>41.7</ele>
        <time>2024-01-12T13:40:38Z</time>
      </trkpt>
      <trkpt lat="49.85248" lon="2.3225">
        <ele>41.7</ele>
        <time>2024-01-12T13:40:39Z</time>
      </trkpt>
      <trkpt lat="49.85247" lon="2.3225">
        <ele>41.7</ele>
        <time>2024-01-12T13:40:40Z</time>
      </trkpt>
      <trkpt lat="49.85247" lon="2.3225">
        <ele>41.7</ele>
        <time>2024-01-12T13:40:41Z</time>
      </trkpt>
      <trkpt lat="49.85246" lon="2.3225">
        <ele>41.7</ele>
        <time>2024-01-12T13:40:42Z</time>
      </trkpt>
      <trkpt lat="49.85245" lon="2.32249">
        <ele>41.7</ele>
        <time>2024-01-12T13:40:43Z</time>
      </trkpt>
      <trkpt lat="49.85245" lon="2.32249">
        <ele>41.7</ele>
        <time>2024-01-12T13:40:44Z</time>
      </trkpt>
      <trkpt lat="49.85244" lon="2.32248">
        <ele>41.7</ele>
        <time>2024-01-12T13:40:45Z</time>
      </trkpt>
      <trkpt lat="49.85243" lon="2.32248">
        <ele>41.7</ele>
        <time>2024-01-12T13:40:46Z</time>
      </trkpt>
      <trkpt lat="49.85242" lon="2.32247">
        <ele>41.7</ele>
        <time>2024-01-12T13:40:47Z</time>
      </trkpt>
      <trkpt lat="49.8524" lon="2.32245">
        <ele>41.7</ele>
        <time>2024-01-12T13:40:48Z</time>
      </trkpt>
      <trkpt lat="49.8524" lon="2.32245">
        <ele>41.7</ele>
        <time>2024-01-12T13:40:49Z</time>
      </trkpt>
      <trkpt lat="49.85239" lon="2.32245">
        <ele>41.7</ele>
        <time>2024-01-12T13:40:50Z</time>
      </trkpt>
      <trkpt lat="49.85238" lon="2.32244">
        <ele>41.7</ele>
        <time>2024-01-12T13:40:51Z</time>
      </trkpt>
      <trkpt lat="49.85237" lon="2.32244">
        <ele>41.7</ele>
        <time>2024-01-12T13:40:52Z</time>
      </trkpt>
      <trkpt lat="49.85236" lon="2.32244">
        <ele>41.7</ele>
        <time>2024-01-12T13:40:53Z</time>
      </trkpt>
      <trkpt lat="49.85235" lon="2.32244">
        <ele>41.7</ele>
        <time>2024-01-12T13:40:54Z</time>
      </trkpt>
      <trkpt lat="49.85234" lon="2.32245">
        <ele>41.7</ele>
        <time>2024-01-12T13:40:55Z</time>
      </trkpt>
      <trkpt lat="49.85233" lon="2.32245">
        <ele>41.7</ele>
        <time>2024-01-12T13:40:56Z</time>
      </trkpt>
      <trkpt lat="49.85233" lon="2.32245">
        <ele>41.7</ele>
        <time>2024-01-12T13:40:57Z</time>
      </trkpt>
      <trkpt lat="49.85232" lon="2.32245">
        <ele>41.7</ele>
        <time>2024-01-12T13:40:58Z</time>
      </trkpt>
      <trkpt lat="49.85231" lon="2.32245">
        <ele>41.7</ele>
        <time>2024-01-12T13:40:59Z</time>
      </trkpt>
      <trkpt lat="49.8523" lon="2.32245">
        <ele>41.7</ele>
        <time>2024-01-12T13:41:00Z</time>
      </trkpt>
      <trkpt lat="49.8523" lon="2.32245">
        <ele>41.7</ele>
        <time>2024-01-12T13:41:01Z</time>
      </trkpt>
      <trkpt lat="49.85229" lon="2.32245">
        <ele>41.7</ele>
        <time>2024-01-12T13:41:02Z</time>
      </trkpt>
      <trkpt lat="49.85228" lon="2.32245">
        <ele>41.7</ele>
        <time>2024-01-12T13:41:03Z</time>
      </trkpt>
      <trkpt lat="49.85228" lon="2.32244">
        <ele>41.7</ele>
        <time>2024-01-12T13:41:04Z</time>
      </trkpt>
      <trkpt lat="49.85227" lon="2.32244">
        <ele>41.7</ele>
        <time>2024-01-12T13:41:05Z</time>
      </trkpt>
      <trkpt lat="49.85226" lon="2.32244">
        <ele>41.7</ele>
        <time>2024-01-12T13:41:06Z</time>
      </trkpt>
      <trkpt lat="49.85226" lon="2.32244">
        <ele>41.7</ele>
        <time>2024-01-12T13:41:07Z</time>
      </trkpt>
      <trkpt lat="49.85225" lon="2.32244">
        <ele>41.7</ele>
        <time>2024-01-12T13:41:08Z</time>
      </trkpt>
      <trkpt lat="49.85225" lon="2.32244">
        <ele>41.7</ele>
        <time>2024-01-12T13:41:09Z</time>
      </trkpt>
      <trkpt lat="49.85224" lon="2.32244">
        <ele>41.7</ele>
        <time>2024-01-12T13:41:10Z</time>
      </trkpt>
      <trkpt lat="49.85224" lon="2.32244">
        <ele>41.7</ele>
        <time>2024-01-12T13:41:11Z</time>
      </trkpt>
      <trkpt lat="49.85223" lon="2.32244">
        <ele>41.7</ele>
        <time>2024-01-12T13:41:12Z</time>
      </trkpt>
      <trkpt lat="49.85223" lon="2.32244">
        <ele>41.7</ele>
        <time>2024-01-12T13:41:13Z</time>
      </trkpt>
      <trkpt lat="49.85222" lon="2.32244">
        <ele>41.7</ele>
        <time>2024-01-12T13:41:14Z</time>
      </trkpt>
      <trkpt lat="49.85222" lon="2.32244">
        <ele>41.7</ele>
        <time>2024-01-12T13:41:15Z</time>
      </trkpt>
      <trkpt lat="49.85221" lon="2.32244">
        <ele>41.7</ele>
        <time>2024-01-12T13:41:16Z</time>
      </trkpt>
      <trkpt lat="49.85221" lon="2.32244">
        <ele>41.7</ele>
        <time>2024-01-12T13:41:17Z</time>
      </trkpt>
      <trkpt lat="49.85221" lon="2.32245">
        <ele>41.7</ele>
        <time>2024-01-12T13:41:18Z</time>
      </trkpt>
      <trkpt lat="49.8522" lon="2.32245">
        <ele>41.7</ele>
        <time>2024-01-12T13:41:19Z</time>
      </trkpt>
      <trkpt lat="49.8522" lon="2.32245">
        <ele>41.7</ele>
        <time>2024-01-12T13:41:20Z</time>
      </trkpt>
      <trkpt lat="49.85219" lon="2.32244">
        <ele>41.7</ele>
        <time>2024-01-12T13:41:21Z</time>
      </trkpt>
      <trkpt lat="49.85218" lon="2.32244">
        <ele>41.7</ele>
        <time>2024-01-12T13:41:22Z</time>
      </trkpt>
      <trkpt lat="49.85217" lon="2.32244">
        <ele>41.8</ele>
        <time>2024-01-12T13:41:23Z</time>
      </trkpt>
      <trkpt lat="49.85216" lon="2.32243">
        <ele>41.8</ele>
        <time>2024-01-12T13:41:24Z</time>
      </trkpt>
      <trkpt lat="49.85215" lon="2.32243">
        <ele>41.8</ele>
        <time>2024-01-12T13:41:25Z</time>
      </trkpt>
      <trkpt lat="49.85215" lon="2.32243">
        <ele>41.8</ele>
        <time>2024-01-12T13:41:26Z</time>
      </trkpt>
      <trkpt lat="49.85214" lon="2.32242">
        <ele>41.8</ele>
        <time>2024-01-12T13:41:27Z</time>
      </trkpt>
      <trkpt lat="49.85214" lon="2.32242">
        <ele>41.8</ele>
        <time>2024-01-12T13:41:28Z</time>
      </trkpt>
      <trkpt lat="49.85213" lon="2.32241">
        <ele>41.8</ele>
        <time>2024-01-12T13:41:29Z</time>
      </trkpt>
      <trkpt lat="49.85213" lon="2.32241">
        <ele>41.8</ele>
        <time>2024-01-12T13:41:30Z</time>
      </trkpt>
      <trkpt lat="49.85212" lon="2.32241">
        <ele>41.8</ele>
        <time>2024-01-12T13:41:31Z</time>
      </trkpt>
      <trkpt lat="49.85212" lon="2.3224">
        <ele>41.8</ele>
        <time>2024-01-12T13:41:32Z</time>
      </trkpt>
      <trkpt lat="49.85211" lon="2.32239">
        <ele>41.8</ele>
        <time>2024-01-12T13:41:33Z</time>
      </trkpt>
      <trkpt lat="49.85211" lon="2.32239">
        <ele>41.8</ele>
        <time>2024-01-12T13:41:34Z</time>
      </trkpt>
      <trkpt lat="49.8521" lon="2.32238">
        <ele>41.8</ele>
        <time>2024-01-12T13:41:35Z</time>
      </trkpt>
      <trkpt lat="49.85209" lon="2.32237">
        <ele>41.8</ele>
        <time>2024-01-12T13:41:36Z</time>
      </trkpt>
      <trkpt lat="49.85207" lon="2.32235">
        <ele>41.9</ele>
        <time>2024-01-12T13:41:37Z</time>
      </trkpt>
      <trkpt lat="49.85206" lon="2.32235">
        <ele>41.9</ele>
        <time>2024-01-12T13:41:38Z</time>
      </trkpt>
      <trkpt lat="49.85205" lon="2.32235">
        <ele>41.9</ele>
        <time>2024-01-12T13:41:39Z</time>
      </trkpt>
      <trkpt lat="49.85203" lon="2.32234">
        <ele>41.9</ele>
        <time>2024-01-12T13:41:40Z</time>
      </trkpt>
      <trkpt lat="49.85202" lon="2.32234">
        <ele>41.9</ele>
        <time>2024-01-12T13:41:41Z</time>
      </trkpt>
      <trkpt lat="49.85201" lon="2.32234">
        <ele>41.9</ele>
        <time>2024-01-12T13:41:42Z</time>
      </trkpt>
      <trkpt lat="49.852" lon="2.32234">
        <ele>41.9</ele>
        <time>2024-01-12T13:41:43Z</time>
      </trkpt>
      <trkpt lat="49.85199" lon="2.32233">
        <ele>41.9</ele>
        <time>2024-01-12T13:41:44Z</time>
      </trkpt>
      <trkpt lat="49.85199" lon="2.32233">
        <ele>42</ele>
        <time>2024-01-12T13:41:45Z</time>
      </trkpt>
      <trkpt lat="49.85198" lon="2.32233">
        <ele>42</ele>
        <time>2024-01-12T13:41:46Z</time>
      </trkpt>
      <trkpt lat="49.85197" lon="2.32233">
        <ele>42</ele>
        <time>2024-01-12T13:41:47Z</time>
      </trkpt>
      <trkpt lat="49.85196" lon="2.32233">
        <ele>42</ele>
        <time>2024-01-12T13:41:48Z</time>
      </trkpt>
      <trkpt lat="49.85196" lon="2.32233">
        <ele>42</ele>
        <time>2024-01-12T13:41:49Z</time>
      </trkpt>
      <trkpt lat="49.85195" lon="2.32233">
        <ele>42</ele>
        <time>2024-01-12T13:41:50Z</time>
      </trkpt>
      <trkpt lat="49.85195" lon="2.32233">
        <ele>42</ele>
        <time>2024-01-12T13:41:51Z</time>
      </trkpt>
      <trkpt lat="49.85194" lon="2.32233">
        <ele>42</ele>
        <time>2024-01-12T13:41:52Z</time>
      </trkpt>
      <trkpt lat="49.85193" lon="2.32233">
        <ele>42</ele>
        <time>2024-01-12T13:41:53Z</time>
      </trkpt>
      <trkpt lat="49.85193" lon="2.32232">
        <ele>42</ele>
        <time>2024-01-12T13:41:54Z</time>
      </trkpt>
      <trkpt lat="49.85192" lon="2.32232">
        <ele>42</ele>
        <time>2024-01-12T13:41:55Z</time>
      </trkpt>
      <trkpt lat="49.85192" lon="2.32232">
        <ele>42</ele>
        <time>2024-01-12T13:41:56Z</time>
      </trkpt>
      <trkpt lat="49.85191" lon="2.32232">
        <ele>42</ele>
        <time>2024-01-12T13:41:57Z</time>
      </trkpt>
      <trkpt lat="49.85191" lon="2.32232">
        <ele>42</ele>
        <time>2024-01-12T13:41:58Z</time>
      </trkpt>
      <trkpt lat="49.8519" lon="2.32233">
        <ele>42</ele>
        <time>2024-01-12T13:41:59Z</time>
      </trkpt>
      <trkpt lat="49.85189" lon="2.32233">
        <ele>42</ele>
        <time>2024-01-12T13:42:00Z</time>
      </trkpt>
      <trkpt lat="49.85188" lon="2.32233">
        <ele>42</ele>
        <time>2024-01-12T13:42:01Z</time>
      </trkpt>
      <trkpt lat="49.85187" lon="2.32233">
        <ele>42</ele>
        <time>2024-01-12T13:42:02Z</time>
      </trkpt>
      <trkpt lat="49.85186" lon="2.32233">
        <ele>42</ele>
        <time>2024-01-12T13:42:03Z</time>
      </trkpt>
      <trkpt lat="49.85185" lon="2.32233">
        <ele>42.1</ele>
        <time>2024-01-12T13:42:04Z</time>
      </trkpt>
      <trkpt lat="49.85184" lon="2.32233">
        <ele>42.1</ele>
        <time>2024-01-12T13:42:05Z</time>
      </trkpt>
      <trkpt lat="49.85183" lon="2.32234">
        <ele>42.1</ele>
        <time>2024-01-12T13:42:06Z</time>
      </trkpt>
      <trkpt lat="49.85183" lon="2.32234">
        <ele>42.1</ele>
        <time>2024-01-12T13:42:07Z</time>
      </trkpt>
      <trkpt lat="49.85182" lon="2.32234">
        <ele>42.1</ele>
        <time>2024-01-12T13:42:08Z</time>
      </trkpt>
      <trkpt lat="49.85182" lon="2.32235">
        <ele>42.1</ele>
        <time>2024-01-12T13:42:09Z</time>
      </trkpt>
      <trkpt lat="49.85181" lon="2.32235">
        <ele>42.1</ele>
        <time>2024-01-12T13:42:10Z</time>
      </trkpt>
      <trkpt lat="49.85181" lon="2.32235">
        <ele>42.1</ele>
        <time>2024-01-12T13:42:11Z</time>
      </trkpt>
      <trkpt lat="49.8518" lon="2.32235">
        <ele>42.1</ele>
        <time>2024-01-12T13:42:12Z</time>
      </trkpt>
      <trkpt lat="49.8518" lon="2.32234">
        <ele>42.1</ele>
        <time>2024-01-12T13:42:13Z</time>
      </trkpt>
      <trkpt lat="49.8518" lon="2.32233">
        <ele>42.1</ele>
        <time>2024-01-12T13:42:14Z</time>
      </trkpt>
      <trkpt lat="49.85179" lon="2.32232">
        <ele>42.1</ele>
        <time>2024-01-12T13:42:15Z</time>
      </trkpt>
      <trkpt lat="49.85179" lon="2.32232">
        <ele>42.1</ele>
        <time>2024-01-12T13:42:16Z</time>
      </trkpt>
      <trkpt lat="49.85179" lon="2.32231">
        <ele>42.1</ele>
        <time>2024-01-12T13:42:17Z</time>
      </trkpt>
      <trkpt lat="49.85178" lon="2.32231">
        <ele>42.1</ele>
        <time>2024-01-12T13:42:18Z</time>
      </trkpt>
      <trkpt lat="49.85178" lon="2.32231">
        <ele>42.1</ele>
        <time>2024-01-12T13:42:19Z</time>
      </trkpt>
      <trkpt lat="49.85178" lon="2.32231">
        <ele>42.1</ele>
        <time>2024-01-12T13:42:20Z</time>
      </trkpt>
      <trkpt lat="49.85177" lon="2.32231">
        <ele>42.1</ele>
        <time>2024-01-12T13:42:21Z</time>
      </trkpt>
      <trkpt lat="49.85176" lon="2.32231">
        <ele>42.1</ele>
        <time>2024-01-12T13:42:22Z</time>
      </trkpt>
      <trkpt lat="49.85176" lon="2.32231">
        <ele>42.1</ele>
        <time>2024-01-12T13:42:23Z</time>
      </trkpt>
      <trkpt lat="49.85175" lon="2.3223">
        <ele>42.1</ele>
        <time>2024-01-12T13:42:24Z</time>
      </trkpt>
      <trkpt lat="49.85174" lon="2.3223">
        <ele>42.1</ele>
        <time>2024-01-12T13:42:25Z</time>
      </trkpt>
      <trkpt lat="49.85173" lon="2.32229">
        <ele>42.1</ele>
        <time>2024-01-12T13:42:26Z</time>
      </trkpt>
      <trkpt lat="49.85172" lon="2.32228">
        <ele>42.2</ele>
        <time>2024-01-12T13:42:27Z</time>
      </trkpt>
      <trkpt lat="49.85172" lon="2.32228">
        <ele>42.2</ele>
        <time>2024-01-12T13:42:28Z</time>
      </trkpt>
      <trkpt lat="49.85171" lon="2.32228">
        <ele>42.2</ele>
        <time>2024-01-12T13:42:29Z</time>
      </trkpt>
      <trkpt lat="49.85171" lon="2.32228">
        <ele>42.2</ele>
        <time>2024-01-12T13:42:30Z</time>
      </trkpt>
      <trkpt lat="49.8517" lon="2.32227">
        <ele>42.2</ele>
        <time>2024-01-12T13:42:31Z</time>
      </trkpt>
      <trkpt lat="49.8517" lon="2.32227">
        <ele>42.2</ele>
        <time>2024-01-12T13:42:32Z</time>
      </trkpt>
      <trkpt lat="49.8517" lon="2.32227">
        <ele>42.2</ele>
        <time>2024-01-12T13:42:33Z</time>
      </trkpt>
      <trkpt lat="49.8517" lon="2.32228">
        <ele>42.2</ele>
        <time>2024-01-12T13:42:34Z</time>
      </trkpt>
      <trkpt lat="49.8517" lon="2.32228">
        <ele>42.2</ele>
        <time>2024-01-12T13:42:35Z</time>
      </trkpt>
      <trkpt lat="49.8517" lon="2.32228">
        <ele>42.2</ele>
        <time>2024-01-12T13:42:36Z</time>
      </trkpt>
      <trkpt lat="49.8517" lon="2.32228">
        <ele>42.2</ele>
        <time>2024-01-12T13:42:37Z</time>
      </trkpt>
      <trkpt lat="49.8517" lon="2.32228">
        <ele>42.2</ele>
        <time>2024-01-12T13:42:38Z</time>
      </trkpt>
      <trkpt lat="49.8517" lon="2.32228">
        <ele>42.2</ele>
        <time>2024-01-12T13:42:39Z</time>
      </trkpt>
      <trkpt lat="49.8517" lon="2.32228">
        <ele>42.2</ele>
        <time>2024-01-12T13:42:40Z</time>
      </trkpt>
      <trkpt lat="49.8517" lon="2.32228">
        <ele>42.2</ele>
        <time>2024-01-12T13:42:41Z</time>
      </trkpt>
      <trkpt lat="49.85169" lon="2.32228">
        <ele>42.2</ele>
        <time>2024-01-12T13:42:42Z</time>
      </trkpt>
      <trkpt lat="49.85169" lon="2.32228">
        <ele>42.2</ele>
        <time>2024-01-12T13:42:43Z</time>
      </trkpt>
      <trkpt lat="49.85168" lon="2.32228">
        <ele>42.2</ele>
        <time>2024-01-12T13:42:44Z</time>
      </trkpt>
      <trkpt lat="49.85166" lon="2.32227">
        <ele>42.3</ele>
        <time>2024-01-12T13:42:45Z</time>
      </trkpt>
      <trkpt lat="49.85165" lon="2.32227">
        <ele>42.3</ele>
        <time>2024-01-12T13:42:46Z</time>
      </trkpt>
      <trkpt lat="49.85164" lon="2.32227">
        <ele>42.3</ele>
        <time>2024-01-12T13:42:47Z</time>
      </trkpt>
      <trkpt lat="49.85163" lon="2.32227">
        <ele>42.3</ele>
        <time>2024-01-12T13:42:48Z</time>
      </trkpt>
      <trkpt lat="49.85162" lon="2.32226">
        <ele>42.3</ele>
        <time>2024-01-12T13:42:49Z</time>
      </trkpt>
      <trkpt lat="49.85162" lon="2.32226">
        <ele>42.3</ele>
        <time>2024-01-12T13:42:50Z</time>
      </trkpt>
      <trkpt lat="49.85161" lon="2.32226">
        <ele>42.3</ele>
        <time>2024-01-12T13:42:51Z</time>
      </trkpt>
      <trkpt lat="49.85161" lon="2.32226">
        <ele>42.3</ele>
        <time>2024-01-12T13:42:52Z</time>
      </trkpt>
      <trkpt lat="49.8516" lon="2.32225">
        <ele>42.4</ele>
        <time>2024-01-12T13:42:53Z</time>
      </trkpt>
      <trkpt lat="49.8516" lon="2.32225">
        <ele>42.4</ele>
        <time>2024-01-12T13:42:54Z</time>
      </trkpt>
      <trkpt lat="49.85159" lon="2.32224">
        <ele>42.4</ele>
        <time>2024-01-12T13:42:55Z</time>
      </trkpt>
      <trkpt lat="49.85158" lon="2.32223">
        <ele>42.4</ele>
        <time>2024-01-12T13:42:56Z</time>
      </trkpt>
      <trkpt lat="49.85158" lon="2.32223">
        <ele>42.4</ele>
        <time>2024-01-12T13:42:57Z</time>
      </trkpt>
      <trkpt lat="49.85157" lon="2.32222">
        <ele>42.4</ele>
        <time>2024-01-12T13:42:58Z</time>
      </trkpt>
      <trkpt lat="49.85156" lon="2.32222">
        <ele>42.4</ele>
        <time>2024-01-12T13:42:59Z</time>
      </trkpt>
      <trkpt lat="49.85155" lon="2.32222">
        <ele>42.5</ele>
        <time>2024-01-12T13:43:00Z</time>
      </trkpt>
      <trkpt lat="49.85155" lon="2.32221">
        <ele>42.5</ele>
        <time>2024-01-12T13:43:01Z</time>
      </trkpt>
      <trkpt lat="49.85154" lon="2.32221">
        <ele>42.5</ele>
        <time>2024-01-12T13:43:02Z</time>
      </trkpt>
      <trkpt lat="49.85154" lon="2.32221">
        <ele>42.5</ele>
        <time>2024-01-12T13:43:03Z</time>
      </trkpt>
      <trkpt lat="49.85154" lon="2.32222">
        <ele>42.5</ele>
        <time>2024-01-12T13:43:04Z</time>
      </trkpt>
      <trkpt lat="49.85154" lon="2.32222">
        <ele>42.5</ele>
        <time>2024-01-12T13:43:05Z</time>
      </trkpt>
      <trkpt lat="49.85153" lon="2.32222">
        <ele>42.5</ele>
        <time>2024-01-12T13:43:06Z</time>
      </trkpt>
      <trkpt lat="49.85153" lon="2.32222">
        <ele>42.5</ele>
        <time>2024-01-12T13:43:07Z</time>
      </trkpt>
      <trkpt lat="49.85153" lon="2.32223">
        <ele>42.5</ele>
        <time>2024-01-12T13:43:08Z</time>
      </trkpt>
      <trkpt lat="49.85152" lon="2.32223">
        <ele>42.5</ele>
        <time>2024-01-12T13:43:09Z</time>
      </trkpt>
      <trkpt lat="49.85152" lon="2.32223">
        <ele>42.5</ele>
        <time>2024-01-12T13:43:10Z</time>
      </trkpt>
      <trkpt lat="49.85152" lon="2.32223">
        <ele>42.5</ele>
        <time>2024-01-12T13:43:11Z</time>
      </trkpt>
      <trkpt lat="49.85152" lon="2.32223">
        <ele>42.5</ele>
        <time>2024-01-12T13:43:12Z</time>
      </trkpt>
      <trkpt lat="49.85151" lon="2.32224">
        <ele>42.5</ele>
        <time>2024-01-12T13:43:13Z</time>
      </trkpt>
      <trkpt lat="49.85151" lon="2.32225">
        <ele>42.5</ele>
        <time>2024-01-12T13:43:14Z</time>
      </trkpt>
      <trkpt lat="49.85152" lon="2.32226">
        <ele>42.5</ele>
        <time>2024-01-12T13:43:15Z</time>
      </trkpt>
      <trkpt lat="49.85152" lon="2.32226">
        <ele>42.5</ele>
        <time>2024-01-12T13:43:16Z</time>
      </trkpt>
      <trkpt lat="49.85153" lon="2.32227">
        <ele>42.5</ele>
        <time>2024-01-12T13:43:17Z</time>
      </trkpt>
      <trkpt lat="49.85154" lon="2.32228">
        <ele>42.5</ele>
        <time>2024-01-12T13:43:18Z</time>
      </trkpt>
      <trkpt lat="49.85154" lon="2.32228">
        <ele>42.6</ele>
        <time>2024-01-12T13:43:19Z</time>
      </trkpt>
      <trkpt lat="49.85155" lon="2.32229">
        <ele>42.6</ele>
        <time>2024-01-12T13:43:20Z</time>
      </trkpt>
      <trkpt lat="49.85155" lon="2.32229">
        <ele>42.6</ele>
        <time>2024-01-12T13:43:21Z</time>
      </trkpt>
      <trkpt lat="49.85155" lon="2.32229">
        <ele>42.6</ele>
        <time>2024-01-12T13:43:22Z</time>
      </trkpt>
      <trkpt lat="49.85155" lon="2.32229">
        <ele>42.6</ele>
        <time>2024-01-12T13:43:23Z</time>
      </trkpt>
      <trkpt lat="49.85154" lon="2.32228">
        <ele>42.6</ele>
        <time>2024-01-12T13:43:24Z</time>
      </trkpt>
      <trkpt lat="49.85154" lon="2.32227">
        <ele>42.6</ele>
        <time>2024-01-12T13:43:25Z</time>
      </trkpt>
      <trkpt lat="49.85153" lon="2.32226">
        <ele>42.6</ele>
        <time>2024-01-12T13:43:26Z</time>
      </trkpt>
      <trkpt lat="49.85154" lon="2.32223">
        <ele>42.6</ele>
        <time>2024-01-12T13:43:27Z</time>
      </trkpt>
      <trkpt lat="49.85153" lon="2.32222">
        <ele>42.6</ele>
        <time>2024-01-12T13:43:28Z</time>
      </trkpt>
      <trkpt lat="49.85153" lon="2.32222">
        <ele>42.6</ele>
        <time>2024-01-12T13:43:29Z</time>
      </trkpt>
      <trkpt lat="49.85152" lon="2.32221">
        <ele>42.6</ele>
        <time>2024-01-12T13:43:30Z</time>
      </trkpt>
      <trkpt lat="49.85152" lon="2.3222">
        <ele>42.6</ele>
        <time>2024-01-12T13:43:31Z</time>
      </trkpt>
      <trkpt lat="49.85151" lon="2.3222">
        <ele>42.6</ele>
        <time>2024-01-12T13:43:32Z</time>
      </trkpt>
      <trkpt lat="49.85151" lon="2.32219">
        <ele>42.6</ele>
        <time>2024-01-12T13:43:33Z</time>
      </trkpt>
      <trkpt lat="49.8515" lon="2.32219">
        <ele>42.6</ele>
        <time>2024-01-12T13:43:34Z</time>
      </trkpt>
      <trkpt lat="49.85149" lon="2.32218">
        <ele>42.6</ele>
        <time>2024-01-12T13:43:35Z</time>
      </trkpt>
      <trkpt lat="49.85149" lon="2.32218">
        <ele>42.6</ele>
        <time>2024-01-12T13:43:36Z</time>
      </trkpt>
      <trkpt lat="49.85148" lon="2.32217">
        <ele>42.6</ele>
        <time>2024-01-12T13:43:37Z</time>
      </trkpt>
      <trkpt lat="49.85147" lon="2.32216">
        <ele>42.6</ele>
        <time>2024-01-12T13:43:38Z</time>
      </trkpt>
      <trkpt lat="49.85146" lon="2.32216">
        <ele>42.6</ele>
        <time>2024-01-12T13:43:39Z</time>
      </trkpt>
      <trkpt lat="49.85146" lon="2.32216">
        <ele>42.6</ele>
        <time>2024-01-12T13:43:40Z</time>
      </trkpt>
      <trkpt lat="49.85145" lon="2.32215">
        <ele>42.6</ele>
        <time>2024-01-12T13:43:41Z</time>
      </trkpt>
      <trkpt lat="49.85145" lon="2.32215">
        <ele>42.6</ele>
        <time>2024-01-12T13:43:42Z</time>
      </trkpt>
      <trkpt lat="49.85144" lon="2.32215">
        <ele>42.6</ele>
        <time>2024-01-12T13:43:43Z</time>
      </trkpt>
      <trkpt lat="49.85144" lon="2.32215">
        <ele>42.6</ele>
        <time>2024-01-12T13:43:44Z</time>
      </trkpt>
      <trkpt lat="49.85143" lon="2.32214">
        <ele>42.6</ele>
        <time>2024-01-12T13:43:45Z</time>
      </trkpt>
      <trkpt lat="49.85143" lon="2.32214">
        <ele>42.6</ele>
        <time>2024-01-12T13:43:46Z</time>
      </trkpt>
      <trkpt lat="49.85142" lon="2.32213">
        <ele>42.6</ele>
        <time>2024-01-12T13:43:47Z</time>
      </trkpt>
      <trkpt lat="49.85141" lon="2.32213">
        <ele>42.6</ele>
        <time>2024-01-12T13:43:48Z</time>
      </trkpt>
      <trkpt lat="49.85141" lon="2.32213">
        <ele>42.6</ele>
        <time>2024-01-12T13:43:49Z</time>
      </trkpt>
      <trkpt lat="49.8514" lon="2.32212">
        <ele>42.6</ele>
        <time>2024-01-12T13:43:50Z</time>
      </trkpt>
      <trkpt lat="49.85139" lon="2.32212">
        <ele>42.6</ele>
        <time>2024-01-12T13:43:51Z</time>
      </trkpt>
      <trkpt lat="49.85139" lon="2.32212">
        <ele>42.6</ele>
        <time>2024-01-12T13:43:52Z</time>
      </trkpt>
      <trkpt lat="49.85138" lon="2.32212">
        <ele>42.6</ele>
        <time>2024-01-12T13:43:53Z</time>
      </trkpt>
      <trkpt lat="49.85138" lon="2.32211">
        <ele>42.6</ele>
        <time>2024-01-12T13:43:54Z</time>
      </trkpt>
      <trkpt lat="49.85137" lon="2.32211">
        <ele>42.6</ele>
        <time>2024-01-12T13:43:55Z</time>
      </trkpt>
      <trkpt lat="49.85137" lon="2.32211">
        <ele>42.6</ele>
        <time>2024-01-12T13:43:56Z</time>
      </trkpt>
      <trkpt lat="49.85137" lon="2.32211">
        <ele>42.6</ele>
        <time>2024-01-12T13:43:57Z</time>
      </trkpt>
      <trkpt lat="49.85137" lon="2.32211">
        <ele>42.6</ele>
        <time>2024-01-12T13:43:58Z</time>
      </trkpt>
      <trkpt lat="49.85136" lon="2.32211">
        <ele>42.6</ele>
        <time>2024-01-12T13:43:59Z</time>
      </trkpt>
      <trkpt lat="49.85136" lon="2.32211">
        <ele>42.6</ele>
        <time>2024-01-12T13:44:00Z</time>
      </trkpt>
      <trkpt lat="49.85135" lon="2.32211">
        <ele>42.6</ele>
        <time>2024-01-12T13:44:01Z</time>
      </trkpt>
      <trkpt lat="49.85135" lon="2.3221">
        <ele>42.6</ele>
        <time>2024-01-12T13:44:02Z</time>
      </trkpt>
      <trkpt lat="49.85134" lon="2.3221">
        <ele>42.6</ele>
        <time>2024-01-12T13:44:03Z</time>
      </trkpt>
      <trkpt lat="49.85133" lon="2.3221">
        <ele>42.6</ele>
        <time>2024-01-12T13:44:04Z</time>
      </trkpt>
      <trkpt lat="49.85131" lon="2.32208">
        <ele>42.6</ele>
        <time>2024-01-12T13:44:05Z</time>
      </trkpt>
      <trkpt lat="49.85131" lon="2.32208">
        <ele>42.6</ele>
        <time>2024-01-12T13:44:06Z</time>
      </trkpt>
      <trkpt lat="49.8513" lon="2.32208">
        <ele>42.6</ele>
        <time>2024-01-12T13:44:07Z</time>
      </trkpt>
      <trkpt lat="49.85129" lon="2.32207">
        <ele>42.6</ele>
        <time>2024-01-12T13:44:08Z</time>
      </trkpt>
      <trkpt lat="49.85128" lon="2.32207">
        <ele>42.6</ele>
        <time>2024-01-12T13:44:09Z</time>
      </trkpt>
      <trkpt lat="49.85128" lon="2.32206">
        <ele>42.6</ele>
        <time>2024-01-12T13:44:10Z</time>
      </trkpt>
      <trkpt lat="49.85127" lon="2.32206">
        <ele>42.6</ele>
        <time>2024-01-12T13:44:11Z</time>
      </trkpt>
      <trkpt lat="49.85127" lon="2.32206">
        <ele>42.6</ele>
        <time>2024-01-12T13:44:12Z</time>
      </trkpt>
      <trkpt lat="49.85126" lon="2.32206">
        <ele>42.6</ele>
        <time>2024-01-12T13:44:13Z</time>
      </trkpt>
      <trkpt lat="49.85126" lon="2.32206">
        <ele>42.7</ele>
        <time>2024-01-12T13:44:14Z</time>
      </trkpt>
      <trkpt lat="49.85126" lon="2.32205">
        <ele>42.7</ele>
        <time>2024-01-12T13:44:15Z</time>
      </trkpt>
      <trkpt lat="49.85125" lon="2.32205">
        <ele>42.7</ele>
        <time>2024-01-12T13:44:16Z</time>
      </trkpt>
      <trkpt lat="49.85124" lon="2.32204">
        <ele>42.7</ele>
        <time>2024-01-12T13:44:17Z</time>
      </trkpt>
      <trkpt lat="49.85124" lon="2.32204">
        <ele>42.7</ele>
        <time>2024-01-12T13:44:18Z</time>
      </trkpt>
      <trkpt lat="49.85123" lon="2.32203">
        <ele>42.7</ele>
        <time>2024-01-12T13:44:19Z</time>
      </trkpt>
      <trkpt lat="49.85122" lon="2.32203">
        <ele>42.7</ele>
        <time>2024-01-12T13:44:20Z</time>
      </trkpt>
      <trkpt lat="49.85121" lon="2.32202">
        <ele>42.7</ele>
        <time>2024-01-12T13:44:21Z</time>
      </trkpt>
      <trkpt lat="49.8512" lon="2.32202">
        <ele>42.7</ele>
        <time>2024-01-12T13:44:22Z</time>
      </trkpt>
      <trkpt lat="49.8512" lon="2.32201">
        <ele>42.7</ele>
        <time>2024-01-12T13:44:23Z</time>
      </trkpt>
      <trkpt lat="49.85119" lon="2.32201">
        <ele>42.7</ele>
        <time>2024-01-12T13:44:24Z</time>
      </trkpt>
      <trkpt lat="49.85119" lon="2.32201">
        <ele>42.7</ele>
        <time>2024-01-12T13:44:25Z</time>
      </trkpt>
      <trkpt lat="49.85118" lon="2.32201">
        <ele>42.7</ele>
        <time>2024-01-12T13:44:26Z</time>
      </trkpt>
      <trkpt lat="49.85118" lon="2.32201">
        <ele>42.7</ele>
        <time>2024-01-12T13:44:27Z</time>
      </trkpt>
      <trkpt lat="49.85118" lon="2.32201">
        <ele>42.7</ele>
        <time>2024-01-12T13:44:28Z</time>
      </trkpt>
      <trkpt lat="49.85117" lon="2.32201">
        <ele>42.7</ele>
        <time>2024-01-12T13:44:29Z</time>
      </trkpt>
      <trkpt lat="49.85117" lon="2.32201">
        <ele>42.7</ele>
        <time>2024-01-12T13:44:30Z</time>
      </trkpt>
      <trkpt lat="49.85116" lon="2.322">
        <ele>42.7</ele>
        <time>2024-01-12T13:44:31Z</time>
      </trkpt>
      <trkpt lat="49.85113" lon="2.32198">
        <ele>42.8</ele>
        <time>2024-01-12T13:44:32Z</time>
      </trkpt>
      <trkpt lat="49.85113" lon="2.32198">
        <ele>42.8</ele>
        <time>2024-01-12T13:44:33Z</time>
      </trkpt>
      <trkpt lat="49.85112" lon="2.32197">
        <ele>42.8</ele>
        <time>2024-01-12T13:44:34Z</time>
      </trkpt>
      <trkpt lat="49.85111" lon="2.32197">
        <ele>42.8</ele>
        <time>2024-01-12T13:44:35Z</time>
      </trkpt>
      <trkpt lat="49.85111" lon="2.32197">
        <ele>42.8</ele>
        <time>2024-01-12T13:44:36Z</time>
      </trkpt>
      <trkpt lat="49.8511" lon="2.32196">
        <ele>42.8</ele>
        <time>2024-01-12T13:44:37Z</time>
      </trkpt>
      <trkpt lat="49.8511" lon="2.32196">
        <ele>42.8</ele>
        <time>2024-01-12T13:44:38Z</time>
      </trkpt>
      <trkpt lat="49.85109" lon="2.32196">
        <ele>42.9</ele>
        <time>2024-01-12T13:44:39Z</time>
      </trkpt>
      <trkpt lat="49.85108" lon="2.32195">
        <ele>42.9</ele>
        <time>2024-01-12T13:44:40Z</time>
      </trkpt>
      <trkpt lat="49.85108" lon="2.32195">
        <ele>42.9</ele>
        <time>2024-01-12T13:44:41Z</time>
      </trkpt>
      <trkpt lat="49.85107" lon="2.32194">
        <ele>42.9</ele>
        <time>2024-01-12T13:44:42Z</time>
      </trkpt>
      <trkpt lat="49.85107" lon="2.32193">
        <ele>42.9</ele>
        <time>2024-01-12T13:44:43Z</time>
      </trkpt>
      <trkpt lat="49.85106" lon="2.32193">
        <ele>42.9</ele>
        <time>2024-01-12T13:44:44Z</time>
      </trkpt>
      <trkpt lat="49.85105" lon="2.32192">
        <ele>42.9</ele>
        <time>2024-01-12T13:44:45Z</time>
      </trkpt>
      <trkpt lat="49.85105" lon="2.32192">
        <ele>42.9</ele>
        <time>2024-01-12T13:44:46Z</time>
      </trkpt>
      <trkpt lat="49.85105" lon="2.32191">
        <ele>43</ele>
        <time>2024-01-12T13:44:47Z</time>
      </trkpt>
      <trkpt lat="49.85104" lon="2.32191">
        <ele>43</ele>
        <time>2024-01-12T13:44:48Z</time>
      </trkpt>
      <trkpt lat="49.85104" lon="2.32191">
        <ele>43</ele>
        <time>2024-01-12T13:44:49Z</time>
      </trkpt>
      <trkpt lat="49.85103" lon="2.3219">
        <ele>43</ele>
        <time>2024-01-12T13:44:50Z</time>
      </trkpt>
      <trkpt lat="49.85102" lon="2.3219">
        <ele>43</ele>
        <time>2024-01-12T13:44:51Z</time>
      </trkpt>
      <trkpt lat="49.85102" lon="2.3219">
        <ele>43</ele>
        <time>2024-01-12T13:44:52Z</time>
      </trkpt>
      <trkpt lat="49.85101" lon="2.32189">
        <ele>43</ele>
        <time>2024-01-12T13:44:53Z</time>
      </trkpt>
      <trkpt lat="49.85101" lon="2.32189">
        <ele>43</ele>
        <time>2024-01-12T13:44:54Z</time>
      </trkpt>
      <trkpt lat="49.85101" lon="2.32189">
        <ele>43</ele>
        <time>2024-01-12T13:44:55Z</time>
      </trkpt>
      <trkpt lat="49.851" lon="2.32189">
        <ele>43</ele>
        <time>2024-01-12T13:44:56Z</time>
      </trkpt>
      <trkpt lat="49.851" lon="2.32188">
        <ele>43</ele>
        <time>2024-01-12T13:44:57Z</time>
      </trkpt>
      <trkpt lat="49.85099" lon="2.32188">
        <ele>43.1</ele>
        <time>2024-01-12T13:44:58Z</time>
      </trkpt>
      <trkpt lat="49.85099" lon="2.32188">
        <ele>43.1</ele>
        <time>2024-01-12T13:44:59Z</time>
      </trkpt>
      <trkpt lat="49.85099" lon="2.32188">
        <ele>43.1</ele>
        <time>2024-01-12T13:45:00Z</time>
      </trkpt>
      <trkpt lat="49.85098" lon="2.32187">
        <ele>43.1</ele>
        <time>2024-01-12T13:45:01Z</time>
      </trkpt>
      <trkpt lat="49.85098" lon="2.32187">
        <ele>43.1</ele>
        <time>2024-01-12T13:45:02Z</time>
      </trkpt>
      <trkpt lat="49.85097" lon="2.32186">
        <ele>43.1</ele>
        <time>2024-01-12T13:45:03Z</time>
      </trkpt>
      <trkpt lat="49.85096" lon="2.32185">
        <ele>43.1</ele>
        <time>2024-01-12T13:45:04Z</time>
      </trkpt>
      <trkpt lat="49.85095" lon="2.32185">
        <ele>43.2</ele>
        <time>2024-01-12T13:45:05Z</time>
      </trkpt>
      <trkpt lat="49.85094" lon="2.32184">
        <ele>43.2</ele>
        <time>2024-01-12T13:45:06Z</time>
      </trkpt>
      <trkpt lat="49.85094" lon="2.32183">
        <ele>43.2</ele>
        <time>2024-01-12T13:45:07Z</time>
      </trkpt>
      <trkpt lat="49.85093" lon="2.32183">
        <ele>43.2</ele>
        <time>2024-01-12T13:45:08Z</time>
      </trkpt>
      <trkpt lat="49.85092" lon="2.32183">
        <ele>43.2</ele>
        <time>2024-01-12T13:45:09Z</time>
      </trkpt>
      <trkpt lat="49.85092" lon="2.32182">
        <ele>43.2</ele>
        <time>2024-01-12T13:45:10Z</time>
      </trkpt>
      <trkpt lat="49.85092" lon="2.32182">
        <ele>43.2</ele>
        <time>2024-01-12T13:45:11Z</time>
      </trkpt>
      <trkpt lat="49.85091" lon="2.32182">
        <ele>43.2</ele>
        <time>2024-01-12T13:45:12Z</time>
      </trkpt>
      <trkpt lat="49.85091" lon="2.32181">
        <ele>43.3</ele>
        <time>2024-01-12T13:45:13Z</time>
      </trkpt>
      <trkpt lat="49.8509" lon="2.32181">
        <ele>43.3</ele>
        <time>2024-01-12T13:45:14Z</time>
      </trkpt>
      <trkpt lat="49.8509" lon="2.32181">
        <ele>43.3</ele>
        <time>2024-01-12T13:45:15Z</time>
      </trkpt>
      <trkpt lat="49.85089" lon="2.32181">
        <ele>43.3</ele>
        <time>2024-01-12T13:45:16Z</time>
      </trkpt>
      <trkpt lat="49.85088" lon="2.3218">
        <ele>43.3</ele>
        <time>2024-01-12T13:45:17Z</time>
      </trkpt>
      <trkpt lat="49.85088" lon="2.3218">
        <ele>43.3</ele>
        <time>2024-01-12T13:45:18Z</time>
      </trkpt>
      <trkpt lat="49.85087" lon="2.3218">
        <ele>43.4</ele>
        <time>2024-01-12T13:45:19Z</time>
      </trkpt>
      <trkpt lat="49.85086" lon="2.32179">
        <ele>43.4</ele>
        <time>2024-01-12T13:45:20Z</time>
      </trkpt>
      <trkpt lat="49.85086" lon="2.32179">
        <ele>43.4</ele>
        <time>2024-01-12T13:45:21Z</time>
      </trkpt>
      <trkpt lat="49.85086" lon="2.32179">
        <ele>43.4</ele>
        <time>2024-01-12T13:45:22Z</time>
      </trkpt>
      <trkpt lat="49.85085" lon="2.32179">
        <ele>43.4</ele>
        <time>2024-01-12T13:45:23Z</time>
      </trkpt>
      <trkpt lat="49.85085" lon="2.32179">
        <ele>43.4</ele>
        <time>2024-01-12T13:45:24Z</time>
      </trkpt>
      <trkpt lat="49.85085" lon="2.32179">
        <ele>43.4</ele>
        <time>2024-01-12T13:45:25Z</time>
      </trkpt>
      <trkpt lat="49.85085" lon="2.32178">
        <ele>43.4</ele>
        <time>2024-01-12T13:45:26Z</time>
      </trkpt>
      <trkpt lat="49.85084" lon="2.32178">
        <ele>43.4</ele>
        <time>2024-01-12T13:45:27Z</time>
      </trkpt>
      <trkpt lat="49.85084" lon="2.32178">
        <ele>43.4</ele>
        <time>2024-01-12T13:45:28Z</time>
      </trkpt>
      <trkpt lat="49.85084" lon="2.32178">
        <ele>43.4</ele>
        <time>2024-01-12T13:45:29Z</time>
      </trkpt>
      <trkpt lat="49.85084" lon="2.32178">
        <ele>43.4</ele>
        <time>2024-01-12T13:45:30Z</time>
      </trkpt>
      <trkpt lat="49.85084" lon="2.32178">
        <ele>43.4</ele>
        <time>2024-01-12T13:45:31Z</time>
      </trkpt>
      <trkpt lat="49.85083" lon="2.32178">
        <ele>43.5</ele>
        <time>2024-01-12T13:45:32Z</time>
      </trkpt>
      <trkpt lat="49.85083" lon="2.32177">
        <ele>43.5</ele>
        <time>2024-01-12T13:45:33Z</time>
      </trkpt>
      <trkpt lat="49.85082" lon="2.32177">
        <ele>43.5</ele>
        <time>2024-01-12T13:45:34Z</time>
      </trkpt>
      <trkpt lat="49.8508" lon="2.32175">
        <ele>43.6</ele>
        <time>2024-01-12T13:45:35Z</time>
      </trkpt>
      <trkpt lat="49.85079" lon="2.32174">
        <ele>43.6</ele>
        <time>2024-01-12T13:45:36Z</time>
      </trkpt>
      <trkpt lat="49.85079" lon="2.32174">
        <ele>43.6</ele>
        <time>2024-01-12T13:45:37Z</time>
      </trkpt>
      <trkpt lat="49.85076" lon="2.32172">
        <ele>43.7</ele>
        <time>2024-01-12T13:45:38Z</time>
      </trkpt>
      <trkpt lat="49.85075" lon="2.32171">
        <ele>43.8</ele>
        <time>2024-01-12T13:45:39Z</time>
      </trkpt>
      <trkpt lat="49.85073" lon="2.32169">
        <ele>43.8</ele>
        <time>2024-01-12T13:45:40Z</time>
      </trkpt>
      <trkpt lat="49.85072" lon="2.32168">
        <ele>43.9</ele>
        <time>2024-01-12T13:45:41Z</time>
      </trkpt>
      <trkpt lat="49.85071" lon="2.32168">
        <ele>43.9</ele>
        <time>2024-01-12T13:45:42Z</time>
      </trkpt>
      <trkpt lat="49.8507" lon="2.32167">
        <ele>43.9</ele>
        <time>2024-01-12T13:45:43Z</time>
      </trkpt>
      <trkpt lat="49.85069" lon="2.32166">
        <ele>44</ele>
        <time>2024-01-12T13:45:44Z</time>
      </trkpt>
      <trkpt lat="49.85069" lon="2.32166">
        <ele>44</ele>
        <time>2024-01-12T13:45:45Z</time>
      </trkpt>
      <trkpt lat="49.85068" lon="2.32165">
        <ele>44</ele>
        <time>2024-01-12T13:45:46Z</time>
      </trkpt>
      <trkpt lat="49.85068" lon="2.32165">
        <ele>44</ele>
        <time>2024-01-12T13:45:47Z</time>
      </trkpt>
      <trkpt lat="49.85068" lon="2.32164">
        <ele>44</ele>
        <time>2024-01-12T13:45:48Z</time>
      </trkpt>
      <trkpt lat="49.85067" lon="2.32164">
        <ele>44</ele>
        <time>2024-01-12T13:45:49Z</time>
      </trkpt>
      <trkpt lat="49.85067" lon="2.32164">
        <ele>44</ele>
        <time>2024-01-12T13:45:50Z</time>
      </trkpt>
      <trkpt lat="49.85067" lon="2.32163">
        <ele>44.1</ele>
        <time>2024-01-12T13:45:51Z</time>
      </trkpt>
      <trkpt lat="49.85066" lon="2.32163">
        <ele>44.1</ele>
        <time>2024-01-12T13:45:52Z</time>
      </trkpt>
      <trkpt lat="49.85066" lon="2.32163">
        <ele>44.1</ele>
        <time>2024-01-12T13:45:53Z</time>
      </trkpt>
      <trkpt lat="49.85066" lon="2.32163">
        <ele>44.1</ele>
        <time>2024-01-12T13:45:54Z</time>
      </trkpt>
      <trkpt lat="49.85066" lon="2.32163">
        <ele>44.1</ele>
        <time>2024-01-12T13:45:55Z</time>
      </trkpt>
      <trkpt lat="49.85065" lon="2.32162">
        <ele>44.1</ele>
        <time>2024-01-12T13:45:56Z</time>
      </trkpt>
      <trkpt lat="49.85065" lon="2.32162">
        <ele>44.1</ele>
        <time>2024-01-12T13:45:57Z</time>
      </trkpt>
      <trkpt lat="49.85065" lon="2.32162">
        <ele>44.1</ele>
        <time>2024-01-12T13:45:58Z</time>
      </trkpt>
      <trkpt lat="49.85064" lon="2.32161">
        <ele>44.1</ele>
        <time>2024-01-12T13:45:59Z</time>
      </trkpt>
      <trkpt lat="49.85063" lon="2.3216">
        <ele>44.2</ele>
        <time>2024-01-12T13:46:00Z</time>
      </trkpt>
      <trkpt lat="49.85063" lon="2.3216">
        <ele>44.2</ele>
        <time>2024-01-12T13:46:01Z</time>
      </trkpt>
      <trkpt lat="49.85062" lon="2.32159">
        <ele>44.2</ele>
        <time>2024-01-12T13:46:02Z</time>
      </trkpt>
      <trkpt lat="49.85062" lon="2.32159">
        <ele>44.2</ele>
        <time>2024-01-12T13:46:03Z</time>
      </trkpt>
      <trkpt lat="49.85061" lon="2.32159">
        <ele>44.2</ele>
        <time>2024-01-12T13:46:04Z</time>
      </trkpt>
      <trkpt lat="49.85061" lon="2.32158">
        <ele>44.2</ele>
        <time>2024-01-12T13:46:05Z</time>
      </trkpt>
      <trkpt lat="49.8506" lon="2.32158">
        <ele>44.2</ele>
        <time>2024-01-12T13:46:06Z</time>
      </trkpt>
      <trkpt lat="49.85059" lon="2.32157">
        <ele>44.3</ele>
        <time>2024-01-12T13:46:07Z</time>
      </trkpt>
      <trkpt lat="49.85059" lon="2.32157">
        <ele>44.3</ele>
        <time>2024-01-12T13:46:08Z</time>
      </trkpt>
      <trkpt lat="49.85058" lon="2.32156">
        <ele>44.3</ele>
        <time>2024-01-12T13:46:09Z</time>
      </trkpt>
      <trkpt lat="49.85057" lon="2.32155">
        <ele>44.3</ele>
        <time>2024-01-12T13:46:10Z</time>
      </trkpt>
      <trkpt lat="49.85056" lon="2.32154">
        <ele>44.3</ele>
        <time>2024-01-12T13:46:11Z</time>
      </trkpt>
      <trkpt lat="49.85056" lon="2.32154">
        <ele>44.4</ele>
        <time>2024-01-12T13:46:12Z</time>
      </trkpt>
      <trkpt lat="49.85055" lon="2.32153">
        <ele>44.4</ele>
        <time>2024-01-12T13:46:13Z</time>
      </trkpt>
      <trkpt lat="49.85054" lon="2.32153">
        <ele>44.4</ele>
        <time>2024-01-12T13:46:14Z</time>
      </trkpt>
      <trkpt lat="49.85053" lon="2.32152">
        <ele>44.4</ele>
        <time>2024-01-12T13:46:15Z</time>
      </trkpt>
      <trkpt lat="49.85052" lon="2.32151">
        <ele>44.4</ele>
        <time>2024-01-12T13:46:16Z</time>
      </trkpt>
      <trkpt lat="49.85051" lon="2.3215">
        <ele>44.4</ele>
        <time>2024-01-12T13:46:17Z</time>
      </trkpt>
      <trkpt lat="49.8505" lon="2.3215">
        <ele>44.5</ele>
        <time>2024-01-12T13:46:18Z</time>
      </trkpt>
      <trkpt lat="49.85049" lon="2.32149">
        <ele>44.5</ele>
        <time>2024-01-12T13:46:19Z</time>
      </trkpt>
      <trkpt lat="49.85047" lon="2.32148">
        <ele>44.5</ele>
        <time>2024-01-12T13:46:20Z</time>
      </trkpt>
      <trkpt lat="49.85046" lon="2.32146">
        <ele>44.5</ele>
        <time>2024-01-12T13:46:21Z</time>
      </trkpt>
      <trkpt lat="49.85045" lon="2.32145">
        <ele>44.5</ele>
        <time>2024-01-12T13:46:22Z</time>
      </trkpt>
      <trkpt lat="49.85042" lon="2.32142">
        <ele>44.6</ele>
        <time>2024-01-12T13:46:23Z</time>
      </trkpt>
      <trkpt lat="49.85041" lon="2.32141">
        <ele>44.6</ele>
        <time>2024-01-12T13:46:24Z</time>
      </trkpt>
      <trkpt lat="49.85038" lon="2.32138">
        <ele>44.6</ele>
        <time>2024-01-12T13:46:25Z</time>
      </trkpt>
      <trkpt lat="49.85037" lon="2.32137">
        <ele>44.6</ele>
        <time>2024-01-12T13:46:26Z</time>
      </trkpt>
      <trkpt lat="49.85036" lon="2.32136">
        <ele>44.7</ele>
        <time>2024-01-12T13:46:27Z</time>
      </trkpt>
      <trkpt lat="49.85035" lon="2.32135">
        <ele>44.7</ele>
        <time>2024-01-12T13:46:28Z</time>
      </trkpt>
      <trkpt lat="49.85035" lon="2.32135">
        <ele>44.7</ele>
        <time>2024-01-12T13:46:29Z</time>
      </trkpt>
      <trkpt lat="49.85034" lon="2.32135">
        <ele>44.7</ele>
        <time>2024-01-12T13:46:30Z</time>
      </trkpt>
      <trkpt lat="49.85034" lon="2.32134">
        <ele>44.7</ele>
        <time>2024-01-12T13:46:31Z</time>
      </trkpt>
      <trkpt lat="49.85034" lon="2.32134">
        <ele>44.7</ele>
        <time>2024-01-12T13:46:32Z</time>
      </trkpt>
      <trkpt lat="49.85033" lon="2.32134">
        <ele>44.7</ele>
        <time>2024-01-12T13:46:33Z</time>
      </trkpt>
      <trkpt lat="49.85033" lon="2.32134">
        <ele>44.7</ele>
        <time>2024-01-12T13:46:34Z</time>
      </trkpt>
      <trkpt lat="49.85033" lon="2.32133">
        <ele>44.7</ele>
        <time>2024-01-12T13:46:35Z</time>
      </trkpt>
      <trkpt lat="49.85032" lon="2.32133">
        <ele>44.7</ele>
        <time>2024-01-12T13:46:36Z</time>
      </trkpt>
      <trkpt lat="49.85032" lon="2.32133">
        <ele>44.7</ele>
        <time>2024-01-12T13:46:37Z</time>
      </trkpt>
      <trkpt lat="49.85032" lon="2.32133">
        <ele>44.7</ele>
        <time>2024-01-12T13:46:38Z</time>
      </trkpt>
      <trkpt lat="49.85031" lon="2.32132">
        <ele>44.8</ele>
        <time>2024-01-12T13:46:39Z</time>
      </trkpt>
      <trkpt lat="49.85031" lon="2.32132">
        <ele>44.8</ele>
        <time>2024-01-12T13:46:40Z</time>
      </trkpt>
      <trkpt lat="49.8503" lon="2.32131">
        <ele>44.8</ele>
        <time>2024-01-12T13:46:41Z</time>
      </trkpt>
      <trkpt lat="49.85029" lon="2.32131">
        <ele>44.8</ele>
        <time>2024-01-12T13:46:42Z</time>
      </trkpt>
      <trkpt lat="49.85028" lon="2.3213">
        <ele>44.8</ele>
        <time>2024-01-12T13:46:43Z</time>
      </trkpt>
      <trkpt lat="49.85027" lon="2.32129">
        <ele>44.8</ele>
        <time>2024-01-12T13:46:44Z</time>
      </trkpt>
      <trkpt lat="49.85027" lon="2.32129">
        <ele>44.8</ele>
        <time>2024-01-12T13:46:45Z</time>
      </trkpt>
      <trkpt lat="49.85026" lon="2.32128">
        <ele>44.9</ele>
        <time>2024-01-12T13:46:46Z</time>
      </trkpt>
      <trkpt lat="49.85025" lon="2.32127">
        <ele>44.9</ele>
        <time>2024-01-12T13:46:47Z</time>
      </trkpt>
      <trkpt lat="49.85024" lon="2.32126">
        <ele>44.9</ele>
        <time>2024-01-12T13:46:48Z</time>
      </trkpt>
      <trkpt lat="49.85023" lon="2.32125">
        <ele>44.9</ele>
        <time>2024-01-12T13:46:49Z</time>
      </trkpt>
      <trkpt lat="49.85023" lon="2.32125">
        <ele>44.9</ele>
        <time>2024-01-12T13:46:50Z</time>
      </trkpt>
      <trkpt lat="49.85022" lon="2.32124">
        <ele>44.9</ele>
        <time>2024-01-12T13:46:51Z</time>
      </trkpt>
      <trkpt lat="49.85022" lon="2.32124">
        <ele>45</ele>
        <time>2024-01-12T13:46:52Z</time>
      </trkpt>
      <trkpt lat="49.85022" lon="2.32124">
        <ele>45</ele>
        <time>2024-01-12T13:46:53Z</time>
      </trkpt>
      <trkpt lat="49.85021" lon="2.32124">
        <ele>45</ele>
        <time>2024-01-12T13:46:54Z</time>
      </trkpt>
      <trkpt lat="49.85021" lon="2.32123">
        <ele>45</ele>
        <time>2024-01-12T13:46:55Z</time>
      </trkpt>
      <trkpt lat="49.85021" lon="2.32123">
        <ele>45</ele>
        <time>2024-01-12T13:46:56Z</time>
      </trkpt>
      <trkpt lat="49.85021" lon="2.32123">
        <ele>45</ele>
        <time>2024-01-12T13:46:57Z</time>
      </trkpt>
      <trkpt lat="49.8502" lon="2.32123">
        <ele>45</ele>
        <time>2024-01-12T13:46:58Z</time>
      </trkpt>
      <trkpt lat="49.8502" lon="2.32123">
        <ele>45</ele>
        <time>2024-01-12T13:46:59Z</time>
      </trkpt>
      <trkpt lat="49.85019" lon="2.32122">
        <ele>45</ele>
        <time>2024-01-12T13:47:00Z</time>
      </trkpt>
      <trkpt lat="49.85018" lon="2.32122">
        <ele>45</ele>
        <time>2024-01-12T13:47:01Z</time>
      </trkpt>
      <trkpt lat="49.85018" lon="2.32121">
        <ele>45</ele>
        <time>2024-01-12T13:47:02Z</time>
      </trkpt>
      <trkpt lat="49.85016" lon="2.32121">
        <ele>45.1</ele>
        <time>2024-01-12T13:47:03Z</time>
      </trkpt>
      <trkpt lat="49.85015" lon="2.3212">
        <ele>45.1</ele>
        <time>2024-01-12T13:47:04Z</time>
      </trkpt>
      <trkpt lat="49.85014" lon="2.3212">
        <ele>45.1</ele>
        <time>2024-01-12T13:47:05Z</time>
      </trkpt>
      <trkpt lat="49.85014" lon="2.3212">
        <ele>45.1</ele>
        <time>2024-01-12T13:47:06Z</time>
      </trkpt>
      <trkpt lat="49.85013" lon="2.32119">
        <ele>45.1</ele>
        <time>2024-01-12T13:47:07Z</time>
      </trkpt>
      <trkpt lat="49.85012" lon="2.32119">
        <ele>45.1</ele>
        <time>2024-01-12T13:47:08Z</time>
      </trkpt>
      <trkpt lat="49.85012" lon="2.32119">
        <ele>45.1</ele>
        <time>2024-01-12T13:47:09Z</time>
      </trkpt>
      <trkpt lat="49.85011" lon="2.32119">
        <ele>45.1</ele>
        <time>2024-01-12T13:47:10Z</time>
      </trkpt>
      <trkpt lat="49.85011" lon="2.32118">
        <ele>45.2</ele>
        <time>2024-01-12T13:47:11Z</time>
      </trkpt>
      <trkpt lat="49.85011" lon="2.32118">
        <ele>45.2</ele>
        <time>2024-01-12T13:47:12Z</time>
      </trkpt>
      <trkpt lat="49.8501" lon="2.32118">
        <ele>45.2</ele>
        <time>2024-01-12T13:47:13Z</time>
      </trkpt>
      <trkpt lat="49.85009" lon="2.32118">
        <ele>45.2</ele>
        <time>2024-01-12T13:47:14Z</time>
      </trkpt>
      <trkpt lat="49.85008" lon="2.32117">
        <ele>45.2</ele>
        <time>2024-01-12T13:47:15Z</time>
      </trkpt>
      <trkpt lat="49.85007" lon="2.32117">
        <ele>45.2</ele>
        <time>2024-01-12T13:47:16Z</time>
      </trkpt>
      <trkpt lat="49.85005" lon="2.32116">
        <ele>45.3</ele>
        <time>2024-01-12T13:47:17Z</time>
      </trkpt>
      <trkpt lat="49.85004" lon="2.32116">
        <ele>45.3</ele>
        <time>2024-01-12T13:47:18Z</time>
      </trkpt>
      <trkpt lat="49.85003" lon="2.32116">
        <ele>45.3</ele>
        <time>2024-01-12T13:47:19Z</time>
      </trkpt>
      <trkpt lat="49.85002" lon="2.32115">
        <ele>45.3</ele>
        <time>2024-01-12T13:47:20Z</time>
      </trkpt>
      <trkpt lat="49.85001" lon="2.32115">
        <ele>45.4</ele>
        <time>2024-01-12T13:47:21Z</time>
      </trkpt>
      <trkpt lat="49.85001" lon="2.32114">
        <ele>45.4</ele>
        <time>2024-01-12T13:47:22Z</time>
      </trkpt>
      <trkpt lat="49.85" lon="2.32114">
        <ele>45.4</ele>
        <time>2024-01-12T13:47:23Z</time>
      </trkpt>
      <trkpt lat="49.84999" lon="2.32113">
        <ele>45.4</ele>
        <time>2024-01-12T13:47:24Z</time>
      </trkpt>
      <trkpt lat="49.84998" lon="2.32113">
        <ele>45.5</ele>
        <time>2024-01-12T13:47:25Z</time>
      </trkpt>
      <trkpt lat="49.84997" lon="2.32112">
        <ele>45.5</ele>
        <time>2024-01-12T13:47:26Z</time>
      </trkpt>
      <trkpt lat="49.84996" lon="2.32112">
        <ele>45.5</ele>
        <time>2024-01-12T13:47:27Z</time>
      </trkpt>
      <trkpt lat="49.84995" lon="2.32111">
        <ele>45.5</ele>
        <time>2024-01-12T13:47:28Z</time>
      </trkpt>
      <trkpt lat="49.84994" lon="2.3211">
        <ele>45.6</ele>
        <time>2024-01-12T13:47:29Z</time>
      </trkpt>
      <trkpt lat="49.84993" lon="2.3211">
        <ele>45.6</ele>
        <time>2024-01-12T13:47:30Z</time>
      </trkpt>
      <trkpt lat="49.84992" lon="2.32109">
        <ele>45.6</ele>
        <time>2024-01-12T13:47:31Z</time>
      </trkpt>
      <trkpt lat="49.84991" lon="2.32108">
        <ele>45.6</ele>
        <time>2024-01-12T13:47:32Z</time>
      </trkpt>
      <trkpt lat="49.8499" lon="2.32107">
        <ele>45.7</ele>
        <time>2024-01-12T13:47:33Z</time>
      </trkpt>
      <trkpt lat="49.84989" lon="2.32106">
        <ele>45.7</ele>
        <time>2024-01-12T13:47:34Z</time>
      </trkpt>
      <trkpt lat="49.84988" lon="2.32106">
        <ele>45.8</ele>
        <time>2024-01-12T13:47:35Z</time>
      </trkpt>
      <trkpt lat="49.84986" lon="2.32104">
        <ele>45.8</ele>
        <time>2024-01-12T13:47:36Z</time>
      </trkpt>
      <trkpt lat="49.84985" lon="2.32104">
        <ele>45.9</ele>
        <time>2024-01-12T13:47:37Z</time>
      </trkpt>
      <trkpt lat="49.84984" lon="2.32103">
        <ele>45.9</ele>
        <time>2024-01-12T13:47:38Z</time>
      </trkpt>
      <trkpt lat="49.84983" lon="2.32102">
        <ele>45.9</ele>
        <time>2024-01-12T13:47:39Z</time>
      </trkpt>
      <trkpt lat="49.84982" lon="2.32101">
        <ele>46</ele>
        <time>2024-01-12T13:47:40Z</time>
      </trkpt>
      <trkpt lat="49.8498" lon="2.32099">
        <ele>46</ele>
        <time>2024-01-12T13:47:41Z</time>
      </trkpt>
      <trkpt lat="49.84979" lon="2.32099">
        <ele>46</ele>
        <time>2024-01-12T13:47:42Z</time>
      </trkpt>
      <trkpt lat="49.84978" lon="2.32098">
        <ele>46.1</ele>
        <time>2024-01-12T13:47:43Z</time>
      </trkpt>
      <trkpt lat="49.84977" lon="2.32097">
        <ele>46.1</ele>
        <time>2024-01-12T13:47:44Z</time>
      </trkpt>
      <trkpt lat="49.84976" lon="2.32097">
        <ele>46.1</ele>
        <time>2024-01-12T13:47:45Z</time>
      </trkpt>
      <trkpt lat="49.84976" lon="2.32097">
        <ele>46.1</ele>
        <time>2024-01-12T13:47:46Z</time>
      </trkpt>
      <trkpt lat="49.84975" lon="2.32096">
        <ele>46.1</ele>
        <time>2024-01-12T13:47:47Z</time>
      </trkpt>
      <trkpt lat="49.84975" lon="2.32096">
        <ele>46.2</ele>
        <time>2024-01-12T13:47:48Z</time>
      </trkpt>
      <trkpt lat="49.84975" lon="2.32096">
        <ele>46.2</ele>
        <time>2024-01-12T13:47:49Z</time>
      </trkpt>
      <trkpt lat="49.84975" lon="2.32096">
        <ele>46.2</ele>
        <time>2024-01-12T13:47:50Z</time>
      </trkpt>
      <trkpt lat="49.84975" lon="2.32096">
        <ele>46.2</ele>
        <time>2024-01-12T13:47:51Z</time>
      </trkpt>
      <trkpt lat="49.84975" lon="2.32096">
        <ele>46.2</ele>
        <time>2024-01-12T13:47:52Z</time>
      </trkpt>
      <trkpt lat="49.84975" lon="2.32096">
        <ele>46.2</ele>
        <time>2024-01-12T13:47:53Z</time>
      </trkpt>
      <trkpt lat="49.84975" lon="2.32096">
        <ele>46.2</ele>
        <time>2024-01-12T13:47:54Z</time>
      </trkpt>
      <trkpt lat="49.84975" lon="2.32096">
        <ele>46.2</ele>
        <time>2024-01-12T13:47:55Z</time>
      </trkpt>
      <trkpt lat="49.84975" lon="2.32096">
        <ele>46.2</ele>
        <time>2024-01-12T13:47:56Z</time>
      </trkpt>
      <trkpt lat="49.84975" lon="2.32096">
        <ele>46.2</ele>
        <time>2024-01-12T13:47:57Z</time>
      </trkpt>
      <trkpt lat="49.84975" lon="2.32096">
        <ele>46.2</ele>
        <time>2024-01-12T13:47:58Z</time>
      </trkpt>
      <trkpt lat="49.84975" lon="2.32096">
        <ele>46.2</ele>
        <time>2024-01-12T13:47:59Z</time>
      </trkpt>
      <trkpt lat="49.84974" lon="2.32095">
        <ele>46.2</ele>
        <time>2024-01-12T13:48:00Z</time>
      </trkpt>
      <trkpt lat="49.84973" lon="2.32095">
        <ele>46.2</ele>
        <time>2024-01-12T13:48:01Z</time>
      </trkpt>
      <trkpt lat="49.84973" lon="2.32095">
        <ele>46.2</ele>
        <time>2024-01-12T13:48:02Z</time>
      </trkpt>
      <trkpt lat="49.84972" lon="2.32095">
        <ele>46.2</ele>
        <time>2024-01-12T13:48:03Z</time>
      </trkpt>
      <trkpt lat="49.84972" lon="2.32095">
        <ele>46.2</ele>
        <time>2024-01-12T13:48:04Z</time>
      </trkpt>
      <trkpt lat="49.84972" lon="2.32095">
        <ele>46.2</ele>
        <time>2024-01-12T13:48:05Z</time>
      </trkpt>
      <trkpt lat="49.84971" lon="2.32096">
        <ele>46.2</ele>
        <time>2024-01-12T13:48:06Z</time>
      </trkpt>
      <trkpt lat="49.84971" lon="2.32096">
        <ele>46.2</ele>
        <time>2024-01-12T13:48:07Z</time>
      </trkpt>
      <trkpt lat="49.84971" lon="2.32096">
        <ele>46.2</ele>
        <time>2024-01-12T13:48:08Z</time>
      </trkpt>
      <trkpt lat="49.8497" lon="2.32097">
        <ele>46.2</ele>
        <time>2024-01-12T13:48:09Z</time>
      </trkpt>
      <trkpt lat="49.8497" lon="2.32097">
        <ele>46.1</ele>
        <time>2024-01-12T13:48:10Z</time>
      </trkpt>
      <trkpt lat="49.8497" lon="2.32097">
        <ele>46.1</ele>
        <time>2024-01-12T13:48:11Z</time>
      </trkpt>
      <trkpt lat="49.8497" lon="2.32097">
        <ele>46.1</ele>
        <time>2024-01-12T13:48:12Z</time>
      </trkpt>
      <trkpt lat="49.84969" lon="2.32098">
        <ele>46.1</ele>
        <time>2024-01-12T13:48:13Z</time>
      </trkpt>
      <trkpt lat="49.84969" lon="2.32098">
        <ele>46.1</ele>
        <time>2024-01-12T13:48:14Z</time>
      </trkpt>
      <trkpt lat="49.84969" lon="2.32098">
        <ele>46.1</ele>
        <time>2024-01-12T13:48:15Z</time>
      </trkpt>
      <trkpt lat="49.84968" lon="2.32099">
        <ele>46.1</ele>
        <time>2024-01-12T13:48:16Z</time>
      </trkpt>
      <trkpt lat="49.84968" lon="2.32099">
        <ele>46.1</ele>
        <time>2024-01-12T13:48:44Z</time>
      </trkpt>
      <trkpt lat="49.84968" lon="2.32099">
        <ele>46.1</ele>
        <time>2024-01-12T13:48:45Z</time>
      </trkpt>
      <trkpt lat="49.84967" lon="2.32099">
        <ele>46.1</ele>
        <time>2024-01-12T13:48:46Z</time>
      </trkpt>
      <trkpt lat="49.84967" lon="2.321">
        <ele>46</ele>
        <time>2024-01-12T13:48:47Z</time>
      </trkpt>
      <trkpt lat="49.84966" lon="2.32101">
        <ele>46</ele>
        <time>2024-01-12T13:48:48Z</time>
      </trkpt>
      <trkpt lat="49.84966" lon="2.32102">
        <ele>46</ele>
        <time>2024-01-12T13:48:49Z</time>
      </trkpt>
      <trkpt lat="49.84965" lon="2.32102">
        <ele>46</ele>
        <time>2024-01-12T13:48:50Z</time>
      </trkpt>
      <trkpt lat="49.84965" lon="2.32103">
        <ele>46</ele>
        <time>2024-01-12T13:48:51Z</time>
      </trkpt>
      <trkpt lat="49.84964" lon="2.32103">
        <ele>46</ele>
        <time>2024-01-12T13:48:52Z</time>
      </trkpt>
      <trkpt lat="49.84964" lon="2.32103">
        <ele>45.9</ele>
        <time>2024-01-12T13:48:53Z</time>
      </trkpt>
      <trkpt lat="49.84963" lon="2.32103">
        <ele>45.9</ele>
        <time>2024-01-12T13:48:54Z</time>
      </trkpt>
      <trkpt lat="49.84962" lon="2.32104">
        <ele>45.9</ele>
        <time>2024-01-12T13:48:55Z</time>
      </trkpt>
      <trkpt lat="49.84962" lon="2.32104">
        <ele>45.9</ele>
        <time>2024-01-12T13:48:56Z</time>
      </trkpt>
      <trkpt lat="49.84961" lon="2.32104">
        <ele>45.8</ele>
        <time>2024-01-12T13:48:57Z</time>
      </trkpt>
      <trkpt lat="49.8496" lon="2.32106">
        <ele>45.8</ele>
        <time>2024-01-12T13:48:58Z</time>
      </trkpt>
      <trkpt lat="49.8496" lon="2.32106">
        <ele>45.8</ele>
        <time>2024-01-12T13:48:59Z</time>
      </trkpt>
      <trkpt lat="49.84959" lon="2.32107">
        <ele>45.8</ele>
        <time>2024-01-12T13:49:00Z</time>
      </trkpt>
      <trkpt lat="49.84958" lon="2.32107">
        <ele>45.8</ele>
        <time>2024-01-12T13:49:01Z</time>
      </trkpt>
      <trkpt lat="49.84958" lon="2.32108">
        <ele>45.7</ele>
        <time>2024-01-12T13:49:02Z</time>
      </trkpt>
      <trkpt lat="49.84957" lon="2.32108">
        <ele>45.7</ele>
        <time>2024-01-12T13:49:03Z</time>
      </trkpt>
      <trkpt lat="49.84957" lon="2.32108">
        <ele>45.7</ele>
        <time>2024-01-12T13:49:04Z</time>
      </trkpt>
      <trkpt lat="49.84956" lon="2.32109">
        <ele>45.7</ele>
        <time>2024-01-12T13:49:05Z</time>
      </trkpt>
      <trkpt lat="49.84956" lon="2.32109">
        <ele>45.7</ele>
        <time>2024-01-12T13:49:06Z</time>
      </trkpt>
      <trkpt lat="49.84956" lon="2.32109">
        <ele>45.7</ele>
        <time>2024-01-12T13:49:07Z</time>
      </trkpt>
      <trkpt lat="49.84955" lon="2.3211">
        <ele>45.7</ele>
        <time>2024-01-12T13:49:08Z</time>
      </trkpt>
      <trkpt lat="49.84955" lon="2.3211">
        <ele>45.6</ele>
        <time>2024-01-12T13:49:09Z</time>
      </trkpt>
      <trkpt lat="49.84955" lon="2.3211">
        <ele>45.6</ele>
        <time>2024-01-12T13:49:10Z</time>
      </trkpt>
      <trkpt lat="49.84955" lon="2.3211">
        <ele>45.6</ele>
        <time>2024-01-12T13:49:11Z</time>
      </trkpt>
      <trkpt lat="49.84955" lon="2.3211">
        <ele>45.6</ele>
        <time>2024-01-12T13:49:12Z</time>
      </trkpt>
      <trkpt lat="49.84955" lon="2.3211">
        <ele>45.6</ele>
        <time>2024-01-12T13:49:13Z</time>
      </trkpt>
      <trkpt lat="49.84955" lon="2.3211">
        <ele>45.6</ele>
        <time>2024-01-12T13:49:14Z</time>
      </trkpt>
      <trkpt lat="49.84955" lon="2.3211">
        <ele>45.6</ele>
        <time>2024-01-12T13:49:15Z</time>
      </trkpt>
      <trkpt lat="49.84955" lon="2.3211">
        <ele>45.6</ele>
        <time>2024-01-12T13:49:16Z</time>
      </trkpt>
      <trkpt lat="49.84955" lon="2.3211">
        <ele>45.6</ele>
        <time>2024-01-12T13:49:17Z</time>
      </trkpt>
      <trkpt lat="49.84955" lon="2.3211">
        <ele>45.6</ele>
        <time>2024-01-12T13:49:18Z</time>
      </trkpt>
      <trkpt lat="49.84954" lon="2.32111">
        <ele>45.6</ele>
        <time>2024-01-12T13:49:19Z</time>
      </trkpt>
      <trkpt lat="49.84955" lon="2.32111">
        <ele>45.6</ele>
        <time>2024-01-12T13:49:20Z</time>
      </trkpt>
      <trkpt lat="49.84955" lon="2.32111">
        <ele>45.6</ele>
        <time>2024-01-12T13:49:21Z</time>
      </trkpt>
      <trkpt lat="49.84955" lon="2.32111">
        <ele>45.6</ele>
        <time>2024-01-12T13:49:22Z</time>
      </trkpt>
      <trkpt lat="49.84955" lon="2.32111">
        <ele>45.6</ele>
        <time>2024-01-12T13:49:23Z</time>
      </trkpt>
      <trkpt lat="49.84955" lon="2.32111">
        <ele>45.6</ele>
        <time>2024-01-12T13:49:24Z</time>
      </trkpt>
      <trkpt lat="49.84955" lon="2.32111">
        <ele>45.6</ele>
        <time>2024-01-12T13:49:25Z</time>
      </trkpt>
      <trkpt lat="49.84955" lon="2.32111">
        <ele>45.6</ele>
        <time>2024-01-12T13:49:26Z</time>
      </trkpt>
      <trkpt lat="49.84955" lon="2.32111">
        <ele>45.6</ele>
        <time>2024-01-12T13:49:27Z</time>
      </trkpt>
      <trkpt lat="49.84955" lon="2.32111">
        <ele>45.6</ele>
        <time>2024-01-12T13:49:28Z</time>
      </trkpt>
      <trkpt lat="49.84955" lon="2.32111">
        <ele>45.6</ele>
        <time>2024-01-12T13:49:29Z</time>
      </trkpt>
      <trkpt lat="49.84955" lon="2.32111">
        <ele>45.6</ele>
        <time>2024-01-12T13:49:30Z</time>
      </trkpt>
      <trkpt lat="49.84955" lon="2.32111">
        <ele>45.6</ele>
        <time>2024-01-12T13:49:31Z</time>
      </trkpt>
      <trkpt lat="49.84955" lon="2.32111">
        <ele>45.6</ele>
        <time>2024-01-12T13:49:32Z</time>
      </trkpt>
      <trkpt lat="49.84955" lon="2.32111">
        <ele>45.6</ele>
        <time>2024-01-12T13:49:33Z</time>
      </trkpt>
      <trkpt lat="49.84955" lon="2.32111">
        <ele>45.6</ele>
        <time>2024-01-12T13:49:34Z</time>
      </trkpt>
      <trkpt lat="49.84955" lon="2.32111">
        <ele>45.6</ele>
        <time>2024-01-12T13:49:35Z</time>
      </trkpt>
      <trkpt lat="49.84955" lon="2.32111">
        <ele>45.6</ele>
        <time>2024-01-12T13:49:36Z</time>
      </trkpt>
      <trkpt lat="49.84955" lon="2.32112">
        <ele>45.6</ele>
        <time>2024-01-12T13:49:37Z</time>
      </trkpt>
      <trkpt lat="49.84955" lon="2.32113">
        <ele>45.6</ele>
        <time>2024-01-12T13:49:38Z</time>
      </trkpt>
      <trkpt lat="49.84955" lon="2.32114">
        <ele>45.5</ele>
        <time>2024-01-12T13:49:39Z</time>
      </trkpt>
      <trkpt lat="49.84955" lon="2.32115">
        <ele>45.5</ele>
        <time>2024-01-12T13:49:40Z</time>
      </trkpt>
      <trkpt lat="49.84955" lon="2.32117">
        <ele>45.5</ele>
        <time>2024-01-12T13:49:41Z</time>
      </trkpt>
      <trkpt lat="49.84955" lon="2.32118">
        <ele>45.5</ele>
        <time>2024-01-12T13:49:42Z</time>
      </trkpt>
      <trkpt lat="49.84955" lon="2.3212">
        <ele>45.4</ele>
        <time>2024-01-12T13:49:43Z</time>
      </trkpt>
      <trkpt lat="49.84955" lon="2.32122">
        <ele>45.4</ele>
        <time>2024-01-12T13:49:44Z</time>
      </trkpt>
      <trkpt lat="49.84955" lon="2.32123">
        <ele>45.4</ele>
        <time>2024-01-12T13:49:45Z</time>
      </trkpt>
      <trkpt lat="49.84955" lon="2.32124">
        <ele>45.4</ele>
        <time>2024-01-12T13:49:46Z</time>
      </trkpt>
      <trkpt lat="49.84955" lon="2.32126">
        <ele>45.3</ele>
        <time>2024-01-12T13:49:47Z</time>
      </trkpt>
      <trkpt lat="49.84955" lon="2.32126">
        <ele>45.3</ele>
        <time>2024-01-12T13:49:48Z</time>
      </trkpt>
      <trkpt lat="49.84955" lon="2.32127">
        <ele>45.3</ele>
        <time>2024-01-12T13:49:49Z</time>
      </trkpt>
      <trkpt lat="49.84955" lon="2.32128">
        <ele>45.3</ele>
        <time>2024-01-12T13:49:50Z</time>
      </trkpt>
      <trkpt lat="49.84955" lon="2.32128">
        <ele>45.3</ele>
        <time>2024-01-12T13:49:51Z</time>
      </trkpt>
      <trkpt lat="49.84955" lon="2.32129">
        <ele>45.3</ele>
        <time>2024-01-12T13:49:52Z</time>
      </trkpt>
      <trkpt lat="49.84955" lon="2.32129">
        <ele>45.3</ele>
        <time>2024-01-12T13:49:53Z</time>
      </trkpt>
      <trkpt lat="49.84955" lon="2.3213">
        <ele>45.3</ele>
        <time>2024-01-12T13:49:54Z</time>
      </trkpt>
      <trkpt lat="49.84955" lon="2.3213">
        <ele>45.3</ele>
        <time>2024-01-12T13:49:55Z</time>
      </trkpt>
      <trkpt lat="49.84954" lon="2.3213">
        <ele>45.3</ele>
        <time>2024-01-12T13:49:56Z</time>
      </trkpt>
      <trkpt lat="49.84954" lon="2.3213">
        <ele>45.3</ele>
        <time>2024-01-12T13:49:57Z</time>
      </trkpt>
      <trkpt lat="49.84954" lon="2.3213">
        <ele>45.3</ele>
        <time>2024-01-12T13:49:58Z</time>
      </trkpt>
      <trkpt lat="49.84954" lon="2.32131">
        <ele>45.3</ele>
        <time>2024-01-12T13:49:59Z</time>
      </trkpt>
      <trkpt lat="49.84954" lon="2.32131">
        <ele>45.3</ele>
        <time>2024-01-12T13:50:00Z</time>
      </trkpt>
      <trkpt lat="49.84954" lon="2.32131">
        <ele>45.3</ele>
        <time>2024-01-12T13:50:01Z</time>
      </trkpt>
      <trkpt lat="49.84954" lon="2.32131">
        <ele>45.3</ele>
        <time>2024-01-12T13:50:02Z</time>
      </trkpt>
      <trkpt lat="49.84954" lon="2.32131">
        <ele>45.3</ele>
        <time>2024-01-12T13:50:03Z</time>
      </trkpt>
      <trkpt lat="49.84954" lon="2.32131">
        <ele>45.3</ele>
        <time>2024-01-12T13:50:04Z</time>
      </trkpt>
      <trkpt lat="49.84954" lon="2.32131">
        <ele>45.3</ele>
        <time>2024-01-12T13:50:05Z</time>
      </trkpt>
      <trkpt lat="49.84954" lon="2.32131">
        <ele>45.3</ele>
        <time>2024-01-12T13:50:06Z</time>
      </trkpt>
      <trkpt lat="49.84955" lon="2.32132">
        <ele>45.2</ele>
        <time>2024-01-12T13:50:07Z</time>
      </trkpt>
      <trkpt lat="49.84955" lon="2.32132">
        <ele>45.2</ele>
        <time>2024-01-12T13:50:08Z</time>
      </trkpt>
      <trkpt lat="49.84955" lon="2.32133">
        <ele>45.2</ele>
        <time>2024-01-12T13:50:09Z</time>
      </trkpt>
      <trkpt lat="49.84955" lon="2.32134">
        <ele>45.2</ele>
        <time>2024-01-12T13:50:10Z</time>
      </trkpt>
      <trkpt lat="49.84955" lon="2.32135">
        <ele>45.2</ele>
        <time>2024-01-12T13:50:11Z</time>
      </trkpt>
      <trkpt lat="49.84956" lon="2.32135">
        <ele>45.2</ele>
        <time>2024-01-12T13:50:12Z</time>
      </trkpt>
      <trkpt lat="49.84956" lon="2.32136">
        <ele>45.2</ele>
        <time>2024-01-12T13:50:13Z</time>
      </trkpt>
      <trkpt lat="49.84956" lon="2.32137">
        <ele>45.2</ele>
        <time>2024-01-12T13:50:14Z</time>
      </trkpt>
      <trkpt lat="49.84956" lon="2.32138">
        <ele>45.2</ele>
        <time>2024-01-12T13:50:15Z</time>
      </trkpt>
      <trkpt lat="49.84957" lon="2.32139">
        <ele>45.2</ele>
        <time>2024-01-12T13:50:16Z</time>
      </trkpt>
      <trkpt lat="49.84957" lon="2.3214">
        <ele>45.1</ele>
        <time>2024-01-12T13:50:17Z</time>
      </trkpt>
      <trkpt lat="49.84957" lon="2.32141">
        <ele>45.1</ele>
        <time>2024-01-12T13:50:18Z</time>
      </trkpt>
      <trkpt lat="49.84958" lon="2.32142">
        <ele>45.1</ele>
        <time>2024-01-12T13:50:19Z</time>
      </trkpt>
      <trkpt lat="49.84958" lon="2.32143">
        <ele>45.1</ele>
        <time>2024-01-12T13:50:20Z</time>
      </trkpt>
      <trkpt lat="49.8496" lon="2.32145">
        <ele>45.1</ele>
        <time>2024-01-12T13:50:21Z</time>
      </trkpt>
      <trkpt lat="49.84961" lon="2.32146">
        <ele>45</ele>
        <time>2024-01-12T13:50:22Z</time>
      </trkpt>
      <trkpt lat="49.84961" lon="2.32147">
        <ele>45</ele>
        <time>2024-01-12T13:50:23Z</time>
      </trkpt>
      <trkpt lat="49.84962" lon="2.32148">
        <ele>45</ele>
        <time>2024-01-12T13:50:24Z</time>
      </trkpt>
      <trkpt lat="49.84963" lon="2.3215">
        <ele>45</ele>
        <time>2024-01-12T13:50:25Z</time>
      </trkpt>
      <trkpt lat="49.84965" lon="2.32151">
        <ele>44.9</ele>
        <time>2024-01-12T13:50:26Z</time>
      </trkpt>
      <trkpt lat="49.84965" lon="2.32152">
        <ele>44.9</ele>
        <time>2024-01-12T13:50:27Z</time>
      </trkpt>
      <trkpt lat="49.84966" lon="2.32152">
        <ele>44.9</ele>
        <time>2024-01-12T13:50:28Z</time>
      </trkpt>
      <trkpt lat="49.84967" lon="2.32153">
        <ele>44.9</ele>
        <time>2024-01-12T13:50:29Z</time>
      </trkpt>
      <trkpt lat="49.84968" lon="2.32153">
        <ele>44.9</ele>
        <time>2024-01-12T13:50:30Z</time>
      </trkpt>
      <trkpt lat="49.84969" lon="2.32154">
        <ele>44.9</ele>
        <time>2024-01-12T13:50:31Z</time>
      </trkpt>
      <trkpt lat="49.84969" lon="2.32154">
        <ele>44.8</ele>
        <time>2024-01-12T13:50:32Z</time>
      </trkpt>
      <trkpt lat="49.8497" lon="2.32154">
        <ele>44.8</ele>
        <time>2024-01-12T13:50:33Z</time>
      </trkpt>
      <trkpt lat="49.84971" lon="2.32154">
        <ele>44.8</ele>
        <time>2024-01-12T13:50:34Z</time>
      </trkpt>
      <trkpt lat="49.84971" lon="2.32154">
        <ele>44.8</ele>
        <time>2024-01-12T13:50:35Z</time>
      </trkpt>
      <trkpt lat="49.84972" lon="2.32154">
        <ele>44.8</ele>
        <time>2024-01-12T13:50:36Z</time>
      </trkpt>
      <trkpt lat="49.84972" lon="2.32154">
        <ele>44.8</ele>
        <time>2024-01-12T13:50:37Z</time>
      </trkpt>
      <trkpt lat="49.84973" lon="2.32154">
        <ele>44.8</ele>
        <time>2024-01-12T13:50:38Z</time>
      </trkpt>
      <trkpt lat="49.84973" lon="2.32154">
        <ele>44.8</ele>
        <time>2024-01-12T13:50:39Z</time>
      </trkpt>
      <trkpt lat="49.84974" lon="2.32154">
        <ele>44.8</ele>
        <time>2024-01-12T13:50:40Z</time>
      </trkpt>
      <trkpt lat="49.84974" lon="2.32154">
        <ele>44.8</ele>
        <time>2024-01-12T13:50:41Z</time>
      </trkpt>
      <trkpt lat="49.84975" lon="2.32153">
        <ele>44.7</ele>
        <time>2024-01-12T13:50:42Z</time>
      </trkpt>
      <trkpt lat="49.84975" lon="2.32153">
        <ele>44.7</ele>
        <time>2024-01-12T13:50:43Z</time>
      </trkpt>
      <trkpt lat="49.84975" lon="2.32153">
        <ele>44.7</ele>
        <time>2024-01-12T13:50:44Z</time>
      </trkpt>
      <trkpt lat="49.84975" lon="2.32152">
        <ele>44.7</ele>
        <time>2024-01-12T13:50:45Z</time>
      </trkpt>
      <trkpt lat="49.84976" lon="2.32152">
        <ele>44.7</ele>
        <time>2024-01-12T13:50:46Z</time>
      </trkpt>
      <trkpt lat="49.84976" lon="2.32151">
        <ele>44.7</ele>
        <time>2024-01-12T13:50:47Z</time>
      </trkpt>
      <trkpt lat="49.84976" lon="2.3215">
        <ele>44.7</ele>
        <time>2024-01-12T13:50:48Z</time>
      </trkpt>
      <trkpt lat="49.84977" lon="2.32149">
        <ele>44.7</ele>
        <time>2024-01-12T13:50:49Z</time>
      </trkpt>
      <trkpt lat="49.84977" lon="2.32148">
        <ele>44.7</ele>
        <time>2024-01-12T13:50:50Z</time>
      </trkpt>
      <trkpt lat="49.84978" lon="2.32147">
        <ele>44.6</ele>
        <time>2024-01-12T13:50:51Z</time>
      </trkpt>
      <trkpt lat="49.84978" lon="2.32146">
        <ele>44.6</ele>
        <time>2024-01-12T13:50:52Z</time>
      </trkpt>
      <trkpt lat="49.84979" lon="2.32145">
        <ele>44.6</ele>
        <time>2024-01-12T13:50:53Z</time>
      </trkpt>
      <trkpt lat="49.84979" lon="2.32144">
        <ele>44.6</ele>
        <time>2024-01-12T13:50:54Z</time>
      </trkpt>
      <trkpt lat="49.8498" lon="2.32143">
        <ele>44.6</ele>
        <time>2024-01-12T13:50:55Z</time>
      </trkpt>
      <trkpt lat="49.8498" lon="2.32143">
        <ele>44.6</ele>
        <time>2024-01-12T13:50:56Z</time>
      </trkpt>
      <trkpt lat="49.8498" lon="2.32142">
        <ele>44.6</ele>
        <time>2024-01-12T13:50:57Z</time>
      </trkpt>
      <trkpt lat="49.84981" lon="2.32142">
        <ele>44.6</ele>
        <time>2024-01-12T13:50:58Z</time>
      </trkpt>
      <trkpt lat="49.84981" lon="2.32142">
        <ele>44.6</ele>
        <time>2024-01-12T13:50:59Z</time>
      </trkpt>
      <trkpt lat="49.84982" lon="2.32142">
        <ele>44.6</ele>
        <time>2024-01-12T13:51:00Z</time>
      </trkpt>
      <trkpt lat="49.84982" lon="2.32142">
        <ele>44.6</ele>
        <time>2024-01-12T13:51:01Z</time>
      </trkpt>
      <trkpt lat="49.84983" lon="2.32142">
        <ele>44.6</ele>
        <time>2024-01-12T13:51:02Z</time>
      </trkpt>
      <trkpt lat="49.84984" lon="2.32142">
        <ele>44.6</ele>
        <time>2024-01-12T13:51:03Z</time>
      </trkpt>
      <trkpt lat="49.84985" lon="2.32142">
        <ele>44.5</ele>
        <time>2024-01-12T13:51:04Z</time>
      </trkpt>
      <trkpt lat="49.84986" lon="2.32141">
        <ele>44.5</ele>
        <time>2024-01-12T13:51:05Z</time>
      </trkpt>
      <trkpt lat="49.84987" lon="2.32141">
        <ele>44.5</ele>
        <time>2024-01-12T13:51:06Z</time>
      </trkpt>
      <trkpt lat="49.84988" lon="2.32141">
        <ele>44.5</ele>
        <time>2024-01-12T13:51:07Z</time>
      </trkpt>
      <trkpt lat="49.84988" lon="2.32142">
        <ele>44.5</ele>
        <time>2024-01-12T13:51:08Z</time>
      </trkpt>
      <trkpt lat="49.84989" lon="2.32142">
        <ele>44.5</ele>
        <time>2024-01-12T13:51:09Z</time>
      </trkpt>
      <trkpt lat="49.84989" lon="2.32142">
        <ele>44.5</ele>
        <time>2024-01-12T13:51:10Z</time>
      </trkpt>
      <trkpt lat="49.84989" lon="2.32142">
        <ele>44.5</ele>
        <time>2024-01-12T13:51:11Z</time>
      </trkpt>
      <trkpt lat="49.8499" lon="2.32142">
        <ele>44.5</ele>
        <time>2024-01-12T13:51:12Z</time>
      </trkpt>
      <trkpt lat="49.8499" lon="2.32142">
        <ele>44.5</ele>
        <time>2024-01-12T13:51:13Z</time>
      </trkpt>
      <trkpt lat="49.84991" lon="2.32142">
        <ele>44.5</ele>
        <time>2024-01-12T13:51:14Z</time>
      </trkpt>
      <trkpt lat="49.84991" lon="2.32143">
        <ele>44.5</ele>
        <time>2024-01-12T13:51:15Z</time>
      </trkpt>
      <trkpt lat="49.84992" lon="2.32143">
        <ele>44.4</ele>
        <time>2024-01-12T13:51:16Z</time>
      </trkpt>
      <trkpt lat="49.84993" lon="2.32143">
        <ele>44.4</ele>
        <time>2024-01-12T13:51:17Z</time>
      </trkpt>
      <trkpt lat="49.84994" lon="2.32144">
        <ele>44.4</ele>
        <time>2024-01-12T13:51:18Z</time>
      </trkpt>
      <trkpt lat="49.84995" lon="2.32144">
        <ele>44.4</ele>
        <time>2024-01-12T13:51:19Z</time>
      </trkpt>
      <trkpt lat="49.84995" lon="2.32145">
        <ele>44.4</ele>
        <time>2024-01-12T13:51:20Z</time>
      </trkpt>
      <trkpt lat="49.84996" lon="2.32145">
        <ele>44.4</ele>
        <time>2024-01-12T13:51:21Z</time>
      </trkpt>
      <trkpt lat="49.84997" lon="2.32146">
        <ele>44.4</ele>
        <time>2024-01-12T13:51:22Z</time>
      </trkpt>
      <trkpt lat="49.84999" lon="2.32146">
        <ele>44.3</ele>
        <time>2024-01-12T13:51:23Z</time>
      </trkpt>
      <trkpt lat="49.85" lon="2.32147">
        <ele>44.3</ele>
        <time>2024-01-12T13:51:24Z</time>
      </trkpt>
      <trkpt lat="49.85001" lon="2.32147">
        <ele>44.3</ele>
        <time>2024-01-12T13:51:25Z</time>
      </trkpt>
      <trkpt lat="49.85003" lon="2.32148">
        <ele>44.2</ele>
        <time>2024-01-12T13:51:26Z</time>
      </trkpt>
      <trkpt lat="49.85004" lon="2.32148">
        <ele>44.2</ele>
        <time>2024-01-12T13:51:27Z</time>
      </trkpt>
      <trkpt lat="49.85005" lon="2.32149">
        <ele>44.2</ele>
        <time>2024-01-12T13:51:28Z</time>
      </trkpt>
      <trkpt lat="49.85006" lon="2.32149">
        <ele>44.1</ele>
        <time>2024-01-12T13:51:29Z</time>
      </trkpt>
      <trkpt lat="49.85007" lon="2.3215">
        <ele>44.1</ele>
        <time>2024-01-12T13:51:30Z</time>
      </trkpt>
      <trkpt lat="49.85009" lon="2.32151">
        <ele>44.1</ele>
        <time>2024-01-12T13:51:31Z</time>
      </trkpt>
      <trkpt lat="49.8501" lon="2.32151">
        <ele>44</ele>
        <time>2024-01-12T13:51:32Z</time>
      </trkpt>
      <trkpt lat="49.85011" lon="2.32152">
        <ele>44</ele>
        <time>2024-01-12T13:51:33Z</time>
      </trkpt>
      <trkpt lat="49.85013" lon="2.32152">
        <ele>44</ele>
        <time>2024-01-12T13:51:34Z</time>
      </trkpt>
      <trkpt lat="49.85014" lon="2.32153">
        <ele>43.9</ele>
        <time>2024-01-12T13:51:35Z</time>
      </trkpt>
      <trkpt lat="49.85015" lon="2.32154">
        <ele>43.9</ele>
        <time>2024-01-12T13:51:36Z</time>
      </trkpt>
      <trkpt lat="49.85017" lon="2.32154">
        <ele>43.8</ele>
        <time>2024-01-12T13:51:37Z</time>
      </trkpt>
      <trkpt lat="49.85018" lon="2.32155">
        <ele>43.8</ele>
        <time>2024-01-12T13:51:38Z</time>
      </trkpt>
      <trkpt lat="49.8502" lon="2.32156">
        <ele>43.7</ele>
        <time>2024-01-12T13:51:39Z</time>
      </trkpt>
      <trkpt lat="49.85022" lon="2.32157">
        <ele>43.6</ele>
        <time>2024-01-12T13:51:40Z</time>
      </trkpt>
      <trkpt lat="49.85023" lon="2.32158">
        <ele>43.6</ele>
        <time>2024-01-12T13:51:41Z</time>
      </trkpt>
      <trkpt lat="49.85025" lon="2.32158">
        <ele>43.5</ele>
        <time>2024-01-12T13:51:42Z</time>
      </trkpt>
      <trkpt lat="49.85027" lon="2.32159">
        <ele>43.5</ele>
        <time>2024-01-12T13:51:43Z</time>
      </trkpt>
      <trkpt lat="49.85028" lon="2.3216">
        <ele>43.4</ele>
        <time>2024-01-12T13:51:44Z</time>
      </trkpt>
      <trkpt lat="49.85029" lon="2.3216">
        <ele>43.4</ele>
        <time>2024-01-12T13:51:45Z</time>
      </trkpt>
      <trkpt lat="49.85032" lon="2.32162">
        <ele>43.3</ele>
        <time>2024-01-12T13:51:46Z</time>
      </trkpt>
      <trkpt lat="49.85032" lon="2.32162">
        <ele>43.3</ele>
        <time>2024-01-12T13:51:47Z</time>
      </trkpt>
      <trkpt lat="49.85033" lon="2.32162">
        <ele>43.3</ele>
        <time>2024-01-12T13:51:48Z</time>
      </trkpt>
      <trkpt lat="49.85034" lon="2.32163">
        <ele>43.3</ele>
        <time>2024-01-12T13:51:49Z</time>
      </trkpt>
      <trkpt lat="49.85035" lon="2.32164">
        <ele>43.2</ele>
        <time>2024-01-12T13:51:50Z</time>
      </trkpt>
      <trkpt lat="49.85036" lon="2.32164">
        <ele>43.2</ele>
        <time>2024-01-12T13:51:51Z</time>
      </trkpt>
      <trkpt lat="49.85037" lon="2.32165">
        <ele>43.2</ele>
        <time>2024-01-12T13:51:52Z</time>
      </trkpt>
      <trkpt lat="49.85038" lon="2.32165">
        <ele>43.2</ele>
        <time>2024-01-12T13:51:53Z</time>
      </trkpt>
      <trkpt lat="49.85039" lon="2.32166">
        <ele>43.1</ele>
        <time>2024-01-12T13:51:54Z</time>
      </trkpt>
      <trkpt lat="49.8504" lon="2.32166">
        <ele>43.1</ele>
        <time>2024-01-12T13:51:55Z</time>
      </trkpt>
      <trkpt lat="49.85041" lon="2.32167">
        <ele>43.1</ele>
        <time>2024-01-12T13:51:56Z</time>
      </trkpt>
      <trkpt lat="49.85042" lon="2.32168">
        <ele>43.1</ele>
        <time>2024-01-12T13:51:57Z</time>
      </trkpt>
      <trkpt lat="49.85043" lon="2.32169">
        <ele>43.1</ele>
        <time>2024-01-12T13:51:58Z</time>
      </trkpt>
      <trkpt lat="49.85043" lon="2.3217">
        <ele>43</ele>
        <time>2024-01-12T13:51:59Z</time>
      </trkpt>
      <trkpt lat="49.85044" lon="2.32171">
        <ele>43</ele>
        <time>2024-01-12T13:52:00Z</time>
      </trkpt>
      <trkpt lat="49.85045" lon="2.32172">
        <ele>43</ele>
        <time>2024-01-12T13:52:01Z</time>
      </trkpt>
      <trkpt lat="49.85046" lon="2.32173">
        <ele>43</ele>
        <time>2024-01-12T13:52:02Z</time>
      </trkpt>
      <trkpt lat="49.85046" lon="2.32174">
        <ele>43</ele>
        <time>2024-01-12T13:52:03Z</time>
      </trkpt>
      <trkpt lat="49.85047" lon="2.32175">
        <ele>43</ele>
        <time>2024-01-12T13:52:04Z</time>
      </trkpt>
      <trkpt lat="49.85048" lon="2.32176">
        <ele>42.9</ele>
        <time>2024-01-12T13:52:05Z</time>
      </trkpt>
      <trkpt lat="49.85049" lon="2.32177">
        <ele>42.9</ele>
        <time>2024-01-12T13:52:06Z</time>
      </trkpt>
      <trkpt lat="49.8505" lon="2.32178">
        <ele>42.9</ele>
        <time>2024-01-12T13:52:07Z</time>
      </trkpt>
      <trkpt lat="49.85051" lon="2.32178">
        <ele>42.9</ele>
        <time>2024-01-12T13:52:08Z</time>
      </trkpt>
      <trkpt lat="49.85052" lon="2.32179">
        <ele>42.9</ele>
        <time>2024-01-12T13:52:09Z</time>
      </trkpt>
      <trkpt lat="49.85053" lon="2.3218">
        <ele>42.8</ele>
        <time>2024-01-12T13:52:10Z</time>
      </trkpt>
      <trkpt lat="49.85054" lon="2.3218">
        <ele>42.8</ele>
        <time>2024-01-12T13:52:11Z</time>
      </trkpt>
      <trkpt lat="49.85055" lon="2.32181">
        <ele>42.8</ele>
        <time>2024-01-12T13:52:12Z</time>
      </trkpt>
      <trkpt lat="49.85055" lon="2.32181">
        <ele>42.8</ele>
        <time>2024-01-12T13:52:13Z</time>
      </trkpt>
      <trkpt lat="49.85056" lon="2.32182">
        <ele>42.8</ele>
        <time>2024-01-12T13:52:14Z</time>
      </trkpt>
      <trkpt lat="49.85057" lon="2.32182">
        <ele>42.8</ele>
        <time>2024-01-12T13:52:15Z</time>
      </trkpt>
      <trkpt lat="49.85058" lon="2.32183">
        <ele>42.7</ele>
        <time>2024-01-12T13:52:16Z</time>
      </trkpt>
      <trkpt lat="49.85059" lon="2.32184">
        <ele>42.7</ele>
        <time>2024-01-12T13:52:17Z</time>
      </trkpt>
      <trkpt lat="49.8506" lon="2.32185">
        <ele>42.7</ele>
        <time>2024-01-12T13:52:18Z</time>
      </trkpt>
      <trkpt lat="49.8506" lon="2.32186">
        <ele>42.7</ele>
        <time>2024-01-12T13:52:19Z</time>
      </trkpt>
      <trkpt lat="49.85061" lon="2.32186">
        <ele>42.7</ele>
        <time>2024-01-12T13:52:20Z</time>
      </trkpt>
      <trkpt lat="49.85062" lon="2.32187">
        <ele>42.7</ele>
        <time>2024-01-12T13:52:21Z</time>
      </trkpt>
      <trkpt lat="49.85064" lon="2.32188">
        <ele>42.7</ele>
        <time>2024-01-12T13:52:22Z</time>
      </trkpt>
      <trkpt lat="49.85064" lon="2.32188">
        <ele>42.7</ele>
        <time>2024-01-12T13:52:23Z</time>
      </trkpt>
      <trkpt lat="49.85065" lon="2.32188">
        <ele>42.7</ele>
        <time>2024-01-12T13:52:24Z</time>
      </trkpt>
      <trkpt lat="49.85065" lon="2.32189">
        <ele>42.7</ele>
        <time>2024-01-12T13:52:25Z</time>
      </trkpt>
      <trkpt lat="49.85066" lon="2.32189">
        <ele>42.7</ele>
        <time>2024-01-12T13:52:26Z</time>
      </trkpt>
      <trkpt lat="49.85067" lon="2.3219">
        <ele>42.7</ele>
        <time>2024-01-12T13:52:27Z</time>
      </trkpt>
      <trkpt lat="49.85068" lon="2.3219">
        <ele>42.6</ele>
        <time>2024-01-12T13:52:28Z</time>
      </trkpt>
      <trkpt lat="49.85069" lon="2.32191">
        <ele>42.6</ele>
        <time>2024-01-12T13:52:29Z</time>
      </trkpt>
      <trkpt lat="49.8507" lon="2.32191">
        <ele>42.6</ele>
        <time>2024-01-12T13:52:30Z</time>
      </trkpt>
      <trkpt lat="49.85071" lon="2.32191">
        <ele>42.6</ele>
        <time>2024-01-12T13:52:31Z</time>
      </trkpt>
      <trkpt lat="49.85072" lon="2.32192">
        <ele>42.6</ele>
        <time>2024-01-12T13:52:32Z</time>
      </trkpt>
      <trkpt lat="49.85073" lon="2.32193">
        <ele>42.6</ele>
        <time>2024-01-12T13:52:33Z</time>
      </trkpt>
      <trkpt lat="49.85074" lon="2.32193">
        <ele>42.6</ele>
        <time>2024-01-12T13:52:34Z</time>
      </trkpt>
      <trkpt lat="49.85074" lon="2.32193">
        <ele>42.6</ele>
        <time>2024-01-12T13:52:35Z</time>
      </trkpt>
      <trkpt lat="49.85075" lon="2.32194">
        <ele>42.6</ele>
        <time>2024-01-12T13:52:36Z</time>
      </trkpt>
      <trkpt lat="49.85076" lon="2.32194">
        <ele>42.6</ele>
        <time>2024-01-12T13:52:37Z</time>
      </trkpt>
      <trkpt lat="49.85077" lon="2.32195">
        <ele>42.6</ele>
        <time>2024-01-12T13:52:38Z</time>
      </trkpt>
      <trkpt lat="49.85079" lon="2.32196">
        <ele>42.6</ele>
        <time>2024-01-12T13:52:39Z</time>
      </trkpt>
      <trkpt lat="49.8508" lon="2.32196">
        <ele>42.6</ele>
        <time>2024-01-12T13:52:40Z</time>
      </trkpt>
      <trkpt lat="49.8508" lon="2.32197">
        <ele>42.6</ele>
        <time>2024-01-12T13:52:41Z</time>
      </trkpt>
      <trkpt lat="49.85081" lon="2.32197">
        <ele>42.6</ele>
        <time>2024-01-12T13:52:42Z</time>
      </trkpt>
      <trkpt lat="49.85082" lon="2.32197">
        <ele>42.6</ele>
        <time>2024-01-12T13:52:43Z</time>
      </trkpt>
      <trkpt lat="49.85083" lon="2.32198">
        <ele>42.6</ele>
        <time>2024-01-12T13:52:44Z</time>
      </trkpt>
      <trkpt lat="49.85084" lon="2.32198">
        <ele>42.6</ele>
        <time>2024-01-12T13:52:45Z</time>
      </trkpt>
      <trkpt lat="49.85085" lon="2.32199">
        <ele>42.6</ele>
        <time>2024-01-12T13:52:46Z</time>
      </trkpt>
      <trkpt lat="49.85087" lon="2.322">
        <ele>42.6</ele>
        <time>2024-01-12T13:52:47Z</time>
      </trkpt>
      <trkpt lat="49.85089" lon="2.322">
        <ele>42.6</ele>
        <time>2024-01-12T13:52:48Z</time>
      </trkpt>
      <trkpt lat="49.85089" lon="2.32201">
        <ele>42.6</ele>
        <time>2024-01-12T13:52:49Z</time>
      </trkpt>
      <trkpt lat="49.8509" lon="2.32201">
        <ele>42.6</ele>
        <time>2024-01-12T13:52:50Z</time>
      </trkpt>
      <trkpt lat="49.85091" lon="2.32202">
        <ele>42.6</ele>
        <time>2024-01-12T13:52:51Z</time>
      </trkpt>
      <trkpt lat="49.85092" lon="2.32202">
        <ele>42.6</ele>
        <time>2024-01-12T13:52:52Z</time>
      </trkpt>
      <trkpt lat="49.85093" lon="2.32203">
        <ele>42.6</ele>
        <time>2024-01-12T13:52:53Z</time>
      </trkpt>
      <trkpt lat="49.85094" lon="2.32203">
        <ele>42.6</ele>
        <time>2024-01-12T13:52:54Z</time>
      </trkpt>
      <trkpt lat="49.85095" lon="2.32204">
        <ele>42.6</ele>
        <time>2024-01-12T13:52:55Z</time>
      </trkpt>
      <trkpt lat="49.85096" lon="2.32205">
        <ele>42.6</ele>
        <time>2024-01-12T13:52:56Z</time>
      </trkpt>
      <trkpt lat="49.85097" lon="2.32205">
        <ele>42.6</ele>
        <time>2024-01-12T13:52:57Z</time>
      </trkpt>
      <trkpt lat="49.85098" lon="2.32206">
        <ele>42.6</ele>
        <time>2024-01-12T13:52:58Z</time>
      </trkpt>
      <trkpt lat="49.85099" lon="2.32206">
        <ele>42.6</ele>
        <time>2024-01-12T13:52:59Z</time>
      </trkpt>
      <trkpt lat="49.85101" lon="2.32207">
        <ele>42.6</ele>
        <time>2024-01-12T13:53:00Z</time>
      </trkpt>
      <trkpt lat="49.85102" lon="2.32207">
        <ele>42.6</ele>
        <time>2024-01-12T13:53:01Z</time>
      </trkpt>
      <trkpt lat="49.85103" lon="2.32208">
        <ele>42.5</ele>
        <time>2024-01-12T13:53:02Z</time>
      </trkpt>
      <trkpt lat="49.85104" lon="2.32208">
        <ele>42.5</ele>
        <time>2024-01-12T13:53:03Z</time>
      </trkpt>
      <trkpt lat="49.85105" lon="2.32209">
        <ele>42.5</ele>
        <time>2024-01-12T13:53:04Z</time>
      </trkpt>
      <trkpt lat="49.85106" lon="2.3221">
        <ele>42.5</ele>
        <time>2024-01-12T13:53:05Z</time>
      </trkpt>
      <trkpt lat="49.85106" lon="2.3221">
        <ele>42.5</ele>
        <time>2024-01-12T13:53:06Z</time>
      </trkpt>
      <trkpt lat="49.85107" lon="2.32211">
        <ele>42.5</ele>
        <time>2024-01-12T13:53:07Z</time>
      </trkpt>
      <trkpt lat="49.85108" lon="2.32212">
        <ele>42.5</ele>
        <time>2024-01-12T13:53:08Z</time>
      </trkpt>
      <trkpt lat="49.85109" lon="2.32213">
        <ele>42.5</ele>
        <time>2024-01-12T13:53:09Z</time>
      </trkpt>
      <trkpt lat="49.8511" lon="2.32214">
        <ele>42.4</ele>
        <time>2024-01-12T13:53:10Z</time>
      </trkpt>
      <trkpt lat="49.85111" lon="2.32214">
        <ele>42.4</ele>
        <time>2024-01-12T13:53:11Z</time>
      </trkpt>
      <trkpt lat="49.85112" lon="2.32215">
        <ele>42.4</ele>
        <time>2024-01-12T13:53:12Z</time>
      </trkpt>
      <trkpt lat="49.85113" lon="2.32216">
        <ele>42.4</ele>
        <time>2024-01-12T13:53:13Z</time>
      </trkpt>
      <trkpt lat="49.85114" lon="2.32217">
        <ele>42.4</ele>
        <time>2024-01-12T13:53:14Z</time>
      </trkpt>
      <trkpt lat="49.85115" lon="2.32217">
        <ele>42.3</ele>
        <time>2024-01-12T13:53:15Z</time>
      </trkpt>
      <trkpt lat="49.85116" lon="2.32218">
        <ele>42.3</ele>
        <time>2024-01-12T13:53:16Z</time>
      </trkpt>
      <trkpt lat="49.85117" lon="2.32219">
        <ele>42.3</ele>
        <time>2024-01-12T13:53:17Z</time>
      </trkpt>
      <trkpt lat="49.85118" lon="2.32219">
        <ele>42.3</ele>
        <time>2024-01-12T13:53:18Z</time>
      </trkpt>
      <trkpt lat="49.85119" lon="2.3222">
        <ele>42.3</ele>
        <time>2024-01-12T13:53:19Z</time>
      </trkpt>
      <trkpt lat="49.8512" lon="2.32221">
        <ele>42.2</ele>
        <time>2024-01-12T13:53:20Z</time>
      </trkpt>
      <trkpt lat="49.85121" lon="2.32221">
        <ele>42.2</ele>
        <time>2024-01-12T13:53:21Z</time>
      </trkpt>
      <trkpt lat="49.85122" lon="2.32222">
        <ele>42.2</ele>
        <time>2024-01-12T13:53:22Z</time>
      </trkpt>
      <trkpt lat="49.85123" lon="2.32223">
        <ele>42.2</ele>
        <time>2024-01-12T13:53:23Z</time>
      </trkpt>
      <trkpt lat="49.85124" lon="2.32223">
        <ele>42.2</ele>
        <time>2024-01-12T13:53:24Z</time>
      </trkpt>
      <trkpt lat="49.85125" lon="2.32224">
        <ele>42.2</ele>
        <time>2024-01-12T13:53:25Z</time>
      </trkpt>
      <trkpt lat="49.85126" lon="2.32224">
        <ele>42.1</ele>
        <time>2024-01-12T13:53:26Z</time>
      </trkpt>
      <trkpt lat="49.85127" lon="2.32225">
        <ele>42.1</ele>
        <time>2024-01-12T13:53:27Z</time>
      </trkpt>
      <trkpt lat="49.85128" lon="2.32226">
        <ele>42.1</ele>
        <time>2024-01-12T13:53:28Z</time>
      </trkpt>
      <trkpt lat="49.85129" lon="2.32227">
        <ele>42.1</ele>
        <time>2024-01-12T13:53:29Z</time>
      </trkpt>
      <trkpt lat="49.8513" lon="2.32227">
        <ele>42.1</ele>
        <time>2024-01-12T13:53:30Z</time>
      </trkpt>
      <trkpt lat="49.85131" lon="2.32228">
        <ele>42.1</ele>
        <time>2024-01-12T13:53:31Z</time>
      </trkpt>
      <trkpt lat="49.85132" lon="2.32229">
        <ele>42.1</ele>
        <time>2024-01-12T13:53:32Z</time>
      </trkpt>
      <trkpt lat="49.85133" lon="2.3223">
        <ele>42.1</ele>
        <time>2024-01-12T13:53:33Z</time>
      </trkpt>
      <trkpt lat="49.85134" lon="2.3223">
        <ele>42.1</ele>
        <time>2024-01-12T13:53:34Z</time>
      </trkpt>
      <trkpt lat="49.85135" lon="2.32231">
        <ele>42.1</ele>
        <time>2024-01-12T13:53:35Z</time>
      </trkpt>
      <trkpt lat="49.85136" lon="2.32232">
        <ele>42.1</ele>
        <time>2024-01-12T13:53:36Z</time>
      </trkpt>
      <trkpt lat="49.85137" lon="2.32232">
        <ele>42.1</ele>
        <time>2024-01-12T13:53:37Z</time>
      </trkpt>
      <trkpt lat="49.85138" lon="2.32233">
        <ele>42.1</ele>
        <time>2024-01-12T13:53:38Z</time>
      </trkpt>
      <trkpt lat="49.85139" lon="2.32233">
        <ele>42.1</ele>
        <time>2024-01-12T13:53:39Z</time>
      </trkpt>
      <trkpt lat="49.85139" lon="2.32234">
        <ele>42</ele>
        <time>2024-01-12T13:53:40Z</time>
      </trkpt>
      <trkpt lat="49.8514" lon="2.32234">
        <ele>42</ele>
        <time>2024-01-12T13:53:41Z</time>
      </trkpt>
      <trkpt lat="49.85142" lon="2.32235">
        <ele>42</ele>
        <time>2024-01-12T13:53:42Z</time>
      </trkpt>
      <trkpt lat="49.85143" lon="2.32235">
        <ele>42</ele>
        <time>2024-01-12T13:53:43Z</time>
      </trkpt>
      <trkpt lat="49.85144" lon="2.32236">
        <ele>42</ele>
        <time>2024-01-12T13:53:44Z</time>
      </trkpt>
      <trkpt lat="49.85146" lon="2.32236">
        <ele>42</ele>
        <time>2024-01-12T13:53:45Z</time>
      </trkpt>
      <trkpt lat="49.85147" lon="2.32237">
        <ele>42</ele>
        <time>2024-01-12T13:53:46Z</time>
      </trkpt>
      <trkpt lat="49.85147" lon="2.32237">
        <ele>42</ele>
        <time>2024-01-12T13:53:47Z</time>
      </trkpt>
      <trkpt lat="49.85149" lon="2.32237">
        <ele>42</ele>
        <time>2024-01-12T13:53:48Z</time>
      </trkpt>
      <trkpt lat="49.8515" lon="2.32238">
        <ele>42</ele>
        <time>2024-01-12T13:53:49Z</time>
      </trkpt>
      <trkpt lat="49.85151" lon="2.32238">
        <ele>42</ele>
        <time>2024-01-12T13:53:50Z</time>
      </trkpt>
      <trkpt lat="49.85152" lon="2.32239">
        <ele>42</ele>
        <time>2024-01-12T13:53:51Z</time>
      </trkpt>
      <trkpt lat="49.85152" lon="2.32239">
        <ele>41.9</ele>
        <time>2024-01-12T13:53:52Z</time>
      </trkpt>
      <trkpt lat="49.85153" lon="2.32239">
        <ele>41.9</ele>
        <time>2024-01-12T13:53:53Z</time>
      </trkpt>
      <trkpt lat="49.85154" lon="2.3224">
        <ele>41.9</ele>
        <time>2024-01-12T13:53:54Z</time>
      </trkpt>
      <trkpt lat="49.85155" lon="2.3224">
        <ele>41.9</ele>
        <time>2024-01-12T13:53:55Z</time>
      </trkpt>
      <trkpt lat="49.85157" lon="2.3224">
        <ele>41.9</ele>
        <time>2024-01-12T13:53:56Z</time>
      </trkpt>
      <trkpt lat="49.85159" lon="2.32241">
        <ele>41.9</ele>
        <time>2024-01-12T13:53:57Z</time>
      </trkpt>
      <trkpt lat="49.85159" lon="2.32242">
        <ele>41.9</ele>
        <time>2024-01-12T13:53:58Z</time>
      </trkpt>
      <trkpt lat="49.8516" lon="2.32242">
        <ele>41.9</ele>
        <time>2024-01-12T13:53:59Z</time>
      </trkpt>
      <trkpt lat="49.85161" lon="2.32242">
        <ele>41.8</ele>
        <time>2024-01-12T13:54:00Z</time>
      </trkpt>
      <trkpt lat="49.85162" lon="2.32243">
        <ele>41.8</ele>
        <time>2024-01-12T13:54:01Z</time>
      </trkpt>
      <trkpt lat="49.85164" lon="2.32243">
        <ele>41.8</ele>
        <time>2024-01-12T13:54:02Z</time>
      </trkpt>
      <trkpt lat="49.85165" lon="2.32243">
        <ele>41.8</ele>
        <time>2024-01-12T13:54:03Z</time>
      </trkpt>
      <trkpt lat="49.85166" lon="2.32244">
        <ele>41.8</ele>
        <time>2024-01-12T13:54:04Z</time>
      </trkpt>
      <trkpt lat="49.85166" lon="2.32244">
        <ele>41.8</ele>
        <time>2024-01-12T13:54:05Z</time>
      </trkpt>
      <trkpt lat="49.85167" lon="2.32244">
        <ele>41.8</ele>
        <time>2024-01-12T13:54:06Z</time>
      </trkpt>
      <trkpt lat="49.85168" lon="2.32245">
        <ele>41.8</ele>
        <time>2024-01-12T13:54:07Z</time>
      </trkpt>
      <trkpt lat="49.85169" lon="2.32245">
        <ele>41.8</ele>
        <time>2024-01-12T13:54:08Z</time>
      </trkpt>
      <trkpt lat="49.85171" lon="2.32246">
        <ele>41.7</ele>
        <time>2024-01-12T13:54:09Z</time>
      </trkpt>
      <trkpt lat="49.85172" lon="2.32246">
        <ele>41.7</ele>
        <time>2024-01-12T13:54:10Z</time>
      </trkpt>
      <trkpt lat="49.85173" lon="2.32247">
        <ele>41.7</ele>
        <time>2024-01-12T13:54:11Z</time>
      </trkpt>
      <trkpt lat="49.85174" lon="2.32247">
        <ele>41.7</ele>
        <time>2024-01-12T13:54:12Z</time>
      </trkpt>
      <trkpt lat="49.85175" lon="2.32247">
        <ele>41.7</ele>
        <time>2024-01-12T13:54:13Z</time>
      </trkpt>
      <trkpt lat="49.85176" lon="2.32248">
        <ele>41.7</ele>
        <time>2024-01-12T13:54:14Z</time>
      </trkpt>
      <trkpt lat="49.85177" lon="2.32248">
        <ele>41.7</ele>
        <time>2024-01-12T13:54:15Z</time>
      </trkpt>
      <trkpt lat="49.85178" lon="2.32248">
        <ele>41.7</ele>
        <time>2024-01-12T13:54:16Z</time>
      </trkpt>
      <trkpt lat="49.85179" lon="2.32249">
        <ele>41.7</ele>
        <time>2024-01-12T13:54:17Z</time>
      </trkpt>
      <trkpt lat="49.8518" lon="2.32249">
        <ele>41.7</ele>
        <time>2024-01-12T13:54:18Z</time>
      </trkpt>
      <trkpt lat="49.85181" lon="2.32249">
        <ele>41.7</ele>
        <time>2024-01-12T13:54:19Z</time>
      </trkpt>
      <trkpt lat="49.85182" lon="2.3225">
        <ele>41.7</ele>
        <time>2024-01-12T13:54:20Z</time>
      </trkpt>
      <trkpt lat="49.85183" lon="2.3225">
        <ele>41.7</ele>
        <time>2024-01-12T13:54:21Z</time>
      </trkpt>
      <trkpt lat="49.85183" lon="2.3225">
        <ele>41.7</ele>
        <time>2024-01-12T13:54:22Z</time>
      </trkpt>
      <trkpt lat="49.85184" lon="2.32251">
        <ele>41.7</ele>
        <time>2024-01-12T13:54:23Z</time>
      </trkpt>
      <trkpt lat="49.85185" lon="2.32251">
        <ele>41.7</ele>
        <time>2024-01-12T13:54:24Z</time>
      </trkpt>
      <trkpt lat="49.85186" lon="2.32252">
        <ele>41.7</ele>
        <time>2024-01-12T13:54:25Z</time>
      </trkpt>
      <trkpt lat="49.85187" lon="2.32252">
        <ele>41.7</ele>
        <time>2024-01-12T13:54:26Z</time>
      </trkpt>
      <trkpt lat="49.85188" lon="2.32253">
        <ele>41.7</ele>
        <time>2024-01-12T13:54:27Z</time>
      </trkpt>
      <trkpt lat="49.85189" lon="2.32253">
        <ele>41.7</ele>
        <time>2024-01-12T13:54:28Z</time>
      </trkpt>
      <trkpt lat="49.8519" lon="2.32254">
        <ele>41.7</ele>
        <time>2024-01-12T13:54:29Z</time>
      </trkpt>
      <trkpt lat="49.85191" lon="2.32254">
        <ele>41.7</ele>
        <time>2024-01-12T13:54:30Z</time>
      </trkpt>
      <trkpt lat="49.85192" lon="2.32255">
        <ele>41.7</ele>
        <time>2024-01-12T13:54:31Z</time>
      </trkpt>
      <trkpt lat="49.85193" lon="2.32255">
        <ele>41.7</ele>
        <time>2024-01-12T13:54:32Z</time>
      </trkpt>
      <trkpt lat="49.85194" lon="2.32256">
        <ele>41.7</ele>
        <time>2024-01-12T13:54:33Z</time>
      </trkpt>
      <trkpt lat="49.85195" lon="2.32257">
        <ele>41.7</ele>
        <time>2024-01-12T13:54:34Z</time>
      </trkpt>
      <trkpt lat="49.85196" lon="2.32257">
        <ele>41.7</ele>
        <time>2024-01-12T13:54:35Z</time>
      </trkpt>
      <trkpt lat="49.85197" lon="2.32258">
        <ele>41.7</ele>
        <time>2024-01-12T13:54:36Z</time>
      </trkpt>
      <trkpt lat="49.85198" lon="2.32258">
        <ele>41.7</ele>
        <time>2024-01-12T13:54:37Z</time>
      </trkpt>
      <trkpt lat="49.85199" lon="2.32259">
        <ele>41.7</ele>
        <time>2024-01-12T13:54:38Z</time>
      </trkpt>
      <trkpt lat="49.852" lon="2.3226">
        <ele>41.7</ele>
        <time>2024-01-12T13:54:39Z</time>
      </trkpt>
      <trkpt lat="49.85201" lon="2.3226">
        <ele>41.7</ele>
        <time>2024-01-12T13:54:40Z</time>
      </trkpt>
      <trkpt lat="49.85202" lon="2.3226">
        <ele>41.7</ele>
        <time>2024-01-12T13:54:41Z</time>
      </trkpt>
      <trkpt lat="49.85204" lon="2.32261">
        <ele>41.7</ele>
        <time>2024-01-12T13:54:42Z</time>
      </trkpt>
      <trkpt lat="49.85205" lon="2.32261">
        <ele>41.7</ele>
        <time>2024-01-12T13:54:43Z</time>
      </trkpt>
      <trkpt lat="49.85206" lon="2.32262">
        <ele>41.7</ele>
        <time>2024-01-12T13:54:44Z</time>
      </trkpt>
      <trkpt lat="49.85207" lon="2.32262">
        <ele>41.7</ele>
        <time>2024-01-12T13:54:45Z</time>
      </trkpt>
      <trkpt lat="49.85208" lon="2.32263">
        <ele>41.7</ele>
        <time>2024-01-12T13:54:46Z</time>
      </trkpt>
      <trkpt lat="49.85209" lon="2.32263">
        <ele>41.7</ele>
        <time>2024-01-12T13:54:47Z</time>
      </trkpt>
      <trkpt lat="49.8521" lon="2.32263">
        <ele>41.7</ele>
        <time>2024-01-12T13:54:48Z</time>
      </trkpt>
      <trkpt lat="49.85211" lon="2.32264">
        <ele>41.7</ele>
        <time>2024-01-12T13:54:49Z</time>
      </trkpt>
      <trkpt lat="49.85212" lon="2.32264">
        <ele>41.7</ele>
        <time>2024-01-12T13:54:50Z</time>
      </trkpt>
      <trkpt lat="49.85213" lon="2.32264">
        <ele>41.7</ele>
        <time>2024-01-12T13:54:51Z</time>
      </trkpt>
      <trkpt lat="49.85213" lon="2.32265">
        <ele>41.7</ele>
        <time>2024-01-12T13:54:52Z</time>
      </trkpt>
      <trkpt lat="49.85214" lon="2.32265">
        <ele>41.7</ele>
        <time>2024-01-12T13:54:53Z</time>
      </trkpt>
      <trkpt lat="49.85215" lon="2.32265">
        <ele>41.7</ele>
        <time>2024-01-12T13:54:54Z</time>
      </trkpt>
      <trkpt lat="49.85216" lon="2.32266">
        <ele>41.7</ele>
        <time>2024-01-12T13:54:55Z</time>
      </trkpt>
      <trkpt lat="49.85216" lon="2.32266">
        <ele>41.7</ele>
        <time>2024-01-12T13:54:56Z</time>
      </trkpt>
      <trkpt lat="49.85217" lon="2.32267">
        <ele>41.7</ele>
        <time>2024-01-12T13:54:57Z</time>
      </trkpt>
      <trkpt lat="49.85218" lon="2.32267">
        <ele>41.7</ele>
        <time>2024-01-12T13:54:58Z</time>
      </trkpt>
      <trkpt lat="49.85219" lon="2.32268">
        <ele>41.7</ele>
        <time>2024-01-12T13:54:59Z</time>
      </trkpt>
      <trkpt lat="49.85219" lon="2.32268">
        <ele>41.7</ele>
        <time>2024-01-12T13:55:00Z</time>
      </trkpt>
      <trkpt lat="49.8522" lon="2.32269">
        <ele>41.7</ele>
        <time>2024-01-12T13:55:01Z</time>
      </trkpt>
      <trkpt lat="49.85221" lon="2.32269">
        <ele>41.7</ele>
        <time>2024-01-12T13:55:02Z</time>
      </trkpt>
      <trkpt lat="49.85222" lon="2.32269">
        <ele>41.7</ele>
        <time>2024-01-12T13:55:03Z</time>
      </trkpt>
      <trkpt lat="49.85223" lon="2.3227">
        <ele>41.7</ele>
        <time>2024-01-12T13:55:04Z</time>
      </trkpt>
      <trkpt lat="49.85224" lon="2.3227">
        <ele>41.7</ele>
        <time>2024-01-12T13:55:05Z</time>
      </trkpt>
      <trkpt lat="49.85225" lon="2.3227">
        <ele>41.7</ele>
        <time>2024-01-12T13:55:06Z</time>
      </trkpt>
      <trkpt lat="49.85225" lon="2.3227">
        <ele>41.7</ele>
        <time>2024-01-12T13:55:07Z</time>
      </trkpt>
      <trkpt lat="49.85226" lon="2.32271">
        <ele>41.7</ele>
        <time>2024-01-12T13:55:08Z</time>
      </trkpt>
      <trkpt lat="49.85227" lon="2.32271">
        <ele>41.7</ele>
        <time>2024-01-12T13:55:09Z</time>
      </trkpt>
      <trkpt lat="49.85228" lon="2.32272">
        <ele>41.7</ele>
        <time>2024-01-12T13:55:10Z</time>
      </trkpt>
      <trkpt lat="49.85229" lon="2.32272">
        <ele>41.7</ele>
        <time>2024-01-12T13:55:11Z</time>
      </trkpt>
      <trkpt lat="49.8523" lon="2.32273">
        <ele>41.7</ele>
        <time>2024-01-12T13:55:12Z</time>
      </trkpt>
      <trkpt lat="49.85231" lon="2.32274">
        <ele>41.7</ele>
        <time>2024-01-12T13:55:13Z</time>
      </trkpt>
      <trkpt lat="49.85232" lon="2.32274">
        <ele>41.7</ele>
        <time>2024-01-12T13:55:14Z</time>
      </trkpt>
      <trkpt lat="49.85233" lon="2.32275">
        <ele>41.7</ele>
        <time>2024-01-12T13:55:15Z</time>
      </trkpt>
      <trkpt lat="49.85234" lon="2.32275">
        <ele>41.7</ele>
        <time>2024-01-12T13:55:16Z</time>
      </trkpt>
      <trkpt lat="49.85236" lon="2.32275">
        <ele>41.7</ele>
        <time>2024-01-12T13:55:17Z</time>
      </trkpt>
      <trkpt lat="49.85237" lon="2.32276">
        <ele>41.7</ele>
        <time>2024-01-12T13:55:18Z</time>
      </trkpt>
      <trkpt lat="49.85238" lon="2.32276">
        <ele>41.7</ele>
        <time>2024-01-12T13:55:19Z</time>
      </trkpt>
      <trkpt lat="49.85239" lon="2.32277">
        <ele>41.7</ele>
        <time>2024-01-12T13:55:20Z</time>
      </trkpt>
      <trkpt lat="49.8524" lon="2.32277">
        <ele>41.7</ele>
        <time>2024-01-12T13:55:21Z</time>
      </trkpt>
      <trkpt lat="49.85241" lon="2.32278">
        <ele>41.7</ele>
        <time>2024-01-12T13:55:22Z</time>
      </trkpt>
      <trkpt lat="49.85242" lon="2.32278">
        <ele>41.7</ele>
        <time>2024-01-12T13:55:23Z</time>
      </trkpt>
      <trkpt lat="49.85243" lon="2.32278">
        <ele>41.7</ele>
        <time>2024-01-12T13:55:24Z</time>
      </trkpt>
      <trkpt lat="49.85244" lon="2.32279">
        <ele>41.7</ele>
        <time>2024-01-12T13:55:25Z</time>
      </trkpt>
      <trkpt lat="49.85245" lon="2.32279">
        <ele>41.7</ele>
        <time>2024-01-12T13:55:26Z</time>
      </trkpt>
      <trkpt lat="49.85246" lon="2.3228">
        <ele>41.7</ele>
        <time>2024-01-12T13:55:27Z</time>
      </trkpt>
      <trkpt lat="49.85247" lon="2.3228">
        <ele>41.7</ele>
        <time>2024-01-12T13:55:28Z</time>
      </trkpt>
      <trkpt lat="49.85248" lon="2.32281">
        <ele>41.7</ele>
        <time>2024-01-12T13:55:29Z</time>
      </trkpt>
      <trkpt lat="49.85249" lon="2.32281">
        <ele>41.7</ele>
        <time>2024-01-12T13:55:30Z</time>
      </trkpt>
      <trkpt lat="49.8525" lon="2.32282">
        <ele>41.7</ele>
        <time>2024-01-12T13:55:31Z</time>
      </trkpt>
      <trkpt lat="49.85251" lon="2.32282">
        <ele>41.7</ele>
        <time>2024-01-12T13:55:32Z</time>
      </trkpt>
      <trkpt lat="49.85252" lon="2.32283">
        <ele>41.7</ele>
        <time>2024-01-12T13:55:33Z</time>
      </trkpt>
      <trkpt lat="49.85253" lon="2.32283">
        <ele>41.7</ele>
        <time>2024-01-12T13:55:34Z</time>
      </trkpt>
      <trkpt lat="49.85254" lon="2.32283">
        <ele>41.7</ele>
        <time>2024-01-12T13:55:35Z</time>
      </trkpt>
      <trkpt lat="49.85255" lon="2.32284">
        <ele>41.7</ele>
        <time>2024-01-12T13:55:36Z</time>
      </trkpt>
      <trkpt lat="49.85256" lon="2.32284">
        <ele>41.7</ele>
        <time>2024-01-12T13:55:37Z</time>
      </trkpt>
      <trkpt lat="49.85257" lon="2.32285">
        <ele>41.7</ele>
        <time>2024-01-12T13:55:38Z</time>
      </trkpt>
      <trkpt lat="49.85258" lon="2.32285">
        <ele>41.7</ele>
        <time>2024-01-12T13:55:39Z</time>
      </trkpt>
      <trkpt lat="49.85259" lon="2.32285">
        <ele>41.7</ele>
        <time>2024-01-12T13:55:40Z</time>
      </trkpt>
      <trkpt lat="49.8526" lon="2.32286">
        <ele>41.7</ele>
        <time>2024-01-12T13:55:41Z</time>
      </trkpt>
      <trkpt lat="49.85261" lon="2.32286">
        <ele>41.7</ele>
        <time>2024-01-12T13:55:42Z</time>
      </trkpt>
      <trkpt lat="49.85262" lon="2.32286">
        <ele>41.7</ele>
        <time>2024-01-12T13:55:43Z</time>
      </trkpt>
      <trkpt lat="49.85263" lon="2.32287">
        <ele>41.7</ele>
        <time>2024-01-12T13:55:44Z</time>
      </trkpt>
      <trkpt lat="49.85264" lon="2.32287">
        <ele>41.7</ele>
        <time>2024-01-12T13:55:45Z</time>
      </trkpt>
      <trkpt lat="49.85265" lon="2.32287">
        <ele>41.7</ele>
        <time>2024-01-12T13:55:46Z</time>
      </trkpt>
      <trkpt lat="49.85266" lon="2.32287">
        <ele>41.7</ele>
        <time>2024-01-12T13:55:47Z</time>
      </trkpt>
      <trkpt lat="49.85267" lon="2.32287">
        <ele>41.7</ele>
        <time>2024-01-12T13:55:48Z</time>
      </trkpt>
      <trkpt lat="49.85268" lon="2.32288">
        <ele>41.7</ele>
        <time>2024-01-12T13:55:49Z</time>
      </trkpt>
      <trkpt lat="49.8527" lon="2.32288">
        <ele>41.7</ele>
        <time>2024-01-12T13:55:50Z</time>
      </trkpt>
      <trkpt lat="49.85271" lon="2.32288">
        <ele>41.7</ele>
        <time>2024-01-12T13:55:51Z</time>
      </trkpt>
      <trkpt lat="49.85272" lon="2.32288">
        <ele>41.7</ele>
        <time>2024-01-12T13:55:52Z</time>
      </trkpt>
      <trkpt lat="49.85273" lon="2.32288">
        <ele>41.7</ele>
        <time>2024-01-12T13:55:53Z</time>
      </trkpt>
      <trkpt lat="49.85274" lon="2.32289">
        <ele>41.7</ele>
        <time>2024-01-12T13:55:54Z</time>
      </trkpt>
      <trkpt lat="49.85275" lon="2.32289">
        <ele>41.6</ele>
        <time>2024-01-12T13:55:55Z</time>
      </trkpt>
      <trkpt lat="49.85276" lon="2.32289">
        <ele>41.6</ele>
        <time>2024-01-12T13:55:56Z</time>
      </trkpt>
      <trkpt lat="49.85277" lon="2.32289">
        <ele>41.6</ele>
        <time>2024-01-12T13:55:57Z</time>
      </trkpt>
      <trkpt lat="49.85278" lon="2.32289">
        <ele>41.6</ele>
        <time>2024-01-12T13:55:58Z</time>
      </trkpt>
      <trkpt lat="49.85279" lon="2.3229">
        <ele>41.6</ele>
        <time>2024-01-12T13:55:59Z</time>
      </trkpt>
      <trkpt lat="49.8528" lon="2.3229">
        <ele>41.6</ele>
        <time>2024-01-12T13:56:00Z</time>
      </trkpt>
      <trkpt lat="49.85281" lon="2.3229">
        <ele>41.6</ele>
        <time>2024-01-12T13:56:01Z</time>
      </trkpt>
      <trkpt lat="49.85282" lon="2.3229">
        <ele>41.6</ele>
        <time>2024-01-12T13:56:02Z</time>
      </trkpt>
      <trkpt lat="49.85283" lon="2.3229">
        <ele>41.6</ele>
        <time>2024-01-12T13:56:03Z</time>
      </trkpt>
      <trkpt lat="49.85284" lon="2.3229">
        <ele>41.6</ele>
        <time>2024-01-12T13:56:04Z</time>
      </trkpt>
      <trkpt lat="49.85285" lon="2.3229">
        <ele>41.6</ele>
        <time>2024-01-12T13:56:05Z</time>
      </trkpt>
      <trkpt lat="49.85285" lon="2.3229">
        <ele>41.6</ele>
        <time>2024-01-12T13:56:06Z</time>
      </trkpt>
      <trkpt lat="49.85286" lon="2.3229">
        <ele>41.6</ele>
        <time>2024-01-12T13:56:07Z</time>
      </trkpt>
      <trkpt lat="49.85287" lon="2.3229">
        <ele>41.6</ele>
        <time>2024-01-12T13:56:08Z</time>
      </trkpt>
      <trkpt lat="49.85287" lon="2.3229">
        <ele>41.6</ele>
        <time>2024-01-12T13:56:09Z</time>
      </trkpt>
      <trkpt lat="49.85288" lon="2.3229">
        <ele>41.6</ele>
        <time>2024-01-12T13:56:10Z</time>
      </trkpt>
      <trkpt lat="49.85288" lon="2.32291">
        <ele>41.6</ele>
        <time>2024-01-12T13:56:11Z</time>
      </trkpt>
      <trkpt lat="49.85289" lon="2.32291">
        <ele>41.6</ele>
        <time>2024-01-12T13:56:12Z</time>
      </trkpt>
      <trkpt lat="49.8529" lon="2.32291">
        <ele>41.6</ele>
        <time>2024-01-12T13:56:13Z</time>
      </trkpt>
      <trkpt lat="49.85291" lon="2.32291">
        <ele>41.6</ele>
        <time>2024-01-12T13:56:14Z</time>
      </trkpt>
      <trkpt lat="49.85292" lon="2.32291">
        <ele>41.6</ele>
        <time>2024-01-12T13:56:15Z</time>
      </trkpt>
      <trkpt lat="49.85293" lon="2.32292">
        <ele>41.6</ele>
        <time>2024-01-12T13:56:16Z</time>
      </trkpt>
      <trkpt lat="49.85294" lon="2.32292">
        <ele>41.6</ele>
        <time>2024-01-12T13:56:17Z</time>
      </trkpt>
      <trkpt lat="49.85295" lon="2.32292">
        <ele>41.7</ele>
        <time>2024-01-12T13:56:18Z</time>
      </trkpt>
      <trkpt lat="49.85296" lon="2.32292">
        <ele>41.7</ele>
        <time>2024-01-12T13:56:19Z</time>
      </trkpt>
      <trkpt lat="49.85297" lon="2.32292">
        <ele>41.7</ele>
        <time>2024-01-12T13:56:20Z</time>
      </trkpt>
      <trkpt lat="49.85298" lon="2.32292">
        <ele>41.7</ele>
        <time>2024-01-12T13:56:21Z</time>
      </trkpt>
      <trkpt lat="49.853" lon="2.32293">
        <ele>41.7</ele>
        <time>2024-01-12T13:56:22Z</time>
      </trkpt>
      <trkpt lat="49.85301" lon="2.32293">
        <ele>41.7</ele>
        <time>2024-01-12T13:56:23Z</time>
      </trkpt>
      <trkpt lat="49.85302" lon="2.32293">
        <ele>41.8</ele>
        <time>2024-01-12T13:56:24Z</time>
      </trkpt>
      <trkpt lat="49.85303" lon="2.32293">
        <ele>41.8</ele>
        <time>2024-01-12T13:56:25Z</time>
      </trkpt>
      <trkpt lat="49.85304" lon="2.32293">
        <ele>41.8</ele>
        <time>2024-01-12T13:56:26Z</time>
      </trkpt>
      <trkpt lat="49.85305" lon="2.32293">
        <ele>41.9</ele>
        <time>2024-01-12T13:56:27Z</time>
      </trkpt>
      <trkpt lat="49.85306" lon="2.32293">
        <ele>41.9</ele>
        <time>2024-01-12T13:56:28Z</time>
      </trkpt>
      <trkpt lat="49.85307" lon="2.32293">
        <ele>41.9</ele>
        <time>2024-01-12T13:56:29Z</time>
      </trkpt>
      <trkpt lat="49.85308" lon="2.32293">
        <ele>41.9</ele>
        <time>2024-01-12T13:56:30Z</time>
      </trkpt>
      <trkpt lat="49.85309" lon="2.32293">
        <ele>41.9</ele>
        <time>2024-01-12T13:56:31Z</time>
      </trkpt>
      <trkpt lat="49.8531" lon="2.32294">
        <ele>42</ele>
        <time>2024-01-12T13:56:32Z</time>
      </trkpt>
      <trkpt lat="49.85311" lon="2.32294">
        <ele>42</ele>
        <time>2024-01-12T13:56:33Z</time>
      </trkpt>
      <trkpt lat="49.85312" lon="2.32294">
        <ele>42</ele>
        <time>2024-01-12T13:56:34Z</time>
      </trkpt>
      <trkpt lat="49.85313" lon="2.32294">
        <ele>42</ele>
        <time>2024-01-12T13:56:35Z</time>
      </trkpt>
      <trkpt lat="49.85314" lon="2.32295">
        <ele>42</ele>
        <time>2024-01-12T13:56:36Z</time>
      </trkpt>
      <trkpt lat="49.85315" lon="2.32295">
        <ele>42.1</ele>
        <time>2024-01-12T13:56:37Z</time>
      </trkpt>
      <trkpt lat="49.85316" lon="2.32295">
        <ele>42.1</ele>
        <time>2024-01-12T13:56:38Z</time>
      </trkpt>
      <trkpt lat="49.85316" lon="2.32295">
        <ele>42.1</ele>
        <time>2024-01-12T13:56:39Z</time>
      </trkpt>
      <trkpt lat="49.85317" lon="2.32296">
        <ele>42.1</ele>
        <time>2024-01-12T13:56:40Z</time>
      </trkpt>
      <trkpt lat="49.85318" lon="2.32296">
        <ele>42.1</ele>
        <time>2024-01-12T13:56:41Z</time>
      </trkpt>
      <trkpt lat="49.85319" lon="2.32296">
        <ele>42.1</ele>
        <time>2024-01-12T13:56:42Z</time>
      </trkpt>
      <trkpt lat="49.8532" lon="2.32296">
        <ele>42.2</ele>
        <time>2024-01-12T13:56:43Z</time>
      </trkpt>
      <trkpt lat="49.85321" lon="2.32297">
        <ele>42.2</ele>
        <time>2024-01-12T13:56:44Z</time>
      </trkpt>
      <trkpt lat="49.85322" lon="2.32297">
        <ele>42.2</ele>
        <time>2024-01-12T13:56:45Z</time>
      </trkpt>
      <trkpt lat="49.85323" lon="2.32297">
        <ele>42.2</ele>
        <time>2024-01-12T13:56:46Z</time>
      </trkpt>
      <trkpt lat="49.85324" lon="2.32298">
        <ele>42.2</ele>
        <time>2024-01-12T13:56:47Z</time>
      </trkpt>
      <trkpt lat="49.85325" lon="2.32298">
        <ele>42.3</ele>
        <time>2024-01-12T13:56:48Z</time>
      </trkpt>
      <trkpt lat="49.85325" lon="2.32298">
        <ele>42.3</ele>
        <time>2024-01-12T13:56:49Z</time>
      </trkpt>
      <trkpt lat="49.85326" lon="2.32298">
        <ele>42.3</ele>
        <time>2024-01-12T13:56:50Z</time>
      </trkpt>
      <trkpt lat="49.85327" lon="2.32299">
        <ele>42.3</ele>
        <time>2024-01-12T13:56:51Z</time>
      </trkpt>
      <trkpt lat="49.85328" lon="2.32299">
        <ele>42.3</ele>
        <time>2024-01-12T13:56:52Z</time>
      </trkpt>
      <trkpt lat="49.85328" lon="2.32299">
        <ele>42.3</ele>
        <time>2024-01-12T13:56:53Z</time>
      </trkpt>
      <trkpt lat="49.85329" lon="2.323">
        <ele>42.4</ele>
        <time>2024-01-12T13:56:54Z</time>
      </trkpt>
      <trkpt lat="49.8533" lon="2.323">
        <ele>42.4</ele>
        <time>2024-01-12T13:56:55Z</time>
      </trkpt>
      <trkpt lat="49.85331" lon="2.32301">
        <ele>42.4</ele>
        <time>2024-01-12T13:56:56Z</time>
      </trkpt>
      <trkpt lat="49.85332" lon="2.32302">
        <ele>42.4</ele>
        <time>2024-01-12T13:56:57Z</time>
      </trkpt>
      <trkpt lat="49.85333" lon="2.32302">
        <ele>42.4</ele>
        <time>2024-01-12T13:56:58Z</time>
      </trkpt>
      <trkpt lat="49.85333" lon="2.32302">
        <ele>42.5</ele>
        <time>2024-01-12T13:56:59Z</time>
      </trkpt>
      <trkpt lat="49.85334" lon="2.32303">
        <ele>42.5</ele>
        <time>2024-01-12T13:57:00Z</time>
      </trkpt>
      <trkpt lat="49.85335" lon="2.32303">
        <ele>42.5</ele>
        <time>2024-01-12T13:57:01Z</time>
      </trkpt>
      <trkpt lat="49.85336" lon="2.32303">
        <ele>42.5</ele>
        <time>2024-01-12T13:57:02Z</time>
      </trkpt>
      <trkpt lat="49.85338" lon="2.32304">
        <ele>42.6</ele>
        <time>2024-01-12T13:57:03Z</time>
      </trkpt>
      <trkpt lat="49.85339" lon="2.32305">
        <ele>42.6</ele>
        <time>2024-01-12T13:57:04Z</time>
      </trkpt>
      <trkpt lat="49.85339" lon="2.32305">
        <ele>42.6</ele>
        <time>2024-01-12T13:57:05Z</time>
      </trkpt>
      <trkpt lat="49.8534" lon="2.32306">
        <ele>42.6</ele>
        <time>2024-01-12T13:57:06Z</time>
      </trkpt>
      <trkpt lat="49.85341" lon="2.32307">
        <ele>42.7</ele>
        <time>2024-01-12T13:57:07Z</time>
      </trkpt>
      <trkpt lat="49.85342" lon="2.32308">
        <ele>42.7</ele>
        <time>2024-01-12T13:57:08Z</time>
      </trkpt>
      <trkpt lat="49.85343" lon="2.32309">
        <ele>42.7</ele>
        <time>2024-01-12T13:57:09Z</time>
      </trkpt>
      <trkpt lat="49.85344" lon="2.32309">
        <ele>42.8</ele>
        <time>2024-01-12T13:57:10Z</time>
      </trkpt>
      <trkpt lat="49.85344" lon="2.3231">
        <ele>42.8</ele>
        <time>2024-01-12T13:57:11Z</time>
      </trkpt>
      <trkpt lat="49.85345" lon="2.32311">
        <ele>42.8</ele>
        <time>2024-01-12T13:57:12Z</time>
      </trkpt>
      <trkpt lat="49.85346" lon="2.32311">
        <ele>42.8</ele>
        <time>2024-01-12T13:57:13Z</time>
      </trkpt>
      <trkpt lat="49.85346" lon="2.32312">
        <ele>42.9</ele>
        <time>2024-01-12T13:57:14Z</time>
      </trkpt>
      <trkpt lat="49.85347" lon="2.32313">
        <ele>42.9</ele>
        <time>2024-01-12T13:57:15Z</time>
      </trkpt>
      <trkpt lat="49.85348" lon="2.32313">
        <ele>42.9</ele>
        <time>2024-01-12T13:57:16Z</time>
      </trkpt>
      <trkpt lat="49.85349" lon="2.32314">
        <ele>42.9</ele>
        <time>2024-01-12T13:57:17Z</time>
      </trkpt>
      <trkpt lat="49.85349" lon="2.32315">
        <ele>43</ele>
        <time>2024-01-12T13:57:18Z</time>
      </trkpt>
      <trkpt lat="49.8535" lon="2.32316">
        <ele>43</ele>
        <time>2024-01-12T13:57:19Z</time>
      </trkpt>
      <trkpt lat="49.85351" lon="2.32317">
        <ele>43</ele>
        <time>2024-01-12T13:57:20Z</time>
      </trkpt>
      <trkpt lat="49.85352" lon="2.32318">
        <ele>43</ele>
        <time>2024-01-12T13:57:21Z</time>
      </trkpt>
      <trkpt lat="49.85353" lon="2.32319">
        <ele>43.1</ele>
        <time>2024-01-12T13:57:22Z</time>
      </trkpt>
      <trkpt lat="49.85354" lon="2.3232">
        <ele>43.1</ele>
        <time>2024-01-12T13:57:23Z</time>
      </trkpt>
      <trkpt lat="49.85355" lon="2.32321">
        <ele>43.2</ele>
        <time>2024-01-12T13:57:24Z</time>
      </trkpt>
      <trkpt lat="49.85356" lon="2.32322">
        <ele>43.2</ele>
        <time>2024-01-12T13:57:25Z</time>
      </trkpt>
      <trkpt lat="49.85356" lon="2.32323">
        <ele>43.2</ele>
        <time>2024-01-12T13:57:26Z</time>
      </trkpt>
      <trkpt lat="49.85357" lon="2.32324">
        <ele>43.2</ele>
        <time>2024-01-12T13:57:27Z</time>
      </trkpt>
      <trkpt lat="49.85358" lon="2.32325">
        <ele>43.3</ele>
        <time>2024-01-12T13:57:28Z</time>
      </trkpt>
      <trkpt lat="49.85359" lon="2.32326">
        <ele>43.3</ele>
        <time>2024-01-12T13:57:29Z</time>
      </trkpt>
      <trkpt lat="49.8536" lon="2.32327">
        <ele>43.3</ele>
        <time>2024-01-12T13:57:30Z</time>
      </trkpt>
      <trkpt lat="49.85361" lon="2.32328">
        <ele>43.4</ele>
        <time>2024-01-12T13:57:31Z</time>
      </trkpt>
      <trkpt lat="49.85362" lon="2.32329">
        <ele>43.4</ele>
        <time>2024-01-12T13:57:32Z</time>
      </trkpt>
      <trkpt lat="49.85363" lon="2.32331">
        <ele>43.4</ele>
        <time>2024-01-12T13:57:33Z</time>
      </trkpt>
      <trkpt lat="49.85364" lon="2.32332">
        <ele>43.5</ele>
        <time>2024-01-12T13:57:34Z</time>
      </trkpt>
      <trkpt lat="49.85365" lon="2.32333">
        <ele>43.5</ele>
        <time>2024-01-12T13:57:35Z</time>
      </trkpt>
      <trkpt lat="49.85365" lon="2.32334">
        <ele>43.5</ele>
        <time>2024-01-12T13:57:36Z</time>
      </trkpt>
      <trkpt lat="49.85366" lon="2.32335">
        <ele>43.6</ele>
        <time>2024-01-12T13:57:37Z</time>
      </trkpt>
      <trkpt lat="49.85367" lon="2.32336">
        <ele>43.6</ele>
        <time>2024-01-12T13:57:38Z</time>
      </trkpt>
      <trkpt lat="49.85368" lon="2.32337">
        <ele>43.6</ele>
        <time>2024-01-12T13:57:39Z</time>
      </trkpt>
      <trkpt lat="49.85368" lon="2.32338">
        <ele>43.7</ele>
        <time>2024-01-12T13:57:40Z</time>
      </trkpt>
      <trkpt lat="49.85369" lon="2.32339">
        <ele>43.7</ele>
        <time>2024-01-12T13:57:41Z</time>
      </trkpt>
      <trkpt lat="49.8537" lon="2.32341">
        <ele>43.8</ele>
        <time>2024-01-12T13:57:42Z</time>
      </trkpt>
      <trkpt lat="49.85371" lon="2.32342">
        <ele>43.8</ele>
        <time>2024-01-12T13:57:43Z</time>
      </trkpt>
      <trkpt lat="49.85372" lon="2.32343">
        <ele>43.9</ele>
        <time>2024-01-12T13:57:44Z</time>
      </trkpt>
      <trkpt lat="49.85373" lon="2.32344">
        <ele>43.9</ele>
        <time>2024-01-12T13:57:45Z</time>
      </trkpt>
      <trkpt lat="49.85374" lon="2.32345">
        <ele>44</ele>
        <time>2024-01-12T13:57:46Z</time>
      </trkpt>
      <trkpt lat="49.85375" lon="2.32346">
        <ele>44</ele>
        <time>2024-01-12T13:57:47Z</time>
      </trkpt>
      <trkpt lat="49.85375" lon="2.32347">
        <ele>44.1</ele>
        <time>2024-01-12T13:57:48Z</time>
      </trkpt>
      <trkpt lat="49.85376" lon="2.32348">
        <ele>44.1</ele>
        <time>2024-01-12T13:57:49Z</time>
      </trkpt>
      <trkpt lat="49.85377" lon="2.32349">
        <ele>44.2</ele>
        <time>2024-01-12T13:57:50Z</time>
      </trkpt>
      <trkpt lat="49.85378" lon="2.3235">
        <ele>44.2</ele>
        <time>2024-01-12T13:57:51Z</time>
      </trkpt>
      <trkpt lat="49.85378" lon="2.32352">
        <ele>44.3</ele>
        <time>2024-01-12T13:57:52Z</time>
      </trkpt>
      <trkpt lat="49.85379" lon="2.32353">
        <ele>44.3</ele>
        <time>2024-01-12T13:57:53Z</time>
      </trkpt>
      <trkpt lat="49.8538" lon="2.32354">
        <ele>44.3</ele>
        <time>2024-01-12T13:57:54Z</time>
      </trkpt>
      <trkpt lat="49.8538" lon="2.32355">
        <ele>44.4</ele>
        <time>2024-01-12T13:57:55Z</time>
      </trkpt>
      <trkpt lat="49.85381" lon="2.32356">
        <ele>44.4</ele>
        <time>2024-01-12T13:57:56Z</time>
      </trkpt>
      <trkpt lat="49.85382" lon="2.32357">
        <ele>44.5</ele>
        <time>2024-01-12T13:57:57Z</time>
      </trkpt>
      <trkpt lat="49.85383" lon="2.32359">
        <ele>44.5</ele>
        <time>2024-01-12T13:57:58Z</time>
      </trkpt>
      <trkpt lat="49.85384" lon="2.3236">
        <ele>44.5</ele>
        <time>2024-01-12T13:57:59Z</time>
      </trkpt>
      <trkpt lat="49.85384" lon="2.32361">
        <ele>44.6</ele>
        <time>2024-01-12T13:58:00Z</time>
      </trkpt>
      <trkpt lat="49.85385" lon="2.32362">
        <ele>44.6</ele>
        <time>2024-01-12T13:58:01Z</time>
      </trkpt>
      <trkpt lat="49.85386" lon="2.32363">
        <ele>44.6</ele>
        <time>2024-01-12T13:58:02Z</time>
      </trkpt>
      <trkpt lat="49.85386" lon="2.32364">
        <ele>44.6</ele>
        <time>2024-01-12T13:58:03Z</time>
      </trkpt>
      <trkpt lat="49.85387" lon="2.32365">
        <ele>44.7</ele>
        <time>2024-01-12T13:58:04Z</time>
      </trkpt>
      <trkpt lat="49.85387" lon="2.32366">
        <ele>44.7</ele>
        <time>2024-01-12T13:58:05Z</time>
      </trkpt>
      <trkpt lat="49.85388" lon="2.32368">
        <ele>44.7</ele>
        <time>2024-01-12T13:58:06Z</time>
      </trkpt>
      <trkpt lat="49.85389" lon="2.32369">
        <ele>44.8</ele>
        <time>2024-01-12T13:58:07Z</time>
      </trkpt>
      <trkpt lat="49.8539" lon="2.3237">
        <ele>44.8</ele>
        <time>2024-01-12T13:58:08Z</time>
      </trkpt>
      <trkpt lat="49.85391" lon="2.3237">
        <ele>44.8</ele>
        <time>2024-01-12T13:58:09Z</time>
      </trkpt>
      <trkpt lat="49.85392" lon="2.32371">
        <ele>44.8</ele>
        <time>2024-01-12T13:58:10Z</time>
      </trkpt>
      <trkpt lat="49.85393" lon="2.32372">
        <ele>44.9</ele>
        <time>2024-01-12T13:58:11Z</time>
      </trkpt>
      <trkpt lat="49.85393" lon="2.32373">
        <ele>44.9</ele>
        <time>2024-01-12T13:58:12Z</time>
      </trkpt>
      <trkpt lat="49.85394" lon="2.32373">
        <ele>44.9</ele>
        <time>2024-01-12T13:58:13Z</time>
      </trkpt>
      <trkpt lat="49.85395" lon="2.32374">
        <ele>44.9</ele>
        <time>2024-01-12T13:58:14Z</time>
      </trkpt>
      <trkpt lat="49.85396" lon="2.32375">
        <ele>44.9</ele>
        <time>2024-01-12T13:58:15Z</time>
      </trkpt>
      <trkpt lat="49.85396" lon="2.32375">
        <ele>45</ele>
        <time>2024-01-12T13:58:16Z</time>
      </trkpt>
      <trkpt lat="49.85397" lon="2.32376">
        <ele>45</ele>
        <time>2024-01-12T13:58:17Z</time>
      </trkpt>
      <trkpt lat="49.85398" lon="2.32377">
        <ele>45</ele>
        <time>2024-01-12T13:58:18Z</time>
      </trkpt>
      <trkpt lat="49.85399" lon="2.32378">
        <ele>45</ele>
        <time>2024-01-12T13:58:19Z</time>
      </trkpt>
      <trkpt lat="49.854" lon="2.32379">
        <ele>45.1</ele>
        <time>2024-01-12T13:58:20Z</time>
      </trkpt>
      <trkpt lat="49.85401" lon="2.3238">
        <ele>45.1</ele>
        <time>2024-01-12T13:58:21Z</time>
      </trkpt>
      <trkpt lat="49.85401" lon="2.32381">
        <ele>45.1</ele>
        <time>2024-01-12T13:58:22Z</time>
      </trkpt>
      <trkpt lat="49.85402" lon="2.32382">
        <ele>45.1</ele>
        <time>2024-01-12T13:58:23Z</time>
      </trkpt>
      <trkpt lat="49.85403" lon="2.32383">
        <ele>45.1</ele>
        <time>2024-01-12T13:58:24Z</time>
      </trkpt>
      <trkpt lat="49.85404" lon="2.32384">
        <ele>45.2</ele>
        <time>2024-01-12T13:58:25Z</time>
      </trkpt>
      <trkpt lat="49.85404" lon="2.32385">
        <ele>45.2</ele>
        <time>2024-01-12T13:58:26Z</time>
      </trkpt>
      <trkpt lat="49.85405" lon="2.32386">
        <ele>45.2</ele>
        <time>2024-01-12T13:58:27Z</time>
      </trkpt>
      <trkpt lat="49.85406" lon="2.32387">
        <ele>45.2</ele>
        <time>2024-01-12T13:58:28Z</time>
      </trkpt>
      <trkpt lat="49.85407" lon="2.32388">
        <ele>45.2</ele>
        <time>2024-01-12T13:58:29Z</time>
      </trkpt>
      <trkpt lat="49.85408" lon="2.32389">
        <ele>45.2</ele>
        <time>2024-01-12T13:58:30Z</time>
      </trkpt>
      <trkpt lat="49.85408" lon="2.3239">
        <ele>45.2</ele>
        <time>2024-01-12T13:58:31Z</time>
      </trkpt>
      <trkpt lat="49.85409" lon="2.32391">
        <ele>45.3</ele>
        <time>2024-01-12T13:58:32Z</time>
      </trkpt>
      <trkpt lat="49.8541" lon="2.32392">
        <ele>45.3</ele>
        <time>2024-01-12T13:58:33Z</time>
      </trkpt>
      <trkpt lat="49.85411" lon="2.32394">
        <ele>45.3</ele>
        <time>2024-01-12T13:58:34Z</time>
      </trkpt>
      <trkpt lat="49.85412" lon="2.32395">
        <ele>45.3</ele>
        <time>2024-01-12T13:58:35Z</time>
      </trkpt>
      <trkpt lat="49.85412" lon="2.32396">
        <ele>45.3</ele>
        <time>2024-01-12T13:58:36Z</time>
      </trkpt>
      <trkpt lat="49.85413" lon="2.32396">
        <ele>45.3</ele>
        <time>2024-01-12T13:58:37Z</time>
      </trkpt>
      <trkpt lat="49.85413" lon="2.32397">
        <ele>45.3</ele>
        <time>2024-01-12T13:58:38Z</time>
      </trkpt>
      <trkpt lat="49.85414" lon="2.32398">
        <ele>45.4</ele>
        <time>2024-01-12T13:58:39Z</time>
      </trkpt>
      <trkpt lat="49.85415" lon="2.32399">
        <ele>45.4</ele>
        <time>2024-01-12T13:58:40Z</time>
      </trkpt>
      <trkpt lat="49.85416" lon="2.324">
        <ele>45.4</ele>
        <time>2024-01-12T13:58:41Z</time>
      </trkpt>
      <trkpt lat="49.85417" lon="2.32401">
        <ele>45.4</ele>
        <time>2024-01-12T13:58:42Z</time>
      </trkpt>
      <trkpt lat="49.85417" lon="2.32402">
        <ele>45.4</ele>
        <time>2024-01-12T13:58:43Z</time>
      </trkpt>
      <trkpt lat="49.85418" lon="2.32403">
        <ele>45.4</ele>
        <time>2024-01-12T13:58:44Z</time>
      </trkpt>
      <trkpt lat="49.85419" lon="2.32404">
        <ele>45.4</ele>
        <time>2024-01-12T13:58:45Z</time>
      </trkpt>
      <trkpt lat="49.8542" lon="2.32405">
        <ele>45.4</ele>
        <time>2024-01-12T13:58:46Z</time>
      </trkpt>
      <trkpt lat="49.85421" lon="2.32406">
        <ele>45.4</ele>
        <time>2024-01-12T13:58:47Z</time>
      </trkpt>
      <trkpt lat="49.85421" lon="2.32407">
        <ele>45.5</ele>
        <time>2024-01-12T13:58:48Z</time>
      </trkpt>
      <trkpt lat="49.85422" lon="2.32408">
        <ele>45.5</ele>
        <time>2024-01-12T13:58:49Z</time>
      </trkpt>
      <trkpt lat="49.85423" lon="2.32409">
        <ele>45.5</ele>
        <time>2024-01-12T13:58:50Z</time>
      </trkpt>
      <trkpt lat="49.85424" lon="2.3241">
        <ele>45.5</ele>
        <time>2024-01-12T13:58:51Z</time>
      </trkpt>
      <trkpt lat="49.85425" lon="2.32411">
        <ele>45.5</ele>
        <time>2024-01-12T13:58:52Z</time>
      </trkpt>
      <trkpt lat="49.85426" lon="2.32412">
        <ele>45.5</ele>
        <time>2024-01-12T13:58:53Z</time>
      </trkpt>
      <trkpt lat="49.85427" lon="2.32413">
        <ele>45.5</ele>
        <time>2024-01-12T13:58:54Z</time>
      </trkpt>
      <trkpt lat="49.85428" lon="2.32414">
        <ele>45.5</ele>
        <time>2024-01-12T13:58:55Z</time>
      </trkpt>
      <trkpt lat="49.85429" lon="2.32415">
        <ele>45.5</ele>
        <time>2024-01-12T13:58:56Z</time>
      </trkpt>
      <trkpt lat="49.8543" lon="2.32416">
        <ele>45.6</ele>
        <time>2024-01-12T13:58:57Z</time>
      </trkpt>
      <trkpt lat="49.85431" lon="2.32417">
        <ele>45.6</ele>
        <time>2024-01-12T13:58:58Z</time>
      </trkpt>
      <trkpt lat="49.85432" lon="2.32418">
        <ele>45.6</ele>
        <time>2024-01-12T13:58:59Z</time>
      </trkpt>
      <trkpt lat="49.85433" lon="2.32419">
        <ele>45.6</ele>
        <time>2024-01-12T13:59:00Z</time>
      </trkpt>
      <trkpt lat="49.85434" lon="2.3242">
        <ele>45.6</ele>
        <time>2024-01-12T13:59:01Z</time>
      </trkpt>
      <trkpt lat="49.85434" lon="2.32421">
        <ele>45.6</ele>
        <time>2024-01-12T13:59:02Z</time>
      </trkpt>
      <trkpt lat="49.85435" lon="2.32422">
        <ele>45.6</ele>
        <time>2024-01-12T13:59:03Z</time>
      </trkpt>
      <trkpt lat="49.85436" lon="2.32423">
        <ele>45.6</ele>
        <time>2024-01-12T13:59:04Z</time>
      </trkpt>
      <trkpt lat="49.85437" lon="2.32424">
        <ele>45.6</ele>
        <time>2024-01-12T13:59:05Z</time>
      </trkpt>
      <trkpt lat="49.85438" lon="2.32425">
        <ele>45.6</ele>
        <time>2024-01-12T13:59:06Z</time>
      </trkpt>
      <trkpt lat="49.85439" lon="2.32426">
        <ele>45.7</ele>
        <time>2024-01-12T13:59:07Z</time>
      </trkpt>
      <trkpt lat="49.8544" lon="2.32428">
        <ele>45.7</ele>
        <time>2024-01-12T13:59:08Z</time>
      </trkpt>
      <trkpt lat="49.85441" lon="2.3243">
        <ele>45.7</ele>
        <time>2024-01-12T13:59:09Z</time>
      </trkpt>
      <trkpt lat="49.85442" lon="2.32431">
        <ele>45.7</ele>
        <time>2024-01-12T13:59:10Z</time>
      </trkpt>
      <trkpt lat="49.85443" lon="2.32432">
        <ele>45.8</ele>
        <time>2024-01-12T13:59:11Z</time>
      </trkpt>
      <trkpt lat="49.85446" lon="2.32434">
        <ele>45.8</ele>
        <time>2024-01-12T13:59:12Z</time>
      </trkpt>
      <trkpt lat="49.85447" lon="2.32435">
        <ele>45.9</ele>
        <time>2024-01-12T13:59:13Z</time>
      </trkpt>
      <trkpt lat="49.8545" lon="2.32437">
        <ele>45.9</ele>
        <time>2024-01-12T13:59:14Z</time>
      </trkpt>
      <trkpt lat="49.85451" lon="2.32437">
        <ele>46</ele>
        <time>2024-01-12T13:59:15Z</time>
      </trkpt>
      <trkpt lat="49.85452" lon="2.32439">
        <ele>46</ele>
        <time>2024-01-12T13:59:16Z</time>
      </trkpt>
      <trkpt lat="49.85454" lon="2.3244">
        <ele>46.1</ele>
        <time>2024-01-12T13:59:17Z</time>
      </trkpt>
      <trkpt lat="49.85456" lon="2.32441">
        <ele>46.1</ele>
        <time>2024-01-12T13:59:18Z</time>
      </trkpt>
      <trkpt lat="49.85457" lon="2.32442">
        <ele>46.2</ele>
        <time>2024-01-12T13:59:19Z</time>
      </trkpt>
      <trkpt lat="49.85458" lon="2.32443">
        <ele>46.3</ele>
        <time>2024-01-12T13:59:20Z</time>
      </trkpt>
      <trkpt lat="49.8546" lon="2.32443">
        <ele>46.3</ele>
        <time>2024-01-12T13:59:21Z</time>
      </trkpt>
      <trkpt lat="49.85461" lon="2.32444">
        <ele>46.4</ele>
        <time>2024-01-12T13:59:22Z</time>
      </trkpt>
      <trkpt lat="49.85462" lon="2.32445">
        <ele>46.4</ele>
        <time>2024-01-12T13:59:23Z</time>
      </trkpt>
      <trkpt lat="49.85463" lon="2.32445">
        <ele>46.4</ele>
        <time>2024-01-12T13:59:24Z</time>
      </trkpt>
      <trkpt lat="49.85463" lon="2.32445">
        <ele>46.5</ele>
        <time>2024-01-12T13:59:25Z</time>
      </trkpt>
      <trkpt lat="49.85464" lon="2.32446">
        <ele>46.5</ele>
        <time>2024-01-12T13:59:26Z</time>
      </trkpt>
      <trkpt lat="49.85464" lon="2.32446">
        <ele>46.5</ele>
        <time>2024-01-12T13:59:27Z</time>
      </trkpt>
      <trkpt lat="49.85465" lon="2.32447">
        <ele>46.5</ele>
        <time>2024-01-12T13:59:28Z</time>
      </trkpt>
      <trkpt lat="49.85465" lon="2.32447">
        <ele>46.5</ele>
        <time>2024-01-12T13:59:29Z</time>
      </trkpt>
      <trkpt lat="49.85466" lon="2.32448">
        <ele>46.6</ele>
        <time>2024-01-12T13:59:30Z</time>
      </trkpt>
      <trkpt lat="49.85466" lon="2.32449">
        <ele>46.6</ele>
        <time>2024-01-12T13:59:31Z</time>
      </trkpt>
      <trkpt lat="49.85467" lon="2.32449">
        <ele>46.6</ele>
        <time>2024-01-12T13:59:32Z</time>
      </trkpt>
      <trkpt lat="49.85467" lon="2.3245">
        <ele>46.6</ele>
        <time>2024-01-12T13:59:33Z</time>
      </trkpt>
      <trkpt lat="49.85467" lon="2.3245">
        <ele>46.6</ele>
        <time>2024-01-12T13:59:34Z</time>
      </trkpt>
      <trkpt lat="49.85467" lon="2.32451">
        <ele>46.7</ele>
        <time>2024-01-12T13:59:35Z</time>
      </trkpt>
      <trkpt lat="49.85467" lon="2.32452">
        <ele>46.7</ele>
        <time>2024-01-12T13:59:36Z</time>
      </trkpt>
      <trkpt lat="49.85467" lon="2.32453">
        <ele>46.7</ele>
        <time>2024-01-12T13:59:37Z</time>
      </trkpt>
      <trkpt lat="49.85467" lon="2.32454">
        <ele>46.7</ele>
        <time>2024-01-12T13:59:38Z</time>
      </trkpt>
      <trkpt lat="49.85468" lon="2.32454">
        <ele>46.8</ele>
        <time>2024-01-12T13:59:39Z</time>
      </trkpt>
      <trkpt lat="49.85468" lon="2.32455">
        <ele>46.8</ele>
        <time>2024-01-12T13:59:40Z</time>
      </trkpt>
      <trkpt lat="49.85469" lon="2.32456">
        <ele>46.8</ele>
        <time>2024-01-12T13:59:41Z</time>
      </trkpt>
      <trkpt lat="49.8547" lon="2.32457">
        <ele>46.8</ele>
        <time>2024-01-12T13:59:42Z</time>
      </trkpt>
      <trkpt lat="49.8547" lon="2.32458">
        <ele>46.9</ele>
        <time>2024-01-12T13:59:43Z</time>
      </trkpt>
      <trkpt lat="49.85471" lon="2.32459">
        <ele>46.9</ele>
        <time>2024-01-12T13:59:44Z</time>
      </trkpt>
      <trkpt lat="49.85472" lon="2.3246">
        <ele>46.9</ele>
        <time>2024-01-12T13:59:45Z</time>
      </trkpt>
      <trkpt lat="49.85473" lon="2.3246">
        <ele>46.9</ele>
        <time>2024-01-12T13:59:46Z</time>
      </trkpt>
      <trkpt lat="49.85473" lon="2.32461">
        <ele>47</ele>
        <time>2024-01-12T13:59:47Z</time>
      </trkpt>
      <trkpt lat="49.85474" lon="2.32462">
        <ele>47</ele>
        <time>2024-01-12T13:59:48Z</time>
      </trkpt>
      <trkpt lat="49.85475" lon="2.32463">
        <ele>47</ele>
        <time>2024-01-12T13:59:49Z</time>
      </trkpt>
      <trkpt lat="49.85476" lon="2.32464">
        <ele>47</ele>
        <time>2024-01-12T13:59:50Z</time>
      </trkpt>
      <trkpt lat="49.85476" lon="2.32465">
        <ele>47.1</ele>
        <time>2024-01-12T13:59:51Z</time>
      </trkpt>
      <trkpt lat="49.85477" lon="2.32466">
        <ele>47.1</ele>
        <time>2024-01-12T13:59:52Z</time>
      </trkpt>
      <trkpt lat="49.85478" lon="2.32467">
        <ele>47.1</ele>
        <time>2024-01-12T13:59:53Z</time>
      </trkpt>
      <trkpt lat="49.85479" lon="2.32468">
        <ele>47.2</ele>
        <time>2024-01-12T13:59:54Z</time>
      </trkpt>
      <trkpt lat="49.8548" lon="2.32469">
        <ele>47.2</ele>
        <time>2024-01-12T13:59:55Z</time>
      </trkpt>
      <trkpt lat="49.85481" lon="2.3247">
        <ele>47.2</ele>
        <time>2024-01-12T13:59:56Z</time>
      </trkpt>
      <trkpt lat="49.85482" lon="2.32471">
        <ele>47.3</ele>
        <time>2024-01-12T13:59:57Z</time>
      </trkpt>
      <trkpt lat="49.85483" lon="2.32472">
        <ele>47.3</ele>
        <time>2024-01-12T13:59:58Z</time>
      </trkpt>
      <trkpt lat="49.85483" lon="2.32473">
        <ele>47.3</ele>
        <time>2024-01-12T13:59:59Z</time>
      </trkpt>
      <trkpt lat="49.85484" lon="2.32474">
        <ele>47.3</ele>
        <time>2024-01-12T14:00:00Z</time>
      </trkpt>
      <trkpt lat="49.85485" lon="2.32475">
        <ele>47.4</ele>
        <time>2024-01-12T14:00:01Z</time>
      </trkpt>
      <trkpt lat="49.85486" lon="2.32476">
        <ele>47.4</ele>
        <time>2024-01-12T14:00:02Z</time>
      </trkpt>
      <trkpt lat="49.85487" lon="2.32477">
        <ele>47.4</ele>
        <time>2024-01-12T14:00:03Z</time>
      </trkpt>
      <trkpt lat="49.85488" lon="2.32478">
        <ele>47.4</ele>
        <time>2024-01-12T14:00:04Z</time>
      </trkpt>
      <trkpt lat="49.85488" lon="2.3248">
        <ele>47.5</ele>
        <time>2024-01-12T14:00:05Z</time>
      </trkpt>
      <trkpt lat="49.85489" lon="2.3248">
        <ele>47.5</ele>
        <time>2024-01-12T14:00:06Z</time>
      </trkpt>
      <trkpt lat="49.8549" lon="2.32481">
        <ele>47.5</ele>
        <time>2024-01-12T14:00:07Z</time>
      </trkpt>
      <trkpt lat="49.85491" lon="2.32481">
        <ele>47.5</ele>
        <time>2024-01-12T14:00:08Z</time>
      </trkpt>
      <trkpt lat="49.85492" lon="2.32482">
        <ele>47.5</ele>
        <time>2024-01-12T14:00:09Z</time>
      </trkpt>
      <trkpt lat="49.85492" lon="2.32482">
        <ele>47.5</ele>
        <time>2024-01-12T14:00:10Z</time>
      </trkpt>
      <trkpt lat="49.85493" lon="2.32483">
        <ele>47.5</ele>
        <time>2024-01-12T14:00:11Z</time>
      </trkpt>
      <trkpt lat="49.85494" lon="2.32483">
        <ele>47.5</ele>
        <time>2024-01-12T14:00:12Z</time>
      </trkpt>
      <trkpt lat="49.85495" lon="2.32484">
        <ele>47.5</ele>
        <time>2024-01-12T14:00:13Z</time>
      </trkpt>
      <trkpt lat="49.85495" lon="2.32484">
        <ele>47.6</ele>
        <time>2024-01-12T14:00:14Z</time>
      </trkpt>
      <trkpt lat="49.85496" lon="2.32484">
        <ele>47.6</ele>
        <time>2024-01-12T14:00:15Z</time>
      </trkpt>
      <trkpt lat="49.85497" lon="2.32485">
        <ele>47.6</ele>
        <time>2024-01-12T14:00:16Z</time>
      </trkpt>
      <trkpt lat="49.85498" lon="2.32485">
        <ele>47.6</ele>
        <time>2024-01-12T14:00:17Z</time>
      </trkpt>
      <trkpt lat="49.85498" lon="2.32486">
        <ele>47.6</ele>
        <time>2024-01-12T14:00:18Z</time>
      </trkpt>
      <trkpt lat="49.85499" lon="2.32486">
        <ele>47.6</ele>
        <time>2024-01-12T14:00:19Z</time>
      </trkpt>
      <trkpt lat="49.855" lon="2.32487">
        <ele>47.6</ele>
        <time>2024-01-12T14:00:20Z</time>
      </trkpt>
      <trkpt lat="49.855" lon="2.32487">
        <ele>47.6</ele>
        <time>2024-01-12T14:00:21Z</time>
      </trkpt>
      <trkpt lat="49.85501" lon="2.32487">
        <ele>47.6</ele>
        <time>2024-01-12T14:00:22Z</time>
      </trkpt>
      <trkpt lat="49.85501" lon="2.32487">
        <ele>47.6</ele>
        <time>2024-01-12T14:00:23Z</time>
      </trkpt>
      <trkpt lat="49.85501" lon="2.32487">
        <ele>47.6</ele>
        <time>2024-01-12T14:00:24Z</time>
      </trkpt>
      <trkpt lat="49.85501" lon="2.32487">
        <ele>47.6</ele>
        <time>2024-01-12T14:00:25Z</time>
      </trkpt>
      <trkpt lat="49.85501" lon="2.32487">
        <ele>47.6</ele>
        <time>2024-01-12T14:00:26Z</time>
      </trkpt>
      <trkpt lat="49.85501" lon="2.32487">
        <ele>47.6</ele>
        <time>2024-01-12T14:00:27Z</time>
      </trkpt>
      <trkpt lat="49.85501" lon="2.32486">
        <ele>47.6</ele>
        <time>2024-01-12T14:00:28Z</time>
      </trkpt>
      <trkpt lat="49.85501" lon="2.32486">
        <ele>47.6</ele>
        <time>2024-01-12T14:00:29Z</time>
      </trkpt>
      <trkpt lat="49.85501" lon="2.32486">
        <ele>47.6</ele>
        <time>2024-01-12T14:00:30Z</time>
      </trkpt>
      <trkpt lat="49.85501" lon="2.32486">
        <ele>47.6</ele>
        <time>2024-01-12T14:00:31Z</time>
      </trkpt>
      <trkpt lat="49.85501" lon="2.32486">
        <ele>47.6</ele>
        <time>2024-01-12T14:00:32Z</time>
      </trkpt>
      <trkpt lat="49.85501" lon="2.32486">
        <ele>47.6</ele>
        <time>2024-01-12T14:00:33Z</time>
      </trkpt>
      <trkpt lat="49.85501" lon="2.32486">
        <ele>47.6</ele>
        <time>2024-01-12T14:00:34Z</time>
      </trkpt>
      <trkpt lat="49.85501" lon="2.32487">
        <ele>47.6</ele>
        <time>2024-01-12T14:00:35Z</time>
      </trkpt>
      <trkpt lat="49.85502" lon="2.32487">
        <ele>47.6</ele>
        <time>2024-01-12T14:00:36Z</time>
      </trkpt>
      <trkpt lat="49.85502" lon="2.32487">
        <ele>47.6</ele>
        <time>2024-01-12T14:00:37Z</time>
      </trkpt>
      <trkpt lat="49.85502" lon="2.32487">
        <ele>47.6</ele>
        <time>2024-01-12T14:00:38Z</time>
      </trkpt>
      <trkpt lat="49.85503" lon="2.32488">
        <ele>47.6</ele>
        <time>2024-01-12T14:00:39Z</time>
      </trkpt>
      <trkpt lat="49.85503" lon="2.32489">
        <ele>47.6</ele>
        <time>2024-01-12T14:00:40Z</time>
      </trkpt>
      <trkpt lat="49.85504" lon="2.32489">
        <ele>47.6</ele>
        <time>2024-01-12T14:00:41Z</time>
      </trkpt>
      <trkpt lat="49.85505" lon="2.3249">
        <ele>47.6</ele>
        <time>2024-01-12T14:00:42Z</time>
      </trkpt>
      <trkpt lat="49.85506" lon="2.32491">
        <ele>47.6</ele>
        <time>2024-01-12T14:00:43Z</time>
      </trkpt>
      <trkpt lat="49.85506" lon="2.32492">
        <ele>47.6</ele>
        <time>2024-01-12T14:00:44Z</time>
      </trkpt>
      <trkpt lat="49.85507" lon="2.32493">
        <ele>47.7</ele>
        <time>2024-01-12T14:00:45Z</time>
      </trkpt>
      <trkpt lat="49.85508" lon="2.32494">
        <ele>47.7</ele>
        <time>2024-01-12T14:00:46Z</time>
      </trkpt>
      <trkpt lat="49.85509" lon="2.32495">
        <ele>47.7</ele>
        <time>2024-01-12T14:00:47Z</time>
      </trkpt>
      <trkpt lat="49.8551" lon="2.32496">
        <ele>47.7</ele>
        <time>2024-01-12T14:00:48Z</time>
      </trkpt>
      <trkpt lat="49.85511" lon="2.32497">
        <ele>47.7</ele>
        <time>2024-01-12T14:00:49Z</time>
      </trkpt>
      <trkpt lat="49.85512" lon="2.32498">
        <ele>47.7</ele>
        <time>2024-01-12T14:00:50Z</time>
      </trkpt>
      <trkpt lat="49.85513" lon="2.32499">
        <ele>47.7</ele>
        <time>2024-01-12T14:00:51Z</time>
      </trkpt>
      <trkpt lat="49.85514" lon="2.325">
        <ele>47.7</ele>
        <time>2024-01-12T14:00:52Z</time>
      </trkpt>
      <trkpt lat="49.85516" lon="2.32501">
        <ele>47.7</ele>
        <time>2024-01-12T14:00:53Z</time>
      </trkpt>
      <trkpt lat="49.85517" lon="2.32502">
        <ele>47.7</ele>
        <time>2024-01-12T14:00:54Z</time>
      </trkpt>
      <trkpt lat="49.85517" lon="2.32502">
        <ele>47.7</ele>
        <time>2024-01-12T14:00:55Z</time>
      </trkpt>
      <trkpt lat="49.85518" lon="2.32503">
        <ele>47.7</ele>
        <time>2024-01-12T14:00:56Z</time>
      </trkpt>
      <trkpt lat="49.85519" lon="2.32504">
        <ele>47.7</ele>
        <time>2024-01-12T14:00:57Z</time>
      </trkpt>
      <trkpt lat="49.8552" lon="2.32505">
        <ele>47.7</ele>
        <time>2024-01-12T14:00:58Z</time>
      </trkpt>
      <trkpt lat="49.85521" lon="2.32505">
        <ele>47.7</ele>
        <time>2024-01-12T14:00:59Z</time>
      </trkpt>
      <trkpt lat="49.85523" lon="2.32506">
        <ele>47.8</ele>
        <time>2024-01-12T14:01:00Z</time>
      </trkpt>
      <trkpt lat="49.85524" lon="2.32507">
        <ele>47.8</ele>
        <time>2024-01-12T14:01:01Z</time>
      </trkpt>
      <trkpt lat="49.85526" lon="2.32508">
        <ele>47.8</ele>
        <time>2024-01-12T14:01:02Z</time>
      </trkpt>
      <trkpt lat="49.85526" lon="2.32509">
        <ele>47.8</ele>
        <time>2024-01-12T14:01:03Z</time>
      </trkpt>
      <trkpt lat="49.85527" lon="2.32509">
        <ele>47.8</ele>
        <time>2024-01-12T14:01:04Z</time>
      </trkpt>
      <trkpt lat="49.85529" lon="2.3251">
        <ele>47.8</ele>
        <time>2024-01-12T14:01:05Z</time>
      </trkpt>
      <trkpt lat="49.8553" lon="2.3251">
        <ele>47.8</ele>
        <time>2024-01-12T14:01:06Z</time>
      </trkpt>
      <trkpt lat="49.85531" lon="2.3251">
        <ele>47.8</ele>
        <time>2024-01-12T14:01:07Z</time>
      </trkpt>
      <trkpt lat="49.85532" lon="2.3251">
        <ele>47.8</ele>
        <time>2024-01-12T14:01:08Z</time>
      </trkpt>
      <trkpt lat="49.85533" lon="2.32511">
        <ele>47.8</ele>
        <time>2024-01-12T14:01:09Z</time>
      </trkpt>
      <trkpt lat="49.85534" lon="2.32511">
        <ele>47.8</ele>
        <time>2024-01-12T14:01:10Z</time>
      </trkpt>
      <trkpt lat="49.85535" lon="2.32512">
        <ele>47.8</ele>
        <time>2024-01-12T14:01:11Z</time>
      </trkpt>
      <trkpt lat="49.85536" lon="2.32512">
        <ele>47.8</ele>
        <time>2024-01-12T14:01:12Z</time>
      </trkpt>
      <trkpt lat="49.85537" lon="2.32512">
        <ele>47.8</ele>
        <time>2024-01-12T14:01:13Z</time>
      </trkpt>
      <trkpt lat="49.85538" lon="2.32513">
        <ele>47.8</ele>
        <time>2024-01-12T14:01:14Z</time>
      </trkpt>
      <trkpt lat="49.85539" lon="2.32513">
        <ele>47.8</ele>
        <time>2024-01-12T14:01:15Z</time>
      </trkpt>
      <trkpt lat="49.8554" lon="2.32514">
        <ele>47.8</ele>
        <time>2024-01-12T14:01:16Z</time>
      </trkpt>
      <trkpt lat="49.85541" lon="2.32514">
        <ele>47.8</ele>
        <time>2024-01-12T14:01:17Z</time>
      </trkpt>
      <trkpt lat="49.85543" lon="2.32515">
        <ele>47.8</ele>
        <time>2024-01-12T14:01:18Z</time>
      </trkpt>
      <trkpt lat="49.85544" lon="2.32515">
        <ele>47.8</ele>
        <time>2024-01-12T14:01:19Z</time>
      </trkpt>
      <trkpt lat="49.85545" lon="2.32516">
        <ele>47.8</ele>
        <time>2024-01-12T14:01:20Z</time>
      </trkpt>
      <trkpt lat="49.85546" lon="2.32516">
        <ele>47.8</ele>
        <time>2024-01-12T14:01:21Z</time>
      </trkpt>
      <trkpt lat="49.85547" lon="2.32517">
        <ele>47.8</ele>
        <time>2024-01-12T14:01:22Z</time>
      </trkpt>
      <trkpt lat="49.85548" lon="2.32518">
        <ele>47.8</ele>
        <time>2024-01-12T14:01:23Z</time>
      </trkpt>
      <trkpt lat="49.85549" lon="2.32518">
        <ele>47.8</ele>
        <time>2024-01-12T14:01:24Z</time>
      </trkpt>
      <trkpt lat="49.8555" lon="2.32519">
        <ele>47.8</ele>
        <time>2024-01-12T14:01:25Z</time>
      </trkpt>
      <trkpt lat="49.85551" lon="2.32519">
        <ele>47.8</ele>
        <time>2024-01-12T14:01:26Z</time>
      </trkpt>
      <trkpt lat="49.85552" lon="2.3252">
        <ele>47.8</ele>
        <time>2024-01-12T14:01:27Z</time>
      </trkpt>
      <trkpt lat="49.85553" lon="2.32521">
        <ele>47.8</ele>
        <time>2024-01-12T14:01:28Z</time>
      </trkpt>
      <trkpt lat="49.85554" lon="2.32521">
        <ele>47.8</ele>
        <time>2024-01-12T14:01:29Z</time>
      </trkpt>
      <trkpt lat="49.85555" lon="2.32522">
        <ele>47.8</ele>
        <time>2024-01-12T14:01:30Z</time>
      </trkpt>
      <trkpt lat="49.85556" lon="2.32523">
        <ele>47.8</ele>
        <time>2024-01-12T14:01:31Z</time>
      </trkpt>
      <trkpt lat="49.85557" lon="2.32523">
        <ele>47.8</ele>
        <time>2024-01-12T14:01:32Z</time>
      </trkpt>
      <trkpt lat="49.85558" lon="2.32524">
        <ele>47.7</ele>
        <time>2024-01-12T14:01:33Z</time>
      </trkpt>
      <trkpt lat="49.85559" lon="2.32524">
        <ele>47.7</ele>
        <time>2024-01-12T14:01:34Z</time>
      </trkpt>
      <trkpt lat="49.8556" lon="2.32525">
        <ele>47.7</ele>
        <time>2024-01-12T14:01:35Z</time>
      </trkpt>
      <trkpt lat="49.8556" lon="2.32525">
        <ele>47.7</ele>
        <time>2024-01-12T14:01:36Z</time>
      </trkpt>
      <trkpt lat="49.85561" lon="2.32525">
        <ele>47.7</ele>
        <time>2024-01-12T14:01:37Z</time>
      </trkpt>
      <trkpt lat="49.85562" lon="2.32526">
        <ele>47.7</ele>
        <time>2024-01-12T14:01:38Z</time>
      </trkpt>
      <trkpt lat="49.85563" lon="2.32526">
        <ele>47.7</ele>
        <time>2024-01-12T14:01:39Z</time>
      </trkpt>
      <trkpt lat="49.85564" lon="2.32527">
        <ele>47.7</ele>
        <time>2024-01-12T14:01:40Z</time>
      </trkpt>
      <trkpt lat="49.85565" lon="2.32527">
        <ele>47.7</ele>
        <time>2024-01-12T14:01:41Z</time>
      </trkpt>
      <trkpt lat="49.85566" lon="2.32527">
        <ele>47.7</ele>
        <time>2024-01-12T14:01:42Z</time>
      </trkpt>
      <trkpt lat="49.85567" lon="2.32528">
        <ele>47.7</ele>
        <time>2024-01-12T14:01:43Z</time>
      </trkpt>
      <trkpt lat="49.85568" lon="2.32528">
        <ele>47.7</ele>
        <time>2024-01-12T14:01:44Z</time>
      </trkpt>
      <trkpt lat="49.85569" lon="2.32528">
        <ele>47.7</ele>
        <time>2024-01-12T14:01:45Z</time>
      </trkpt>
      <trkpt lat="49.8557" lon="2.32529">
        <ele>47.7</ele>
        <time>2024-01-12T14:01:46Z</time>
      </trkpt>
      <trkpt lat="49.85571" lon="2.32529">
        <ele>47.7</ele>
        <time>2024-01-12T14:01:47Z</time>
      </trkpt>
      <trkpt lat="49.85572" lon="2.32529">
        <ele>47.7</ele>
        <time>2024-01-12T14:01:48Z</time>
      </trkpt>
      <trkpt lat="49.85573" lon="2.3253">
        <ele>47.6</ele>
        <time>2024-01-12T14:01:49Z</time>
      </trkpt>
      <trkpt lat="49.85574" lon="2.3253">
        <ele>47.6</ele>
        <time>2024-01-12T14:01:50Z</time>
      </trkpt>
      <trkpt lat="49.85575" lon="2.32531">
        <ele>47.6</ele>
        <time>2024-01-12T14:01:51Z</time>
      </trkpt>
      <trkpt lat="49.85576" lon="2.32531">
        <ele>47.6</ele>
        <time>2024-01-12T14:01:52Z</time>
      </trkpt>
      <trkpt lat="49.85577" lon="2.32531">
        <ele>47.6</ele>
        <time>2024-01-12T14:01:53Z</time>
      </trkpt>
      <trkpt lat="49.85578" lon="2.32532">
        <ele>47.6</ele>
        <time>2024-01-12T14:01:54Z</time>
      </trkpt>
      <trkpt lat="49.85579" lon="2.32532">
        <ele>47.6</ele>
        <time>2024-01-12T14:01:55Z</time>
      </trkpt>
      <trkpt lat="49.8558" lon="2.32533">
        <ele>47.6</ele>
        <time>2024-01-12T14:01:56Z</time>
      </trkpt>
      <trkpt lat="49.85581" lon="2.32533">
        <ele>47.6</ele>
        <time>2024-01-12T14:01:57Z</time>
      </trkpt>
      <trkpt lat="49.85582" lon="2.32533">
        <ele>47.6</ele>
        <time>2024-01-12T14:01:58Z</time>
      </trkpt>
      <trkpt lat="49.85583" lon="2.32534">
        <ele>47.6</ele>
        <time>2024-01-12T14:01:59Z</time>
      </trkpt>
      <trkpt lat="49.85584" lon="2.32534">
        <ele>47.6</ele>
        <time>2024-01-12T14:02:00Z</time>
      </trkpt>
      <trkpt lat="49.85585" lon="2.32535">
        <ele>47.5</ele>
        <time>2024-01-12T14:02:01Z</time>
      </trkpt>
      <trkpt lat="49.85586" lon="2.32535">
        <ele>47.5</ele>
        <time>2024-01-12T14:02:02Z</time>
      </trkpt>
      <trkpt lat="49.85587" lon="2.32536">
        <ele>47.5</ele>
        <time>2024-01-12T14:02:03Z</time>
      </trkpt>
      <trkpt lat="49.85588" lon="2.32536">
        <ele>47.5</ele>
        <time>2024-01-12T14:02:04Z</time>
      </trkpt>
      <trkpt lat="49.85589" lon="2.32536">
        <ele>47.5</ele>
        <time>2024-01-12T14:02:05Z</time>
      </trkpt>
      <trkpt lat="49.85591" lon="2.32537">
        <ele>47.5</ele>
        <time>2024-01-12T14:02:06Z</time>
      </trkpt>
      <trkpt lat="49.85591" lon="2.32537">
        <ele>47.5</ele>
        <time>2024-01-12T14:02:07Z</time>
      </trkpt>
      <trkpt lat="49.85592" lon="2.32538">
        <ele>47.5</ele>
        <time>2024-01-12T14:02:08Z</time>
      </trkpt>
      <trkpt lat="49.85593" lon="2.32538">
        <ele>47.5</ele>
        <time>2024-01-12T14:02:09Z</time>
      </trkpt>
      <trkpt lat="49.85594" lon="2.32539">
        <ele>47.5</ele>
        <time>2024-01-12T14:02:10Z</time>
      </trkpt>
      <trkpt lat="49.85595" lon="2.32539">
        <ele>47.5</ele>
        <time>2024-01-12T14:02:11Z</time>
      </trkpt>
      <trkpt lat="49.85596" lon="2.32539">
        <ele>47.5</ele>
        <time>2024-01-12T14:02:12Z</time>
      </trkpt>
      <trkpt lat="49.85597" lon="2.3254">
        <ele>47.5</ele>
        <time>2024-01-12T14:02:13Z</time>
      </trkpt>
      <trkpt lat="49.85598" lon="2.3254">
        <ele>47.4</ele>
        <time>2024-01-12T14:02:14Z</time>
      </trkpt>
      <trkpt lat="49.85599" lon="2.3254">
        <ele>47.4</ele>
        <time>2024-01-12T14:02:15Z</time>
      </trkpt>
      <trkpt lat="49.856" lon="2.32541">
        <ele>47.4</ele>
        <time>2024-01-12T14:02:16Z</time>
      </trkpt>
      <trkpt lat="49.85601" lon="2.32541">
        <ele>47.4</ele>
        <time>2024-01-12T14:02:17Z</time>
      </trkpt>
      <trkpt lat="49.85602" lon="2.32542">
        <ele>47.4</ele>
        <time>2024-01-12T14:02:18Z</time>
      </trkpt>
      <trkpt lat="49.85603" lon="2.32542">
        <ele>47.4</ele>
        <time>2024-01-12T14:02:19Z</time>
      </trkpt>
      <trkpt lat="49.85605" lon="2.32543">
        <ele>47.4</ele>
        <time>2024-01-12T14:02:20Z</time>
      </trkpt>
      <trkpt lat="49.85606" lon="2.32543">
        <ele>47.4</ele>
        <time>2024-01-12T14:02:21Z</time>
      </trkpt>
      <trkpt lat="49.85607" lon="2.32543">
        <ele>47.4</ele>
        <time>2024-01-12T14:02:22Z</time>
      </trkpt>
      <trkpt lat="49.85608" lon="2.32543">
        <ele>47.4</ele>
        <time>2024-01-12T14:02:23Z</time>
      </trkpt>
      <trkpt lat="49.85609" lon="2.32543">
        <ele>47.4</ele>
        <time>2024-01-12T14:02:24Z</time>
      </trkpt>
      <trkpt lat="49.8561" lon="2.32543">
        <ele>47.4</ele>
        <time>2024-01-12T14:02:25Z</time>
      </trkpt>
      <trkpt lat="49.85611" lon="2.32543">
        <ele>47.4</ele>
        <time>2024-01-12T14:02:26Z</time>
      </trkpt>
      <trkpt lat="49.85612" lon="2.32544">
        <ele>47.4</ele>
        <time>2024-01-12T14:02:27Z</time>
      </trkpt>
      <trkpt lat="49.85613" lon="2.32544">
        <ele>47.4</ele>
        <time>2024-01-12T14:02:28Z</time>
      </trkpt>
      <trkpt lat="49.85615" lon="2.32544">
        <ele>47.4</ele>
        <time>2024-01-12T14:02:29Z</time>
      </trkpt>
      <trkpt lat="49.85616" lon="2.32544">
        <ele>47.4</ele>
        <time>2024-01-12T14:02:30Z</time>
      </trkpt>
      <trkpt lat="49.85617" lon="2.32544">
        <ele>47.4</ele>
        <time>2024-01-12T14:02:31Z</time>
      </trkpt>
      <trkpt lat="49.85618" lon="2.32544">
        <ele>47.4</ele>
        <time>2024-01-12T14:02:32Z</time>
      </trkpt>
      <trkpt lat="49.85619" lon="2.32544">
        <ele>47.3</ele>
        <time>2024-01-12T14:02:33Z</time>
      </trkpt>
      <trkpt lat="49.8562" lon="2.32544">
        <ele>47.3</ele>
        <time>2024-01-12T14:02:34Z</time>
      </trkpt>
      <trkpt lat="49.85621" lon="2.32544">
        <ele>47.3</ele>
        <time>2024-01-12T14:02:35Z</time>
      </trkpt>
      <trkpt lat="49.85622" lon="2.32545">
        <ele>47.3</ele>
        <time>2024-01-12T14:02:36Z</time>
      </trkpt>
      <trkpt lat="49.85623" lon="2.32545">
        <ele>47.3</ele>
        <time>2024-01-12T14:02:37Z</time>
      </trkpt>
      <trkpt lat="49.85625" lon="2.32545">
        <ele>47.3</ele>
        <time>2024-01-12T14:02:38Z</time>
      </trkpt>
      <trkpt lat="49.85626" lon="2.32545">
        <ele>47.3</ele>
        <time>2024-01-12T14:02:39Z</time>
      </trkpt>
      <trkpt lat="49.85627" lon="2.32545">
        <ele>47.3</ele>
        <time>2024-01-12T14:02:40Z</time>
      </trkpt>
      <trkpt lat="49.85628" lon="2.32545">
        <ele>47.3</ele>
        <time>2024-01-12T14:02:41Z</time>
      </trkpt>
      <trkpt lat="49.85629" lon="2.32545">
        <ele>47.3</ele>
        <time>2024-01-12T14:02:42Z</time>
      </trkpt>
      <trkpt lat="49.8563" lon="2.32545">
        <ele>47.3</ele>
        <time>2024-01-12T14:02:43Z</time>
      </trkpt>
      <trkpt lat="49.85631" lon="2.32545">
        <ele>47.3</ele>
        <time>2024-01-12T14:02:44Z</time>
      </trkpt>
      <trkpt lat="49.85632" lon="2.32546">
        <ele>47.2</ele>
        <time>2024-01-12T14:02:45Z</time>
      </trkpt>
      <trkpt lat="49.85633" lon="2.32546">
        <ele>47.2</ele>
        <time>2024-01-12T14:02:46Z</time>
      </trkpt>
      <trkpt lat="49.85634" lon="2.32546">
        <ele>47.2</ele>
        <time>2024-01-12T14:02:47Z</time>
      </trkpt>
      <trkpt lat="49.85635" lon="2.32547">
        <ele>47.2</ele>
        <time>2024-01-12T14:02:48Z</time>
      </trkpt>
      <trkpt lat="49.85636" lon="2.32547">
        <ele>47.2</ele>
        <time>2024-01-12T14:02:49Z</time>
      </trkpt>
      <trkpt lat="49.85637" lon="2.32547">
        <ele>47.2</ele>
        <time>2024-01-12T14:02:50Z</time>
      </trkpt>
      <trkpt lat="49.85639" lon="2.32548">
        <ele>47.2</ele>
        <time>2024-01-12T14:02:51Z</time>
      </trkpt>
      <trkpt lat="49.8564" lon="2.32548">
        <ele>47.1</ele>
        <time>2024-01-12T14:02:52Z</time>
      </trkpt>
      <trkpt lat="49.85641" lon="2.32548">
        <ele>47.1</ele>
        <time>2024-01-12T14:02:53Z</time>
      </trkpt>
      <trkpt lat="49.85642" lon="2.32549">
        <ele>47.1</ele>
        <time>2024-01-12T14:02:54Z</time>
      </trkpt>
      <trkpt lat="49.85642" lon="2.32549">
        <ele>47.1</ele>
        <time>2024-01-12T14:02:55Z</time>
      </trkpt>
      <trkpt lat="49.85643" lon="2.32549">
        <ele>47.1</ele>
        <time>2024-01-12T14:02:56Z</time>
      </trkpt>
      <trkpt lat="49.85644" lon="2.3255">
        <ele>47.1</ele>
        <time>2024-01-12T14:02:57Z</time>
      </trkpt>
      <trkpt lat="49.85645" lon="2.3255">
        <ele>47</ele>
        <time>2024-01-12T14:02:58Z</time>
      </trkpt>
      <trkpt lat="49.85647" lon="2.3255">
        <ele>47</ele>
        <time>2024-01-12T14:02:59Z</time>
      </trkpt>
      <trkpt lat="49.85648" lon="2.32551">
        <ele>47</ele>
        <time>2024-01-12T14:03:00Z</time>
      </trkpt>
      <trkpt lat="49.85649" lon="2.32551">
        <ele>47</ele>
        <time>2024-01-12T14:03:01Z</time>
      </trkpt>
      <trkpt lat="49.8565" lon="2.32551">
        <ele>47</ele>
        <time>2024-01-12T14:03:02Z</time>
      </trkpt>
      <trkpt lat="49.85651" lon="2.32551">
        <ele>47</ele>
        <time>2024-01-12T14:03:03Z</time>
      </trkpt>
      <trkpt lat="49.85652" lon="2.32552">
        <ele>46.9</ele>
        <time>2024-01-12T14:03:04Z</time>
      </trkpt>
      <trkpt lat="49.85653" lon="2.32552">
        <ele>46.9</ele>
        <time>2024-01-12T14:03:05Z</time>
      </trkpt>
      <trkpt lat="49.85654" lon="2.32552">
        <ele>46.9</ele>
        <time>2024-01-12T14:03:06Z</time>
      </trkpt>
      <trkpt lat="49.85655" lon="2.32552">
        <ele>46.9</ele>
        <time>2024-01-12T14:03:07Z</time>
      </trkpt>
      <trkpt lat="49.85656" lon="2.32553">
        <ele>46.8</ele>
        <time>2024-01-12T14:03:08Z</time>
      </trkpt>
      <trkpt lat="49.85659" lon="2.32553">
        <ele>46.8</ele>
        <time>2024-01-12T14:03:09Z</time>
      </trkpt>
      <trkpt lat="49.85659" lon="2.32553">
        <ele>46.8</ele>
        <time>2024-01-12T14:03:10Z</time>
      </trkpt>
      <trkpt lat="49.8566" lon="2.32554">
        <ele>46.7</ele>
        <time>2024-01-12T14:03:11Z</time>
      </trkpt>
      <trkpt lat="49.85662" lon="2.32554">
        <ele>46.7</ele>
        <time>2024-01-12T14:03:12Z</time>
      </trkpt>
      <trkpt lat="49.85663" lon="2.32554">
        <ele>46.7</ele>
        <time>2024-01-12T14:03:13Z</time>
      </trkpt>
      <trkpt lat="49.85664" lon="2.32554">
        <ele>46.6</ele>
        <time>2024-01-12T14:03:14Z</time>
      </trkpt>
      <trkpt lat="49.85665" lon="2.32555">
        <ele>46.6</ele>
        <time>2024-01-12T14:03:15Z</time>
      </trkpt>
      <trkpt lat="49.85666" lon="2.32555">
        <ele>46.6</ele>
        <time>2024-01-12T14:03:16Z</time>
      </trkpt>
      <trkpt lat="49.85667" lon="2.32555">
        <ele>46.5</ele>
        <time>2024-01-12T14:03:17Z</time>
      </trkpt>
      <trkpt lat="49.85668" lon="2.32555">
        <ele>46.5</ele>
        <time>2024-01-12T14:03:18Z</time>
      </trkpt>
      <trkpt lat="49.85669" lon="2.32555">
        <ele>46.5</ele>
        <time>2024-01-12T14:03:19Z</time>
      </trkpt>
      <trkpt lat="49.8567" lon="2.32555">
        <ele>46.4</ele>
        <time>2024-01-12T14:03:20Z</time>
      </trkpt>
      <trkpt lat="49.85672" lon="2.32555">
        <ele>46.4</ele>
        <time>2024-01-12T14:03:21Z</time>
      </trkpt>
      <trkpt lat="49.85673" lon="2.32555">
        <ele>46.4</ele>
        <time>2024-01-12T14:03:22Z</time>
      </trkpt>
      <trkpt lat="49.85674" lon="2.32556">
        <ele>46.3</ele>
        <time>2024-01-12T14:03:23Z</time>
      </trkpt>
      <trkpt lat="49.85676" lon="2.32556">
        <ele>46.3</ele>
        <time>2024-01-12T14:03:24Z</time>
      </trkpt>
      <trkpt lat="49.85677" lon="2.32556">
        <ele>46.2</ele>
        <time>2024-01-12T14:03:25Z</time>
      </trkpt>
      <trkpt lat="49.85678" lon="2.32556">
        <ele>46.2</ele>
        <time>2024-01-12T14:03:26Z</time>
      </trkpt>
      <trkpt lat="49.8568" lon="2.32556">
        <ele>46.2</ele>
        <time>2024-01-12T14:03:27Z</time>
      </trkpt>
      <trkpt lat="49.8568" lon="2.32557">
        <ele>46.1</ele>
        <time>2024-01-12T14:03:28Z</time>
      </trkpt>
      <trkpt lat="49.85681" lon="2.32557">
        <ele>46.1</ele>
        <time>2024-01-12T14:03:29Z</time>
      </trkpt>
      <trkpt lat="49.85682" lon="2.32557">
        <ele>46.1</ele>
        <time>2024-01-12T14:03:30Z</time>
      </trkpt>
      <trkpt lat="49.85683" lon="2.32557">
        <ele>46</ele>
        <time>2024-01-12T14:03:31Z</time>
      </trkpt>
      <trkpt lat="49.85684" lon="2.32557">
        <ele>46</ele>
        <time>2024-01-12T14:03:32Z</time>
      </trkpt>
      <trkpt lat="49.85685" lon="2.32558">
        <ele>46</ele>
        <time>2024-01-12T14:03:33Z</time>
      </trkpt>
      <trkpt lat="49.85686" lon="2.32558">
        <ele>46</ele>
        <time>2024-01-12T14:03:34Z</time>
      </trkpt>
      <trkpt lat="49.85687" lon="2.32558">
        <ele>45.9</ele>
        <time>2024-01-12T14:03:35Z</time>
      </trkpt>
      <trkpt lat="49.85688" lon="2.32558">
        <ele>45.9</ele>
        <time>2024-01-12T14:03:36Z</time>
      </trkpt>
      <trkpt lat="49.85689" lon="2.32558">
        <ele>45.8</ele>
        <time>2024-01-12T14:03:37Z</time>
      </trkpt>
      <trkpt lat="49.85691" lon="2.32559">
        <ele>45.8</ele>
        <time>2024-01-12T14:03:38Z</time>
      </trkpt>
      <trkpt lat="49.85692" lon="2.32559">
        <ele>45.8</ele>
        <time>2024-01-12T14:03:39Z</time>
      </trkpt>
      <trkpt lat="49.85693" lon="2.32559">
        <ele>45.7</ele>
        <time>2024-01-12T14:03:40Z</time>
      </trkpt>
      <trkpt lat="49.85694" lon="2.3256">
        <ele>45.7</ele>
        <time>2024-01-12T14:03:41Z</time>
      </trkpt>
      <trkpt lat="49.85695" lon="2.3256">
        <ele>45.7</ele>
        <time>2024-01-12T14:03:42Z</time>
      </trkpt>
      <trkpt lat="49.85696" lon="2.3256">
        <ele>45.6</ele>
        <time>2024-01-12T14:03:43Z</time>
      </trkpt>
      <trkpt lat="49.85697" lon="2.3256">
        <ele>45.6</ele>
        <time>2024-01-12T14:03:44Z</time>
      </trkpt>
      <trkpt lat="49.85698" lon="2.3256">
        <ele>45.6</ele>
        <time>2024-01-12T14:03:45Z</time>
      </trkpt>
      <trkpt lat="49.85699" lon="2.32561">
        <ele>45.5</ele>
        <time>2024-01-12T14:03:46Z</time>
      </trkpt>
      <trkpt lat="49.857" lon="2.32561">
        <ele>45.5</ele>
        <time>2024-01-12T14:03:47Z</time>
      </trkpt>
      <trkpt lat="49.85701" lon="2.32561">
        <ele>45.5</ele>
        <time>2024-01-12T14:03:48Z</time>
      </trkpt>
      <trkpt lat="49.85702" lon="2.32561">
        <ele>45.4</ele>
        <time>2024-01-12T14:03:49Z</time>
      </trkpt>
      <trkpt lat="49.85703" lon="2.32561">
        <ele>45.4</ele>
        <time>2024-01-12T14:03:50Z</time>
      </trkpt>
      <trkpt lat="49.85704" lon="2.32561">
        <ele>45.4</ele>
        <time>2024-01-12T14:03:51Z</time>
      </trkpt>
      <trkpt lat="49.85705" lon="2.32562">
        <ele>45.3</ele>
        <time>2024-01-12T14:03:52Z</time>
      </trkpt>
      <trkpt lat="49.85707" lon="2.32562">
        <ele>45.3</ele>
        <time>2024-01-12T14:03:53Z</time>
      </trkpt>
      <trkpt lat="49.85708" lon="2.32562">
        <ele>45.2</ele>
        <time>2024-01-12T14:03:54Z</time>
      </trkpt>
      <trkpt lat="49.85709" lon="2.32562">
        <ele>45.2</ele>
        <time>2024-01-12T14:03:55Z</time>
      </trkpt>
      <trkpt lat="49.8571" lon="2.32563">
        <ele>45.2</ele>
        <time>2024-01-12T14:03:56Z</time>
      </trkpt>
      <trkpt lat="49.85711" lon="2.32563">
        <ele>45.1</ele>
        <time>2024-01-12T14:03:57Z</time>
      </trkpt>
      <trkpt lat="49.85712" lon="2.32563">
        <ele>45.1</ele>
        <time>2024-01-12T14:03:58Z</time>
      </trkpt>
      <trkpt lat="49.85713" lon="2.32563">
        <ele>45.1</ele>
        <time>2024-01-12T14:03:59Z</time>
      </trkpt>
      <trkpt lat="49.85714" lon="2.32564">
        <ele>45</ele>
        <time>2024-01-12T14:04:00Z</time>
      </trkpt>
      <trkpt lat="49.85715" lon="2.32564">
        <ele>45</ele>
        <time>2024-01-12T14:04:01Z</time>
      </trkpt>
      <trkpt lat="49.85716" lon="2.32564">
        <ele>45</ele>
        <time>2024-01-12T14:04:02Z</time>
      </trkpt>
      <trkpt lat="49.85717" lon="2.32564">
        <ele>44.9</ele>
        <time>2024-01-12T14:04:03Z</time>
      </trkpt>
      <trkpt lat="49.85718" lon="2.32565">
        <ele>44.9</ele>
        <time>2024-01-12T14:04:04Z</time>
      </trkpt>
      <trkpt lat="49.85719" lon="2.32565">
        <ele>44.9</ele>
        <time>2024-01-12T14:04:05Z</time>
      </trkpt>
      <trkpt lat="49.8572" lon="2.32565">
        <ele>44.8</ele>
        <time>2024-01-12T14:04:06Z</time>
      </trkpt>
      <trkpt lat="49.85722" lon="2.32565">
        <ele>44.8</ele>
        <time>2024-01-12T14:04:07Z</time>
      </trkpt>
      <trkpt lat="49.85723" lon="2.32566">
        <ele>44.7</ele>
        <time>2024-01-12T14:04:08Z</time>
      </trkpt>
      <trkpt lat="49.85724" lon="2.32566">
        <ele>44.7</ele>
        <time>2024-01-12T14:04:09Z</time>
      </trkpt>
      <trkpt lat="49.85725" lon="2.32567">
        <ele>44.7</ele>
        <time>2024-01-12T14:04:10Z</time>
      </trkpt>
      <trkpt lat="49.85726" lon="2.32567">
        <ele>44.6</ele>
        <time>2024-01-12T14:04:11Z</time>
      </trkpt>
      <trkpt lat="49.85727" lon="2.32568">
        <ele>44.6</ele>
        <time>2024-01-12T14:04:12Z</time>
      </trkpt>
      <trkpt lat="49.85728" lon="2.32568">
        <ele>44.5</ele>
        <time>2024-01-12T14:04:13Z</time>
      </trkpt>
      <trkpt lat="49.8573" lon="2.32569">
        <ele>44.5</ele>
        <time>2024-01-12T14:04:14Z</time>
      </trkpt>
      <trkpt lat="49.85732" lon="2.3257">
        <ele>44.4</ele>
        <time>2024-01-12T14:04:15Z</time>
      </trkpt>
      <trkpt lat="49.85732" lon="2.3257">
        <ele>44.4</ele>
        <time>2024-01-12T14:04:16Z</time>
      </trkpt>
      <trkpt lat="49.85733" lon="2.3257">
        <ele>44.4</ele>
        <time>2024-01-12T14:04:17Z</time>
      </trkpt>
      <trkpt lat="49.85734" lon="2.32571">
        <ele>44.3</ele>
        <time>2024-01-12T14:04:18Z</time>
      </trkpt>
      <trkpt lat="49.85735" lon="2.32571">
        <ele>44.3</ele>
        <time>2024-01-12T14:04:19Z</time>
      </trkpt>
      <trkpt lat="49.85736" lon="2.32572">
        <ele>44.3</ele>
        <time>2024-01-12T14:04:20Z</time>
      </trkpt>
      <trkpt lat="49.85737" lon="2.32572">
        <ele>44.2</ele>
        <time>2024-01-12T14:04:21Z</time>
      </trkpt>
      <trkpt lat="49.85738" lon="2.32573">
        <ele>44.2</ele>
        <time>2024-01-12T14:04:22Z</time>
      </trkpt>
      <trkpt lat="49.85739" lon="2.32573">
        <ele>44.2</ele>
        <time>2024-01-12T14:04:23Z</time>
      </trkpt>
      <trkpt lat="49.8574" lon="2.32573">
        <ele>44.1</ele>
        <time>2024-01-12T14:04:24Z</time>
      </trkpt>
      <trkpt lat="49.85741" lon="2.32574">
        <ele>44.1</ele>
        <time>2024-01-12T14:04:25Z</time>
      </trkpt>
      <trkpt lat="49.85742" lon="2.32574">
        <ele>44.1</ele>
        <time>2024-01-12T14:04:26Z</time>
      </trkpt>
      <trkpt lat="49.85744" lon="2.32575">
        <ele>44</ele>
        <time>2024-01-12T14:04:27Z</time>
      </trkpt>
      <trkpt lat="49.85745" lon="2.32575">
        <ele>44</ele>
        <time>2024-01-12T14:04:28Z</time>
      </trkpt>
      <trkpt lat="49.85746" lon="2.32576">
        <ele>44</ele>
        <time>2024-01-12T14:04:29Z</time>
      </trkpt>
      <trkpt lat="49.85747" lon="2.32576">
        <ele>43.9</ele>
        <time>2024-01-12T14:04:30Z</time>
      </trkpt>
      <trkpt lat="49.85748" lon="2.32576">
        <ele>43.9</ele>
        <time>2024-01-12T14:04:31Z</time>
      </trkpt>
      <trkpt lat="49.85749" lon="2.32577">
        <ele>43.9</ele>
        <time>2024-01-12T14:04:32Z</time>
      </trkpt>
      <trkpt lat="49.8575" lon="2.32577">
        <ele>43.9</ele>
        <time>2024-01-12T14:04:33Z</time>
      </trkpt>
      <trkpt lat="49.85751" lon="2.32577">
        <ele>43.9</ele>
        <time>2024-01-12T14:04:34Z</time>
      </trkpt>
      <trkpt lat="49.85752" lon="2.32577">
        <ele>43.8</ele>
        <time>2024-01-12T14:04:35Z</time>
      </trkpt>
      <trkpt lat="49.85752" lon="2.32578">
        <ele>43.8</ele>
        <time>2024-01-12T14:04:36Z</time>
      </trkpt>
      <trkpt lat="49.85753" lon="2.32578">
        <ele>43.8</ele>
        <time>2024-01-12T14:04:37Z</time>
      </trkpt>
      <trkpt lat="49.85754" lon="2.32579">
        <ele>43.8</ele>
        <time>2024-01-12T14:04:38Z</time>
      </trkpt>
      <trkpt lat="49.85755" lon="2.32579">
        <ele>43.8</ele>
        <time>2024-01-12T14:04:39Z</time>
      </trkpt>
      <trkpt lat="49.85756" lon="2.32579">
        <ele>43.7</ele>
        <time>2024-01-12T14:04:40Z</time>
      </trkpt>
      <trkpt lat="49.85757" lon="2.3258">
        <ele>43.7</ele>
        <time>2024-01-12T14:04:41Z</time>
      </trkpt>
      <trkpt lat="49.85757" lon="2.3258">
        <ele>43.7</ele>
        <time>2024-01-12T14:04:42Z</time>
      </trkpt>
      <trkpt lat="49.85758" lon="2.3258">
        <ele>43.7</ele>
        <time>2024-01-12T14:04:43Z</time>
      </trkpt>
      <trkpt lat="49.85758" lon="2.32579">
        <ele>43.7</ele>
        <time>2024-01-12T14:04:44Z</time>
      </trkpt>
      <trkpt lat="49.85758" lon="2.32579">
        <ele>43.7</ele>
        <time>2024-01-12T14:04:45Z</time>
      </trkpt>
      <trkpt lat="49.85758" lon="2.32579">
        <ele>43.7</ele>
        <time>2024-01-12T14:04:46Z</time>
      </trkpt>
      <trkpt lat="49.85758" lon="2.32579">
        <ele>43.7</ele>
        <time>2024-01-12T14:04:47Z</time>
      </trkpt>
      <trkpt lat="49.85758" lon="2.32579">
        <ele>43.7</ele>
        <time>2024-01-12T14:04:48Z</time>
      </trkpt>
      <trkpt lat="49.85758" lon="2.32579">
        <ele>43.7</ele>
        <time>2024-01-12T14:04:49Z</time>
      </trkpt>
      <trkpt lat="49.85758" lon="2.32579">
        <ele>43.7</ele>
        <time>2024-01-12T14:04:50Z</time>
      </trkpt>
      <trkpt lat="49.85758" lon="2.32579">
        <ele>43.7</ele>
        <time>2024-01-12T14:04:51Z</time>
      </trkpt>
      <trkpt lat="49.85758" lon="2.3258">
        <ele>43.7</ele>
        <time>2024-01-12T14:04:52Z</time>
      </trkpt>
      <trkpt lat="49.85758" lon="2.3258">
        <ele>43.7</ele>
        <time>2024-01-12T14:04:53Z</time>
      </trkpt>
      <trkpt lat="49.85758" lon="2.32581">
        <ele>43.6</ele>
        <time>2024-01-12T14:04:54Z</time>
      </trkpt>
      <trkpt lat="49.85759" lon="2.32581">
        <ele>43.6</ele>
        <time>2024-01-12T14:04:55Z</time>
      </trkpt>
      <trkpt lat="49.85759" lon="2.32582">
        <ele>43.6</ele>
        <time>2024-01-12T14:04:56Z</time>
      </trkpt>
      <trkpt lat="49.85759" lon="2.32582">
        <ele>43.6</ele>
        <time>2024-01-12T14:04:57Z</time>
      </trkpt>
      <trkpt lat="49.85759" lon="2.32582">
        <ele>43.6</ele>
        <time>2024-01-12T14:04:58Z</time>
      </trkpt>
      <trkpt lat="49.85759" lon="2.32582">
        <ele>43.6</ele>
        <time>2024-01-12T14:04:59Z</time>
      </trkpt>
      <trkpt lat="49.85758" lon="2.32582">
        <ele>43.6</ele>
        <time>2024-01-12T14:05:00Z</time>
      </trkpt>
      <trkpt lat="49.85758" lon="2.32582">
        <ele>43.6</ele>
        <time>2024-01-12T14:05:01Z</time>
      </trkpt>
      <trkpt lat="49.85758" lon="2.32582">
        <ele>43.6</ele>
        <time>2024-01-12T14:05:02Z</time>
      </trkpt>
      <trkpt lat="49.85758" lon="2.32582">
        <ele>43.6</ele>
        <time>2024-01-12T14:05:03Z</time>
      </trkpt>
      <trkpt lat="49.85758" lon="2.32582">
        <ele>43.6</ele>
        <time>2024-01-12T14:05:04Z</time>
      </trkpt>
      <trkpt lat="49.85758" lon="2.32582">
        <ele>43.6</ele>
        <time>2024-01-12T14:05:05Z</time>
      </trkpt>
      <trkpt lat="49.85758" lon="2.32582">
        <ele>43.6</ele>
        <time>2024-01-12T14:05:06Z</time>
      </trkpt>
      <trkpt lat="49.85758" lon="2.32582">
        <ele>43.6</ele>
        <time>2024-01-12T14:05:07Z</time>
      </trkpt>
      <trkpt lat="49.85755" lon="2.32581">
        <ele>43.6</ele>
        <time>2024-01-12T14:09:42Z</time>
      </trkpt>
      <trkpt lat="49.85755" lon="2.32582">
        <ele>43.6</ele>
        <time>2024-01-12T14:09:43Z</time>
      </trkpt>
      <trkpt lat="49.85756" lon="2.32582">
        <ele>43.5</ele>
        <time>2024-01-12T14:09:44Z</time>
      </trkpt>
      <trkpt lat="49.85756" lon="2.32583">
        <ele>43.5</ele>
        <time>2024-01-12T14:09:45Z</time>
      </trkpt>
      <trkpt lat="49.85757" lon="2.32583">
        <ele>43.5</ele>
        <time>2024-01-12T14:09:46Z</time>
      </trkpt>
      <trkpt lat="49.85758" lon="2.32584">
        <ele>43.5</ele>
        <time>2024-01-12T14:09:47Z</time>
      </trkpt>
      <trkpt lat="49.85758" lon="2.32585">
        <ele>43.5</ele>
        <time>2024-01-12T14:09:48Z</time>
      </trkpt>
      <trkpt lat="49.85758" lon="2.32585">
        <ele>43.5</ele>
        <time>2024-01-12T14:09:49Z</time>
      </trkpt>
      <trkpt lat="49.85759" lon="2.32586">
        <ele>43.5</ele>
        <time>2024-01-12T14:09:50Z</time>
      </trkpt>
      <trkpt lat="49.8576" lon="2.32587">
        <ele>43.5</ele>
        <time>2024-01-12T14:09:51Z</time>
      </trkpt>
      <trkpt lat="49.8576" lon="2.32588">
        <ele>43.5</ele>
        <time>2024-01-12T14:09:52Z</time>
      </trkpt>
      <trkpt lat="49.8576" lon="2.32588">
        <ele>43.5</ele>
        <time>2024-01-12T14:09:53Z</time>
      </trkpt>
      <trkpt lat="49.8576" lon="2.32589">
        <ele>43.4</ele>
        <time>2024-01-12T14:09:54Z</time>
      </trkpt>
      <trkpt lat="49.85761" lon="2.32589">
        <ele>43.4</ele>
        <time>2024-01-12T14:09:55Z</time>
      </trkpt>
      <trkpt lat="49.85761" lon="2.32589">
        <ele>43.4</ele>
        <time>2024-01-12T14:09:56Z</time>
      </trkpt>
      <trkpt lat="49.85761" lon="2.32589">
        <ele>43.4</ele>
        <time>2024-01-12T14:09:57Z</time>
      </trkpt>
      <trkpt lat="49.85761" lon="2.32589">
        <ele>43.4</ele>
        <time>2024-01-12T14:09:58Z</time>
      </trkpt>
      <trkpt lat="49.85761" lon="2.32589">
        <ele>43.4</ele>
        <time>2024-01-12T14:09:59Z</time>
      </trkpt>
      <trkpt lat="49.85761" lon="2.32589">
        <ele>43.4</ele>
        <time>2024-01-12T14:10:00Z</time>
      </trkpt>
      <trkpt lat="49.85761" lon="2.3259">
        <ele>43.4</ele>
        <time>2024-01-12T14:10:01Z</time>
      </trkpt>
      <trkpt lat="49.85761" lon="2.32591">
        <ele>43.4</ele>
        <time>2024-01-12T14:10:02Z</time>
      </trkpt>
      <trkpt lat="49.85761" lon="2.32591">
        <ele>43.4</ele>
        <time>2024-01-12T14:10:03Z</time>
      </trkpt>
      <trkpt lat="49.8576" lon="2.32592">
        <ele>43.4</ele>
        <time>2024-01-12T14:10:04Z</time>
      </trkpt>
      <trkpt lat="49.8576" lon="2.32593">
        <ele>43.4</ele>
        <time>2024-01-12T14:10:05Z</time>
      </trkpt>
      <trkpt lat="49.85759" lon="2.32593">
        <ele>43.4</ele>
        <time>2024-01-12T14:10:06Z</time>
      </trkpt>
      <trkpt lat="49.85759" lon="2.32594">
        <ele>43.4</ele>
        <time>2024-01-12T14:10:07Z</time>
      </trkpt>
      <trkpt lat="49.8576" lon="2.32594">
        <ele>43.4</ele>
        <time>2024-01-12T14:10:08Z</time>
      </trkpt>
      <trkpt lat="49.85761" lon="2.32593">
        <ele>43.4</ele>
        <time>2024-01-12T14:10:09Z</time>
      </trkpt>
      <trkpt lat="49.85761" lon="2.32593">
        <ele>43.4</ele>
        <time>2024-01-12T14:10:10Z</time>
      </trkpt>
      <trkpt lat="49.85761" lon="2.32594">
        <ele>43.4</ele>
        <time>2024-01-12T14:10:11Z</time>
      </trkpt>
      <trkpt lat="49.85761" lon="2.32595">
        <ele>43.4</ele>
        <time>2024-01-12T14:10:12Z</time>
      </trkpt>
      <trkpt lat="49.85761" lon="2.32596">
        <ele>43.4</ele>
        <time>2024-01-12T14:10:13Z</time>
      </trkpt>
      <trkpt lat="49.85761" lon="2.32597">
        <ele>43.3</ele>
        <time>2024-01-12T14:10:14Z</time>
      </trkpt>
      <trkpt lat="49.85761" lon="2.32597">
        <ele>43.3</ele>
        <time>2024-01-12T14:10:15Z</time>
      </trkpt>
      <trkpt lat="49.85762" lon="2.32598">
        <ele>43.3</ele>
        <time>2024-01-12T14:10:16Z</time>
      </trkpt>
      <trkpt lat="49.85762" lon="2.32599">
        <ele>43.3</ele>
        <time>2024-01-12T14:10:17Z</time>
      </trkpt>
      <trkpt lat="49.85762" lon="2.326">
        <ele>43.3</ele>
        <time>2024-01-12T14:10:18Z</time>
      </trkpt>
      <trkpt lat="49.85762" lon="2.32602">
        <ele>43.3</ele>
        <time>2024-01-12T14:10:19Z</time>
      </trkpt>
      <trkpt lat="49.85763" lon="2.32603">
        <ele>43.3</ele>
        <time>2024-01-12T14:10:20Z</time>
      </trkpt>
      <trkpt lat="49.85763" lon="2.32604">
        <ele>43.3</ele>
        <time>2024-01-12T14:10:21Z</time>
      </trkpt>
      <trkpt lat="49.85763" lon="2.32606">
        <ele>43.3</ele>
        <time>2024-01-12T14:10:22Z</time>
      </trkpt>
      <trkpt lat="49.85764" lon="2.32607">
        <ele>43.3</ele>
        <time>2024-01-12T14:10:23Z</time>
      </trkpt>
      <trkpt lat="49.85764" lon="2.32609">
        <ele>43.3</ele>
        <time>2024-01-12T14:10:24Z</time>
      </trkpt>
      <trkpt lat="49.85765" lon="2.3261">
        <ele>43.2</ele>
        <time>2024-01-12T14:10:25Z</time>
      </trkpt>
      <trkpt lat="49.85765" lon="2.32611">
        <ele>43.2</ele>
        <time>2024-01-12T14:10:26Z</time>
      </trkpt>
      <trkpt lat="49.85766" lon="2.32613">
        <ele>43.2</ele>
        <time>2024-01-12T14:10:27Z</time>
      </trkpt>
      <trkpt lat="49.85767" lon="2.32614">
        <ele>43.2</ele>
        <time>2024-01-12T14:10:28Z</time>
      </trkpt>
      <trkpt lat="49.85768" lon="2.32615">
        <ele>43.1</ele>
        <time>2024-01-12T14:10:29Z</time>
      </trkpt>
      <trkpt lat="49.85769" lon="2.32616">
        <ele>43</ele>
        <time>2024-01-12T14:10:30Z</time>
      </trkpt>
      <trkpt lat="49.85771" lon="2.32618">
        <ele>42.9</ele>
        <time>2024-01-12T14:10:31Z</time>
      </trkpt>
      <trkpt lat="49.85771" lon="2.32618">
        <ele>42.8</ele>
        <time>2024-01-12T14:10:32Z</time>
      </trkpt>
      <trkpt lat="49.85772" lon="2.32619">
        <ele>42.7</ele>
        <time>2024-01-12T14:10:33Z</time>
      </trkpt>
      <trkpt lat="49.85773" lon="2.32619">
        <ele>42.7</ele>
        <time>2024-01-12T14:10:34Z</time>
      </trkpt>
      <trkpt lat="49.85774" lon="2.3262">
        <ele>42.6</ele>
        <time>2024-01-12T14:10:35Z</time>
      </trkpt>
      <trkpt lat="49.85775" lon="2.3262">
        <ele>42.5</ele>
        <time>2024-01-12T14:10:36Z</time>
      </trkpt>
      <trkpt lat="49.85778" lon="2.32621">
        <ele>42.3</ele>
        <time>2024-01-12T14:10:37Z</time>
      </trkpt>
      <trkpt lat="49.85778" lon="2.32621">
        <ele>42.3</ele>
        <time>2024-01-12T14:10:38Z</time>
      </trkpt>
      <trkpt lat="49.85779" lon="2.32621">
        <ele>42.2</ele>
        <time>2024-01-12T14:10:39Z</time>
      </trkpt>
      <trkpt lat="49.8578" lon="2.32622">
        <ele>42.1</ele>
        <time>2024-01-12T14:10:40Z</time>
      </trkpt>
      <trkpt lat="49.85782" lon="2.32622">
        <ele>42</ele>
        <time>2024-01-12T14:10:41Z</time>
      </trkpt>
      <trkpt lat="49.85782" lon="2.32622">
        <ele>41.9</ele>
        <time>2024-01-12T14:10:42Z</time>
      </trkpt>
      <trkpt lat="49.85783" lon="2.32622">
        <ele>41.9</ele>
        <time>2024-01-12T14:10:43Z</time>
      </trkpt>
      <trkpt lat="49.85784" lon="2.32622">
        <ele>41.8</ele>
        <time>2024-01-12T14:10:44Z</time>
      </trkpt>
      <trkpt lat="49.85785" lon="2.32623">
        <ele>41.8</ele>
        <time>2024-01-12T14:10:45Z</time>
      </trkpt>
      <trkpt lat="49.85786" lon="2.32623">
        <ele>41.7</ele>
        <time>2024-01-12T14:10:46Z</time>
      </trkpt>
      <trkpt lat="49.85787" lon="2.32623">
        <ele>41.6</ele>
        <time>2024-01-12T14:10:47Z</time>
      </trkpt>
      <trkpt lat="49.85788" lon="2.32623">
        <ele>41.6</ele>
        <time>2024-01-12T14:10:48Z</time>
      </trkpt>
      <trkpt lat="49.85788" lon="2.32623">
        <ele>41.5</ele>
        <time>2024-01-12T14:10:49Z</time>
      </trkpt>
      <trkpt lat="49.85789" lon="2.32623">
        <ele>41.5</ele>
        <time>2024-01-12T14:10:50Z</time>
      </trkpt>
      <trkpt lat="49.85791" lon="2.32623">
        <ele>41.4</ele>
        <time>2024-01-12T14:10:51Z</time>
      </trkpt>
      <trkpt lat="49.85791" lon="2.32623">
        <ele>41.3</ele>
        <time>2024-01-12T14:10:52Z</time>
      </trkpt>
      <trkpt lat="49.85792" lon="2.32623">
        <ele>41.3</ele>
        <time>2024-01-12T14:10:53Z</time>
      </trkpt>
      <trkpt lat="49.85793" lon="2.32623">
        <ele>41.2</ele>
        <time>2024-01-12T14:10:54Z</time>
      </trkpt>
      <trkpt lat="49.85794" lon="2.32623">
        <ele>41.1</ele>
        <time>2024-01-12T14:10:55Z</time>
      </trkpt>
      <trkpt lat="49.85795" lon="2.32623">
        <ele>41.1</ele>
        <time>2024-01-12T14:10:56Z</time>
      </trkpt>
      <trkpt lat="49.85795" lon="2.32623">
        <ele>41</ele>
        <time>2024-01-12T14:10:57Z</time>
      </trkpt>
      <trkpt lat="49.85796" lon="2.32623">
        <ele>41</ele>
        <time>2024-01-12T14:10:58Z</time>
      </trkpt>
      <trkpt lat="49.85797" lon="2.32623">
        <ele>40.9</ele>
        <time>2024-01-12T14:10:59Z</time>
      </trkpt>
      <trkpt lat="49.85797" lon="2.32623">
        <ele>40.9</ele>
        <time>2024-01-12T14:11:00Z</time>
      </trkpt>
      <trkpt lat="49.85798" lon="2.32623">
        <ele>40.8</ele>
        <time>2024-01-12T14:11:01Z</time>
      </trkpt>
      <trkpt lat="49.85799" lon="2.32623">
        <ele>40.8</ele>
        <time>2024-01-12T14:11:02Z</time>
      </trkpt>
      <trkpt lat="49.85799" lon="2.32623">
        <ele>40.7</ele>
        <time>2024-01-12T14:11:03Z</time>
      </trkpt>
      <trkpt lat="49.858" lon="2.32623">
        <ele>40.7</ele>
        <time>2024-01-12T14:11:04Z</time>
      </trkpt>
      <trkpt lat="49.85801" lon="2.32623">
        <ele>40.6</ele>
        <time>2024-01-12T14:11:05Z</time>
      </trkpt>
      <trkpt lat="49.85802" lon="2.32623">
        <ele>40.6</ele>
        <time>2024-01-12T14:11:06Z</time>
      </trkpt>
      <trkpt lat="49.85802" lon="2.32623">
        <ele>40.5</ele>
        <time>2024-01-12T14:11:07Z</time>
      </trkpt>
      <trkpt lat="49.85803" lon="2.32623">
        <ele>40.5</ele>
        <time>2024-01-12T14:11:08Z</time>
      </trkpt>
      <trkpt lat="49.85804" lon="2.32623">
        <ele>40.4</ele>
        <time>2024-01-12T14:11:09Z</time>
      </trkpt>
      <trkpt lat="49.85805" lon="2.32623">
        <ele>40.4</ele>
        <time>2024-01-12T14:11:10Z</time>
      </trkpt>
      <trkpt lat="49.85805" lon="2.32623">
        <ele>40.3</ele>
        <time>2024-01-12T14:11:11Z</time>
      </trkpt>
      <trkpt lat="49.85806" lon="2.32624">
        <ele>40.2</ele>
        <time>2024-01-12T14:11:12Z</time>
      </trkpt>
      <trkpt lat="49.85807" lon="2.32624">
        <ele>40.2</ele>
        <time>2024-01-12T14:11:13Z</time>
      </trkpt>
      <trkpt lat="49.85808" lon="2.32624">
        <ele>40.1</ele>
        <time>2024-01-12T14:11:14Z</time>
      </trkpt>
      <trkpt lat="49.85809" lon="2.32624">
        <ele>40.1</ele>
        <time>2024-01-12T14:11:15Z</time>
      </trkpt>
      <trkpt lat="49.8581" lon="2.32625">
        <ele>40</ele>
        <time>2024-01-12T14:11:16Z</time>
      </trkpt>
      <trkpt lat="49.8581" lon="2.32625">
        <ele>39.9</ele>
        <time>2024-01-12T14:11:17Z</time>
      </trkpt>
      <trkpt lat="49.85811" lon="2.32625">
        <ele>39.9</ele>
        <time>2024-01-12T14:11:18Z</time>
      </trkpt>
      <trkpt lat="49.85812" lon="2.32625">
        <ele>39.8</ele>
        <time>2024-01-12T14:11:19Z</time>
      </trkpt>
      <trkpt lat="49.85813" lon="2.32625">
        <ele>39.8</ele>
        <time>2024-01-12T14:11:20Z</time>
      </trkpt>
      <trkpt lat="49.85813" lon="2.32625">
        <ele>39.7</ele>
        <time>2024-01-12T14:11:21Z</time>
      </trkpt>
      <trkpt lat="49.85814" lon="2.32625">
        <ele>39.7</ele>
        <time>2024-01-12T14:11:22Z</time>
      </trkpt>
      <trkpt lat="49.85815" lon="2.32625">
        <ele>39.6</ele>
        <time>2024-01-12T14:11:23Z</time>
      </trkpt>
      <trkpt lat="49.85816" lon="2.32626">
        <ele>39.5</ele>
        <time>2024-01-12T14:11:24Z</time>
      </trkpt>
      <trkpt lat="49.85816" lon="2.32626">
        <ele>39.5</ele>
        <time>2024-01-12T14:11:25Z</time>
      </trkpt>
      <trkpt lat="49.85817" lon="2.32626">
        <ele>39.4</ele>
        <time>2024-01-12T14:11:26Z</time>
      </trkpt>
      <trkpt lat="49.85818" lon="2.32626">
        <ele>39.4</ele>
        <time>2024-01-12T14:11:27Z</time>
      </trkpt>
      <trkpt lat="49.8582" lon="2.32627">
        <ele>39.3</ele>
        <time>2024-01-12T14:11:29Z</time>
      </trkpt>
      <trkpt lat="49.8582" lon="2.32627">
        <ele>39.2</ele>
        <time>2024-01-12T14:11:30Z</time>
      </trkpt>
      <trkpt lat="49.85821" lon="2.32627">
        <ele>39.1</ele>
        <time>2024-01-12T14:11:31Z</time>
      </trkpt>
      <trkpt lat="49.85822" lon="2.32627">
        <ele>39.1</ele>
        <time>2024-01-12T14:11:32Z</time>
      </trkpt>
      <trkpt lat="49.85823" lon="2.32628">
        <ele>39</ele>
        <time>2024-01-12T14:11:33Z</time>
      </trkpt>
      <trkpt lat="49.85824" lon="2.32628">
        <ele>38.9</ele>
        <time>2024-01-12T14:11:34Z</time>
      </trkpt>
      <trkpt lat="49.85825" lon="2.32628">
        <ele>38.8</ele>
        <time>2024-01-12T14:11:35Z</time>
      </trkpt>
      <trkpt lat="49.85826" lon="2.32629">
        <ele>38.7</ele>
        <time>2024-01-12T14:11:36Z</time>
      </trkpt>
      <trkpt lat="49.85827" lon="2.32629">
        <ele>38.6</ele>
        <time>2024-01-12T14:11:37Z</time>
      </trkpt>
      <trkpt lat="49.85828" lon="2.3263">
        <ele>38.6</ele>
        <time>2024-01-12T14:11:38Z</time>
      </trkpt>
      <trkpt lat="49.85829" lon="2.3263">
        <ele>38.5</ele>
        <time>2024-01-12T14:11:39Z</time>
      </trkpt>
      <trkpt lat="49.8583" lon="2.3263">
        <ele>38.4</ele>
        <time>2024-01-12T14:11:40Z</time>
      </trkpt>
      <trkpt lat="49.85831" lon="2.32631">
        <ele>38.3</ele>
        <time>2024-01-12T14:11:41Z</time>
      </trkpt>
      <trkpt lat="49.85832" lon="2.32631">
        <ele>38.2</ele>
        <time>2024-01-12T14:11:42Z</time>
      </trkpt>
      <trkpt lat="49.85833" lon="2.32631">
        <ele>38.1</ele>
        <time>2024-01-12T14:11:43Z</time>
      </trkpt>
      <trkpt lat="49.85834" lon="2.32632">
        <ele>38</ele>
        <time>2024-01-12T14:11:44Z</time>
      </trkpt>
      <trkpt lat="49.85835" lon="2.32632">
        <ele>37.9</ele>
        <time>2024-01-12T14:11:45Z</time>
      </trkpt>
      <trkpt lat="49.85836" lon="2.32632">
        <ele>37.9</ele>
        <time>2024-01-12T14:11:46Z</time>
      </trkpt>
      <trkpt lat="49.85837" lon="2.32633">
        <ele>37.8</ele>
        <time>2024-01-12T14:11:47Z</time>
      </trkpt>
      <trkpt lat="49.85838" lon="2.32633">
        <ele>37.7</ele>
        <time>2024-01-12T14:11:48Z</time>
      </trkpt>
      <trkpt lat="49.85839" lon="2.32633">
        <ele>37.6</ele>
        <time>2024-01-12T14:11:49Z</time>
      </trkpt>
      <trkpt lat="49.8584" lon="2.32633">
        <ele>37.5</ele>
        <time>2024-01-12T14:11:50Z</time>
      </trkpt>
      <trkpt lat="49.85841" lon="2.32634">
        <ele>37.5</ele>
        <time>2024-01-12T14:11:51Z</time>
      </trkpt>
      <trkpt lat="49.85842" lon="2.32634">
        <ele>37.4</ele>
        <time>2024-01-12T14:11:52Z</time>
      </trkpt>
      <trkpt lat="49.85843" lon="2.32634">
        <ele>37.3</ele>
        <time>2024-01-12T14:11:53Z</time>
      </trkpt>
      <trkpt lat="49.85843" lon="2.32634">
        <ele>37.3</ele>
        <time>2024-01-12T14:11:54Z</time>
      </trkpt>
      <trkpt lat="49.85844" lon="2.32634">
        <ele>37.3</ele>
        <time>2024-01-12T14:11:55Z</time>
      </trkpt>
      <trkpt lat="49.85845" lon="2.32634">
        <ele>37.2</ele>
        <time>2024-01-12T14:11:56Z</time>
      </trkpt>
      <trkpt lat="49.85846" lon="2.32634">
        <ele>37.1</ele>
        <time>2024-01-12T14:11:57Z</time>
      </trkpt>
      <trkpt lat="49.85846" lon="2.32633">
        <ele>37.1</ele>
        <time>2024-01-12T14:11:58Z</time>
      </trkpt>
      <trkpt lat="49.85846" lon="2.32633">
        <ele>37.1</ele>
        <time>2024-01-12T14:11:59Z</time>
      </trkpt>
      <trkpt lat="49.85847" lon="2.32633">
        <ele>37</ele>
        <time>2024-01-12T14:12:00Z</time>
      </trkpt>
      <trkpt lat="49.85848" lon="2.32633">
        <ele>37</ele>
        <time>2024-01-12T14:12:01Z</time>
      </trkpt>
      <trkpt lat="49.85848" lon="2.32633">
        <ele>36.9</ele>
        <time>2024-01-12T14:12:02Z</time>
      </trkpt>
      <trkpt lat="49.85849" lon="2.32633">
        <ele>36.9</ele>
        <time>2024-01-12T14:12:03Z</time>
      </trkpt>
      <trkpt lat="49.8585" lon="2.32633">
        <ele>36.8</ele>
        <time>2024-01-12T14:12:04Z</time>
      </trkpt>
      <trkpt lat="49.8585" lon="2.32633">
        <ele>36.8</ele>
        <time>2024-01-12T14:12:05Z</time>
      </trkpt>
      <trkpt lat="49.85851" lon="2.32633">
        <ele>36.7</ele>
        <time>2024-01-12T14:12:06Z</time>
      </trkpt>
      <trkpt lat="49.85852" lon="2.32633">
        <ele>36.7</ele>
        <time>2024-01-12T14:12:07Z</time>
      </trkpt>
      <trkpt lat="49.85853" lon="2.32633">
        <ele>36.6</ele>
        <time>2024-01-12T14:12:08Z</time>
      </trkpt>
      <trkpt lat="49.85853" lon="2.32634">
        <ele>36.6</ele>
        <time>2024-01-12T14:12:09Z</time>
      </trkpt>
      <trkpt lat="49.85854" lon="2.32634">
        <ele>36.5</ele>
        <time>2024-01-12T14:12:10Z</time>
      </trkpt>
      <trkpt lat="49.85855" lon="2.32634">
        <ele>36.5</ele>
        <time>2024-01-12T14:12:11Z</time>
      </trkpt>
      <trkpt lat="49.85856" lon="2.32634">
        <ele>36.4</ele>
        <time>2024-01-12T14:12:12Z</time>
      </trkpt>
      <trkpt lat="49.85856" lon="2.32635">
        <ele>36.4</ele>
        <time>2024-01-12T14:12:13Z</time>
      </trkpt>
      <trkpt lat="49.85857" lon="2.32635">
        <ele>36.3</ele>
        <time>2024-01-12T14:12:14Z</time>
      </trkpt>
      <trkpt lat="49.85858" lon="2.32635">
        <ele>36.3</ele>
        <time>2024-01-12T14:12:15Z</time>
      </trkpt>
      <trkpt lat="49.8586" lon="2.32636">
        <ele>36.1</ele>
        <time>2024-01-12T14:12:16Z</time>
      </trkpt>
      <trkpt lat="49.85861" lon="2.32636">
        <ele>36.1</ele>
        <time>2024-01-12T14:12:17Z</time>
      </trkpt>
      <trkpt lat="49.85862" lon="2.32636">
        <ele>36</ele>
        <time>2024-01-12T14:12:18Z</time>
      </trkpt>
      <trkpt lat="49.85864" lon="2.32636">
        <ele>36</ele>
        <time>2024-01-12T14:12:19Z</time>
      </trkpt>
      <trkpt lat="49.85865" lon="2.32636">
        <ele>35.9</ele>
        <time>2024-01-12T14:12:20Z</time>
      </trkpt>
      <trkpt lat="49.85867" lon="2.32636">
        <ele>35.8</ele>
        <time>2024-01-12T14:12:21Z</time>
      </trkpt>
      <trkpt lat="49.85868" lon="2.32637">
        <ele>35.7</ele>
        <time>2024-01-12T14:12:22Z</time>
      </trkpt>
      <trkpt lat="49.8587" lon="2.32637">
        <ele>35.6</ele>
        <time>2024-01-12T14:12:23Z</time>
      </trkpt>
      <trkpt lat="49.85872" lon="2.32637">
        <ele>35.5</ele>
        <time>2024-01-12T14:12:24Z</time>
      </trkpt>
      <trkpt lat="49.85873" lon="2.32638">
        <ele>35.4</ele>
        <time>2024-01-12T14:12:25Z</time>
      </trkpt>
      <trkpt lat="49.85875" lon="2.32638">
        <ele>35.3</ele>
        <time>2024-01-12T14:12:26Z</time>
      </trkpt>
      <trkpt lat="49.85876" lon="2.32638">
        <ele>35.3</ele>
        <time>2024-01-12T14:12:27Z</time>
      </trkpt>
      <trkpt lat="49.85878" lon="2.32638">
        <ele>35.2</ele>
        <time>2024-01-12T14:12:28Z</time>
      </trkpt>
      <trkpt lat="49.8588" lon="2.32639">
        <ele>35.1</ele>
        <time>2024-01-12T14:12:29Z</time>
      </trkpt>
      <trkpt lat="49.85881" lon="2.32639">
        <ele>35.1</ele>
        <time>2024-01-12T14:12:30Z</time>
      </trkpt>
      <trkpt lat="49.85881" lon="2.32639">
        <ele>35</ele>
        <time>2024-01-12T14:12:31Z</time>
      </trkpt>
      <trkpt lat="49.85884" lon="2.32639">
        <ele>35</ele>
        <time>2024-01-12T14:12:32Z</time>
      </trkpt>
      <trkpt lat="49.85884" lon="2.32639">
        <ele>34.9</ele>
        <time>2024-01-12T14:12:33Z</time>
      </trkpt>
      <trkpt lat="49.85885" lon="2.32639">
        <ele>34.9</ele>
        <time>2024-01-12T14:12:34Z</time>
      </trkpt>
      <trkpt lat="49.85887" lon="2.3264">
        <ele>34.9</ele>
        <time>2024-01-12T14:12:35Z</time>
      </trkpt>
      <trkpt lat="49.85888" lon="2.3264">
        <ele>34.8</ele>
        <time>2024-01-12T14:12:36Z</time>
      </trkpt>
      <trkpt lat="49.8589" lon="2.3264">
        <ele>34.8</ele>
        <time>2024-01-12T14:12:37Z</time>
      </trkpt>
      <trkpt lat="49.85891" lon="2.3264">
        <ele>34.7</ele>
        <time>2024-01-12T14:12:38Z</time>
      </trkpt>
      <trkpt lat="49.85892" lon="2.3264">
        <ele>34.7</ele>
        <time>2024-01-12T14:12:39Z</time>
      </trkpt>
      <trkpt lat="49.85894" lon="2.3264">
        <ele>34.7</ele>
        <time>2024-01-12T14:12:40Z</time>
      </trkpt>
      <trkpt lat="49.85895" lon="2.3264">
        <ele>34.6</ele>
        <time>2024-01-12T14:12:41Z</time>
      </trkpt>
      <trkpt lat="49.85896" lon="2.3264">
        <ele>34.6</ele>
        <time>2024-01-12T14:12:42Z</time>
      </trkpt>
      <trkpt lat="49.85898" lon="2.3264">
        <ele>34.6</ele>
        <time>2024-01-12T14:12:43Z</time>
      </trkpt>
      <trkpt lat="49.85899" lon="2.32639">
        <ele>34.5</ele>
        <time>2024-01-12T14:12:44Z</time>
      </trkpt>
      <trkpt lat="49.85899" lon="2.32639">
        <ele>34.5</ele>
        <time>2024-01-12T14:12:45Z</time>
      </trkpt>
      <trkpt lat="49.85901" lon="2.32639">
        <ele>34.5</ele>
        <time>2024-01-12T14:12:46Z</time>
      </trkpt>
      <trkpt lat="49.85902" lon="2.32639">
        <ele>34.5</ele>
        <time>2024-01-12T14:12:47Z</time>
      </trkpt>
      <trkpt lat="49.85903" lon="2.32639">
        <ele>34.4</ele>
        <time>2024-01-12T14:12:48Z</time>
      </trkpt>
      <trkpt lat="49.85904" lon="2.32638">
        <ele>34.4</ele>
        <time>2024-01-12T14:12:49Z</time>
      </trkpt>
      <trkpt lat="49.85905" lon="2.32638">
        <ele>34.4</ele>
        <time>2024-01-12T14:12:50Z</time>
      </trkpt>
      <trkpt lat="49.85906" lon="2.32638">
        <ele>34.4</ele>
        <time>2024-01-12T14:12:51Z</time>
      </trkpt>
      <trkpt lat="49.85907" lon="2.32638">
        <ele>34.4</ele>
        <time>2024-01-12T14:12:52Z</time>
      </trkpt>
      <trkpt lat="49.85908" lon="2.32638">
        <ele>34.4</ele>
        <time>2024-01-12T14:12:53Z</time>
      </trkpt>
      <trkpt lat="49.8591" lon="2.32638">
        <ele>34.4</ele>
        <time>2024-01-12T14:12:54Z</time>
      </trkpt>
      <trkpt lat="49.85911" lon="2.32638">
        <ele>34.3</ele>
        <time>2024-01-12T14:12:55Z</time>
      </trkpt>
      <trkpt lat="49.85912" lon="2.32637">
        <ele>34.3</ele>
        <time>2024-01-12T14:12:56Z</time>
      </trkpt>
      <trkpt lat="49.85913" lon="2.32637">
        <ele>34.3</ele>
        <time>2024-01-12T14:12:57Z</time>
      </trkpt>
      <trkpt lat="49.85914" lon="2.32637">
        <ele>34.3</ele>
        <time>2024-01-12T14:12:58Z</time>
      </trkpt>
      <trkpt lat="49.85915" lon="2.32636">
        <ele>34.3</ele>
        <time>2024-01-12T14:12:59Z</time>
      </trkpt>
      <trkpt lat="49.85916" lon="2.32636">
        <ele>34.3</ele>
        <time>2024-01-12T14:13:00Z</time>
      </trkpt>
      <trkpt lat="49.85917" lon="2.32635">
        <ele>34.3</ele>
        <time>2024-01-12T14:13:01Z</time>
      </trkpt>
      <trkpt lat="49.85918" lon="2.32635">
        <ele>34.3</ele>
        <time>2024-01-12T14:13:02Z</time>
      </trkpt>
      <trkpt lat="49.85919" lon="2.32635">
        <ele>34.3</ele>
        <time>2024-01-12T14:13:03Z</time>
      </trkpt>
      <trkpt lat="49.8592" lon="2.32634">
        <ele>34.3</ele>
        <time>2024-01-12T14:13:04Z</time>
      </trkpt>
      <trkpt lat="49.85921" lon="2.32634">
        <ele>34.2</ele>
        <time>2024-01-12T14:13:05Z</time>
      </trkpt>
      <trkpt lat="49.85922" lon="2.32633">
        <ele>34.2</ele>
        <time>2024-01-12T14:13:06Z</time>
      </trkpt>
      <trkpt lat="49.85923" lon="2.32632">
        <ele>34.2</ele>
        <time>2024-01-12T14:13:08Z</time>
      </trkpt>
      <trkpt lat="49.85924" lon="2.32631">
        <ele>34.2</ele>
        <time>2024-01-12T14:13:09Z</time>
      </trkpt>
      <trkpt lat="49.85925" lon="2.32631">
        <ele>34.2</ele>
        <time>2024-01-12T14:13:10Z</time>
      </trkpt>
      <trkpt lat="49.85925" lon="2.3263">
        <ele>34.2</ele>
        <time>2024-01-12T14:13:11Z</time>
      </trkpt>
      <trkpt lat="49.85927" lon="2.3263">
        <ele>34.2</ele>
        <time>2024-01-12T14:13:12Z</time>
      </trkpt>
      <trkpt lat="49.85929" lon="2.32628">
        <ele>34.2</ele>
        <time>2024-01-12T14:13:14Z</time>
      </trkpt>
      <trkpt lat="49.8593" lon="2.32628">
        <ele>34.2</ele>
        <time>2024-01-12T14:13:15Z</time>
      </trkpt>
      <trkpt lat="49.85931" lon="2.32627">
        <ele>34.2</ele>
        <time>2024-01-12T14:13:16Z</time>
      </trkpt>
      <trkpt lat="49.85933" lon="2.32626">
        <ele>34.2</ele>
        <time>2024-01-12T14:13:17Z</time>
      </trkpt>
      <trkpt lat="49.85934" lon="2.32625">
        <ele>34.2</ele>
        <time>2024-01-12T14:13:18Z</time>
      </trkpt>
      <trkpt lat="49.85936" lon="2.32625">
        <ele>34.2</ele>
        <time>2024-01-12T14:13:19Z</time>
      </trkpt>
      <trkpt lat="49.85937" lon="2.32625">
        <ele>34.2</ele>
        <time>2024-01-12T14:13:20Z</time>
      </trkpt>
      <trkpt lat="49.85938" lon="2.32625">
        <ele>34.2</ele>
        <time>2024-01-12T14:13:21Z</time>
      </trkpt>
      <trkpt lat="49.85939" lon="2.32625">
        <ele>34.2</ele>
        <time>2024-01-12T14:13:22Z</time>
      </trkpt>
      <trkpt lat="49.85939" lon="2.32625">
        <ele>34.2</ele>
        <time>2024-01-12T14:13:23Z</time>
      </trkpt>
      <trkpt lat="49.8594" lon="2.32625">
        <ele>34.2</ele>
        <time>2024-01-12T14:13:24Z</time>
      </trkpt>
      <trkpt lat="49.85941" lon="2.32624">
        <ele>34.2</ele>
        <time>2024-01-12T14:13:25Z</time>
      </trkpt>
      <trkpt lat="49.85942" lon="2.32624">
        <ele>34.2</ele>
        <time>2024-01-12T14:13:26Z</time>
      </trkpt>
      <trkpt lat="49.85942" lon="2.32624">
        <ele>34.2</ele>
        <time>2024-01-12T14:13:27Z</time>
      </trkpt>
      <trkpt lat="49.85943" lon="2.32624">
        <ele>34.2</ele>
        <time>2024-01-12T14:13:28Z</time>
      </trkpt>
      <trkpt lat="49.85944" lon="2.32624">
        <ele>34.2</ele>
        <time>2024-01-12T14:13:29Z</time>
      </trkpt>
      <trkpt lat="49.85944" lon="2.32624">
        <ele>34.2</ele>
        <time>2024-01-12T14:13:30Z</time>
      </trkpt>
      <trkpt lat="49.85945" lon="2.32623">
        <ele>34.2</ele>
        <time>2024-01-12T14:13:31Z</time>
      </trkpt>
      <trkpt lat="49.85946" lon="2.32623">
        <ele>34.2</ele>
        <time>2024-01-12T14:13:32Z</time>
      </trkpt>
      <trkpt lat="49.85947" lon="2.32623">
        <ele>34.2</ele>
        <time>2024-01-12T14:13:34Z</time>
      </trkpt>
      <trkpt lat="49.85947" lon="2.32622">
        <ele>34.2</ele>
        <time>2024-01-12T14:13:35Z</time>
      </trkpt>
      <trkpt lat="49.85948" lon="2.32622">
        <ele>34.3</ele>
        <time>2024-01-12T14:13:36Z</time>
      </trkpt>
      <trkpt lat="49.85949" lon="2.32622">
        <ele>34.3</ele>
        <time>2024-01-12T14:13:37Z</time>
      </trkpt>
      <trkpt lat="49.8595" lon="2.32621">
        <ele>34.3</ele>
        <time>2024-01-12T14:13:38Z</time>
      </trkpt>
      <trkpt lat="49.85953" lon="2.3262">
        <ele>34.3</ele>
        <time>2024-01-12T14:13:39Z</time>
      </trkpt>
      <trkpt lat="49.85954" lon="2.3262">
        <ele>34.3</ele>
        <time>2024-01-12T14:13:40Z</time>
      </trkpt>
      <trkpt lat="49.85954" lon="2.3262">
        <ele>34.3</ele>
        <time>2024-01-12T14:13:41Z</time>
      </trkpt>
      <trkpt lat="49.85955" lon="2.32619">
        <ele>34.3</ele>
        <time>2024-01-12T14:13:42Z</time>
      </trkpt>
      <trkpt lat="49.85957" lon="2.32619">
        <ele>34.3</ele>
        <time>2024-01-12T14:13:43Z</time>
      </trkpt>
      <trkpt lat="49.85958" lon="2.32619">
        <ele>34.3</ele>
        <time>2024-01-12T14:13:44Z</time>
      </trkpt>
      <trkpt lat="49.85959" lon="2.32618">
        <ele>34.3</ele>
        <time>2024-01-12T14:13:45Z</time>
      </trkpt>
      <trkpt lat="49.8596" lon="2.32618">
        <ele>34.3</ele>
        <time>2024-01-12T14:13:46Z</time>
      </trkpt>
      <trkpt lat="49.8596" lon="2.32618">
        <ele>34.3</ele>
        <time>2024-01-12T14:13:47Z</time>
      </trkpt>
      <trkpt lat="49.85961" lon="2.32617">
        <ele>34.4</ele>
        <time>2024-01-12T14:13:48Z</time>
      </trkpt>
      <trkpt lat="49.85962" lon="2.32617">
        <ele>34.4</ele>
        <time>2024-01-12T14:13:49Z</time>
      </trkpt>
      <trkpt lat="49.85963" lon="2.32617">
        <ele>34.4</ele>
        <time>2024-01-12T14:13:50Z</time>
      </trkpt>
      <trkpt lat="49.85963" lon="2.32617">
        <ele>34.4</ele>
        <time>2024-01-12T14:13:52Z</time>
      </trkpt>
      <trkpt lat="49.85964" lon="2.32617">
        <ele>34.4</ele>
        <time>2024-01-12T14:13:53Z</time>
      </trkpt>
      <trkpt lat="49.85965" lon="2.32617">
        <ele>34.4</ele>
        <time>2024-01-12T14:13:54Z</time>
      </trkpt>
      <trkpt lat="49.85965" lon="2.32617">
        <ele>34.4</ele>
        <time>2024-01-12T14:13:55Z</time>
      </trkpt>
      <trkpt lat="49.85967" lon="2.32617">
        <ele>34.4</ele>
        <time>2024-01-12T14:13:56Z</time>
      </trkpt>
      <trkpt lat="49.85968" lon="2.32617">
        <ele>34.4</ele>
        <time>2024-01-12T14:13:58Z</time>
      </trkpt>
      <trkpt lat="49.85969" lon="2.32617">
        <ele>34.5</ele>
        <time>2024-01-12T14:13:59Z</time>
      </trkpt>
      <trkpt lat="49.8597" lon="2.32616">
        <ele>34.5</ele>
        <time>2024-01-12T14:14:00Z</time>
      </trkpt>
      <trkpt lat="49.85972" lon="2.32615">
        <ele>34.5</ele>
        <time>2024-01-12T14:14:01Z</time>
      </trkpt>
      <trkpt lat="49.85973" lon="2.32614">
        <ele>34.6</ele>
        <time>2024-01-12T14:14:02Z</time>
      </trkpt>
      <trkpt lat="49.85975" lon="2.32613">
        <ele>34.6</ele>
        <time>2024-01-12T14:14:03Z</time>
      </trkpt>
      <trkpt lat="49.85976" lon="2.32612">
        <ele>34.6</ele>
        <time>2024-01-12T14:14:04Z</time>
      </trkpt>
      <trkpt lat="49.85976" lon="2.32611">
        <ele>34.6</ele>
        <time>2024-01-12T14:14:05Z</time>
      </trkpt>
      <trkpt lat="49.85977" lon="2.32611">
        <ele>34.7</ele>
        <time>2024-01-12T14:14:06Z</time>
      </trkpt>
      <trkpt lat="49.85978" lon="2.3261">
        <ele>34.7</ele>
        <time>2024-01-12T14:14:07Z</time>
      </trkpt>
      <trkpt lat="49.85979" lon="2.3261">
        <ele>34.7</ele>
        <time>2024-01-12T14:14:08Z</time>
      </trkpt>
      <trkpt lat="49.8598" lon="2.3261">
        <ele>34.7</ele>
        <time>2024-01-12T14:14:09Z</time>
      </trkpt>
      <trkpt lat="49.85981" lon="2.32609">
        <ele>34.8</ele>
        <time>2024-01-12T14:14:10Z</time>
      </trkpt>
      <trkpt lat="49.85982" lon="2.32609">
        <ele>34.8</ele>
        <time>2024-01-12T14:14:11Z</time>
      </trkpt>
      <trkpt lat="49.85983" lon="2.32609">
        <ele>34.8</ele>
        <time>2024-01-12T14:14:12Z</time>
      </trkpt>
      <trkpt lat="49.85984" lon="2.32609">
        <ele>34.8</ele>
        <time>2024-01-12T14:14:13Z</time>
      </trkpt>
      <trkpt lat="49.85985" lon="2.32608">
        <ele>34.9</ele>
        <time>2024-01-12T14:14:14Z</time>
      </trkpt>
      <trkpt lat="49.85985" lon="2.32608">
        <ele>34.9</ele>
        <time>2024-01-12T14:14:15Z</time>
      </trkpt>
      <trkpt lat="49.85986" lon="2.32608">
        <ele>34.9</ele>
        <time>2024-01-12T14:14:16Z</time>
      </trkpt>
      <trkpt lat="49.85986" lon="2.32609">
        <ele>34.9</ele>
        <time>2024-01-12T14:14:17Z</time>
      </trkpt>
      <trkpt lat="49.85986" lon="2.32609">
        <ele>34.9</ele>
        <time>2024-01-12T14:14:18Z</time>
      </trkpt>
      <trkpt lat="49.85986" lon="2.3261">
        <ele>34.9</ele>
        <time>2024-01-12T14:14:19Z</time>
      </trkpt>
      <trkpt lat="49.85986" lon="2.3261">
        <ele>34.9</ele>
        <time>2024-01-12T14:14:20Z</time>
      </trkpt>
      <trkpt lat="49.85986" lon="2.3261">
        <ele>35</ele>
        <time>2024-01-12T14:14:21Z</time>
      </trkpt>
      <trkpt lat="49.85985" lon="2.3261">
        <ele>35</ele>
        <time>2024-01-12T14:14:23Z</time>
      </trkpt>
      <trkpt lat="49.85985" lon="2.3261">
        <ele>35</ele>
        <time>2024-01-12T14:14:24Z</time>
      </trkpt>
      <trkpt lat="49.85985" lon="2.3261">
        <ele>35</ele>
        <time>2024-01-12T14:14:26Z</time>
      </trkpt>
      <trkpt lat="49.85985" lon="2.3261">
        <ele>35</ele>
        <time>2024-01-12T14:14:27Z</time>
      </trkpt>
      <trkpt lat="49.85985" lon="2.3261">
        <ele>35</ele>
        <time>2024-01-12T14:14:28Z</time>
      </trkpt>
      <trkpt lat="49.85985" lon="2.3261">
        <ele>35</ele>
        <time>2024-01-12T14:14:30Z</time>
      </trkpt>
      <trkpt lat="49.85985" lon="2.3261">
        <ele>35</ele>
        <time>2024-01-12T14:14:31Z</time>
      </trkpt>
      <trkpt lat="49.85987" lon="2.32603">
        <ele>35.2</ele>
        <time>2024-01-12T14:14:50Z</time>
      </trkpt>
      <trkpt lat="49.85988" lon="2.32602">
        <ele>35.2</ele>
        <time>2024-01-12T14:14:51Z</time>
      </trkpt>
      <trkpt lat="49.85989" lon="2.326">
        <ele>35.3</ele>
        <time>2024-01-12T14:14:52Z</time>
      </trkpt>
      <trkpt lat="49.85989" lon="2.32599">
        <ele>35.3</ele>
        <time>2024-01-12T14:14:53Z</time>
      </trkpt>
      <trkpt lat="49.8599" lon="2.32598">
        <ele>35.3</ele>
        <time>2024-01-12T14:14:54Z</time>
      </trkpt>
      <trkpt lat="49.85991" lon="2.32597">
        <ele>35.4</ele>
        <time>2024-01-12T14:14:55Z</time>
      </trkpt>
      <trkpt lat="49.85992" lon="2.32595">
        <ele>35.4</ele>
        <time>2024-01-12T14:14:56Z</time>
      </trkpt>
      <trkpt lat="49.85992" lon="2.32594">
        <ele>35.5</ele>
        <time>2024-01-12T14:14:57Z</time>
      </trkpt>
      <trkpt lat="49.85993" lon="2.32593">
        <ele>35.5</ele>
        <time>2024-01-12T14:14:58Z</time>
      </trkpt>
      <trkpt lat="49.85994" lon="2.32592">
        <ele>35.6</ele>
        <time>2024-01-12T14:14:59Z</time>
      </trkpt>
      <trkpt lat="49.85995" lon="2.32591">
        <ele>35.6</ele>
        <time>2024-01-12T14:15:00Z</time>
      </trkpt>
      <trkpt lat="49.85996" lon="2.3259">
        <ele>35.6</ele>
        <time>2024-01-12T14:15:01Z</time>
      </trkpt>
      <trkpt lat="49.85997" lon="2.32589">
        <ele>35.7</ele>
        <time>2024-01-12T14:15:02Z</time>
      </trkpt>
      <trkpt lat="49.85997" lon="2.32588">
        <ele>35.7</ele>
        <time>2024-01-12T14:15:03Z</time>
      </trkpt>
      <trkpt lat="49.85998" lon="2.32587">
        <ele>35.8</ele>
        <time>2024-01-12T14:15:04Z</time>
      </trkpt>
      <trkpt lat="49.86" lon="2.32586">
        <ele>35.8</ele>
        <time>2024-01-12T14:15:05Z</time>
      </trkpt>
      <trkpt lat="49.86001" lon="2.32585">
        <ele>35.9</ele>
        <time>2024-01-12T14:15:06Z</time>
      </trkpt>
      <trkpt lat="49.86002" lon="2.32585">
        <ele>35.9</ele>
        <time>2024-01-12T14:15:07Z</time>
      </trkpt>
      <trkpt lat="49.86003" lon="2.32584">
        <ele>36</ele>
        <time>2024-01-12T14:15:08Z</time>
      </trkpt>
      <trkpt lat="49.86004" lon="2.32584">
        <ele>36</ele>
        <time>2024-01-12T14:15:09Z</time>
      </trkpt>
      <trkpt lat="49.86005" lon="2.32583">
        <ele>36.1</ele>
        <time>2024-01-12T14:15:10Z</time>
      </trkpt>
      <trkpt lat="49.86006" lon="2.32583">
        <ele>36.1</ele>
        <time>2024-01-12T14:15:11Z</time>
      </trkpt>
      <trkpt lat="49.86007" lon="2.32582">
        <ele>36.2</ele>
        <time>2024-01-12T14:15:12Z</time>
      </trkpt>
      <trkpt lat="49.86008" lon="2.32582">
        <ele>36.2</ele>
        <time>2024-01-12T14:15:13Z</time>
      </trkpt>
      <trkpt lat="49.86009" lon="2.32581">
        <ele>36.3</ele>
        <time>2024-01-12T14:15:14Z</time>
      </trkpt>
      <trkpt lat="49.8601" lon="2.32581">
        <ele>36.3</ele>
        <time>2024-01-12T14:15:15Z</time>
      </trkpt>
      <trkpt lat="49.86011" lon="2.3258">
        <ele>36.4</ele>
        <time>2024-01-12T14:15:16Z</time>
      </trkpt>
      <trkpt lat="49.86012" lon="2.3258">
        <ele>36.4</ele>
        <time>2024-01-12T14:15:17Z</time>
      </trkpt>
      <trkpt lat="49.86013" lon="2.3258">
        <ele>36.5</ele>
        <time>2024-01-12T14:15:18Z</time>
      </trkpt>
      <trkpt lat="49.86014" lon="2.32579">
        <ele>36.5</ele>
        <time>2024-01-12T14:15:19Z</time>
      </trkpt>
      <trkpt lat="49.86015" lon="2.32579">
        <ele>36.6</ele>
        <time>2024-01-12T14:15:20Z</time>
      </trkpt>
      <trkpt lat="49.86016" lon="2.32578">
        <ele>36.6</ele>
        <time>2024-01-12T14:15:21Z</time>
      </trkpt>
      <trkpt lat="49.86017" lon="2.32578">
        <ele>36.6</ele>
        <time>2024-01-12T14:15:22Z</time>
      </trkpt>
      <trkpt lat="49.86018" lon="2.32578">
        <ele>36.7</ele>
        <time>2024-01-12T14:15:23Z</time>
      </trkpt>
      <trkpt lat="49.86019" lon="2.32578">
        <ele>36.7</ele>
        <time>2024-01-12T14:15:24Z</time>
      </trkpt>
      <trkpt lat="49.8602" lon="2.32577">
        <ele>36.8</ele>
        <time>2024-01-12T14:15:25Z</time>
      </trkpt>
      <trkpt lat="49.8602" lon="2.32577">
        <ele>36.8</ele>
        <time>2024-01-12T14:15:26Z</time>
      </trkpt>
      <trkpt lat="49.86021" lon="2.32577">
        <ele>36.9</ele>
        <time>2024-01-12T14:15:27Z</time>
      </trkpt>
      <trkpt lat="49.86023" lon="2.32576">
        <ele>36.9</ele>
        <time>2024-01-12T14:15:28Z</time>
      </trkpt>
      <trkpt lat="49.86024" lon="2.32576">
        <ele>37</ele>
        <time>2024-01-12T14:15:29Z</time>
      </trkpt>
      <trkpt lat="49.86025" lon="2.32575">
        <ele>37</ele>
        <time>2024-01-12T14:15:30Z</time>
      </trkpt>
      <trkpt lat="49.86026" lon="2.32575">
        <ele>37.1</ele>
        <time>2024-01-12T14:15:31Z</time>
      </trkpt>
      <trkpt lat="49.86027" lon="2.32575">
        <ele>37.2</ele>
        <time>2024-01-12T14:15:32Z</time>
      </trkpt>
      <trkpt lat="49.86028" lon="2.32574">
        <ele>37.2</ele>
        <time>2024-01-12T14:15:33Z</time>
      </trkpt>
      <trkpt lat="49.86029" lon="2.32574">
        <ele>37.3</ele>
        <time>2024-01-12T14:15:34Z</time>
      </trkpt>
      <trkpt lat="49.8603" lon="2.32574">
        <ele>37.3</ele>
        <time>2024-01-12T14:15:35Z</time>
      </trkpt>
      <trkpt lat="49.86031" lon="2.32573">
        <ele>37.4</ele>
        <time>2024-01-12T14:15:36Z</time>
      </trkpt>
      <trkpt lat="49.86032" lon="2.32573">
        <ele>37.5</ele>
        <time>2024-01-12T14:15:37Z</time>
      </trkpt>
      <trkpt lat="49.86033" lon="2.32572">
        <ele>37.5</ele>
        <time>2024-01-12T14:15:38Z</time>
      </trkpt>
      <trkpt lat="49.86034" lon="2.32572">
        <ele>37.6</ele>
        <time>2024-01-12T14:15:39Z</time>
      </trkpt>
      <trkpt lat="49.86035" lon="2.32571">
        <ele>37.6</ele>
        <time>2024-01-12T14:15:40Z</time>
      </trkpt>
      <trkpt lat="49.86036" lon="2.32571">
        <ele>37.7</ele>
        <time>2024-01-12T14:15:41Z</time>
      </trkpt>
      <trkpt lat="49.86037" lon="2.32571">
        <ele>37.8</ele>
        <time>2024-01-12T14:15:42Z</time>
      </trkpt>
      <trkpt lat="49.86037" lon="2.3257">
        <ele>37.8</ele>
        <time>2024-01-12T14:15:43Z</time>
      </trkpt>
      <trkpt lat="49.86038" lon="2.3257">
        <ele>37.9</ele>
        <time>2024-01-12T14:15:44Z</time>
      </trkpt>
      <trkpt lat="49.86039" lon="2.32569">
        <ele>37.9</ele>
        <time>2024-01-12T14:15:45Z</time>
      </trkpt>
      <trkpt lat="49.86041" lon="2.32569">
        <ele>38</ele>
        <time>2024-01-12T14:15:46Z</time>
      </trkpt>
      <trkpt lat="49.86042" lon="2.32568">
        <ele>38.1</ele>
        <time>2024-01-12T14:15:47Z</time>
      </trkpt>
      <trkpt lat="49.86043" lon="2.32568">
        <ele>38.1</ele>
        <time>2024-01-12T14:15:48Z</time>
      </trkpt>
      <trkpt lat="49.86044" lon="2.32567">
        <ele>38.2</ele>
        <time>2024-01-12T14:15:49Z</time>
      </trkpt>
      <trkpt lat="49.86045" lon="2.32567">
        <ele>38.3</ele>
        <time>2024-01-12T14:15:50Z</time>
      </trkpt>
      <trkpt lat="49.86046" lon="2.32566">
        <ele>38.3</ele>
        <time>2024-01-12T14:15:51Z</time>
      </trkpt>
      <trkpt lat="49.86047" lon="2.32566">
        <ele>38.4</ele>
        <time>2024-01-12T14:15:52Z</time>
      </trkpt>
      <trkpt lat="49.86047" lon="2.32565">
        <ele>38.4</ele>
        <time>2024-01-12T14:15:53Z</time>
      </trkpt>
      <trkpt lat="49.86049" lon="2.32565">
        <ele>38.5</ele>
        <time>2024-01-12T14:15:54Z</time>
      </trkpt>
      <trkpt lat="49.8605" lon="2.32564">
        <ele>38.6</ele>
        <time>2024-01-12T14:15:55Z</time>
      </trkpt>
      <trkpt lat="49.86051" lon="2.32564">
        <ele>38.6</ele>
        <time>2024-01-12T14:15:56Z</time>
      </trkpt>
      <trkpt lat="49.86052" lon="2.32563">
        <ele>38.7</ele>
        <time>2024-01-12T14:15:57Z</time>
      </trkpt>
      <trkpt lat="49.86053" lon="2.32563">
        <ele>38.8</ele>
        <time>2024-01-12T14:15:58Z</time>
      </trkpt>
      <trkpt lat="49.86054" lon="2.32563">
        <ele>38.8</ele>
        <time>2024-01-12T14:15:59Z</time>
      </trkpt>
      <trkpt lat="49.86055" lon="2.32563">
        <ele>38.9</ele>
        <time>2024-01-12T14:16:00Z</time>
      </trkpt>
      <trkpt lat="49.86055" lon="2.32563">
        <ele>39</ele>
        <time>2024-01-12T14:16:01Z</time>
      </trkpt>
      <trkpt lat="49.86056" lon="2.32562">
        <ele>39</ele>
        <time>2024-01-12T14:16:02Z</time>
      </trkpt>
      <trkpt lat="49.86057" lon="2.32562">
        <ele>39.1</ele>
        <time>2024-01-12T14:16:03Z</time>
      </trkpt>
      <trkpt lat="49.86058" lon="2.32561">
        <ele>39.1</ele>
        <time>2024-01-12T14:16:04Z</time>
      </trkpt>
      <trkpt lat="49.86059" lon="2.32561">
        <ele>39.2</ele>
        <time>2024-01-12T14:16:05Z</time>
      </trkpt>
      <trkpt lat="49.8606" lon="2.3256">
        <ele>39.3</ele>
        <time>2024-01-12T14:16:06Z</time>
      </trkpt>
      <trkpt lat="49.86061" lon="2.3256">
        <ele>39.3</ele>
        <time>2024-01-12T14:16:07Z</time>
      </trkpt>
      <trkpt lat="49.86061" lon="2.32559">
        <ele>39.4</ele>
        <time>2024-01-12T14:16:08Z</time>
      </trkpt>
      <trkpt lat="49.86062" lon="2.32559">
        <ele>39.4</ele>
        <time>2024-01-12T14:16:09Z</time>
      </trkpt>
      <trkpt lat="49.86063" lon="2.32558">
        <ele>39.5</ele>
        <time>2024-01-12T14:16:10Z</time>
      </trkpt>
      <trkpt lat="49.86064" lon="2.32558">
        <ele>39.6</ele>
        <time>2024-01-12T14:16:11Z</time>
      </trkpt>
      <trkpt lat="49.86065" lon="2.32557">
        <ele>39.6</ele>
        <time>2024-01-12T14:16:12Z</time>
      </trkpt>
      <trkpt lat="49.86066" lon="2.32557">
        <ele>39.7</ele>
        <time>2024-01-12T14:16:13Z</time>
      </trkpt>
      <trkpt lat="49.86067" lon="2.32557">
        <ele>39.8</ele>
        <time>2024-01-12T14:16:14Z</time>
      </trkpt>
      <trkpt lat="49.86068" lon="2.32556">
        <ele>39.8</ele>
        <time>2024-01-12T14:16:15Z</time>
      </trkpt>
      <trkpt lat="49.86069" lon="2.32556">
        <ele>39.9</ele>
        <time>2024-01-12T14:16:16Z</time>
      </trkpt>
      <trkpt lat="49.8607" lon="2.32556">
        <ele>39.9</ele>
        <time>2024-01-12T14:16:17Z</time>
      </trkpt>
      <trkpt lat="49.86071" lon="2.32556">
        <ele>40</ele>
        <time>2024-01-12T14:16:18Z</time>
      </trkpt>
      <trkpt lat="49.86072" lon="2.32555">
        <ele>40.1</ele>
        <time>2024-01-12T14:16:19Z</time>
      </trkpt>
      <trkpt lat="49.86073" lon="2.32555">
        <ele>40.2</ele>
        <time>2024-01-12T14:16:20Z</time>
      </trkpt>
      <trkpt lat="49.86074" lon="2.32554">
        <ele>40.2</ele>
        <time>2024-01-12T14:16:21Z</time>
      </trkpt>
      <trkpt lat="49.86075" lon="2.32554">
        <ele>40.3</ele>
        <time>2024-01-12T14:16:22Z</time>
      </trkpt>
      <trkpt lat="49.86076" lon="2.32554">
        <ele>40.4</ele>
        <time>2024-01-12T14:16:23Z</time>
      </trkpt>
      <trkpt lat="49.86077" lon="2.32553">
        <ele>40.4</ele>
        <time>2024-01-12T14:16:24Z</time>
      </trkpt>
      <trkpt lat="49.86078" lon="2.32553">
        <ele>40.5</ele>
        <time>2024-01-12T14:16:25Z</time>
      </trkpt>
      <trkpt lat="49.86079" lon="2.32553">
        <ele>40.6</ele>
        <time>2024-01-12T14:16:26Z</time>
      </trkpt>
      <trkpt lat="49.8608" lon="2.32552">
        <ele>40.6</ele>
        <time>2024-01-12T14:16:27Z</time>
      </trkpt>
      <trkpt lat="49.86081" lon="2.32552">
        <ele>40.7</ele>
        <time>2024-01-12T14:16:28Z</time>
      </trkpt>
      <trkpt lat="49.86082" lon="2.32552">
        <ele>40.8</ele>
        <time>2024-01-12T14:16:29Z</time>
      </trkpt>
      <trkpt lat="49.86083" lon="2.32551">
        <ele>40.8</ele>
        <time>2024-01-12T14:16:30Z</time>
      </trkpt>
      <trkpt lat="49.86084" lon="2.32551">
        <ele>40.9</ele>
        <time>2024-01-12T14:16:31Z</time>
      </trkpt>
      <trkpt lat="49.86085" lon="2.32551">
        <ele>40.9</ele>
        <time>2024-01-12T14:16:32Z</time>
      </trkpt>
      <trkpt lat="49.86086" lon="2.3255">
        <ele>41</ele>
        <time>2024-01-12T14:16:33Z</time>
      </trkpt>
      <trkpt lat="49.86086" lon="2.3255">
        <ele>41.1</ele>
        <time>2024-01-12T14:16:34Z</time>
      </trkpt>
      <trkpt lat="49.86087" lon="2.32549">
        <ele>41.1</ele>
        <time>2024-01-12T14:16:35Z</time>
      </trkpt>
      <trkpt lat="49.86088" lon="2.32549">
        <ele>41.2</ele>
        <time>2024-01-12T14:16:36Z</time>
      </trkpt>
      <trkpt lat="49.86089" lon="2.32549">
        <ele>41.2</ele>
        <time>2024-01-12T14:16:37Z</time>
      </trkpt>
      <trkpt lat="49.8609" lon="2.32548">
        <ele>41.3</ele>
        <time>2024-01-12T14:16:38Z</time>
      </trkpt>
      <trkpt lat="49.86091" lon="2.32548">
        <ele>41.4</ele>
        <time>2024-01-12T14:16:39Z</time>
      </trkpt>
      <trkpt lat="49.86092" lon="2.32547">
        <ele>41.4</ele>
        <time>2024-01-12T14:16:40Z</time>
      </trkpt>
      <trkpt lat="49.86093" lon="2.32547">
        <ele>41.5</ele>
        <time>2024-01-12T14:16:41Z</time>
      </trkpt>
      <trkpt lat="49.86094" lon="2.32547">
        <ele>41.6</ele>
        <time>2024-01-12T14:16:42Z</time>
      </trkpt>
      <trkpt lat="49.86095" lon="2.32546">
        <ele>41.6</ele>
        <time>2024-01-12T14:16:43Z</time>
      </trkpt>
      <trkpt lat="49.86096" lon="2.32546">
        <ele>41.7</ele>
        <time>2024-01-12T14:16:44Z</time>
      </trkpt>
      <trkpt lat="49.86097" lon="2.32546">
        <ele>41.8</ele>
        <time>2024-01-12T14:16:45Z</time>
      </trkpt>
      <trkpt lat="49.86098" lon="2.32545">
        <ele>41.8</ele>
        <time>2024-01-12T14:16:46Z</time>
      </trkpt>
      <trkpt lat="49.86099" lon="2.32545">
        <ele>41.9</ele>
        <time>2024-01-12T14:16:47Z</time>
      </trkpt>
      <trkpt lat="49.861" lon="2.32544">
        <ele>42</ele>
        <time>2024-01-12T14:16:48Z</time>
      </trkpt>
      <trkpt lat="49.86101" lon="2.32544">
        <ele>42.1</ele>
        <time>2024-01-12T14:16:49Z</time>
      </trkpt>
      <trkpt lat="49.86101" lon="2.32544">
        <ele>42.1</ele>
        <time>2024-01-12T14:16:50Z</time>
      </trkpt>
      <trkpt lat="49.86102" lon="2.32543">
        <ele>42.2</ele>
        <time>2024-01-12T14:16:51Z</time>
      </trkpt>
      <trkpt lat="49.86103" lon="2.32543">
        <ele>42.2</ele>
        <time>2024-01-12T14:16:52Z</time>
      </trkpt>
      <trkpt lat="49.86104" lon="2.32542">
        <ele>42.3</ele>
        <time>2024-01-12T14:16:53Z</time>
      </trkpt>
      <trkpt lat="49.86105" lon="2.32542">
        <ele>42.4</ele>
        <time>2024-01-12T14:16:54Z</time>
      </trkpt>
      <trkpt lat="49.86106" lon="2.32541">
        <ele>42.5</ele>
        <time>2024-01-12T14:16:55Z</time>
      </trkpt>
      <trkpt lat="49.86107" lon="2.32541">
        <ele>42.5</ele>
        <time>2024-01-12T14:16:56Z</time>
      </trkpt>
      <trkpt lat="49.86108" lon="2.3254">
        <ele>42.6</ele>
        <time>2024-01-12T14:16:57Z</time>
      </trkpt>
      <trkpt lat="49.86108" lon="2.3254">
        <ele>42.6</ele>
        <time>2024-01-12T14:16:58Z</time>
      </trkpt>
      <trkpt lat="49.86109" lon="2.32539">
        <ele>42.7</ele>
        <time>2024-01-12T14:16:59Z</time>
      </trkpt>
      <trkpt lat="49.8611" lon="2.32539">
        <ele>42.8</ele>
        <time>2024-01-12T14:17:00Z</time>
      </trkpt>
      <trkpt lat="49.86111" lon="2.32538">
        <ele>42.9</ele>
        <time>2024-01-12T14:17:01Z</time>
      </trkpt>
      <trkpt lat="49.86112" lon="2.32538">
        <ele>42.9</ele>
        <time>2024-01-12T14:17:02Z</time>
      </trkpt>
      <trkpt lat="49.86113" lon="2.32537">
        <ele>43</ele>
        <time>2024-01-12T14:17:03Z</time>
      </trkpt>
      <trkpt lat="49.86114" lon="2.32537">
        <ele>43.1</ele>
        <time>2024-01-12T14:17:04Z</time>
      </trkpt>
      <trkpt lat="49.86115" lon="2.32536">
        <ele>43.1</ele>
        <time>2024-01-12T14:17:05Z</time>
      </trkpt>
      <trkpt lat="49.86115" lon="2.32536">
        <ele>43.2</ele>
        <time>2024-01-12T14:17:06Z</time>
      </trkpt>
      <trkpt lat="49.86116" lon="2.32535">
        <ele>43.3</ele>
        <time>2024-01-12T14:17:07Z</time>
      </trkpt>
      <trkpt lat="49.86117" lon="2.32534">
        <ele>43.4</ele>
        <time>2024-01-12T14:17:08Z</time>
      </trkpt>
      <trkpt lat="49.86118" lon="2.32534">
        <ele>43.4</ele>
        <time>2024-01-12T14:17:09Z</time>
      </trkpt>
      <trkpt lat="49.86119" lon="2.32533">
        <ele>43.5</ele>
        <time>2024-01-12T14:17:10Z</time>
      </trkpt>
      <trkpt lat="49.8612" lon="2.32533">
        <ele>43.6</ele>
        <time>2024-01-12T14:17:11Z</time>
      </trkpt>
      <trkpt lat="49.86121" lon="2.32532">
        <ele>43.6</ele>
        <time>2024-01-12T14:17:12Z</time>
      </trkpt>
      <trkpt lat="49.86121" lon="2.32531">
        <ele>43.7</ele>
        <time>2024-01-12T14:17:13Z</time>
      </trkpt>
      <trkpt lat="49.86122" lon="2.32531">
        <ele>43.8</ele>
        <time>2024-01-12T14:17:14Z</time>
      </trkpt>
      <trkpt lat="49.86123" lon="2.3253">
        <ele>43.8</ele>
        <time>2024-01-12T14:17:15Z</time>
      </trkpt>
      <trkpt lat="49.86124" lon="2.3253">
        <ele>43.9</ele>
        <time>2024-01-12T14:17:16Z</time>
      </trkpt>
      <trkpt lat="49.86125" lon="2.32529">
        <ele>43.9</ele>
        <time>2024-01-12T14:17:17Z</time>
      </trkpt>
      <trkpt lat="49.86126" lon="2.32529">
        <ele>44</ele>
        <time>2024-01-12T14:17:18Z</time>
      </trkpt>
      <trkpt lat="49.86126" lon="2.32528">
        <ele>44.1</ele>
        <time>2024-01-12T14:17:19Z</time>
      </trkpt>
      <trkpt lat="49.86127" lon="2.32528">
        <ele>44.1</ele>
        <time>2024-01-12T14:17:20Z</time>
      </trkpt>
      <trkpt lat="49.86128" lon="2.32527">
        <ele>44.2</ele>
        <time>2024-01-12T14:17:21Z</time>
      </trkpt>
      <trkpt lat="49.86129" lon="2.32527">
        <ele>44.2</ele>
        <time>2024-01-12T14:17:22Z</time>
      </trkpt>
      <trkpt lat="49.8613" lon="2.32526">
        <ele>44.3</ele>
        <time>2024-01-12T14:17:23Z</time>
      </trkpt>
      <trkpt lat="49.8613" lon="2.32525">
        <ele>44.3</ele>
        <time>2024-01-12T14:17:24Z</time>
      </trkpt>
      <trkpt lat="49.86131" lon="2.32525">
        <ele>44.4</ele>
        <time>2024-01-12T14:17:25Z</time>
      </trkpt>
      <trkpt lat="49.86132" lon="2.32524">
        <ele>44.5</ele>
        <time>2024-01-12T14:17:26Z</time>
      </trkpt>
      <trkpt lat="49.86133" lon="2.32524">
        <ele>44.5</ele>
        <time>2024-01-12T14:17:27Z</time>
      </trkpt>
      <trkpt lat="49.86134" lon="2.32523">
        <ele>44.6</ele>
        <time>2024-01-12T14:17:28Z</time>
      </trkpt>
      <trkpt lat="49.86135" lon="2.32523">
        <ele>44.7</ele>
        <time>2024-01-12T14:17:29Z</time>
      </trkpt>
      <trkpt lat="49.86136" lon="2.32523">
        <ele>44.7</ele>
        <time>2024-01-12T14:17:30Z</time>
      </trkpt>
      <trkpt lat="49.86137" lon="2.32522">
        <ele>44.8</ele>
        <time>2024-01-12T14:17:31Z</time>
      </trkpt>
      <trkpt lat="49.86138" lon="2.32522">
        <ele>44.9</ele>
        <time>2024-01-12T14:17:32Z</time>
      </trkpt>
      <trkpt lat="49.86139" lon="2.32522">
        <ele>45</ele>
        <time>2024-01-12T14:17:33Z</time>
      </trkpt>
      <trkpt lat="49.8614" lon="2.32521">
        <ele>45</ele>
        <time>2024-01-12T14:17:34Z</time>
      </trkpt>
      <trkpt lat="49.86141" lon="2.32521">
        <ele>45.1</ele>
        <time>2024-01-12T14:17:35Z</time>
      </trkpt>
      <trkpt lat="49.86142" lon="2.32521">
        <ele>45.2</ele>
        <time>2024-01-12T14:17:36Z</time>
      </trkpt>
      <trkpt lat="49.86143" lon="2.3252">
        <ele>45.2</ele>
        <time>2024-01-12T14:17:37Z</time>
      </trkpt>
      <trkpt lat="49.86144" lon="2.3252">
        <ele>45.3</ele>
        <time>2024-01-12T14:17:38Z</time>
      </trkpt>
      <trkpt lat="49.86145" lon="2.3252">
        <ele>45.4</ele>
        <time>2024-01-12T14:17:39Z</time>
      </trkpt>
      <trkpt lat="49.86147" lon="2.32519">
        <ele>45.5</ele>
        <time>2024-01-12T14:17:40Z</time>
      </trkpt>
      <trkpt lat="49.86148" lon="2.32519">
        <ele>45.5</ele>
        <time>2024-01-12T14:17:41Z</time>
      </trkpt>
      <trkpt lat="49.86149" lon="2.32519">
        <ele>45.6</ele>
        <time>2024-01-12T14:17:42Z</time>
      </trkpt>
      <trkpt lat="49.8615" lon="2.32519">
        <ele>45.6</ele>
        <time>2024-01-12T14:17:43Z</time>
      </trkpt>
      <trkpt lat="49.86151" lon="2.32519">
        <ele>45.7</ele>
        <time>2024-01-12T14:17:44Z</time>
      </trkpt>
      <trkpt lat="49.86152" lon="2.32519">
        <ele>45.8</ele>
        <time>2024-01-12T14:17:45Z</time>
      </trkpt>
      <trkpt lat="49.86153" lon="2.32518">
        <ele>45.8</ele>
        <time>2024-01-12T14:17:46Z</time>
      </trkpt>
      <trkpt lat="49.86154" lon="2.32518">
        <ele>45.9</ele>
        <time>2024-01-12T14:17:47Z</time>
      </trkpt>
      <trkpt lat="49.86155" lon="2.32518">
        <ele>45.9</ele>
        <time>2024-01-12T14:17:48Z</time>
      </trkpt>
      <trkpt lat="49.86156" lon="2.32518">
        <ele>46</ele>
        <time>2024-01-12T14:17:49Z</time>
      </trkpt>
      <trkpt lat="49.86156" lon="2.32518">
        <ele>46.1</ele>
        <time>2024-01-12T14:17:50Z</time>
      </trkpt>
      <trkpt lat="49.86157" lon="2.32517">
        <ele>46.1</ele>
        <time>2024-01-12T14:17:51Z</time>
      </trkpt>
      <trkpt lat="49.86158" lon="2.32517">
        <ele>46.2</ele>
        <time>2024-01-12T14:17:52Z</time>
      </trkpt>
      <trkpt lat="49.8616" lon="2.32517">
        <ele>46.3</ele>
        <time>2024-01-12T14:17:53Z</time>
      </trkpt>
      <trkpt lat="49.8616" lon="2.32517">
        <ele>46.3</ele>
        <time>2024-01-12T14:17:54Z</time>
      </trkpt>
      <trkpt lat="49.86161" lon="2.32516">
        <ele>46.4</ele>
        <time>2024-01-12T14:17:55Z</time>
      </trkpt>
      <trkpt lat="49.86162" lon="2.32516">
        <ele>46.4</ele>
        <time>2024-01-12T14:17:56Z</time>
      </trkpt>
      <trkpt lat="49.86163" lon="2.32516">
        <ele>46.5</ele>
        <time>2024-01-12T14:17:57Z</time>
      </trkpt>
      <trkpt lat="49.86164" lon="2.32516">
        <ele>46.5</ele>
        <time>2024-01-12T14:17:58Z</time>
      </trkpt>
      <trkpt lat="49.86165" lon="2.32515">
        <ele>46.6</ele>
        <time>2024-01-12T14:17:59Z</time>
      </trkpt>
      <trkpt lat="49.86166" lon="2.32515">
        <ele>46.6</ele>
        <time>2024-01-12T14:18:00Z</time>
      </trkpt>
      <trkpt lat="49.86167" lon="2.32514">
        <ele>46.7</ele>
        <time>2024-01-12T14:18:01Z</time>
      </trkpt>
      <trkpt lat="49.86168" lon="2.32514">
        <ele>46.7</ele>
        <time>2024-01-12T14:18:02Z</time>
      </trkpt>
      <trkpt lat="49.86169" lon="2.32514">
        <ele>46.8</ele>
        <time>2024-01-12T14:18:03Z</time>
      </trkpt>
      <trkpt lat="49.8617" lon="2.32514">
        <ele>46.9</ele>
        <time>2024-01-12T14:18:04Z</time>
      </trkpt>
      <trkpt lat="49.86171" lon="2.32513">
        <ele>46.9</ele>
        <time>2024-01-12T14:18:05Z</time>
      </trkpt>
      <trkpt lat="49.86171" lon="2.32513">
        <ele>46.9</ele>
        <time>2024-01-12T14:18:06Z</time>
      </trkpt>
      <trkpt lat="49.86172" lon="2.32513">
        <ele>47</ele>
        <time>2024-01-12T14:18:07Z</time>
      </trkpt>
      <trkpt lat="49.86173" lon="2.32513">
        <ele>47.1</ele>
        <time>2024-01-12T14:18:08Z</time>
      </trkpt>
      <trkpt lat="49.86174" lon="2.32513">
        <ele>47.1</ele>
        <time>2024-01-12T14:18:09Z</time>
      </trkpt>
      <trkpt lat="49.86175" lon="2.32514">
        <ele>47.2</ele>
        <time>2024-01-12T14:18:10Z</time>
      </trkpt>
      <trkpt lat="49.86176" lon="2.32514">
        <ele>47.2</ele>
        <time>2024-01-12T14:18:11Z</time>
      </trkpt>
      <trkpt lat="49.86177" lon="2.32514">
        <ele>47.3</ele>
        <time>2024-01-12T14:18:12Z</time>
      </trkpt>
      <trkpt lat="49.86178" lon="2.32513">
        <ele>47.3</ele>
        <time>2024-01-12T14:18:13Z</time>
      </trkpt>
      <trkpt lat="49.86179" lon="2.32513">
        <ele>47.4</ele>
        <time>2024-01-12T14:18:14Z</time>
      </trkpt>
      <trkpt lat="49.8618" lon="2.32513">
        <ele>47.4</ele>
        <time>2024-01-12T14:18:15Z</time>
      </trkpt>
      <trkpt lat="49.86181" lon="2.32512">
        <ele>47.5</ele>
        <time>2024-01-12T14:18:16Z</time>
      </trkpt>
      <trkpt lat="49.86182" lon="2.32512">
        <ele>47.6</ele>
        <time>2024-01-12T14:18:17Z</time>
      </trkpt>
      <trkpt lat="49.86183" lon="2.32512">
        <ele>47.6</ele>
        <time>2024-01-12T14:18:18Z</time>
      </trkpt>
      <trkpt lat="49.86184" lon="2.32512">
        <ele>47.7</ele>
        <time>2024-01-12T14:18:19Z</time>
      </trkpt>
      <trkpt lat="49.86185" lon="2.32511">
        <ele>47.7</ele>
        <time>2024-01-12T14:18:20Z</time>
      </trkpt>
      <trkpt lat="49.86186" lon="2.32511">
        <ele>47.8</ele>
        <time>2024-01-12T14:18:21Z</time>
      </trkpt>
      <trkpt lat="49.86187" lon="2.32511">
        <ele>47.9</ele>
        <time>2024-01-12T14:18:22Z</time>
      </trkpt>
      <trkpt lat="49.86188" lon="2.3251">
        <ele>47.9</ele>
        <time>2024-01-12T14:18:23Z</time>
      </trkpt>
      <trkpt lat="49.86189" lon="2.3251">
        <ele>48</ele>
        <time>2024-01-12T14:18:24Z</time>
      </trkpt>
      <trkpt lat="49.86191" lon="2.3251">
        <ele>48</ele>
        <time>2024-01-12T14:18:25Z</time>
      </trkpt>
      <trkpt lat="49.86192" lon="2.32509">
        <ele>48.1</ele>
        <time>2024-01-12T14:18:26Z</time>
      </trkpt>
      <trkpt lat="49.86193" lon="2.32509">
        <ele>48.1</ele>
        <time>2024-01-12T14:18:27Z</time>
      </trkpt>
      <trkpt lat="49.86194" lon="2.32509">
        <ele>48.2</ele>
        <time>2024-01-12T14:18:28Z</time>
      </trkpt>
      <trkpt lat="49.86195" lon="2.32509">
        <ele>48.2</ele>
        <time>2024-01-12T14:18:29Z</time>
      </trkpt>
      <trkpt lat="49.86196" lon="2.32508">
        <ele>48.3</ele>
        <time>2024-01-12T14:18:30Z</time>
      </trkpt>
      <trkpt lat="49.86197" lon="2.32508">
        <ele>48.4</ele>
        <time>2024-01-12T14:18:31Z</time>
      </trkpt>
      <trkpt lat="49.86198" lon="2.32508">
        <ele>48.4</ele>
        <time>2024-01-12T14:18:32Z</time>
      </trkpt>
      <trkpt lat="49.86199" lon="2.32508">
        <ele>48.5</ele>
        <time>2024-01-12T14:18:33Z</time>
      </trkpt>
      <trkpt lat="49.862" lon="2.32507">
        <ele>48.5</ele>
        <time>2024-01-12T14:18:34Z</time>
      </trkpt>
      <trkpt lat="49.86201" lon="2.32507">
        <ele>48.6</ele>
        <time>2024-01-12T14:18:35Z</time>
      </trkpt>
      <trkpt lat="49.86202" lon="2.32507">
        <ele>48.6</ele>
        <time>2024-01-12T14:18:36Z</time>
      </trkpt>
      <trkpt lat="49.86203" lon="2.32506">
        <ele>48.7</ele>
        <time>2024-01-12T14:18:37Z</time>
      </trkpt>
      <trkpt lat="49.86204" lon="2.32506">
        <ele>48.7</ele>
        <time>2024-01-12T14:18:38Z</time>
      </trkpt>
      <trkpt lat="49.86205" lon="2.32505">
        <ele>48.8</ele>
        <time>2024-01-12T14:18:39Z</time>
      </trkpt>
      <trkpt lat="49.86206" lon="2.32505">
        <ele>48.9</ele>
        <time>2024-01-12T14:18:40Z</time>
      </trkpt>
      <trkpt lat="49.86207" lon="2.32504">
        <ele>48.9</ele>
        <time>2024-01-12T14:18:41Z</time>
      </trkpt>
      <trkpt lat="49.86208" lon="2.32503">
        <ele>49</ele>
        <time>2024-01-12T14:18:42Z</time>
      </trkpt>
      <trkpt lat="49.86209" lon="2.32503">
        <ele>49</ele>
        <time>2024-01-12T14:18:43Z</time>
      </trkpt>
      <trkpt lat="49.8621" lon="2.32502">
        <ele>49.1</ele>
        <time>2024-01-12T14:18:44Z</time>
      </trkpt>
      <trkpt lat="49.86211" lon="2.32502">
        <ele>49.2</ele>
        <time>2024-01-12T14:18:45Z</time>
      </trkpt>
      <trkpt lat="49.86212" lon="2.32501">
        <ele>49.2</ele>
        <time>2024-01-12T14:18:46Z</time>
      </trkpt>
      <trkpt lat="49.86213" lon="2.32501">
        <ele>49.3</ele>
        <time>2024-01-12T14:18:47Z</time>
      </trkpt>
      <trkpt lat="49.86214" lon="2.325">
        <ele>49.3</ele>
        <time>2024-01-12T14:18:48Z</time>
      </trkpt>
      <trkpt lat="49.86215" lon="2.325">
        <ele>49.4</ele>
        <time>2024-01-12T14:18:49Z</time>
      </trkpt>
      <trkpt lat="49.86215" lon="2.325">
        <ele>49.4</ele>
        <time>2024-01-12T14:18:50Z</time>
      </trkpt>
      <trkpt lat="49.86216" lon="2.32499">
        <ele>49.5</ele>
        <time>2024-01-12T14:18:51Z</time>
      </trkpt>
      <trkpt lat="49.86217" lon="2.32499">
        <ele>49.5</ele>
        <time>2024-01-12T14:18:52Z</time>
      </trkpt>
      <trkpt lat="49.86218" lon="2.32498">
        <ele>49.6</ele>
        <time>2024-01-12T14:18:53Z</time>
      </trkpt>
      <trkpt lat="49.86219" lon="2.32498">
        <ele>49.6</ele>
        <time>2024-01-12T14:18:54Z</time>
      </trkpt>
      <trkpt lat="49.8622" lon="2.32497">
        <ele>49.7</ele>
        <time>2024-01-12T14:18:55Z</time>
      </trkpt>
      <trkpt lat="49.86221" lon="2.32497">
        <ele>49.8</ele>
        <time>2024-01-12T14:18:56Z</time>
      </trkpt>
      <trkpt lat="49.86222" lon="2.32496">
        <ele>49.8</ele>
        <time>2024-01-12T14:18:57Z</time>
      </trkpt>
      <trkpt lat="49.86223" lon="2.32496">
        <ele>49.9</ele>
        <time>2024-01-12T14:18:58Z</time>
      </trkpt>
      <trkpt lat="49.86224" lon="2.32495">
        <ele>50</ele>
        <time>2024-01-12T14:18:59Z</time>
      </trkpt>
      <trkpt lat="49.86225" lon="2.32495">
        <ele>50</ele>
        <time>2024-01-12T14:19:00Z</time>
      </trkpt>
      <trkpt lat="49.86226" lon="2.32495">
        <ele>50.1</ele>
        <time>2024-01-12T14:19:01Z</time>
      </trkpt>
      <trkpt lat="49.86227" lon="2.32494">
        <ele>50.1</ele>
        <time>2024-01-12T14:19:02Z</time>
      </trkpt>
      <trkpt lat="49.86228" lon="2.32494">
        <ele>50.2</ele>
        <time>2024-01-12T14:19:03Z</time>
      </trkpt>
      <trkpt lat="49.86229" lon="2.32494">
        <ele>50.3</ele>
        <time>2024-01-12T14:19:04Z</time>
      </trkpt>
      <trkpt lat="49.8623" lon="2.32493">
        <ele>50.3</ele>
        <time>2024-01-12T14:19:05Z</time>
      </trkpt>
      <trkpt lat="49.86231" lon="2.32493">
        <ele>50.4</ele>
        <time>2024-01-12T14:19:06Z</time>
      </trkpt>
      <trkpt lat="49.86232" lon="2.32493">
        <ele>50.5</ele>
        <time>2024-01-12T14:19:07Z</time>
      </trkpt>
      <trkpt lat="49.86233" lon="2.32493">
        <ele>50.5</ele>
        <time>2024-01-12T14:19:08Z</time>
      </trkpt>
      <trkpt lat="49.86233" lon="2.32492">
        <ele>50.6</ele>
        <time>2024-01-12T14:19:09Z</time>
      </trkpt>
      <trkpt lat="49.86234" lon="2.32492">
        <ele>50.6</ele>
        <time>2024-01-12T14:19:10Z</time>
      </trkpt>
      <trkpt lat="49.86235" lon="2.32492">
        <ele>50.7</ele>
        <time>2024-01-12T14:19:11Z</time>
      </trkpt>
      <trkpt lat="49.86236" lon="2.32491">
        <ele>50.7</ele>
        <time>2024-01-12T14:19:12Z</time>
      </trkpt>
      <trkpt lat="49.86237" lon="2.32491">
        <ele>50.8</ele>
        <time>2024-01-12T14:19:13Z</time>
      </trkpt>
      <trkpt lat="49.86238" lon="2.3249">
        <ele>50.9</ele>
        <time>2024-01-12T14:19:14Z</time>
      </trkpt>
      <trkpt lat="49.86239" lon="2.3249">
        <ele>50.9</ele>
        <time>2024-01-12T14:19:15Z</time>
      </trkpt>
      <trkpt lat="49.8624" lon="2.32489">
        <ele>51</ele>
        <time>2024-01-12T14:19:16Z</time>
      </trkpt>
      <trkpt lat="49.86241" lon="2.32489">
        <ele>51</ele>
        <time>2024-01-12T14:19:17Z</time>
      </trkpt>
      <trkpt lat="49.86241" lon="2.32489">
        <ele>51.1</ele>
        <time>2024-01-12T14:19:18Z</time>
      </trkpt>
      <trkpt lat="49.86242" lon="2.32489">
        <ele>51.1</ele>
        <time>2024-01-12T14:19:19Z</time>
      </trkpt>
      <trkpt lat="49.86243" lon="2.32488">
        <ele>51.2</ele>
        <time>2024-01-12T14:19:20Z</time>
      </trkpt>
      <trkpt lat="49.86244" lon="2.32488">
        <ele>51.2</ele>
        <time>2024-01-12T14:19:21Z</time>
      </trkpt>
      <trkpt lat="49.86245" lon="2.32488">
        <ele>51.3</ele>
        <time>2024-01-12T14:19:22Z</time>
      </trkpt>
      <trkpt lat="49.86246" lon="2.32487">
        <ele>51.4</ele>
        <time>2024-01-12T14:19:23Z</time>
      </trkpt>
      <trkpt lat="49.86247" lon="2.32487">
        <ele>51.4</ele>
        <time>2024-01-12T14:19:24Z</time>
      </trkpt>
      <trkpt lat="49.86248" lon="2.32487">
        <ele>51.5</ele>
        <time>2024-01-12T14:19:25Z</time>
      </trkpt>
      <trkpt lat="49.86249" lon="2.32486">
        <ele>51.6</ele>
        <time>2024-01-12T14:19:26Z</time>
      </trkpt>
      <trkpt lat="49.8625" lon="2.32486">
        <ele>51.6</ele>
        <time>2024-01-12T14:19:27Z</time>
      </trkpt>
      <trkpt lat="49.86251" lon="2.32486">
        <ele>51.7</ele>
        <time>2024-01-12T14:19:28Z</time>
      </trkpt>
      <trkpt lat="49.86252" lon="2.32485">
        <ele>51.7</ele>
        <time>2024-01-12T14:19:29Z</time>
      </trkpt>
      <trkpt lat="49.86253" lon="2.32485">
        <ele>51.8</ele>
        <time>2024-01-12T14:19:30Z</time>
      </trkpt>
      <trkpt lat="49.86254" lon="2.32484">
        <ele>51.8</ele>
        <time>2024-01-12T14:19:31Z</time>
      </trkpt>
      <trkpt lat="49.86255" lon="2.32484">
        <ele>51.9</ele>
        <time>2024-01-12T14:19:32Z</time>
      </trkpt>
      <trkpt lat="49.86257" lon="2.32483">
        <ele>52</ele>
        <time>2024-01-12T14:19:33Z</time>
      </trkpt>
      <trkpt lat="49.86258" lon="2.32483">
        <ele>52</ele>
        <time>2024-01-12T14:19:34Z</time>
      </trkpt>
      <trkpt lat="49.86259" lon="2.32482">
        <ele>52.1</ele>
        <time>2024-01-12T14:19:35Z</time>
      </trkpt>
      <trkpt lat="49.8626" lon="2.32482">
        <ele>52.2</ele>
        <time>2024-01-12T14:19:36Z</time>
      </trkpt>
      <trkpt lat="49.86261" lon="2.32482">
        <ele>52.2</ele>
        <time>2024-01-12T14:19:37Z</time>
      </trkpt>
      <trkpt lat="49.86262" lon="2.32481">
        <ele>52.3</ele>
        <time>2024-01-12T14:19:38Z</time>
      </trkpt>
      <trkpt lat="49.86263" lon="2.32481">
        <ele>52.3</ele>
        <time>2024-01-12T14:19:39Z</time>
      </trkpt>
      <trkpt lat="49.86264" lon="2.32481">
        <ele>52.4</ele>
        <time>2024-01-12T14:19:40Z</time>
      </trkpt>
      <trkpt lat="49.86265" lon="2.3248">
        <ele>52.4</ele>
        <time>2024-01-12T14:19:41Z</time>
      </trkpt>
      <trkpt lat="49.86266" lon="2.3248">
        <ele>52.5</ele>
        <time>2024-01-12T14:19:42Z</time>
      </trkpt>
      <trkpt lat="49.86267" lon="2.3248">
        <ele>52.6</ele>
        <time>2024-01-12T14:19:43Z</time>
      </trkpt>
      <trkpt lat="49.86268" lon="2.32479">
        <ele>52.6</ele>
        <time>2024-01-12T14:19:44Z</time>
      </trkpt>
      <trkpt lat="49.86269" lon="2.32479">
        <ele>52.7</ele>
        <time>2024-01-12T14:19:45Z</time>
      </trkpt>
      <trkpt lat="49.8627" lon="2.32479">
        <ele>52.7</ele>
        <time>2024-01-12T14:19:46Z</time>
      </trkpt>
      <trkpt lat="49.86271" lon="2.32478">
        <ele>52.8</ele>
        <time>2024-01-12T14:19:47Z</time>
      </trkpt>
      <trkpt lat="49.86273" lon="2.32478">
        <ele>52.9</ele>
        <time>2024-01-12T14:19:48Z</time>
      </trkpt>
      <trkpt lat="49.86274" lon="2.32477">
        <ele>53</ele>
        <time>2024-01-12T14:19:49Z</time>
      </trkpt>
      <trkpt lat="49.86274" lon="2.32477">
        <ele>53</ele>
        <time>2024-01-12T14:19:50Z</time>
      </trkpt>
      <trkpt lat="49.86276" lon="2.32476">
        <ele>53.1</ele>
        <time>2024-01-12T14:19:51Z</time>
      </trkpt>
      <trkpt lat="49.86277" lon="2.32476">
        <ele>53.2</ele>
        <time>2024-01-12T14:19:52Z</time>
      </trkpt>
      <trkpt lat="49.86278" lon="2.32475">
        <ele>53.2</ele>
        <time>2024-01-12T14:19:53Z</time>
      </trkpt>
      <trkpt lat="49.86279" lon="2.32475">
        <ele>53.3</ele>
        <time>2024-01-12T14:19:54Z</time>
      </trkpt>
      <trkpt lat="49.8628" lon="2.32474">
        <ele>53.3</ele>
        <time>2024-01-12T14:19:55Z</time>
      </trkpt>
      <trkpt lat="49.86281" lon="2.32474">
        <ele>53.4</ele>
        <time>2024-01-12T14:19:56Z</time>
      </trkpt>
      <trkpt lat="49.86282" lon="2.32473">
        <ele>53.4</ele>
        <time>2024-01-12T14:19:57Z</time>
      </trkpt>
      <trkpt lat="49.86283" lon="2.32473">
        <ele>53.5</ele>
        <time>2024-01-12T14:19:58Z</time>
      </trkpt>
      <trkpt lat="49.86284" lon="2.32472">
        <ele>53.6</ele>
        <time>2024-01-12T14:19:59Z</time>
      </trkpt>
      <trkpt lat="49.86285" lon="2.32472">
        <ele>53.6</ele>
        <time>2024-01-12T14:20:00Z</time>
      </trkpt>
      <trkpt lat="49.86286" lon="2.32471">
        <ele>53.7</ele>
        <time>2024-01-12T14:20:01Z</time>
      </trkpt>
      <trkpt lat="49.86287" lon="2.32471">
        <ele>53.8</ele>
        <time>2024-01-12T14:20:02Z</time>
      </trkpt>
      <trkpt lat="49.86288" lon="2.3247">
        <ele>53.8</ele>
        <time>2024-01-12T14:20:03Z</time>
      </trkpt>
      <trkpt lat="49.86289" lon="2.3247">
        <ele>53.9</ele>
        <time>2024-01-12T14:20:04Z</time>
      </trkpt>
      <trkpt lat="49.8629" lon="2.32469">
        <ele>53.9</ele>
        <time>2024-01-12T14:20:05Z</time>
      </trkpt>
      <trkpt lat="49.86291" lon="2.32469">
        <ele>54</ele>
        <time>2024-01-12T14:20:06Z</time>
      </trkpt>
      <trkpt lat="49.86291" lon="2.32468">
        <ele>54</ele>
        <time>2024-01-12T14:20:07Z</time>
      </trkpt>
      <trkpt lat="49.86292" lon="2.32468">
        <ele>54.1</ele>
        <time>2024-01-12T14:20:08Z</time>
      </trkpt>
      <trkpt lat="49.86293" lon="2.32468">
        <ele>54.1</ele>
        <time>2024-01-12T14:20:09Z</time>
      </trkpt>
      <trkpt lat="49.86294" lon="2.32467">
        <ele>54.2</ele>
        <time>2024-01-12T14:20:10Z</time>
      </trkpt>
      <trkpt lat="49.86295" lon="2.32467">
        <ele>54.2</ele>
        <time>2024-01-12T14:20:11Z</time>
      </trkpt>
      <trkpt lat="49.86296" lon="2.32467">
        <ele>54.3</ele>
        <time>2024-01-12T14:20:12Z</time>
      </trkpt>
      <trkpt lat="49.86297" lon="2.32466">
        <ele>54.3</ele>
        <time>2024-01-12T14:20:13Z</time>
      </trkpt>
      <trkpt lat="49.86298" lon="2.32466">
        <ele>54.4</ele>
        <time>2024-01-12T14:20:14Z</time>
      </trkpt>
      <trkpt lat="49.86299" lon="2.32465">
        <ele>54.4</ele>
        <time>2024-01-12T14:20:15Z</time>
      </trkpt>
      <trkpt lat="49.863" lon="2.32465">
        <ele>54.5</ele>
        <time>2024-01-12T14:20:16Z</time>
      </trkpt>
      <trkpt lat="49.86301" lon="2.32464">
        <ele>54.5</ele>
        <time>2024-01-12T14:20:17Z</time>
      </trkpt>
      <trkpt lat="49.86302" lon="2.32464">
        <ele>54.6</ele>
        <time>2024-01-12T14:20:18Z</time>
      </trkpt>
      <trkpt lat="49.86303" lon="2.32464">
        <ele>54.6</ele>
        <time>2024-01-12T14:20:19Z</time>
      </trkpt>
      <trkpt lat="49.86304" lon="2.32463">
        <ele>54.7</ele>
        <time>2024-01-12T14:20:20Z</time>
      </trkpt>
      <trkpt lat="49.86304" lon="2.32463">
        <ele>54.7</ele>
        <time>2024-01-12T14:20:21Z</time>
      </trkpt>
      <trkpt lat="49.86305" lon="2.32462">
        <ele>54.8</ele>
        <time>2024-01-12T14:20:22Z</time>
      </trkpt>
      <trkpt lat="49.86306" lon="2.32462">
        <ele>54.8</ele>
        <time>2024-01-12T14:20:23Z</time>
      </trkpt>
      <trkpt lat="49.86307" lon="2.32462">
        <ele>54.9</ele>
        <time>2024-01-12T14:20:24Z</time>
      </trkpt>
      <trkpt lat="49.86308" lon="2.32461">
        <ele>54.9</ele>
        <time>2024-01-12T14:20:25Z</time>
      </trkpt>
      <trkpt lat="49.86309" lon="2.32461">
        <ele>55</ele>
        <time>2024-01-12T14:20:26Z</time>
      </trkpt>
      <trkpt lat="49.8631" lon="2.3246">
        <ele>55</ele>
        <time>2024-01-12T14:20:27Z</time>
      </trkpt>
      <trkpt lat="49.86311" lon="2.3246">
        <ele>55.1</ele>
        <time>2024-01-12T14:20:28Z</time>
      </trkpt>
      <trkpt lat="49.86312" lon="2.3246">
        <ele>55.1</ele>
        <time>2024-01-12T14:20:29Z</time>
      </trkpt>
      <trkpt lat="49.86312" lon="2.32459">
        <ele>55.2</ele>
        <time>2024-01-12T14:20:30Z</time>
      </trkpt>
      <trkpt lat="49.86313" lon="2.32459">
        <ele>55.2</ele>
        <time>2024-01-12T14:20:31Z</time>
      </trkpt>
      <trkpt lat="49.86315" lon="2.32458">
        <ele>55.3</ele>
        <time>2024-01-12T14:20:32Z</time>
      </trkpt>
      <trkpt lat="49.86315" lon="2.32458">
        <ele>55.3</ele>
        <time>2024-01-12T14:20:33Z</time>
      </trkpt>
      <trkpt lat="49.86316" lon="2.32457">
        <ele>55.4</ele>
        <time>2024-01-12T14:20:34Z</time>
      </trkpt>
      <trkpt lat="49.86317" lon="2.32457">
        <ele>55.4</ele>
        <time>2024-01-12T14:20:35Z</time>
      </trkpt>
      <trkpt lat="49.86318" lon="2.32457">
        <ele>55.5</ele>
        <time>2024-01-12T14:20:36Z</time>
      </trkpt>
      <trkpt lat="49.86319" lon="2.32456">
        <ele>55.5</ele>
        <time>2024-01-12T14:20:37Z</time>
      </trkpt>
      <trkpt lat="49.8632" lon="2.32456">
        <ele>55.6</ele>
        <time>2024-01-12T14:20:38Z</time>
      </trkpt>
      <trkpt lat="49.8632" lon="2.32455">
        <ele>55.6</ele>
        <time>2024-01-12T14:20:39Z</time>
      </trkpt>
      <trkpt lat="49.86321" lon="2.32455">
        <ele>55.7</ele>
        <time>2024-01-12T14:20:40Z</time>
      </trkpt>
      <trkpt lat="49.86322" lon="2.32455">
        <ele>55.7</ele>
        <time>2024-01-12T14:20:41Z</time>
      </trkpt>
      <trkpt lat="49.86323" lon="2.32454">
        <ele>55.8</ele>
        <time>2024-01-12T14:20:42Z</time>
      </trkpt>
      <trkpt lat="49.86324" lon="2.32454">
        <ele>55.9</ele>
        <time>2024-01-12T14:20:43Z</time>
      </trkpt>
      <trkpt lat="49.86325" lon="2.32453">
        <ele>55.9</ele>
        <time>2024-01-12T14:20:44Z</time>
      </trkpt>
      <trkpt lat="49.86326" lon="2.32453">
        <ele>56</ele>
        <time>2024-01-12T14:20:45Z</time>
      </trkpt>
      <trkpt lat="49.86327" lon="2.32453">
        <ele>56</ele>
        <time>2024-01-12T14:20:46Z</time>
      </trkpt>
      <trkpt lat="49.86328" lon="2.32452">
        <ele>56</ele>
        <time>2024-01-12T14:20:47Z</time>
      </trkpt>
      <trkpt lat="49.86329" lon="2.32452">
        <ele>56.1</ele>
        <time>2024-01-12T14:20:48Z</time>
      </trkpt>
      <trkpt lat="49.86329" lon="2.32452">
        <ele>56.1</ele>
        <time>2024-01-12T14:20:49Z</time>
      </trkpt>
      <trkpt lat="49.8633" lon="2.32451">
        <ele>56.2</ele>
        <time>2024-01-12T14:20:50Z</time>
      </trkpt>
      <trkpt lat="49.86331" lon="2.32451">
        <ele>56.2</ele>
        <time>2024-01-12T14:20:51Z</time>
      </trkpt>
      <trkpt lat="49.86332" lon="2.32451">
        <ele>56.3</ele>
        <time>2024-01-12T14:20:52Z</time>
      </trkpt>
      <trkpt lat="49.86333" lon="2.32451">
        <ele>56.3</ele>
        <time>2024-01-12T14:20:53Z</time>
      </trkpt>
      <trkpt lat="49.86334" lon="2.32451">
        <ele>56.4</ele>
        <time>2024-01-12T14:20:54Z</time>
      </trkpt>
      <trkpt lat="49.86334" lon="2.3245">
        <ele>56.4</ele>
        <time>2024-01-12T14:20:55Z</time>
      </trkpt>
      <trkpt lat="49.86335" lon="2.3245">
        <ele>56.4</ele>
        <time>2024-01-12T14:20:56Z</time>
      </trkpt>
      <trkpt lat="49.86335" lon="2.3245">
        <ele>56.4</ele>
        <time>2024-01-12T14:20:57Z</time>
      </trkpt>
      <trkpt lat="49.86336" lon="2.3245">
        <ele>56.5</ele>
        <time>2024-01-12T14:20:58Z</time>
      </trkpt>
      <trkpt lat="49.86337" lon="2.32449">
        <ele>56.5</ele>
        <time>2024-01-12T14:20:59Z</time>
      </trkpt>
      <trkpt lat="49.86338" lon="2.32449">
        <ele>56.6</ele>
        <time>2024-01-12T14:21:00Z</time>
      </trkpt>
      <trkpt lat="49.86339" lon="2.32448">
        <ele>56.6</ele>
        <time>2024-01-12T14:21:01Z</time>
      </trkpt>
      <trkpt lat="49.8634" lon="2.32448">
        <ele>56.7</ele>
        <time>2024-01-12T14:21:02Z</time>
      </trkpt>
      <trkpt lat="49.86341" lon="2.32447">
        <ele>56.7</ele>
        <time>2024-01-12T14:21:03Z</time>
      </trkpt>
      <trkpt lat="49.86342" lon="2.32447">
        <ele>56.8</ele>
        <time>2024-01-12T14:21:04Z</time>
      </trkpt>
      <trkpt lat="49.86343" lon="2.32446">
        <ele>56.9</ele>
        <time>2024-01-12T14:21:05Z</time>
      </trkpt>
      <trkpt lat="49.86345" lon="2.32445">
        <ele>57</ele>
        <time>2024-01-12T14:21:06Z</time>
      </trkpt>
      <trkpt lat="49.86346" lon="2.32444">
        <ele>57</ele>
        <time>2024-01-12T14:21:07Z</time>
      </trkpt>
      <trkpt lat="49.86347" lon="2.32444">
        <ele>57</ele>
        <time>2024-01-12T14:21:08Z</time>
      </trkpt>
      <trkpt lat="49.86349" lon="2.32442">
        <ele>57.1</ele>
        <time>2024-01-12T14:21:09Z</time>
      </trkpt>
      <trkpt lat="49.8635" lon="2.32442">
        <ele>57.2</ele>
        <time>2024-01-12T14:21:10Z</time>
      </trkpt>
      <trkpt lat="49.86351" lon="2.32441">
        <ele>57.2</ele>
        <time>2024-01-12T14:21:11Z</time>
      </trkpt>
      <trkpt lat="49.86353" lon="2.3244">
        <ele>57.3</ele>
        <time>2024-01-12T14:21:12Z</time>
      </trkpt>
      <trkpt lat="49.86353" lon="2.3244">
        <ele>57.4</ele>
        <time>2024-01-12T14:21:13Z</time>
      </trkpt>
      <trkpt lat="49.86354" lon="2.32439">
        <ele>57.4</ele>
        <time>2024-01-12T14:21:14Z</time>
      </trkpt>
      <trkpt lat="49.86356" lon="2.32438">
        <ele>57.5</ele>
        <time>2024-01-12T14:21:15Z</time>
      </trkpt>
      <trkpt lat="49.86357" lon="2.32438">
        <ele>57.5</ele>
        <time>2024-01-12T14:21:16Z</time>
      </trkpt>
      <trkpt lat="49.86358" lon="2.32437">
        <ele>57.6</ele>
        <time>2024-01-12T14:21:17Z</time>
      </trkpt>
      <trkpt lat="49.86359" lon="2.32437">
        <ele>57.6</ele>
        <time>2024-01-12T14:21:18Z</time>
      </trkpt>
      <trkpt lat="49.8636" lon="2.32436">
        <ele>57.7</ele>
        <time>2024-01-12T14:21:19Z</time>
      </trkpt>
      <trkpt lat="49.86361" lon="2.32435">
        <ele>57.8</ele>
        <time>2024-01-12T14:21:20Z</time>
      </trkpt>
      <trkpt lat="49.86362" lon="2.32435">
        <ele>57.8</ele>
        <time>2024-01-12T14:21:21Z</time>
      </trkpt>
      <trkpt lat="49.86363" lon="2.32434">
        <ele>57.9</ele>
        <time>2024-01-12T14:21:22Z</time>
      </trkpt>
      <trkpt lat="49.86364" lon="2.32434">
        <ele>57.9</ele>
        <time>2024-01-12T14:21:23Z</time>
      </trkpt>
      <trkpt lat="49.86365" lon="2.32433">
        <ele>57.9</ele>
        <time>2024-01-12T14:21:24Z</time>
      </trkpt>
      <trkpt lat="49.86366" lon="2.32433">
        <ele>58</ele>
        <time>2024-01-12T14:21:25Z</time>
      </trkpt>
      <trkpt lat="49.86367" lon="2.32432">
        <ele>58.1</ele>
        <time>2024-01-12T14:21:26Z</time>
      </trkpt>
      <trkpt lat="49.86368" lon="2.32432">
        <ele>58.1</ele>
        <time>2024-01-12T14:21:27Z</time>
      </trkpt>
      <trkpt lat="49.86369" lon="2.32432">
        <ele>58.2</ele>
        <time>2024-01-12T14:21:28Z</time>
      </trkpt>
      <trkpt lat="49.8637" lon="2.32431">
        <ele>58.2</ele>
        <time>2024-01-12T14:21:29Z</time>
      </trkpt>
      <trkpt lat="49.86371" lon="2.32431">
        <ele>58.3</ele>
        <time>2024-01-12T14:21:30Z</time>
      </trkpt>
      <trkpt lat="49.86372" lon="2.3243">
        <ele>58.3</ele>
        <time>2024-01-12T14:21:31Z</time>
      </trkpt>
      <trkpt lat="49.86373" lon="2.3243">
        <ele>58.4</ele>
        <time>2024-01-12T14:21:32Z</time>
      </trkpt>
      <trkpt lat="49.86374" lon="2.32429">
        <ele>58.4</ele>
        <time>2024-01-12T14:21:33Z</time>
      </trkpt>
      <trkpt lat="49.86374" lon="2.32429">
        <ele>58.5</ele>
        <time>2024-01-12T14:21:34Z</time>
      </trkpt>
      <trkpt lat="49.86375" lon="2.32429">
        <ele>58.5</ele>
        <time>2024-01-12T14:21:35Z</time>
      </trkpt>
      <trkpt lat="49.86376" lon="2.32428">
        <ele>58.6</ele>
        <time>2024-01-12T14:21:36Z</time>
      </trkpt>
      <trkpt lat="49.86377" lon="2.32428">
        <ele>58.6</ele>
        <time>2024-01-12T14:21:37Z</time>
      </trkpt>
      <trkpt lat="49.86377" lon="2.32428">
        <ele>58.6</ele>
        <time>2024-01-12T14:21:38Z</time>
      </trkpt>
      <trkpt lat="49.86378" lon="2.32428">
        <ele>58.7</ele>
        <time>2024-01-12T14:21:39Z</time>
      </trkpt>
      <trkpt lat="49.86379" lon="2.32428">
        <ele>58.7</ele>
        <time>2024-01-12T14:21:40Z</time>
      </trkpt>
      <trkpt lat="49.86379" lon="2.32427">
        <ele>58.7</ele>
        <time>2024-01-12T14:21:41Z</time>
      </trkpt>
      <trkpt lat="49.8638" lon="2.32427">
        <ele>58.8</ele>
        <time>2024-01-12T14:21:42Z</time>
      </trkpt>
      <trkpt lat="49.8638" lon="2.32427">
        <ele>58.8</ele>
        <time>2024-01-12T14:21:43Z</time>
      </trkpt>
      <trkpt lat="49.86381" lon="2.32426">
        <ele>58.8</ele>
        <time>2024-01-12T14:21:44Z</time>
      </trkpt>
      <trkpt lat="49.86382" lon="2.32426">
        <ele>58.9</ele>
        <time>2024-01-12T14:21:45Z</time>
      </trkpt>
      <trkpt lat="49.86382" lon="2.32426">
        <ele>58.9</ele>
        <time>2024-01-12T14:21:46Z</time>
      </trkpt>
      <trkpt lat="49.86382" lon="2.32426">
        <ele>58.9</ele>
        <time>2024-01-12T14:21:47Z</time>
      </trkpt>
      <trkpt lat="49.86383" lon="2.32425">
        <ele>59</ele>
        <time>2024-01-12T14:21:48Z</time>
      </trkpt>
      <trkpt lat="49.86384" lon="2.32425">
        <ele>59</ele>
        <time>2024-01-12T14:21:49Z</time>
      </trkpt>
      <trkpt lat="49.86384" lon="2.32425">
        <ele>59</ele>
        <time>2024-01-12T14:21:50Z</time>
      </trkpt>
      <trkpt lat="49.86385" lon="2.32424">
        <ele>59.1</ele>
        <time>2024-01-12T14:21:51Z</time>
      </trkpt>
      <trkpt lat="49.86386" lon="2.32424">
        <ele>59.1</ele>
        <time>2024-01-12T14:21:52Z</time>
      </trkpt>
      <trkpt lat="49.86387" lon="2.32424">
        <ele>59.2</ele>
        <time>2024-01-12T14:21:53Z</time>
      </trkpt>
      <trkpt lat="49.86387" lon="2.32424">
        <ele>59.2</ele>
        <time>2024-01-12T14:21:54Z</time>
      </trkpt>
      <trkpt lat="49.86388" lon="2.32423">
        <ele>59.2</ele>
        <time>2024-01-12T14:21:55Z</time>
      </trkpt>
      <trkpt lat="49.86388" lon="2.32423">
        <ele>59.3</ele>
        <time>2024-01-12T14:21:56Z</time>
      </trkpt>
      <trkpt lat="49.86389" lon="2.32423">
        <ele>59.3</ele>
        <time>2024-01-12T14:21:57Z</time>
      </trkpt>
      <trkpt lat="49.86389" lon="2.32423">
        <ele>59.3</ele>
        <time>2024-01-12T14:21:58Z</time>
      </trkpt>
      <trkpt lat="49.8639" lon="2.32423">
        <ele>59.4</ele>
        <time>2024-01-12T14:21:59Z</time>
      </trkpt>
      <trkpt lat="49.8639" lon="2.32423">
        <ele>59.4</ele>
        <time>2024-01-12T14:22:00Z</time>
      </trkpt>
      <trkpt lat="49.8639" lon="2.32423">
        <ele>59.4</ele>
        <time>2024-01-12T14:22:01Z</time>
      </trkpt>
      <trkpt lat="49.86391" lon="2.32423">
        <ele>59.4</ele>
        <time>2024-01-12T14:22:02Z</time>
      </trkpt>
      <trkpt lat="49.86391" lon="2.32424">
        <ele>59.4</ele>
        <time>2024-01-12T14:22:03Z</time>
      </trkpt>
      <trkpt lat="49.8639" lon="2.32424">
        <ele>59.4</ele>
        <time>2024-01-12T14:22:04Z</time>
      </trkpt>
      <trkpt lat="49.8639" lon="2.32424">
        <ele>59.4</ele>
        <time>2024-01-12T14:22:05Z</time>
      </trkpt>
      <trkpt lat="49.8639" lon="2.32424">
        <ele>59.4</ele>
        <time>2024-01-12T14:22:06Z</time>
      </trkpt>
      <trkpt lat="49.8639" lon="2.32424">
        <ele>59.4</ele>
        <time>2024-01-12T14:22:07Z</time>
      </trkpt>
      <trkpt lat="49.8639" lon="2.32424">
        <ele>59.4</ele>
        <time>2024-01-12T14:22:08Z</time>
      </trkpt>
      <trkpt lat="49.8639" lon="2.32424">
        <ele>59.4</ele>
        <time>2024-01-12T14:22:09Z</time>
      </trkpt>
      <trkpt lat="49.8639" lon="2.32424">
        <ele>59.4</ele>
        <time>2024-01-12T14:22:10Z</time>
      </trkpt>
      <trkpt lat="49.8639" lon="2.32424">
        <ele>59.4</ele>
        <time>2024-01-12T14:22:11Z</time>
      </trkpt>
      <trkpt lat="49.8639" lon="2.32424">
        <ele>59.4</ele>
        <time>2024-01-12T14:22:12Z</time>
      </trkpt>
      <trkpt lat="49.8639" lon="2.32424">
        <ele>59.4</ele>
        <time>2024-01-12T14:22:13Z</time>
      </trkpt>
      <trkpt lat="49.8639" lon="2.32424">
        <ele>59.4</ele>
        <time>2024-01-12T14:22:14Z</time>
      </trkpt>
      <trkpt lat="49.8639" lon="2.32424">
        <ele>59.4</ele>
        <time>2024-01-12T14:22:15Z</time>
      </trkpt>
      <trkpt lat="49.86389" lon="2.32424">
        <ele>59.5</ele>
        <time>2024-01-12T14:22:16Z</time>
      </trkpt>
      <trkpt lat="49.86389" lon="2.32424">
        <ele>59.5</ele>
        <time>2024-01-12T14:22:17Z</time>
      </trkpt>
      <trkpt lat="49.86389" lon="2.32425">
        <ele>59.5</ele>
        <time>2024-01-12T14:22:18Z</time>
      </trkpt>
      <trkpt lat="49.86389" lon="2.32425">
        <ele>59.5</ele>
        <time>2024-01-12T14:22:19Z</time>
      </trkpt>
      <trkpt lat="49.86389" lon="2.32425">
        <ele>59.5</ele>
        <time>2024-01-12T14:22:20Z</time>
      </trkpt>
      <trkpt lat="49.86393" lon="2.32424">
        <ele>59.7</ele>
        <time>2024-01-12T14:24:40Z</time>
      </trkpt>
      <trkpt lat="49.86393" lon="2.32423">
        <ele>59.8</ele>
        <time>2024-01-12T14:24:41Z</time>
      </trkpt>
      <trkpt lat="49.86394" lon="2.32422">
        <ele>59.8</ele>
        <time>2024-01-12T14:24:42Z</time>
      </trkpt>
      <trkpt lat="49.86395" lon="2.32422">
        <ele>59.9</ele>
        <time>2024-01-12T14:24:43Z</time>
      </trkpt>
      <trkpt lat="49.86395" lon="2.32421">
        <ele>59.9</ele>
        <time>2024-01-12T14:24:44Z</time>
      </trkpt>
      <trkpt lat="49.86396" lon="2.3242">
        <ele>59.9</ele>
        <time>2024-01-12T14:24:45Z</time>
      </trkpt>
      <trkpt lat="49.86397" lon="2.32419">
        <ele>60</ele>
        <time>2024-01-12T14:24:46Z</time>
      </trkpt>
      <trkpt lat="49.86398" lon="2.32418">
        <ele>60</ele>
        <time>2024-01-12T14:24:47Z</time>
      </trkpt>
      <trkpt lat="49.864" lon="2.32417">
        <ele>60.1</ele>
        <time>2024-01-12T14:24:48Z</time>
      </trkpt>
      <trkpt lat="49.864" lon="2.32416">
        <ele>60.2</ele>
        <time>2024-01-12T14:24:49Z</time>
      </trkpt>
      <trkpt lat="49.86401" lon="2.32415">
        <ele>60.2</ele>
        <time>2024-01-12T14:24:50Z</time>
      </trkpt>
      <trkpt lat="49.86403" lon="2.32415">
        <ele>60.3</ele>
        <time>2024-01-12T14:24:51Z</time>
      </trkpt>
      <trkpt lat="49.86404" lon="2.32414">
        <ele>60.3</ele>
        <time>2024-01-12T14:24:52Z</time>
      </trkpt>
      <trkpt lat="49.86405" lon="2.32413">
        <ele>60.4</ele>
        <time>2024-01-12T14:24:53Z</time>
      </trkpt>
      <trkpt lat="49.86407" lon="2.32413">
        <ele>60.4</ele>
        <time>2024-01-12T14:24:54Z</time>
      </trkpt>
      <trkpt lat="49.86409" lon="2.32412">
        <ele>60.5</ele>
        <time>2024-01-12T14:24:55Z</time>
      </trkpt>
      <trkpt lat="49.8641" lon="2.32411">
        <ele>60.5</ele>
        <time>2024-01-12T14:24:56Z</time>
      </trkpt>
      <trkpt lat="49.86411" lon="2.32411">
        <ele>60.6</ele>
        <time>2024-01-12T14:24:57Z</time>
      </trkpt>
      <trkpt lat="49.86412" lon="2.32411">
        <ele>60.6</ele>
        <time>2024-01-12T14:24:58Z</time>
      </trkpt>
      <trkpt lat="49.86413" lon="2.3241">
        <ele>60.7</ele>
        <time>2024-01-12T14:24:59Z</time>
      </trkpt>
      <trkpt lat="49.86415" lon="2.32409">
        <ele>60.7</ele>
        <time>2024-01-12T14:25:00Z</time>
      </trkpt>
      <trkpt lat="49.86416" lon="2.32409">
        <ele>60.8</ele>
        <time>2024-01-12T14:25:01Z</time>
      </trkpt>
      <trkpt lat="49.86417" lon="2.32408">
        <ele>60.8</ele>
        <time>2024-01-12T14:25:02Z</time>
      </trkpt>
      <trkpt lat="49.86418" lon="2.32408">
        <ele>60.8</ele>
        <time>2024-01-12T14:25:03Z</time>
      </trkpt>
      <trkpt lat="49.86419" lon="2.32407">
        <ele>60.9</ele>
        <time>2024-01-12T14:25:04Z</time>
      </trkpt>
      <trkpt lat="49.8642" lon="2.32406">
        <ele>60.9</ele>
        <time>2024-01-12T14:25:05Z</time>
      </trkpt>
      <trkpt lat="49.86421" lon="2.32406">
        <ele>61</ele>
        <time>2024-01-12T14:25:06Z</time>
      </trkpt>
      <trkpt lat="49.86422" lon="2.32405">
        <ele>61</ele>
        <time>2024-01-12T14:25:07Z</time>
      </trkpt>
      <trkpt lat="49.86423" lon="2.32404">
        <ele>61.1</ele>
        <time>2024-01-12T14:25:08Z</time>
      </trkpt>
      <trkpt lat="49.86424" lon="2.32404">
        <ele>61.1</ele>
        <time>2024-01-12T14:25:09Z</time>
      </trkpt>
      <trkpt lat="49.86425" lon="2.32403">
        <ele>61.1</ele>
        <time>2024-01-12T14:25:10Z</time>
      </trkpt>
      <trkpt lat="49.86426" lon="2.32402">
        <ele>61.2</ele>
        <time>2024-01-12T14:25:11Z</time>
      </trkpt>
      <trkpt lat="49.86427" lon="2.32402">
        <ele>61.2</ele>
        <time>2024-01-12T14:25:12Z</time>
      </trkpt>
      <trkpt lat="49.86428" lon="2.32401">
        <ele>61.3</ele>
        <time>2024-01-12T14:25:13Z</time>
      </trkpt>
      <trkpt lat="49.8643" lon="2.324">
        <ele>61.3</ele>
        <time>2024-01-12T14:25:14Z</time>
      </trkpt>
      <trkpt lat="49.86431" lon="2.32399">
        <ele>61.4</ele>
        <time>2024-01-12T14:25:15Z</time>
      </trkpt>
      <trkpt lat="49.86432" lon="2.32399">
        <ele>61.4</ele>
        <time>2024-01-12T14:25:16Z</time>
      </trkpt>
      <trkpt lat="49.86433" lon="2.32398">
        <ele>61.4</ele>
        <time>2024-01-12T14:25:17Z</time>
      </trkpt>
      <trkpt lat="49.86434" lon="2.32397">
        <ele>61.5</ele>
        <time>2024-01-12T14:25:18Z</time>
      </trkpt>
      <trkpt lat="49.86435" lon="2.32397">
        <ele>61.5</ele>
        <time>2024-01-12T14:25:19Z</time>
      </trkpt>
      <trkpt lat="49.86436" lon="2.32396">
        <ele>61.6</ele>
        <time>2024-01-12T14:25:20Z</time>
      </trkpt>
      <trkpt lat="49.86437" lon="2.32396">
        <ele>61.6</ele>
        <time>2024-01-12T14:25:21Z</time>
      </trkpt>
      <trkpt lat="49.86438" lon="2.32395">
        <ele>61.6</ele>
        <time>2024-01-12T14:25:22Z</time>
      </trkpt>
      <trkpt lat="49.86439" lon="2.32394">
        <ele>61.7</ele>
        <time>2024-01-12T14:25:23Z</time>
      </trkpt>
      <trkpt lat="49.8644" lon="2.32393">
        <ele>61.7</ele>
        <time>2024-01-12T14:25:24Z</time>
      </trkpt>
      <trkpt lat="49.86441" lon="2.32393">
        <ele>61.8</ele>
        <time>2024-01-12T14:25:25Z</time>
      </trkpt>
      <trkpt lat="49.86442" lon="2.32392">
        <ele>61.8</ele>
        <time>2024-01-12T14:25:26Z</time>
      </trkpt>
      <trkpt lat="49.86443" lon="2.32391">
        <ele>61.9</ele>
        <time>2024-01-12T14:25:27Z</time>
      </trkpt>
      <trkpt lat="49.86444" lon="2.32391">
        <ele>61.9</ele>
        <time>2024-01-12T14:25:28Z</time>
      </trkpt>
      <trkpt lat="49.86445" lon="2.3239">
        <ele>61.9</ele>
        <time>2024-01-12T14:25:29Z</time>
      </trkpt>
      <trkpt lat="49.86445" lon="2.32389">
        <ele>62</ele>
        <time>2024-01-12T14:25:30Z</time>
      </trkpt>
      <trkpt lat="49.86446" lon="2.32389">
        <ele>62</ele>
        <time>2024-01-12T14:25:31Z</time>
      </trkpt>
      <trkpt lat="49.86447" lon="2.32388">
        <ele>62.1</ele>
        <time>2024-01-12T14:25:32Z</time>
      </trkpt>
      <trkpt lat="49.86448" lon="2.32387">
        <ele>62.1</ele>
        <time>2024-01-12T14:25:33Z</time>
      </trkpt>
      <trkpt lat="49.86449" lon="2.32387">
        <ele>62.2</ele>
        <time>2024-01-12T14:25:34Z</time>
      </trkpt>
      <trkpt lat="49.8645" lon="2.32386">
        <ele>62.2</ele>
        <time>2024-01-12T14:25:35Z</time>
      </trkpt>
      <trkpt lat="49.86451" lon="2.32385">
        <ele>62.2</ele>
        <time>2024-01-12T14:25:36Z</time>
      </trkpt>
      <trkpt lat="49.86452" lon="2.32385">
        <ele>62.3</ele>
        <time>2024-01-12T14:25:37Z</time>
      </trkpt>
      <trkpt lat="49.86453" lon="2.32384">
        <ele>62.3</ele>
        <time>2024-01-12T14:25:38Z</time>
      </trkpt>
      <trkpt lat="49.86454" lon="2.32383">
        <ele>62.4</ele>
        <time>2024-01-12T14:25:39Z</time>
      </trkpt>
      <trkpt lat="49.86455" lon="2.32383">
        <ele>62.4</ele>
        <time>2024-01-12T14:25:40Z</time>
      </trkpt>
      <trkpt lat="49.86456" lon="2.32382">
        <ele>62.5</ele>
        <time>2024-01-12T14:25:41Z</time>
      </trkpt>
      <trkpt lat="49.86456" lon="2.32381">
        <ele>62.5</ele>
        <time>2024-01-12T14:25:42Z</time>
      </trkpt>
      <trkpt lat="49.86457" lon="2.3238">
        <ele>62.5</ele>
        <time>2024-01-12T14:25:43Z</time>
      </trkpt>
      <trkpt lat="49.86458" lon="2.3238">
        <ele>62.6</ele>
        <time>2024-01-12T14:25:44Z</time>
      </trkpt>
      <trkpt lat="49.86459" lon="2.32379">
        <ele>62.6</ele>
        <time>2024-01-12T14:25:45Z</time>
      </trkpt>
      <trkpt lat="49.8646" lon="2.32379">
        <ele>62.7</ele>
        <time>2024-01-12T14:25:46Z</time>
      </trkpt>
      <trkpt lat="49.86461" lon="2.32378">
        <ele>62.7</ele>
        <time>2024-01-12T14:25:47Z</time>
      </trkpt>
      <trkpt lat="49.86461" lon="2.32378">
        <ele>62.7</ele>
        <time>2024-01-12T14:25:48Z</time>
      </trkpt>
      <trkpt lat="49.86462" lon="2.32377">
        <ele>62.8</ele>
        <time>2024-01-12T14:25:49Z</time>
      </trkpt>
      <trkpt lat="49.86463" lon="2.32376">
        <ele>62.8</ele>
        <time>2024-01-12T14:25:50Z</time>
      </trkpt>
      <trkpt lat="49.86464" lon="2.32376">
        <ele>62.9</ele>
        <time>2024-01-12T14:25:51Z</time>
      </trkpt>
      <trkpt lat="49.86465" lon="2.32375">
        <ele>62.9</ele>
        <time>2024-01-12T14:25:52Z</time>
      </trkpt>
      <trkpt lat="49.86466" lon="2.32375">
        <ele>63</ele>
        <time>2024-01-12T14:25:53Z</time>
      </trkpt>
      <trkpt lat="49.86467" lon="2.32374">
        <ele>63</ele>
        <time>2024-01-12T14:25:54Z</time>
      </trkpt>
      <trkpt lat="49.86468" lon="2.32373">
        <ele>63</ele>
        <time>2024-01-12T14:25:55Z</time>
      </trkpt>
      <trkpt lat="49.86469" lon="2.32373">
        <ele>63.1</ele>
        <time>2024-01-12T14:25:56Z</time>
      </trkpt>
      <trkpt lat="49.8647" lon="2.32372">
        <ele>63.1</ele>
        <time>2024-01-12T14:25:57Z</time>
      </trkpt>
      <trkpt lat="49.86471" lon="2.32372">
        <ele>63.2</ele>
        <time>2024-01-12T14:25:58Z</time>
      </trkpt>
      <trkpt lat="49.86472" lon="2.32371">
        <ele>63.2</ele>
        <time>2024-01-12T14:25:59Z</time>
      </trkpt>
      <trkpt lat="49.86473" lon="2.32371">
        <ele>63.3</ele>
        <time>2024-01-12T14:26:00Z</time>
      </trkpt>
      <trkpt lat="49.86474" lon="2.3237">
        <ele>63.3</ele>
        <time>2024-01-12T14:26:01Z</time>
      </trkpt>
      <trkpt lat="49.86475" lon="2.32369">
        <ele>63.4</ele>
        <time>2024-01-12T14:26:02Z</time>
      </trkpt>
      <trkpt lat="49.86476" lon="2.32369">
        <ele>63.4</ele>
        <time>2024-01-12T14:26:03Z</time>
      </trkpt>
      <trkpt lat="49.86477" lon="2.32368">
        <ele>63.5</ele>
        <time>2024-01-12T14:26:04Z</time>
      </trkpt>
      <trkpt lat="49.86478" lon="2.32368">
        <ele>63.5</ele>
        <time>2024-01-12T14:26:05Z</time>
      </trkpt>
      <trkpt lat="49.86479" lon="2.32367">
        <ele>63.5</ele>
        <time>2024-01-12T14:26:06Z</time>
      </trkpt>
      <trkpt lat="49.8648" lon="2.32367">
        <ele>63.6</ele>
        <time>2024-01-12T14:26:07Z</time>
      </trkpt>
      <trkpt lat="49.8648" lon="2.32366">
        <ele>63.6</ele>
        <time>2024-01-12T14:26:08Z</time>
      </trkpt>
      <trkpt lat="49.86481" lon="2.32366">
        <ele>63.7</ele>
        <time>2024-01-12T14:26:09Z</time>
      </trkpt>
      <trkpt lat="49.86482" lon="2.32365">
        <ele>63.7</ele>
        <time>2024-01-12T14:26:10Z</time>
      </trkpt>
      <trkpt lat="49.86484" lon="2.32365">
        <ele>63.8</ele>
        <time>2024-01-12T14:26:11Z</time>
      </trkpt>
      <trkpt lat="49.86485" lon="2.32364">
        <ele>63.8</ele>
        <time>2024-01-12T14:26:12Z</time>
      </trkpt>
      <trkpt lat="49.86486" lon="2.32364">
        <ele>63.9</ele>
        <time>2024-01-12T14:26:13Z</time>
      </trkpt>
      <trkpt lat="49.86487" lon="2.32363">
        <ele>63.9</ele>
        <time>2024-01-12T14:26:14Z</time>
      </trkpt>
      <trkpt lat="49.86488" lon="2.32362">
        <ele>64</ele>
        <time>2024-01-12T14:26:15Z</time>
      </trkpt>
      <trkpt lat="49.86489" lon="2.32362">
        <ele>64</ele>
        <time>2024-01-12T14:26:16Z</time>
      </trkpt>
      <trkpt lat="49.8649" lon="2.32362">
        <ele>64</ele>
        <time>2024-01-12T14:26:17Z</time>
      </trkpt>
      <trkpt lat="49.86491" lon="2.32362">
        <ele>64.1</ele>
        <time>2024-01-12T14:26:18Z</time>
      </trkpt>
      <trkpt lat="49.86491" lon="2.32361">
        <ele>64.1</ele>
        <time>2024-01-12T14:26:19Z</time>
      </trkpt>
      <trkpt lat="49.86492" lon="2.32361">
        <ele>64.2</ele>
        <time>2024-01-12T14:26:20Z</time>
      </trkpt>
      <trkpt lat="49.86493" lon="2.32361">
        <ele>64.2</ele>
        <time>2024-01-12T14:26:21Z</time>
      </trkpt>
      <trkpt lat="49.86494" lon="2.3236">
        <ele>64.2</ele>
        <time>2024-01-12T14:26:22Z</time>
      </trkpt>
      <trkpt lat="49.86495" lon="2.3236">
        <ele>64.3</ele>
        <time>2024-01-12T14:26:23Z</time>
      </trkpt>
      <trkpt lat="49.86496" lon="2.3236">
        <ele>64.3</ele>
        <time>2024-01-12T14:26:24Z</time>
      </trkpt>
      <trkpt lat="49.86497" lon="2.32359">
        <ele>64.4</ele>
        <time>2024-01-12T14:26:25Z</time>
      </trkpt>
      <trkpt lat="49.86498" lon="2.32359">
        <ele>64.4</ele>
        <time>2024-01-12T14:26:26Z</time>
      </trkpt>
      <trkpt lat="49.86499" lon="2.32359">
        <ele>64.4</ele>
        <time>2024-01-12T14:26:27Z</time>
      </trkpt>
      <trkpt lat="49.865" lon="2.32358">
        <ele>64.5</ele>
        <time>2024-01-12T14:26:28Z</time>
      </trkpt>
      <trkpt lat="49.86501" lon="2.32358">
        <ele>64.5</ele>
        <time>2024-01-12T14:26:29Z</time>
      </trkpt>
      <trkpt lat="49.86502" lon="2.32357">
        <ele>64.5</ele>
        <time>2024-01-12T14:26:30Z</time>
      </trkpt>
      <trkpt lat="49.86502" lon="2.32357">
        <ele>64.6</ele>
        <time>2024-01-12T14:26:31Z</time>
      </trkpt>
      <trkpt lat="49.86503" lon="2.32357">
        <ele>64.6</ele>
        <time>2024-01-12T14:26:32Z</time>
      </trkpt>
      <trkpt lat="49.86504" lon="2.32356">
        <ele>64.6</ele>
        <time>2024-01-12T14:26:33Z</time>
      </trkpt>
      <trkpt lat="49.86505" lon="2.32356">
        <ele>64.7</ele>
        <time>2024-01-12T14:26:34Z</time>
      </trkpt>
      <trkpt lat="49.86506" lon="2.32356">
        <ele>64.7</ele>
        <time>2024-01-12T14:26:35Z</time>
      </trkpt>
      <trkpt lat="49.86507" lon="2.32355">
        <ele>64.7</ele>
        <time>2024-01-12T14:26:36Z</time>
      </trkpt>
      <trkpt lat="49.86508" lon="2.32355">
        <ele>64.8</ele>
        <time>2024-01-12T14:26:37Z</time>
      </trkpt>
      <trkpt lat="49.86509" lon="2.32355">
        <ele>64.8</ele>
        <time>2024-01-12T14:26:38Z</time>
      </trkpt>
      <trkpt lat="49.8651" lon="2.32354">
        <ele>64.8</ele>
        <time>2024-01-12T14:26:39Z</time>
      </trkpt>
      <trkpt lat="49.86511" lon="2.32354">
        <ele>64.9</ele>
        <time>2024-01-12T14:26:40Z</time>
      </trkpt>
      <trkpt lat="49.86512" lon="2.32354">
        <ele>64.9</ele>
        <time>2024-01-12T14:26:41Z</time>
      </trkpt>
      <trkpt lat="49.86513" lon="2.32353">
        <ele>65</ele>
        <time>2024-01-12T14:26:42Z</time>
      </trkpt>
      <trkpt lat="49.86514" lon="2.32353">
        <ele>65</ele>
        <time>2024-01-12T14:26:43Z</time>
      </trkpt>
      <trkpt lat="49.86515" lon="2.32352">
        <ele>65</ele>
        <time>2024-01-12T14:26:44Z</time>
      </trkpt>
      <trkpt lat="49.86516" lon="2.32352">
        <ele>65.1</ele>
        <time>2024-01-12T14:26:45Z</time>
      </trkpt>
      <trkpt lat="49.86517" lon="2.32352">
        <ele>65.1</ele>
        <time>2024-01-12T14:26:46Z</time>
      </trkpt>
      <trkpt lat="49.86518" lon="2.32351">
        <ele>65.1</ele>
        <time>2024-01-12T14:26:47Z</time>
      </trkpt>
      <trkpt lat="49.86519" lon="2.32351">
        <ele>65.2</ele>
        <time>2024-01-12T14:26:48Z</time>
      </trkpt>
      <trkpt lat="49.8652" lon="2.32351">
        <ele>65.2</ele>
        <time>2024-01-12T14:26:49Z</time>
      </trkpt>
      <trkpt lat="49.86521" lon="2.32351">
        <ele>65.2</ele>
        <time>2024-01-12T14:26:50Z</time>
      </trkpt>
      <trkpt lat="49.86523" lon="2.3235">
        <ele>65.3</ele>
        <time>2024-01-12T14:26:51Z</time>
      </trkpt>
      <trkpt lat="49.86524" lon="2.3235">
        <ele>65.3</ele>
        <time>2024-01-12T14:26:52Z</time>
      </trkpt>
      <trkpt lat="49.86525" lon="2.3235">
        <ele>65.3</ele>
        <time>2024-01-12T14:26:53Z</time>
      </trkpt>
      <trkpt lat="49.86526" lon="2.32349">
        <ele>65.4</ele>
        <time>2024-01-12T14:26:54Z</time>
      </trkpt>
      <trkpt lat="49.86527" lon="2.32349">
        <ele>65.4</ele>
        <time>2024-01-12T14:26:55Z</time>
      </trkpt>
      <trkpt lat="49.86528" lon="2.32349">
        <ele>65.4</ele>
        <time>2024-01-12T14:26:56Z</time>
      </trkpt>
      <trkpt lat="49.86529" lon="2.32348">
        <ele>65.5</ele>
        <time>2024-01-12T14:26:57Z</time>
      </trkpt>
      <trkpt lat="49.8653" lon="2.32348">
        <ele>65.5</ele>
        <time>2024-01-12T14:26:58Z</time>
      </trkpt>
      <trkpt lat="49.86531" lon="2.32348">
        <ele>65.5</ele>
        <time>2024-01-12T14:26:59Z</time>
      </trkpt>
      <trkpt lat="49.86532" lon="2.32347">
        <ele>65.6</ele>
        <time>2024-01-12T14:27:00Z</time>
      </trkpt>
      <trkpt lat="49.86533" lon="2.32347">
        <ele>65.6</ele>
        <time>2024-01-12T14:27:01Z</time>
      </trkpt>
      <trkpt lat="49.86534" lon="2.32346">
        <ele>65.6</ele>
        <time>2024-01-12T14:27:02Z</time>
      </trkpt>
      <trkpt lat="49.86536" lon="2.32346">
        <ele>65.7</ele>
        <time>2024-01-12T14:27:03Z</time>
      </trkpt>
      <trkpt lat="49.86537" lon="2.32346">
        <ele>65.7</ele>
        <time>2024-01-12T14:27:04Z</time>
      </trkpt>
      <trkpt lat="49.86538" lon="2.32345">
        <ele>65.7</ele>
        <time>2024-01-12T14:27:05Z</time>
      </trkpt>
      <trkpt lat="49.86538" lon="2.32345">
        <ele>65.7</ele>
        <time>2024-01-12T14:27:06Z</time>
      </trkpt>
      <trkpt lat="49.86539" lon="2.32344">
        <ele>65.8</ele>
        <time>2024-01-12T14:27:07Z</time>
      </trkpt>
      <trkpt lat="49.86541" lon="2.32344">
        <ele>65.8</ele>
        <time>2024-01-12T14:27:08Z</time>
      </trkpt>
      <trkpt lat="49.86542" lon="2.32344">
        <ele>65.8</ele>
        <time>2024-01-12T14:27:09Z</time>
      </trkpt>
      <trkpt lat="49.86543" lon="2.32343">
        <ele>65.9</ele>
        <time>2024-01-12T14:27:10Z</time>
      </trkpt>
      <trkpt lat="49.86544" lon="2.32343">
        <ele>65.9</ele>
        <time>2024-01-12T14:27:11Z</time>
      </trkpt>
      <trkpt lat="49.86545" lon="2.32343">
        <ele>65.9</ele>
        <time>2024-01-12T14:27:12Z</time>
      </trkpt>
      <trkpt lat="49.86546" lon="2.32343">
        <ele>66</ele>
        <time>2024-01-12T14:27:13Z</time>
      </trkpt>
      <trkpt lat="49.86547" lon="2.32343">
        <ele>66</ele>
        <time>2024-01-12T14:27:14Z</time>
      </trkpt>
      <trkpt lat="49.86548" lon="2.32342">
        <ele>66</ele>
        <time>2024-01-12T14:27:15Z</time>
      </trkpt>
      <trkpt lat="49.86549" lon="2.32342">
        <ele>66</ele>
        <time>2024-01-12T14:27:16Z</time>
      </trkpt>
      <trkpt lat="49.8655" lon="2.32342">
        <ele>66.1</ele>
        <time>2024-01-12T14:27:17Z</time>
      </trkpt>
      <trkpt lat="49.86551" lon="2.32341">
        <ele>66.1</ele>
        <time>2024-01-12T14:27:18Z</time>
      </trkpt>
      <trkpt lat="49.86552" lon="2.32341">
        <ele>66.1</ele>
        <time>2024-01-12T14:27:19Z</time>
      </trkpt>
      <trkpt lat="49.86553" lon="2.32341">
        <ele>66.1</ele>
        <time>2024-01-12T14:27:20Z</time>
      </trkpt>
      <trkpt lat="49.86554" lon="2.3234">
        <ele>66.1</ele>
        <time>2024-01-12T14:27:21Z</time>
      </trkpt>
      <trkpt lat="49.86555" lon="2.3234">
        <ele>66.2</ele>
        <time>2024-01-12T14:27:22Z</time>
      </trkpt>
      <trkpt lat="49.86556" lon="2.3234">
        <ele>66.2</ele>
        <time>2024-01-12T14:27:23Z</time>
      </trkpt>
      <trkpt lat="49.86557" lon="2.32339">
        <ele>66.2</ele>
        <time>2024-01-12T14:27:24Z</time>
      </trkpt>
      <trkpt lat="49.86558" lon="2.32339">
        <ele>66.2</ele>
        <time>2024-01-12T14:27:25Z</time>
      </trkpt>
      <trkpt lat="49.86559" lon="2.32339">
        <ele>66.3</ele>
        <time>2024-01-12T14:27:26Z</time>
      </trkpt>
      <trkpt lat="49.8656" lon="2.32339">
        <ele>66.3</ele>
        <time>2024-01-12T14:27:27Z</time>
      </trkpt>
      <trkpt lat="49.86561" lon="2.32338">
        <ele>66.3</ele>
        <time>2024-01-12T14:27:28Z</time>
      </trkpt>
      <trkpt lat="49.86561" lon="2.32338">
        <ele>66.3</ele>
        <time>2024-01-12T14:27:29Z</time>
      </trkpt>
      <trkpt lat="49.86562" lon="2.32338">
        <ele>66.3</ele>
        <time>2024-01-12T14:27:30Z</time>
      </trkpt>
      <trkpt lat="49.86563" lon="2.32338">
        <ele>66.3</ele>
        <time>2024-01-12T14:27:31Z</time>
      </trkpt>
      <trkpt lat="49.86564" lon="2.32337">
        <ele>66.4</ele>
        <time>2024-01-12T14:27:32Z</time>
      </trkpt>
      <trkpt lat="49.86565" lon="2.32337">
        <ele>66.4</ele>
        <time>2024-01-12T14:27:33Z</time>
      </trkpt>
      <trkpt lat="49.86566" lon="2.32337">
        <ele>66.4</ele>
        <time>2024-01-12T14:27:34Z</time>
      </trkpt>
      <trkpt lat="49.86567" lon="2.32337">
        <ele>66.4</ele>
        <time>2024-01-12T14:27:35Z</time>
      </trkpt>
      <trkpt lat="49.86568" lon="2.32336">
        <ele>66.4</ele>
        <time>2024-01-12T14:27:36Z</time>
      </trkpt>
      <trkpt lat="49.86569" lon="2.32336">
        <ele>66.4</ele>
        <time>2024-01-12T14:27:37Z</time>
      </trkpt>
      <trkpt lat="49.8657" lon="2.32336">
        <ele>66.5</ele>
        <time>2024-01-12T14:27:38Z</time>
      </trkpt>
      <trkpt lat="49.86571" lon="2.32335">
        <ele>66.5</ele>
        <time>2024-01-12T14:27:39Z</time>
      </trkpt>
      <trkpt lat="49.86572" lon="2.32335">
        <ele>66.5</ele>
        <time>2024-01-12T14:27:40Z</time>
      </trkpt>
      <trkpt lat="49.86573" lon="2.32335">
        <ele>66.5</ele>
        <time>2024-01-12T14:27:41Z</time>
      </trkpt>
      <trkpt lat="49.86574" lon="2.32334">
        <ele>66.5</ele>
        <time>2024-01-12T14:27:42Z</time>
      </trkpt>
      <trkpt lat="49.86576" lon="2.32334">
        <ele>66.5</ele>
        <time>2024-01-12T14:27:43Z</time>
      </trkpt>
      <trkpt lat="49.86577" lon="2.32333">
        <ele>66.5</ele>
        <time>2024-01-12T14:27:44Z</time>
      </trkpt>
      <trkpt lat="49.86578" lon="2.32333">
        <ele>66.5</ele>
        <time>2024-01-12T14:27:45Z</time>
      </trkpt>
      <trkpt lat="49.86579" lon="2.32333">
        <ele>66.6</ele>
        <time>2024-01-12T14:27:46Z</time>
      </trkpt>
      <trkpt lat="49.8658" lon="2.32332">
        <ele>66.6</ele>
        <time>2024-01-12T14:27:47Z</time>
      </trkpt>
      <trkpt lat="49.86581" lon="2.32332">
        <ele>66.6</ele>
        <time>2024-01-12T14:27:48Z</time>
      </trkpt>
      <trkpt lat="49.86583" lon="2.32331">
        <ele>66.6</ele>
        <time>2024-01-12T14:27:49Z</time>
      </trkpt>
      <trkpt lat="49.86584" lon="2.32331">
        <ele>66.6</ele>
        <time>2024-01-12T14:27:50Z</time>
      </trkpt>
      <trkpt lat="49.86584" lon="2.32331">
        <ele>66.6</ele>
        <time>2024-01-12T14:27:51Z</time>
      </trkpt>
      <trkpt lat="49.86586" lon="2.3233">
        <ele>66.6</ele>
        <time>2024-01-12T14:27:52Z</time>
      </trkpt>
      <trkpt lat="49.86587" lon="2.3233">
        <ele>66.6</ele>
        <time>2024-01-12T14:27:53Z</time>
      </trkpt>
      <trkpt lat="49.86588" lon="2.32329">
        <ele>66.6</ele>
        <time>2024-01-12T14:27:54Z</time>
      </trkpt>
      <trkpt lat="49.86589" lon="2.32329">
        <ele>66.6</ele>
        <time>2024-01-12T14:27:55Z</time>
      </trkpt>
      <trkpt lat="49.8659" lon="2.32328">
        <ele>66.6</ele>
        <time>2024-01-12T14:27:56Z</time>
      </trkpt>
      <trkpt lat="49.86591" lon="2.32328">
        <ele>66.6</ele>
        <time>2024-01-12T14:27:57Z</time>
      </trkpt>
      <trkpt lat="49.86592" lon="2.32328">
        <ele>66.6</ele>
        <time>2024-01-12T14:27:58Z</time>
      </trkpt>
      <trkpt lat="49.86593" lon="2.32327">
        <ele>66.6</ele>
        <time>2024-01-12T14:27:59Z</time>
      </trkpt>
      <trkpt lat="49.86595" lon="2.32327">
        <ele>66.6</ele>
        <time>2024-01-12T14:28:00Z</time>
      </trkpt>
      <trkpt lat="49.86597" lon="2.32326">
        <ele>66.6</ele>
        <time>2024-01-12T14:28:01Z</time>
      </trkpt>
      <trkpt lat="49.86597" lon="2.32325">
        <ele>66.6</ele>
        <time>2024-01-12T14:28:02Z</time>
      </trkpt>
      <trkpt lat="49.86598" lon="2.32325">
        <ele>66.6</ele>
        <time>2024-01-12T14:28:03Z</time>
      </trkpt>
      <trkpt lat="49.866" lon="2.32324">
        <ele>66.6</ele>
        <time>2024-01-12T14:28:04Z</time>
      </trkpt>
      <trkpt lat="49.86601" lon="2.32324">
        <ele>66.6</ele>
        <time>2024-01-12T14:28:05Z</time>
      </trkpt>
      <trkpt lat="49.86602" lon="2.32324">
        <ele>66.6</ele>
        <time>2024-01-12T14:28:06Z</time>
      </trkpt>
      <trkpt lat="49.86604" lon="2.32323">
        <ele>66.6</ele>
        <time>2024-01-12T14:28:07Z</time>
      </trkpt>
      <trkpt lat="49.86605" lon="2.32323">
        <ele>66.6</ele>
        <time>2024-01-12T14:28:08Z</time>
      </trkpt>
      <trkpt lat="49.86606" lon="2.32323">
        <ele>66.6</ele>
        <time>2024-01-12T14:28:09Z</time>
      </trkpt>
      <trkpt lat="49.86607" lon="2.32323">
        <ele>66.6</ele>
        <time>2024-01-12T14:28:10Z</time>
      </trkpt>
      <trkpt lat="49.86608" lon="2.32322">
        <ele>66.5</ele>
        <time>2024-01-12T14:28:11Z</time>
      </trkpt>
      <trkpt lat="49.86609" lon="2.32322">
        <ele>66.5</ele>
        <time>2024-01-12T14:28:12Z</time>
      </trkpt>
      <trkpt lat="49.8661" lon="2.32321">
        <ele>66.5</ele>
        <time>2024-01-12T14:28:13Z</time>
      </trkpt>
      <trkpt lat="49.86611" lon="2.32321">
        <ele>66.5</ele>
        <time>2024-01-12T14:28:14Z</time>
      </trkpt>
      <trkpt lat="49.86612" lon="2.3232">
        <ele>66.5</ele>
        <time>2024-01-12T14:28:15Z</time>
      </trkpt>
      <trkpt lat="49.86614" lon="2.32319">
        <ele>66.5</ele>
        <time>2024-01-12T14:28:16Z</time>
      </trkpt>
      <trkpt lat="49.86615" lon="2.32319">
        <ele>66.5</ele>
        <time>2024-01-12T14:28:17Z</time>
      </trkpt>
      <trkpt lat="49.86616" lon="2.32319">
        <ele>66.4</ele>
        <time>2024-01-12T14:28:18Z</time>
      </trkpt>
      <trkpt lat="49.86617" lon="2.32318">
        <ele>66.4</ele>
        <time>2024-01-12T14:28:19Z</time>
      </trkpt>
      <trkpt lat="49.86618" lon="2.32318">
        <ele>66.4</ele>
        <time>2024-01-12T14:28:20Z</time>
      </trkpt>
      <trkpt lat="49.86619" lon="2.32317">
        <ele>66.4</ele>
        <time>2024-01-12T14:28:21Z</time>
      </trkpt>
      <trkpt lat="49.8662" lon="2.32317">
        <ele>66.4</ele>
        <time>2024-01-12T14:28:22Z</time>
      </trkpt>
      <trkpt lat="49.86621" lon="2.32316">
        <ele>66.4</ele>
        <time>2024-01-12T14:28:23Z</time>
      </trkpt>
      <trkpt lat="49.86622" lon="2.32316">
        <ele>66.4</ele>
        <time>2024-01-12T14:28:24Z</time>
      </trkpt>
      <trkpt lat="49.86623" lon="2.32315">
        <ele>66.3</ele>
        <time>2024-01-12T14:28:25Z</time>
      </trkpt>
      <trkpt lat="49.86625" lon="2.32314">
        <ele>66.3</ele>
        <time>2024-01-12T14:28:27Z</time>
      </trkpt>
      <trkpt lat="49.86626" lon="2.32313">
        <ele>66.3</ele>
        <time>2024-01-12T14:28:28Z</time>
      </trkpt>
      <trkpt lat="49.86627" lon="2.32313">
        <ele>66.3</ele>
        <time>2024-01-12T14:28:29Z</time>
      </trkpt>
      <trkpt lat="49.86628" lon="2.32312">
        <ele>66.2</ele>
        <time>2024-01-12T14:28:30Z</time>
      </trkpt>
      <trkpt lat="49.86629" lon="2.32312">
        <ele>66.2</ele>
        <time>2024-01-12T14:28:31Z</time>
      </trkpt>
      <trkpt lat="49.8663" lon="2.32311">
        <ele>66.2</ele>
        <time>2024-01-12T14:28:32Z</time>
      </trkpt>
      <trkpt lat="49.86631" lon="2.3231">
        <ele>66.2</ele>
        <time>2024-01-12T14:28:33Z</time>
      </trkpt>
      <trkpt lat="49.86632" lon="2.3231">
        <ele>66.2</ele>
        <time>2024-01-12T14:28:34Z</time>
      </trkpt>
      <trkpt lat="49.86633" lon="2.32309">
        <ele>66.1</ele>
        <time>2024-01-12T14:28:35Z</time>
      </trkpt>
      <trkpt lat="49.86634" lon="2.32309">
        <ele>66.1</ele>
        <time>2024-01-12T14:28:36Z</time>
      </trkpt>
      <trkpt lat="49.86635" lon="2.32309">
        <ele>66.1</ele>
        <time>2024-01-12T14:28:37Z</time>
      </trkpt>
      <trkpt lat="49.86635" lon="2.32308">
        <ele>66.1</ele>
        <time>2024-01-12T14:28:38Z</time>
      </trkpt>
      <trkpt lat="49.86636" lon="2.32308">
        <ele>66.1</ele>
        <time>2024-01-12T14:28:39Z</time>
      </trkpt>
      <trkpt lat="49.86637" lon="2.32307">
        <ele>66.1</ele>
        <time>2024-01-12T14:28:40Z</time>
      </trkpt>
      <trkpt lat="49.86638" lon="2.32307">
        <ele>66</ele>
        <time>2024-01-12T14:28:41Z</time>
      </trkpt>
      <trkpt lat="49.86639" lon="2.32306">
        <ele>66</ele>
        <time>2024-01-12T14:28:42Z</time>
      </trkpt>
      <trkpt lat="49.8664" lon="2.32306">
        <ele>66</ele>
        <time>2024-01-12T14:28:43Z</time>
      </trkpt>
      <trkpt lat="49.86641" lon="2.32305">
        <ele>66</ele>
        <time>2024-01-12T14:28:44Z</time>
      </trkpt>
      <trkpt lat="49.86642" lon="2.32305">
        <ele>66</ele>
        <time>2024-01-12T14:28:45Z</time>
      </trkpt>
      <trkpt lat="49.86643" lon="2.32304">
        <ele>65.9</ele>
        <time>2024-01-12T14:28:46Z</time>
      </trkpt>
      <trkpt lat="49.86644" lon="2.32303">
        <ele>65.9</ele>
        <time>2024-01-12T14:28:47Z</time>
      </trkpt>
      <trkpt lat="49.86644" lon="2.32303">
        <ele>65.9</ele>
        <time>2024-01-12T14:28:48Z</time>
      </trkpt>
      <trkpt lat="49.86645" lon="2.32303">
        <ele>65.9</ele>
        <time>2024-01-12T14:28:49Z</time>
      </trkpt>
      <trkpt lat="49.86646" lon="2.32302">
        <ele>65.9</ele>
        <time>2024-01-12T14:28:50Z</time>
      </trkpt>
      <trkpt lat="49.86647" lon="2.32302">
        <ele>65.8</ele>
        <time>2024-01-12T14:28:51Z</time>
      </trkpt>
      <trkpt lat="49.86648" lon="2.32301">
        <ele>65.8</ele>
        <time>2024-01-12T14:28:52Z</time>
      </trkpt>
      <trkpt lat="49.86649" lon="2.32301">
        <ele>65.8</ele>
        <time>2024-01-12T14:28:53Z</time>
      </trkpt>
      <trkpt lat="49.8665" lon="2.323">
        <ele>65.8</ele>
        <time>2024-01-12T14:28:54Z</time>
      </trkpt>
      <trkpt lat="49.86651" lon="2.323">
        <ele>65.7</ele>
        <time>2024-01-12T14:28:55Z</time>
      </trkpt>
      <trkpt lat="49.86652" lon="2.32299">
        <ele>65.7</ele>
        <time>2024-01-12T14:28:56Z</time>
      </trkpt>
      <trkpt lat="49.86653" lon="2.32299">
        <ele>65.7</ele>
        <time>2024-01-12T14:28:57Z</time>
      </trkpt>
      <trkpt lat="49.86655" lon="2.32299">
        <ele>65.7</ele>
        <time>2024-01-12T14:28:58Z</time>
      </trkpt>
      <trkpt lat="49.86656" lon="2.32298">
        <ele>65.6</ele>
        <time>2024-01-12T14:28:59Z</time>
      </trkpt>
      <trkpt lat="49.86657" lon="2.32298">
        <ele>65.6</ele>
        <time>2024-01-12T14:29:00Z</time>
      </trkpt>
      <trkpt lat="49.86658" lon="2.32298">
        <ele>65.6</ele>
        <time>2024-01-12T14:29:01Z</time>
      </trkpt>
      <trkpt lat="49.86659" lon="2.32298">
        <ele>65.5</ele>
        <time>2024-01-12T14:29:02Z</time>
      </trkpt>
      <trkpt lat="49.8666" lon="2.32297">
        <ele>65.5</ele>
        <time>2024-01-12T14:29:03Z</time>
      </trkpt>
      <trkpt lat="49.86661" lon="2.32297">
        <ele>65.5</ele>
        <time>2024-01-12T14:29:04Z</time>
      </trkpt>
      <trkpt lat="49.86663" lon="2.32297">
        <ele>65.5</ele>
        <time>2024-01-12T14:29:05Z</time>
      </trkpt>
      <trkpt lat="49.86664" lon="2.32296">
        <ele>65.4</ele>
        <time>2024-01-12T14:29:06Z</time>
      </trkpt>
      <trkpt lat="49.86665" lon="2.32296">
        <ele>65.4</ele>
        <time>2024-01-12T14:29:07Z</time>
      </trkpt>
      <trkpt lat="49.86667" lon="2.32295">
        <ele>65.4</ele>
        <time>2024-01-12T14:29:08Z</time>
      </trkpt>
      <trkpt lat="49.86668" lon="2.32295">
        <ele>65.3</ele>
        <time>2024-01-12T14:29:09Z</time>
      </trkpt>
      <trkpt lat="49.86669" lon="2.32295">
        <ele>65.3</ele>
        <time>2024-01-12T14:29:10Z</time>
      </trkpt>
      <trkpt lat="49.8667" lon="2.32294">
        <ele>65.3</ele>
        <time>2024-01-12T14:29:11Z</time>
      </trkpt>
      <trkpt lat="49.86671" lon="2.32294">
        <ele>65.3</ele>
        <time>2024-01-12T14:29:12Z</time>
      </trkpt>
      <trkpt lat="49.86672" lon="2.32294">
        <ele>65.2</ele>
        <time>2024-01-12T14:29:13Z</time>
      </trkpt>
      <trkpt lat="49.86673" lon="2.32293">
        <ele>65.2</ele>
        <time>2024-01-12T14:29:14Z</time>
      </trkpt>
      <trkpt lat="49.86674" lon="2.32293">
        <ele>65.2</ele>
        <time>2024-01-12T14:29:15Z</time>
      </trkpt>
      <trkpt lat="49.86675" lon="2.32292">
        <ele>65.2</ele>
        <time>2024-01-12T14:29:16Z</time>
      </trkpt>
      <trkpt lat="49.86676" lon="2.32292">
        <ele>65.1</ele>
        <time>2024-01-12T14:29:17Z</time>
      </trkpt>
      <trkpt lat="49.86677" lon="2.32291">
        <ele>65.1</ele>
        <time>2024-01-12T14:29:18Z</time>
      </trkpt>
      <trkpt lat="49.86677" lon="2.32291">
        <ele>65.1</ele>
        <time>2024-01-12T14:29:19Z</time>
      </trkpt>
      <trkpt lat="49.86678" lon="2.32291">
        <ele>65.1</ele>
        <time>2024-01-12T14:29:20Z</time>
      </trkpt>
      <trkpt lat="49.86679" lon="2.3229">
        <ele>65.1</ele>
        <time>2024-01-12T14:29:21Z</time>
      </trkpt>
      <trkpt lat="49.8668" lon="2.3229">
        <ele>65</ele>
        <time>2024-01-12T14:29:22Z</time>
      </trkpt>
      <trkpt lat="49.86681" lon="2.3229">
        <ele>65</ele>
        <time>2024-01-12T14:29:23Z</time>
      </trkpt>
      <trkpt lat="49.86682" lon="2.32289">
        <ele>65</ele>
        <time>2024-01-12T14:29:24Z</time>
      </trkpt>
      <trkpt lat="49.86682" lon="2.32289">
        <ele>65</ele>
        <time>2024-01-12T14:29:25Z</time>
      </trkpt>
      <trkpt lat="49.86683" lon="2.32288">
        <ele>65</ele>
        <time>2024-01-12T14:29:26Z</time>
      </trkpt>
      <trkpt lat="49.86684" lon="2.32288">
        <ele>65</ele>
        <time>2024-01-12T14:29:27Z</time>
      </trkpt>
      <trkpt lat="49.86685" lon="2.32288">
        <ele>64.9</ele>
        <time>2024-01-12T14:29:28Z</time>
      </trkpt>
      <trkpt lat="49.86686" lon="2.32287">
        <ele>64.9</ele>
        <time>2024-01-12T14:29:29Z</time>
      </trkpt>
      <trkpt lat="49.86687" lon="2.32287">
        <ele>64.9</ele>
        <time>2024-01-12T14:29:30Z</time>
      </trkpt>
      <trkpt lat="49.86688" lon="2.32287">
        <ele>64.9</ele>
        <time>2024-01-12T14:29:31Z</time>
      </trkpt>
      <trkpt lat="49.86689" lon="2.32286">
        <ele>64.8</ele>
        <time>2024-01-12T14:29:32Z</time>
      </trkpt>
      <trkpt lat="49.8669" lon="2.32286">
        <ele>64.8</ele>
        <time>2024-01-12T14:29:33Z</time>
      </trkpt>
      <trkpt lat="49.86691" lon="2.32285">
        <ele>64.8</ele>
        <time>2024-01-12T14:29:34Z</time>
      </trkpt>
      <trkpt lat="49.86692" lon="2.32285">
        <ele>64.8</ele>
        <time>2024-01-12T14:29:35Z</time>
      </trkpt>
      <trkpt lat="49.86693" lon="2.32284">
        <ele>64.7</ele>
        <time>2024-01-12T14:29:36Z</time>
      </trkpt>
      <trkpt lat="49.86694" lon="2.32283">
        <ele>64.7</ele>
        <time>2024-01-12T14:29:37Z</time>
      </trkpt>
      <trkpt lat="49.86695" lon="2.32283">
        <ele>64.7</ele>
        <time>2024-01-12T14:29:38Z</time>
      </trkpt>
      <trkpt lat="49.86696" lon="2.32282">
        <ele>64.7</ele>
        <time>2024-01-12T14:29:39Z</time>
      </trkpt>
      <trkpt lat="49.86697" lon="2.32282">
        <ele>64.7</ele>
        <time>2024-01-12T14:29:40Z</time>
      </trkpt>
      <trkpt lat="49.86698" lon="2.32281">
        <ele>64.6</ele>
        <time>2024-01-12T14:29:41Z</time>
      </trkpt>
      <trkpt lat="49.86699" lon="2.32281">
        <ele>64.6</ele>
        <time>2024-01-12T14:29:42Z</time>
      </trkpt>
      <trkpt lat="49.867" lon="2.3228">
        <ele>64.6</ele>
        <time>2024-01-12T14:29:43Z</time>
      </trkpt>
      <trkpt lat="49.86701" lon="2.3228">
        <ele>64.6</ele>
        <time>2024-01-12T14:29:44Z</time>
      </trkpt>
      <trkpt lat="49.86702" lon="2.32279">
        <ele>64.5</ele>
        <time>2024-01-12T14:29:45Z</time>
      </trkpt>
      <trkpt lat="49.86703" lon="2.32278">
        <ele>64.5</ele>
        <time>2024-01-12T14:29:46Z</time>
      </trkpt>
      <trkpt lat="49.86704" lon="2.32278">
        <ele>64.5</ele>
        <time>2024-01-12T14:29:47Z</time>
      </trkpt>
      <trkpt lat="49.86705" lon="2.32277">
        <ele>64.5</ele>
        <time>2024-01-12T14:29:48Z</time>
      </trkpt>
      <trkpt lat="49.86706" lon="2.32277">
        <ele>64.5</ele>
        <time>2024-01-12T14:29:49Z</time>
      </trkpt>
      <trkpt lat="49.86707" lon="2.32276">
        <ele>64.4</ele>
        <time>2024-01-12T14:29:50Z</time>
      </trkpt>
      <trkpt lat="49.86708" lon="2.32276">
        <ele>64.4</ele>
        <time>2024-01-12T14:29:51Z</time>
      </trkpt>
      <trkpt lat="49.86709" lon="2.32275">
        <ele>64.4</ele>
        <time>2024-01-12T14:29:52Z</time>
      </trkpt>
      <trkpt lat="49.8671" lon="2.32275">
        <ele>64.4</ele>
        <time>2024-01-12T14:29:53Z</time>
      </trkpt>
      <trkpt lat="49.8671" lon="2.32274">
        <ele>64.3</ele>
        <time>2024-01-12T14:29:54Z</time>
      </trkpt>
      <trkpt lat="49.86711" lon="2.32274">
        <ele>64.3</ele>
        <time>2024-01-12T14:29:55Z</time>
      </trkpt>
      <trkpt lat="49.86712" lon="2.32273">
        <ele>64.3</ele>
        <time>2024-01-12T14:29:56Z</time>
      </trkpt>
      <trkpt lat="49.86713" lon="2.32273">
        <ele>64.3</ele>
        <time>2024-01-12T14:29:57Z</time>
      </trkpt>
      <trkpt lat="49.86714" lon="2.32272">
        <ele>64.2</ele>
        <time>2024-01-12T14:29:58Z</time>
      </trkpt>
      <trkpt lat="49.86715" lon="2.32271">
        <ele>64.2</ele>
        <time>2024-01-12T14:29:59Z</time>
      </trkpt>
      <trkpt lat="49.86717" lon="2.32271">
        <ele>64.2</ele>
        <time>2024-01-12T14:30:00Z</time>
      </trkpt>
      <trkpt lat="49.86719" lon="2.3227">
        <ele>64.1</ele>
        <time>2024-01-12T14:30:01Z</time>
      </trkpt>
      <trkpt lat="49.86719" lon="2.3227">
        <ele>64.1</ele>
        <time>2024-01-12T14:30:02Z</time>
      </trkpt>
      <trkpt lat="49.8672" lon="2.32269">
        <ele>64.1</ele>
        <time>2024-01-12T14:30:03Z</time>
      </trkpt>
      <trkpt lat="49.86722" lon="2.32269">
        <ele>64</ele>
        <time>2024-01-12T14:30:04Z</time>
      </trkpt>
      <trkpt lat="49.86723" lon="2.32268">
        <ele>64</ele>
        <time>2024-01-12T14:30:05Z</time>
      </trkpt>
      <trkpt lat="49.86724" lon="2.32268">
        <ele>64</ele>
        <time>2024-01-12T14:30:06Z</time>
      </trkpt>
      <trkpt lat="49.86725" lon="2.32268">
        <ele>64</ele>
        <time>2024-01-12T14:30:07Z</time>
      </trkpt>
      <trkpt lat="49.86726" lon="2.32267">
        <ele>63.9</ele>
        <time>2024-01-12T14:30:08Z</time>
      </trkpt>
      <trkpt lat="49.86727" lon="2.32267">
        <ele>63.9</ele>
        <time>2024-01-12T14:30:09Z</time>
      </trkpt>
      <trkpt lat="49.86728" lon="2.32267">
        <ele>63.9</ele>
        <time>2024-01-12T14:30:10Z</time>
      </trkpt>
      <trkpt lat="49.86729" lon="2.32267">
        <ele>63.9</ele>
        <time>2024-01-12T14:30:11Z</time>
      </trkpt>
      <trkpt lat="49.8673" lon="2.32266">
        <ele>63.8</ele>
        <time>2024-01-12T14:30:12Z</time>
      </trkpt>
      <trkpt lat="49.86731" lon="2.32266">
        <ele>63.8</ele>
        <time>2024-01-12T14:30:13Z</time>
      </trkpt>
      <trkpt lat="49.86732" lon="2.32265">
        <ele>63.8</ele>
        <time>2024-01-12T14:30:14Z</time>
      </trkpt>
      <trkpt lat="49.86733" lon="2.32264">
        <ele>63.8</ele>
        <time>2024-01-12T14:30:15Z</time>
      </trkpt>
      <trkpt lat="49.86734" lon="2.32263">
        <ele>63.7</ele>
        <time>2024-01-12T14:30:16Z</time>
      </trkpt>
      <trkpt lat="49.86734" lon="2.32261">
        <ele>63.7</ele>
        <time>2024-01-12T14:30:17Z</time>
      </trkpt>
      <trkpt lat="49.86735" lon="2.3226">
        <ele>63.7</ele>
        <time>2024-01-12T14:30:18Z</time>
      </trkpt>
      <trkpt lat="49.86735" lon="2.32259">
        <ele>63.7</ele>
        <time>2024-01-12T14:30:19Z</time>
      </trkpt>
      <trkpt lat="49.86736" lon="2.32258">
        <ele>63.6</ele>
        <time>2024-01-12T14:30:20Z</time>
      </trkpt>
      <trkpt lat="49.86736" lon="2.32257">
        <ele>63.6</ele>
        <time>2024-01-12T14:30:21Z</time>
      </trkpt>
      <trkpt lat="49.86737" lon="2.32256">
        <ele>63.6</ele>
        <time>2024-01-12T14:30:22Z</time>
      </trkpt>
      <trkpt lat="49.86738" lon="2.32255">
        <ele>63.6</ele>
        <time>2024-01-12T14:30:23Z</time>
      </trkpt>
      <trkpt lat="49.86738" lon="2.32254">
        <ele>63.6</ele>
        <time>2024-01-12T14:30:24Z</time>
      </trkpt>
      <trkpt lat="49.86739" lon="2.32253">
        <ele>63.6</ele>
        <time>2024-01-12T14:30:25Z</time>
      </trkpt>
      <trkpt lat="49.8674" lon="2.32252">
        <ele>63.5</ele>
        <time>2024-01-12T14:30:26Z</time>
      </trkpt>
      <trkpt lat="49.8674" lon="2.32251">
        <ele>63.5</ele>
        <time>2024-01-12T14:30:27Z</time>
      </trkpt>
      <trkpt lat="49.8674" lon="2.3225">
        <ele>63.5</ele>
        <time>2024-01-12T14:30:28Z</time>
      </trkpt>
      <trkpt lat="49.8674" lon="2.32249">
        <ele>63.5</ele>
        <time>2024-01-12T14:30:29Z</time>
      </trkpt>
      <trkpt lat="49.8674" lon="2.32248">
        <ele>63.5</ele>
        <time>2024-01-12T14:30:30Z</time>
      </trkpt>
      <trkpt lat="49.8674" lon="2.32248">
        <ele>63.5</ele>
        <time>2024-01-12T14:30:31Z</time>
      </trkpt>
      <trkpt lat="49.86741" lon="2.32248">
        <ele>63.5</ele>
        <time>2024-01-12T14:30:32Z</time>
      </trkpt>
      <trkpt lat="49.86741" lon="2.32249">
        <ele>63.5</ele>
        <time>2024-01-12T14:30:33Z</time>
      </trkpt>
      <trkpt lat="49.86741" lon="2.32251">
        <ele>63.5</ele>
        <time>2024-01-12T14:30:34Z</time>
      </trkpt>
      <trkpt lat="49.86742" lon="2.32251">
        <ele>63.5</ele>
        <time>2024-01-12T14:30:35Z</time>
      </trkpt>
      <trkpt lat="49.86742" lon="2.32251">
        <ele>63.5</ele>
        <time>2024-01-12T14:30:36Z</time>
      </trkpt>
      <trkpt lat="49.86742" lon="2.3225">
        <ele>63.5</ele>
        <time>2024-01-12T14:30:37Z</time>
      </trkpt>
      <trkpt lat="49.86742" lon="2.32249">
        <ele>63.5</ele>
        <time>2024-01-12T14:30:38Z</time>
      </trkpt>
      <trkpt lat="49.86742" lon="2.32248">
        <ele>63.5</ele>
        <time>2024-01-12T14:30:39Z</time>
      </trkpt>
      <trkpt lat="49.86741" lon="2.32247">
        <ele>63.5</ele>
        <time>2024-01-12T14:30:40Z</time>
      </trkpt>
      <trkpt lat="49.86741" lon="2.32246">
        <ele>63.5</ele>
        <time>2024-01-12T14:30:41Z</time>
      </trkpt>
      <trkpt lat="49.86741" lon="2.32245">
        <ele>63.5</ele>
        <time>2024-01-12T14:30:42Z</time>
      </trkpt>
      <trkpt lat="49.86741" lon="2.32244">
        <ele>63.5</ele>
        <time>2024-01-12T14:30:43Z</time>
      </trkpt>
      <trkpt lat="49.86741" lon="2.32243">
        <ele>63.5</ele>
        <time>2024-01-12T14:30:44Z</time>
      </trkpt>
      <trkpt lat="49.86741" lon="2.32242">
        <ele>63.5</ele>
        <time>2024-01-12T14:30:45Z</time>
      </trkpt>
      <trkpt lat="49.86741" lon="2.32241">
        <ele>63.5</ele>
        <time>2024-01-12T14:30:46Z</time>
      </trkpt>
      <trkpt lat="49.86741" lon="2.3224">
        <ele>63.5</ele>
        <time>2024-01-12T14:30:47Z</time>
      </trkpt>
      <trkpt lat="49.86741" lon="2.32238">
        <ele>63.5</ele>
        <time>2024-01-12T14:30:48Z</time>
      </trkpt>
      <trkpt lat="49.86741" lon="2.32237">
        <ele>63.5</ele>
        <time>2024-01-12T14:30:49Z</time>
      </trkpt>
      <trkpt lat="49.86741" lon="2.32236">
        <ele>63.4</ele>
        <time>2024-01-12T14:30:50Z</time>
      </trkpt>
      <trkpt lat="49.86741" lon="2.32234">
        <ele>63.4</ele>
        <time>2024-01-12T14:30:51Z</time>
      </trkpt>
      <trkpt lat="49.86741" lon="2.32233">
        <ele>63.4</ele>
        <time>2024-01-12T14:30:52Z</time>
      </trkpt>
      <trkpt lat="49.86742" lon="2.32231">
        <ele>63.4</ele>
        <time>2024-01-12T14:30:53Z</time>
      </trkpt>
      <trkpt lat="49.86742" lon="2.3223">
        <ele>63.4</ele>
        <time>2024-01-12T14:30:54Z</time>
      </trkpt>
      <trkpt lat="49.86742" lon="2.32228">
        <ele>63.4</ele>
        <time>2024-01-12T14:30:55Z</time>
      </trkpt>
      <trkpt lat="49.86742" lon="2.32227">
        <ele>63.4</ele>
        <time>2024-01-12T14:30:56Z</time>
      </trkpt>
      <trkpt lat="49.86742" lon="2.32225">
        <ele>63.4</ele>
        <time>2024-01-12T14:30:57Z</time>
      </trkpt>
      <trkpt lat="49.86742" lon="2.32224">
        <ele>63.4</ele>
        <time>2024-01-12T14:30:58Z</time>
      </trkpt>
      <trkpt lat="49.86742" lon="2.32223">
        <ele>63.4</ele>
        <time>2024-01-12T14:30:59Z</time>
      </trkpt>
      <trkpt lat="49.86742" lon="2.32222">
        <ele>63.4</ele>
        <time>2024-01-12T14:31:00Z</time>
      </trkpt>
      <trkpt lat="49.86742" lon="2.3222">
        <ele>63.4</ele>
        <time>2024-01-12T14:31:01Z</time>
      </trkpt>
      <trkpt lat="49.86742" lon="2.3222">
        <ele>63.4</ele>
        <time>2024-01-12T14:31:02Z</time>
      </trkpt>
      <trkpt lat="49.86742" lon="2.3222">
        <ele>63.3</ele>
        <time>2024-01-12T14:31:03Z</time>
      </trkpt>
      <trkpt lat="49.86743" lon="2.3222">
        <ele>63.3</ele>
        <time>2024-01-12T14:31:04Z</time>
      </trkpt>
      <trkpt lat="49.86744" lon="2.3222">
        <ele>63.3</ele>
        <time>2024-01-12T14:31:05Z</time>
      </trkpt>
      <trkpt lat="49.86744" lon="2.32221">
        <ele>63.3</ele>
        <time>2024-01-12T14:31:06Z</time>
      </trkpt>
      <trkpt lat="49.86745" lon="2.32222">
        <ele>63.3</ele>
        <time>2024-01-12T14:31:07Z</time>
      </trkpt>
      <trkpt lat="49.86745" lon="2.32222">
        <ele>63.3</ele>
        <time>2024-01-12T14:31:08Z</time>
      </trkpt>
      <trkpt lat="49.86745" lon="2.32221">
        <ele>63.3</ele>
        <time>2024-01-12T14:31:09Z</time>
      </trkpt>
      <trkpt lat="49.86745" lon="2.3222">
        <ele>63.3</ele>
        <time>2024-01-12T14:31:10Z</time>
      </trkpt>
      <trkpt lat="49.86745" lon="2.32219">
        <ele>63.3</ele>
        <time>2024-01-12T14:31:11Z</time>
      </trkpt>
      <trkpt lat="49.86745" lon="2.32218">
        <ele>63.3</ele>
        <time>2024-01-12T14:31:12Z</time>
      </trkpt>
      <trkpt lat="49.86745" lon="2.32218">
        <ele>63.3</ele>
        <time>2024-01-12T14:31:13Z</time>
      </trkpt>
      <trkpt lat="49.86744" lon="2.32217">
        <ele>63.3</ele>
        <time>2024-01-12T14:31:14Z</time>
      </trkpt>
      <trkpt lat="49.86744" lon="2.32216">
        <ele>63.3</ele>
        <time>2024-01-12T14:31:15Z</time>
      </trkpt>
      <trkpt lat="49.86744" lon="2.32215">
        <ele>63.3</ele>
        <time>2024-01-12T14:31:16Z</time>
      </trkpt>
      <trkpt lat="49.86744" lon="2.32215">
        <ele>63.3</ele>
        <time>2024-01-12T14:31:17Z</time>
      </trkpt>
      <trkpt lat="49.86744" lon="2.32214">
        <ele>63.3</ele>
        <time>2024-01-12T14:31:18Z</time>
      </trkpt>
      <trkpt lat="49.86744" lon="2.32213">
        <ele>63.3</ele>
        <time>2024-01-12T14:31:32Z</time>
      </trkpt>
      <trkpt lat="49.86744" lon="2.32212">
        <ele>63.3</ele>
        <time>2024-01-12T14:31:33Z</time>
      </trkpt>
      <trkpt lat="49.86744" lon="2.32212">
        <ele>63.3</ele>
        <time>2024-01-12T14:31:34Z</time>
      </trkpt>
      <trkpt lat="49.86744" lon="2.32211">
        <ele>63.3</ele>
        <time>2024-01-12T14:31:35Z</time>
      </trkpt>
      <trkpt lat="49.86745" lon="2.32208">
        <ele>63.3</ele>
        <time>2024-01-12T14:31:36Z</time>
      </trkpt>
      <trkpt lat="49.86745" lon="2.32206">
        <ele>63.2</ele>
        <time>2024-01-12T14:31:37Z</time>
      </trkpt>
      <trkpt lat="49.86745" lon="2.32205">
        <ele>63.2</ele>
        <time>2024-01-12T14:31:38Z</time>
      </trkpt>
      <trkpt lat="49.86745" lon="2.32203">
        <ele>63.2</ele>
        <time>2024-01-12T14:31:39Z</time>
      </trkpt>
      <trkpt lat="49.86745" lon="2.32202">
        <ele>63.2</ele>
        <time>2024-01-12T14:31:40Z</time>
      </trkpt>
      <trkpt lat="49.86745" lon="2.322">
        <ele>63.2</ele>
        <time>2024-01-12T14:31:41Z</time>
      </trkpt>
      <trkpt lat="49.86746" lon="2.32199">
        <ele>63.2</ele>
        <time>2024-01-12T14:31:42Z</time>
      </trkpt>
      <trkpt lat="49.86746" lon="2.32197">
        <ele>63.1</ele>
        <time>2024-01-12T14:31:43Z</time>
      </trkpt>
      <trkpt lat="49.86746" lon="2.32196">
        <ele>63.1</ele>
        <time>2024-01-12T14:31:44Z</time>
      </trkpt>
      <trkpt lat="49.86747" lon="2.32195">
        <ele>63.1</ele>
        <time>2024-01-12T14:31:45Z</time>
      </trkpt>
      <trkpt lat="49.86748" lon="2.32193">
        <ele>63.1</ele>
        <time>2024-01-12T14:31:46Z</time>
      </trkpt>
      <trkpt lat="49.86748" lon="2.32192">
        <ele>63.1</ele>
        <time>2024-01-12T14:31:47Z</time>
      </trkpt>
      <trkpt lat="49.86748" lon="2.32191">
        <ele>63.1</ele>
        <time>2024-01-12T14:31:48Z</time>
      </trkpt>
      <trkpt lat="49.86749" lon="2.3219">
        <ele>63.1</ele>
        <time>2024-01-12T14:31:49Z</time>
      </trkpt>
      <trkpt lat="49.86749" lon="2.32189">
        <ele>63</ele>
        <time>2024-01-12T14:31:50Z</time>
      </trkpt>
      <trkpt lat="49.86749" lon="2.32187">
        <ele>63</ele>
        <time>2024-01-12T14:31:51Z</time>
      </trkpt>
      <trkpt lat="49.8675" lon="2.32186">
        <ele>63</ele>
        <time>2024-01-12T14:31:52Z</time>
      </trkpt>
      <trkpt lat="49.8675" lon="2.32185">
        <ele>63</ele>
        <time>2024-01-12T14:31:53Z</time>
      </trkpt>
      <trkpt lat="49.8675" lon="2.32184">
        <ele>63</ele>
        <time>2024-01-12T14:31:54Z</time>
      </trkpt>
      <trkpt lat="49.86751" lon="2.32183">
        <ele>62.9</ele>
        <time>2024-01-12T14:31:55Z</time>
      </trkpt>
      <trkpt lat="49.86751" lon="2.3218">
        <ele>62.9</ele>
        <time>2024-01-12T14:31:56Z</time>
      </trkpt>
      <trkpt lat="49.86751" lon="2.32179">
        <ele>62.9</ele>
        <time>2024-01-12T14:31:57Z</time>
      </trkpt>
      <trkpt lat="49.86751" lon="2.32178">
        <ele>62.9</ele>
        <time>2024-01-12T14:31:58Z</time>
      </trkpt>
      <trkpt lat="49.86752" lon="2.32177">
        <ele>62.9</ele>
        <time>2024-01-12T14:31:59Z</time>
      </trkpt>
      <trkpt lat="49.86752" lon="2.32176">
        <ele>62.9</ele>
        <time>2024-01-12T14:32:00Z</time>
      </trkpt>
      <trkpt lat="49.86752" lon="2.32175">
        <ele>62.9</ele>
        <time>2024-01-12T14:32:01Z</time>
      </trkpt>
      <trkpt lat="49.86752" lon="2.32173">
        <ele>62.9</ele>
        <time>2024-01-12T14:32:02Z</time>
      </trkpt>
      <trkpt lat="49.86752" lon="2.32172">
        <ele>62.9</ele>
        <time>2024-01-12T14:32:03Z</time>
      </trkpt>
      <trkpt lat="49.86753" lon="2.32171">
        <ele>62.9</ele>
        <time>2024-01-12T14:32:04Z</time>
      </trkpt>
      <trkpt lat="49.86753" lon="2.32169">
        <ele>62.9</ele>
        <time>2024-01-12T14:32:05Z</time>
      </trkpt>
      <trkpt lat="49.86753" lon="2.32168">
        <ele>62.9</ele>
        <time>2024-01-12T14:32:06Z</time>
      </trkpt>
      <trkpt lat="49.86754" lon="2.32166">
        <ele>62.8</ele>
        <time>2024-01-12T14:32:07Z</time>
      </trkpt>
      <trkpt lat="49.86754" lon="2.32165">
        <ele>62.8</ele>
        <time>2024-01-12T14:32:08Z</time>
      </trkpt>
      <trkpt lat="49.86754" lon="2.32164">
        <ele>62.8</ele>
        <time>2024-01-12T14:32:09Z</time>
      </trkpt>
      <trkpt lat="49.86754" lon="2.32163">
        <ele>62.8</ele>
        <time>2024-01-12T14:32:10Z</time>
      </trkpt>
      <trkpt lat="49.86754" lon="2.32161">
        <ele>62.8</ele>
        <time>2024-01-12T14:32:11Z</time>
      </trkpt>
      <trkpt lat="49.86755" lon="2.3216">
        <ele>62.8</ele>
        <time>2024-01-12T14:32:12Z</time>
      </trkpt>
      <trkpt lat="49.86755" lon="2.32159">
        <ele>62.7</ele>
        <time>2024-01-12T14:32:13Z</time>
      </trkpt>
      <trkpt lat="49.86755" lon="2.32158">
        <ele>62.7</ele>
        <time>2024-01-12T14:32:14Z</time>
      </trkpt>
      <trkpt lat="49.86756" lon="2.32157">
        <ele>62.7</ele>
        <time>2024-01-12T14:32:15Z</time>
      </trkpt>
      <trkpt lat="49.86756" lon="2.32156">
        <ele>62.7</ele>
        <time>2024-01-12T14:32:16Z</time>
      </trkpt>
      <trkpt lat="49.86757" lon="2.32155">
        <ele>62.6</ele>
        <time>2024-01-12T14:32:17Z</time>
      </trkpt>
      <trkpt lat="49.86757" lon="2.32154">
        <ele>62.6</ele>
        <time>2024-01-12T14:32:18Z</time>
      </trkpt>
      <trkpt lat="49.86757" lon="2.32153">
        <ele>62.6</ele>
        <time>2024-01-12T14:32:19Z</time>
      </trkpt>
      <trkpt lat="49.86758" lon="2.32151">
        <ele>62.6</ele>
        <time>2024-01-12T14:32:20Z</time>
      </trkpt>
      <trkpt lat="49.86758" lon="2.3215">
        <ele>62.6</ele>
        <time>2024-01-12T14:32:21Z</time>
      </trkpt>
      <trkpt lat="49.86758" lon="2.32148">
        <ele>62.6</ele>
        <time>2024-01-12T14:32:22Z</time>
      </trkpt>
      <trkpt lat="49.86759" lon="2.32147">
        <ele>62.6</ele>
        <time>2024-01-12T14:32:23Z</time>
      </trkpt>
      <trkpt lat="49.86759" lon="2.32145">
        <ele>62.6</ele>
        <time>2024-01-12T14:32:24Z</time>
      </trkpt>
      <trkpt lat="49.86759" lon="2.32143">
        <ele>62.6</ele>
        <time>2024-01-12T14:32:25Z</time>
      </trkpt>
      <trkpt lat="49.86759" lon="2.32142">
        <ele>62.5</ele>
        <time>2024-01-12T14:32:26Z</time>
      </trkpt>
      <trkpt lat="49.86759" lon="2.3214">
        <ele>62.5</ele>
        <time>2024-01-12T14:32:27Z</time>
      </trkpt>
      <trkpt lat="49.8676" lon="2.32139">
        <ele>62.5</ele>
        <time>2024-01-12T14:32:28Z</time>
      </trkpt>
      <trkpt lat="49.8676" lon="2.32137">
        <ele>62.5</ele>
        <time>2024-01-12T14:32:29Z</time>
      </trkpt>
      <trkpt lat="49.8676" lon="2.32136">
        <ele>62.5</ele>
        <time>2024-01-12T14:32:30Z</time>
      </trkpt>
      <trkpt lat="49.8676" lon="2.32134">
        <ele>62.5</ele>
        <time>2024-01-12T14:32:31Z</time>
      </trkpt>
      <trkpt lat="49.8676" lon="2.32132">
        <ele>62.5</ele>
        <time>2024-01-12T14:32:32Z</time>
      </trkpt>
      <trkpt lat="49.86761" lon="2.32131">
        <ele>62.5</ele>
        <time>2024-01-12T14:32:33Z</time>
      </trkpt>
      <trkpt lat="49.86761" lon="2.32129">
        <ele>62.5</ele>
        <time>2024-01-12T14:32:34Z</time>
      </trkpt>
      <trkpt lat="49.86761" lon="2.32127">
        <ele>62.5</ele>
        <time>2024-01-12T14:32:35Z</time>
      </trkpt>
      <trkpt lat="49.86761" lon="2.32126">
        <ele>62.5</ele>
        <time>2024-01-12T14:32:36Z</time>
      </trkpt>
      <trkpt lat="49.86761" lon="2.32125">
        <ele>62.5</ele>
        <time>2024-01-12T14:32:37Z</time>
      </trkpt>
      <trkpt lat="49.86762" lon="2.32123">
        <ele>62.5</ele>
        <time>2024-01-12T14:32:38Z</time>
      </trkpt>
      <trkpt lat="49.86762" lon="2.32122">
        <ele>62.4</ele>
        <time>2024-01-12T14:32:39Z</time>
      </trkpt>
      <trkpt lat="49.86762" lon="2.3212">
        <ele>62.4</ele>
        <time>2024-01-12T14:32:40Z</time>
      </trkpt>
      <trkpt lat="49.86762" lon="2.32119">
        <ele>62.4</ele>
        <time>2024-01-12T14:32:41Z</time>
      </trkpt>
      <trkpt lat="49.86763" lon="2.32118">
        <ele>62.4</ele>
        <time>2024-01-12T14:32:42Z</time>
      </trkpt>
      <trkpt lat="49.86763" lon="2.32116">
        <ele>62.4</ele>
        <time>2024-01-12T14:32:43Z</time>
      </trkpt>
      <trkpt lat="49.86763" lon="2.32115">
        <ele>62.4</ele>
        <time>2024-01-12T14:32:44Z</time>
      </trkpt>
      <trkpt lat="49.86763" lon="2.32114">
        <ele>62.4</ele>
        <time>2024-01-12T14:32:45Z</time>
      </trkpt>
      <trkpt lat="49.86763" lon="2.32112">
        <ele>62.4</ele>
        <time>2024-01-12T14:32:46Z</time>
      </trkpt>
      <trkpt lat="49.86764" lon="2.32111">
        <ele>62.4</ele>
        <time>2024-01-12T14:32:47Z</time>
      </trkpt>
      <trkpt lat="49.86764" lon="2.32109">
        <ele>62.4</ele>
        <time>2024-01-12T14:32:48Z</time>
      </trkpt>
      <trkpt lat="49.86764" lon="2.32108">
        <ele>62.4</ele>
        <time>2024-01-12T14:32:49Z</time>
      </trkpt>
      <trkpt lat="49.86764" lon="2.32106">
        <ele>62.4</ele>
        <time>2024-01-12T14:32:50Z</time>
      </trkpt>
      <trkpt lat="49.86765" lon="2.32105">
        <ele>62.3</ele>
        <time>2024-01-12T14:32:51Z</time>
      </trkpt>
      <trkpt lat="49.86765" lon="2.32103">
        <ele>62.3</ele>
        <time>2024-01-12T14:32:52Z</time>
      </trkpt>
      <trkpt lat="49.86765" lon="2.32102">
        <ele>62.3</ele>
        <time>2024-01-12T14:32:53Z</time>
      </trkpt>
      <trkpt lat="49.86765" lon="2.32101">
        <ele>62.3</ele>
        <time>2024-01-12T14:32:54Z</time>
      </trkpt>
      <trkpt lat="49.86766" lon="2.32098">
        <ele>62.3</ele>
        <time>2024-01-12T14:32:55Z</time>
      </trkpt>
      <trkpt lat="49.86766" lon="2.32097">
        <ele>62.3</ele>
        <time>2024-01-12T14:32:56Z</time>
      </trkpt>
      <trkpt lat="49.86767" lon="2.32096">
        <ele>62.3</ele>
        <time>2024-01-12T14:32:57Z</time>
      </trkpt>
      <trkpt lat="49.86767" lon="2.32095">
        <ele>62.3</ele>
        <time>2024-01-12T14:32:58Z</time>
      </trkpt>
      <trkpt lat="49.86767" lon="2.32094">
        <ele>62.3</ele>
        <time>2024-01-12T14:32:59Z</time>
      </trkpt>
      <trkpt lat="49.86767" lon="2.32092">
        <ele>62.2</ele>
        <time>2024-01-12T14:33:00Z</time>
      </trkpt>
      <trkpt lat="49.86768" lon="2.32091">
        <ele>62.2</ele>
        <time>2024-01-12T14:33:01Z</time>
      </trkpt>
      <trkpt lat="49.86768" lon="2.32089">
        <ele>62.2</ele>
        <time>2024-01-12T14:33:02Z</time>
      </trkpt>
      <trkpt lat="49.86768" lon="2.32088">
        <ele>62.2</ele>
        <time>2024-01-12T14:33:03Z</time>
      </trkpt>
      <trkpt lat="49.86769" lon="2.32086">
        <ele>62.2</ele>
        <time>2024-01-12T14:33:04Z</time>
      </trkpt>
      <trkpt lat="49.86769" lon="2.32085">
        <ele>62.2</ele>
        <time>2024-01-12T14:33:05Z</time>
      </trkpt>
      <trkpt lat="49.8677" lon="2.32083">
        <ele>62.2</ele>
        <time>2024-01-12T14:33:06Z</time>
      </trkpt>
      <trkpt lat="49.8677" lon="2.32082">
        <ele>62.2</ele>
        <time>2024-01-12T14:33:07Z</time>
      </trkpt>
      <trkpt lat="49.8677" lon="2.3208">
        <ele>62.1</ele>
        <time>2024-01-12T14:33:08Z</time>
      </trkpt>
      <trkpt lat="49.8677" lon="2.32079">
        <ele>62.1</ele>
        <time>2024-01-12T14:33:09Z</time>
      </trkpt>
      <trkpt lat="49.86771" lon="2.32077">
        <ele>62.1</ele>
        <time>2024-01-12T14:33:10Z</time>
      </trkpt>
      <trkpt lat="49.86771" lon="2.32075">
        <ele>62.1</ele>
        <time>2024-01-12T14:33:11Z</time>
      </trkpt>
      <trkpt lat="49.86771" lon="2.32074">
        <ele>62.1</ele>
        <time>2024-01-12T14:33:12Z</time>
      </trkpt>
      <trkpt lat="49.86772" lon="2.32072">
        <ele>62.1</ele>
        <time>2024-01-12T14:33:13Z</time>
      </trkpt>
      <trkpt lat="49.86772" lon="2.32071">
        <ele>62.1</ele>
        <time>2024-01-12T14:33:14Z</time>
      </trkpt>
      <trkpt lat="49.86772" lon="2.32069">
        <ele>62.1</ele>
        <time>2024-01-12T14:33:15Z</time>
      </trkpt>
      <trkpt lat="49.86772" lon="2.32068">
        <ele>62.1</ele>
        <time>2024-01-12T14:33:16Z</time>
      </trkpt>
      <trkpt lat="49.86773" lon="2.32067">
        <ele>62.1</ele>
        <time>2024-01-12T14:33:17Z</time>
      </trkpt>
      <trkpt lat="49.86773" lon="2.32065">
        <ele>62.1</ele>
        <time>2024-01-12T14:33:18Z</time>
      </trkpt>
      <trkpt lat="49.86773" lon="2.32063">
        <ele>62</ele>
        <time>2024-01-12T14:33:19Z</time>
      </trkpt>
      <trkpt lat="49.86773" lon="2.32062">
        <ele>62</ele>
        <time>2024-01-12T14:33:20Z</time>
      </trkpt>
      <trkpt lat="49.86773" lon="2.3206">
        <ele>61.9</ele>
        <time>2024-01-12T14:33:21Z</time>
      </trkpt>
      <trkpt lat="49.86774" lon="2.32058">
        <ele>61.9</ele>
        <time>2024-01-12T14:33:22Z</time>
      </trkpt>
      <trkpt lat="49.86774" lon="2.32056">
        <ele>61.9</ele>
        <time>2024-01-12T14:33:23Z</time>
      </trkpt>
      <trkpt lat="49.86774" lon="2.32055">
        <ele>61.9</ele>
        <time>2024-01-12T14:33:24Z</time>
      </trkpt>
      <trkpt lat="49.86774" lon="2.32053">
        <ele>61.9</ele>
        <time>2024-01-12T14:33:25Z</time>
      </trkpt>
      <trkpt lat="49.86775" lon="2.32051">
        <ele>61.8</ele>
        <time>2024-01-12T14:33:26Z</time>
      </trkpt>
      <trkpt lat="49.86775" lon="2.3205">
        <ele>61.8</ele>
        <time>2024-01-12T14:33:27Z</time>
      </trkpt>
      <trkpt lat="49.86775" lon="2.32048">
        <ele>61.8</ele>
        <time>2024-01-12T14:33:28Z</time>
      </trkpt>
      <trkpt lat="49.86775" lon="2.32047">
        <ele>61.8</ele>
        <time>2024-01-12T14:33:29Z</time>
      </trkpt>
      <trkpt lat="49.86776" lon="2.32046">
        <ele>61.8</ele>
        <time>2024-01-12T14:33:30Z</time>
      </trkpt>
      <trkpt lat="49.86776" lon="2.32045">
        <ele>61.7</ele>
        <time>2024-01-12T14:33:31Z</time>
      </trkpt>
      <trkpt lat="49.86776" lon="2.32043">
        <ele>61.7</ele>
        <time>2024-01-12T14:33:32Z</time>
      </trkpt>
      <trkpt lat="49.86777" lon="2.32042">
        <ele>61.7</ele>
        <time>2024-01-12T14:33:33Z</time>
      </trkpt>
      <trkpt lat="49.86777" lon="2.3204">
        <ele>61.7</ele>
        <time>2024-01-12T14:33:34Z</time>
      </trkpt>
      <trkpt lat="49.86777" lon="2.32039">
        <ele>61.7</ele>
        <time>2024-01-12T14:33:35Z</time>
      </trkpt>
      <trkpt lat="49.86778" lon="2.32037">
        <ele>61.7</ele>
        <time>2024-01-12T14:33:36Z</time>
      </trkpt>
      <trkpt lat="49.86778" lon="2.32036">
        <ele>61.6</ele>
        <time>2024-01-12T14:33:37Z</time>
      </trkpt>
      <trkpt lat="49.86779" lon="2.32034">
        <ele>61.6</ele>
        <time>2024-01-12T14:33:38Z</time>
      </trkpt>
      <trkpt lat="49.86779" lon="2.32033">
        <ele>61.6</ele>
        <time>2024-01-12T14:33:39Z</time>
      </trkpt>
      <trkpt lat="49.8678" lon="2.32031">
        <ele>61.6</ele>
        <time>2024-01-12T14:33:40Z</time>
      </trkpt>
      <trkpt lat="49.8678" lon="2.3203">
        <ele>61.5</ele>
        <time>2024-01-12T14:33:41Z</time>
      </trkpt>
      <trkpt lat="49.8678" lon="2.32028">
        <ele>61.5</ele>
        <time>2024-01-12T14:33:42Z</time>
      </trkpt>
      <trkpt lat="49.8678" lon="2.32027">
        <ele>61.5</ele>
        <time>2024-01-12T14:33:43Z</time>
      </trkpt>
      <trkpt lat="49.8678" lon="2.32025">
        <ele>61.5</ele>
        <time>2024-01-12T14:33:44Z</time>
      </trkpt>
      <trkpt lat="49.86781" lon="2.32024">
        <ele>61.5</ele>
        <time>2024-01-12T14:33:45Z</time>
      </trkpt>
      <trkpt lat="49.86781" lon="2.32022">
        <ele>61.5</ele>
        <time>2024-01-12T14:33:46Z</time>
      </trkpt>
      <trkpt lat="49.86781" lon="2.3202">
        <ele>61.4</ele>
        <time>2024-01-12T14:33:47Z</time>
      </trkpt>
      <trkpt lat="49.86781" lon="2.32019">
        <ele>61.4</ele>
        <time>2024-01-12T14:33:48Z</time>
      </trkpt>
      <trkpt lat="49.86782" lon="2.32017">
        <ele>61.4</ele>
        <time>2024-01-12T14:33:49Z</time>
      </trkpt>
      <trkpt lat="49.86782" lon="2.32015">
        <ele>61.4</ele>
        <time>2024-01-12T14:33:50Z</time>
      </trkpt>
      <trkpt lat="49.86782" lon="2.32013">
        <ele>61.4</ele>
        <time>2024-01-12T14:33:51Z</time>
      </trkpt>
      <trkpt lat="49.86782" lon="2.32012">
        <ele>61.4</ele>
        <time>2024-01-12T14:33:52Z</time>
      </trkpt>
      <trkpt lat="49.86782" lon="2.32011">
        <ele>61.4</ele>
        <time>2024-01-12T14:33:53Z</time>
      </trkpt>
      <trkpt lat="49.86782" lon="2.3201">
        <ele>61.4</ele>
        <time>2024-01-12T14:33:54Z</time>
      </trkpt>
      <trkpt lat="49.86782" lon="2.32008">
        <ele>61.4</ele>
        <time>2024-01-12T14:33:55Z</time>
      </trkpt>
      <trkpt lat="49.86783" lon="2.32007">
        <ele>61.4</ele>
        <time>2024-01-12T14:33:56Z</time>
      </trkpt>
      <trkpt lat="49.86783" lon="2.32005">
        <ele>61.4</ele>
        <time>2024-01-12T14:33:57Z</time>
      </trkpt>
      <trkpt lat="49.86783" lon="2.32004">
        <ele>61.3</ele>
        <time>2024-01-12T14:33:58Z</time>
      </trkpt>
      <trkpt lat="49.86783" lon="2.32002">
        <ele>61.3</ele>
        <time>2024-01-12T14:33:59Z</time>
      </trkpt>
      <trkpt lat="49.86783" lon="2.32001">
        <ele>61.3</ele>
        <time>2024-01-12T14:34:00Z</time>
      </trkpt>
      <trkpt lat="49.86783" lon="2.31999">
        <ele>61.3</ele>
        <time>2024-01-12T14:34:01Z</time>
      </trkpt>
      <trkpt lat="49.86784" lon="2.31998">
        <ele>61.3</ele>
        <time>2024-01-12T14:34:02Z</time>
      </trkpt>
      <trkpt lat="49.86784" lon="2.31996">
        <ele>61.3</ele>
        <time>2024-01-12T14:34:03Z</time>
      </trkpt>
      <trkpt lat="49.86784" lon="2.31995">
        <ele>61.3</ele>
        <time>2024-01-12T14:34:04Z</time>
      </trkpt>
      <trkpt lat="49.86784" lon="2.31994">
        <ele>61.3</ele>
        <time>2024-01-12T14:34:05Z</time>
      </trkpt>
      <trkpt lat="49.86785" lon="2.31992">
        <ele>61.3</ele>
        <time>2024-01-12T14:34:06Z</time>
      </trkpt>
      <trkpt lat="49.86785" lon="2.31991">
        <ele>61.3</ele>
        <time>2024-01-12T14:34:07Z</time>
      </trkpt>
      <trkpt lat="49.86785" lon="2.31989">
        <ele>61.3</ele>
        <time>2024-01-12T14:34:08Z</time>
      </trkpt>
      <trkpt lat="49.86785" lon="2.31987">
        <ele>61.3</ele>
        <time>2024-01-12T14:34:09Z</time>
      </trkpt>
      <trkpt lat="49.86786" lon="2.31986">
        <ele>61.3</ele>
        <time>2024-01-12T14:34:10Z</time>
      </trkpt>
      <trkpt lat="49.86786" lon="2.31984">
        <ele>61.3</ele>
        <time>2024-01-12T14:34:11Z</time>
      </trkpt>
      <trkpt lat="49.86786" lon="2.31983">
        <ele>61.3</ele>
        <time>2024-01-12T14:34:12Z</time>
      </trkpt>
      <trkpt lat="49.86786" lon="2.31981">
        <ele>61.3</ele>
        <time>2024-01-12T14:34:13Z</time>
      </trkpt>
      <trkpt lat="49.86786" lon="2.3198">
        <ele>61.3</ele>
        <time>2024-01-12T14:34:14Z</time>
      </trkpt>
      <trkpt lat="49.86786" lon="2.31979">
        <ele>61.3</ele>
        <time>2024-01-12T14:34:15Z</time>
      </trkpt>
      <trkpt lat="49.86787" lon="2.31977">
        <ele>61.2</ele>
        <time>2024-01-12T14:34:16Z</time>
      </trkpt>
      <trkpt lat="49.86787" lon="2.31976">
        <ele>61.2</ele>
        <time>2024-01-12T14:34:17Z</time>
      </trkpt>
      <trkpt lat="49.86787" lon="2.31974">
        <ele>61.2</ele>
        <time>2024-01-12T14:34:18Z</time>
      </trkpt>
      <trkpt lat="49.86788" lon="2.31972">
        <ele>61.2</ele>
        <time>2024-01-12T14:34:19Z</time>
      </trkpt>
      <trkpt lat="49.86788" lon="2.31971">
        <ele>61.2</ele>
        <time>2024-01-12T14:34:20Z</time>
      </trkpt>
      <trkpt lat="49.86788" lon="2.31969">
        <ele>61.2</ele>
        <time>2024-01-12T14:34:21Z</time>
      </trkpt>
      <trkpt lat="49.86789" lon="2.31967">
        <ele>61.2</ele>
        <time>2024-01-12T14:34:22Z</time>
      </trkpt>
      <trkpt lat="49.86789" lon="2.31966">
        <ele>61.3</ele>
        <time>2024-01-12T14:34:23Z</time>
      </trkpt>
      <trkpt lat="49.8679" lon="2.31964">
        <ele>61.2</ele>
        <time>2024-01-12T14:34:24Z</time>
      </trkpt>
      <trkpt lat="49.8679" lon="2.31963">
        <ele>61.2</ele>
        <time>2024-01-12T14:34:25Z</time>
      </trkpt>
      <trkpt lat="49.86791" lon="2.31961">
        <ele>61.2</ele>
        <time>2024-01-12T14:34:26Z</time>
      </trkpt>
      <trkpt lat="49.86791" lon="2.3196">
        <ele>61.2</ele>
        <time>2024-01-12T14:34:27Z</time>
      </trkpt>
      <trkpt lat="49.86791" lon="2.31958">
        <ele>61.2</ele>
        <time>2024-01-12T14:34:28Z</time>
      </trkpt>
      <trkpt lat="49.86792" lon="2.31957">
        <ele>61.2</ele>
        <time>2024-01-12T14:34:29Z</time>
      </trkpt>
      <trkpt lat="49.86792" lon="2.31955">
        <ele>61.2</ele>
        <time>2024-01-12T14:34:30Z</time>
      </trkpt>
      <trkpt lat="49.86792" lon="2.31953">
        <ele>61.2</ele>
        <time>2024-01-12T14:34:31Z</time>
      </trkpt>
      <trkpt lat="49.86792" lon="2.31952">
        <ele>61.2</ele>
        <time>2024-01-12T14:34:32Z</time>
      </trkpt>
      <trkpt lat="49.86792" lon="2.3195">
        <ele>61.2</ele>
        <time>2024-01-12T14:34:33Z</time>
      </trkpt>
      <trkpt lat="49.86793" lon="2.31949">
        <ele>61.2</ele>
        <time>2024-01-12T14:34:34Z</time>
      </trkpt>
      <trkpt lat="49.86793" lon="2.31947">
        <ele>61.2</ele>
        <time>2024-01-12T14:34:35Z</time>
      </trkpt>
      <trkpt lat="49.86793" lon="2.31946">
        <ele>61.2</ele>
        <time>2024-01-12T14:34:36Z</time>
      </trkpt>
      <trkpt lat="49.86793" lon="2.31944">
        <ele>61.2</ele>
        <time>2024-01-12T14:34:37Z</time>
      </trkpt>
      <trkpt lat="49.86793" lon="2.31943">
        <ele>61.2</ele>
        <time>2024-01-12T14:34:38Z</time>
      </trkpt>
      <trkpt lat="49.86793" lon="2.31941">
        <ele>61.2</ele>
        <time>2024-01-12T14:34:39Z</time>
      </trkpt>
      <trkpt lat="49.86793" lon="2.31939">
        <ele>61.2</ele>
        <time>2024-01-12T14:34:40Z</time>
      </trkpt>
      <trkpt lat="49.86793" lon="2.31938">
        <ele>61.2</ele>
        <time>2024-01-12T14:34:41Z</time>
      </trkpt>
      <trkpt lat="49.86793" lon="2.31936">
        <ele>61.2</ele>
        <time>2024-01-12T14:34:42Z</time>
      </trkpt>
      <trkpt lat="49.86794" lon="2.31934">
        <ele>61.2</ele>
        <time>2024-01-12T14:34:43Z</time>
      </trkpt>
      <trkpt lat="49.86794" lon="2.31932">
        <ele>61.2</ele>
        <time>2024-01-12T14:34:44Z</time>
      </trkpt>
      <trkpt lat="49.86794" lon="2.31931">
        <ele>61.2</ele>
        <time>2024-01-12T14:34:45Z</time>
      </trkpt>
      <trkpt lat="49.86794" lon="2.3193">
        <ele>61.2</ele>
        <time>2024-01-12T14:34:46Z</time>
      </trkpt>
      <trkpt lat="49.86795" lon="2.31928">
        <ele>61.2</ele>
        <time>2024-01-12T14:34:47Z</time>
      </trkpt>
      <trkpt lat="49.86795" lon="2.31927">
        <ele>61.2</ele>
        <time>2024-01-12T14:34:48Z</time>
      </trkpt>
      <trkpt lat="49.86795" lon="2.31925">
        <ele>61.2</ele>
        <time>2024-01-12T14:34:49Z</time>
      </trkpt>
      <trkpt lat="49.86795" lon="2.31924">
        <ele>61.2</ele>
        <time>2024-01-12T14:34:50Z</time>
      </trkpt>
      <trkpt lat="49.86795" lon="2.31922">
        <ele>61.2</ele>
        <time>2024-01-12T14:34:51Z</time>
      </trkpt>
      <trkpt lat="49.86796" lon="2.31921">
        <ele>61.2</ele>
        <time>2024-01-12T14:34:52Z</time>
      </trkpt>
      <trkpt lat="49.86796" lon="2.31919">
        <ele>61.2</ele>
        <time>2024-01-12T14:34:53Z</time>
      </trkpt>
      <trkpt lat="49.86796" lon="2.31917">
        <ele>61.2</ele>
        <time>2024-01-12T14:34:54Z</time>
      </trkpt>
      <trkpt lat="49.86796" lon="2.31916">
        <ele>61.2</ele>
        <time>2024-01-12T14:34:55Z</time>
      </trkpt>
      <trkpt lat="49.86796" lon="2.31914">
        <ele>61.2</ele>
        <time>2024-01-12T14:34:56Z</time>
      </trkpt>
      <trkpt lat="49.86797" lon="2.31913">
        <ele>61.2</ele>
        <time>2024-01-12T14:34:57Z</time>
      </trkpt>
      <trkpt lat="49.86797" lon="2.31912">
        <ele>61.2</ele>
        <time>2024-01-12T14:34:58Z</time>
      </trkpt>
      <trkpt lat="49.86797" lon="2.3191">
        <ele>61.2</ele>
        <time>2024-01-12T14:34:59Z</time>
      </trkpt>
      <trkpt lat="49.86797" lon="2.31908">
        <ele>61.2</ele>
        <time>2024-01-12T14:35:00Z</time>
      </trkpt>
      <trkpt lat="49.86796" lon="2.31907">
        <ele>61.2</ele>
        <time>2024-01-12T14:35:01Z</time>
      </trkpt>
      <trkpt lat="49.86796" lon="2.31904">
        <ele>61.2</ele>
        <time>2024-01-12T14:35:02Z</time>
      </trkpt>
      <trkpt lat="49.86796" lon="2.31903">
        <ele>61.2</ele>
        <time>2024-01-12T14:35:03Z</time>
      </trkpt>
      <trkpt lat="49.86796" lon="2.31902">
        <ele>61.2</ele>
        <time>2024-01-12T14:35:04Z</time>
      </trkpt>
      <trkpt lat="49.86796" lon="2.31901">
        <ele>61.2</ele>
        <time>2024-01-12T14:35:05Z</time>
      </trkpt>
      <trkpt lat="49.86796" lon="2.319">
        <ele>61.2</ele>
        <time>2024-01-12T14:35:06Z</time>
      </trkpt>
      <trkpt lat="49.86796" lon="2.31898">
        <ele>61.2</ele>
        <time>2024-01-12T14:35:07Z</time>
      </trkpt>
      <trkpt lat="49.86796" lon="2.31896">
        <ele>61.2</ele>
        <time>2024-01-12T14:35:08Z</time>
      </trkpt>
      <trkpt lat="49.86797" lon="2.31895">
        <ele>61.2</ele>
        <time>2024-01-12T14:35:09Z</time>
      </trkpt>
      <trkpt lat="49.86797" lon="2.31893">
        <ele>61.2</ele>
        <time>2024-01-12T14:35:10Z</time>
      </trkpt>
      <trkpt lat="49.86797" lon="2.31891">
        <ele>61.2</ele>
        <time>2024-01-12T14:35:11Z</time>
      </trkpt>
      <trkpt lat="49.86797" lon="2.3189">
        <ele>61.2</ele>
        <time>2024-01-12T14:35:12Z</time>
      </trkpt>
      <trkpt lat="49.86797" lon="2.31888">
        <ele>61.3</ele>
        <time>2024-01-12T14:35:13Z</time>
      </trkpt>
      <trkpt lat="49.86798" lon="2.31887">
        <ele>61.2</ele>
        <time>2024-01-12T14:35:14Z</time>
      </trkpt>
      <trkpt lat="49.86798" lon="2.31885">
        <ele>61.2</ele>
        <time>2024-01-12T14:35:15Z</time>
      </trkpt>
      <trkpt lat="49.86799" lon="2.31884">
        <ele>61.2</ele>
        <time>2024-01-12T14:35:16Z</time>
      </trkpt>
      <trkpt lat="49.86799" lon="2.31883">
        <ele>61.2</ele>
        <time>2024-01-12T14:35:17Z</time>
      </trkpt>
      <trkpt lat="49.86799" lon="2.31881">
        <ele>61.2</ele>
        <time>2024-01-12T14:35:18Z</time>
      </trkpt>
      <trkpt lat="49.868" lon="2.3188">
        <ele>61.2</ele>
        <time>2024-01-12T14:35:19Z</time>
      </trkpt>
      <trkpt lat="49.868" lon="2.31878">
        <ele>61.2</ele>
        <time>2024-01-12T14:35:20Z</time>
      </trkpt>
      <trkpt lat="49.868" lon="2.31877">
        <ele>61.2</ele>
        <time>2024-01-12T14:35:21Z</time>
      </trkpt>
      <trkpt lat="49.86801" lon="2.31876">
        <ele>61.2</ele>
        <time>2024-01-12T14:35:22Z</time>
      </trkpt>
      <trkpt lat="49.86801" lon="2.31874">
        <ele>61.2</ele>
        <time>2024-01-12T14:35:23Z</time>
      </trkpt>
      <trkpt lat="49.86801" lon="2.31873">
        <ele>61.2</ele>
        <time>2024-01-12T14:35:24Z</time>
      </trkpt>
      <trkpt lat="49.86802" lon="2.31872">
        <ele>61.2</ele>
        <time>2024-01-12T14:35:25Z</time>
      </trkpt>
      <trkpt lat="49.86802" lon="2.3187">
        <ele>61.2</ele>
        <time>2024-01-12T14:35:26Z</time>
      </trkpt>
      <trkpt lat="49.86802" lon="2.31869">
        <ele>61.2</ele>
        <time>2024-01-12T14:35:27Z</time>
      </trkpt>
      <trkpt lat="49.86802" lon="2.31867">
        <ele>61.2</ele>
        <time>2024-01-12T14:35:28Z</time>
      </trkpt>
      <trkpt lat="49.86802" lon="2.31866">
        <ele>61.2</ele>
        <time>2024-01-12T14:35:29Z</time>
      </trkpt>
      <trkpt lat="49.86802" lon="2.31865">
        <ele>61.2</ele>
        <time>2024-01-12T14:35:30Z</time>
      </trkpt>
      <trkpt lat="49.86802" lon="2.31864">
        <ele>61.2</ele>
        <time>2024-01-12T14:35:31Z</time>
      </trkpt>
      <trkpt lat="49.86802" lon="2.31864">
        <ele>61.2</ele>
        <time>2024-01-12T14:35:32Z</time>
      </trkpt>
      <trkpt lat="49.86802" lon="2.31864">
        <ele>61.2</ele>
        <time>2024-01-12T14:35:33Z</time>
      </trkpt>
      <trkpt lat="49.86802" lon="2.31864">
        <ele>61.3</ele>
        <time>2024-01-12T14:35:34Z</time>
      </trkpt>
      <trkpt lat="49.86802" lon="2.31864">
        <ele>61.3</ele>
        <time>2024-01-12T14:35:35Z</time>
      </trkpt>
      <trkpt lat="49.86802" lon="2.31864">
        <ele>61.3</ele>
        <time>2024-01-12T14:35:36Z</time>
      </trkpt>
      <trkpt lat="49.86802" lon="2.31864">
        <ele>61.3</ele>
        <time>2024-01-12T14:35:37Z</time>
      </trkpt>
      <trkpt lat="49.86802" lon="2.31864">
        <ele>61.3</ele>
        <time>2024-01-12T14:35:38Z</time>
      </trkpt>
      <trkpt lat="49.86802" lon="2.31864">
        <ele>61.3</ele>
        <time>2024-01-12T14:35:39Z</time>
      </trkpt>
      <trkpt lat="49.86802" lon="2.31864">
        <ele>61.3</ele>
        <time>2024-01-12T14:35:40Z</time>
      </trkpt>
      <trkpt lat="49.86802" lon="2.31864">
        <ele>61.3</ele>
        <time>2024-01-12T14:35:41Z</time>
      </trkpt>
      <trkpt lat="49.86802" lon="2.31864">
        <ele>61.3</ele>
        <time>2024-01-12T14:35:42Z</time>
      </trkpt>
      <trkpt lat="49.86802" lon="2.31864">
        <ele>61.3</ele>
        <time>2024-01-12T14:35:43Z</time>
      </trkpt>
      <trkpt lat="49.86802" lon="2.31865">
        <ele>61.3</ele>
        <time>2024-01-12T14:35:44Z</time>
      </trkpt>
      <trkpt lat="49.86802" lon="2.31865">
        <ele>61.3</ele>
        <time>2024-01-12T14:35:45Z</time>
      </trkpt>
      <trkpt lat="49.86802" lon="2.31865">
        <ele>61.3</ele>
        <time>2024-01-12T14:35:46Z</time>
      </trkpt>
      <trkpt lat="49.86802" lon="2.31865">
        <ele>61.3</ele>
        <time>2024-01-12T14:35:47Z</time>
      </trkpt>
      <trkpt lat="49.86802" lon="2.31865">
        <ele>61.3</ele>
        <time>2024-01-12T14:35:48Z</time>
      </trkpt>
      <trkpt lat="49.86802" lon="2.31865">
        <ele>61.3</ele>
        <time>2024-01-12T14:35:49Z</time>
      </trkpt>
      <trkpt lat="49.86802" lon="2.31865">
        <ele>61.3</ele>
        <time>2024-01-12T14:35:50Z</time>
      </trkpt>
      <trkpt lat="49.86802" lon="2.31865">
        <ele>61.3</ele>
        <time>2024-01-12T14:35:52Z</time>
      </trkpt>
      <trkpt lat="49.86802" lon="2.31865">
        <ele>61.3</ele>
        <time>2024-01-12T14:35:53Z</time>
      </trkpt>
      <trkpt lat="49.86802" lon="2.31865">
        <ele>61.3</ele>
        <time>2024-01-12T14:35:54Z</time>
      </trkpt>
      <trkpt lat="49.86802" lon="2.31865">
        <ele>61.3</ele>
        <time>2024-01-12T14:35:55Z</time>
      </trkpt>
      <trkpt lat="49.86802" lon="2.31865">
        <ele>61.3</ele>
        <time>2024-01-12T14:35:56Z</time>
      </trkpt>
      <trkpt lat="49.86803" lon="2.3186">
        <ele>61.3</ele>
        <time>2024-01-12T14:38:06Z</time>
      </trkpt>
      <trkpt lat="49.86803" lon="2.31858">
        <ele>61.3</ele>
        <time>2024-01-12T14:38:07Z</time>
      </trkpt>
      <trkpt lat="49.86803" lon="2.31857">
        <ele>61.3</ele>
        <time>2024-01-12T14:38:08Z</time>
      </trkpt>
      <trkpt lat="49.86804" lon="2.31855">
        <ele>61.3</ele>
        <time>2024-01-12T14:38:09Z</time>
      </trkpt>
      <trkpt lat="49.86804" lon="2.31854">
        <ele>61.3</ele>
        <time>2024-01-12T14:38:10Z</time>
      </trkpt>
      <trkpt lat="49.86804" lon="2.31853">
        <ele>61.3</ele>
        <time>2024-01-12T14:38:11Z</time>
      </trkpt>
      <trkpt lat="49.86805" lon="2.31852">
        <ele>61.3</ele>
        <time>2024-01-12T14:38:12Z</time>
      </trkpt>
      <trkpt lat="49.86805" lon="2.3185">
        <ele>61.3</ele>
        <time>2024-01-12T14:38:13Z</time>
      </trkpt>
      <trkpt lat="49.86805" lon="2.31849">
        <ele>61.3</ele>
        <time>2024-01-12T14:38:14Z</time>
      </trkpt>
      <trkpt lat="49.86806" lon="2.31847">
        <ele>61.3</ele>
        <time>2024-01-12T14:38:15Z</time>
      </trkpt>
      <trkpt lat="49.86806" lon="2.31846">
        <ele>61.3</ele>
        <time>2024-01-12T14:38:16Z</time>
      </trkpt>
      <trkpt lat="49.86806" lon="2.31844">
        <ele>61.3</ele>
        <time>2024-01-12T14:38:17Z</time>
      </trkpt>
      <trkpt lat="49.86806" lon="2.31843">
        <ele>61.3</ele>
        <time>2024-01-12T14:38:18Z</time>
      </trkpt>
      <trkpt lat="49.86807" lon="2.31841">
        <ele>61.3</ele>
        <time>2024-01-12T14:38:19Z</time>
      </trkpt>
      <trkpt lat="49.86807" lon="2.3184">
        <ele>61.3</ele>
        <time>2024-01-12T14:38:20Z</time>
      </trkpt>
      <trkpt lat="49.86807" lon="2.31839">
        <ele>61.3</ele>
        <time>2024-01-12T14:38:21Z</time>
      </trkpt>
      <trkpt lat="49.86808" lon="2.31837">
        <ele>61.3</ele>
        <time>2024-01-12T14:38:22Z</time>
      </trkpt>
      <trkpt lat="49.86808" lon="2.31836">
        <ele>61.3</ele>
        <time>2024-01-12T14:38:23Z</time>
      </trkpt>
      <trkpt lat="49.86808" lon="2.31834">
        <ele>61.3</ele>
        <time>2024-01-12T14:38:24Z</time>
      </trkpt>
      <trkpt lat="49.86808" lon="2.31832">
        <ele>61.3</ele>
        <time>2024-01-12T14:38:25Z</time>
      </trkpt>
      <trkpt lat="49.86808" lon="2.31831">
        <ele>61.3</ele>
        <time>2024-01-12T14:38:26Z</time>
      </trkpt>
      <trkpt lat="49.86808" lon="2.31829">
        <ele>61.3</ele>
        <time>2024-01-12T14:38:27Z</time>
      </trkpt>
      <trkpt lat="49.86808" lon="2.31827">
        <ele>61.3</ele>
        <time>2024-01-12T14:38:28Z</time>
      </trkpt>
      <trkpt lat="49.86809" lon="2.31826">
        <ele>61.3</ele>
        <time>2024-01-12T14:38:29Z</time>
      </trkpt>
      <trkpt lat="49.86809" lon="2.31824">
        <ele>61.3</ele>
        <time>2024-01-12T14:38:30Z</time>
      </trkpt>
      <trkpt lat="49.86809" lon="2.31823">
        <ele>61.3</ele>
        <time>2024-01-12T14:38:31Z</time>
      </trkpt>
      <trkpt lat="49.86809" lon="2.31821">
        <ele>61.3</ele>
        <time>2024-01-12T14:38:32Z</time>
      </trkpt>
      <trkpt lat="49.86809" lon="2.3182">
        <ele>61.3</ele>
        <time>2024-01-12T14:38:33Z</time>
      </trkpt>
      <trkpt lat="49.86809" lon="2.31819">
        <ele>61.3</ele>
        <time>2024-01-12T14:38:34Z</time>
      </trkpt>
      <trkpt lat="49.86809" lon="2.31817">
        <ele>61.3</ele>
        <time>2024-01-12T14:38:35Z</time>
      </trkpt>
      <trkpt lat="49.86809" lon="2.31816">
        <ele>61.3</ele>
        <time>2024-01-12T14:38:36Z</time>
      </trkpt>
      <trkpt lat="49.86809" lon="2.31815">
        <ele>61.3</ele>
        <time>2024-01-12T14:38:37Z</time>
      </trkpt>
      <trkpt lat="49.86809" lon="2.31813">
        <ele>61.3</ele>
        <time>2024-01-12T14:38:38Z</time>
      </trkpt>
      <trkpt lat="49.8681" lon="2.31812">
        <ele>61.3</ele>
        <time>2024-01-12T14:38:39Z</time>
      </trkpt>
      <trkpt lat="49.8681" lon="2.3181">
        <ele>61.3</ele>
        <time>2024-01-12T14:38:40Z</time>
      </trkpt>
      <trkpt lat="49.86809" lon="2.31809">
        <ele>61.3</ele>
        <time>2024-01-12T14:38:41Z</time>
      </trkpt>
      <trkpt lat="49.8681" lon="2.31808">
        <ele>61.3</ele>
        <time>2024-01-12T14:38:42Z</time>
      </trkpt>
      <trkpt lat="49.8681" lon="2.31806">
        <ele>61.3</ele>
        <time>2024-01-12T14:38:44Z</time>
      </trkpt>
      <trkpt lat="49.86809" lon="2.31806">
        <ele>61.3</ele>
        <time>2024-01-12T14:38:45Z</time>
      </trkpt>
      <trkpt lat="49.86809" lon="2.31804">
        <ele>61.3</ele>
        <time>2024-01-12T14:38:46Z</time>
      </trkpt>
      <trkpt lat="49.86809" lon="2.31803">
        <ele>61.3</ele>
        <time>2024-01-12T14:38:47Z</time>
      </trkpt>
      <trkpt lat="49.86809" lon="2.31801">
        <ele>61.3</ele>
        <time>2024-01-12T14:38:48Z</time>
      </trkpt>
      <trkpt lat="49.86808" lon="2.31798">
        <ele>61.3</ele>
        <time>2024-01-12T14:38:50Z</time>
      </trkpt>
      <trkpt lat="49.86808" lon="2.31796">
        <ele>61.3</ele>
        <time>2024-01-12T14:38:51Z</time>
      </trkpt>
      <trkpt lat="49.86808" lon="2.31794">
        <ele>61.3</ele>
        <time>2024-01-12T14:38:52Z</time>
      </trkpt>
      <trkpt lat="49.86809" lon="2.31793">
        <ele>61.3</ele>
        <time>2024-01-12T14:38:53Z</time>
      </trkpt>
      <trkpt lat="49.86809" lon="2.31791">
        <ele>61.3</ele>
        <time>2024-01-12T14:38:54Z</time>
      </trkpt>
      <trkpt lat="49.86809" lon="2.3179">
        <ele>61.3</ele>
        <time>2024-01-12T14:38:55Z</time>
      </trkpt>
      <trkpt lat="49.86809" lon="2.31789">
        <ele>61.3</ele>
        <time>2024-01-12T14:38:56Z</time>
      </trkpt>
      <trkpt lat="49.86809" lon="2.31788">
        <ele>61.3</ele>
        <time>2024-01-12T14:38:57Z</time>
      </trkpt>
      <trkpt lat="49.86809" lon="2.31786">
        <ele>61.3</ele>
        <time>2024-01-12T14:38:58Z</time>
      </trkpt>
      <trkpt lat="49.86809" lon="2.31785">
        <ele>61.3</ele>
        <time>2024-01-12T14:38:59Z</time>
      </trkpt>
      <trkpt lat="49.86809" lon="2.31783">
        <ele>61.3</ele>
        <time>2024-01-12T14:39:00Z</time>
      </trkpt>
      <trkpt lat="49.86809" lon="2.31782">
        <ele>61.3</ele>
        <time>2024-01-12T14:39:01Z</time>
      </trkpt>
      <trkpt lat="49.8681" lon="2.31781">
        <ele>61.3</ele>
        <time>2024-01-12T14:39:02Z</time>
      </trkpt>
      <trkpt lat="49.8681" lon="2.31779">
        <ele>61.3</ele>
        <time>2024-01-12T14:39:03Z</time>
      </trkpt>
      <trkpt lat="49.86811" lon="2.31777">
        <ele>61.3</ele>
        <time>2024-01-12T14:39:04Z</time>
      </trkpt>
      <trkpt lat="49.86811" lon="2.31776">
        <ele>61.3</ele>
        <time>2024-01-12T14:39:05Z</time>
      </trkpt>
      <trkpt lat="49.86811" lon="2.31775">
        <ele>61.3</ele>
        <time>2024-01-12T14:39:06Z</time>
      </trkpt>
      <trkpt lat="49.86811" lon="2.31773">
        <ele>61.3</ele>
        <time>2024-01-12T14:39:07Z</time>
      </trkpt>
      <trkpt lat="49.86812" lon="2.31772">
        <ele>61.3</ele>
        <time>2024-01-12T14:39:08Z</time>
      </trkpt>
      <trkpt lat="49.86812" lon="2.3177">
        <ele>61.3</ele>
        <time>2024-01-12T14:39:09Z</time>
      </trkpt>
      <trkpt lat="49.86812" lon="2.31768">
        <ele>61.3</ele>
        <time>2024-01-12T14:39:10Z</time>
      </trkpt>
      <trkpt lat="49.86812" lon="2.31767">
        <ele>61.3</ele>
        <time>2024-01-12T14:39:11Z</time>
      </trkpt>
      <trkpt lat="49.86812" lon="2.31765">
        <ele>61.3</ele>
        <time>2024-01-12T14:39:12Z</time>
      </trkpt>
      <trkpt lat="49.86812" lon="2.31764">
        <ele>61.3</ele>
        <time>2024-01-12T14:39:13Z</time>
      </trkpt>
      <trkpt lat="49.86812" lon="2.31763">
        <ele>61.3</ele>
        <time>2024-01-12T14:39:14Z</time>
      </trkpt>
      <trkpt lat="49.86812" lon="2.31761">
        <ele>61.3</ele>
        <time>2024-01-12T14:39:15Z</time>
      </trkpt>
      <trkpt lat="49.86812" lon="2.3176">
        <ele>61.3</ele>
        <time>2024-01-12T14:39:16Z</time>
      </trkpt>
      <trkpt lat="49.86812" lon="2.31759">
        <ele>61.3</ele>
        <time>2024-01-12T14:39:17Z</time>
      </trkpt>
      <trkpt lat="49.86812" lon="2.31756">
        <ele>61.3</ele>
        <time>2024-01-12T14:39:19Z</time>
      </trkpt>
      <trkpt lat="49.86812" lon="2.31755">
        <ele>61.3</ele>
        <time>2024-01-12T14:39:20Z</time>
      </trkpt>
      <trkpt lat="49.86812" lon="2.31753">
        <ele>61.3</ele>
        <time>2024-01-12T14:39:21Z</time>
      </trkpt>
      <trkpt lat="49.86813" lon="2.31752">
        <ele>61.3</ele>
        <time>2024-01-12T14:39:22Z</time>
      </trkpt>
      <trkpt lat="49.86813" lon="2.3175">
        <ele>61.3</ele>
        <time>2024-01-12T14:39:23Z</time>
      </trkpt>
      <trkpt lat="49.86813" lon="2.31749">
        <ele>61.3</ele>
        <time>2024-01-12T14:39:24Z</time>
      </trkpt>
      <trkpt lat="49.86813" lon="2.31747">
        <ele>61.3</ele>
        <time>2024-01-12T14:39:25Z</time>
      </trkpt>
      <trkpt lat="49.86813" lon="2.31745">
        <ele>61.3</ele>
        <time>2024-01-12T14:39:26Z</time>
      </trkpt>
      <trkpt lat="49.86813" lon="2.31744">
        <ele>61.3</ele>
        <time>2024-01-12T14:39:27Z</time>
      </trkpt>
      <trkpt lat="49.86813" lon="2.31742">
        <ele>61.3</ele>
        <time>2024-01-12T14:39:28Z</time>
      </trkpt>
      <trkpt lat="49.86813" lon="2.31741">
        <ele>61.3</ele>
        <time>2024-01-12T14:39:29Z</time>
      </trkpt>
      <trkpt lat="49.86813" lon="2.31739">
        <ele>61.3</ele>
        <time>2024-01-12T14:39:30Z</time>
      </trkpt>
      <trkpt lat="49.86813" lon="2.31738">
        <ele>61.3</ele>
        <time>2024-01-12T14:39:31Z</time>
      </trkpt>
      <trkpt lat="49.86814" lon="2.31736">
        <ele>61.3</ele>
        <time>2024-01-12T14:39:32Z</time>
      </trkpt>
      <trkpt lat="49.86814" lon="2.31734">
        <ele>61.3</ele>
        <time>2024-01-12T14:39:33Z</time>
      </trkpt>
      <trkpt lat="49.86814" lon="2.31733">
        <ele>61.3</ele>
        <time>2024-01-12T14:39:34Z</time>
      </trkpt>
      <trkpt lat="49.86814" lon="2.31731">
        <ele>61.3</ele>
        <time>2024-01-12T14:39:35Z</time>
      </trkpt>
      <trkpt lat="49.86815" lon="2.3173">
        <ele>61.3</ele>
        <time>2024-01-12T14:39:36Z</time>
      </trkpt>
      <trkpt lat="49.86815" lon="2.31728">
        <ele>61.3</ele>
        <time>2024-01-12T14:39:37Z</time>
      </trkpt>
      <trkpt lat="49.86815" lon="2.31727">
        <ele>61.3</ele>
        <time>2024-01-12T14:39:38Z</time>
      </trkpt>
      <trkpt lat="49.86816" lon="2.31725">
        <ele>61.3</ele>
        <time>2024-01-12T14:39:39Z</time>
      </trkpt>
      <trkpt lat="49.86816" lon="2.31723">
        <ele>61.3</ele>
        <time>2024-01-12T14:39:40Z</time>
      </trkpt>
      <trkpt lat="49.86816" lon="2.31722">
        <ele>61.3</ele>
        <time>2024-01-12T14:39:41Z</time>
      </trkpt>
      <trkpt lat="49.86816" lon="2.3172">
        <ele>61.3</ele>
        <time>2024-01-12T14:39:42Z</time>
      </trkpt>
      <trkpt lat="49.86816" lon="2.31718">
        <ele>61.3</ele>
        <time>2024-01-12T14:39:43Z</time>
      </trkpt>
      <trkpt lat="49.86817" lon="2.31717">
        <ele>61.3</ele>
        <time>2024-01-12T14:39:44Z</time>
      </trkpt>
      <trkpt lat="49.86817" lon="2.31716">
        <ele>61.3</ele>
        <time>2024-01-12T14:39:45Z</time>
      </trkpt>
      <trkpt lat="49.86817" lon="2.31714">
        <ele>61.3</ele>
        <time>2024-01-12T14:39:46Z</time>
      </trkpt>
      <trkpt lat="49.86817" lon="2.31713">
        <ele>61.3</ele>
        <time>2024-01-12T14:39:47Z</time>
      </trkpt>
      <trkpt lat="49.86818" lon="2.31711">
        <ele>61.3</ele>
        <time>2024-01-12T14:39:48Z</time>
      </trkpt>
      <trkpt lat="49.86818" lon="2.31709">
        <ele>61.3</ele>
        <time>2024-01-12T14:39:49Z</time>
      </trkpt>
      <trkpt lat="49.86818" lon="2.31708">
        <ele>61.3</ele>
        <time>2024-01-12T14:39:50Z</time>
      </trkpt>
      <trkpt lat="49.86819" lon="2.31706">
        <ele>61.3</ele>
        <time>2024-01-12T14:39:51Z</time>
      </trkpt>
      <trkpt lat="49.86819" lon="2.31705">
        <ele>61.3</ele>
        <time>2024-01-12T14:39:52Z</time>
      </trkpt>
      <trkpt lat="49.86819" lon="2.31703">
        <ele>61.3</ele>
        <time>2024-01-12T14:39:53Z</time>
      </trkpt>
      <trkpt lat="49.8682" lon="2.31702">
        <ele>61.3</ele>
        <time>2024-01-12T14:39:54Z</time>
      </trkpt>
      <trkpt lat="49.8682" lon="2.31701">
        <ele>61.3</ele>
        <time>2024-01-12T14:39:55Z</time>
      </trkpt>
      <trkpt lat="49.8682" lon="2.31699">
        <ele>61.3</ele>
        <time>2024-01-12T14:39:56Z</time>
      </trkpt>
      <trkpt lat="49.8682" lon="2.31698">
        <ele>61.3</ele>
        <time>2024-01-12T14:39:57Z</time>
      </trkpt>
      <trkpt lat="49.86821" lon="2.31697">
        <ele>61.3</ele>
        <time>2024-01-12T14:39:58Z</time>
      </trkpt>
      <trkpt lat="49.86821" lon="2.31695">
        <ele>61.3</ele>
        <time>2024-01-12T14:39:59Z</time>
      </trkpt>
      <trkpt lat="49.86821" lon="2.31694">
        <ele>61.3</ele>
        <time>2024-01-12T14:40:00Z</time>
      </trkpt>
      <trkpt lat="49.86822" lon="2.31692">
        <ele>61.3</ele>
        <time>2024-01-12T14:40:01Z</time>
      </trkpt>
      <trkpt lat="49.86822" lon="2.31691">
        <ele>61.3</ele>
        <time>2024-01-12T14:40:02Z</time>
      </trkpt>
      <trkpt lat="49.86822" lon="2.31689">
        <ele>61.3</ele>
        <time>2024-01-12T14:40:03Z</time>
      </trkpt>
      <trkpt lat="49.86823" lon="2.31688">
        <ele>61.3</ele>
        <time>2024-01-12T14:40:04Z</time>
      </trkpt>
      <trkpt lat="49.86823" lon="2.31686">
        <ele>61.3</ele>
        <time>2024-01-12T14:40:05Z</time>
      </trkpt>
      <trkpt lat="49.86824" lon="2.31685">
        <ele>61.3</ele>
        <time>2024-01-12T14:40:06Z</time>
      </trkpt>
      <trkpt lat="49.86825" lon="2.31684">
        <ele>61.3</ele>
        <time>2024-01-12T14:40:07Z</time>
      </trkpt>
      <trkpt lat="49.86826" lon="2.31684">
        <ele>61.3</ele>
        <time>2024-01-12T14:40:08Z</time>
      </trkpt>
      <trkpt lat="49.86827" lon="2.31683">
        <ele>61.3</ele>
        <time>2024-01-12T14:40:09Z</time>
      </trkpt>
      <trkpt lat="49.86827" lon="2.31681">
        <ele>61.3</ele>
        <time>2024-01-12T14:40:10Z</time>
      </trkpt>
      <trkpt lat="49.86828" lon="2.3168">
        <ele>61.3</ele>
        <time>2024-01-12T14:40:11Z</time>
      </trkpt>
      <trkpt lat="49.86828" lon="2.31679">
        <ele>61.3</ele>
        <time>2024-01-12T14:40:12Z</time>
      </trkpt>
      <trkpt lat="49.86829" lon="2.31678">
        <ele>61.3</ele>
        <time>2024-01-12T14:40:13Z</time>
      </trkpt>
      <trkpt lat="49.86829" lon="2.31676">
        <ele>61.3</ele>
        <time>2024-01-12T14:40:14Z</time>
      </trkpt>
      <trkpt lat="49.86829" lon="2.31675">
        <ele>61.3</ele>
        <time>2024-01-12T14:40:15Z</time>
      </trkpt>
      <trkpt lat="49.8683" lon="2.31673">
        <ele>61.3</ele>
        <time>2024-01-12T14:40:16Z</time>
      </trkpt>
      <trkpt lat="49.8683" lon="2.31672">
        <ele>61.3</ele>
        <time>2024-01-12T14:40:17Z</time>
      </trkpt>
      <trkpt lat="49.8683" lon="2.3167">
        <ele>61.3</ele>
        <time>2024-01-12T14:40:18Z</time>
      </trkpt>
      <trkpt lat="49.8683" lon="2.31669">
        <ele>61.3</ele>
        <time>2024-01-12T14:40:19Z</time>
      </trkpt>
      <trkpt lat="49.8683" lon="2.31667">
        <ele>61.3</ele>
        <time>2024-01-12T14:40:20Z</time>
      </trkpt>
      <trkpt lat="49.8683" lon="2.31666">
        <ele>61.3</ele>
        <time>2024-01-12T14:40:21Z</time>
      </trkpt>
      <trkpt lat="49.8683" lon="2.31664">
        <ele>61.3</ele>
        <time>2024-01-12T14:40:22Z</time>
      </trkpt>
      <trkpt lat="49.8683" lon="2.31663">
        <ele>61.3</ele>
        <time>2024-01-12T14:40:23Z</time>
      </trkpt>
      <trkpt lat="49.8683" lon="2.31661">
        <ele>61.4</ele>
        <time>2024-01-12T14:40:24Z</time>
      </trkpt>
      <trkpt lat="49.8683" lon="2.3166">
        <ele>61.4</ele>
        <time>2024-01-12T14:40:25Z</time>
      </trkpt>
      <trkpt lat="49.8683" lon="2.31658">
        <ele>61.4</ele>
        <time>2024-01-12T14:40:26Z</time>
      </trkpt>
      <trkpt lat="49.8683" lon="2.31656">
        <ele>61.4</ele>
        <time>2024-01-12T14:40:27Z</time>
      </trkpt>
      <trkpt lat="49.8683" lon="2.31654">
        <ele>61.4</ele>
        <time>2024-01-12T14:40:28Z</time>
      </trkpt>
      <trkpt lat="49.8683" lon="2.31653">
        <ele>61.4</ele>
        <time>2024-01-12T14:40:29Z</time>
      </trkpt>
      <trkpt lat="49.8683" lon="2.31651">
        <ele>61.4</ele>
        <time>2024-01-12T14:40:30Z</time>
      </trkpt>
      <trkpt lat="49.8683" lon="2.31649">
        <ele>61.4</ele>
        <time>2024-01-12T14:40:31Z</time>
      </trkpt>
      <trkpt lat="49.8683" lon="2.31648">
        <ele>61.4</ele>
        <time>2024-01-12T14:40:32Z</time>
      </trkpt>
      <trkpt lat="49.8683" lon="2.31647">
        <ele>61.4</ele>
        <time>2024-01-12T14:40:33Z</time>
      </trkpt>
      <trkpt lat="49.8683" lon="2.31645">
        <ele>61.4</ele>
        <time>2024-01-12T14:40:34Z</time>
      </trkpt>
      <trkpt lat="49.8683" lon="2.31643">
        <ele>61.4</ele>
        <time>2024-01-12T14:40:35Z</time>
      </trkpt>
      <trkpt lat="49.8683" lon="2.31642">
        <ele>61.4</ele>
        <time>2024-01-12T14:40:36Z</time>
      </trkpt>
      <trkpt lat="49.86831" lon="2.3164">
        <ele>61.4</ele>
        <time>2024-01-12T14:40:37Z</time>
      </trkpt>
      <trkpt lat="49.86831" lon="2.31638">
        <ele>61.4</ele>
        <time>2024-01-12T14:40:38Z</time>
      </trkpt>
      <trkpt lat="49.86831" lon="2.31637">
        <ele>61.4</ele>
        <time>2024-01-12T14:40:39Z</time>
      </trkpt>
      <trkpt lat="49.86831" lon="2.31635">
        <ele>61.4</ele>
        <time>2024-01-12T14:40:40Z</time>
      </trkpt>
      <trkpt lat="49.86831" lon="2.31634">
        <ele>61.4</ele>
        <time>2024-01-12T14:40:41Z</time>
      </trkpt>
      <trkpt lat="49.86831" lon="2.31632">
        <ele>61.4</ele>
        <time>2024-01-12T14:40:42Z</time>
      </trkpt>
      <trkpt lat="49.86831" lon="2.31631">
        <ele>61.5</ele>
        <time>2024-01-12T14:40:43Z</time>
      </trkpt>
      <trkpt lat="49.86831" lon="2.31629">
        <ele>61.5</ele>
        <time>2024-01-12T14:40:44Z</time>
      </trkpt>
      <trkpt lat="49.86831" lon="2.31628">
        <ele>61.5</ele>
        <time>2024-01-12T14:40:45Z</time>
      </trkpt>
      <trkpt lat="49.86832" lon="2.31626">
        <ele>61.5</ele>
        <time>2024-01-12T14:40:46Z</time>
      </trkpt>
      <trkpt lat="49.86832" lon="2.31625">
        <ele>61.5</ele>
        <time>2024-01-12T14:40:47Z</time>
      </trkpt>
      <trkpt lat="49.86832" lon="2.31623">
        <ele>61.5</ele>
        <time>2024-01-12T14:40:48Z</time>
      </trkpt>
      <trkpt lat="49.86832" lon="2.31622">
        <ele>61.5</ele>
        <time>2024-01-12T14:40:49Z</time>
      </trkpt>
      <trkpt lat="49.86832" lon="2.31621">
        <ele>61.5</ele>
        <time>2024-01-12T14:40:50Z</time>
      </trkpt>
      <trkpt lat="49.86832" lon="2.31619">
        <ele>61.5</ele>
        <time>2024-01-12T14:40:51Z</time>
      </trkpt>
      <trkpt lat="49.86832" lon="2.31618">
        <ele>61.5</ele>
        <time>2024-01-12T14:40:52Z</time>
      </trkpt>
      <trkpt lat="49.86833" lon="2.31616">
        <ele>61.5</ele>
        <time>2024-01-12T14:40:53Z</time>
      </trkpt>
      <trkpt lat="49.86832" lon="2.31614">
        <ele>61.5</ele>
        <time>2024-01-12T14:40:54Z</time>
      </trkpt>
      <trkpt lat="49.86832" lon="2.31613">
        <ele>61.5</ele>
        <time>2024-01-12T14:40:55Z</time>
      </trkpt>
      <trkpt lat="49.86832" lon="2.31611">
        <ele>61.5</ele>
        <time>2024-01-12T14:40:56Z</time>
      </trkpt>
      <trkpt lat="49.86832" lon="2.3161">
        <ele>61.6</ele>
        <time>2024-01-12T14:40:57Z</time>
      </trkpt>
      <trkpt lat="49.86832" lon="2.31608">
        <ele>61.6</ele>
        <time>2024-01-12T14:40:58Z</time>
      </trkpt>
      <trkpt lat="49.86832" lon="2.31607">
        <ele>61.6</ele>
        <time>2024-01-12T14:40:59Z</time>
      </trkpt>
      <trkpt lat="49.86832" lon="2.31605">
        <ele>61.6</ele>
        <time>2024-01-12T14:41:00Z</time>
      </trkpt>
      <trkpt lat="49.86832" lon="2.31604">
        <ele>61.6</ele>
        <time>2024-01-12T14:41:01Z</time>
      </trkpt>
      <trkpt lat="49.86832" lon="2.31602">
        <ele>61.6</ele>
        <time>2024-01-12T14:41:02Z</time>
      </trkpt>
      <trkpt lat="49.86832" lon="2.31601">
        <ele>61.6</ele>
        <time>2024-01-12T14:41:03Z</time>
      </trkpt>
      <trkpt lat="49.86831" lon="2.31599">
        <ele>61.6</ele>
        <time>2024-01-12T14:41:04Z</time>
      </trkpt>
      <trkpt lat="49.86831" lon="2.31598">
        <ele>61.6</ele>
        <time>2024-01-12T14:41:05Z</time>
      </trkpt>
      <trkpt lat="49.86831" lon="2.31596">
        <ele>61.6</ele>
        <time>2024-01-12T14:41:06Z</time>
      </trkpt>
      <trkpt lat="49.8683" lon="2.31594">
        <ele>61.6</ele>
        <time>2024-01-12T14:41:07Z</time>
      </trkpt>
      <trkpt lat="49.8683" lon="2.31593">
        <ele>61.6</ele>
        <time>2024-01-12T14:41:08Z</time>
      </trkpt>
      <trkpt lat="49.8683" lon="2.31592">
        <ele>61.7</ele>
        <time>2024-01-12T14:41:09Z</time>
      </trkpt>
      <trkpt lat="49.86829" lon="2.31591">
        <ele>61.7</ele>
        <time>2024-01-12T14:41:10Z</time>
      </trkpt>
      <trkpt lat="49.86829" lon="2.3159">
        <ele>61.7</ele>
        <time>2024-01-12T14:41:11Z</time>
      </trkpt>
      <trkpt lat="49.86829" lon="2.31588">
        <ele>61.7</ele>
        <time>2024-01-12T14:41:12Z</time>
      </trkpt>
      <trkpt lat="49.86828" lon="2.31587">
        <ele>61.7</ele>
        <time>2024-01-12T14:41:13Z</time>
      </trkpt>
      <trkpt lat="49.86828" lon="2.31585">
        <ele>61.7</ele>
        <time>2024-01-12T14:41:14Z</time>
      </trkpt>
      <trkpt lat="49.86828" lon="2.31584">
        <ele>61.7</ele>
        <time>2024-01-12T14:41:15Z</time>
      </trkpt>
      <trkpt lat="49.86827" lon="2.31582">
        <ele>61.7</ele>
        <time>2024-01-12T14:41:16Z</time>
      </trkpt>
      <trkpt lat="49.86827" lon="2.31581">
        <ele>61.7</ele>
        <time>2024-01-12T14:41:17Z</time>
      </trkpt>
      <trkpt lat="49.86827" lon="2.3158">
        <ele>61.7</ele>
        <time>2024-01-12T14:41:18Z</time>
      </trkpt>
      <trkpt lat="49.86827" lon="2.31579">
        <ele>61.8</ele>
        <time>2024-01-12T14:41:19Z</time>
      </trkpt>
      <trkpt lat="49.86827" lon="2.31578">
        <ele>61.8</ele>
        <time>2024-01-12T14:41:20Z</time>
      </trkpt>
      <trkpt lat="49.86827" lon="2.31576">
        <ele>61.8</ele>
        <time>2024-01-12T14:41:21Z</time>
      </trkpt>
      <trkpt lat="49.86827" lon="2.31575">
        <ele>61.8</ele>
        <time>2024-01-12T14:41:22Z</time>
      </trkpt>
      <trkpt lat="49.86827" lon="2.31573">
        <ele>61.8</ele>
        <time>2024-01-12T14:41:23Z</time>
      </trkpt>
      <trkpt lat="49.86827" lon="2.31572">
        <ele>61.8</ele>
        <time>2024-01-12T14:41:24Z</time>
      </trkpt>
      <trkpt lat="49.86827" lon="2.31571">
        <ele>61.9</ele>
        <time>2024-01-12T14:41:25Z</time>
      </trkpt>
      <trkpt lat="49.86827" lon="2.31569">
        <ele>61.9</ele>
        <time>2024-01-12T14:41:26Z</time>
      </trkpt>
      <trkpt lat="49.86826" lon="2.31568">
        <ele>61.9</ele>
        <time>2024-01-12T14:41:27Z</time>
      </trkpt>
      <trkpt lat="49.86826" lon="2.31567">
        <ele>61.9</ele>
        <time>2024-01-12T14:41:28Z</time>
      </trkpt>
      <trkpt lat="49.86826" lon="2.31565">
        <ele>61.9</ele>
        <time>2024-01-12T14:41:29Z</time>
      </trkpt>
      <trkpt lat="49.86826" lon="2.31564">
        <ele>61.9</ele>
        <time>2024-01-12T14:41:30Z</time>
      </trkpt>
      <trkpt lat="49.86825" lon="2.31562">
        <ele>61.9</ele>
        <time>2024-01-12T14:41:31Z</time>
      </trkpt>
      <trkpt lat="49.86825" lon="2.31561">
        <ele>61.9</ele>
        <time>2024-01-12T14:41:32Z</time>
      </trkpt>
      <trkpt lat="49.86825" lon="2.3156">
        <ele>61.9</ele>
        <time>2024-01-12T14:41:33Z</time>
      </trkpt>
      <trkpt lat="49.86824" lon="2.31558">
        <ele>62</ele>
        <time>2024-01-12T14:41:34Z</time>
      </trkpt>
      <trkpt lat="49.86824" lon="2.31557">
        <ele>62</ele>
        <time>2024-01-12T14:41:35Z</time>
      </trkpt>
      <trkpt lat="49.86824" lon="2.31555">
        <ele>62</ele>
        <time>2024-01-12T14:41:36Z</time>
      </trkpt>
      <trkpt lat="49.86823" lon="2.31554">
        <ele>62</ele>
        <time>2024-01-12T14:41:37Z</time>
      </trkpt>
      <trkpt lat="49.86823" lon="2.31553">
        <ele>62</ele>
        <time>2024-01-12T14:41:38Z</time>
      </trkpt>
      <trkpt lat="49.86822" lon="2.31551">
        <ele>62</ele>
        <time>2024-01-12T14:41:39Z</time>
      </trkpt>
      <trkpt lat="49.86822" lon="2.3155">
        <ele>62</ele>
        <time>2024-01-12T14:41:40Z</time>
      </trkpt>
      <trkpt lat="49.86821" lon="2.31549">
        <ele>62</ele>
        <time>2024-01-12T14:41:41Z</time>
      </trkpt>
      <trkpt lat="49.86821" lon="2.31547">
        <ele>62</ele>
        <time>2024-01-12T14:41:42Z</time>
      </trkpt>
      <trkpt lat="49.8682" lon="2.31546">
        <ele>62</ele>
        <time>2024-01-12T14:41:43Z</time>
      </trkpt>
      <trkpt lat="49.86819" lon="2.31545">
        <ele>62.1</ele>
        <time>2024-01-12T14:41:44Z</time>
      </trkpt>
      <trkpt lat="49.86819" lon="2.31544">
        <ele>62.1</ele>
        <time>2024-01-12T14:41:45Z</time>
      </trkpt>
      <trkpt lat="49.86818" lon="2.31542">
        <ele>62.1</ele>
        <time>2024-01-12T14:41:46Z</time>
      </trkpt>
      <trkpt lat="49.86817" lon="2.31541">
        <ele>62.1</ele>
        <time>2024-01-12T14:41:47Z</time>
      </trkpt>
      <trkpt lat="49.86817" lon="2.3154">
        <ele>62.1</ele>
        <time>2024-01-12T14:41:48Z</time>
      </trkpt>
      <trkpt lat="49.86816" lon="2.31539">
        <ele>62.1</ele>
        <time>2024-01-12T14:41:49Z</time>
      </trkpt>
      <trkpt lat="49.86815" lon="2.31538">
        <ele>62.1</ele>
        <time>2024-01-12T14:41:50Z</time>
      </trkpt>
      <trkpt lat="49.86814" lon="2.31537">
        <ele>62.1</ele>
        <time>2024-01-12T14:41:51Z</time>
      </trkpt>
      <trkpt lat="49.86814" lon="2.31536">
        <ele>62.1</ele>
        <time>2024-01-12T14:41:52Z</time>
      </trkpt>
      <trkpt lat="49.86813" lon="2.31535">
        <ele>62.1</ele>
        <time>2024-01-12T14:41:53Z</time>
      </trkpt>
      <trkpt lat="49.86812" lon="2.31534">
        <ele>62.1</ele>
        <time>2024-01-12T14:41:54Z</time>
      </trkpt>
      <trkpt lat="49.86812" lon="2.31533">
        <ele>62.1</ele>
        <time>2024-01-12T14:41:55Z</time>
      </trkpt>
      <trkpt lat="49.86811" lon="2.31532">
        <ele>62.1</ele>
        <time>2024-01-12T14:41:56Z</time>
      </trkpt>
      <trkpt lat="49.86811" lon="2.31531">
        <ele>62.1</ele>
        <time>2024-01-12T14:41:57Z</time>
      </trkpt>
      <trkpt lat="49.8681" lon="2.3153">
        <ele>62.1</ele>
        <time>2024-01-12T14:41:58Z</time>
      </trkpt>
      <trkpt lat="49.86809" lon="2.31529">
        <ele>62.1</ele>
        <time>2024-01-12T14:41:59Z</time>
      </trkpt>
      <trkpt lat="49.86809" lon="2.31528">
        <ele>62.2</ele>
        <time>2024-01-12T14:42:00Z</time>
      </trkpt>
      <trkpt lat="49.86808" lon="2.31527">
        <ele>62.2</ele>
        <time>2024-01-12T14:42:01Z</time>
      </trkpt>
      <trkpt lat="49.86808" lon="2.31526">
        <ele>62.2</ele>
        <time>2024-01-12T14:42:02Z</time>
      </trkpt>
      <trkpt lat="49.86807" lon="2.31525">
        <ele>62.2</ele>
        <time>2024-01-12T14:42:03Z</time>
      </trkpt>
      <trkpt lat="49.86807" lon="2.31525">
        <ele>62.2</ele>
        <time>2024-01-12T14:42:04Z</time>
      </trkpt>
      <trkpt lat="49.86806" lon="2.31524">
        <ele>62.2</ele>
        <time>2024-01-12T14:42:05Z</time>
      </trkpt>
      <trkpt lat="49.86805" lon="2.31523">
        <ele>62.2</ele>
        <time>2024-01-12T14:42:06Z</time>
      </trkpt>
      <trkpt lat="49.86805" lon="2.31522">
        <ele>62.2</ele>
        <time>2024-01-12T14:42:07Z</time>
      </trkpt>
      <trkpt lat="49.86804" lon="2.31521">
        <ele>62.2</ele>
        <time>2024-01-12T14:42:08Z</time>
      </trkpt>
      <trkpt lat="49.86804" lon="2.31521">
        <ele>62.2</ele>
        <time>2024-01-12T14:42:09Z</time>
      </trkpt>
      <trkpt lat="49.86803" lon="2.31521">
        <ele>62.2</ele>
        <time>2024-01-12T14:42:10Z</time>
      </trkpt>
      <trkpt lat="49.86802" lon="2.3152">
        <ele>62.2</ele>
        <time>2024-01-12T14:42:11Z</time>
      </trkpt>
      <trkpt lat="49.86802" lon="2.3152">
        <ele>62.2</ele>
        <time>2024-01-12T14:42:12Z</time>
      </trkpt>
      <trkpt lat="49.86801" lon="2.3152">
        <ele>62.2</ele>
        <time>2024-01-12T14:42:13Z</time>
      </trkpt>
      <trkpt lat="49.86802" lon="2.31519">
        <ele>62.2</ele>
        <time>2024-01-12T14:42:14Z</time>
      </trkpt>
      <trkpt lat="49.86802" lon="2.31519">
        <ele>62.2</ele>
        <time>2024-01-12T14:42:15Z</time>
      </trkpt>
      <trkpt lat="49.86803" lon="2.31518">
        <ele>62.2</ele>
        <time>2024-01-12T14:42:16Z</time>
      </trkpt>
      <trkpt lat="49.86803" lon="2.31517">
        <ele>62.2</ele>
        <time>2024-01-12T14:42:17Z</time>
      </trkpt>
      <trkpt lat="49.86803" lon="2.31517">
        <ele>62.2</ele>
        <time>2024-01-12T14:42:18Z</time>
      </trkpt>
      <trkpt lat="49.86803" lon="2.31516">
        <ele>62.2</ele>
        <time>2024-01-12T14:42:19Z</time>
      </trkpt>
      <trkpt lat="49.86803" lon="2.31515">
        <ele>62.2</ele>
        <time>2024-01-12T14:42:20Z</time>
      </trkpt>
      <trkpt lat="49.86803" lon="2.31514">
        <ele>62.2</ele>
        <time>2024-01-12T14:42:21Z</time>
      </trkpt>
      <trkpt lat="49.86803" lon="2.31514">
        <ele>62.2</ele>
        <time>2024-01-12T14:42:22Z</time>
      </trkpt>
      <trkpt lat="49.86804" lon="2.31513">
        <ele>62.2</ele>
        <time>2024-01-12T14:42:23Z</time>
      </trkpt>
      <trkpt lat="49.86804" lon="2.31513">
        <ele>62.2</ele>
        <time>2024-01-12T14:42:24Z</time>
      </trkpt>
      <trkpt lat="49.86805" lon="2.31512">
        <ele>62.1</ele>
        <time>2024-01-12T14:42:25Z</time>
      </trkpt>
      <trkpt lat="49.86805" lon="2.31511">
        <ele>62.1</ele>
        <time>2024-01-12T14:42:26Z</time>
      </trkpt>
      <trkpt lat="49.86805" lon="2.3151">
        <ele>62.1</ele>
        <time>2024-01-12T14:42:27Z</time>
      </trkpt>
      <trkpt lat="49.86806" lon="2.31509">
        <ele>62.1</ele>
        <time>2024-01-12T14:42:28Z</time>
      </trkpt>
      <trkpt lat="49.86806" lon="2.31508">
        <ele>62.1</ele>
        <time>2024-01-12T14:42:29Z</time>
      </trkpt>
      <trkpt lat="49.86806" lon="2.31506">
        <ele>62.1</ele>
        <time>2024-01-12T14:42:30Z</time>
      </trkpt>
      <trkpt lat="49.86807" lon="2.31505">
        <ele>62.1</ele>
        <time>2024-01-12T14:42:31Z</time>
      </trkpt>
      <trkpt lat="49.86807" lon="2.31504">
        <ele>62.1</ele>
        <time>2024-01-12T14:42:32Z</time>
      </trkpt>
      <trkpt lat="49.86807" lon="2.31502">
        <ele>62.1</ele>
        <time>2024-01-12T14:42:33Z</time>
      </trkpt>
      <trkpt lat="49.86808" lon="2.31501">
        <ele>62.1</ele>
        <time>2024-01-12T14:42:34Z</time>
      </trkpt>
      <trkpt lat="49.86808" lon="2.315">
        <ele>62.1</ele>
        <time>2024-01-12T14:42:35Z</time>
      </trkpt>
      <trkpt lat="49.86808" lon="2.31498">
        <ele>62.1</ele>
        <time>2024-01-12T14:42:36Z</time>
      </trkpt>
      <trkpt lat="49.86809" lon="2.31497">
        <ele>62.1</ele>
        <time>2024-01-12T14:42:37Z</time>
      </trkpt>
      <trkpt lat="49.86809" lon="2.31495">
        <ele>62.1</ele>
        <time>2024-01-12T14:42:38Z</time>
      </trkpt>
      <trkpt lat="49.86809" lon="2.31494">
        <ele>62.1</ele>
        <time>2024-01-12T14:42:39Z</time>
      </trkpt>
      <trkpt lat="49.8681" lon="2.31492">
        <ele>62.1</ele>
        <time>2024-01-12T14:42:40Z</time>
      </trkpt>
      <trkpt lat="49.8681" lon="2.31491">
        <ele>62.1</ele>
        <time>2024-01-12T14:42:41Z</time>
      </trkpt>
      <trkpt lat="49.8681" lon="2.31489">
        <ele>62.1</ele>
        <time>2024-01-12T14:42:42Z</time>
      </trkpt>
      <trkpt lat="49.86811" lon="2.31488">
        <ele>62.1</ele>
        <time>2024-01-12T14:42:43Z</time>
      </trkpt>
      <trkpt lat="49.86811" lon="2.31486">
        <ele>62.1</ele>
        <time>2024-01-12T14:42:44Z</time>
      </trkpt>
      <trkpt lat="49.86811" lon="2.31484">
        <ele>62.1</ele>
        <time>2024-01-12T14:42:45Z</time>
      </trkpt>
      <trkpt lat="49.86812" lon="2.31483">
        <ele>62.1</ele>
        <time>2024-01-12T14:42:46Z</time>
      </trkpt>
      <trkpt lat="49.86812" lon="2.31481">
        <ele>62.1</ele>
        <time>2024-01-12T14:42:47Z</time>
      </trkpt>
      <trkpt lat="49.86813" lon="2.3148">
        <ele>62.1</ele>
        <time>2024-01-12T14:42:48Z</time>
      </trkpt>
      <trkpt lat="49.86813" lon="2.31478">
        <ele>62.1</ele>
        <time>2024-01-12T14:42:49Z</time>
      </trkpt>
      <trkpt lat="49.86814" lon="2.31477">
        <ele>62.1</ele>
        <time>2024-01-12T14:42:50Z</time>
      </trkpt>
      <trkpt lat="49.86814" lon="2.31476">
        <ele>62.1</ele>
        <time>2024-01-12T14:42:51Z</time>
      </trkpt>
      <trkpt lat="49.86814" lon="2.31474">
        <ele>62.1</ele>
        <time>2024-01-12T14:42:52Z</time>
      </trkpt>
      <trkpt lat="49.86815" lon="2.31473">
        <ele>62.1</ele>
        <time>2024-01-12T14:42:53Z</time>
      </trkpt>
      <trkpt lat="49.86815" lon="2.31472">
        <ele>62.1</ele>
        <time>2024-01-12T14:42:54Z</time>
      </trkpt>
      <trkpt lat="49.86816" lon="2.3147">
        <ele>62.1</ele>
        <time>2024-01-12T14:42:55Z</time>
      </trkpt>
      <trkpt lat="49.86816" lon="2.31469">
        <ele>62.1</ele>
        <time>2024-01-12T14:42:56Z</time>
      </trkpt>
      <trkpt lat="49.86817" lon="2.31466">
        <ele>62.1</ele>
        <time>2024-01-12T14:42:57Z</time>
      </trkpt>
      <trkpt lat="49.86817" lon="2.31465">
        <ele>62.1</ele>
        <time>2024-01-12T14:42:58Z</time>
      </trkpt>
      <trkpt lat="49.86817" lon="2.31464">
        <ele>62.1</ele>
        <time>2024-01-12T14:42:59Z</time>
      </trkpt>
      <trkpt lat="49.86817" lon="2.31463">
        <ele>62.1</ele>
        <time>2024-01-12T14:43:00Z</time>
      </trkpt>
      <trkpt lat="49.86818" lon="2.31462">
        <ele>62.1</ele>
        <time>2024-01-12T14:43:01Z</time>
      </trkpt>
      <trkpt lat="49.86818" lon="2.3146">
        <ele>62.1</ele>
        <time>2024-01-12T14:43:02Z</time>
      </trkpt>
      <trkpt lat="49.86818" lon="2.31459">
        <ele>62.1</ele>
        <time>2024-01-12T14:43:03Z</time>
      </trkpt>
      <trkpt lat="49.86818" lon="2.31457">
        <ele>62.1</ele>
        <time>2024-01-12T14:43:04Z</time>
      </trkpt>
      <trkpt lat="49.86819" lon="2.31455">
        <ele>62.1</ele>
        <time>2024-01-12T14:43:05Z</time>
      </trkpt>
      <trkpt lat="49.86819" lon="2.31454">
        <ele>62.1</ele>
        <time>2024-01-12T14:43:06Z</time>
      </trkpt>
      <trkpt lat="49.8682" lon="2.31452">
        <ele>62.1</ele>
        <time>2024-01-12T14:43:07Z</time>
      </trkpt>
      <trkpt lat="49.8682" lon="2.31451">
        <ele>62.1</ele>
        <time>2024-01-12T14:43:08Z</time>
      </trkpt>
      <trkpt lat="49.8682" lon="2.31449">
        <ele>62.1</ele>
        <time>2024-01-12T14:43:09Z</time>
      </trkpt>
      <trkpt lat="49.86821" lon="2.31448">
        <ele>62.1</ele>
        <time>2024-01-12T14:43:10Z</time>
      </trkpt>
      <trkpt lat="49.86821" lon="2.31446">
        <ele>62.1</ele>
        <time>2024-01-12T14:43:11Z</time>
      </trkpt>
      <trkpt lat="49.86822" lon="2.31444">
        <ele>62.1</ele>
        <time>2024-01-12T14:43:12Z</time>
      </trkpt>
      <trkpt lat="49.86822" lon="2.31443">
        <ele>62.1</ele>
        <time>2024-01-12T14:43:13Z</time>
      </trkpt>
      <trkpt lat="49.86822" lon="2.31441">
        <ele>62.1</ele>
        <time>2024-01-12T14:43:14Z</time>
      </trkpt>
      <trkpt lat="49.86823" lon="2.31439">
        <ele>62.1</ele>
        <time>2024-01-12T14:43:15Z</time>
      </trkpt>
      <trkpt lat="49.86823" lon="2.31438">
        <ele>62.1</ele>
        <time>2024-01-12T14:43:16Z</time>
      </trkpt>
      <trkpt lat="49.86824" lon="2.31436">
        <ele>62.1</ele>
        <time>2024-01-12T14:43:17Z</time>
      </trkpt>
      <trkpt lat="49.86824" lon="2.31435">
        <ele>62.1</ele>
        <time>2024-01-12T14:43:18Z</time>
      </trkpt>
      <trkpt lat="49.86824" lon="2.31433">
        <ele>62.1</ele>
        <time>2024-01-12T14:43:19Z</time>
      </trkpt>
      <trkpt lat="49.86825" lon="2.31432">
        <ele>62.1</ele>
        <time>2024-01-12T14:43:20Z</time>
      </trkpt>
      <trkpt lat="49.86825" lon="2.31431">
        <ele>62.1</ele>
        <time>2024-01-12T14:43:21Z</time>
      </trkpt>
      <trkpt lat="49.86826" lon="2.31429">
        <ele>62.1</ele>
        <time>2024-01-12T14:43:22Z</time>
      </trkpt>
      <trkpt lat="49.86826" lon="2.31427">
        <ele>62.1</ele>
        <time>2024-01-12T14:43:23Z</time>
      </trkpt>
      <trkpt lat="49.86827" lon="2.31426">
        <ele>62.1</ele>
        <time>2024-01-12T14:43:24Z</time>
      </trkpt>
      <trkpt lat="49.86827" lon="2.31423">
        <ele>62.2</ele>
        <time>2024-01-12T14:43:25Z</time>
      </trkpt>
      <trkpt lat="49.86828" lon="2.31422">
        <ele>62.2</ele>
        <time>2024-01-12T14:43:27Z</time>
      </trkpt>
      <trkpt lat="49.86828" lon="2.3142">
        <ele>62.2</ele>
        <time>2024-01-12T14:43:28Z</time>
      </trkpt>
      <trkpt lat="49.86829" lon="2.31419">
        <ele>62.2</ele>
        <time>2024-01-12T14:43:29Z</time>
      </trkpt>
      <trkpt lat="49.86829" lon="2.31417">
        <ele>62.2</ele>
        <time>2024-01-12T14:43:30Z</time>
      </trkpt>
      <trkpt lat="49.86829" lon="2.31416">
        <ele>62.2</ele>
        <time>2024-01-12T14:43:31Z</time>
      </trkpt>
      <trkpt lat="49.8683" lon="2.31415">
        <ele>62.2</ele>
        <time>2024-01-12T14:43:32Z</time>
      </trkpt>
      <trkpt lat="49.8683" lon="2.31413">
        <ele>62.2</ele>
        <time>2024-01-12T14:43:33Z</time>
      </trkpt>
      <trkpt lat="49.86831" lon="2.31412">
        <ele>62.2</ele>
        <time>2024-01-12T14:43:34Z</time>
      </trkpt>
      <trkpt lat="49.86831" lon="2.31411">
        <ele>62.2</ele>
        <time>2024-01-12T14:43:35Z</time>
      </trkpt>
      <trkpt lat="49.86832" lon="2.31409">
        <ele>62.2</ele>
        <time>2024-01-12T14:43:36Z</time>
      </trkpt>
      <trkpt lat="49.86832" lon="2.31408">
        <ele>62.2</ele>
        <time>2024-01-12T14:43:37Z</time>
      </trkpt>
      <trkpt lat="49.86833" lon="2.31407">
        <ele>62.2</ele>
        <time>2024-01-12T14:43:38Z</time>
      </trkpt>
      <trkpt lat="49.86833" lon="2.31406">
        <ele>62.2</ele>
        <time>2024-01-12T14:43:39Z</time>
      </trkpt>
      <trkpt lat="49.86833" lon="2.31405">
        <ele>62.2</ele>
        <time>2024-01-12T14:43:40Z</time>
      </trkpt>
      <trkpt lat="49.86834" lon="2.31404">
        <ele>62.2</ele>
        <time>2024-01-12T14:43:41Z</time>
      </trkpt>
      <trkpt lat="49.86834" lon="2.31403">
        <ele>62.2</ele>
        <time>2024-01-12T14:43:42Z</time>
      </trkpt>
      <trkpt lat="49.86835" lon="2.31402">
        <ele>62.2</ele>
        <time>2024-01-12T14:43:43Z</time>
      </trkpt>
      <trkpt lat="49.86835" lon="2.314">
        <ele>62.2</ele>
        <time>2024-01-12T14:43:44Z</time>
      </trkpt>
      <trkpt lat="49.86836" lon="2.31399">
        <ele>62.2</ele>
        <time>2024-01-12T14:43:45Z</time>
      </trkpt>
      <trkpt lat="49.86836" lon="2.31398">
        <ele>62.2</ele>
        <time>2024-01-12T14:43:46Z</time>
      </trkpt>
      <trkpt lat="49.86837" lon="2.31396">
        <ele>62.2</ele>
        <time>2024-01-12T14:43:47Z</time>
      </trkpt>
      <trkpt lat="49.86837" lon="2.31395">
        <ele>62.2</ele>
        <time>2024-01-12T14:43:48Z</time>
      </trkpt>
      <trkpt lat="49.86838" lon="2.31394">
        <ele>62.2</ele>
        <time>2024-01-12T14:43:49Z</time>
      </trkpt>
      <trkpt lat="49.86838" lon="2.31393">
        <ele>62.2</ele>
        <time>2024-01-12T14:43:50Z</time>
      </trkpt>
      <trkpt lat="49.86838" lon="2.31391">
        <ele>62.2</ele>
        <time>2024-01-12T14:43:51Z</time>
      </trkpt>
      <trkpt lat="49.86839" lon="2.3139">
        <ele>62.2</ele>
        <time>2024-01-12T14:43:52Z</time>
      </trkpt>
      <trkpt lat="49.86839" lon="2.31388">
        <ele>62.2</ele>
        <time>2024-01-12T14:43:53Z</time>
      </trkpt>
      <trkpt lat="49.8684" lon="2.31387">
        <ele>62.2</ele>
        <time>2024-01-12T14:43:54Z</time>
      </trkpt>
      <trkpt lat="49.86841" lon="2.31386">
        <ele>62.2</ele>
        <time>2024-01-12T14:43:55Z</time>
      </trkpt>
      <trkpt lat="49.86841" lon="2.31384">
        <ele>62.2</ele>
        <time>2024-01-12T14:43:56Z</time>
      </trkpt>
      <trkpt lat="49.86842" lon="2.31383">
        <ele>62.2</ele>
        <time>2024-01-12T14:43:57Z</time>
      </trkpt>
      <trkpt lat="49.86842" lon="2.31381">
        <ele>62.2</ele>
        <time>2024-01-12T14:43:58Z</time>
      </trkpt>
      <trkpt lat="49.86842" lon="2.3138">
        <ele>62.2</ele>
        <time>2024-01-12T14:43:59Z</time>
      </trkpt>
      <trkpt lat="49.86843" lon="2.31378">
        <ele>62.2</ele>
        <time>2024-01-12T14:44:00Z</time>
      </trkpt>
      <trkpt lat="49.86843" lon="2.31377">
        <ele>62.2</ele>
        <time>2024-01-12T14:44:01Z</time>
      </trkpt>
      <trkpt lat="49.86843" lon="2.31375">
        <ele>62.2</ele>
        <time>2024-01-12T14:44:02Z</time>
      </trkpt>
      <trkpt lat="49.86844" lon="2.31373">
        <ele>62.2</ele>
        <time>2024-01-12T14:44:03Z</time>
      </trkpt>
      <trkpt lat="49.86844" lon="2.31372">
        <ele>62.2</ele>
        <time>2024-01-12T14:44:04Z</time>
      </trkpt>
      <trkpt lat="49.86844" lon="2.3137">
        <ele>62.2</ele>
        <time>2024-01-12T14:44:05Z</time>
      </trkpt>
      <trkpt lat="49.86845" lon="2.31368">
        <ele>62.2</ele>
        <time>2024-01-12T14:44:06Z</time>
      </trkpt>
      <trkpt lat="49.86845" lon="2.31367">
        <ele>62.3</ele>
        <time>2024-01-12T14:44:07Z</time>
      </trkpt>
      <trkpt lat="49.86846" lon="2.31366">
        <ele>62.3</ele>
        <time>2024-01-12T14:44:08Z</time>
      </trkpt>
      <trkpt lat="49.86846" lon="2.31364">
        <ele>62.3</ele>
        <time>2024-01-12T14:44:09Z</time>
      </trkpt>
      <trkpt lat="49.86846" lon="2.31363">
        <ele>62.3</ele>
        <time>2024-01-12T14:44:10Z</time>
      </trkpt>
      <trkpt lat="49.86847" lon="2.31361">
        <ele>62.3</ele>
        <time>2024-01-12T14:44:11Z</time>
      </trkpt>
      <trkpt lat="49.86847" lon="2.3136">
        <ele>62.3</ele>
        <time>2024-01-12T14:44:12Z</time>
      </trkpt>
      <trkpt lat="49.86848" lon="2.31358">
        <ele>62.3</ele>
        <time>2024-01-12T14:44:13Z</time>
      </trkpt>
      <trkpt lat="49.86848" lon="2.31357">
        <ele>62.3</ele>
        <time>2024-01-12T14:44:14Z</time>
      </trkpt>
      <trkpt lat="49.86848" lon="2.31355">
        <ele>62.3</ele>
        <time>2024-01-12T14:44:15Z</time>
      </trkpt>
      <trkpt lat="49.86849" lon="2.31354">
        <ele>62.3</ele>
        <time>2024-01-12T14:44:16Z</time>
      </trkpt>
      <trkpt lat="49.86849" lon="2.31353">
        <ele>62.3</ele>
        <time>2024-01-12T14:44:17Z</time>
      </trkpt>
      <trkpt lat="49.8685" lon="2.31352">
        <ele>62.3</ele>
        <time>2024-01-12T14:44:18Z</time>
      </trkpt>
      <trkpt lat="49.8685" lon="2.31351">
        <ele>62.3</ele>
        <time>2024-01-12T14:44:19Z</time>
      </trkpt>
      <trkpt lat="49.8685" lon="2.31349">
        <ele>62.3</ele>
        <time>2024-01-12T14:44:20Z</time>
      </trkpt>
      <trkpt lat="49.86851" lon="2.31348">
        <ele>62.3</ele>
        <time>2024-01-12T14:44:21Z</time>
      </trkpt>
      <trkpt lat="49.86851" lon="2.31347">
        <ele>62.3</ele>
        <time>2024-01-12T14:44:22Z</time>
      </trkpt>
      <trkpt lat="49.86852" lon="2.31345">
        <ele>62.3</ele>
        <time>2024-01-12T14:44:23Z</time>
      </trkpt>
      <trkpt lat="49.86853" lon="2.31344">
        <ele>62.3</ele>
        <time>2024-01-12T14:44:24Z</time>
      </trkpt>
      <trkpt lat="49.86854" lon="2.31343">
        <ele>62.3</ele>
        <time>2024-01-12T14:44:25Z</time>
      </trkpt>
      <trkpt lat="49.86854" lon="2.31342">
        <ele>62.3</ele>
        <time>2024-01-12T14:44:26Z</time>
      </trkpt>
      <trkpt lat="49.86855" lon="2.31341">
        <ele>62.3</ele>
        <time>2024-01-12T14:44:27Z</time>
      </trkpt>
      <trkpt lat="49.86855" lon="2.3134">
        <ele>62.2</ele>
        <time>2024-01-12T14:44:28Z</time>
      </trkpt>
      <trkpt lat="49.86856" lon="2.31339">
        <ele>62.2</ele>
        <time>2024-01-12T14:44:29Z</time>
      </trkpt>
      <trkpt lat="49.86856" lon="2.31338">
        <ele>62.2</ele>
        <time>2024-01-12T14:44:30Z</time>
      </trkpt>
      <trkpt lat="49.86856" lon="2.31336">
        <ele>62.2</ele>
        <time>2024-01-12T14:44:31Z</time>
      </trkpt>
      <trkpt lat="49.86857" lon="2.31334">
        <ele>62.2</ele>
        <time>2024-01-12T14:44:32Z</time>
      </trkpt>
      <trkpt lat="49.86857" lon="2.31333">
        <ele>62.2</ele>
        <time>2024-01-12T14:44:33Z</time>
      </trkpt>
      <trkpt lat="49.86858" lon="2.31331">
        <ele>62.2</ele>
        <time>2024-01-12T14:44:34Z</time>
      </trkpt>
      <trkpt lat="49.86858" lon="2.31329">
        <ele>62.2</ele>
        <time>2024-01-12T14:44:35Z</time>
      </trkpt>
      <trkpt lat="49.86859" lon="2.31328">
        <ele>62.2</ele>
        <time>2024-01-12T14:44:36Z</time>
      </trkpt>
      <trkpt lat="49.86859" lon="2.31326">
        <ele>62.2</ele>
        <time>2024-01-12T14:44:37Z</time>
      </trkpt>
      <trkpt lat="49.86859" lon="2.31325">
        <ele>62.2</ele>
        <time>2024-01-12T14:44:38Z</time>
      </trkpt>
      <trkpt lat="49.8686" lon="2.31324">
        <ele>62.2</ele>
        <time>2024-01-12T14:44:39Z</time>
      </trkpt>
      <trkpt lat="49.86861" lon="2.31322">
        <ele>62.2</ele>
        <time>2024-01-12T14:44:40Z</time>
      </trkpt>
      <trkpt lat="49.86861" lon="2.31321">
        <ele>62.2</ele>
        <time>2024-01-12T14:44:41Z</time>
      </trkpt>
      <trkpt lat="49.86862" lon="2.31319">
        <ele>62.2</ele>
        <time>2024-01-12T14:44:42Z</time>
      </trkpt>
      <trkpt lat="49.86862" lon="2.31317">
        <ele>62.2</ele>
        <time>2024-01-12T14:44:43Z</time>
      </trkpt>
      <trkpt lat="49.86862" lon="2.31316">
        <ele>62.2</ele>
        <time>2024-01-12T14:44:44Z</time>
      </trkpt>
      <trkpt lat="49.86863" lon="2.31314">
        <ele>62.2</ele>
        <time>2024-01-12T14:44:45Z</time>
      </trkpt>
      <trkpt lat="49.86863" lon="2.31313">
        <ele>62.2</ele>
        <time>2024-01-12T14:44:46Z</time>
      </trkpt>
      <trkpt lat="49.86864" lon="2.31311">
        <ele>62.1</ele>
        <time>2024-01-12T14:44:47Z</time>
      </trkpt>
      <trkpt lat="49.86864" lon="2.3131">
        <ele>62.1</ele>
        <time>2024-01-12T14:44:48Z</time>
      </trkpt>
      <trkpt lat="49.86864" lon="2.31308">
        <ele>62.1</ele>
        <time>2024-01-12T14:44:49Z</time>
      </trkpt>
      <trkpt lat="49.86864" lon="2.31307">
        <ele>62.1</ele>
        <time>2024-01-12T14:44:50Z</time>
      </trkpt>
      <trkpt lat="49.86865" lon="2.31305">
        <ele>62.1</ele>
        <time>2024-01-12T14:44:51Z</time>
      </trkpt>
      <trkpt lat="49.86865" lon="2.31303">
        <ele>62.1</ele>
        <time>2024-01-12T14:44:52Z</time>
      </trkpt>
      <trkpt lat="49.86865" lon="2.31302">
        <ele>62.1</ele>
        <time>2024-01-12T14:44:53Z</time>
      </trkpt>
      <trkpt lat="49.86866" lon="2.31301">
        <ele>62.1</ele>
        <time>2024-01-12T14:44:54Z</time>
      </trkpt>
      <trkpt lat="49.86866" lon="2.313">
        <ele>62.1</ele>
        <time>2024-01-12T14:44:55Z</time>
      </trkpt>
      <trkpt lat="49.86866" lon="2.31299">
        <ele>62</ele>
        <time>2024-01-12T14:44:56Z</time>
      </trkpt>
      <trkpt lat="49.86867" lon="2.31297">
        <ele>62</ele>
        <time>2024-01-12T14:44:57Z</time>
      </trkpt>
      <trkpt lat="49.86867" lon="2.31296">
        <ele>62</ele>
        <time>2024-01-12T14:44:58Z</time>
      </trkpt>
      <trkpt lat="49.86868" lon="2.31295">
        <ele>62</ele>
        <time>2024-01-12T14:44:59Z</time>
      </trkpt>
      <trkpt lat="49.86868" lon="2.31293">
        <ele>62</ele>
        <time>2024-01-12T14:45:00Z</time>
      </trkpt>
      <trkpt lat="49.86868" lon="2.31292">
        <ele>62</ele>
        <time>2024-01-12T14:45:01Z</time>
      </trkpt>
      <trkpt lat="49.86869" lon="2.3129">
        <ele>62</ele>
        <time>2024-01-12T14:45:02Z</time>
      </trkpt>
      <trkpt lat="49.86869" lon="2.31288">
        <ele>62</ele>
        <time>2024-01-12T14:45:03Z</time>
      </trkpt>
      <trkpt lat="49.86869" lon="2.31287">
        <ele>62</ele>
        <time>2024-01-12T14:45:04Z</time>
      </trkpt>
      <trkpt lat="49.86869" lon="2.31286">
        <ele>61.9</ele>
        <time>2024-01-12T14:45:05Z</time>
      </trkpt>
      <trkpt lat="49.8687" lon="2.31285">
        <ele>61.9</ele>
        <time>2024-01-12T14:45:06Z</time>
      </trkpt>
      <trkpt lat="49.8687" lon="2.31283">
        <ele>61.9</ele>
        <time>2024-01-12T14:45:07Z</time>
      </trkpt>
      <trkpt lat="49.86871" lon="2.31282">
        <ele>61.9</ele>
        <time>2024-01-12T14:45:08Z</time>
      </trkpt>
      <trkpt lat="49.86871" lon="2.31281">
        <ele>61.9</ele>
        <time>2024-01-12T14:45:09Z</time>
      </trkpt>
      <trkpt lat="49.86871" lon="2.31279">
        <ele>61.9</ele>
        <time>2024-01-12T14:45:10Z</time>
      </trkpt>
      <trkpt lat="49.86872" lon="2.31278">
        <ele>61.9</ele>
        <time>2024-01-12T14:45:11Z</time>
      </trkpt>
      <trkpt lat="49.86872" lon="2.31277">
        <ele>61.9</ele>
        <time>2024-01-12T14:45:12Z</time>
      </trkpt>
      <trkpt lat="49.86873" lon="2.31276">
        <ele>61.8</ele>
        <time>2024-01-12T14:45:13Z</time>
      </trkpt>
      <trkpt lat="49.86873" lon="2.31275">
        <ele>61.8</ele>
        <time>2024-01-12T14:45:14Z</time>
      </trkpt>
      <trkpt lat="49.86874" lon="2.31274">
        <ele>61.8</ele>
        <time>2024-01-12T14:45:15Z</time>
      </trkpt>
      <trkpt lat="49.86874" lon="2.31272">
        <ele>61.8</ele>
        <time>2024-01-12T14:45:16Z</time>
      </trkpt>
      <trkpt lat="49.86875" lon="2.31271">
        <ele>61.8</ele>
        <time>2024-01-12T14:45:17Z</time>
      </trkpt>
      <trkpt lat="49.86876" lon="2.3127">
        <ele>61.8</ele>
        <time>2024-01-12T14:45:18Z</time>
      </trkpt>
      <trkpt lat="49.86876" lon="2.31269">
        <ele>61.8</ele>
        <time>2024-01-12T14:45:19Z</time>
      </trkpt>
      <trkpt lat="49.86877" lon="2.31268">
        <ele>61.8</ele>
        <time>2024-01-12T14:45:20Z</time>
      </trkpt>
      <trkpt lat="49.86878" lon="2.31267">
        <ele>61.7</ele>
        <time>2024-01-12T14:45:21Z</time>
      </trkpt>
      <trkpt lat="49.86878" lon="2.31267">
        <ele>61.7</ele>
        <time>2024-01-12T14:45:22Z</time>
      </trkpt>
      <trkpt lat="49.86878" lon="2.31266">
        <ele>61.7</ele>
        <time>2024-01-12T14:45:23Z</time>
      </trkpt>
      <trkpt lat="49.86879" lon="2.31264">
        <ele>61.7</ele>
        <time>2024-01-12T14:45:24Z</time>
      </trkpt>
      <trkpt lat="49.86879" lon="2.31263">
        <ele>61.7</ele>
        <time>2024-01-12T14:45:25Z</time>
      </trkpt>
      <trkpt lat="49.86879" lon="2.31262">
        <ele>61.7</ele>
        <time>2024-01-12T14:45:26Z</time>
      </trkpt>
      <trkpt lat="49.86879" lon="2.31262">
        <ele>61.7</ele>
        <time>2024-01-12T14:45:27Z</time>
      </trkpt>
      <trkpt lat="49.8688" lon="2.31261">
        <ele>61.7</ele>
        <time>2024-01-12T14:45:28Z</time>
      </trkpt>
      <trkpt lat="49.8688" lon="2.3126">
        <ele>61.7</ele>
        <time>2024-01-12T14:45:29Z</time>
      </trkpt>
      <trkpt lat="49.8688" lon="2.3126">
        <ele>61.7</ele>
        <time>2024-01-12T14:45:30Z</time>
      </trkpt>
      <trkpt lat="49.8688" lon="2.3126">
        <ele>61.7</ele>
        <time>2024-01-12T14:45:31Z</time>
      </trkpt>
      <trkpt lat="49.86881" lon="2.31261">
        <ele>61.7</ele>
        <time>2024-01-12T14:45:32Z</time>
      </trkpt>
      <trkpt lat="49.86881" lon="2.31261">
        <ele>61.7</ele>
        <time>2024-01-12T14:45:33Z</time>
      </trkpt>
      <trkpt lat="49.86881" lon="2.31262">
        <ele>61.7</ele>
        <time>2024-01-12T14:45:34Z</time>
      </trkpt>
      <trkpt lat="49.86881" lon="2.31263">
        <ele>61.6</ele>
        <time>2024-01-12T14:45:35Z</time>
      </trkpt>
      <trkpt lat="49.86881" lon="2.31263">
        <ele>61.6</ele>
        <time>2024-01-12T14:45:36Z</time>
      </trkpt>
      <trkpt lat="49.86881" lon="2.31264">
        <ele>61.6</ele>
        <time>2024-01-12T14:45:37Z</time>
      </trkpt>
      <trkpt lat="49.86881" lon="2.31264">
        <ele>61.6</ele>
        <time>2024-01-12T14:45:38Z</time>
      </trkpt>
      <trkpt lat="49.86881" lon="2.31265">
        <ele>61.6</ele>
        <time>2024-01-12T14:45:39Z</time>
      </trkpt>
      <trkpt lat="49.86881" lon="2.31265">
        <ele>61.6</ele>
        <time>2024-01-12T14:45:40Z</time>
      </trkpt>
      <trkpt lat="49.86881" lon="2.31266">
        <ele>61.6</ele>
        <time>2024-01-12T14:45:41Z</time>
      </trkpt>
      <trkpt lat="49.86881" lon="2.31267">
        <ele>61.6</ele>
        <time>2024-01-12T14:45:42Z</time>
      </trkpt>
      <trkpt lat="49.8688" lon="2.31267">
        <ele>61.6</ele>
        <time>2024-01-12T14:45:43Z</time>
      </trkpt>
      <trkpt lat="49.8688" lon="2.31267">
        <ele>61.6</ele>
        <time>2024-01-12T14:45:44Z</time>
      </trkpt>
      <trkpt lat="49.8688" lon="2.31267">
        <ele>61.6</ele>
        <time>2024-01-12T14:45:45Z</time>
      </trkpt>
      <trkpt lat="49.8688" lon="2.31267">
        <ele>61.6</ele>
        <time>2024-01-12T14:45:46Z</time>
      </trkpt>
      <trkpt lat="49.8688" lon="2.31267">
        <ele>61.6</ele>
        <time>2024-01-12T14:45:47Z</time>
      </trkpt>
      <trkpt lat="49.8688" lon="2.31267">
        <ele>61.6</ele>
        <time>2024-01-12T14:45:48Z</time>
      </trkpt>
      <trkpt lat="49.86878" lon="2.31274">
        <ele>61.5</ele>
        <time>2024-01-12T14:46:40Z</time>
      </trkpt>
      <trkpt lat="49.86877" lon="2.31274">
        <ele>61.5</ele>
        <time>2024-01-12T14:46:41Z</time>
      </trkpt>
      <trkpt lat="49.86877" lon="2.31275">
        <ele>61.5</ele>
        <time>2024-01-12T14:46:42Z</time>
      </trkpt>
      <trkpt lat="49.86877" lon="2.31276">
        <ele>61.5</ele>
        <time>2024-01-12T14:46:43Z</time>
      </trkpt>
      <trkpt lat="49.86876" lon="2.31276">
        <ele>61.5</ele>
        <time>2024-01-12T14:46:44Z</time>
      </trkpt>
      <trkpt lat="49.86876" lon="2.31277">
        <ele>61.5</ele>
        <time>2024-01-12T14:46:45Z</time>
      </trkpt>
      <trkpt lat="49.86876" lon="2.31277">
        <ele>61.5</ele>
        <time>2024-01-12T14:46:46Z</time>
      </trkpt>
      <trkpt lat="49.86877" lon="2.31277">
        <ele>61.5</ele>
        <time>2024-01-12T14:46:47Z</time>
      </trkpt>
      <trkpt lat="49.86877" lon="2.31277">
        <ele>61.5</ele>
        <time>2024-01-12T14:46:48Z</time>
      </trkpt>
      <trkpt lat="49.86877" lon="2.31277">
        <ele>61.5</ele>
        <time>2024-01-12T14:46:49Z</time>
      </trkpt>
      <trkpt lat="49.86877" lon="2.31277">
        <ele>61.5</ele>
        <time>2024-01-12T14:46:50Z</time>
      </trkpt>
      <trkpt lat="49.86876" lon="2.31276">
        <ele>61.5</ele>
        <time>2024-01-12T14:46:51Z</time>
      </trkpt>
      <trkpt lat="49.86876" lon="2.31277">
        <ele>61.5</ele>
        <time>2024-01-12T14:46:52Z</time>
      </trkpt>
      <trkpt lat="49.86876" lon="2.31277">
        <ele>61.5</ele>
        <time>2024-01-12T14:46:53Z</time>
      </trkpt>
      <trkpt lat="49.86875" lon="2.31277">
        <ele>61.5</ele>
        <time>2024-01-12T14:46:54Z</time>
      </trkpt>
      <trkpt lat="49.86875" lon="2.31277">
        <ele>61.5</ele>
        <time>2024-01-12T14:46:55Z</time>
      </trkpt>
      <trkpt lat="49.86874" lon="2.31277">
        <ele>61.5</ele>
        <time>2024-01-12T14:46:56Z</time>
      </trkpt>
      <trkpt lat="49.86874" lon="2.31277">
        <ele>61.5</ele>
        <time>2024-01-12T14:46:57Z</time>
      </trkpt>
      <trkpt lat="49.86874" lon="2.31277">
        <ele>61.5</ele>
        <time>2024-01-12T14:46:58Z</time>
      </trkpt>
      <trkpt lat="49.86874" lon="2.31277">
        <ele>61.5</ele>
        <time>2024-01-12T14:46:59Z</time>
      </trkpt>
      <trkpt lat="49.86874" lon="2.31277">
        <ele>61.4</ele>
        <time>2024-01-12T14:47:00Z</time>
      </trkpt>
      <trkpt lat="49.86874" lon="2.31276">
        <ele>61.4</ele>
        <time>2024-01-12T14:47:01Z</time>
      </trkpt>
      <trkpt lat="49.86874" lon="2.31276">
        <ele>61.4</ele>
        <time>2024-01-12T14:47:02Z</time>
      </trkpt>
      <trkpt lat="49.86874" lon="2.31275">
        <ele>61.4</ele>
        <time>2024-01-12T14:47:03Z</time>
      </trkpt>
      <trkpt lat="49.86875" lon="2.31275">
        <ele>61.4</ele>
        <time>2024-01-12T14:47:04Z</time>
      </trkpt>
      <trkpt lat="49.86875" lon="2.31275">
        <ele>61.4</ele>
        <time>2024-01-12T14:47:05Z</time>
      </trkpt>
      <trkpt lat="49.86875" lon="2.31274">
        <ele>61.4</ele>
        <time>2024-01-12T14:47:06Z</time>
      </trkpt>
      <trkpt lat="49.86875" lon="2.31274">
        <ele>61.4</ele>
        <time>2024-01-12T14:47:07Z</time>
      </trkpt>
      <trkpt lat="49.86876" lon="2.31273">
        <ele>61.4</ele>
        <time>2024-01-12T14:47:08Z</time>
      </trkpt>
      <trkpt lat="49.86876" lon="2.31273">
        <ele>61.4</ele>
        <time>2024-01-12T14:47:09Z</time>
      </trkpt>
      <trkpt lat="49.86876" lon="2.31273">
        <ele>61.4</ele>
        <time>2024-01-12T14:47:10Z</time>
      </trkpt>
      <trkpt lat="49.86876" lon="2.31272">
        <ele>61.4</ele>
        <time>2024-01-12T14:47:11Z</time>
      </trkpt>
      <trkpt lat="49.86876" lon="2.31272">
        <ele>61.4</ele>
        <time>2024-01-12T14:47:12Z</time>
      </trkpt>
      <trkpt lat="49.86877" lon="2.31271">
        <ele>61.4</ele>
        <time>2024-01-12T14:47:13Z</time>
      </trkpt>
      <trkpt lat="49.86877" lon="2.31271">
        <ele>61.4</ele>
        <time>2024-01-12T14:48:03Z</time>
      </trkpt>
      <trkpt lat="49.86877" lon="2.31271">
        <ele>61.4</ele>
        <time>2024-01-12T14:48:04Z</time>
      </trkpt>
      <trkpt lat="49.86877" lon="2.3127">
        <ele>61.4</ele>
        <time>2024-01-12T14:48:05Z</time>
      </trkpt>
      <trkpt lat="49.86878" lon="2.3127">
        <ele>61.4</ele>
        <time>2024-01-12T14:48:06Z</time>
      </trkpt>
      <trkpt lat="49.86878" lon="2.31269">
        <ele>61.4</ele>
        <time>2024-01-12T14:48:07Z</time>
      </trkpt>
      <trkpt lat="49.86878" lon="2.31269">
        <ele>61.4</ele>
        <time>2024-01-12T14:48:08Z</time>
      </trkpt>
      <trkpt lat="49.86878" lon="2.31269">
        <ele>61.4</ele>
        <time>2024-01-12T14:48:09Z</time>
      </trkpt>
      <trkpt lat="49.86878" lon="2.31268">
        <ele>61.4</ele>
        <time>2024-01-12T14:48:10Z</time>
      </trkpt>
      <trkpt lat="49.86879" lon="2.31268">
        <ele>61.4</ele>
        <time>2024-01-12T14:48:11Z</time>
      </trkpt>
      <trkpt lat="49.86879" lon="2.31267">
        <ele>61.3</ele>
        <time>2024-01-12T14:48:12Z</time>
      </trkpt>
      <trkpt lat="49.86879" lon="2.31267">
        <ele>61.3</ele>
        <time>2024-01-12T14:48:13Z</time>
      </trkpt>
      <trkpt lat="49.86879" lon="2.31267">
        <ele>61.3</ele>
        <time>2024-01-12T15:05:27Z</time>
      </trkpt>
      <trkpt lat="49.86879" lon="2.31266">
        <ele>61.3</ele>
        <time>2024-01-12T15:05:28Z</time>
      </trkpt>
      <trkpt lat="49.8688" lon="2.31266">
        <ele>61.3</ele>
        <time>2024-01-12T15:05:29Z</time>
      </trkpt>
      <trkpt lat="49.8688" lon="2.31264">
        <ele>61.3</ele>
        <time>2024-01-12T15:05:30Z</time>
      </trkpt>
      <trkpt lat="49.86881" lon="2.31263">
        <ele>61.3</ele>
        <time>2024-01-12T15:05:31Z</time>
      </trkpt>
      <trkpt lat="49.86881" lon="2.31261">
        <ele>61.3</ele>
        <time>2024-01-12T15:05:32Z</time>
      </trkpt>
      <trkpt lat="49.86882" lon="2.3126">
        <ele>61.3</ele>
        <time>2024-01-12T15:05:33Z</time>
      </trkpt>
      <trkpt lat="49.86882" lon="2.31259">
        <ele>61.3</ele>
        <time>2024-01-12T15:05:34Z</time>
      </trkpt>
      <trkpt lat="49.86883" lon="2.31257">
        <ele>61.2</ele>
        <time>2024-01-12T15:05:35Z</time>
      </trkpt>
      <trkpt lat="49.86883" lon="2.31256">
        <ele>61.2</ele>
        <time>2024-01-12T15:05:36Z</time>
      </trkpt>
      <trkpt lat="49.86884" lon="2.31254">
        <ele>61.2</ele>
        <time>2024-01-12T15:05:37Z</time>
      </trkpt>
      <trkpt lat="49.86884" lon="2.31253">
        <ele>61.2</ele>
        <time>2024-01-12T15:05:38Z</time>
      </trkpt>
      <trkpt lat="49.86884" lon="2.31252">
        <ele>61.2</ele>
        <time>2024-01-12T15:05:39Z</time>
      </trkpt>
      <trkpt lat="49.86885" lon="2.31251">
        <ele>61.2</ele>
        <time>2024-01-12T15:05:40Z</time>
      </trkpt>
      <trkpt lat="49.86885" lon="2.3125">
        <ele>61.2</ele>
        <time>2024-01-12T15:05:41Z</time>
      </trkpt>
      <trkpt lat="49.86885" lon="2.31249">
        <ele>61.2</ele>
        <time>2024-01-12T15:05:43Z</time>
      </trkpt>
      <trkpt lat="49.86885" lon="2.31248">
        <ele>61.2</ele>
        <time>2024-01-12T15:05:44Z</time>
      </trkpt>
      <trkpt lat="49.86886" lon="2.31246">
        <ele>61.1</ele>
        <time>2024-01-12T15:05:45Z</time>
      </trkpt>
      <trkpt lat="49.86887" lon="2.31243">
        <ele>61.1</ele>
        <time>2024-01-12T15:05:46Z</time>
      </trkpt>
      <trkpt lat="49.86888" lon="2.31242">
        <ele>61.1</ele>
        <time>2024-01-12T15:05:47Z</time>
      </trkpt>
      <trkpt lat="49.86888" lon="2.31241">
        <ele>61.1</ele>
        <time>2024-01-12T15:05:48Z</time>
      </trkpt>
      <trkpt lat="49.86889" lon="2.3124">
        <ele>61.1</ele>
        <time>2024-01-12T15:05:49Z</time>
      </trkpt>
      <trkpt lat="49.86889" lon="2.31239">
        <ele>61.1</ele>
        <time>2024-01-12T15:05:50Z</time>
      </trkpt>
      <trkpt lat="49.86889" lon="2.31239">
        <ele>61.1</ele>
        <time>2024-01-12T15:05:51Z</time>
      </trkpt>
      <trkpt lat="49.8689" lon="2.31238">
        <ele>61.1</ele>
        <time>2024-01-12T15:05:52Z</time>
      </trkpt>
      <trkpt lat="49.8689" lon="2.31237">
        <ele>61.1</ele>
        <time>2024-01-12T15:05:53Z</time>
      </trkpt>
      <trkpt lat="49.8689" lon="2.31236">
        <ele>61</ele>
        <time>2024-01-12T15:05:54Z</time>
      </trkpt>
      <trkpt lat="49.86891" lon="2.31235">
        <ele>61</ele>
        <time>2024-01-12T15:05:55Z</time>
      </trkpt>
      <trkpt lat="49.86891" lon="2.31234">
        <ele>61</ele>
        <time>2024-01-12T15:05:56Z</time>
      </trkpt>
      <trkpt lat="49.86892" lon="2.31233">
        <ele>61</ele>
        <time>2024-01-12T15:05:57Z</time>
      </trkpt>
      <trkpt lat="49.86893" lon="2.31231">
        <ele>61</ele>
        <time>2024-01-12T15:05:58Z</time>
      </trkpt>
      <trkpt lat="49.86894" lon="2.3123">
        <ele>61</ele>
        <time>2024-01-12T15:05:59Z</time>
      </trkpt>
      <trkpt lat="49.86894" lon="2.31229">
        <ele>61</ele>
        <time>2024-01-12T15:06:00Z</time>
      </trkpt>
      <trkpt lat="49.86895" lon="2.31227">
        <ele>60.9</ele>
        <time>2024-01-12T15:06:01Z</time>
      </trkpt>
      <trkpt lat="49.86896" lon="2.31225">
        <ele>60.9</ele>
        <time>2024-01-12T15:06:02Z</time>
      </trkpt>
      <trkpt lat="49.86897" lon="2.31223">
        <ele>60.9</ele>
        <time>2024-01-12T15:06:03Z</time>
      </trkpt>
      <trkpt lat="49.86897" lon="2.31221">
        <ele>60.9</ele>
        <time>2024-01-12T15:06:04Z</time>
      </trkpt>
      <trkpt lat="49.86898" lon="2.31218">
        <ele>60.9</ele>
        <time>2024-01-12T15:06:05Z</time>
      </trkpt>
      <trkpt lat="49.86899" lon="2.31217">
        <ele>60.9</ele>
        <time>2024-01-12T15:06:06Z</time>
      </trkpt>
      <trkpt lat="49.86899" lon="2.31216">
        <ele>60.8</ele>
        <time>2024-01-12T15:06:07Z</time>
      </trkpt>
      <trkpt lat="49.869" lon="2.31214">
        <ele>60.8</ele>
        <time>2024-01-12T15:06:08Z</time>
      </trkpt>
      <trkpt lat="49.869" lon="2.31213">
        <ele>60.8</ele>
        <time>2024-01-12T15:06:09Z</time>
      </trkpt>
      <trkpt lat="49.86901" lon="2.31211">
        <ele>60.8</ele>
        <time>2024-01-12T15:06:10Z</time>
      </trkpt>
      <trkpt lat="49.86902" lon="2.3121">
        <ele>60.8</ele>
        <time>2024-01-12T15:06:11Z</time>
      </trkpt>
      <trkpt lat="49.86902" lon="2.31209">
        <ele>60.8</ele>
        <time>2024-01-12T15:06:12Z</time>
      </trkpt>
      <trkpt lat="49.86903" lon="2.31208">
        <ele>60.8</ele>
        <time>2024-01-12T15:06:13Z</time>
      </trkpt>
      <trkpt lat="49.86904" lon="2.31207">
        <ele>60.8</ele>
        <time>2024-01-12T15:06:14Z</time>
      </trkpt>
      <trkpt lat="49.86904" lon="2.31206">
        <ele>60.7</ele>
        <time>2024-01-12T15:06:15Z</time>
      </trkpt>
      <trkpt lat="49.86905" lon="2.31205">
        <ele>60.7</ele>
        <time>2024-01-12T15:06:16Z</time>
      </trkpt>
      <trkpt lat="49.86906" lon="2.31204">
        <ele>60.7</ele>
        <time>2024-01-12T15:06:17Z</time>
      </trkpt>
      <trkpt lat="49.86906" lon="2.31203">
        <ele>60.7</ele>
        <time>2024-01-12T15:06:18Z</time>
      </trkpt>
      <trkpt lat="49.86907" lon="2.31202">
        <ele>60.7</ele>
        <time>2024-01-12T15:06:19Z</time>
      </trkpt>
      <trkpt lat="49.86907" lon="2.31201">
        <ele>60.7</ele>
        <time>2024-01-12T15:06:20Z</time>
      </trkpt>
      <trkpt lat="49.86908" lon="2.31201">
        <ele>60.7</ele>
        <time>2024-01-12T15:06:21Z</time>
      </trkpt>
      <trkpt lat="49.86908" lon="2.312">
        <ele>60.7</ele>
        <time>2024-01-12T15:06:22Z</time>
      </trkpt>
      <trkpt lat="49.86909" lon="2.312">
        <ele>60.7</ele>
        <time>2024-01-12T15:06:23Z</time>
      </trkpt>
      <trkpt lat="49.8691" lon="2.312">
        <ele>60.6</ele>
        <time>2024-01-12T15:06:24Z</time>
      </trkpt>
      <trkpt lat="49.8691" lon="2.312">
        <ele>60.6</ele>
        <time>2024-01-12T15:06:25Z</time>
      </trkpt>
      <trkpt lat="49.86911" lon="2.31199">
        <ele>60.6</ele>
        <time>2024-01-12T15:06:26Z</time>
      </trkpt>
      <trkpt lat="49.86912" lon="2.31199">
        <ele>60.6</ele>
        <time>2024-01-12T15:06:27Z</time>
      </trkpt>
      <trkpt lat="49.86912" lon="2.31198">
        <ele>60.6</ele>
        <time>2024-01-12T15:06:28Z</time>
      </trkpt>
      <trkpt lat="49.86913" lon="2.31198">
        <ele>60.6</ele>
        <time>2024-01-12T15:06:29Z</time>
      </trkpt>
      <trkpt lat="49.86913" lon="2.31197">
        <ele>60.6</ele>
        <time>2024-01-12T15:06:30Z</time>
      </trkpt>
      <trkpt lat="49.86914" lon="2.31196">
        <ele>60.6</ele>
        <time>2024-01-12T15:06:31Z</time>
      </trkpt>
      <trkpt lat="49.86914" lon="2.31195">
        <ele>60.6</ele>
        <time>2024-01-12T15:06:32Z</time>
      </trkpt>
      <trkpt lat="49.86915" lon="2.31195">
        <ele>60.6</ele>
        <time>2024-01-12T15:06:33Z</time>
      </trkpt>
      <trkpt lat="49.86916" lon="2.31194">
        <ele>60.5</ele>
        <time>2024-01-12T15:06:34Z</time>
      </trkpt>
      <trkpt lat="49.86917" lon="2.31193">
        <ele>60.5</ele>
        <time>2024-01-12T15:06:35Z</time>
      </trkpt>
      <trkpt lat="49.86917" lon="2.31192">
        <ele>60.5</ele>
        <time>2024-01-12T15:06:36Z</time>
      </trkpt>
      <trkpt lat="49.86918" lon="2.31191">
        <ele>60.5</ele>
        <time>2024-01-12T15:06:37Z</time>
      </trkpt>
      <trkpt lat="49.86918" lon="2.3119">
        <ele>60.5</ele>
        <time>2024-01-12T15:06:38Z</time>
      </trkpt>
      <trkpt lat="49.86919" lon="2.31189">
        <ele>60.5</ele>
        <time>2024-01-12T15:06:39Z</time>
      </trkpt>
      <trkpt lat="49.8692" lon="2.31188">
        <ele>60.5</ele>
        <time>2024-01-12T15:06:40Z</time>
      </trkpt>
      <trkpt lat="49.86921" lon="2.31186">
        <ele>60.4</ele>
        <time>2024-01-12T15:06:41Z</time>
      </trkpt>
      <trkpt lat="49.86921" lon="2.31185">
        <ele>60.4</ele>
        <time>2024-01-12T15:06:42Z</time>
      </trkpt>
      <trkpt lat="49.86922" lon="2.31184">
        <ele>60.4</ele>
        <time>2024-01-12T15:06:43Z</time>
      </trkpt>
      <trkpt lat="49.86923" lon="2.31183">
        <ele>60.4</ele>
        <time>2024-01-12T15:06:44Z</time>
      </trkpt>
      <trkpt lat="49.86924" lon="2.31183">
        <ele>60.4</ele>
        <time>2024-01-12T15:06:45Z</time>
      </trkpt>
      <trkpt lat="49.86925" lon="2.31183">
        <ele>60.4</ele>
        <time>2024-01-12T15:06:46Z</time>
      </trkpt>
      <trkpt lat="49.86926" lon="2.31182">
        <ele>60.3</ele>
        <time>2024-01-12T15:06:47Z</time>
      </trkpt>
      <trkpt lat="49.86927" lon="2.31182">
        <ele>60.3</ele>
        <time>2024-01-12T15:06:48Z</time>
      </trkpt>
      <trkpt lat="49.86928" lon="2.31182">
        <ele>60.3</ele>
        <time>2024-01-12T15:06:49Z</time>
      </trkpt>
      <trkpt lat="49.86929" lon="2.31182">
        <ele>60.3</ele>
        <time>2024-01-12T15:06:50Z</time>
      </trkpt>
      <trkpt lat="49.86929" lon="2.31182">
        <ele>60.3</ele>
        <time>2024-01-12T15:06:51Z</time>
      </trkpt>
      <trkpt lat="49.8693" lon="2.31182">
        <ele>60.3</ele>
        <time>2024-01-12T15:06:52Z</time>
      </trkpt>
      <trkpt lat="49.86931" lon="2.31182">
        <ele>60.2</ele>
        <time>2024-01-12T15:06:53Z</time>
      </trkpt>
      <trkpt lat="49.86932" lon="2.31182">
        <ele>60.2</ele>
        <time>2024-01-12T15:06:54Z</time>
      </trkpt>
      <trkpt lat="49.86933" lon="2.31182">
        <ele>60.2</ele>
        <time>2024-01-12T15:06:55Z</time>
      </trkpt>
      <trkpt lat="49.86934" lon="2.31182">
        <ele>60.2</ele>
        <time>2024-01-12T15:06:56Z</time>
      </trkpt>
      <trkpt lat="49.86935" lon="2.31182">
        <ele>60.2</ele>
        <time>2024-01-12T15:06:57Z</time>
      </trkpt>
      <trkpt lat="49.86936" lon="2.31182">
        <ele>60.2</ele>
        <time>2024-01-12T15:06:58Z</time>
      </trkpt>
      <trkpt lat="49.86937" lon="2.31182">
        <ele>60.2</ele>
        <time>2024-01-12T15:06:59Z</time>
      </trkpt>
      <trkpt lat="49.86938" lon="2.31182">
        <ele>60.2</ele>
        <time>2024-01-12T15:07:00Z</time>
      </trkpt>
      <trkpt lat="49.86939" lon="2.31181">
        <ele>60.2</ele>
        <time>2024-01-12T15:07:01Z</time>
      </trkpt>
      <trkpt lat="49.86939" lon="2.3118">
        <ele>60.2</ele>
        <time>2024-01-12T15:07:02Z</time>
      </trkpt>
      <trkpt lat="49.8694" lon="2.3118">
        <ele>60.1</ele>
        <time>2024-01-12T15:07:03Z</time>
      </trkpt>
      <trkpt lat="49.86941" lon="2.31179">
        <ele>60.1</ele>
        <time>2024-01-12T15:07:04Z</time>
      </trkpt>
      <trkpt lat="49.86942" lon="2.31178">
        <ele>60.1</ele>
        <time>2024-01-12T15:07:05Z</time>
      </trkpt>
      <trkpt lat="49.86943" lon="2.31178">
        <ele>60.1</ele>
        <time>2024-01-12T15:07:06Z</time>
      </trkpt>
      <trkpt lat="49.86944" lon="2.31177">
        <ele>60.1</ele>
        <time>2024-01-12T15:07:07Z</time>
      </trkpt>
      <trkpt lat="49.86945" lon="2.31176">
        <ele>60.1</ele>
        <time>2024-01-12T15:07:08Z</time>
      </trkpt>
      <trkpt lat="49.86946" lon="2.31175">
        <ele>60.1</ele>
        <time>2024-01-12T15:07:09Z</time>
      </trkpt>
      <trkpt lat="49.86946" lon="2.31174">
        <ele>60.1</ele>
        <time>2024-01-12T15:07:10Z</time>
      </trkpt>
      <trkpt lat="49.86947" lon="2.31173">
        <ele>60.1</ele>
        <time>2024-01-12T15:07:11Z</time>
      </trkpt>
      <trkpt lat="49.86948" lon="2.31172">
        <ele>60.1</ele>
        <time>2024-01-12T15:07:12Z</time>
      </trkpt>
      <trkpt lat="49.86949" lon="2.31171">
        <ele>60</ele>
        <time>2024-01-12T15:07:13Z</time>
      </trkpt>
      <trkpt lat="49.8695" lon="2.31171">
        <ele>60</ele>
        <time>2024-01-12T15:07:14Z</time>
      </trkpt>
      <trkpt lat="49.86951" lon="2.3117">
        <ele>60</ele>
        <time>2024-01-12T15:07:15Z</time>
      </trkpt>
      <trkpt lat="49.86952" lon="2.31169">
        <ele>60</ele>
        <time>2024-01-12T15:07:16Z</time>
      </trkpt>
      <trkpt lat="49.86952" lon="2.31169">
        <ele>60</ele>
        <time>2024-01-12T15:07:17Z</time>
      </trkpt>
      <trkpt lat="49.86953" lon="2.31168">
        <ele>60</ele>
        <time>2024-01-12T15:07:18Z</time>
      </trkpt>
      <trkpt lat="49.86954" lon="2.31167">
        <ele>60</ele>
        <time>2024-01-12T15:07:19Z</time>
      </trkpt>
      <trkpt lat="49.86954" lon="2.31166">
        <ele>60</ele>
        <time>2024-01-12T15:07:20Z</time>
      </trkpt>
      <trkpt lat="49.86955" lon="2.31166">
        <ele>60</ele>
        <time>2024-01-12T15:07:21Z</time>
      </trkpt>
      <trkpt lat="49.86956" lon="2.31165">
        <ele>60</ele>
        <time>2024-01-12T15:07:22Z</time>
      </trkpt>
      <trkpt lat="49.86957" lon="2.31164">
        <ele>60</ele>
        <time>2024-01-12T15:07:23Z</time>
      </trkpt>
      <trkpt lat="49.86957" lon="2.31164">
        <ele>60</ele>
        <time>2024-01-12T15:07:24Z</time>
      </trkpt>
      <trkpt lat="49.86958" lon="2.31163">
        <ele>59.9</ele>
        <time>2024-01-12T15:07:25Z</time>
      </trkpt>
      <trkpt lat="49.86958" lon="2.31163">
        <ele>59.9</ele>
        <time>2024-01-12T15:07:26Z</time>
      </trkpt>
      <trkpt lat="49.86959" lon="2.31162">
        <ele>59.9</ele>
        <time>2024-01-12T15:07:27Z</time>
      </trkpt>
      <trkpt lat="49.8696" lon="2.31161">
        <ele>59.9</ele>
        <time>2024-01-12T15:07:28Z</time>
      </trkpt>
      <trkpt lat="49.86961" lon="2.3116">
        <ele>59.9</ele>
        <time>2024-01-12T15:07:29Z</time>
      </trkpt>
      <trkpt lat="49.86962" lon="2.3116">
        <ele>59.9</ele>
        <time>2024-01-12T15:07:30Z</time>
      </trkpt>
      <trkpt lat="49.86963" lon="2.31159">
        <ele>59.9</ele>
        <time>2024-01-12T15:07:31Z</time>
      </trkpt>
      <trkpt lat="49.86963" lon="2.31158">
        <ele>59.9</ele>
        <time>2024-01-12T15:07:32Z</time>
      </trkpt>
      <trkpt lat="49.86964" lon="2.31157">
        <ele>59.9</ele>
        <time>2024-01-12T15:07:33Z</time>
      </trkpt>
      <trkpt lat="49.86965" lon="2.31157">
        <ele>59.9</ele>
        <time>2024-01-12T15:07:34Z</time>
      </trkpt>
      <trkpt lat="49.86966" lon="2.31156">
        <ele>59.9</ele>
        <time>2024-01-12T15:07:35Z</time>
      </trkpt>
      <trkpt lat="49.86966" lon="2.31155">
        <ele>59.9</ele>
        <time>2024-01-12T15:07:36Z</time>
      </trkpt>
      <trkpt lat="49.86967" lon="2.31154">
        <ele>59.9</ele>
        <time>2024-01-12T15:07:37Z</time>
      </trkpt>
      <trkpt lat="49.86968" lon="2.31154">
        <ele>59.9</ele>
        <time>2024-01-12T15:07:38Z</time>
      </trkpt>
      <trkpt lat="49.86969" lon="2.31153">
        <ele>59.9</ele>
        <time>2024-01-12T15:07:39Z</time>
      </trkpt>
      <trkpt lat="49.8697" lon="2.31152">
        <ele>59.9</ele>
        <time>2024-01-12T15:07:40Z</time>
      </trkpt>
      <trkpt lat="49.86971" lon="2.31151">
        <ele>59.9</ele>
        <time>2024-01-12T15:07:41Z</time>
      </trkpt>
      <trkpt lat="49.86971" lon="2.3115">
        <ele>59.8</ele>
        <time>2024-01-12T15:07:42Z</time>
      </trkpt>
      <trkpt lat="49.86972" lon="2.31149">
        <ele>59.8</ele>
        <time>2024-01-12T15:07:43Z</time>
      </trkpt>
      <trkpt lat="49.86973" lon="2.31149">
        <ele>59.8</ele>
        <time>2024-01-12T15:07:44Z</time>
      </trkpt>
      <trkpt lat="49.86974" lon="2.31148">
        <ele>59.8</ele>
        <time>2024-01-12T15:07:45Z</time>
      </trkpt>
      <trkpt lat="49.86975" lon="2.31148">
        <ele>59.8</ele>
        <time>2024-01-12T15:07:46Z</time>
      </trkpt>
      <trkpt lat="49.86975" lon="2.31147">
        <ele>59.8</ele>
        <time>2024-01-12T15:07:47Z</time>
      </trkpt>
      <trkpt lat="49.86977" lon="2.31147">
        <ele>59.8</ele>
        <time>2024-01-12T15:07:48Z</time>
      </trkpt>
      <trkpt lat="49.86978" lon="2.31147">
        <ele>59.8</ele>
        <time>2024-01-12T15:07:49Z</time>
      </trkpt>
      <trkpt lat="49.86978" lon="2.31146">
        <ele>59.8</ele>
        <time>2024-01-12T15:07:50Z</time>
      </trkpt>
      <trkpt lat="49.86979" lon="2.31146">
        <ele>59.8</ele>
        <time>2024-01-12T15:07:51Z</time>
      </trkpt>
      <trkpt lat="49.8698" lon="2.31146">
        <ele>59.8</ele>
        <time>2024-01-12T15:07:52Z</time>
      </trkpt>
      <trkpt lat="49.86981" lon="2.31146">
        <ele>59.8</ele>
        <time>2024-01-12T15:07:53Z</time>
      </trkpt>
      <trkpt lat="49.86982" lon="2.31145">
        <ele>59.8</ele>
        <time>2024-01-12T15:07:54Z</time>
      </trkpt>
      <trkpt lat="49.86983" lon="2.31145">
        <ele>59.8</ele>
        <time>2024-01-12T15:07:55Z</time>
      </trkpt>
      <trkpt lat="49.86984" lon="2.31145">
        <ele>59.8</ele>
        <time>2024-01-12T15:07:56Z</time>
      </trkpt>
      <trkpt lat="49.86985" lon="2.31145">
        <ele>59.8</ele>
        <time>2024-01-12T15:07:57Z</time>
      </trkpt>
      <trkpt lat="49.86986" lon="2.31144">
        <ele>59.8</ele>
        <time>2024-01-12T15:07:58Z</time>
      </trkpt>
      <trkpt lat="49.86987" lon="2.31144">
        <ele>59.8</ele>
        <time>2024-01-12T15:07:59Z</time>
      </trkpt>
      <trkpt lat="49.86988" lon="2.31144">
        <ele>59.8</ele>
        <time>2024-01-12T15:08:00Z</time>
      </trkpt>
      <trkpt lat="49.86989" lon="2.31144">
        <ele>59.8</ele>
        <time>2024-01-12T15:08:01Z</time>
      </trkpt>
      <trkpt lat="49.8699" lon="2.31143">
        <ele>59.8</ele>
        <time>2024-01-12T15:08:02Z</time>
      </trkpt>
      <trkpt lat="49.86991" lon="2.31142">
        <ele>59.8</ele>
        <time>2024-01-12T15:08:03Z</time>
      </trkpt>
      <trkpt lat="49.86992" lon="2.31142">
        <ele>59.8</ele>
        <time>2024-01-12T15:08:04Z</time>
      </trkpt>
      <trkpt lat="49.86993" lon="2.31141">
        <ele>59.8</ele>
        <time>2024-01-12T15:08:05Z</time>
      </trkpt>
      <trkpt lat="49.86994" lon="2.31141">
        <ele>59.8</ele>
        <time>2024-01-12T15:08:06Z</time>
      </trkpt>
      <trkpt lat="49.86995" lon="2.3114">
        <ele>59.8</ele>
        <time>2024-01-12T15:08:07Z</time>
      </trkpt>
      <trkpt lat="49.86996" lon="2.31139">
        <ele>59.8</ele>
        <time>2024-01-12T15:08:08Z</time>
      </trkpt>
      <trkpt lat="49.86997" lon="2.31139">
        <ele>59.8</ele>
        <time>2024-01-12T15:08:09Z</time>
      </trkpt>
      <trkpt lat="49.86998" lon="2.31138">
        <ele>59.8</ele>
        <time>2024-01-12T15:08:10Z</time>
      </trkpt>
      <trkpt lat="49.86998" lon="2.31138">
        <ele>59.8</ele>
        <time>2024-01-12T15:08:11Z</time>
      </trkpt>
      <trkpt lat="49.86999" lon="2.31137">
        <ele>59.8</ele>
        <time>2024-01-12T15:08:12Z</time>
      </trkpt>
      <trkpt lat="49.87" lon="2.31136">
        <ele>59.8</ele>
        <time>2024-01-12T15:08:13Z</time>
      </trkpt>
      <trkpt lat="49.87001" lon="2.31136">
        <ele>59.8</ele>
        <time>2024-01-12T15:08:14Z</time>
      </trkpt>
      <trkpt lat="49.87002" lon="2.31135">
        <ele>59.8</ele>
        <time>2024-01-12T15:08:15Z</time>
      </trkpt>
      <trkpt lat="49.87002" lon="2.31135">
        <ele>59.8</ele>
        <time>2024-01-12T15:08:16Z</time>
      </trkpt>
      <trkpt lat="49.87003" lon="2.31134">
        <ele>59.8</ele>
        <time>2024-01-12T15:08:17Z</time>
      </trkpt>
      <trkpt lat="49.87004" lon="2.31134">
        <ele>59.8</ele>
        <time>2024-01-12T15:08:18Z</time>
      </trkpt>
      <trkpt lat="49.87004" lon="2.31133">
        <ele>59.8</ele>
        <time>2024-01-12T15:08:19Z</time>
      </trkpt>
      <trkpt lat="49.87005" lon="2.31133">
        <ele>59.8</ele>
        <time>2024-01-12T15:08:20Z</time>
      </trkpt>
      <trkpt lat="49.87006" lon="2.31132">
        <ele>59.8</ele>
        <time>2024-01-12T15:08:21Z</time>
      </trkpt>
      <trkpt lat="49.87006" lon="2.31132">
        <ele>59.8</ele>
        <time>2024-01-12T15:08:22Z</time>
      </trkpt>
      <trkpt lat="49.87007" lon="2.31131">
        <ele>59.8</ele>
        <time>2024-01-12T15:08:23Z</time>
      </trkpt>
      <trkpt lat="49.87008" lon="2.31131">
        <ele>59.8</ele>
        <time>2024-01-12T15:08:24Z</time>
      </trkpt>
      <trkpt lat="49.87009" lon="2.3113">
        <ele>59.8</ele>
        <time>2024-01-12T15:08:25Z</time>
      </trkpt>
      <trkpt lat="49.8701" lon="2.3113">
        <ele>59.8</ele>
        <time>2024-01-12T15:08:26Z</time>
      </trkpt>
      <trkpt lat="49.87011" lon="2.31129">
        <ele>59.8</ele>
        <time>2024-01-12T15:08:27Z</time>
      </trkpt>
      <trkpt lat="49.87011" lon="2.31129">
        <ele>59.8</ele>
        <time>2024-01-12T15:08:28Z</time>
      </trkpt>
      <trkpt lat="49.87012" lon="2.31128">
        <ele>59.8</ele>
        <time>2024-01-12T15:08:29Z</time>
      </trkpt>
      <trkpt lat="49.87013" lon="2.31128">
        <ele>59.8</ele>
        <time>2024-01-12T15:08:30Z</time>
      </trkpt>
      <trkpt lat="49.87014" lon="2.31127">
        <ele>59.8</ele>
        <time>2024-01-12T15:08:31Z</time>
      </trkpt>
      <trkpt lat="49.87015" lon="2.31127">
        <ele>59.8</ele>
        <time>2024-01-12T15:08:32Z</time>
      </trkpt>
      <trkpt lat="49.87016" lon="2.31126">
        <ele>59.8</ele>
        <time>2024-01-12T15:08:33Z</time>
      </trkpt>
      <trkpt lat="49.87017" lon="2.31125">
        <ele>59.8</ele>
        <time>2024-01-12T15:08:34Z</time>
      </trkpt>
      <trkpt lat="49.87018" lon="2.31125">
        <ele>59.8</ele>
        <time>2024-01-12T15:08:35Z</time>
      </trkpt>
      <trkpt lat="49.87019" lon="2.31124">
        <ele>59.8</ele>
        <time>2024-01-12T15:08:36Z</time>
      </trkpt>
      <trkpt lat="49.87019" lon="2.31124">
        <ele>59.8</ele>
        <time>2024-01-12T15:08:37Z</time>
      </trkpt>
      <trkpt lat="49.8702" lon="2.31123">
        <ele>59.8</ele>
        <time>2024-01-12T15:08:38Z</time>
      </trkpt>
      <trkpt lat="49.87021" lon="2.31123">
        <ele>59.8</ele>
        <time>2024-01-12T15:08:39Z</time>
      </trkpt>
      <trkpt lat="49.87022" lon="2.31122">
        <ele>59.8</ele>
        <time>2024-01-12T15:08:40Z</time>
      </trkpt>
      <trkpt lat="49.87023" lon="2.31122">
        <ele>59.8</ele>
        <time>2024-01-12T15:08:41Z</time>
      </trkpt>
      <trkpt lat="49.87024" lon="2.31122">
        <ele>59.8</ele>
        <time>2024-01-12T15:08:42Z</time>
      </trkpt>
      <trkpt lat="49.87025" lon="2.31121">
        <ele>59.8</ele>
        <time>2024-01-12T15:08:43Z</time>
      </trkpt>
      <trkpt lat="49.87026" lon="2.31121">
        <ele>59.8</ele>
        <time>2024-01-12T15:08:44Z</time>
      </trkpt>
      <trkpt lat="49.87027" lon="2.3112">
        <ele>59.8</ele>
        <time>2024-01-12T15:08:45Z</time>
      </trkpt>
      <trkpt lat="49.87028" lon="2.31119">
        <ele>59.8</ele>
        <time>2024-01-12T15:08:46Z</time>
      </trkpt>
      <trkpt lat="49.87028" lon="2.31119">
        <ele>59.8</ele>
        <time>2024-01-12T15:08:47Z</time>
      </trkpt>
      <trkpt lat="49.87029" lon="2.31118">
        <ele>59.8</ele>
        <time>2024-01-12T15:08:48Z</time>
      </trkpt>
      <trkpt lat="49.8703" lon="2.31116">
        <ele>59.8</ele>
        <time>2024-01-12T15:08:49Z</time>
      </trkpt>
      <trkpt lat="49.87031" lon="2.31115">
        <ele>59.8</ele>
        <time>2024-01-12T15:08:50Z</time>
      </trkpt>
      <trkpt lat="49.87032" lon="2.31115">
        <ele>59.8</ele>
        <time>2024-01-12T15:08:51Z</time>
      </trkpt>
      <trkpt lat="49.87033" lon="2.31114">
        <ele>59.9</ele>
        <time>2024-01-12T15:08:52Z</time>
      </trkpt>
      <trkpt lat="49.87034" lon="2.31113">
        <ele>59.9</ele>
        <time>2024-01-12T15:08:53Z</time>
      </trkpt>
      <trkpt lat="49.87035" lon="2.31112">
        <ele>59.9</ele>
        <time>2024-01-12T15:08:54Z</time>
      </trkpt>
      <trkpt lat="49.87036" lon="2.31111">
        <ele>59.9</ele>
        <time>2024-01-12T15:08:55Z</time>
      </trkpt>
      <trkpt lat="49.87037" lon="2.31109">
        <ele>59.9</ele>
        <time>2024-01-12T15:08:56Z</time>
      </trkpt>
      <trkpt lat="49.87038" lon="2.31108">
        <ele>59.9</ele>
        <time>2024-01-12T15:08:57Z</time>
      </trkpt>
      <trkpt lat="49.87039" lon="2.31108">
        <ele>59.9</ele>
        <time>2024-01-12T15:08:58Z</time>
      </trkpt>
      <trkpt lat="49.8704" lon="2.31106">
        <ele>59.9</ele>
        <time>2024-01-12T15:08:59Z</time>
      </trkpt>
      <trkpt lat="49.87041" lon="2.31105">
        <ele>59.9</ele>
        <time>2024-01-12T15:09:00Z</time>
      </trkpt>
      <trkpt lat="49.87042" lon="2.31104">
        <ele>59.9</ele>
        <time>2024-01-12T15:09:01Z</time>
      </trkpt>
      <trkpt lat="49.87043" lon="2.31103">
        <ele>60</ele>
        <time>2024-01-12T15:09:02Z</time>
      </trkpt>
      <trkpt lat="49.87044" lon="2.31102">
        <ele>60</ele>
        <time>2024-01-12T15:09:03Z</time>
      </trkpt>
      <trkpt lat="49.87044" lon="2.31101">
        <ele>60</ele>
        <time>2024-01-12T15:09:04Z</time>
      </trkpt>
      <trkpt lat="49.87045" lon="2.311">
        <ele>60</ele>
        <time>2024-01-12T15:09:05Z</time>
      </trkpt>
      <trkpt lat="49.87046" lon="2.31099">
        <ele>60</ele>
        <time>2024-01-12T15:09:06Z</time>
      </trkpt>
      <trkpt lat="49.87047" lon="2.31098">
        <ele>60</ele>
        <time>2024-01-12T15:09:07Z</time>
      </trkpt>
      <trkpt lat="49.87048" lon="2.31097">
        <ele>60</ele>
        <time>2024-01-12T15:09:08Z</time>
      </trkpt>
      <trkpt lat="49.87049" lon="2.31097">
        <ele>60</ele>
        <time>2024-01-12T15:09:09Z</time>
      </trkpt>
      <trkpt lat="49.87049" lon="2.31096">
        <ele>60.1</ele>
        <time>2024-01-12T15:09:10Z</time>
      </trkpt>
      <trkpt lat="49.8705" lon="2.31095">
        <ele>60.1</ele>
        <time>2024-01-12T15:09:11Z</time>
      </trkpt>
      <trkpt lat="49.87051" lon="2.31095">
        <ele>60.1</ele>
        <time>2024-01-12T15:09:12Z</time>
      </trkpt>
      <trkpt lat="49.87052" lon="2.31094">
        <ele>60.1</ele>
        <time>2024-01-12T15:09:13Z</time>
      </trkpt>
      <trkpt lat="49.87052" lon="2.31094">
        <ele>60.2</ele>
        <time>2024-01-12T15:09:14Z</time>
      </trkpt>
      <trkpt lat="49.87053" lon="2.31093">
        <ele>60.2</ele>
        <time>2024-01-12T15:09:15Z</time>
      </trkpt>
      <trkpt lat="49.87054" lon="2.31093">
        <ele>60.2</ele>
        <time>2024-01-12T15:09:16Z</time>
      </trkpt>
      <trkpt lat="49.87055" lon="2.31093">
        <ele>60.2</ele>
        <time>2024-01-12T15:09:17Z</time>
      </trkpt>
      <trkpt lat="49.87056" lon="2.31093">
        <ele>60.2</ele>
        <time>2024-01-12T15:09:18Z</time>
      </trkpt>
      <trkpt lat="49.87057" lon="2.31095">
        <ele>60.2</ele>
        <time>2024-01-12T15:09:19Z</time>
      </trkpt>
      <trkpt lat="49.87058" lon="2.31096">
        <ele>60.2</ele>
        <time>2024-01-12T15:09:20Z</time>
      </trkpt>
      <trkpt lat="49.87059" lon="2.31097">
        <ele>60.2</ele>
        <time>2024-01-12T15:09:21Z</time>
      </trkpt>
      <trkpt lat="49.87059" lon="2.31099">
        <ele>60.2</ele>
        <time>2024-01-12T15:09:22Z</time>
      </trkpt>
      <trkpt lat="49.8706" lon="2.311">
        <ele>60.2</ele>
        <time>2024-01-12T15:09:23Z</time>
      </trkpt>
      <trkpt lat="49.87061" lon="2.31101">
        <ele>60.2</ele>
        <time>2024-01-12T15:09:24Z</time>
      </trkpt>
      <trkpt lat="49.87062" lon="2.31102">
        <ele>60.2</ele>
        <time>2024-01-12T15:09:25Z</time>
      </trkpt>
      <trkpt lat="49.87063" lon="2.31103">
        <ele>60.2</ele>
        <time>2024-01-12T15:09:26Z</time>
      </trkpt>
      <trkpt lat="49.87064" lon="2.31103">
        <ele>60.2</ele>
        <time>2024-01-12T15:09:27Z</time>
      </trkpt>
      <trkpt lat="49.87065" lon="2.31104">
        <ele>60.2</ele>
        <time>2024-01-12T15:09:28Z</time>
      </trkpt>
      <trkpt lat="49.87066" lon="2.31105">
        <ele>60.2</ele>
        <time>2024-01-12T15:09:29Z</time>
      </trkpt>
      <trkpt lat="49.87067" lon="2.31107">
        <ele>60.2</ele>
        <time>2024-01-12T15:09:30Z</time>
      </trkpt>
      <trkpt lat="49.87068" lon="2.31108">
        <ele>60.1</ele>
        <time>2024-01-12T15:09:31Z</time>
      </trkpt>
      <trkpt lat="49.87068" lon="2.31109">
        <ele>60.1</ele>
        <time>2024-01-12T15:09:32Z</time>
      </trkpt>
      <trkpt lat="49.8707" lon="2.31111">
        <ele>60.1</ele>
        <time>2024-01-12T15:09:33Z</time>
      </trkpt>
      <trkpt lat="49.87071" lon="2.31112">
        <ele>60.1</ele>
        <time>2024-01-12T15:09:34Z</time>
      </trkpt>
      <trkpt lat="49.87071" lon="2.31113">
        <ele>60.1</ele>
        <time>2024-01-12T15:09:35Z</time>
      </trkpt>
      <trkpt lat="49.87073" lon="2.31115">
        <ele>60.1</ele>
        <time>2024-01-12T15:09:36Z</time>
      </trkpt>
      <trkpt lat="49.87074" lon="2.31116">
        <ele>60.1</ele>
        <time>2024-01-12T15:09:37Z</time>
      </trkpt>
      <trkpt lat="49.87075" lon="2.31116">
        <ele>60.1</ele>
        <time>2024-01-12T15:09:38Z</time>
      </trkpt>
      <trkpt lat="49.87076" lon="2.31117">
        <ele>60.1</ele>
        <time>2024-01-12T15:09:39Z</time>
      </trkpt>
      <trkpt lat="49.87077" lon="2.31119">
        <ele>60</ele>
        <time>2024-01-12T15:09:40Z</time>
      </trkpt>
      <trkpt lat="49.87078" lon="2.3112">
        <ele>60</ele>
        <time>2024-01-12T15:09:41Z</time>
      </trkpt>
      <trkpt lat="49.87078" lon="2.31122">
        <ele>60</ele>
        <time>2024-01-12T15:09:42Z</time>
      </trkpt>
      <trkpt lat="49.87079" lon="2.31123">
        <ele>60</ele>
        <time>2024-01-12T15:09:43Z</time>
      </trkpt>
      <trkpt lat="49.8708" lon="2.31124">
        <ele>60</ele>
        <time>2024-01-12T15:09:44Z</time>
      </trkpt>
      <trkpt lat="49.87081" lon="2.31124">
        <ele>60</ele>
        <time>2024-01-12T15:09:45Z</time>
      </trkpt>
      <trkpt lat="49.87082" lon="2.31125">
        <ele>60</ele>
        <time>2024-01-12T15:09:46Z</time>
      </trkpt>
      <trkpt lat="49.87083" lon="2.31126">
        <ele>60</ele>
        <time>2024-01-12T15:09:47Z</time>
      </trkpt>
      <trkpt lat="49.87084" lon="2.31127">
        <ele>60</ele>
        <time>2024-01-12T15:09:48Z</time>
      </trkpt>
      <trkpt lat="49.87084" lon="2.31129">
        <ele>59.9</ele>
        <time>2024-01-12T15:09:49Z</time>
      </trkpt>
      <trkpt lat="49.87085" lon="2.3113">
        <ele>59.9</ele>
        <time>2024-01-12T15:09:50Z</time>
      </trkpt>
      <trkpt lat="49.87085" lon="2.31132">
        <ele>59.9</ele>
        <time>2024-01-12T15:09:51Z</time>
      </trkpt>
      <trkpt lat="49.87085" lon="2.31133">
        <ele>59.9</ele>
        <time>2024-01-12T15:09:52Z</time>
      </trkpt>
      <trkpt lat="49.87086" lon="2.31135">
        <ele>59.9</ele>
        <time>2024-01-12T15:09:53Z</time>
      </trkpt>
      <trkpt lat="49.87086" lon="2.31137">
        <ele>59.9</ele>
        <time>2024-01-12T15:09:54Z</time>
      </trkpt>
      <trkpt lat="49.87086" lon="2.31138">
        <ele>59.9</ele>
        <time>2024-01-12T15:09:55Z</time>
      </trkpt>
      <trkpt lat="49.87086" lon="2.3114">
        <ele>59.9</ele>
        <time>2024-01-12T15:09:56Z</time>
      </trkpt>
      <trkpt lat="49.87086" lon="2.31142">
        <ele>59.9</ele>
        <time>2024-01-12T15:09:57Z</time>
      </trkpt>
      <trkpt lat="49.87086" lon="2.31143">
        <ele>59.9</ele>
        <time>2024-01-12T15:09:58Z</time>
      </trkpt>
      <trkpt lat="49.87087" lon="2.31145">
        <ele>59.9</ele>
        <time>2024-01-12T15:09:59Z</time>
      </trkpt>
      <trkpt lat="49.87087" lon="2.31147">
        <ele>59.8</ele>
        <time>2024-01-12T15:10:00Z</time>
      </trkpt>
      <trkpt lat="49.87087" lon="2.31149">
        <ele>59.8</ele>
        <time>2024-01-12T15:10:01Z</time>
      </trkpt>
      <trkpt lat="49.87087" lon="2.3115">
        <ele>59.8</ele>
        <time>2024-01-12T15:10:02Z</time>
      </trkpt>
      <trkpt lat="49.87087" lon="2.31152">
        <ele>59.8</ele>
        <time>2024-01-12T15:10:03Z</time>
      </trkpt>
      <trkpt lat="49.87086" lon="2.31153">
        <ele>59.8</ele>
        <time>2024-01-12T15:10:04Z</time>
      </trkpt>
      <trkpt lat="49.87086" lon="2.31157">
        <ele>59.8</ele>
        <time>2024-01-12T15:10:05Z</time>
      </trkpt>
      <trkpt lat="49.87086" lon="2.31158">
        <ele>59.8</ele>
        <time>2024-01-12T15:10:06Z</time>
      </trkpt>
      <trkpt lat="49.87086" lon="2.31159">
        <ele>59.8</ele>
        <time>2024-01-12T15:10:07Z</time>
      </trkpt>
      <trkpt lat="49.87086" lon="2.31162">
        <ele>59.8</ele>
        <time>2024-01-12T15:10:08Z</time>
      </trkpt>
      <trkpt lat="49.87086" lon="2.31164">
        <ele>59.8</ele>
        <time>2024-01-12T15:10:09Z</time>
      </trkpt>
      <trkpt lat="49.87086" lon="2.31165">
        <ele>59.8</ele>
        <time>2024-01-12T15:10:10Z</time>
      </trkpt>
      <trkpt lat="49.87086" lon="2.31167">
        <ele>59.7</ele>
        <time>2024-01-12T15:10:11Z</time>
      </trkpt>
      <trkpt lat="49.87086" lon="2.31169">
        <ele>59.7</ele>
        <time>2024-01-12T15:10:12Z</time>
      </trkpt>
      <trkpt lat="49.87086" lon="2.3117">
        <ele>59.7</ele>
        <time>2024-01-12T15:10:13Z</time>
      </trkpt>
      <trkpt lat="49.87086" lon="2.31172">
        <ele>59.7</ele>
        <time>2024-01-12T15:10:14Z</time>
      </trkpt>
      <trkpt lat="49.87086" lon="2.31174">
        <ele>59.7</ele>
        <time>2024-01-12T15:10:15Z</time>
      </trkpt>
      <trkpt lat="49.87086" lon="2.31175">
        <ele>59.7</ele>
        <time>2024-01-12T15:10:16Z</time>
      </trkpt>
      <trkpt lat="49.87086" lon="2.31177">
        <ele>59.7</ele>
        <time>2024-01-12T15:10:17Z</time>
      </trkpt>
      <trkpt lat="49.87085" lon="2.31178">
        <ele>59.7</ele>
        <time>2024-01-12T15:10:18Z</time>
      </trkpt>
      <trkpt lat="49.87085" lon="2.3118">
        <ele>59.7</ele>
        <time>2024-01-12T15:10:19Z</time>
      </trkpt>
      <trkpt lat="49.87085" lon="2.31182">
        <ele>59.7</ele>
        <time>2024-01-12T15:10:20Z</time>
      </trkpt>
      <trkpt lat="49.87085" lon="2.31184">
        <ele>59.7</ele>
        <time>2024-01-12T15:10:21Z</time>
      </trkpt>
      <trkpt lat="49.87085" lon="2.31186">
        <ele>59.7</ele>
        <time>2024-01-12T15:10:22Z</time>
      </trkpt>
      <trkpt lat="49.87085" lon="2.31189">
        <ele>59.7</ele>
        <time>2024-01-12T15:10:23Z</time>
      </trkpt>
      <trkpt lat="49.87085" lon="2.3119">
        <ele>59.7</ele>
        <time>2024-01-12T15:10:24Z</time>
      </trkpt>
      <trkpt lat="49.87085" lon="2.31191">
        <ele>59.7</ele>
        <time>2024-01-12T15:10:25Z</time>
      </trkpt>
      <trkpt lat="49.87084" lon="2.31193">
        <ele>59.7</ele>
        <time>2024-01-12T15:10:26Z</time>
      </trkpt>
      <trkpt lat="49.87084" lon="2.31195">
        <ele>59.6</ele>
        <time>2024-01-12T15:10:27Z</time>
      </trkpt>
      <trkpt lat="49.87084" lon="2.31197">
        <ele>59.6</ele>
        <time>2024-01-12T15:10:28Z</time>
      </trkpt>
      <trkpt lat="49.87084" lon="2.31198">
        <ele>59.6</ele>
        <time>2024-01-12T15:10:29Z</time>
      </trkpt>
      <trkpt lat="49.87084" lon="2.312">
        <ele>59.6</ele>
        <time>2024-01-12T15:10:30Z</time>
      </trkpt>
      <trkpt lat="49.87084" lon="2.31201">
        <ele>59.6</ele>
        <time>2024-01-12T15:10:31Z</time>
      </trkpt>
      <trkpt lat="49.87084" lon="2.31203">
        <ele>59.6</ele>
        <time>2024-01-12T15:10:32Z</time>
      </trkpt>
      <trkpt lat="49.87084" lon="2.31205">
        <ele>59.6</ele>
        <time>2024-01-12T15:10:33Z</time>
      </trkpt>
      <trkpt lat="49.87083" lon="2.31206">
        <ele>59.6</ele>
        <time>2024-01-12T15:10:34Z</time>
      </trkpt>
      <trkpt lat="49.87083" lon="2.31208">
        <ele>59.6</ele>
        <time>2024-01-12T15:10:35Z</time>
      </trkpt>
      <trkpt lat="49.87082" lon="2.3121">
        <ele>59.6</ele>
        <time>2024-01-12T15:10:36Z</time>
      </trkpt>
      <trkpt lat="49.87082" lon="2.31212">
        <ele>59.6</ele>
        <time>2024-01-12T15:10:37Z</time>
      </trkpt>
      <trkpt lat="49.87082" lon="2.31213">
        <ele>59.6</ele>
        <time>2024-01-12T15:10:38Z</time>
      </trkpt>
      <trkpt lat="49.87082" lon="2.31215">
        <ele>59.6</ele>
        <time>2024-01-12T15:10:39Z</time>
      </trkpt>
      <trkpt lat="49.87082" lon="2.31217">
        <ele>59.6</ele>
        <time>2024-01-12T15:10:40Z</time>
      </trkpt>
      <trkpt lat="49.87082" lon="2.31218">
        <ele>59.6</ele>
        <time>2024-01-12T15:10:41Z</time>
      </trkpt>
      <trkpt lat="49.87082" lon="2.3122">
        <ele>59.6</ele>
        <time>2024-01-12T15:10:42Z</time>
      </trkpt>
      <trkpt lat="49.87082" lon="2.31221">
        <ele>59.6</ele>
        <time>2024-01-12T15:10:43Z</time>
      </trkpt>
      <trkpt lat="49.87082" lon="2.31223">
        <ele>59.6</ele>
        <time>2024-01-12T15:10:44Z</time>
      </trkpt>
      <trkpt lat="49.87082" lon="2.31225">
        <ele>59.6</ele>
        <time>2024-01-12T15:10:45Z</time>
      </trkpt>
      <trkpt lat="49.87082" lon="2.31226">
        <ele>59.6</ele>
        <time>2024-01-12T15:10:46Z</time>
      </trkpt>
      <trkpt lat="49.87082" lon="2.3123">
        <ele>59.6</ele>
        <time>2024-01-12T15:10:48Z</time>
      </trkpt>
      <trkpt lat="49.87082" lon="2.31232">
        <ele>59.6</ele>
        <time>2024-01-12T15:10:49Z</time>
      </trkpt>
      <trkpt lat="49.87083" lon="2.31235">
        <ele>59.6</ele>
        <time>2024-01-12T15:10:50Z</time>
      </trkpt>
      <trkpt lat="49.87083" lon="2.31236">
        <ele>59.6</ele>
        <time>2024-01-12T15:10:51Z</time>
      </trkpt>
      <trkpt lat="49.87083" lon="2.31237">
        <ele>59.6</ele>
        <time>2024-01-12T15:10:52Z</time>
      </trkpt>
      <trkpt lat="49.87083" lon="2.31239">
        <ele>59.6</ele>
        <time>2024-01-12T15:10:53Z</time>
      </trkpt>
      <trkpt lat="49.87084" lon="2.3124">
        <ele>59.6</ele>
        <time>2024-01-12T15:10:54Z</time>
      </trkpt>
      <trkpt lat="49.87084" lon="2.31242">
        <ele>59.6</ele>
        <time>2024-01-12T15:10:55Z</time>
      </trkpt>
      <trkpt lat="49.87084" lon="2.31243">
        <ele>59.6</ele>
        <time>2024-01-12T15:10:56Z</time>
      </trkpt>
      <trkpt lat="49.87084" lon="2.31245">
        <ele>59.6</ele>
        <time>2024-01-12T15:10:57Z</time>
      </trkpt>
      <trkpt lat="49.87084" lon="2.31246">
        <ele>59.6</ele>
        <time>2024-01-12T15:10:58Z</time>
      </trkpt>
      <trkpt lat="49.87085" lon="2.31248">
        <ele>59.6</ele>
        <time>2024-01-12T15:10:59Z</time>
      </trkpt>
      <trkpt lat="49.87085" lon="2.31249">
        <ele>59.6</ele>
        <time>2024-01-12T15:11:00Z</time>
      </trkpt>
      <trkpt lat="49.87085" lon="2.31251">
        <ele>59.6</ele>
        <time>2024-01-12T15:11:01Z</time>
      </trkpt>
      <trkpt lat="49.87086" lon="2.31253">
        <ele>59.6</ele>
        <time>2024-01-12T15:11:02Z</time>
      </trkpt>
      <trkpt lat="49.87086" lon="2.31254">
        <ele>59.6</ele>
        <time>2024-01-12T15:11:03Z</time>
      </trkpt>
      <trkpt lat="49.87086" lon="2.31256">
        <ele>59.6</ele>
        <time>2024-01-12T15:11:04Z</time>
      </trkpt>
      <trkpt lat="49.87087" lon="2.31257">
        <ele>59.6</ele>
        <time>2024-01-12T15:11:05Z</time>
      </trkpt>
      <trkpt lat="49.87087" lon="2.31259">
        <ele>59.6</ele>
        <time>2024-01-12T15:11:06Z</time>
      </trkpt>
      <trkpt lat="49.87088" lon="2.31258">
        <ele>59.6</ele>
        <time>2024-01-12T15:11:07Z</time>
      </trkpt>
      <trkpt lat="49.87089" lon="2.31258">
        <ele>59.6</ele>
        <time>2024-01-12T15:11:08Z</time>
      </trkpt>
      <trkpt lat="49.8709" lon="2.31257">
        <ele>59.6</ele>
        <time>2024-01-12T15:11:09Z</time>
      </trkpt>
      <trkpt lat="49.8709" lon="2.31257">
        <ele>59.6</ele>
        <time>2024-01-12T15:11:10Z</time>
      </trkpt>
      <trkpt lat="49.8709" lon="2.31257">
        <ele>59.6</ele>
        <time>2024-01-12T15:11:11Z</time>
      </trkpt>
      <trkpt lat="49.8709" lon="2.31257">
        <ele>59.6</ele>
        <time>2024-01-12T15:11:12Z</time>
      </trkpt>
      <trkpt lat="49.87091" lon="2.31257">
        <ele>59.6</ele>
        <time>2024-01-12T15:11:13Z</time>
      </trkpt>
      <trkpt lat="49.87091" lon="2.31258">
        <ele>59.6</ele>
        <time>2024-01-12T15:11:14Z</time>
      </trkpt>
      <trkpt lat="49.87091" lon="2.31258">
        <ele>59.6</ele>
        <time>2024-01-12T15:11:15Z</time>
      </trkpt>
      <trkpt lat="49.87091" lon="2.31258">
        <ele>59.6</ele>
        <time>2024-01-12T15:11:16Z</time>
      </trkpt>
      <trkpt lat="49.87092" lon="2.31258">
        <ele>59.6</ele>
        <time>2024-01-12T15:11:17Z</time>
      </trkpt>
      <trkpt lat="49.87092" lon="2.31258">
        <ele>59.6</ele>
        <time>2024-01-12T15:11:18Z</time>
      </trkpt>
      <trkpt lat="49.87092" lon="2.31258">
        <ele>59.6</ele>
        <time>2024-01-12T15:11:19Z</time>
      </trkpt>
      <trkpt lat="49.87092" lon="2.31258">
        <ele>59.6</ele>
        <time>2024-01-12T15:11:20Z</time>
      </trkpt>
      <trkpt lat="49.87093" lon="2.31258">
        <ele>59.6</ele>
        <time>2024-01-12T15:11:21Z</time>
      </trkpt>
      <trkpt lat="49.87093" lon="2.31258">
        <ele>59.6</ele>
        <time>2024-01-12T15:11:22Z</time>
      </trkpt>
      <trkpt lat="49.87093" lon="2.31258">
        <ele>59.6</ele>
        <time>2024-01-12T15:11:23Z</time>
      </trkpt>
      <trkpt lat="49.87093" lon="2.31258">
        <ele>59.6</ele>
        <time>2024-01-12T15:11:24Z</time>
      </trkpt>
      <trkpt lat="49.87094" lon="2.31258">
        <ele>59.6</ele>
        <time>2024-01-12T15:11:25Z</time>
      </trkpt>
      <trkpt lat="49.87094" lon="2.31258">
        <ele>59.6</ele>
        <time>2024-01-12T15:11:26Z</time>
      </trkpt>
      <trkpt lat="49.87094" lon="2.31258">
        <ele>59.6</ele>
        <time>2024-01-12T15:11:27Z</time>
      </trkpt>
      <trkpt lat="49.87094" lon="2.31258">
        <ele>59.6</ele>
        <time>2024-01-12T15:11:28Z</time>
      </trkpt>
      <trkpt lat="49.87095" lon="2.31258">
        <ele>59.6</ele>
        <time>2024-01-12T15:11:45Z</time>
      </trkpt>
      <trkpt lat="49.87095" lon="2.31258">
        <ele>59.6</ele>
        <time>2024-01-12T15:11:46Z</time>
      </trkpt>
      <trkpt lat="49.87095" lon="2.31258">
        <ele>59.6</ele>
        <time>2024-01-12T15:11:47Z</time>
      </trkpt>
      <trkpt lat="49.87095" lon="2.31258">
        <ele>59.6</ele>
        <time>2024-01-12T15:11:48Z</time>
      </trkpt>
      <trkpt lat="49.87096" lon="2.31259">
        <ele>59.6</ele>
        <time>2024-01-12T15:11:49Z</time>
      </trkpt>
      <trkpt lat="49.87097" lon="2.3126">
        <ele>59.6</ele>
        <time>2024-01-12T15:11:50Z</time>
      </trkpt>
      <trkpt lat="49.87097" lon="2.31262">
        <ele>59.6</ele>
        <time>2024-01-12T15:11:51Z</time>
      </trkpt>
      <trkpt lat="49.87098" lon="2.31265">
        <ele>59.6</ele>
        <time>2024-01-12T15:11:52Z</time>
      </trkpt>
      <trkpt lat="49.87099" lon="2.31266">
        <ele>59.6</ele>
        <time>2024-01-12T15:11:53Z</time>
      </trkpt>
      <trkpt lat="49.87099" lon="2.31267">
        <ele>59.6</ele>
        <time>2024-01-12T15:11:54Z</time>
      </trkpt>
      <trkpt lat="49.87101" lon="2.31269">
        <ele>59.6</ele>
        <time>2024-01-12T15:11:55Z</time>
      </trkpt>
      <trkpt lat="49.87101" lon="2.31269">
        <ele>59.6</ele>
        <time>2024-01-12T15:11:56Z</time>
      </trkpt>
      <trkpt lat="49.87102" lon="2.3127">
        <ele>59.6</ele>
        <time>2024-01-12T15:11:57Z</time>
      </trkpt>
      <trkpt lat="49.87103" lon="2.31271">
        <ele>59.6</ele>
        <time>2024-01-12T15:11:58Z</time>
      </trkpt>
      <trkpt lat="49.87104" lon="2.31271">
        <ele>59.6</ele>
        <time>2024-01-12T15:11:59Z</time>
      </trkpt>
      <trkpt lat="49.87105" lon="2.31271">
        <ele>59.6</ele>
        <time>2024-01-12T15:12:00Z</time>
      </trkpt>
      <trkpt lat="49.87106" lon="2.31271">
        <ele>59.6</ele>
        <time>2024-01-12T15:12:01Z</time>
      </trkpt>
      <trkpt lat="49.87107" lon="2.31271">
        <ele>59.6</ele>
        <time>2024-01-12T15:12:02Z</time>
      </trkpt>
      <trkpt lat="49.87109" lon="2.31271">
        <ele>59.6</ele>
        <time>2024-01-12T15:12:03Z</time>
      </trkpt>
      <trkpt lat="49.8711" lon="2.31271">
        <ele>59.6</ele>
        <time>2024-01-12T15:12:04Z</time>
      </trkpt>
      <trkpt lat="49.87111" lon="2.31271">
        <ele>59.6</ele>
        <time>2024-01-12T15:12:05Z</time>
      </trkpt>
      <trkpt lat="49.87112" lon="2.31271">
        <ele>59.6</ele>
        <time>2024-01-12T15:12:06Z</time>
      </trkpt>
      <trkpt lat="49.87113" lon="2.31271">
        <ele>59.6</ele>
        <time>2024-01-12T15:12:07Z</time>
      </trkpt>
      <trkpt lat="49.87114" lon="2.31271">
        <ele>59.6</ele>
        <time>2024-01-12T15:12:08Z</time>
      </trkpt>
      <trkpt lat="49.87115" lon="2.31271">
        <ele>59.6</ele>
        <time>2024-01-12T15:12:09Z</time>
      </trkpt>
      <trkpt lat="49.87117" lon="2.31271">
        <ele>59.6</ele>
        <time>2024-01-12T15:12:10Z</time>
      </trkpt>
      <trkpt lat="49.87118" lon="2.31271">
        <ele>59.6</ele>
        <time>2024-01-12T15:12:11Z</time>
      </trkpt>
      <trkpt lat="49.87119" lon="2.31271">
        <ele>59.6</ele>
        <time>2024-01-12T15:12:12Z</time>
      </trkpt>
      <trkpt lat="49.8712" lon="2.31271">
        <ele>59.6</ele>
        <time>2024-01-12T15:12:13Z</time>
      </trkpt>
      <trkpt lat="49.87121" lon="2.31271">
        <ele>59.6</ele>
        <time>2024-01-12T15:12:14Z</time>
      </trkpt>
      <trkpt lat="49.87122" lon="2.31271">
        <ele>59.6</ele>
        <time>2024-01-12T15:12:15Z</time>
      </trkpt>
      <trkpt lat="49.87123" lon="2.31271">
        <ele>59.6</ele>
        <time>2024-01-12T15:12:16Z</time>
      </trkpt>
      <trkpt lat="49.87124" lon="2.31271">
        <ele>59.6</ele>
        <time>2024-01-12T15:12:17Z</time>
      </trkpt>
      <trkpt lat="49.87125" lon="2.31272">
        <ele>59.6</ele>
        <time>2024-01-12T15:12:18Z</time>
      </trkpt>
      <trkpt lat="49.87126" lon="2.31272">
        <ele>59.6</ele>
        <time>2024-01-12T15:12:19Z</time>
      </trkpt>
      <trkpt lat="49.87127" lon="2.31272">
        <ele>59.7</ele>
        <time>2024-01-12T15:12:20Z</time>
      </trkpt>
      <trkpt lat="49.87128" lon="2.31272">
        <ele>59.7</ele>
        <time>2024-01-12T15:12:21Z</time>
      </trkpt>
      <trkpt lat="49.87129" lon="2.31271">
        <ele>59.7</ele>
        <time>2024-01-12T15:12:22Z</time>
      </trkpt>
      <trkpt lat="49.8713" lon="2.31271">
        <ele>59.7</ele>
        <time>2024-01-12T15:12:23Z</time>
      </trkpt>
      <trkpt lat="49.87131" lon="2.31271">
        <ele>59.7</ele>
        <time>2024-01-12T15:12:24Z</time>
      </trkpt>
      <trkpt lat="49.87132" lon="2.3127">
        <ele>59.7</ele>
        <time>2024-01-12T15:12:25Z</time>
      </trkpt>
      <trkpt lat="49.87133" lon="2.3127">
        <ele>59.7</ele>
        <time>2024-01-12T15:12:26Z</time>
      </trkpt>
      <trkpt lat="49.87134" lon="2.3127">
        <ele>59.7</ele>
        <time>2024-01-12T15:12:27Z</time>
      </trkpt>
      <trkpt lat="49.87135" lon="2.31269">
        <ele>59.7</ele>
        <time>2024-01-12T15:12:28Z</time>
      </trkpt>
      <trkpt lat="49.87136" lon="2.31269">
        <ele>59.7</ele>
        <time>2024-01-12T15:12:29Z</time>
      </trkpt>
      <trkpt lat="49.87137" lon="2.31269">
        <ele>59.7</ele>
        <time>2024-01-12T15:12:30Z</time>
      </trkpt>
      <trkpt lat="49.87138" lon="2.31269">
        <ele>59.7</ele>
        <time>2024-01-12T15:12:31Z</time>
      </trkpt>
      <trkpt lat="49.87139" lon="2.31269">
        <ele>59.7</ele>
        <time>2024-01-12T15:12:32Z</time>
      </trkpt>
      <trkpt lat="49.8714" lon="2.31268">
        <ele>59.7</ele>
        <time>2024-01-12T15:12:33Z</time>
      </trkpt>
      <trkpt lat="49.87142" lon="2.31268">
        <ele>59.7</ele>
        <time>2024-01-12T15:12:34Z</time>
      </trkpt>
      <trkpt lat="49.87143" lon="2.31268">
        <ele>59.7</ele>
        <time>2024-01-12T15:12:35Z</time>
      </trkpt>
      <trkpt lat="49.87144" lon="2.31268">
        <ele>59.7</ele>
        <time>2024-01-12T15:12:36Z</time>
      </trkpt>
      <trkpt lat="49.87145" lon="2.31268">
        <ele>59.7</ele>
        <time>2024-01-12T15:12:37Z</time>
      </trkpt>
      <trkpt lat="49.87148" lon="2.31268">
        <ele>59.7</ele>
        <time>2024-01-12T15:12:39Z</time>
      </trkpt>
      <trkpt lat="49.87149" lon="2.31268">
        <ele>59.7</ele>
        <time>2024-01-12T15:12:40Z</time>
      </trkpt>
      <trkpt lat="49.8715" lon="2.31268">
        <ele>59.7</ele>
        <time>2024-01-12T15:12:41Z</time>
      </trkpt>
      <trkpt lat="49.87151" lon="2.31268">
        <ele>59.8</ele>
        <time>2024-01-12T15:12:42Z</time>
      </trkpt>
      <trkpt lat="49.87151" lon="2.31268">
        <ele>59.8</ele>
        <time>2024-01-12T15:12:43Z</time>
      </trkpt>
      <trkpt lat="49.87153" lon="2.31267">
        <ele>59.8</ele>
        <time>2024-01-12T15:12:44Z</time>
      </trkpt>
      <trkpt lat="49.87154" lon="2.31267">
        <ele>59.8</ele>
        <time>2024-01-12T15:12:45Z</time>
      </trkpt>
      <trkpt lat="49.87155" lon="2.31267">
        <ele>59.8</ele>
        <time>2024-01-12T15:12:46Z</time>
      </trkpt>
      <trkpt lat="49.87156" lon="2.31267">
        <ele>59.8</ele>
        <time>2024-01-12T15:12:47Z</time>
      </trkpt>
      <trkpt lat="49.87157" lon="2.31267">
        <ele>59.8</ele>
        <time>2024-01-12T15:12:48Z</time>
      </trkpt>
      <trkpt lat="49.87157" lon="2.31267">
        <ele>59.8</ele>
        <time>2024-01-12T15:12:49Z</time>
      </trkpt>
      <trkpt lat="49.87158" lon="2.31266">
        <ele>59.8</ele>
        <time>2024-01-12T15:12:50Z</time>
      </trkpt>
      <trkpt lat="49.87159" lon="2.31266">
        <ele>59.8</ele>
        <time>2024-01-12T15:12:51Z</time>
      </trkpt>
      <trkpt lat="49.8716" lon="2.31266">
        <ele>59.8</ele>
        <time>2024-01-12T15:12:52Z</time>
      </trkpt>
      <trkpt lat="49.8716" lon="2.31267">
        <ele>59.8</ele>
        <time>2024-01-12T15:12:53Z</time>
      </trkpt>
      <trkpt lat="49.87161" lon="2.31267">
        <ele>59.9</ele>
        <time>2024-01-12T15:12:54Z</time>
      </trkpt>
      <trkpt lat="49.87162" lon="2.31267">
        <ele>59.9</ele>
        <time>2024-01-12T15:12:55Z</time>
      </trkpt>
      <trkpt lat="49.87163" lon="2.31267">
        <ele>59.9</ele>
        <time>2024-01-12T15:12:56Z</time>
      </trkpt>
      <trkpt lat="49.87164" lon="2.31267">
        <ele>59.9</ele>
        <time>2024-01-12T15:12:57Z</time>
      </trkpt>
      <trkpt lat="49.87165" lon="2.31267">
        <ele>59.9</ele>
        <time>2024-01-12T15:12:58Z</time>
      </trkpt>
      <trkpt lat="49.87165" lon="2.31268">
        <ele>59.9</ele>
        <time>2024-01-12T15:12:59Z</time>
      </trkpt>
      <trkpt lat="49.87166" lon="2.31268">
        <ele>59.9</ele>
        <time>2024-01-12T15:13:00Z</time>
      </trkpt>
      <trkpt lat="49.87167" lon="2.31268">
        <ele>59.9</ele>
        <time>2024-01-12T15:13:01Z</time>
      </trkpt>
      <trkpt lat="49.87168" lon="2.31268">
        <ele>59.9</ele>
        <time>2024-01-12T15:13:02Z</time>
      </trkpt>
      <trkpt lat="49.87169" lon="2.31268">
        <ele>59.9</ele>
        <time>2024-01-12T15:13:03Z</time>
      </trkpt>
      <trkpt lat="49.8717" lon="2.31269">
        <ele>59.9</ele>
        <time>2024-01-12T15:13:04Z</time>
      </trkpt>
      <trkpt lat="49.87171" lon="2.31269">
        <ele>59.9</ele>
        <time>2024-01-12T15:13:05Z</time>
      </trkpt>
      <trkpt lat="49.87172" lon="2.31269">
        <ele>60</ele>
        <time>2024-01-12T15:13:06Z</time>
      </trkpt>
      <trkpt lat="49.87173" lon="2.31269">
        <ele>60</ele>
        <time>2024-01-12T15:13:07Z</time>
      </trkpt>
      <trkpt lat="49.87174" lon="2.31269">
        <ele>60</ele>
        <time>2024-01-12T15:13:08Z</time>
      </trkpt>
      <trkpt lat="49.87175" lon="2.31269">
        <ele>60</ele>
        <time>2024-01-12T15:13:09Z</time>
      </trkpt>
      <trkpt lat="49.87176" lon="2.31269">
        <ele>60</ele>
        <time>2024-01-12T15:13:10Z</time>
      </trkpt>
      <trkpt lat="49.87177" lon="2.31269">
        <ele>60</ele>
        <time>2024-01-12T15:13:11Z</time>
      </trkpt>
      <trkpt lat="49.87178" lon="2.31269">
        <ele>60</ele>
        <time>2024-01-12T15:13:13Z</time>
      </trkpt>
      <trkpt lat="49.87179" lon="2.31269">
        <ele>60</ele>
        <time>2024-01-12T15:13:14Z</time>
      </trkpt>
      <trkpt lat="49.8718" lon="2.31269">
        <ele>60</ele>
        <time>2024-01-12T15:13:15Z</time>
      </trkpt>
      <trkpt lat="49.87181" lon="2.31269">
        <ele>60.1</ele>
        <time>2024-01-12T15:13:16Z</time>
      </trkpt>
      <trkpt lat="49.87183" lon="2.31269">
        <ele>60.1</ele>
        <time>2024-01-12T15:13:17Z</time>
      </trkpt>
      <trkpt lat="49.87186" lon="2.31269">
        <ele>60.1</ele>
        <time>2024-01-12T15:13:19Z</time>
      </trkpt>
      <trkpt lat="49.87189" lon="2.31269">
        <ele>60.1</ele>
        <time>2024-01-12T15:13:20Z</time>
      </trkpt>
      <trkpt lat="49.8719" lon="2.31269">
        <ele>60.2</ele>
        <time>2024-01-12T15:13:21Z</time>
      </trkpt>
      <trkpt lat="49.87191" lon="2.31269">
        <ele>60.2</ele>
        <time>2024-01-12T15:13:22Z</time>
      </trkpt>
      <trkpt lat="49.87192" lon="2.31269">
        <ele>60.2</ele>
        <time>2024-01-12T15:13:23Z</time>
      </trkpt>
      <trkpt lat="49.87193" lon="2.31269">
        <ele>60.2</ele>
        <time>2024-01-12T15:13:24Z</time>
      </trkpt>
      <trkpt lat="49.87194" lon="2.31269">
        <ele>60.2</ele>
        <time>2024-01-12T15:13:25Z</time>
      </trkpt>
      <trkpt lat="49.87195" lon="2.31268">
        <ele>60.3</ele>
        <time>2024-01-12T15:13:26Z</time>
      </trkpt>
      <trkpt lat="49.87196" lon="2.31268">
        <ele>60.3</ele>
        <time>2024-01-12T15:13:27Z</time>
      </trkpt>
      <trkpt lat="49.87197" lon="2.31268">
        <ele>60.3</ele>
        <time>2024-01-12T15:13:28Z</time>
      </trkpt>
      <trkpt lat="49.87199" lon="2.31267">
        <ele>60.4</ele>
        <time>2024-01-12T15:13:29Z</time>
      </trkpt>
      <trkpt lat="49.872" lon="2.31267">
        <ele>60.4</ele>
        <time>2024-01-12T15:13:30Z</time>
      </trkpt>
      <trkpt lat="49.87201" lon="2.31267">
        <ele>60.4</ele>
        <time>2024-01-12T15:13:31Z</time>
      </trkpt>
      <trkpt lat="49.87202" lon="2.31267">
        <ele>60.4</ele>
        <time>2024-01-12T15:13:32Z</time>
      </trkpt>
      <trkpt lat="49.87203" lon="2.31267">
        <ele>60.5</ele>
        <time>2024-01-12T15:13:34Z</time>
      </trkpt>
      <trkpt lat="49.87203" lon="2.31268">
        <ele>60.5</ele>
        <time>2024-01-12T15:13:35Z</time>
      </trkpt>
      <trkpt lat="49.87204" lon="2.31268">
        <ele>60.5</ele>
        <time>2024-01-12T15:13:36Z</time>
      </trkpt>
      <trkpt lat="49.87205" lon="2.31268">
        <ele>60.6</ele>
        <time>2024-01-12T15:13:37Z</time>
      </trkpt>
      <trkpt lat="49.87207" lon="2.31268">
        <ele>60.6</ele>
        <time>2024-01-12T15:13:38Z</time>
      </trkpt>
      <trkpt lat="49.8721" lon="2.31268">
        <ele>60.7</ele>
        <time>2024-01-12T15:13:39Z</time>
      </trkpt>
      <trkpt lat="49.87211" lon="2.31268">
        <ele>60.7</ele>
        <time>2024-01-12T15:13:40Z</time>
      </trkpt>
      <trkpt lat="49.87213" lon="2.31268">
        <ele>60.8</ele>
        <time>2024-01-12T15:13:41Z</time>
      </trkpt>
      <trkpt lat="49.87214" lon="2.31268">
        <ele>60.8</ele>
        <time>2024-01-12T15:13:42Z</time>
      </trkpt>
      <trkpt lat="49.87217" lon="2.31268">
        <ele>61</ele>
        <time>2024-01-12T15:13:44Z</time>
      </trkpt>
      <trkpt lat="49.87218" lon="2.31268">
        <ele>61</ele>
        <time>2024-01-12T15:13:45Z</time>
      </trkpt>
      <trkpt lat="49.87219" lon="2.31267">
        <ele>61.1</ele>
        <time>2024-01-12T15:13:46Z</time>
      </trkpt>
      <trkpt lat="49.8722" lon="2.31267">
        <ele>61.1</ele>
        <time>2024-01-12T15:13:47Z</time>
      </trkpt>
      <trkpt lat="49.87221" lon="2.31267">
        <ele>61.2</ele>
        <time>2024-01-12T15:13:48Z</time>
      </trkpt>
      <trkpt lat="49.87222" lon="2.31267">
        <ele>61.2</ele>
        <time>2024-01-12T15:13:49Z</time>
      </trkpt>
      <trkpt lat="49.87223" lon="2.31267">
        <ele>61.3</ele>
        <time>2024-01-12T15:13:50Z</time>
      </trkpt>
      <trkpt lat="49.87224" lon="2.31267">
        <ele>61.3</ele>
        <time>2024-01-12T15:13:52Z</time>
      </trkpt>
      <trkpt lat="49.87225" lon="2.31267">
        <ele>61.3</ele>
        <time>2024-01-12T15:13:53Z</time>
      </trkpt>
      <trkpt lat="49.87225" lon="2.31267">
        <ele>61.3</ele>
        <time>2024-01-12T15:13:54Z</time>
      </trkpt>
      <trkpt lat="49.87226" lon="2.31266">
        <ele>61.4</ele>
        <time>2024-01-12T15:13:55Z</time>
      </trkpt>
      <trkpt lat="49.87227" lon="2.31266">
        <ele>61.4</ele>
        <time>2024-01-12T15:13:56Z</time>
      </trkpt>
      <trkpt lat="49.87228" lon="2.31266">
        <ele>61.5</ele>
        <time>2024-01-12T15:13:57Z</time>
      </trkpt>
      <trkpt lat="49.87229" lon="2.31265">
        <ele>61.6</ele>
        <time>2024-01-12T15:13:58Z</time>
      </trkpt>
      <trkpt lat="49.87231" lon="2.31264">
        <ele>61.6</ele>
        <time>2024-01-12T15:14:00Z</time>
      </trkpt>
      <trkpt lat="49.87232" lon="2.31263">
        <ele>61.7</ele>
        <time>2024-01-12T15:14:01Z</time>
      </trkpt>
      <trkpt lat="49.87233" lon="2.31262">
        <ele>61.8</ele>
        <time>2024-01-12T15:14:02Z</time>
      </trkpt>
      <trkpt lat="49.87234" lon="2.31261">
        <ele>61.8</ele>
        <time>2024-01-12T15:14:03Z</time>
      </trkpt>
      <trkpt lat="49.87233" lon="2.31262">
        <ele>61.9</ele>
        <time>2024-01-12T15:14:04Z</time>
      </trkpt>
      <trkpt lat="49.87233" lon="2.31262">
        <ele>62</ele>
        <time>2024-01-12T15:14:05Z</time>
      </trkpt>
      <trkpt lat="49.87234" lon="2.31261">
        <ele>62</ele>
        <time>2024-01-12T15:14:06Z</time>
      </trkpt>
      <trkpt lat="49.87235" lon="2.31261">
        <ele>62.1</ele>
        <time>2024-01-12T15:14:07Z</time>
      </trkpt>
      <trkpt lat="49.87236" lon="2.31261">
        <ele>62.1</ele>
        <time>2024-01-12T15:14:08Z</time>
      </trkpt>
      <trkpt lat="49.87237" lon="2.3126">
        <ele>62.1</ele>
        <time>2024-01-12T15:14:09Z</time>
      </trkpt>
      <trkpt lat="49.87238" lon="2.3126">
        <ele>62.2</ele>
        <time>2024-01-12T15:14:10Z</time>
      </trkpt>
      <trkpt lat="49.87238" lon="2.3126">
        <ele>62.2</ele>
        <time>2024-01-12T15:14:11Z</time>
      </trkpt>
      <trkpt lat="49.87239" lon="2.3126">
        <ele>62.3</ele>
        <time>2024-01-12T15:14:12Z</time>
      </trkpt>
      <trkpt lat="49.8724" lon="2.3126">
        <ele>62.3</ele>
        <time>2024-01-12T15:14:13Z</time>
      </trkpt>
      <trkpt lat="49.87241" lon="2.31259">
        <ele>62.4</ele>
        <time>2024-01-12T15:14:14Z</time>
      </trkpt>
      <trkpt lat="49.87242" lon="2.31259">
        <ele>62.4</ele>
        <time>2024-01-12T15:14:15Z</time>
      </trkpt>
      <trkpt lat="49.87243" lon="2.31259">
        <ele>62.5</ele>
        <time>2024-01-12T15:14:16Z</time>
      </trkpt>
      <trkpt lat="49.87244" lon="2.31259">
        <ele>62.5</ele>
        <time>2024-01-12T15:14:17Z</time>
      </trkpt>
      <trkpt lat="49.87245" lon="2.31259">
        <ele>62.6</ele>
        <time>2024-01-12T15:14:18Z</time>
      </trkpt>
      <trkpt lat="49.87246" lon="2.3126">
        <ele>62.6</ele>
        <time>2024-01-12T15:14:19Z</time>
      </trkpt>
      <trkpt lat="49.87247" lon="2.3126">
        <ele>62.7</ele>
        <time>2024-01-12T15:14:20Z</time>
      </trkpt>
      <trkpt lat="49.87248" lon="2.3126">
        <ele>62.7</ele>
        <time>2024-01-12T15:14:21Z</time>
      </trkpt>
      <trkpt lat="49.87249" lon="2.3126">
        <ele>62.8</ele>
        <time>2024-01-12T15:14:23Z</time>
      </trkpt>
      <trkpt lat="49.8725" lon="2.31261">
        <ele>62.8</ele>
        <time>2024-01-12T15:14:24Z</time>
      </trkpt>
      <trkpt lat="49.8725" lon="2.31261">
        <ele>62.8</ele>
        <time>2024-01-12T15:14:25Z</time>
      </trkpt>
      <trkpt lat="49.87251" lon="2.31261">
        <ele>62.9</ele>
        <time>2024-01-12T15:14:26Z</time>
      </trkpt>
      <trkpt lat="49.87253" lon="2.31261">
        <ele>62.9</ele>
        <time>2024-01-12T15:14:27Z</time>
      </trkpt>
      <trkpt lat="49.87254" lon="2.31261">
        <ele>63</ele>
        <time>2024-01-12T15:14:28Z</time>
      </trkpt>
      <trkpt lat="49.87256" lon="2.31262">
        <ele>63.1</ele>
        <time>2024-01-12T15:14:29Z</time>
      </trkpt>
      <trkpt lat="49.87257" lon="2.31262">
        <ele>63.2</ele>
        <time>2024-01-12T15:14:30Z</time>
      </trkpt>
      <trkpt lat="49.87259" lon="2.31262">
        <ele>63.3</ele>
        <time>2024-01-12T15:14:31Z</time>
      </trkpt>
      <trkpt lat="49.87261" lon="2.31262">
        <ele>63.3</ele>
        <time>2024-01-12T15:14:32Z</time>
      </trkpt>
      <trkpt lat="49.87262" lon="2.31261">
        <ele>63.4</ele>
        <time>2024-01-12T15:14:34Z</time>
      </trkpt>
      <trkpt lat="49.87264" lon="2.31261">
        <ele>63.5</ele>
        <time>2024-01-12T15:14:35Z</time>
      </trkpt>
      <trkpt lat="49.87266" lon="2.31261">
        <ele>63.6</ele>
        <time>2024-01-12T15:14:36Z</time>
      </trkpt>
      <trkpt lat="49.87267" lon="2.3126">
        <ele>63.7</ele>
        <time>2024-01-12T15:14:37Z</time>
      </trkpt>
      <trkpt lat="49.87268" lon="2.3126">
        <ele>63.7</ele>
        <time>2024-01-12T15:14:38Z</time>
      </trkpt>
      <trkpt lat="49.87269" lon="2.31259">
        <ele>63.8</ele>
        <time>2024-01-12T15:14:39Z</time>
      </trkpt>
      <trkpt lat="49.8727" lon="2.31259">
        <ele>63.8</ele>
        <time>2024-01-12T15:14:40Z</time>
      </trkpt>
      <trkpt lat="49.87271" lon="2.31259">
        <ele>63.9</ele>
        <time>2024-01-12T15:14:41Z</time>
      </trkpt>
      <trkpt lat="49.87272" lon="2.31259">
        <ele>63.9</ele>
        <time>2024-01-12T15:14:42Z</time>
      </trkpt>
      <trkpt lat="49.87273" lon="2.31259">
        <ele>64</ele>
        <time>2024-01-12T15:14:43Z</time>
      </trkpt>
      <trkpt lat="49.87274" lon="2.31259">
        <ele>64</ele>
        <time>2024-01-12T15:14:44Z</time>
      </trkpt>
      <trkpt lat="49.87274" lon="2.3126">
        <ele>64.1</ele>
        <time>2024-01-12T15:14:45Z</time>
      </trkpt>
      <trkpt lat="49.87275" lon="2.3126">
        <ele>64.1</ele>
        <time>2024-01-12T15:14:46Z</time>
      </trkpt>
      <trkpt lat="49.87276" lon="2.3126">
        <ele>64.2</ele>
        <time>2024-01-12T15:14:47Z</time>
      </trkpt>
      <trkpt lat="49.87277" lon="2.3126">
        <ele>64.2</ele>
        <time>2024-01-12T15:14:48Z</time>
      </trkpt>
      <trkpt lat="49.87278" lon="2.3126">
        <ele>64.3</ele>
        <time>2024-01-12T15:14:49Z</time>
      </trkpt>
      <trkpt lat="49.8728" lon="2.3126">
        <ele>64.3</ele>
        <time>2024-01-12T15:14:50Z</time>
      </trkpt>
      <trkpt lat="49.87281" lon="2.3126">
        <ele>64.4</ele>
        <time>2024-01-12T15:14:51Z</time>
      </trkpt>
      <trkpt lat="49.87282" lon="2.3126">
        <ele>64.4</ele>
        <time>2024-01-12T15:14:52Z</time>
      </trkpt>
      <trkpt lat="49.87283" lon="2.3126">
        <ele>64.5</ele>
        <time>2024-01-12T15:14:53Z</time>
      </trkpt>
      <trkpt lat="49.87284" lon="2.3126">
        <ele>64.5</ele>
        <time>2024-01-12T15:14:54Z</time>
      </trkpt>
      <trkpt lat="49.87285" lon="2.3126">
        <ele>64.6</ele>
        <time>2024-01-12T15:14:55Z</time>
      </trkpt>
      <trkpt lat="49.87287" lon="2.3126">
        <ele>64.6</ele>
        <time>2024-01-12T15:14:56Z</time>
      </trkpt>
      <trkpt lat="49.87289" lon="2.31261">
        <ele>64.7</ele>
        <time>2024-01-12T15:14:57Z</time>
      </trkpt>
      <trkpt lat="49.8729" lon="2.31261">
        <ele>64.7</ele>
        <time>2024-01-12T15:14:58Z</time>
      </trkpt>
      <trkpt lat="49.8729" lon="2.31261">
        <ele>64.8</ele>
        <time>2024-01-12T15:14:59Z</time>
      </trkpt>
      <trkpt lat="49.87292" lon="2.31261">
        <ele>64.8</ele>
        <time>2024-01-12T15:15:00Z</time>
      </trkpt>
      <trkpt lat="49.87293" lon="2.31261">
        <ele>64.8</ele>
        <time>2024-01-12T15:15:01Z</time>
      </trkpt>
      <trkpt lat="49.87294" lon="2.31261">
        <ele>64.9</ele>
        <time>2024-01-12T15:15:02Z</time>
      </trkpt>
      <trkpt lat="49.87295" lon="2.3126">
        <ele>64.9</ele>
        <time>2024-01-12T15:15:03Z</time>
      </trkpt>
      <trkpt lat="49.87295" lon="2.3126">
        <ele>64.9</ele>
        <time>2024-01-12T15:15:04Z</time>
      </trkpt>
      <trkpt lat="49.87296" lon="2.31259">
        <ele>65</ele>
        <time>2024-01-12T15:15:05Z</time>
      </trkpt>
      <trkpt lat="49.87297" lon="2.31259">
        <ele>65</ele>
        <time>2024-01-12T15:15:06Z</time>
      </trkpt>
      <trkpt lat="49.87298" lon="2.31259">
        <ele>65</ele>
        <time>2024-01-12T15:15:07Z</time>
      </trkpt>
      <trkpt lat="49.87299" lon="2.31258">
        <ele>65</ele>
        <time>2024-01-12T15:15:08Z</time>
      </trkpt>
      <trkpt lat="49.873" lon="2.31258">
        <ele>65.1</ele>
        <time>2024-01-12T15:15:09Z</time>
      </trkpt>
      <trkpt lat="49.873" lon="2.31258">
        <ele>65.1</ele>
        <time>2024-01-12T15:15:10Z</time>
      </trkpt>
      <trkpt lat="49.87301" lon="2.31258">
        <ele>65.1</ele>
        <time>2024-01-12T15:15:11Z</time>
      </trkpt>
      <trkpt lat="49.87301" lon="2.31258">
        <ele>65.1</ele>
        <time>2024-01-12T15:15:12Z</time>
      </trkpt>
      <trkpt lat="49.87301" lon="2.31258">
        <ele>65.1</ele>
        <time>2024-01-12T15:15:13Z</time>
      </trkpt>
      <trkpt lat="49.87302" lon="2.31258">
        <ele>65.2</ele>
        <time>2024-01-12T15:15:14Z</time>
      </trkpt>
      <trkpt lat="49.87302" lon="2.31258">
        <ele>65.2</ele>
        <time>2024-01-12T15:15:15Z</time>
      </trkpt>
      <trkpt lat="49.87303" lon="2.31258">
        <ele>65.2</ele>
        <time>2024-01-12T15:15:16Z</time>
      </trkpt>
      <trkpt lat="49.87303" lon="2.31257">
        <ele>65.2</ele>
        <time>2024-01-12T15:15:17Z</time>
      </trkpt>
      <trkpt lat="49.87304" lon="2.31257">
        <ele>65.2</ele>
        <time>2024-01-12T15:15:18Z</time>
      </trkpt>
      <trkpt lat="49.87305" lon="2.31257">
        <ele>65.3</ele>
        <time>2024-01-12T15:15:19Z</time>
      </trkpt>
      <trkpt lat="49.87306" lon="2.31257">
        <ele>65.3</ele>
        <time>2024-01-12T15:15:20Z</time>
      </trkpt>
      <trkpt lat="49.87307" lon="2.31257">
        <ele>65.3</ele>
        <time>2024-01-12T15:15:21Z</time>
      </trkpt>
      <trkpt lat="49.87307" lon="2.31257">
        <ele>65.4</ele>
        <time>2024-01-12T15:15:22Z</time>
      </trkpt>
      <trkpt lat="49.87308" lon="2.31257">
        <ele>65.4</ele>
        <time>2024-01-12T15:15:23Z</time>
      </trkpt>
      <trkpt lat="49.87309" lon="2.31257">
        <ele>65.4</ele>
        <time>2024-01-12T15:15:24Z</time>
      </trkpt>
      <trkpt lat="49.8731" lon="2.31256">
        <ele>65.5</ele>
        <time>2024-01-12T15:15:25Z</time>
      </trkpt>
      <trkpt lat="49.87311" lon="2.31256">
        <ele>65.5</ele>
        <time>2024-01-12T15:15:26Z</time>
      </trkpt>
      <trkpt lat="49.87312" lon="2.31256">
        <ele>65.5</ele>
        <time>2024-01-12T15:15:27Z</time>
      </trkpt>
      <trkpt lat="49.87313" lon="2.31256">
        <ele>65.6</ele>
        <time>2024-01-12T15:15:28Z</time>
      </trkpt>
      <trkpt lat="49.87313" lon="2.31256">
        <ele>65.6</ele>
        <time>2024-01-12T15:15:29Z</time>
      </trkpt>
      <trkpt lat="49.87314" lon="2.31256">
        <ele>65.6</ele>
        <time>2024-01-12T15:15:30Z</time>
      </trkpt>
      <trkpt lat="49.87315" lon="2.31256">
        <ele>65.7</ele>
        <time>2024-01-12T15:15:31Z</time>
      </trkpt>
      <trkpt lat="49.87316" lon="2.31256">
        <ele>65.7</ele>
        <time>2024-01-12T15:15:32Z</time>
      </trkpt>
      <trkpt lat="49.87317" lon="2.31256">
        <ele>65.7</ele>
        <time>2024-01-12T15:15:33Z</time>
      </trkpt>
      <trkpt lat="49.87318" lon="2.31256">
        <ele>65.7</ele>
        <time>2024-01-12T15:15:34Z</time>
      </trkpt>
      <trkpt lat="49.87319" lon="2.31256">
        <ele>65.8</ele>
        <time>2024-01-12T15:15:35Z</time>
      </trkpt>
      <trkpt lat="49.8732" lon="2.31256">
        <ele>65.8</ele>
        <time>2024-01-12T15:15:36Z</time>
      </trkpt>
      <trkpt lat="49.87321" lon="2.31257">
        <ele>65.8</ele>
        <time>2024-01-12T15:15:37Z</time>
      </trkpt>
      <trkpt lat="49.87322" lon="2.31257">
        <ele>65.9</ele>
        <time>2024-01-12T15:15:38Z</time>
      </trkpt>
      <trkpt lat="49.87323" lon="2.31257">
        <ele>65.9</ele>
        <time>2024-01-12T15:15:39Z</time>
      </trkpt>
      <trkpt lat="49.87324" lon="2.31257">
        <ele>65.9</ele>
        <time>2024-01-12T15:15:40Z</time>
      </trkpt>
      <trkpt lat="49.87326" lon="2.31257">
        <ele>65.9</ele>
        <time>2024-01-12T15:15:41Z</time>
      </trkpt>
      <trkpt lat="49.87327" lon="2.31257">
        <ele>66</ele>
        <time>2024-01-12T15:15:42Z</time>
      </trkpt>
      <trkpt lat="49.87328" lon="2.31257">
        <ele>66</ele>
        <time>2024-01-12T15:15:43Z</time>
      </trkpt>
      <trkpt lat="49.87329" lon="2.31257">
        <ele>66</ele>
        <time>2024-01-12T15:15:44Z</time>
      </trkpt>
      <trkpt lat="49.8733" lon="2.31257">
        <ele>66.1</ele>
        <time>2024-01-12T15:15:45Z</time>
      </trkpt>
      <trkpt lat="49.87331" lon="2.31256">
        <ele>66.1</ele>
        <time>2024-01-12T15:15:46Z</time>
      </trkpt>
      <trkpt lat="49.87332" lon="2.31256">
        <ele>66.1</ele>
        <time>2024-01-12T15:15:47Z</time>
      </trkpt>
      <trkpt lat="49.87333" lon="2.31256">
        <ele>66.1</ele>
        <time>2024-01-12T15:15:48Z</time>
      </trkpt>
      <trkpt lat="49.87334" lon="2.31256">
        <ele>66.1</ele>
        <time>2024-01-12T15:15:49Z</time>
      </trkpt>
      <trkpt lat="49.87335" lon="2.31256">
        <ele>66.2</ele>
        <time>2024-01-12T15:15:50Z</time>
      </trkpt>
      <trkpt lat="49.87336" lon="2.31256">
        <ele>66.2</ele>
        <time>2024-01-12T15:15:51Z</time>
      </trkpt>
      <trkpt lat="49.87338" lon="2.31256">
        <ele>66.2</ele>
        <time>2024-01-12T15:15:52Z</time>
      </trkpt>
      <trkpt lat="49.87339" lon="2.31255">
        <ele>66.2</ele>
        <time>2024-01-12T15:15:53Z</time>
      </trkpt>
      <trkpt lat="49.8734" lon="2.31255">
        <ele>66.2</ele>
        <time>2024-01-12T15:15:54Z</time>
      </trkpt>
      <trkpt lat="49.87341" lon="2.31255">
        <ele>66.2</ele>
        <time>2024-01-12T15:15:55Z</time>
      </trkpt>
      <trkpt lat="49.87342" lon="2.31255">
        <ele>66.2</ele>
        <time>2024-01-12T15:15:56Z</time>
      </trkpt>
      <trkpt lat="49.87343" lon="2.31255">
        <ele>66.3</ele>
        <time>2024-01-12T15:15:57Z</time>
      </trkpt>
      <trkpt lat="49.87344" lon="2.31255">
        <ele>66.3</ele>
        <time>2024-01-12T15:15:58Z</time>
      </trkpt>
      <trkpt lat="49.87345" lon="2.31255">
        <ele>66.3</ele>
        <time>2024-01-12T15:15:59Z</time>
      </trkpt>
      <trkpt lat="49.87346" lon="2.31255">
        <ele>66.3</ele>
        <time>2024-01-12T15:16:00Z</time>
      </trkpt>
      <trkpt lat="49.87348" lon="2.31255">
        <ele>66.3</ele>
        <time>2024-01-12T15:16:01Z</time>
      </trkpt>
      <trkpt lat="49.87349" lon="2.31255">
        <ele>66.3</ele>
        <time>2024-01-12T15:16:02Z</time>
      </trkpt>
      <trkpt lat="49.8735" lon="2.31255">
        <ele>66.3</ele>
        <time>2024-01-12T15:16:03Z</time>
      </trkpt>
      <trkpt lat="49.87351" lon="2.31255">
        <ele>66.3</ele>
        <time>2024-01-12T15:16:04Z</time>
      </trkpt>
      <trkpt lat="49.87352" lon="2.31255">
        <ele>66.3</ele>
        <time>2024-01-12T15:16:05Z</time>
      </trkpt>
      <trkpt lat="49.87353" lon="2.31255">
        <ele>66.3</ele>
        <time>2024-01-12T15:16:06Z</time>
      </trkpt>
      <trkpt lat="49.87354" lon="2.31255">
        <ele>66.3</ele>
        <time>2024-01-12T15:16:07Z</time>
      </trkpt>
      <trkpt lat="49.87356" lon="2.31255">
        <ele>66.3</ele>
        <time>2024-01-12T15:16:08Z</time>
      </trkpt>
      <trkpt lat="49.87358" lon="2.31255">
        <ele>66.3</ele>
        <time>2024-01-12T15:16:10Z</time>
      </trkpt>
      <trkpt lat="49.8736" lon="2.31255">
        <ele>66.3</ele>
        <time>2024-01-12T15:16:11Z</time>
      </trkpt>
      <trkpt lat="49.87361" lon="2.31255">
        <ele>66.3</ele>
        <time>2024-01-12T15:16:12Z</time>
      </trkpt>
      <trkpt lat="49.87363" lon="2.31255">
        <ele>66.3</ele>
        <time>2024-01-12T15:16:13Z</time>
      </trkpt>
      <trkpt lat="49.87364" lon="2.31255">
        <ele>66.3</ele>
        <time>2024-01-12T15:16:14Z</time>
      </trkpt>
      <trkpt lat="49.87364" lon="2.31255">
        <ele>66.3</ele>
        <time>2024-01-12T15:16:15Z</time>
      </trkpt>
      <trkpt lat="49.87365" lon="2.31256">
        <ele>66.3</ele>
        <time>2024-01-12T15:16:16Z</time>
      </trkpt>
      <trkpt lat="49.87367" lon="2.31256">
        <ele>66.3</ele>
        <time>2024-01-12T15:16:17Z</time>
      </trkpt>
      <trkpt lat="49.87368" lon="2.31256">
        <ele>66.3</ele>
        <time>2024-01-12T15:16:18Z</time>
      </trkpt>
      <trkpt lat="49.87369" lon="2.31256">
        <ele>66.3</ele>
        <time>2024-01-12T15:16:19Z</time>
      </trkpt>
      <trkpt lat="49.8737" lon="2.31257">
        <ele>66.3</ele>
        <time>2024-01-12T15:16:20Z</time>
      </trkpt>
      <trkpt lat="49.87371" lon="2.31257">
        <ele>66.3</ele>
        <time>2024-01-12T15:16:21Z</time>
      </trkpt>
      <trkpt lat="49.87372" lon="2.31257">
        <ele>66.4</ele>
        <time>2024-01-12T15:16:22Z</time>
      </trkpt>
      <trkpt lat="49.87373" lon="2.31258">
        <ele>66.4</ele>
        <time>2024-01-12T15:16:23Z</time>
      </trkpt>
      <trkpt lat="49.87374" lon="2.31258">
        <ele>66.4</ele>
        <time>2024-01-12T15:16:24Z</time>
      </trkpt>
      <trkpt lat="49.87375" lon="2.31258">
        <ele>66.4</ele>
        <time>2024-01-12T15:16:25Z</time>
      </trkpt>
      <trkpt lat="49.87376" lon="2.31258">
        <ele>66.4</ele>
        <time>2024-01-12T15:16:26Z</time>
      </trkpt>
      <trkpt lat="49.87377" lon="2.31259">
        <ele>66.4</ele>
        <time>2024-01-12T15:16:27Z</time>
      </trkpt>
      <trkpt lat="49.87378" lon="2.3126">
        <ele>66.4</ele>
        <time>2024-01-12T15:16:28Z</time>
      </trkpt>
      <trkpt lat="49.87379" lon="2.3126">
        <ele>66.4</ele>
        <time>2024-01-12T15:16:29Z</time>
      </trkpt>
      <trkpt lat="49.8738" lon="2.3126">
        <ele>66.4</ele>
        <time>2024-01-12T15:16:30Z</time>
      </trkpt>
      <trkpt lat="49.87381" lon="2.3126">
        <ele>66.4</ele>
        <time>2024-01-12T15:16:31Z</time>
      </trkpt>
      <trkpt lat="49.87382" lon="2.31259">
        <ele>66.4</ele>
        <time>2024-01-12T15:16:32Z</time>
      </trkpt>
      <trkpt lat="49.87382" lon="2.31259">
        <ele>66.4</ele>
        <time>2024-01-12T15:16:33Z</time>
      </trkpt>
      <trkpt lat="49.87383" lon="2.31259">
        <ele>66.4</ele>
        <time>2024-01-12T15:16:34Z</time>
      </trkpt>
      <trkpt lat="49.87384" lon="2.31259">
        <ele>66.4</ele>
        <time>2024-01-12T15:16:35Z</time>
      </trkpt>
      <trkpt lat="49.87385" lon="2.31259">
        <ele>66.4</ele>
        <time>2024-01-12T15:16:36Z</time>
      </trkpt>
      <trkpt lat="49.87386" lon="2.31258">
        <ele>66.4</ele>
        <time>2024-01-12T15:16:37Z</time>
      </trkpt>
      <trkpt lat="49.87386" lon="2.31259">
        <ele>66.4</ele>
        <time>2024-01-12T15:16:38Z</time>
      </trkpt>
      <trkpt lat="49.87387" lon="2.31259">
        <ele>66.4</ele>
        <time>2024-01-12T15:16:39Z</time>
      </trkpt>
      <trkpt lat="49.87388" lon="2.31259">
        <ele>66.4</ele>
        <time>2024-01-12T15:16:40Z</time>
      </trkpt>
      <trkpt lat="49.87388" lon="2.3126">
        <ele>66.4</ele>
        <time>2024-01-12T15:16:41Z</time>
      </trkpt>
      <trkpt lat="49.87389" lon="2.3126">
        <ele>66.3</ele>
        <time>2024-01-12T15:16:42Z</time>
      </trkpt>
      <trkpt lat="49.8739" lon="2.3126">
        <ele>66.3</ele>
        <time>2024-01-12T15:16:43Z</time>
      </trkpt>
      <trkpt lat="49.87391" lon="2.31259">
        <ele>66.3</ele>
        <time>2024-01-12T15:16:44Z</time>
      </trkpt>
      <trkpt lat="49.87391" lon="2.31259">
        <ele>66.3</ele>
        <time>2024-01-12T15:16:45Z</time>
      </trkpt>
      <trkpt lat="49.87392" lon="2.31259">
        <ele>66.3</ele>
        <time>2024-01-12T15:16:46Z</time>
      </trkpt>
      <trkpt lat="49.87393" lon="2.31259">
        <ele>66.3</ele>
        <time>2024-01-12T15:16:47Z</time>
      </trkpt>
      <trkpt lat="49.87394" lon="2.31258">
        <ele>66.3</ele>
        <time>2024-01-12T15:16:48Z</time>
      </trkpt>
      <trkpt lat="49.87396" lon="2.31258">
        <ele>66.3</ele>
        <time>2024-01-12T15:16:49Z</time>
      </trkpt>
      <trkpt lat="49.87397" lon="2.31258">
        <ele>66.3</ele>
        <time>2024-01-12T15:16:50Z</time>
      </trkpt>
      <trkpt lat="49.87398" lon="2.31258">
        <ele>66.3</ele>
        <time>2024-01-12T15:16:51Z</time>
      </trkpt>
      <trkpt lat="49.87399" lon="2.31258">
        <ele>66.3</ele>
        <time>2024-01-12T15:16:52Z</time>
      </trkpt>
      <trkpt lat="49.874" lon="2.31258">
        <ele>66.3</ele>
        <time>2024-01-12T15:16:53Z</time>
      </trkpt>
      <trkpt lat="49.874" lon="2.31259">
        <ele>66.2</ele>
        <time>2024-01-12T15:16:54Z</time>
      </trkpt>
      <trkpt lat="49.87401" lon="2.3126">
        <ele>66.2</ele>
        <time>2024-01-12T15:16:55Z</time>
      </trkpt>
      <trkpt lat="49.87401" lon="2.3126">
        <ele>66.2</ele>
        <time>2024-01-12T15:16:56Z</time>
      </trkpt>
      <trkpt lat="49.87402" lon="2.3126">
        <ele>66.2</ele>
        <time>2024-01-12T15:16:57Z</time>
      </trkpt>
      <trkpt lat="49.87403" lon="2.3126">
        <ele>66.2</ele>
        <time>2024-01-12T15:16:58Z</time>
      </trkpt>
      <trkpt lat="49.87404" lon="2.3126">
        <ele>66.2</ele>
        <time>2024-01-12T15:16:59Z</time>
      </trkpt>
      <trkpt lat="49.87405" lon="2.3126">
        <ele>66.2</ele>
        <time>2024-01-12T15:17:00Z</time>
      </trkpt>
      <trkpt lat="49.87406" lon="2.31259">
        <ele>66.2</ele>
        <time>2024-01-12T15:17:01Z</time>
      </trkpt>
      <trkpt lat="49.87407" lon="2.31259">
        <ele>66.2</ele>
        <time>2024-01-12T15:17:02Z</time>
      </trkpt>
      <trkpt lat="49.87409" lon="2.31258">
        <ele>66.2</ele>
        <time>2024-01-12T15:17:04Z</time>
      </trkpt>
      <trkpt lat="49.8741" lon="2.31257">
        <ele>66.2</ele>
        <time>2024-01-12T15:17:05Z</time>
      </trkpt>
      <trkpt lat="49.87411" lon="2.31257">
        <ele>66.2</ele>
        <time>2024-01-12T15:17:06Z</time>
      </trkpt>
      <trkpt lat="49.87412" lon="2.31257">
        <ele>66.2</ele>
        <time>2024-01-12T15:17:07Z</time>
      </trkpt>
      <trkpt lat="49.87412" lon="2.31257">
        <ele>66.1</ele>
        <time>2024-01-12T15:17:08Z</time>
      </trkpt>
      <trkpt lat="49.87413" lon="2.31256">
        <ele>66.1</ele>
        <time>2024-01-12T15:17:09Z</time>
      </trkpt>
      <trkpt lat="49.87414" lon="2.31256">
        <ele>66.1</ele>
        <time>2024-01-12T15:17:10Z</time>
      </trkpt>
      <trkpt lat="49.87415" lon="2.31256">
        <ele>66.1</ele>
        <time>2024-01-12T15:17:11Z</time>
      </trkpt>
      <trkpt lat="49.87416" lon="2.31256">
        <ele>66.1</ele>
        <time>2024-01-12T15:17:12Z</time>
      </trkpt>
      <trkpt lat="49.87417" lon="2.31256">
        <ele>66.1</ele>
        <time>2024-01-12T15:17:13Z</time>
      </trkpt>
      <trkpt lat="49.87418" lon="2.31256">
        <ele>66.1</ele>
        <time>2024-01-12T15:17:14Z</time>
      </trkpt>
      <trkpt lat="49.8742" lon="2.31256">
        <ele>66.1</ele>
        <time>2024-01-12T15:17:15Z</time>
      </trkpt>
      <trkpt lat="49.87422" lon="2.31255">
        <ele>66.1</ele>
        <time>2024-01-12T15:17:16Z</time>
      </trkpt>
      <trkpt lat="49.87422" lon="2.31255">
        <ele>66.1</ele>
        <time>2024-01-12T15:17:17Z</time>
      </trkpt>
      <trkpt lat="49.87423" lon="2.31255">
        <ele>66.1</ele>
        <time>2024-01-12T15:17:18Z</time>
      </trkpt>
      <trkpt lat="49.87425" lon="2.31255">
        <ele>66</ele>
        <time>2024-01-12T15:17:19Z</time>
      </trkpt>
      <trkpt lat="49.87426" lon="2.31255">
        <ele>66</ele>
        <time>2024-01-12T15:17:20Z</time>
      </trkpt>
      <trkpt lat="49.87427" lon="2.31255">
        <ele>66</ele>
        <time>2024-01-12T15:17:21Z</time>
      </trkpt>
      <trkpt lat="49.87429" lon="2.31255">
        <ele>66</ele>
        <time>2024-01-12T15:17:22Z</time>
      </trkpt>
      <trkpt lat="49.8743" lon="2.31255">
        <ele>66</ele>
        <time>2024-01-12T15:17:23Z</time>
      </trkpt>
      <trkpt lat="49.87431" lon="2.31255">
        <ele>66</ele>
        <time>2024-01-12T15:17:24Z</time>
      </trkpt>
      <trkpt lat="49.87433" lon="2.31255">
        <ele>66</ele>
        <time>2024-01-12T15:17:25Z</time>
      </trkpt>
      <trkpt lat="49.87434" lon="2.31255">
        <ele>66</ele>
        <time>2024-01-12T15:17:26Z</time>
      </trkpt>
      <trkpt lat="49.87435" lon="2.31255">
        <ele>66</ele>
        <time>2024-01-12T15:17:27Z</time>
      </trkpt>
      <trkpt lat="49.87436" lon="2.31255">
        <ele>66</ele>
        <time>2024-01-12T15:17:28Z</time>
      </trkpt>
      <trkpt lat="49.87438" lon="2.31255">
        <ele>66</ele>
        <time>2024-01-12T15:17:29Z</time>
      </trkpt>
      <trkpt lat="49.87439" lon="2.31255">
        <ele>66</ele>
        <time>2024-01-12T15:17:30Z</time>
      </trkpt>
      <trkpt lat="49.87441" lon="2.31255">
        <ele>66</ele>
        <time>2024-01-12T15:17:31Z</time>
      </trkpt>
      <trkpt lat="49.87442" lon="2.31255">
        <ele>66</ele>
        <time>2024-01-12T15:17:32Z</time>
      </trkpt>
      <trkpt lat="49.87444" lon="2.31255">
        <ele>65.9</ele>
        <time>2024-01-12T15:17:33Z</time>
      </trkpt>
      <trkpt lat="49.87445" lon="2.31255">
        <ele>65.9</ele>
        <time>2024-01-12T15:17:34Z</time>
      </trkpt>
      <trkpt lat="49.87447" lon="2.31256">
        <ele>65.9</ele>
        <time>2024-01-12T15:17:35Z</time>
      </trkpt>
      <trkpt lat="49.87448" lon="2.31256">
        <ele>65.9</ele>
        <time>2024-01-12T15:17:36Z</time>
      </trkpt>
      <trkpt lat="49.87449" lon="2.31257">
        <ele>65.9</ele>
        <time>2024-01-12T15:17:37Z</time>
      </trkpt>
      <trkpt lat="49.87451" lon="2.31257">
        <ele>65.9</ele>
        <time>2024-01-12T15:17:38Z</time>
      </trkpt>
      <trkpt lat="49.87452" lon="2.31257">
        <ele>65.9</ele>
        <time>2024-01-12T15:17:39Z</time>
      </trkpt>
      <trkpt lat="49.87453" lon="2.31257">
        <ele>65.9</ele>
        <time>2024-01-12T15:17:40Z</time>
      </trkpt>
      <trkpt lat="49.87455" lon="2.31257">
        <ele>65.9</ele>
        <time>2024-01-12T15:17:41Z</time>
      </trkpt>
      <trkpt lat="49.87456" lon="2.31257">
        <ele>65.9</ele>
        <time>2024-01-12T15:17:42Z</time>
      </trkpt>
      <trkpt lat="49.87457" lon="2.31257">
        <ele>65.9</ele>
        <time>2024-01-12T15:17:43Z</time>
      </trkpt>
      <trkpt lat="49.87458" lon="2.31257">
        <ele>65.9</ele>
        <time>2024-01-12T15:17:44Z</time>
      </trkpt>
      <trkpt lat="49.87459" lon="2.31256">
        <ele>65.8</ele>
        <time>2024-01-12T15:17:45Z</time>
      </trkpt>
      <trkpt lat="49.8746" lon="2.31255">
        <ele>65.8</ele>
        <time>2024-01-12T15:17:46Z</time>
      </trkpt>
      <trkpt lat="49.87461" lon="2.31255">
        <ele>65.7</ele>
        <time>2024-01-12T15:17:47Z</time>
      </trkpt>
      <trkpt lat="49.87462" lon="2.31254">
        <ele>65.7</ele>
        <time>2024-01-12T15:17:48Z</time>
      </trkpt>
      <trkpt lat="49.87463" lon="2.31252">
        <ele>65.6</ele>
        <time>2024-01-12T15:17:49Z</time>
      </trkpt>
      <trkpt lat="49.87464" lon="2.31251">
        <ele>65.6</ele>
        <time>2024-01-12T15:17:50Z</time>
      </trkpt>
      <trkpt lat="49.87465" lon="2.3125">
        <ele>65.5</ele>
        <time>2024-01-12T15:17:51Z</time>
      </trkpt>
      <trkpt lat="49.87465" lon="2.31248">
        <ele>65.5</ele>
        <time>2024-01-12T15:17:52Z</time>
      </trkpt>
      <trkpt lat="49.87466" lon="2.31247">
        <ele>65.4</ele>
        <time>2024-01-12T15:17:53Z</time>
      </trkpt>
      <trkpt lat="49.87467" lon="2.31245">
        <ele>65.4</ele>
        <time>2024-01-12T15:17:54Z</time>
      </trkpt>
      <trkpt lat="49.87468" lon="2.31245">
        <ele>65.3</ele>
        <time>2024-01-12T15:17:55Z</time>
      </trkpt>
      <trkpt lat="49.87468" lon="2.31244">
        <ele>65.3</ele>
        <time>2024-01-12T15:17:56Z</time>
      </trkpt>
      <trkpt lat="49.87469" lon="2.31244">
        <ele>65.2</ele>
        <time>2024-01-12T15:17:57Z</time>
      </trkpt>
      <trkpt lat="49.8747" lon="2.31243">
        <ele>65.2</ele>
        <time>2024-01-12T15:17:58Z</time>
      </trkpt>
      <trkpt lat="49.87471" lon="2.31243">
        <ele>65.1</ele>
        <time>2024-01-12T15:17:59Z</time>
      </trkpt>
      <trkpt lat="49.87471" lon="2.31242">
        <ele>65.1</ele>
        <time>2024-01-12T15:18:00Z</time>
      </trkpt>
      <trkpt lat="49.87472" lon="2.31241">
        <ele>65.1</ele>
        <time>2024-01-12T15:18:01Z</time>
      </trkpt>
      <trkpt lat="49.87473" lon="2.3124">
        <ele>65</ele>
        <time>2024-01-12T15:18:02Z</time>
      </trkpt>
      <trkpt lat="49.87473" lon="2.31239">
        <ele>65</ele>
        <time>2024-01-12T15:18:03Z</time>
      </trkpt>
      <trkpt lat="49.87474" lon="2.31238">
        <ele>64.9</ele>
        <time>2024-01-12T15:18:04Z</time>
      </trkpt>
      <trkpt lat="49.87474" lon="2.31237">
        <ele>64.9</ele>
        <time>2024-01-12T15:18:05Z</time>
      </trkpt>
      <trkpt lat="49.87474" lon="2.31235">
        <ele>64.9</ele>
        <time>2024-01-12T15:18:06Z</time>
      </trkpt>
      <trkpt lat="49.87474" lon="2.31233">
        <ele>64.8</ele>
        <time>2024-01-12T15:18:07Z</time>
      </trkpt>
      <trkpt lat="49.87473" lon="2.31232">
        <ele>64.7</ele>
        <time>2024-01-12T15:18:08Z</time>
      </trkpt>
      <trkpt lat="49.87473" lon="2.3123">
        <ele>64.7</ele>
        <time>2024-01-12T15:18:09Z</time>
      </trkpt>
      <trkpt lat="49.87471" lon="2.31226">
        <ele>64.5</ele>
        <time>2024-01-12T15:18:10Z</time>
      </trkpt>
      <trkpt lat="49.87471" lon="2.31224">
        <ele>64.5</ele>
        <time>2024-01-12T15:18:11Z</time>
      </trkpt>
      <trkpt lat="49.8747" lon="2.31222">
        <ele>64.4</ele>
        <time>2024-01-12T15:18:12Z</time>
      </trkpt>
      <trkpt lat="49.8747" lon="2.3122">
        <ele>64.3</ele>
        <time>2024-01-12T15:18:13Z</time>
      </trkpt>
      <trkpt lat="49.87468" lon="2.31217">
        <ele>64.2</ele>
        <time>2024-01-12T15:18:15Z</time>
      </trkpt>
      <trkpt lat="49.87468" lon="2.31215">
        <ele>64.1</ele>
        <time>2024-01-12T15:18:16Z</time>
      </trkpt>
      <trkpt lat="49.87468" lon="2.31213">
        <ele>64.1</ele>
        <time>2024-01-12T15:18:17Z</time>
      </trkpt>
      <trkpt lat="49.87468" lon="2.31212">
        <ele>64</ele>
        <time>2024-01-12T15:18:18Z</time>
      </trkpt>
      <trkpt lat="49.87468" lon="2.3121">
        <ele>63.9</ele>
        <time>2024-01-12T15:18:19Z</time>
      </trkpt>
      <trkpt lat="49.87469" lon="2.31208">
        <ele>64</ele>
        <time>2024-01-12T15:18:20Z</time>
      </trkpt>
      <trkpt lat="49.87469" lon="2.31206">
        <ele>64</ele>
        <time>2024-01-12T15:18:21Z</time>
      </trkpt>
      <trkpt lat="49.8747" lon="2.31204">
        <ele>64.1</ele>
        <time>2024-01-12T15:18:23Z</time>
      </trkpt>
      <trkpt lat="49.87471" lon="2.31203">
        <ele>64.1</ele>
        <time>2024-01-12T15:18:24Z</time>
      </trkpt>
      <trkpt lat="49.87472" lon="2.31201">
        <ele>64.1</ele>
        <time>2024-01-12T15:18:25Z</time>
      </trkpt>
      <trkpt lat="49.87473" lon="2.312">
        <ele>64.2</ele>
        <time>2024-01-12T15:18:26Z</time>
      </trkpt>
      <trkpt lat="49.87474" lon="2.31199">
        <ele>64.3</ele>
        <time>2024-01-12T15:18:27Z</time>
      </trkpt>
      <trkpt lat="49.87476" lon="2.31199">
        <ele>64.4</ele>
        <time>2024-01-12T15:18:28Z</time>
      </trkpt>
      <trkpt lat="49.87476" lon="2.312">
        <ele>64.5</ele>
        <time>2024-01-12T15:18:29Z</time>
      </trkpt>
      <trkpt lat="49.87477" lon="2.312">
        <ele>64.5</ele>
        <time>2024-01-12T15:18:30Z</time>
      </trkpt>
      <trkpt lat="49.87478" lon="2.312">
        <ele>64.6</ele>
        <time>2024-01-12T15:18:31Z</time>
      </trkpt>
      <trkpt lat="49.87478" lon="2.312">
        <ele>64.7</ele>
        <time>2024-01-12T15:18:32Z</time>
      </trkpt>
      <trkpt lat="49.87479" lon="2.312">
        <ele>64.7</ele>
        <time>2024-01-12T15:18:33Z</time>
      </trkpt>
      <trkpt lat="49.8748" lon="2.31199">
        <ele>64.8</ele>
        <time>2024-01-12T15:18:34Z</time>
      </trkpt>
      <trkpt lat="49.8748" lon="2.31199">
        <ele>64.9</ele>
        <time>2024-01-12T15:18:35Z</time>
      </trkpt>
      <trkpt lat="49.87481" lon="2.31198">
        <ele>64.9</ele>
        <time>2024-01-12T15:18:36Z</time>
      </trkpt>
      <trkpt lat="49.87481" lon="2.31197">
        <ele>65</ele>
        <time>2024-01-12T15:18:37Z</time>
      </trkpt>
      <trkpt lat="49.87482" lon="2.31197">
        <ele>65</ele>
        <time>2024-01-12T15:18:38Z</time>
      </trkpt>
      <trkpt lat="49.87482" lon="2.31197">
        <ele>65</ele>
        <time>2024-01-12T15:18:39Z</time>
      </trkpt>
      <trkpt lat="49.87483" lon="2.31196">
        <ele>65</ele>
        <time>2024-01-12T15:18:40Z</time>
      </trkpt>
      <trkpt lat="49.87484" lon="2.31196">
        <ele>65</ele>
        <time>2024-01-12T15:18:41Z</time>
      </trkpt>
      <trkpt lat="49.87484" lon="2.31195">
        <ele>65</ele>
        <time>2024-01-12T15:18:42Z</time>
      </trkpt>
      <trkpt lat="49.87485" lon="2.31195">
        <ele>65</ele>
        <time>2024-01-12T15:18:43Z</time>
      </trkpt>
      <trkpt lat="49.87486" lon="2.31195">
        <ele>65</ele>
        <time>2024-01-12T15:18:44Z</time>
      </trkpt>
      <trkpt lat="49.87486" lon="2.31194">
        <ele>65</ele>
        <time>2024-01-12T15:18:45Z</time>
      </trkpt>
      <trkpt lat="49.87487" lon="2.31194">
        <ele>64.9</ele>
        <time>2024-01-12T15:18:46Z</time>
      </trkpt>
      <trkpt lat="49.87488" lon="2.31193">
        <ele>64.9</ele>
        <time>2024-01-12T15:18:47Z</time>
      </trkpt>
      <trkpt lat="49.87488" lon="2.31192">
        <ele>64.9</ele>
        <time>2024-01-12T15:18:48Z</time>
      </trkpt>
      <trkpt lat="49.87489" lon="2.31192">
        <ele>64.9</ele>
        <time>2024-01-12T15:18:49Z</time>
      </trkpt>
      <trkpt lat="49.8749" lon="2.31191">
        <ele>64.9</ele>
        <time>2024-01-12T15:18:50Z</time>
      </trkpt>
      <trkpt lat="49.87491" lon="2.3119">
        <ele>64.8</ele>
        <time>2024-01-12T15:18:51Z</time>
      </trkpt>
      <trkpt lat="49.87493" lon="2.31189">
        <ele>64.8</ele>
        <time>2024-01-12T15:18:52Z</time>
      </trkpt>
      <trkpt lat="49.87494" lon="2.31188">
        <ele>64.8</ele>
        <time>2024-01-12T15:18:53Z</time>
      </trkpt>
      <trkpt lat="49.87495" lon="2.31188">
        <ele>64.8</ele>
        <time>2024-01-12T15:18:54Z</time>
      </trkpt>
      <trkpt lat="49.87497" lon="2.31187">
        <ele>64.7</ele>
        <time>2024-01-12T15:18:55Z</time>
      </trkpt>
      <trkpt lat="49.87498" lon="2.31186">
        <ele>64.7</ele>
        <time>2024-01-12T15:18:56Z</time>
      </trkpt>
      <trkpt lat="49.87498" lon="2.31186">
        <ele>64.7</ele>
        <time>2024-01-12T15:18:57Z</time>
      </trkpt>
      <trkpt lat="49.875" lon="2.31185">
        <ele>64.7</ele>
        <time>2024-01-12T15:18:58Z</time>
      </trkpt>
      <trkpt lat="49.87501" lon="2.31184">
        <ele>64.6</ele>
        <time>2024-01-12T15:18:59Z</time>
      </trkpt>
      <trkpt lat="49.87502" lon="2.31184">
        <ele>64.6</ele>
        <time>2024-01-12T15:19:00Z</time>
      </trkpt>
      <trkpt lat="49.87504" lon="2.31182">
        <ele>64.6</ele>
        <time>2024-01-12T15:19:01Z</time>
      </trkpt>
      <trkpt lat="49.87505" lon="2.31182">
        <ele>64.6</ele>
        <time>2024-01-12T15:19:02Z</time>
      </trkpt>
      <trkpt lat="49.87506" lon="2.31181">
        <ele>64.6</ele>
        <time>2024-01-12T15:19:03Z</time>
      </trkpt>
      <trkpt lat="49.87507" lon="2.3118">
        <ele>64.5</ele>
        <time>2024-01-12T15:19:04Z</time>
      </trkpt>
      <trkpt lat="49.87509" lon="2.3118">
        <ele>64.5</ele>
        <time>2024-01-12T15:19:05Z</time>
      </trkpt>
      <trkpt lat="49.8751" lon="2.31178">
        <ele>64.5</ele>
        <time>2024-01-12T15:19:06Z</time>
      </trkpt>
      <trkpt lat="49.87511" lon="2.31177">
        <ele>64.4</ele>
        <time>2024-01-12T15:19:07Z</time>
      </trkpt>
      <trkpt lat="49.87512" lon="2.31177">
        <ele>64.4</ele>
        <time>2024-01-12T15:19:08Z</time>
      </trkpt>
      <trkpt lat="49.87513" lon="2.31175">
        <ele>64.4</ele>
        <time>2024-01-12T15:19:09Z</time>
      </trkpt>
      <trkpt lat="49.87514" lon="2.31174">
        <ele>64.4</ele>
        <time>2024-01-12T15:19:10Z</time>
      </trkpt>
      <trkpt lat="49.87515" lon="2.31174">
        <ele>64.4</ele>
        <time>2024-01-12T15:19:11Z</time>
      </trkpt>
      <trkpt lat="49.87516" lon="2.31173">
        <ele>64.3</ele>
        <time>2024-01-12T15:19:12Z</time>
      </trkpt>
      <trkpt lat="49.87517" lon="2.31172">
        <ele>64.3</ele>
        <time>2024-01-12T15:19:13Z</time>
      </trkpt>
      <trkpt lat="49.87518" lon="2.31171">
        <ele>64.3</ele>
        <time>2024-01-12T15:19:14Z</time>
      </trkpt>
      <trkpt lat="49.87519" lon="2.3117">
        <ele>64.3</ele>
        <time>2024-01-12T15:19:15Z</time>
      </trkpt>
      <trkpt lat="49.87519" lon="2.31169">
        <ele>64.3</ele>
        <time>2024-01-12T15:19:16Z</time>
      </trkpt>
      <trkpt lat="49.8752" lon="2.31168">
        <ele>64.2</ele>
        <time>2024-01-12T15:19:17Z</time>
      </trkpt>
      <trkpt lat="49.87521" lon="2.31167">
        <ele>64.2</ele>
        <time>2024-01-12T15:19:18Z</time>
      </trkpt>
      <trkpt lat="49.87522" lon="2.31166">
        <ele>64.2</ele>
        <time>2024-01-12T15:19:19Z</time>
      </trkpt>
      <trkpt lat="49.87523" lon="2.31165">
        <ele>64.2</ele>
        <time>2024-01-12T15:19:20Z</time>
      </trkpt>
      <trkpt lat="49.87525" lon="2.31165">
        <ele>64.1</ele>
        <time>2024-01-12T15:19:22Z</time>
      </trkpt>
      <trkpt lat="49.87526" lon="2.31164">
        <ele>64.1</ele>
        <time>2024-01-12T15:19:23Z</time>
      </trkpt>
      <trkpt lat="49.87527" lon="2.31163">
        <ele>64.1</ele>
        <time>2024-01-12T15:19:24Z</time>
      </trkpt>
      <trkpt lat="49.87528" lon="2.31162">
        <ele>64.1</ele>
        <time>2024-01-12T15:19:25Z</time>
      </trkpt>
      <trkpt lat="49.87529" lon="2.31161">
        <ele>64</ele>
        <time>2024-01-12T15:19:26Z</time>
      </trkpt>
      <trkpt lat="49.87529" lon="2.31161">
        <ele>64</ele>
        <time>2024-01-12T15:19:27Z</time>
      </trkpt>
      <trkpt lat="49.8753" lon="2.3116">
        <ele>64</ele>
        <time>2024-01-12T15:19:28Z</time>
      </trkpt>
      <trkpt lat="49.87531" lon="2.31159">
        <ele>64</ele>
        <time>2024-01-12T15:19:29Z</time>
      </trkpt>
      <trkpt lat="49.87532" lon="2.31158">
        <ele>64</ele>
        <time>2024-01-12T15:19:30Z</time>
      </trkpt>
      <trkpt lat="49.87533" lon="2.31157">
        <ele>63.9</ele>
        <time>2024-01-12T15:19:31Z</time>
      </trkpt>
      <trkpt lat="49.87534" lon="2.31156">
        <ele>63.9</ele>
        <time>2024-01-12T15:19:32Z</time>
      </trkpt>
      <trkpt lat="49.87535" lon="2.31155">
        <ele>63.9</ele>
        <time>2024-01-12T15:19:33Z</time>
      </trkpt>
      <trkpt lat="49.87536" lon="2.31154">
        <ele>63.9</ele>
        <time>2024-01-12T15:19:34Z</time>
      </trkpt>
      <trkpt lat="49.87536" lon="2.31152">
        <ele>63.9</ele>
        <time>2024-01-12T15:19:35Z</time>
      </trkpt>
      <trkpt lat="49.87537" lon="2.31151">
        <ele>63.8</ele>
        <time>2024-01-12T15:19:36Z</time>
      </trkpt>
      <trkpt lat="49.87538" lon="2.31151">
        <ele>63.8</ele>
        <time>2024-01-12T15:19:37Z</time>
      </trkpt>
      <trkpt lat="49.87539" lon="2.31151">
        <ele>63.8</ele>
        <time>2024-01-12T15:19:38Z</time>
      </trkpt>
      <trkpt lat="49.8754" lon="2.3115">
        <ele>63.8</ele>
        <time>2024-01-12T15:19:39Z</time>
      </trkpt>
      <trkpt lat="49.8754" lon="2.3115">
        <ele>63.8</ele>
        <time>2024-01-12T15:19:40Z</time>
      </trkpt>
      <trkpt lat="49.87541" lon="2.31149">
        <ele>63.8</ele>
        <time>2024-01-12T15:19:41Z</time>
      </trkpt>
      <trkpt lat="49.87542" lon="2.31148">
        <ele>63.7</ele>
        <time>2024-01-12T15:19:42Z</time>
      </trkpt>
      <trkpt lat="49.87543" lon="2.31147">
        <ele>63.7</ele>
        <time>2024-01-12T15:19:43Z</time>
      </trkpt>
      <trkpt lat="49.87544" lon="2.31146">
        <ele>63.7</ele>
        <time>2024-01-12T15:19:44Z</time>
      </trkpt>
      <trkpt lat="49.87544" lon="2.31145">
        <ele>63.7</ele>
        <time>2024-01-12T15:19:45Z</time>
      </trkpt>
      <trkpt lat="49.87545" lon="2.31145">
        <ele>63.7</ele>
        <time>2024-01-12T15:19:46Z</time>
      </trkpt>
      <trkpt lat="49.87546" lon="2.31144">
        <ele>63.7</ele>
        <time>2024-01-12T15:19:47Z</time>
      </trkpt>
      <trkpt lat="49.87547" lon="2.31143">
        <ele>63.6</ele>
        <time>2024-01-12T15:19:48Z</time>
      </trkpt>
      <trkpt lat="49.87548" lon="2.31142">
        <ele>63.6</ele>
        <time>2024-01-12T15:19:49Z</time>
      </trkpt>
      <trkpt lat="49.87549" lon="2.31142">
        <ele>63.6</ele>
        <time>2024-01-12T15:19:50Z</time>
      </trkpt>
      <trkpt lat="49.8755" lon="2.31141">
        <ele>63.6</ele>
        <time>2024-01-12T15:19:51Z</time>
      </trkpt>
      <trkpt lat="49.87551" lon="2.3114">
        <ele>63.6</ele>
        <time>2024-01-12T15:19:52Z</time>
      </trkpt>
      <trkpt lat="49.87551" lon="2.31139">
        <ele>63.6</ele>
        <time>2024-01-12T15:19:53Z</time>
      </trkpt>
      <trkpt lat="49.87552" lon="2.31138">
        <ele>63.6</ele>
        <time>2024-01-12T15:19:54Z</time>
      </trkpt>
      <trkpt lat="49.87553" lon="2.31137">
        <ele>63.6</ele>
        <time>2024-01-12T15:19:55Z</time>
      </trkpt>
      <trkpt lat="49.87554" lon="2.31136">
        <ele>63.6</ele>
        <time>2024-01-12T15:19:56Z</time>
      </trkpt>
      <trkpt lat="49.87555" lon="2.31135">
        <ele>63.6</ele>
        <time>2024-01-12T15:19:57Z</time>
      </trkpt>
      <trkpt lat="49.87556" lon="2.31134">
        <ele>63.6</ele>
        <time>2024-01-12T15:19:58Z</time>
      </trkpt>
      <trkpt lat="49.87557" lon="2.31133">
        <ele>63.5</ele>
        <time>2024-01-12T15:19:59Z</time>
      </trkpt>
      <trkpt lat="49.87558" lon="2.31132">
        <ele>63.5</ele>
        <time>2024-01-12T15:20:00Z</time>
      </trkpt>
      <trkpt lat="49.87558" lon="2.31131">
        <ele>63.5</ele>
        <time>2024-01-12T15:20:01Z</time>
      </trkpt>
      <trkpt lat="49.87559" lon="2.31131">
        <ele>63.5</ele>
        <time>2024-01-12T15:20:02Z</time>
      </trkpt>
      <trkpt lat="49.8756" lon="2.3113">
        <ele>63.5</ele>
        <time>2024-01-12T15:20:03Z</time>
      </trkpt>
      <trkpt lat="49.87561" lon="2.31129">
        <ele>63.5</ele>
        <time>2024-01-12T15:20:04Z</time>
      </trkpt>
      <trkpt lat="49.87561" lon="2.31128">
        <ele>63.5</ele>
        <time>2024-01-12T15:20:05Z</time>
      </trkpt>
      <trkpt lat="49.87562" lon="2.31127">
        <ele>63.5</ele>
        <time>2024-01-12T15:20:06Z</time>
      </trkpt>
      <trkpt lat="49.87563" lon="2.31126">
        <ele>63.5</ele>
        <time>2024-01-12T15:20:07Z</time>
      </trkpt>
      <trkpt lat="49.87564" lon="2.31125">
        <ele>63.5</ele>
        <time>2024-01-12T15:20:08Z</time>
      </trkpt>
      <trkpt lat="49.87565" lon="2.31124">
        <ele>63.5</ele>
        <time>2024-01-12T15:20:09Z</time>
      </trkpt>
      <trkpt lat="49.87565" lon="2.31123">
        <ele>63.5</ele>
        <time>2024-01-12T15:20:10Z</time>
      </trkpt>
      <trkpt lat="49.87566" lon="2.31122">
        <ele>63.5</ele>
        <time>2024-01-12T15:20:11Z</time>
      </trkpt>
      <trkpt lat="49.87567" lon="2.31121">
        <ele>63.5</ele>
        <time>2024-01-12T15:20:12Z</time>
      </trkpt>
      <trkpt lat="49.87567" lon="2.3112">
        <ele>63.5</ele>
        <time>2024-01-12T15:20:13Z</time>
      </trkpt>
      <trkpt lat="49.87568" lon="2.31119">
        <ele>63.5</ele>
        <time>2024-01-12T15:20:14Z</time>
      </trkpt>
      <trkpt lat="49.87569" lon="2.31118">
        <ele>63.5</ele>
        <time>2024-01-12T15:20:15Z</time>
      </trkpt>
      <trkpt lat="49.8757" lon="2.31118">
        <ele>63.5</ele>
        <time>2024-01-12T15:20:16Z</time>
      </trkpt>
      <trkpt lat="49.8757" lon="2.31117">
        <ele>63.5</ele>
        <time>2024-01-12T15:20:17Z</time>
      </trkpt>
      <trkpt lat="49.87571" lon="2.31116">
        <ele>63.5</ele>
        <time>2024-01-12T15:20:18Z</time>
      </trkpt>
      <trkpt lat="49.87572" lon="2.31115">
        <ele>63.5</ele>
        <time>2024-01-12T15:20:19Z</time>
      </trkpt>
      <trkpt lat="49.87573" lon="2.31115">
        <ele>63.5</ele>
        <time>2024-01-12T15:20:20Z</time>
      </trkpt>
      <trkpt lat="49.87574" lon="2.31114">
        <ele>63.4</ele>
        <time>2024-01-12T15:20:21Z</time>
      </trkpt>
      <trkpt lat="49.87575" lon="2.31113">
        <ele>63.4</ele>
        <time>2024-01-12T15:20:22Z</time>
      </trkpt>
      <trkpt lat="49.87576" lon="2.31113">
        <ele>63.4</ele>
        <time>2024-01-12T15:20:23Z</time>
      </trkpt>
      <trkpt lat="49.87576" lon="2.31112">
        <ele>63.4</ele>
        <time>2024-01-12T15:20:24Z</time>
      </trkpt>
      <trkpt lat="49.87577" lon="2.31112">
        <ele>63.4</ele>
        <time>2024-01-12T15:20:25Z</time>
      </trkpt>
      <trkpt lat="49.87578" lon="2.31111">
        <ele>63.4</ele>
        <time>2024-01-12T15:20:26Z</time>
      </trkpt>
      <trkpt lat="49.87579" lon="2.31111">
        <ele>63.4</ele>
        <time>2024-01-12T15:20:27Z</time>
      </trkpt>
      <trkpt lat="49.87581" lon="2.31109">
        <ele>63.4</ele>
        <time>2024-01-12T15:20:29Z</time>
      </trkpt>
      <trkpt lat="49.87582" lon="2.31109">
        <ele>63.4</ele>
        <time>2024-01-12T15:20:30Z</time>
      </trkpt>
      <trkpt lat="49.87584" lon="2.31107">
        <ele>63.4</ele>
        <time>2024-01-12T15:20:31Z</time>
      </trkpt>
      <trkpt lat="49.87585" lon="2.31107">
        <ele>63.4</ele>
        <time>2024-01-12T15:20:32Z</time>
      </trkpt>
      <trkpt lat="49.87586" lon="2.31106">
        <ele>63.4</ele>
        <time>2024-01-12T15:20:33Z</time>
      </trkpt>
      <trkpt lat="49.87587" lon="2.31105">
        <ele>63.4</ele>
        <time>2024-01-12T15:20:34Z</time>
      </trkpt>
      <trkpt lat="49.87588" lon="2.31104">
        <ele>63.4</ele>
        <time>2024-01-12T15:20:35Z</time>
      </trkpt>
      <trkpt lat="49.87589" lon="2.31103">
        <ele>63.4</ele>
        <time>2024-01-12T15:20:36Z</time>
      </trkpt>
      <trkpt lat="49.8759" lon="2.31103">
        <ele>63.4</ele>
        <time>2024-01-12T15:20:37Z</time>
      </trkpt>
      <trkpt lat="49.87591" lon="2.31102">
        <ele>63.4</ele>
        <time>2024-01-12T15:20:38Z</time>
      </trkpt>
      <trkpt lat="49.87592" lon="2.31101">
        <ele>63.4</ele>
        <time>2024-01-12T15:20:39Z</time>
      </trkpt>
      <trkpt lat="49.87593" lon="2.311">
        <ele>63.3</ele>
        <time>2024-01-12T15:20:40Z</time>
      </trkpt>
      <trkpt lat="49.87594" lon="2.31099">
        <ele>63.3</ele>
        <time>2024-01-12T15:20:41Z</time>
      </trkpt>
      <trkpt lat="49.87595" lon="2.31098">
        <ele>63.3</ele>
        <time>2024-01-12T15:20:42Z</time>
      </trkpt>
      <trkpt lat="49.87595" lon="2.31098">
        <ele>63.3</ele>
        <time>2024-01-12T15:20:43Z</time>
      </trkpt>
      <trkpt lat="49.87596" lon="2.31097">
        <ele>63.3</ele>
        <time>2024-01-12T15:20:44Z</time>
      </trkpt>
      <trkpt lat="49.87597" lon="2.31096">
        <ele>63.3</ele>
        <time>2024-01-12T15:20:45Z</time>
      </trkpt>
      <trkpt lat="49.87597" lon="2.31095">
        <ele>63.3</ele>
        <time>2024-01-12T15:20:46Z</time>
      </trkpt>
      <trkpt lat="49.87598" lon="2.31094">
        <ele>63.3</ele>
        <time>2024-01-12T15:20:47Z</time>
      </trkpt>
      <trkpt lat="49.87599" lon="2.31093">
        <ele>63.3</ele>
        <time>2024-01-12T15:20:48Z</time>
      </trkpt>
      <trkpt lat="49.87599" lon="2.31092">
        <ele>63.3</ele>
        <time>2024-01-12T15:20:49Z</time>
      </trkpt>
      <trkpt lat="49.876" lon="2.31091">
        <ele>63.3</ele>
        <time>2024-01-12T15:20:50Z</time>
      </trkpt>
      <trkpt lat="49.876" lon="2.31089">
        <ele>63.3</ele>
        <time>2024-01-12T15:20:51Z</time>
      </trkpt>
      <trkpt lat="49.87601" lon="2.31087">
        <ele>63.3</ele>
        <time>2024-01-12T15:20:52Z</time>
      </trkpt>
      <trkpt lat="49.87601" lon="2.31086">
        <ele>63.3</ele>
        <time>2024-01-12T15:20:53Z</time>
      </trkpt>
      <trkpt lat="49.87601" lon="2.31084">
        <ele>63.3</ele>
        <time>2024-01-12T15:20:54Z</time>
      </trkpt>
      <trkpt lat="49.87601" lon="2.31082">
        <ele>63.3</ele>
        <time>2024-01-12T15:20:55Z</time>
      </trkpt>
      <trkpt lat="49.87601" lon="2.3108">
        <ele>63.3</ele>
        <time>2024-01-12T15:20:56Z</time>
      </trkpt>
      <trkpt lat="49.87602" lon="2.31078">
        <ele>63.4</ele>
        <time>2024-01-12T15:20:57Z</time>
      </trkpt>
      <trkpt lat="49.87602" lon="2.31076">
        <ele>63.4</ele>
        <time>2024-01-12T15:20:58Z</time>
      </trkpt>
      <trkpt lat="49.87603" lon="2.31074">
        <ele>63.4</ele>
        <time>2024-01-12T15:20:59Z</time>
      </trkpt>
      <trkpt lat="49.87603" lon="2.31073">
        <ele>63.5</ele>
        <time>2024-01-12T15:21:00Z</time>
      </trkpt>
      <trkpt lat="49.87604" lon="2.31071">
        <ele>63.5</ele>
        <time>2024-01-12T15:21:01Z</time>
      </trkpt>
      <trkpt lat="49.87605" lon="2.3107">
        <ele>63.5</ele>
        <time>2024-01-12T15:21:02Z</time>
      </trkpt>
      <trkpt lat="49.87606" lon="2.3107">
        <ele>63.5</ele>
        <time>2024-01-12T15:21:03Z</time>
      </trkpt>
      <trkpt lat="49.87607" lon="2.3107">
        <ele>63.6</ele>
        <time>2024-01-12T15:21:04Z</time>
      </trkpt>
      <trkpt lat="49.87607" lon="2.31069">
        <ele>63.6</ele>
        <time>2024-01-12T15:21:05Z</time>
      </trkpt>
      <trkpt lat="49.87608" lon="2.31069">
        <ele>63.6</ele>
        <time>2024-01-12T15:21:06Z</time>
      </trkpt>
      <trkpt lat="49.87609" lon="2.31069">
        <ele>63.6</ele>
        <time>2024-01-12T15:21:07Z</time>
      </trkpt>
      <trkpt lat="49.87609" lon="2.31069">
        <ele>63.6</ele>
        <time>2024-01-12T15:21:08Z</time>
      </trkpt>
      <trkpt lat="49.8761" lon="2.31068">
        <ele>63.6</ele>
        <time>2024-01-12T15:21:09Z</time>
      </trkpt>
      <trkpt lat="49.87611" lon="2.31068">
        <ele>63.7</ele>
        <time>2024-01-12T15:21:10Z</time>
      </trkpt>
      <trkpt lat="49.87612" lon="2.31068">
        <ele>63.7</ele>
        <time>2024-01-12T15:21:11Z</time>
      </trkpt>
      <trkpt lat="49.87613" lon="2.31068">
        <ele>63.7</ele>
        <time>2024-01-12T15:21:12Z</time>
      </trkpt>
      <trkpt lat="49.87613" lon="2.31069">
        <ele>63.7</ele>
        <time>2024-01-12T15:21:13Z</time>
      </trkpt>
      <trkpt lat="49.87614" lon="2.31069">
        <ele>63.7</ele>
        <time>2024-01-12T15:21:14Z</time>
      </trkpt>
      <trkpt lat="49.87614" lon="2.31069">
        <ele>63.8</ele>
        <time>2024-01-12T15:21:15Z</time>
      </trkpt>
      <trkpt lat="49.87615" lon="2.31069">
        <ele>63.8</ele>
        <time>2024-01-12T15:21:16Z</time>
      </trkpt>
      <trkpt lat="49.87616" lon="2.31068">
        <ele>63.8</ele>
        <time>2024-01-12T15:21:17Z</time>
      </trkpt>
      <trkpt lat="49.87616" lon="2.31069">
        <ele>63.8</ele>
        <time>2024-01-12T15:21:18Z</time>
      </trkpt>
      <trkpt lat="49.87617" lon="2.31069">
        <ele>63.8</ele>
        <time>2024-01-12T15:21:19Z</time>
      </trkpt>
      <trkpt lat="49.87618" lon="2.31069">
        <ele>63.9</ele>
        <time>2024-01-12T15:21:20Z</time>
      </trkpt>
      <trkpt lat="49.87618" lon="2.31069">
        <ele>63.9</ele>
        <time>2024-01-12T15:21:21Z</time>
      </trkpt>
      <trkpt lat="49.87619" lon="2.31069">
        <ele>63.9</ele>
        <time>2024-01-12T15:21:22Z</time>
      </trkpt>
      <trkpt lat="49.8762" lon="2.3107">
        <ele>63.9</ele>
        <time>2024-01-12T15:21:23Z</time>
      </trkpt>
      <trkpt lat="49.87621" lon="2.31071">
        <ele>64</ele>
        <time>2024-01-12T15:21:24Z</time>
      </trkpt>
      <trkpt lat="49.87622" lon="2.31072">
        <ele>64</ele>
        <time>2024-01-12T15:21:25Z</time>
      </trkpt>
      <trkpt lat="49.87623" lon="2.31072">
        <ele>64</ele>
        <time>2024-01-12T15:21:26Z</time>
      </trkpt>
      <trkpt lat="49.87624" lon="2.31073">
        <ele>64</ele>
        <time>2024-01-12T15:21:27Z</time>
      </trkpt>
      <trkpt lat="49.87624" lon="2.31073">
        <ele>64.1</ele>
        <time>2024-01-12T15:21:28Z</time>
      </trkpt>
      <trkpt lat="49.87625" lon="2.31074">
        <ele>64.1</ele>
        <time>2024-01-12T15:21:29Z</time>
      </trkpt>
      <trkpt lat="49.87626" lon="2.31077">
        <ele>64.1</ele>
        <time>2024-01-12T15:21:30Z</time>
      </trkpt>
      <trkpt lat="49.87627" lon="2.31078">
        <ele>64.2</ele>
        <time>2024-01-12T15:21:31Z</time>
      </trkpt>
      <trkpt lat="49.87627" lon="2.3108">
        <ele>64.2</ele>
        <time>2024-01-12T15:21:32Z</time>
      </trkpt>
      <trkpt lat="49.87628" lon="2.31081">
        <ele>64.2</ele>
        <time>2024-01-12T15:21:33Z</time>
      </trkpt>
      <trkpt lat="49.87629" lon="2.31082">
        <ele>64.3</ele>
        <time>2024-01-12T15:21:34Z</time>
      </trkpt>
      <trkpt lat="49.8763" lon="2.31083">
        <ele>64.3</ele>
        <time>2024-01-12T15:21:35Z</time>
      </trkpt>
      <trkpt lat="49.8763" lon="2.31084">
        <ele>64.3</ele>
        <time>2024-01-12T15:21:36Z</time>
      </trkpt>
      <trkpt lat="49.87631" lon="2.31085">
        <ele>64.3</ele>
        <time>2024-01-12T15:21:37Z</time>
      </trkpt>
      <trkpt lat="49.87631" lon="2.31085">
        <ele>64.3</ele>
        <time>2024-01-12T15:21:38Z</time>
      </trkpt>
      <trkpt lat="49.87632" lon="2.31086">
        <ele>64.4</ele>
        <time>2024-01-12T15:21:39Z</time>
      </trkpt>
      <trkpt lat="49.87632" lon="2.31086">
        <ele>64.4</ele>
        <time>2024-01-12T15:21:40Z</time>
      </trkpt>
      <trkpt lat="49.87633" lon="2.31086">
        <ele>64.3</ele>
        <time>2024-01-12T15:21:41Z</time>
      </trkpt>
      <trkpt lat="49.87634" lon="2.31086">
        <ele>64.3</ele>
        <time>2024-01-12T15:21:42Z</time>
      </trkpt>
      <trkpt lat="49.87635" lon="2.31085">
        <ele>64.3</ele>
        <time>2024-01-12T15:21:43Z</time>
      </trkpt>
      <trkpt lat="49.87635" lon="2.31085">
        <ele>64.3</ele>
        <time>2024-01-12T15:21:44Z</time>
      </trkpt>
      <trkpt lat="49.87635" lon="2.31083">
        <ele>64.2</ele>
        <time>2024-01-12T15:21:45Z</time>
      </trkpt>
      <trkpt lat="49.87636" lon="2.31083">
        <ele>64.2</ele>
        <time>2024-01-12T15:21:46Z</time>
      </trkpt>
      <trkpt lat="49.87636" lon="2.31083">
        <ele>64.2</ele>
        <time>2024-01-12T15:21:47Z</time>
      </trkpt>
      <trkpt lat="49.87636" lon="2.31082">
        <ele>64.2</ele>
        <time>2024-01-12T15:21:48Z</time>
      </trkpt>
      <trkpt lat="49.87637" lon="2.31082">
        <ele>64.2</ele>
        <time>2024-01-12T15:21:49Z</time>
      </trkpt>
      <trkpt lat="49.87637" lon="2.31081">
        <ele>64.2</ele>
        <time>2024-01-12T15:21:50Z</time>
      </trkpt>
      <trkpt lat="49.87637" lon="2.31081">
        <ele>64.2</ele>
        <time>2024-01-12T15:21:51Z</time>
      </trkpt>
      <trkpt lat="49.87638" lon="2.31081">
        <ele>64.1</ele>
        <time>2024-01-12T15:21:52Z</time>
      </trkpt>
      <trkpt lat="49.87639" lon="2.3108">
        <ele>64.1</ele>
        <time>2024-01-12T15:21:53Z</time>
      </trkpt>
      <trkpt lat="49.87639" lon="2.3108">
        <ele>64.1</ele>
        <time>2024-01-12T15:21:54Z</time>
      </trkpt>
      <trkpt lat="49.8764" lon="2.3108">
        <ele>64.1</ele>
        <time>2024-01-12T15:21:55Z</time>
      </trkpt>
      <trkpt lat="49.8764" lon="2.31079">
        <ele>64.1</ele>
        <time>2024-01-12T15:21:56Z</time>
      </trkpt>
      <trkpt lat="49.8764" lon="2.31079">
        <ele>64.1</ele>
        <time>2024-01-12T15:21:57Z</time>
      </trkpt>
      <trkpt lat="49.87641" lon="2.31079">
        <ele>64.1</ele>
        <time>2024-01-12T15:21:58Z</time>
      </trkpt>
      <trkpt lat="49.87641" lon="2.31078">
        <ele>64</ele>
        <time>2024-01-12T15:21:59Z</time>
      </trkpt>
      <trkpt lat="49.87642" lon="2.31078">
        <ele>64</ele>
        <time>2024-01-12T15:22:00Z</time>
      </trkpt>
      <trkpt lat="49.87643" lon="2.31078">
        <ele>64</ele>
        <time>2024-01-12T15:22:01Z</time>
      </trkpt>
      <trkpt lat="49.87645" lon="2.31077">
        <ele>63.9</ele>
        <time>2024-01-12T15:22:02Z</time>
      </trkpt>
      <trkpt lat="49.87645" lon="2.31076">
        <ele>63.9</ele>
        <time>2024-01-12T15:22:03Z</time>
      </trkpt>
      <trkpt lat="49.87646" lon="2.31076">
        <ele>63.9</ele>
        <time>2024-01-12T15:22:04Z</time>
      </trkpt>
      <trkpt lat="49.87648" lon="2.31075">
        <ele>63.8</ele>
        <time>2024-01-12T15:22:05Z</time>
      </trkpt>
      <trkpt lat="49.87649" lon="2.31074">
        <ele>63.8</ele>
        <time>2024-01-12T15:22:06Z</time>
      </trkpt>
      <trkpt lat="49.8765" lon="2.31074">
        <ele>63.8</ele>
        <time>2024-01-12T15:22:07Z</time>
      </trkpt>
      <trkpt lat="49.87651" lon="2.31074">
        <ele>63.7</ele>
        <time>2024-01-12T15:22:08Z</time>
      </trkpt>
      <trkpt lat="49.87652" lon="2.31073">
        <ele>63.7</ele>
        <time>2024-01-12T15:22:09Z</time>
      </trkpt>
      <trkpt lat="49.87653" lon="2.31073">
        <ele>63.7</ele>
        <time>2024-01-12T15:22:10Z</time>
      </trkpt>
      <trkpt lat="49.87654" lon="2.31073">
        <ele>63.7</ele>
        <time>2024-01-12T15:22:11Z</time>
      </trkpt>
      <trkpt lat="49.87655" lon="2.31072">
        <ele>63.6</ele>
        <time>2024-01-12T15:22:12Z</time>
      </trkpt>
      <trkpt lat="49.87655" lon="2.31072">
        <ele>63.6</ele>
        <time>2024-01-12T15:22:13Z</time>
      </trkpt>
      <trkpt lat="49.87656" lon="2.31072">
        <ele>63.6</ele>
        <time>2024-01-12T15:22:14Z</time>
      </trkpt>
      <trkpt lat="49.87657" lon="2.31071">
        <ele>63.6</ele>
        <time>2024-01-12T15:22:15Z</time>
      </trkpt>
      <trkpt lat="49.87657" lon="2.31071">
        <ele>63.5</ele>
        <time>2024-01-12T15:22:16Z</time>
      </trkpt>
      <trkpt lat="49.87659" lon="2.31069">
        <ele>63.5</ele>
        <time>2024-01-12T15:22:18Z</time>
      </trkpt>
      <trkpt lat="49.8766" lon="2.31069">
        <ele>63.5</ele>
        <time>2024-01-12T15:22:19Z</time>
      </trkpt>
      <trkpt lat="49.8766" lon="2.31068">
        <ele>63.5</ele>
        <time>2024-01-12T15:22:20Z</time>
      </trkpt>
      <trkpt lat="49.87661" lon="2.31068">
        <ele>63.4</ele>
        <time>2024-01-12T15:22:21Z</time>
      </trkpt>
      <trkpt lat="49.87662" lon="2.31068">
        <ele>63.4</ele>
        <time>2024-01-12T15:22:22Z</time>
      </trkpt>
      <trkpt lat="49.87663" lon="2.31068">
        <ele>63.4</ele>
        <time>2024-01-12T15:22:23Z</time>
      </trkpt>
      <trkpt lat="49.87666" lon="2.31068">
        <ele>63.3</ele>
        <time>2024-01-12T15:22:24Z</time>
      </trkpt>
      <trkpt lat="49.87667" lon="2.31068">
        <ele>63.3</ele>
        <time>2024-01-12T15:22:25Z</time>
      </trkpt>
      <trkpt lat="49.87668" lon="2.31068">
        <ele>63.3</ele>
        <time>2024-01-12T15:22:26Z</time>
      </trkpt>
      <trkpt lat="49.87669" lon="2.31068">
        <ele>63.3</ele>
        <time>2024-01-12T15:22:27Z</time>
      </trkpt>
      <trkpt lat="49.8767" lon="2.31068">
        <ele>63.2</ele>
        <time>2024-01-12T15:22:28Z</time>
      </trkpt>
      <trkpt lat="49.87671" lon="2.31068">
        <ele>63.2</ele>
        <time>2024-01-12T15:22:29Z</time>
      </trkpt>
      <trkpt lat="49.87673" lon="2.31069">
        <ele>63.2</ele>
        <time>2024-01-12T15:22:30Z</time>
      </trkpt>
      <trkpt lat="49.87674" lon="2.31069">
        <ele>63.2</ele>
        <time>2024-01-12T15:22:31Z</time>
      </trkpt>
      <trkpt lat="49.87675" lon="2.31069">
        <ele>63.1</ele>
        <time>2024-01-12T15:22:32Z</time>
      </trkpt>
      <trkpt lat="49.87676" lon="2.3107">
        <ele>63.1</ele>
        <time>2024-01-12T15:22:33Z</time>
      </trkpt>
      <trkpt lat="49.87677" lon="2.3107">
        <ele>63.1</ele>
        <time>2024-01-12T15:22:34Z</time>
      </trkpt>
      <trkpt lat="49.87679" lon="2.31071">
        <ele>63</ele>
        <time>2024-01-12T15:22:35Z</time>
      </trkpt>
      <trkpt lat="49.8768" lon="2.31071">
        <ele>63</ele>
        <time>2024-01-12T15:22:36Z</time>
      </trkpt>
      <trkpt lat="49.87681" lon="2.31072">
        <ele>63</ele>
        <time>2024-01-12T15:22:37Z</time>
      </trkpt>
      <trkpt lat="49.87683" lon="2.31073">
        <ele>62.9</ele>
        <time>2024-01-12T15:22:38Z</time>
      </trkpt>
      <trkpt lat="49.87685" lon="2.31074">
        <ele>62.9</ele>
        <time>2024-01-12T15:22:39Z</time>
      </trkpt>
      <trkpt lat="49.87688" lon="2.31075">
        <ele>62.8</ele>
        <time>2024-01-12T15:22:40Z</time>
      </trkpt>
      <trkpt lat="49.87689" lon="2.31075">
        <ele>62.8</ele>
        <time>2024-01-12T15:22:41Z</time>
      </trkpt>
      <trkpt lat="49.87693" lon="2.31076">
        <ele>62.7</ele>
        <time>2024-01-12T15:22:42Z</time>
      </trkpt>
      <trkpt lat="49.87694" lon="2.31077">
        <ele>62.7</ele>
        <time>2024-01-12T15:22:43Z</time>
      </trkpt>
      <trkpt lat="49.87696" lon="2.31078">
        <ele>62.6</ele>
        <time>2024-01-12T15:22:44Z</time>
      </trkpt>
      <trkpt lat="49.87697" lon="2.31078">
        <ele>62.6</ele>
        <time>2024-01-12T15:22:45Z</time>
      </trkpt>
      <trkpt lat="49.87699" lon="2.31079">
        <ele>62.6</ele>
        <time>2024-01-12T15:22:46Z</time>
      </trkpt>
      <trkpt lat="49.877" lon="2.3108">
        <ele>62.5</ele>
        <time>2024-01-12T15:22:47Z</time>
      </trkpt>
      <trkpt lat="49.87701" lon="2.3108">
        <ele>62.5</ele>
        <time>2024-01-12T15:22:48Z</time>
      </trkpt>
      <trkpt lat="49.87702" lon="2.31081">
        <ele>62.5</ele>
        <time>2024-01-12T15:22:49Z</time>
      </trkpt>
      <trkpt lat="49.87703" lon="2.31081">
        <ele>62.5</ele>
        <time>2024-01-12T15:22:50Z</time>
      </trkpt>
      <trkpt lat="49.87704" lon="2.31081">
        <ele>62.4</ele>
        <time>2024-01-12T15:22:51Z</time>
      </trkpt>
      <trkpt lat="49.87705" lon="2.31082">
        <ele>62.4</ele>
        <time>2024-01-12T15:22:52Z</time>
      </trkpt>
      <trkpt lat="49.87706" lon="2.31082">
        <ele>62.4</ele>
        <time>2024-01-12T15:22:53Z</time>
      </trkpt>
      <trkpt lat="49.87707" lon="2.31083">
        <ele>62.4</ele>
        <time>2024-01-12T15:22:54Z</time>
      </trkpt>
      <trkpt lat="49.87707" lon="2.31083">
        <ele>62.4</ele>
        <time>2024-01-12T15:22:55Z</time>
      </trkpt>
      <trkpt lat="49.87708" lon="2.31084">
        <ele>62.3</ele>
        <time>2024-01-12T15:22:56Z</time>
      </trkpt>
      <trkpt lat="49.87709" lon="2.31084">
        <ele>62.3</ele>
        <time>2024-01-12T15:22:57Z</time>
      </trkpt>
      <trkpt lat="49.8771" lon="2.31084">
        <ele>62.3</ele>
        <time>2024-01-12T15:22:58Z</time>
      </trkpt>
      <trkpt lat="49.8771" lon="2.31084">
        <ele>62.3</ele>
        <time>2024-01-12T15:22:59Z</time>
      </trkpt>
      <trkpt lat="49.87711" lon="2.31084">
        <ele>62.3</ele>
        <time>2024-01-12T15:23:00Z</time>
      </trkpt>
      <trkpt lat="49.87712" lon="2.31083">
        <ele>62.2</ele>
        <time>2024-01-12T15:23:01Z</time>
      </trkpt>
      <trkpt lat="49.87714" lon="2.31081">
        <ele>62.2</ele>
        <time>2024-01-12T15:23:02Z</time>
      </trkpt>
      <trkpt lat="49.87714" lon="2.3108">
        <ele>62.2</ele>
        <time>2024-01-12T15:23:03Z</time>
      </trkpt>
      <trkpt lat="49.87715" lon="2.31079">
        <ele>62.2</ele>
        <time>2024-01-12T15:23:04Z</time>
      </trkpt>
      <trkpt lat="49.87716" lon="2.31078">
        <ele>62.1</ele>
        <time>2024-01-12T15:23:05Z</time>
      </trkpt>
      <trkpt lat="49.87717" lon="2.31078">
        <ele>62.1</ele>
        <time>2024-01-12T15:23:06Z</time>
      </trkpt>
      <trkpt lat="49.87718" lon="2.31077">
        <ele>62.1</ele>
        <time>2024-01-12T15:23:07Z</time>
      </trkpt>
      <trkpt lat="49.87719" lon="2.31077">
        <ele>62.1</ele>
        <time>2024-01-12T15:23:08Z</time>
      </trkpt>
      <trkpt lat="49.8772" lon="2.31076">
        <ele>62.1</ele>
        <time>2024-01-12T15:23:09Z</time>
      </trkpt>
      <trkpt lat="49.87721" lon="2.31076">
        <ele>62.1</ele>
        <time>2024-01-12T15:23:10Z</time>
      </trkpt>
      <trkpt lat="49.87722" lon="2.31076">
        <ele>62.1</ele>
        <time>2024-01-12T15:23:11Z</time>
      </trkpt>
      <trkpt lat="49.87723" lon="2.31076">
        <ele>62.1</ele>
        <time>2024-01-12T15:23:12Z</time>
      </trkpt>
      <trkpt lat="49.87723" lon="2.31075">
        <ele>62.1</ele>
        <time>2024-01-12T15:23:13Z</time>
      </trkpt>
      <trkpt lat="49.87724" lon="2.31074">
        <ele>62.1</ele>
        <time>2024-01-12T15:23:14Z</time>
      </trkpt>
      <trkpt lat="49.87724" lon="2.31072">
        <ele>62.1</ele>
        <time>2024-01-12T15:23:15Z</time>
      </trkpt>
      <trkpt lat="49.87724" lon="2.3107">
        <ele>62.1</ele>
        <time>2024-01-12T15:23:16Z</time>
      </trkpt>
      <trkpt lat="49.87725" lon="2.31068">
        <ele>62.1</ele>
        <time>2024-01-12T15:23:17Z</time>
      </trkpt>
      <trkpt lat="49.87725" lon="2.31066">
        <ele>62.1</ele>
        <time>2024-01-12T15:23:18Z</time>
      </trkpt>
      <trkpt lat="49.87726" lon="2.31064">
        <ele>62.1</ele>
        <time>2024-01-12T15:23:19Z</time>
      </trkpt>
      <trkpt lat="49.87727" lon="2.31062">
        <ele>62.1</ele>
        <time>2024-01-12T15:23:20Z</time>
      </trkpt>
      <trkpt lat="49.87728" lon="2.3106">
        <ele>62.1</ele>
        <time>2024-01-12T15:23:21Z</time>
      </trkpt>
      <trkpt lat="49.87729" lon="2.31058">
        <ele>62.1</ele>
        <time>2024-01-12T15:23:22Z</time>
      </trkpt>
      <trkpt lat="49.8773" lon="2.31056">
        <ele>62.1</ele>
        <time>2024-01-12T15:23:23Z</time>
      </trkpt>
      <trkpt lat="49.87731" lon="2.31055">
        <ele>62.1</ele>
        <time>2024-01-12T15:23:24Z</time>
      </trkpt>
      <trkpt lat="49.87732" lon="2.31054">
        <ele>62.1</ele>
        <time>2024-01-12T15:23:25Z</time>
      </trkpt>
      <trkpt lat="49.87733" lon="2.31053">
        <ele>62.1</ele>
        <time>2024-01-12T15:23:27Z</time>
      </trkpt>
      <trkpt lat="49.87734" lon="2.31052">
        <ele>62.1</ele>
        <time>2024-01-12T15:23:28Z</time>
      </trkpt>
      <trkpt lat="49.87734" lon="2.31051">
        <ele>62.1</ele>
        <time>2024-01-12T15:23:29Z</time>
      </trkpt>
      <trkpt lat="49.87735" lon="2.3105">
        <ele>62.1</ele>
        <time>2024-01-12T15:23:30Z</time>
      </trkpt>
      <trkpt lat="49.87736" lon="2.31049">
        <ele>62.1</ele>
        <time>2024-01-12T15:23:31Z</time>
      </trkpt>
      <trkpt lat="49.87737" lon="2.31048">
        <ele>62.1</ele>
        <time>2024-01-12T15:23:32Z</time>
      </trkpt>
      <trkpt lat="49.87737" lon="2.31047">
        <ele>62.1</ele>
        <time>2024-01-12T15:23:33Z</time>
      </trkpt>
      <trkpt lat="49.87738" lon="2.31046">
        <ele>62.1</ele>
        <time>2024-01-12T15:23:34Z</time>
      </trkpt>
      <trkpt lat="49.87739" lon="2.31044">
        <ele>62.1</ele>
        <time>2024-01-12T15:23:35Z</time>
      </trkpt>
      <trkpt lat="49.8774" lon="2.31043">
        <ele>62.1</ele>
        <time>2024-01-12T15:23:36Z</time>
      </trkpt>
      <trkpt lat="49.87741" lon="2.31042">
        <ele>62.1</ele>
        <time>2024-01-12T15:23:37Z</time>
      </trkpt>
      <trkpt lat="49.87741" lon="2.31042">
        <ele>62.1</ele>
        <time>2024-01-12T15:23:38Z</time>
      </trkpt>
      <trkpt lat="49.87742" lon="2.31041">
        <ele>62.1</ele>
        <time>2024-01-12T15:23:39Z</time>
      </trkpt>
      <trkpt lat="49.87743" lon="2.31041">
        <ele>62</ele>
        <time>2024-01-12T15:23:40Z</time>
      </trkpt>
      <trkpt lat="49.87743" lon="2.3104">
        <ele>62</ele>
        <time>2024-01-12T15:23:41Z</time>
      </trkpt>
      <trkpt lat="49.87744" lon="2.31039">
        <ele>62</ele>
        <time>2024-01-12T15:23:42Z</time>
      </trkpt>
      <trkpt lat="49.87745" lon="2.31038">
        <ele>62</ele>
        <time>2024-01-12T15:23:43Z</time>
      </trkpt>
      <trkpt lat="49.87746" lon="2.31037">
        <ele>62</ele>
        <time>2024-01-12T15:23:44Z</time>
      </trkpt>
      <trkpt lat="49.87747" lon="2.31036">
        <ele>62</ele>
        <time>2024-01-12T15:23:45Z</time>
      </trkpt>
      <trkpt lat="49.87748" lon="2.31034">
        <ele>62</ele>
        <time>2024-01-12T15:23:46Z</time>
      </trkpt>
      <trkpt lat="49.87749" lon="2.31033">
        <ele>62</ele>
        <time>2024-01-12T15:23:47Z</time>
      </trkpt>
      <trkpt lat="49.87749" lon="2.31032">
        <ele>62</ele>
        <time>2024-01-12T15:23:48Z</time>
      </trkpt>
      <trkpt lat="49.8775" lon="2.31032">
        <ele>62</ele>
        <time>2024-01-12T15:23:49Z</time>
      </trkpt>
      <trkpt lat="49.8775" lon="2.31031">
        <ele>62</ele>
        <time>2024-01-12T15:23:50Z</time>
      </trkpt>
      <trkpt lat="49.87751" lon="2.3103">
        <ele>62</ele>
        <time>2024-01-12T15:23:51Z</time>
      </trkpt>
      <trkpt lat="49.87752" lon="2.31029">
        <ele>62</ele>
        <time>2024-01-12T15:23:52Z</time>
      </trkpt>
      <trkpt lat="49.87753" lon="2.31028">
        <ele>62</ele>
        <time>2024-01-12T15:23:53Z</time>
      </trkpt>
      <trkpt lat="49.87753" lon="2.31027">
        <ele>62</ele>
        <time>2024-01-12T15:23:54Z</time>
      </trkpt>
      <trkpt lat="49.87754" lon="2.31026">
        <ele>62</ele>
        <time>2024-01-12T15:23:55Z</time>
      </trkpt>
      <trkpt lat="49.87755" lon="2.31025">
        <ele>62</ele>
        <time>2024-01-12T15:23:56Z</time>
      </trkpt>
      <trkpt lat="49.87756" lon="2.31024">
        <ele>62</ele>
        <time>2024-01-12T15:23:57Z</time>
      </trkpt>
      <trkpt lat="49.87756" lon="2.31023">
        <ele>62</ele>
        <time>2024-01-12T15:23:58Z</time>
      </trkpt>
      <trkpt lat="49.87758" lon="2.31021">
        <ele>62</ele>
        <time>2024-01-12T15:23:59Z</time>
      </trkpt>
      <trkpt lat="49.87759" lon="2.3102">
        <ele>62</ele>
        <time>2024-01-12T15:24:00Z</time>
      </trkpt>
      <trkpt lat="49.87759" lon="2.31019">
        <ele>62</ele>
        <time>2024-01-12T15:24:01Z</time>
      </trkpt>
      <trkpt lat="49.87761" lon="2.31017">
        <ele>62</ele>
        <time>2024-01-12T15:24:02Z</time>
      </trkpt>
      <trkpt lat="49.87762" lon="2.31017">
        <ele>62</ele>
        <time>2024-01-12T15:24:03Z</time>
      </trkpt>
      <trkpt lat="49.87763" lon="2.31016">
        <ele>62</ele>
        <time>2024-01-12T15:24:04Z</time>
      </trkpt>
      <trkpt lat="49.87764" lon="2.31015">
        <ele>62</ele>
        <time>2024-01-12T15:24:05Z</time>
      </trkpt>
      <trkpt lat="49.87765" lon="2.31014">
        <ele>62</ele>
        <time>2024-01-12T15:24:06Z</time>
      </trkpt>
      <trkpt lat="49.87766" lon="2.31013">
        <ele>62</ele>
        <time>2024-01-12T15:24:07Z</time>
      </trkpt>
      <trkpt lat="49.87767" lon="2.31012">
        <ele>62</ele>
        <time>2024-01-12T15:24:08Z</time>
      </trkpt>
      <trkpt lat="49.87769" lon="2.3101">
        <ele>62</ele>
        <time>2024-01-12T15:24:09Z</time>
      </trkpt>
      <trkpt lat="49.8777" lon="2.31009">
        <ele>62</ele>
        <time>2024-01-12T15:24:10Z</time>
      </trkpt>
      <trkpt lat="49.87771" lon="2.31009">
        <ele>62</ele>
        <time>2024-01-12T15:24:11Z</time>
      </trkpt>
      <trkpt lat="49.87772" lon="2.31008">
        <ele>61.9</ele>
        <time>2024-01-12T15:24:12Z</time>
      </trkpt>
      <trkpt lat="49.87773" lon="2.31007">
        <ele>61.9</ele>
        <time>2024-01-12T15:24:13Z</time>
      </trkpt>
      <trkpt lat="49.87774" lon="2.31006">
        <ele>61.9</ele>
        <time>2024-01-12T15:24:14Z</time>
      </trkpt>
      <trkpt lat="49.87774" lon="2.31005">
        <ele>61.9</ele>
        <time>2024-01-12T15:24:15Z</time>
      </trkpt>
      <trkpt lat="49.87775" lon="2.31005">
        <ele>61.9</ele>
        <time>2024-01-12T15:24:16Z</time>
      </trkpt>
      <trkpt lat="49.87776" lon="2.31004">
        <ele>61.9</ele>
        <time>2024-01-12T15:24:17Z</time>
      </trkpt>
      <trkpt lat="49.87777" lon="2.31003">
        <ele>61.9</ele>
        <time>2024-01-12T15:24:18Z</time>
      </trkpt>
      <trkpt lat="49.87778" lon="2.31002">
        <ele>61.9</ele>
        <time>2024-01-12T15:24:19Z</time>
      </trkpt>
      <trkpt lat="49.87779" lon="2.31001">
        <ele>61.9</ele>
        <time>2024-01-12T15:24:20Z</time>
      </trkpt>
      <trkpt lat="49.8778" lon="2.31">
        <ele>61.9</ele>
        <time>2024-01-12T15:24:21Z</time>
      </trkpt>
      <trkpt lat="49.87781" lon="2.30999">
        <ele>61.9</ele>
        <time>2024-01-12T15:24:22Z</time>
      </trkpt>
      <trkpt lat="49.87781" lon="2.30998">
        <ele>61.9</ele>
        <time>2024-01-12T15:24:23Z</time>
      </trkpt>
      <trkpt lat="49.87782" lon="2.30997">
        <ele>61.8</ele>
        <time>2024-01-12T15:24:24Z</time>
      </trkpt>
      <trkpt lat="49.87783" lon="2.30996">
        <ele>61.8</ele>
        <time>2024-01-12T15:24:25Z</time>
      </trkpt>
      <trkpt lat="49.87784" lon="2.30995">
        <ele>61.8</ele>
        <time>2024-01-12T15:24:26Z</time>
      </trkpt>
      <trkpt lat="49.87784" lon="2.30994">
        <ele>61.8</ele>
        <time>2024-01-12T15:24:27Z</time>
      </trkpt>
      <trkpt lat="49.87785" lon="2.30993">
        <ele>61.8</ele>
        <time>2024-01-12T15:24:28Z</time>
      </trkpt>
      <trkpt lat="49.87786" lon="2.30993">
        <ele>61.7</ele>
        <time>2024-01-12T15:24:29Z</time>
      </trkpt>
      <trkpt lat="49.87786" lon="2.30992">
        <ele>61.7</ele>
        <time>2024-01-12T15:24:30Z</time>
      </trkpt>
      <trkpt lat="49.87787" lon="2.30993">
        <ele>61.7</ele>
        <time>2024-01-12T15:24:31Z</time>
      </trkpt>
      <trkpt lat="49.87787" lon="2.30993">
        <ele>61.7</ele>
        <time>2024-01-12T15:24:32Z</time>
      </trkpt>
      <trkpt lat="49.87787" lon="2.30994">
        <ele>61.7</ele>
        <time>2024-01-12T15:24:33Z</time>
      </trkpt>
      <trkpt lat="49.87787" lon="2.30994">
        <ele>61.7</ele>
        <time>2024-01-12T15:24:34Z</time>
      </trkpt>
      <trkpt lat="49.87787" lon="2.30994">
        <ele>61.7</ele>
        <time>2024-01-12T15:24:35Z</time>
      </trkpt>
      <trkpt lat="49.87787" lon="2.30995">
        <ele>61.7</ele>
        <time>2024-01-12T15:24:36Z</time>
      </trkpt>
      <trkpt lat="49.87787" lon="2.30995">
        <ele>61.7</ele>
        <time>2024-01-12T15:24:37Z</time>
      </trkpt>
      <trkpt lat="49.87787" lon="2.30995">
        <ele>61.7</ele>
        <time>2024-01-12T15:24:38Z</time>
      </trkpt>
      <trkpt lat="49.87788" lon="2.30995">
        <ele>61.7</ele>
        <time>2024-01-12T15:24:39Z</time>
      </trkpt>
      <trkpt lat="49.87788" lon="2.30995">
        <ele>61.7</ele>
        <time>2024-01-12T15:24:40Z</time>
      </trkpt>
      <trkpt lat="49.87788" lon="2.30994">
        <ele>61.6</ele>
        <time>2024-01-12T15:24:41Z</time>
      </trkpt>
      <trkpt lat="49.87789" lon="2.30994">
        <ele>61.6</ele>
        <time>2024-01-12T15:24:42Z</time>
      </trkpt>
      <trkpt lat="49.87789" lon="2.30993">
        <ele>61.6</ele>
        <time>2024-01-12T15:24:43Z</time>
      </trkpt>
      <trkpt lat="49.87789" lon="2.30993">
        <ele>61.6</ele>
        <time>2024-01-12T15:24:44Z</time>
      </trkpt>
      <trkpt lat="49.8779" lon="2.30992">
        <ele>61.6</ele>
        <time>2024-01-12T15:24:45Z</time>
      </trkpt>
      <trkpt lat="49.8779" lon="2.30992">
        <ele>61.6</ele>
        <time>2024-01-12T15:24:46Z</time>
      </trkpt>
      <trkpt lat="49.87791" lon="2.30991">
        <ele>61.6</ele>
        <time>2024-01-12T15:24:47Z</time>
      </trkpt>
      <trkpt lat="49.87792" lon="2.30991">
        <ele>61.5</ele>
        <time>2024-01-12T15:24:48Z</time>
      </trkpt>
      <trkpt lat="49.87793" lon="2.3099">
        <ele>61.5</ele>
        <time>2024-01-12T15:24:49Z</time>
      </trkpt>
      <trkpt lat="49.87794" lon="2.3099">
        <ele>61.5</ele>
        <time>2024-01-12T15:24:50Z</time>
      </trkpt>
      <trkpt lat="49.87795" lon="2.30989">
        <ele>61.5</ele>
        <time>2024-01-12T15:24:53Z</time>
      </trkpt>
      <trkpt lat="49.87796" lon="2.30989">
        <ele>61.5</ele>
        <time>2024-01-12T15:24:54Z</time>
      </trkpt>
      <trkpt lat="49.87798" lon="2.30988">
        <ele>61.5</ele>
        <time>2024-01-12T15:24:57Z</time>
      </trkpt>
      <trkpt lat="49.87799" lon="2.30988">
        <ele>61.5</ele>
        <time>2024-01-12T15:24:58Z</time>
      </trkpt>
      <trkpt lat="49.878" lon="2.30987">
        <ele>61.5</ele>
        <time>2024-01-12T15:24:59Z</time>
      </trkpt>
      <trkpt lat="49.878" lon="2.30987">
        <ele>61.5</ele>
        <time>2024-01-12T15:25:00Z</time>
      </trkpt>
      <trkpt lat="49.87801" lon="2.30987">
        <ele>61.5</ele>
        <time>2024-01-12T15:25:01Z</time>
      </trkpt>
      <trkpt lat="49.87801" lon="2.30987">
        <ele>61.5</ele>
        <time>2024-01-12T15:25:02Z</time>
      </trkpt>
      <trkpt lat="49.87802" lon="2.30986">
        <ele>61.5</ele>
        <time>2024-01-12T15:25:03Z</time>
      </trkpt>
      <trkpt lat="49.87802" lon="2.30986">
        <ele>61.5</ele>
        <time>2024-01-12T15:25:04Z</time>
      </trkpt>
      <trkpt lat="49.87803" lon="2.30986">
        <ele>61.5</ele>
        <time>2024-01-12T15:25:05Z</time>
      </trkpt>
      <trkpt lat="49.87804" lon="2.30986">
        <ele>61.5</ele>
        <time>2024-01-12T15:25:06Z</time>
      </trkpt>
      <trkpt lat="49.87804" lon="2.30986">
        <ele>61.5</ele>
        <time>2024-01-12T15:25:07Z</time>
      </trkpt>
      <trkpt lat="49.87805" lon="2.30985">
        <ele>61.5</ele>
        <time>2024-01-12T15:25:08Z</time>
      </trkpt>
      <trkpt lat="49.87806" lon="2.30985">
        <ele>61.5</ele>
        <time>2024-01-12T15:25:09Z</time>
      </trkpt>
      <trkpt lat="49.87807" lon="2.30984">
        <ele>61.5</ele>
        <time>2024-01-12T15:25:10Z</time>
      </trkpt>
      <trkpt lat="49.87808" lon="2.30984">
        <ele>61.5</ele>
        <time>2024-01-12T15:25:11Z</time>
      </trkpt>
      <trkpt lat="49.87808" lon="2.30983">
        <ele>61.5</ele>
        <time>2024-01-12T15:25:12Z</time>
      </trkpt>
      <trkpt lat="49.87809" lon="2.30981">
        <ele>61.5</ele>
        <time>2024-01-12T15:25:13Z</time>
      </trkpt>
      <trkpt lat="49.8781" lon="2.3098">
        <ele>61.5</ele>
        <time>2024-01-12T15:25:14Z</time>
      </trkpt>
      <trkpt lat="49.8781" lon="2.30979">
        <ele>61.5</ele>
        <time>2024-01-12T15:25:15Z</time>
      </trkpt>
      <trkpt lat="49.8781" lon="2.30977">
        <ele>61.5</ele>
        <time>2024-01-12T15:25:16Z</time>
      </trkpt>
      <trkpt lat="49.8781" lon="2.30977">
        <ele>61.5</ele>
        <time>2024-01-12T15:25:17Z</time>
      </trkpt>
      <trkpt lat="49.8781" lon="2.30975">
        <ele>61.6</ele>
        <time>2024-01-12T15:25:18Z</time>
      </trkpt>
      <trkpt lat="49.8781" lon="2.30974">
        <ele>61.6</ele>
        <time>2024-01-12T15:25:19Z</time>
      </trkpt>
      <trkpt lat="49.8781" lon="2.30972">
        <ele>61.6</ele>
        <time>2024-01-12T15:25:20Z</time>
      </trkpt>
      <trkpt lat="49.87809" lon="2.30971">
        <ele>61.6</ele>
        <time>2024-01-12T15:25:21Z</time>
      </trkpt>
      <trkpt lat="49.87808" lon="2.30968">
        <ele>61.7</ele>
        <time>2024-01-12T15:25:22Z</time>
      </trkpt>
      <trkpt lat="49.87808" lon="2.30967">
        <ele>61.7</ele>
        <time>2024-01-12T15:25:23Z</time>
      </trkpt>
      <trkpt lat="49.87807" lon="2.30965">
        <ele>61.7</ele>
        <time>2024-01-12T15:25:24Z</time>
      </trkpt>
      <trkpt lat="49.87807" lon="2.30963">
        <ele>61.8</ele>
        <time>2024-01-12T15:25:25Z</time>
      </trkpt>
      <trkpt lat="49.87807" lon="2.30962">
        <ele>61.8</ele>
        <time>2024-01-12T15:25:26Z</time>
      </trkpt>
      <trkpt lat="49.87807" lon="2.30961">
        <ele>61.8</ele>
        <time>2024-01-12T15:25:27Z</time>
      </trkpt>
      <trkpt lat="49.87808" lon="2.3096">
        <ele>61.8</ele>
        <time>2024-01-12T15:25:28Z</time>
      </trkpt>
      <trkpt lat="49.87808" lon="2.30959">
        <ele>61.8</ele>
        <time>2024-01-12T15:25:29Z</time>
      </trkpt>
      <trkpt lat="49.87808" lon="2.30959">
        <ele>61.8</ele>
        <time>2024-01-12T15:25:30Z</time>
      </trkpt>
      <trkpt lat="49.87808" lon="2.30958">
        <ele>61.9</ele>
        <time>2024-01-12T15:25:31Z</time>
      </trkpt>
      <trkpt lat="49.87808" lon="2.30957">
        <ele>61.9</ele>
        <time>2024-01-12T15:25:32Z</time>
      </trkpt>
      <trkpt lat="49.87809" lon="2.30956">
        <ele>61.9</ele>
        <time>2024-01-12T15:25:33Z</time>
      </trkpt>
      <trkpt lat="49.87809" lon="2.30955">
        <ele>61.9</ele>
        <time>2024-01-12T15:25:34Z</time>
      </trkpt>
      <trkpt lat="49.87809" lon="2.30955">
        <ele>61.9</ele>
        <time>2024-01-12T15:25:35Z</time>
      </trkpt>
      <trkpt lat="49.8781" lon="2.30955">
        <ele>61.9</ele>
        <time>2024-01-12T15:25:36Z</time>
      </trkpt>
      <trkpt lat="49.87811" lon="2.30955">
        <ele>61.9</ele>
        <time>2024-01-12T15:25:37Z</time>
      </trkpt>
      <trkpt lat="49.87812" lon="2.30955">
        <ele>61.9</ele>
        <time>2024-01-12T15:25:38Z</time>
      </trkpt>
      <trkpt lat="49.87813" lon="2.30955">
        <ele>61.9</ele>
        <time>2024-01-12T15:25:39Z</time>
      </trkpt>
      <trkpt lat="49.87814" lon="2.30955">
        <ele>61.9</ele>
        <time>2024-01-12T15:25:40Z</time>
      </trkpt>
      <trkpt lat="49.87815" lon="2.30954">
        <ele>61.9</ele>
        <time>2024-01-12T15:25:41Z</time>
      </trkpt>
      <trkpt lat="49.87815" lon="2.30953">
        <ele>61.9</ele>
        <time>2024-01-12T15:25:42Z</time>
      </trkpt>
      <trkpt lat="49.87816" lon="2.30952">
        <ele>61.9</ele>
        <time>2024-01-12T15:25:43Z</time>
      </trkpt>
      <trkpt lat="49.87816" lon="2.30951">
        <ele>61.9</ele>
        <time>2024-01-12T15:25:44Z</time>
      </trkpt>
      <trkpt lat="49.87816" lon="2.30949">
        <ele>61.9</ele>
        <time>2024-01-12T15:25:45Z</time>
      </trkpt>
      <trkpt lat="49.87816" lon="2.30949">
        <ele>61.9</ele>
        <time>2024-01-12T15:25:46Z</time>
      </trkpt>
      <trkpt lat="49.87816" lon="2.30948">
        <ele>61.9</ele>
        <time>2024-01-12T15:25:47Z</time>
      </trkpt>
      <trkpt lat="49.87816" lon="2.30947">
        <ele>61.9</ele>
        <time>2024-01-12T15:25:48Z</time>
      </trkpt>
      <trkpt lat="49.87815" lon="2.30946">
        <ele>61.9</ele>
        <time>2024-01-12T15:25:49Z</time>
      </trkpt>
      <trkpt lat="49.87815" lon="2.30945">
        <ele>61.9</ele>
        <time>2024-01-12T15:25:50Z</time>
      </trkpt>
      <trkpt lat="49.87815" lon="2.30944">
        <ele>61.9</ele>
        <time>2024-01-12T15:25:51Z</time>
      </trkpt>
      <trkpt lat="49.87815" lon="2.30943">
        <ele>61.9</ele>
        <time>2024-01-12T15:25:52Z</time>
      </trkpt>
      <trkpt lat="49.87815" lon="2.30943">
        <ele>61.9</ele>
        <time>2024-01-12T15:25:53Z</time>
      </trkpt>
      <trkpt lat="49.87815" lon="2.30943">
        <ele>61.9</ele>
        <time>2024-01-12T15:25:54Z</time>
      </trkpt>
      <trkpt lat="49.87815" lon="2.30943">
        <ele>61.9</ele>
        <time>2024-01-12T15:25:55Z</time>
      </trkpt>
      <trkpt lat="49.87815" lon="2.30942">
        <ele>61.9</ele>
        <time>2024-01-12T15:25:56Z</time>
      </trkpt>
      <trkpt lat="49.87815" lon="2.30942">
        <ele>61.9</ele>
        <time>2024-01-12T15:25:57Z</time>
      </trkpt>
      <trkpt lat="49.87816" lon="2.30942">
        <ele>61.9</ele>
        <time>2024-01-12T15:25:58Z</time>
      </trkpt>
      <trkpt lat="49.87816" lon="2.30942">
        <ele>61.9</ele>
        <time>2024-01-12T15:25:59Z</time>
      </trkpt>
      <trkpt lat="49.87816" lon="2.30943">
        <ele>61.9</ele>
        <time>2024-01-12T15:26:00Z</time>
      </trkpt>
      <trkpt lat="49.87816" lon="2.30944">
        <ele>61.9</ele>
        <time>2024-01-12T15:26:01Z</time>
      </trkpt>
      <trkpt lat="49.87815" lon="2.30945">
        <ele>61.9</ele>
        <time>2024-01-12T15:26:02Z</time>
      </trkpt>
      <trkpt lat="49.87815" lon="2.30945">
        <ele>61.9</ele>
        <time>2024-01-12T15:26:03Z</time>
      </trkpt>
      <trkpt lat="49.87814" lon="2.30946">
        <ele>61.9</ele>
        <time>2024-01-12T15:26:05Z</time>
      </trkpt>
      <trkpt lat="49.87814" lon="2.30947">
        <ele>61.9</ele>
        <time>2024-01-12T15:26:06Z</time>
      </trkpt>
      <trkpt lat="49.87814" lon="2.30947">
        <ele>61.9</ele>
        <time>2024-01-12T15:26:07Z</time>
      </trkpt>
      <trkpt lat="49.87814" lon="2.30947">
        <ele>61.9</ele>
        <time>2024-01-12T15:26:08Z</time>
      </trkpt>
      <trkpt lat="49.87813" lon="2.30947">
        <ele>61.9</ele>
        <time>2024-01-12T15:26:09Z</time>
      </trkpt>
      <trkpt lat="49.87813" lon="2.30948">
        <ele>61.9</ele>
        <time>2024-01-12T15:26:10Z</time>
      </trkpt>
      <trkpt lat="49.87813" lon="2.30947">
        <ele>61.9</ele>
        <time>2024-01-12T15:26:11Z</time>
      </trkpt>
      <trkpt lat="49.87813" lon="2.30947">
        <ele>61.9</ele>
        <time>2024-01-12T15:26:12Z</time>
      </trkpt>
      <trkpt lat="49.87812" lon="2.30947">
        <ele>61.9</ele>
        <time>2024-01-12T15:26:13Z</time>
      </trkpt>
      <trkpt lat="49.87812" lon="2.30946">
        <ele>61.9</ele>
        <time>2024-01-12T15:26:14Z</time>
      </trkpt>
      <trkpt lat="49.87811" lon="2.30946">
        <ele>61.9</ele>
        <time>2024-01-12T15:26:15Z</time>
      </trkpt>
      <trkpt lat="49.87813" lon="2.30943">
        <ele>61.9</ele>
        <time>2024-01-12T15:26:35Z</time>
      </trkpt>
      <trkpt lat="49.87814" lon="2.30942">
        <ele>61.9</ele>
        <time>2024-01-12T15:26:36Z</time>
      </trkpt>
      <trkpt lat="49.87814" lon="2.30941">
        <ele>61.9</ele>
        <time>2024-01-12T15:26:37Z</time>
      </trkpt>
      <trkpt lat="49.87814" lon="2.3094">
        <ele>61.9</ele>
        <time>2024-01-12T15:26:38Z</time>
      </trkpt>
      <trkpt lat="49.87813" lon="2.30941">
        <ele>61.9</ele>
        <time>2024-01-12T15:26:39Z</time>
      </trkpt>
      <trkpt lat="49.87813" lon="2.30941">
        <ele>61.9</ele>
        <time>2024-01-12T15:26:40Z</time>
      </trkpt>
      <trkpt lat="49.87812" lon="2.30941">
        <ele>61.9</ele>
        <time>2024-01-12T15:26:41Z</time>
      </trkpt>
      <trkpt lat="49.87811" lon="2.30941">
        <ele>61.9</ele>
        <time>2024-01-12T15:26:42Z</time>
      </trkpt>
      <trkpt lat="49.87811" lon="2.3094">
        <ele>61.9</ele>
        <time>2024-01-12T15:26:43Z</time>
      </trkpt>
      <trkpt lat="49.87811" lon="2.30939">
        <ele>61.9</ele>
        <time>2024-01-12T15:26:44Z</time>
      </trkpt>
      <trkpt lat="49.87811" lon="2.30939">
        <ele>61.9</ele>
        <time>2024-01-12T15:26:45Z</time>
      </trkpt>
      <trkpt lat="49.8781" lon="2.30938">
        <ele>61.9</ele>
        <time>2024-01-12T15:26:46Z</time>
      </trkpt>
      <trkpt lat="49.8781" lon="2.30938">
        <ele>61.9</ele>
        <time>2024-01-12T15:26:47Z</time>
      </trkpt>
      <trkpt lat="49.8781" lon="2.30937">
        <ele>61.9</ele>
        <time>2024-01-12T15:26:48Z</time>
      </trkpt>
      <trkpt lat="49.8781" lon="2.30937">
        <ele>61.9</ele>
        <time>2024-01-12T15:26:49Z</time>
      </trkpt>
      <trkpt lat="49.8781" lon="2.30936">
        <ele>61.9</ele>
        <time>2024-01-12T15:26:50Z</time>
      </trkpt>
      <trkpt lat="49.8781" lon="2.30935">
        <ele>61.9</ele>
        <time>2024-01-12T15:26:51Z</time>
      </trkpt>
      <trkpt lat="49.87811" lon="2.30934">
        <ele>61.9</ele>
        <time>2024-01-12T15:26:52Z</time>
      </trkpt>
      <trkpt lat="49.87811" lon="2.30933">
        <ele>61.9</ele>
        <time>2024-01-12T15:26:53Z</time>
      </trkpt>
      <trkpt lat="49.87812" lon="2.30933">
        <ele>61.9</ele>
        <time>2024-01-12T15:26:54Z</time>
      </trkpt>
      <trkpt lat="49.87813" lon="2.30933">
        <ele>61.9</ele>
        <time>2024-01-12T15:26:55Z</time>
      </trkpt>
      <trkpt lat="49.87813" lon="2.30933">
        <ele>61.9</ele>
        <time>2024-01-12T15:26:56Z</time>
      </trkpt>
      <trkpt lat="49.87813" lon="2.30932">
        <ele>61.9</ele>
        <time>2024-01-12T15:26:57Z</time>
      </trkpt>
      <trkpt lat="49.87813" lon="2.30932">
        <ele>61.9</ele>
        <time>2024-01-12T15:26:58Z</time>
      </trkpt>
      <trkpt lat="49.87813" lon="2.30931">
        <ele>61.9</ele>
        <time>2024-01-12T15:26:59Z</time>
      </trkpt>
      <trkpt lat="49.87813" lon="2.30931">
        <ele>61.9</ele>
        <time>2024-01-12T15:27:00Z</time>
      </trkpt>
      <trkpt lat="49.87813" lon="2.3093">
        <ele>61.9</ele>
        <time>2024-01-12T15:27:01Z</time>
      </trkpt>
      <trkpt lat="49.87813" lon="2.3093">
        <ele>61.9</ele>
        <time>2024-01-12T15:27:02Z</time>
      </trkpt>
      <trkpt lat="49.87813" lon="2.3093">
        <ele>61.9</ele>
        <time>2024-01-12T15:27:03Z</time>
      </trkpt>
      <trkpt lat="49.87813" lon="2.30929">
        <ele>61.9</ele>
        <time>2024-01-12T15:27:04Z</time>
      </trkpt>
      <trkpt lat="49.87813" lon="2.30929">
        <ele>61.9</ele>
        <time>2024-01-12T15:27:05Z</time>
      </trkpt>
      <trkpt lat="49.87813" lon="2.30929">
        <ele>61.9</ele>
        <time>2024-01-12T15:27:06Z</time>
      </trkpt>
      <trkpt lat="49.87813" lon="2.30929">
        <ele>61.9</ele>
        <time>2024-01-12T15:27:07Z</time>
      </trkpt>
      <trkpt lat="49.87813" lon="2.30929">
        <ele>61.9</ele>
        <time>2024-01-12T15:27:08Z</time>
      </trkpt>
      <trkpt lat="49.87813" lon="2.30929">
        <ele>61.9</ele>
        <time>2024-01-12T15:27:09Z</time>
      </trkpt>
      <trkpt lat="49.87813" lon="2.30929">
        <ele>61.9</ele>
        <time>2024-01-12T15:27:10Z</time>
      </trkpt>
      <trkpt lat="49.87813" lon="2.30929">
        <ele>61.9</ele>
        <time>2024-01-12T15:27:11Z</time>
      </trkpt>
      <trkpt lat="49.87823" lon="2.30931">
        <ele>61.8</ele>
        <time>2024-01-12T15:27:30Z</time>
      </trkpt>
      <trkpt lat="49.87825" lon="2.3093">
        <ele>61.8</ele>
        <time>2024-01-12T15:27:34Z</time>
      </trkpt>
      <trkpt lat="49.87824" lon="2.30928">
        <ele>61.8</ele>
        <time>2024-01-12T15:27:39Z</time>
      </trkpt>
      <trkpt lat="49.87826" lon="2.30933">
        <ele>61.8</ele>
        <time>2024-01-12T15:27:44Z</time>
      </trkpt>
      <trkpt lat="49.87826" lon="2.30933">
        <ele>61.8</ele>
        <time>2024-01-12T15:27:49Z</time>
      </trkpt>
      <trkpt lat="49.87823" lon="2.30929">
        <ele>61.8</ele>
        <time>2024-01-12T15:28:05Z</time>
      </trkpt>
      <trkpt lat="49.87821" lon="2.30927">
        <ele>61.8</ele>
        <time>2024-01-12T15:28:10Z</time>
      </trkpt>
      <trkpt lat="49.87819" lon="2.30928">
        <ele>61.8</ele>
        <time>2024-01-12T15:28:15Z</time>
      </trkpt>
      <trkpt lat="49.87822" lon="2.30929">
        <ele>61.8</ele>
        <time>2024-01-12T15:28:20Z</time>
      </trkpt>
      <trkpt lat="49.87815" lon="2.30923">
        <ele>61.8</ele>
        <time>2024-01-12T15:28:25Z</time>
      </trkpt>
      <trkpt lat="49.87817" lon="2.30925">
        <ele>61.8</ele>
        <time>2024-01-12T15:28:30Z</time>
      </trkpt>
      <trkpt lat="49.87823" lon="2.30932">
        <ele>61.8</ele>
        <time>2024-01-12T15:28:53Z</time>
      </trkpt>
      <trkpt lat="49.87824" lon="2.30934">
        <ele>61.8</ele>
        <time>2024-01-12T15:29:00Z</time>
      </trkpt>
      <trkpt lat="49.87824" lon="2.30935">
        <ele>61.8</ele>
        <time>2024-01-12T15:29:10Z</time>
      </trkpt>
      <trkpt lat="49.87823" lon="2.30934">
        <ele>61.8</ele>
        <time>2024-01-12T15:29:15Z</time>
      </trkpt>
      <trkpt lat="49.87825" lon="2.30932">
        <ele>61.8</ele>
        <time>2024-01-12T15:29:20Z</time>
      </trkpt>
      <trkpt lat="49.87823" lon="2.30931">
        <ele>61.8</ele>
        <time>2024-01-12T15:29:25Z</time>
      </trkpt>
      <trkpt lat="49.87822" lon="2.30932">
        <ele>61.8</ele>
        <time>2024-01-12T15:29:30Z</time>
      </trkpt>
      <trkpt lat="49.87824" lon="2.30931">
        <ele>61.8</ele>
        <time>2024-01-12T15:29:35Z</time>
      </trkpt>
      <trkpt lat="49.87817" lon="2.30922">
        <ele>61.8</ele>
        <time>2024-01-12T16:45:01Z</time>
      </trkpt>
      <trkpt lat="49.87819" lon="2.30926">
        <ele>61.8</ele>
        <time>2024-01-12T16:45:06Z</time>
      </trkpt>
      <trkpt lat="49.87821" lon="2.30927">
        <ele>61.8</ele>
        <time>2024-01-12T16:45:09Z</time>
      </trkpt>
      <trkpt lat="49.87821" lon="2.30925">
        <ele>61.8</ele>
        <time>2024-01-12T16:45:16Z</time>
      </trkpt>
      <trkpt lat="49.87822" lon="2.30928">
        <ele>61.8</ele>
        <time>2024-01-12T16:45:21Z</time>
      </trkpt>
      <trkpt lat="49.8782" lon="2.30928">
        <ele>61.8</ele>
        <time>2024-01-12T16:45:24Z</time>
      </trkpt>
      <trkpt lat="49.8782" lon="2.30929">
        <ele>61.8</ele>
        <time>2024-01-12T16:45:31Z</time>
      </trkpt>
      <trkpt lat="49.87818" lon="2.30926">
        <ele>61.8</ele>
        <time>2024-01-12T16:46:12Z</time>
      </trkpt>
      <trkpt lat="49.87817" lon="2.30927">
        <ele>61.8</ele>
        <time>2024-01-12T16:46:17Z</time>
      </trkpt>
      <trkpt lat="49.87813" lon="2.30923">
        <ele>61.8</ele>
        <time>2024-01-12T16:46:22Z</time>
      </trkpt>
      <trkpt lat="49.87814" lon="2.30925">
        <ele>61.8</ele>
        <time>2024-01-12T16:46:27Z</time>
      </trkpt>
      <trkpt lat="49.8782" lon="2.30929">
        <ele>61.8</ele>
        <time>2024-01-12T16:46:32Z</time>
      </trkpt>
      <trkpt lat="49.87821" lon="2.30932">
        <ele>61.8</ele>
        <time>2024-01-12T16:46:37Z</time>
      </trkpt>
      <trkpt lat="49.8782" lon="2.30931">
        <ele>61.8</ele>
        <time>2024-01-12T16:46:42Z</time>
      </trkpt>
      <trkpt lat="49.8782" lon="2.30929">
        <ele>61.8</ele>
        <time>2024-01-12T16:46:47Z</time>
      </trkpt>
      <trkpt lat="49.87817" lon="2.3093">
        <ele>61.8</ele>
        <time>2024-01-12T16:47:07Z</time>
      </trkpt>
      <trkpt lat="49.8782" lon="2.30929">
        <ele>61.8</ele>
        <time>2024-01-12T16:47:12Z</time>
      </trkpt>
      <trkpt lat="49.8782" lon="2.30928">
        <ele>61.8</ele>
        <time>2024-01-12T16:47:17Z</time>
      </trkpt>
      <trkpt lat="49.87819" lon="2.30929">
        <ele>61.8</ele>
        <time>2024-01-12T16:47:22Z</time>
      </trkpt>
      <trkpt lat="49.87812" lon="2.30922">
        <ele>61.8</ele>
        <time>2024-01-12T16:47:32Z</time>
      </trkpt>
      <trkpt lat="49.87813" lon="2.30922">
        <ele>61.8</ele>
        <time>2024-01-12T16:47:37Z</time>
      </trkpt>
      <trkpt lat="49.87815" lon="2.30927">
        <ele>61.8</ele>
        <time>2024-01-12T16:47:42Z</time>
      </trkpt>
      <trkpt lat="49.87815" lon="2.30926">
        <ele>61.8</ele>
        <time>2024-01-12T16:47:47Z</time>
      </trkpt>
      <trkpt lat="49.87814" lon="2.30926">
        <ele>61.8</ele>
        <time>2024-01-12T16:47:52Z</time>
      </trkpt>
      <trkpt lat="49.8782" lon="2.30928">
        <ele>61.8</ele>
        <time>2024-01-12T16:48:08Z</time>
      </trkpt>
      <trkpt lat="49.87817" lon="2.30928">
        <ele>61.8</ele>
        <time>2024-01-12T16:48:13Z</time>
      </trkpt>
      <trkpt lat="49.87816" lon="2.30927">
        <ele>61.8</ele>
        <time>2024-01-12T16:48:18Z</time>
      </trkpt>
      <trkpt lat="49.87819" lon="2.30929">
        <ele>61.8</ele>
        <time>2024-01-12T16:48:23Z</time>
      </trkpt>
      <trkpt lat="49.8782" lon="2.30929">
        <ele>61.8</ele>
        <time>2024-01-12T16:48:28Z</time>
      </trkpt>
      <trkpt lat="49.87818" lon="2.30927">
        <ele>61.8</ele>
        <time>2024-01-12T16:48:33Z</time>
      </trkpt>
      <trkpt lat="49.8782" lon="2.30928">
        <ele>61.8</ele>
        <time>2024-01-12T16:49:46Z</time>
      </trkpt>
      <trkpt lat="49.87818" lon="2.30927">
        <ele>61.8</ele>
        <time>2024-01-12T16:49:51Z</time>
      </trkpt>
      <trkpt lat="49.8782" lon="2.30928">
        <ele>61.8</ele>
        <time>2024-01-12T16:49:56Z</time>
      </trkpt>
      <trkpt lat="49.87822" lon="2.3093">
        <ele>61.8</ele>
        <time>2024-01-12T16:50:01Z</time>
      </trkpt>
      <trkpt lat="49.87822" lon="2.30929">
        <ele>61.8</ele>
        <time>2024-01-12T16:50:06Z</time>
      </trkpt>
      <trkpt lat="49.87821" lon="2.30928">
        <ele>61.8</ele>
        <time>2024-01-12T16:50:12Z</time>
      </trkpt>
      <trkpt lat="49.87819" lon="2.30926">
        <ele>61.8</ele>
        <time>2024-01-12T16:50:42Z</time>
      </trkpt>
      <trkpt lat="49.87817" lon="2.30923">
        <ele>61.8</ele>
        <time>2024-01-12T16:50:52Z</time>
      </trkpt>
      <trkpt lat="49.87819" lon="2.30925">
        <ele>61.8</ele>
        <time>2024-01-12T16:51:02Z</time>
      </trkpt>
      <trkpt lat="49.87822" lon="2.3093">
        <ele>61.8</ele>
        <time>2024-01-12T16:51:07Z</time>
      </trkpt>
      <trkpt lat="49.87821" lon="2.30927">
        <ele>61.8</ele>
        <time>2024-01-12T16:51:17Z</time>
      </trkpt>
      <trkpt lat="49.87816" lon="2.30925">
        <ele>61.8</ele>
        <time>2024-01-12T16:51:27Z</time>
      </trkpt>
      <trkpt lat="49.87819" lon="2.30927">
        <ele>61.8</ele>
        <time>2024-01-12T16:51:32Z</time>
      </trkpt>
      <trkpt lat="49.87824" lon="2.30929">
        <ele>61.8</ele>
        <time>2024-01-12T16:51:37Z</time>
      </trkpt>
      <trkpt lat="49.87822" lon="2.30928">
        <ele>61.8</ele>
        <time>2024-01-12T16:51:42Z</time>
      </trkpt>
    </trkseg>
  </trk>
</gpx>